<?xml version="1.0" encoding="UTF-8" standalone="no" ?>
<gpx xmlns="http://www.topografix.com/GPX/1/1" xmlns:xsi="http://www.w3.org/2001/XMLSchema-instance" xsi:schemaLocation="http://www.topografix.com/GPX/1/1 http://www.topografix.com/GPX/1/1/gpx.xsd" version="1.1" creator="VisuGPX - https://www.visugpx.com">
  <metadata>
    <name>Un tour en VTT </name>
    <desc><![CDATA[Un petit 100 km avec peu de boue avec le soleil ]]></desc>
  </metadata>
  <trk>
    <name><![CDATA[Un tour en VTT _1]]></name>
    <trkseg>
      <trkpt lat="48.62258" lon="2.01829">
        <ele>127.4</ele>
        <time>2026-03-29T09:24:54Z</time>
      </trkpt>
      <trkpt lat="48.62258" lon="2.01829">
        <ele>127.4</ele>
        <time>2026-03-29T09:24:55Z</time>
      </trkpt>
      <trkpt lat="48.62258" lon="2.01829">
        <ele>127.4</ele>
        <time>2026-03-29T09:24:56Z</time>
      </trkpt>
      <trkpt lat="48.62256" lon="2.0183">
        <ele>127.4</ele>
        <time>2026-03-29T09:24:57Z</time>
      </trkpt>
      <trkpt lat="48.62253" lon="2.01832">
        <ele>127</ele>
        <time>2026-03-29T09:24:58Z</time>
      </trkpt>
      <trkpt lat="48.62251" lon="2.01835">
        <ele>127</ele>
        <time>2026-03-29T09:24:59Z</time>
      </trkpt>
      <trkpt lat="48.62249" lon="2.01837">
        <ele>127</ele>
        <time>2026-03-29T09:25:00Z</time>
      </trkpt>
      <trkpt lat="48.62248" lon="2.0184">
        <ele>127</ele>
        <time>2026-03-29T09:25:01Z</time>
      </trkpt>
      <trkpt lat="48.62247" lon="2.01844">
        <ele>127.6</ele>
        <time>2026-03-29T09:25:02Z</time>
      </trkpt>
      <trkpt lat="48.62246" lon="2.01848">
        <ele>127.6</ele>
        <time>2026-03-29T09:25:03Z</time>
      </trkpt>
      <trkpt lat="48.62247" lon="2.01852">
        <ele>127.6</ele>
        <time>2026-03-29T09:25:04Z</time>
      </trkpt>
      <trkpt lat="48.62248" lon="2.01855">
        <ele>127.6</ele>
        <time>2026-03-29T09:25:05Z</time>
      </trkpt>
      <trkpt lat="48.6225" lon="2.01859">
        <ele>127.2</ele>
        <time>2026-03-29T09:25:06Z</time>
      </trkpt>
      <trkpt lat="48.62252" lon="2.01862">
        <ele>127.2</ele>
        <time>2026-03-29T09:25:07Z</time>
      </trkpt>
      <trkpt lat="48.62252" lon="2.01867">
        <ele>127.2</ele>
        <time>2026-03-29T09:25:08Z</time>
      </trkpt>
      <trkpt lat="48.62252" lon="2.01871">
        <ele>127.6</ele>
        <time>2026-03-29T09:25:09Z</time>
      </trkpt>
      <trkpt lat="48.6225" lon="2.01875">
        <ele>127.6</ele>
        <time>2026-03-29T09:25:10Z</time>
      </trkpt>
      <trkpt lat="48.62247" lon="2.01877">
        <ele>127.6</ele>
        <time>2026-03-29T09:25:11Z</time>
      </trkpt>
      <trkpt lat="48.62243" lon="2.01877">
        <ele>127.6</ele>
        <time>2026-03-29T09:25:12Z</time>
      </trkpt>
      <trkpt lat="48.6224" lon="2.01877">
        <ele>127.6</ele>
        <time>2026-03-29T09:25:13Z</time>
      </trkpt>
      <trkpt lat="48.62237" lon="2.01875">
        <ele>127.4</ele>
        <time>2026-03-29T09:25:14Z</time>
      </trkpt>
      <trkpt lat="48.62235" lon="2.01872">
        <ele>127.4</ele>
        <time>2026-03-29T09:25:15Z</time>
      </trkpt>
      <trkpt lat="48.62232" lon="2.01869">
        <ele>127.4</ele>
        <time>2026-03-29T09:25:16Z</time>
      </trkpt>
      <trkpt lat="48.6223" lon="2.01866">
        <ele>126.4</ele>
        <time>2026-03-29T09:25:17Z</time>
      </trkpt>
      <trkpt lat="48.62227" lon="2.01863">
        <ele>127.6</ele>
        <time>2026-03-29T09:25:18Z</time>
      </trkpt>
      <trkpt lat="48.62226" lon="2.01859">
        <ele>127.6</ele>
        <time>2026-03-29T09:25:19Z</time>
      </trkpt>
      <trkpt lat="48.62226" lon="2.01855">
        <ele>127.6</ele>
        <time>2026-03-29T09:25:20Z</time>
      </trkpt>
      <trkpt lat="48.62226" lon="2.01851">
        <ele>127.6</ele>
        <time>2026-03-29T09:25:21Z</time>
      </trkpt>
      <trkpt lat="48.62227" lon="2.01846">
        <ele>127.6</ele>
        <time>2026-03-29T09:25:22Z</time>
      </trkpt>
      <trkpt lat="48.62228" lon="2.01841">
        <ele>127.6</ele>
        <time>2026-03-29T09:25:23Z</time>
      </trkpt>
      <trkpt lat="48.62228" lon="2.01836">
        <ele>127.6</ele>
        <time>2026-03-29T09:25:24Z</time>
      </trkpt>
      <trkpt lat="48.62229" lon="2.01831">
        <ele>128.4</ele>
        <time>2026-03-29T09:25:25Z</time>
      </trkpt>
      <trkpt lat="48.62229" lon="2.01826">
        <ele>128</ele>
        <time>2026-03-29T09:25:26Z</time>
      </trkpt>
      <trkpt lat="48.6223" lon="2.01821">
        <ele>128</ele>
        <time>2026-03-29T09:25:27Z</time>
      </trkpt>
      <trkpt lat="48.6223" lon="2.01816">
        <ele>128</ele>
        <time>2026-03-29T09:25:28Z</time>
      </trkpt>
      <trkpt lat="48.62231" lon="2.0181">
        <ele>127.8</ele>
        <time>2026-03-29T09:25:29Z</time>
      </trkpt>
      <trkpt lat="48.62232" lon="2.01805">
        <ele>128.4</ele>
        <time>2026-03-29T09:25:30Z</time>
      </trkpt>
      <trkpt lat="48.62233" lon="2.01799">
        <ele>128.4</ele>
        <time>2026-03-29T09:25:31Z</time>
      </trkpt>
      <trkpt lat="48.62233" lon="2.01793">
        <ele>128.4</ele>
        <time>2026-03-29T09:25:32Z</time>
      </trkpt>
      <trkpt lat="48.62234" lon="2.01787">
        <ele>128.4</ele>
        <time>2026-03-29T09:25:33Z</time>
      </trkpt>
      <trkpt lat="48.62235" lon="2.01782">
        <ele>128.4</ele>
        <time>2026-03-29T09:25:34Z</time>
      </trkpt>
      <trkpt lat="48.62235" lon="2.01776">
        <ele>128.4</ele>
        <time>2026-03-29T09:25:35Z</time>
      </trkpt>
      <trkpt lat="48.62236" lon="2.0177">
        <ele>128.4</ele>
        <time>2026-03-29T09:25:36Z</time>
      </trkpt>
      <trkpt lat="48.62236" lon="2.01765">
        <ele>128.4</ele>
        <time>2026-03-29T09:25:37Z</time>
      </trkpt>
      <trkpt lat="48.62237" lon="2.0176">
        <ele>128.4</ele>
        <time>2026-03-29T09:25:38Z</time>
      </trkpt>
      <trkpt lat="48.62238" lon="2.01754">
        <ele>128.4</ele>
        <time>2026-03-29T09:25:39Z</time>
      </trkpt>
      <trkpt lat="48.62238" lon="2.01749">
        <ele>128.4</ele>
        <time>2026-03-29T09:25:40Z</time>
      </trkpt>
      <trkpt lat="48.62239" lon="2.01744">
        <ele>128.4</ele>
        <time>2026-03-29T09:25:41Z</time>
      </trkpt>
      <trkpt lat="48.62239" lon="2.0174">
        <ele>128.4</ele>
        <time>2026-03-29T09:25:42Z</time>
      </trkpt>
      <trkpt lat="48.62238" lon="2.01736">
        <ele>128.4</ele>
        <time>2026-03-29T09:25:43Z</time>
      </trkpt>
      <trkpt lat="48.62235" lon="2.01735">
        <ele>128.4</ele>
        <time>2026-03-29T09:25:44Z</time>
      </trkpt>
      <trkpt lat="48.62232" lon="2.01734">
        <ele>129</ele>
        <time>2026-03-29T09:25:45Z</time>
      </trkpt>
      <trkpt lat="48.62229" lon="2.01733">
        <ele>128.6</ele>
        <time>2026-03-29T09:25:46Z</time>
      </trkpt>
      <trkpt lat="48.62226" lon="2.01731">
        <ele>128.6</ele>
        <time>2026-03-29T09:25:47Z</time>
      </trkpt>
      <trkpt lat="48.62223" lon="2.01729">
        <ele>128.6</ele>
        <time>2026-03-29T09:25:48Z</time>
      </trkpt>
      <trkpt lat="48.62219" lon="2.01727">
        <ele>128.6</ele>
        <time>2026-03-29T09:25:49Z</time>
      </trkpt>
      <trkpt lat="48.62216" lon="2.01726">
        <ele>129.2</ele>
        <time>2026-03-29T09:25:50Z</time>
      </trkpt>
      <trkpt lat="48.62213" lon="2.01724">
        <ele>129.2</ele>
        <time>2026-03-29T09:25:51Z</time>
      </trkpt>
      <trkpt lat="48.62209" lon="2.01723">
        <ele>129.2</ele>
        <time>2026-03-29T09:25:52Z</time>
      </trkpt>
      <trkpt lat="48.62205" lon="2.01722">
        <ele>128.6</ele>
        <time>2026-03-29T09:25:53Z</time>
      </trkpt>
      <trkpt lat="48.62202" lon="2.0172">
        <ele>129.4</ele>
        <time>2026-03-29T09:25:54Z</time>
      </trkpt>
      <trkpt lat="48.62198" lon="2.01718">
        <ele>129.4</ele>
        <time>2026-03-29T09:25:55Z</time>
      </trkpt>
      <trkpt lat="48.62195" lon="2.01716">
        <ele>129.4</ele>
        <time>2026-03-29T09:25:56Z</time>
      </trkpt>
      <trkpt lat="48.6219" lon="2.01715">
        <ele>129.2</ele>
        <time>2026-03-29T09:25:57Z</time>
      </trkpt>
      <trkpt lat="48.62186" lon="2.01712">
        <ele>129.2</ele>
        <time>2026-03-29T09:25:58Z</time>
      </trkpt>
      <trkpt lat="48.62183" lon="2.0171">
        <ele>129.2</ele>
        <time>2026-03-29T09:25:59Z</time>
      </trkpt>
      <trkpt lat="48.62179" lon="2.01709">
        <ele>129.2</ele>
        <time>2026-03-29T09:26:00Z</time>
      </trkpt>
      <trkpt lat="48.62174" lon="2.01707">
        <ele>129</ele>
        <time>2026-03-29T09:26:01Z</time>
      </trkpt>
      <trkpt lat="48.62171" lon="2.01704">
        <ele>129.2</ele>
        <time>2026-03-29T09:26:02Z</time>
      </trkpt>
      <trkpt lat="48.62168" lon="2.01703">
        <ele>129.2</ele>
        <time>2026-03-29T09:26:03Z</time>
      </trkpt>
      <trkpt lat="48.62165" lon="2.01701">
        <ele>129.2</ele>
        <time>2026-03-29T09:26:04Z</time>
      </trkpt>
      <trkpt lat="48.62163" lon="2.01701">
        <ele>129</ele>
        <time>2026-03-29T09:26:05Z</time>
      </trkpt>
      <trkpt lat="48.6216" lon="2.017">
        <ele>129.2</ele>
        <time>2026-03-29T09:26:06Z</time>
      </trkpt>
      <trkpt lat="48.62156" lon="2.01698">
        <ele>129.2</ele>
        <time>2026-03-29T09:26:07Z</time>
      </trkpt>
      <trkpt lat="48.62151" lon="2.01696">
        <ele>129.2</ele>
        <time>2026-03-29T09:26:08Z</time>
      </trkpt>
      <trkpt lat="48.62147" lon="2.01694">
        <ele>129</ele>
        <time>2026-03-29T09:26:09Z</time>
      </trkpt>
      <trkpt lat="48.62142" lon="2.01692">
        <ele>128.6</ele>
        <time>2026-03-29T09:26:10Z</time>
      </trkpt>
      <trkpt lat="48.62138" lon="2.01689">
        <ele>128.6</ele>
        <time>2026-03-29T09:26:11Z</time>
      </trkpt>
      <trkpt lat="48.62134" lon="2.01686">
        <ele>128.6</ele>
        <time>2026-03-29T09:26:12Z</time>
      </trkpt>
      <trkpt lat="48.62129" lon="2.01684">
        <ele>128.6</ele>
        <time>2026-03-29T09:26:13Z</time>
      </trkpt>
      <trkpt lat="48.62125" lon="2.01681">
        <ele>129.2</ele>
        <time>2026-03-29T09:26:14Z</time>
      </trkpt>
      <trkpt lat="48.62121" lon="2.0168">
        <ele>129.2</ele>
        <time>2026-03-29T09:26:15Z</time>
      </trkpt>
      <trkpt lat="48.62117" lon="2.01679">
        <ele>129.2</ele>
        <time>2026-03-29T09:26:16Z</time>
      </trkpt>
      <trkpt lat="48.62113" lon="2.01678">
        <ele>129.2</ele>
        <time>2026-03-29T09:26:17Z</time>
      </trkpt>
      <trkpt lat="48.62108" lon="2.01677">
        <ele>129.4</ele>
        <time>2026-03-29T09:26:18Z</time>
      </trkpt>
      <trkpt lat="48.62104" lon="2.01675">
        <ele>129.4</ele>
        <time>2026-03-29T09:26:19Z</time>
      </trkpt>
      <trkpt lat="48.621" lon="2.01674">
        <ele>129.4</ele>
        <time>2026-03-29T09:26:20Z</time>
      </trkpt>
      <trkpt lat="48.62096" lon="2.01672">
        <ele>129.4</ele>
        <time>2026-03-29T09:26:21Z</time>
      </trkpt>
      <trkpt lat="48.62091" lon="2.01671">
        <ele>128</ele>
        <time>2026-03-29T09:26:22Z</time>
      </trkpt>
      <trkpt lat="48.62087" lon="2.01669">
        <ele>128</ele>
        <time>2026-03-29T09:26:23Z</time>
      </trkpt>
      <trkpt lat="48.62082" lon="2.01668">
        <ele>128</ele>
        <time>2026-03-29T09:26:24Z</time>
      </trkpt>
      <trkpt lat="48.62077" lon="2.01666">
        <ele>128</ele>
        <time>2026-03-29T09:26:25Z</time>
      </trkpt>
      <trkpt lat="48.62073" lon="2.01664">
        <ele>129.2</ele>
        <time>2026-03-29T09:26:26Z</time>
      </trkpt>
      <trkpt lat="48.62069" lon="2.01663">
        <ele>129.2</ele>
        <time>2026-03-29T09:26:27Z</time>
      </trkpt>
      <trkpt lat="48.62064" lon="2.01662">
        <ele>129.2</ele>
        <time>2026-03-29T09:26:28Z</time>
      </trkpt>
      <trkpt lat="48.6206" lon="2.01661">
        <ele>128.4</ele>
        <time>2026-03-29T09:26:29Z</time>
      </trkpt>
      <trkpt lat="48.62054" lon="2.01659">
        <ele>128</ele>
        <time>2026-03-29T09:26:30Z</time>
      </trkpt>
      <trkpt lat="48.62049" lon="2.01658">
        <ele>128</ele>
        <time>2026-03-29T09:26:31Z</time>
      </trkpt>
      <trkpt lat="48.62044" lon="2.01656">
        <ele>128</ele>
        <time>2026-03-29T09:26:32Z</time>
      </trkpt>
      <trkpt lat="48.62038" lon="2.01655">
        <ele>128</ele>
        <time>2026-03-29T09:26:33Z</time>
      </trkpt>
      <trkpt lat="48.62033" lon="2.01654">
        <ele>127.6</ele>
        <time>2026-03-29T09:26:34Z</time>
      </trkpt>
      <trkpt lat="48.62027" lon="2.01653">
        <ele>127.6</ele>
        <time>2026-03-29T09:26:35Z</time>
      </trkpt>
      <trkpt lat="48.62021" lon="2.01652">
        <ele>127.6</ele>
        <time>2026-03-29T09:26:36Z</time>
      </trkpt>
      <trkpt lat="48.62015" lon="2.0165">
        <ele>127.2</ele>
        <time>2026-03-29T09:26:37Z</time>
      </trkpt>
      <trkpt lat="48.6201" lon="2.01648">
        <ele>127.4</ele>
        <time>2026-03-29T09:26:38Z</time>
      </trkpt>
      <trkpt lat="48.62004" lon="2.01647">
        <ele>127.4</ele>
        <time>2026-03-29T09:26:39Z</time>
      </trkpt>
      <trkpt lat="48.61998" lon="2.01645">
        <ele>127.4</ele>
        <time>2026-03-29T09:26:40Z</time>
      </trkpt>
      <trkpt lat="48.61992" lon="2.01644">
        <ele>126.6</ele>
        <time>2026-03-29T09:26:41Z</time>
      </trkpt>
      <trkpt lat="48.61987" lon="2.01642">
        <ele>126.6</ele>
        <time>2026-03-29T09:26:42Z</time>
      </trkpt>
      <trkpt lat="48.6198" lon="2.0164">
        <ele>126.6</ele>
        <time>2026-03-29T09:26:43Z</time>
      </trkpt>
      <trkpt lat="48.61974" lon="2.01639">
        <ele>126.6</ele>
        <time>2026-03-29T09:26:44Z</time>
      </trkpt>
      <trkpt lat="48.61968" lon="2.01636">
        <ele>126.6</ele>
        <time>2026-03-29T09:26:45Z</time>
      </trkpt>
      <trkpt lat="48.61962" lon="2.01634">
        <ele>125.8</ele>
        <time>2026-03-29T09:26:46Z</time>
      </trkpt>
      <trkpt lat="48.61956" lon="2.01633">
        <ele>125.8</ele>
        <time>2026-03-29T09:26:47Z</time>
      </trkpt>
      <trkpt lat="48.6195" lon="2.01631">
        <ele>125.8</ele>
        <time>2026-03-29T09:26:48Z</time>
      </trkpt>
      <trkpt lat="48.61944" lon="2.01629">
        <ele>125.6</ele>
        <time>2026-03-29T09:26:49Z</time>
      </trkpt>
      <trkpt lat="48.61938" lon="2.01627">
        <ele>125.2</ele>
        <time>2026-03-29T09:26:50Z</time>
      </trkpt>
      <trkpt lat="48.6193" lon="2.01626">
        <ele>125.2</ele>
        <time>2026-03-29T09:26:51Z</time>
      </trkpt>
      <trkpt lat="48.61924" lon="2.01624">
        <ele>125.2</ele>
        <time>2026-03-29T09:26:52Z</time>
      </trkpt>
      <trkpt lat="48.61917" lon="2.01622">
        <ele>124.8</ele>
        <time>2026-03-29T09:26:53Z</time>
      </trkpt>
      <trkpt lat="48.61911" lon="2.0162">
        <ele>124.8</ele>
        <time>2026-03-29T09:26:54Z</time>
      </trkpt>
      <trkpt lat="48.61905" lon="2.01618">
        <ele>124.8</ele>
        <time>2026-03-29T09:26:55Z</time>
      </trkpt>
      <trkpt lat="48.619" lon="2.01616">
        <ele>124.8</ele>
        <time>2026-03-29T09:26:56Z</time>
      </trkpt>
      <trkpt lat="48.61894" lon="2.01613">
        <ele>124.4</ele>
        <time>2026-03-29T09:26:57Z</time>
      </trkpt>
      <trkpt lat="48.61888" lon="2.01609">
        <ele>124.4</ele>
        <time>2026-03-29T09:26:58Z</time>
      </trkpt>
      <trkpt lat="48.61882" lon="2.01606">
        <ele>124.4</ele>
        <time>2026-03-29T09:26:59Z</time>
      </trkpt>
      <trkpt lat="48.61877" lon="2.01602">
        <ele>124.4</ele>
        <time>2026-03-29T09:27:00Z</time>
      </trkpt>
      <trkpt lat="48.61871" lon="2.016">
        <ele>124.4</ele>
        <time>2026-03-29T09:27:01Z</time>
      </trkpt>
      <trkpt lat="48.61865" lon="2.01598">
        <ele>123.6</ele>
        <time>2026-03-29T09:27:02Z</time>
      </trkpt>
      <trkpt lat="48.6186" lon="2.01595">
        <ele>123.6</ele>
        <time>2026-03-29T09:27:03Z</time>
      </trkpt>
      <trkpt lat="48.61854" lon="2.01592">
        <ele>123.6</ele>
        <time>2026-03-29T09:27:04Z</time>
      </trkpt>
      <trkpt lat="48.61849" lon="2.0159">
        <ele>123.2</ele>
        <time>2026-03-29T09:27:05Z</time>
      </trkpt>
      <trkpt lat="48.61844" lon="2.01588">
        <ele>123.4</ele>
        <time>2026-03-29T09:27:06Z</time>
      </trkpt>
      <trkpt lat="48.61839" lon="2.01586">
        <ele>123.4</ele>
        <time>2026-03-29T09:27:07Z</time>
      </trkpt>
      <trkpt lat="48.61833" lon="2.01583">
        <ele>123.4</ele>
        <time>2026-03-29T09:27:08Z</time>
      </trkpt>
      <trkpt lat="48.61827" lon="2.01581">
        <ele>123.4</ele>
        <time>2026-03-29T09:27:09Z</time>
      </trkpt>
      <trkpt lat="48.61822" lon="2.01577">
        <ele>123</ele>
        <time>2026-03-29T09:27:10Z</time>
      </trkpt>
      <trkpt lat="48.61817" lon="2.01576">
        <ele>123</ele>
        <time>2026-03-29T09:27:11Z</time>
      </trkpt>
      <trkpt lat="48.61811" lon="2.01574">
        <ele>123</ele>
        <time>2026-03-29T09:27:12Z</time>
      </trkpt>
      <trkpt lat="48.61804" lon="2.01572">
        <ele>123</ele>
        <time>2026-03-29T09:27:13Z</time>
      </trkpt>
      <trkpt lat="48.61799" lon="2.01569">
        <ele>122.4</ele>
        <time>2026-03-29T09:27:14Z</time>
      </trkpt>
      <trkpt lat="48.61794" lon="2.01568">
        <ele>122.4</ele>
        <time>2026-03-29T09:27:15Z</time>
      </trkpt>
      <trkpt lat="48.61788" lon="2.01566">
        <ele>122.4</ele>
        <time>2026-03-29T09:27:16Z</time>
      </trkpt>
      <trkpt lat="48.61782" lon="2.01565">
        <ele>122.6</ele>
        <time>2026-03-29T09:27:17Z</time>
      </trkpt>
      <trkpt lat="48.61776" lon="2.01563">
        <ele>122.2</ele>
        <time>2026-03-29T09:27:18Z</time>
      </trkpt>
      <trkpt lat="48.61769" lon="2.01563">
        <ele>122.2</ele>
        <time>2026-03-29T09:27:19Z</time>
      </trkpt>
      <trkpt lat="48.61763" lon="2.01561">
        <ele>122.2</ele>
        <time>2026-03-29T09:27:20Z</time>
      </trkpt>
      <trkpt lat="48.61758" lon="2.01559">
        <ele>122.6</ele>
        <time>2026-03-29T09:27:21Z</time>
      </trkpt>
      <trkpt lat="48.61751" lon="2.01558">
        <ele>122.6</ele>
        <time>2026-03-29T09:27:22Z</time>
      </trkpt>
      <trkpt lat="48.61746" lon="2.01557">
        <ele>122.6</ele>
        <time>2026-03-29T09:27:23Z</time>
      </trkpt>
      <trkpt lat="48.61742" lon="2.01555">
        <ele>122.6</ele>
        <time>2026-03-29T09:27:24Z</time>
      </trkpt>
      <trkpt lat="48.61737" lon="2.01555">
        <ele>122.6</ele>
        <time>2026-03-29T09:27:25Z</time>
      </trkpt>
      <trkpt lat="48.61732" lon="2.01554">
        <ele>121.6</ele>
        <time>2026-03-29T09:27:26Z</time>
      </trkpt>
      <trkpt lat="48.61726" lon="2.01552">
        <ele>121.6</ele>
        <time>2026-03-29T09:27:27Z</time>
      </trkpt>
      <trkpt lat="48.61721" lon="2.0155">
        <ele>121.6</ele>
        <time>2026-03-29T09:27:28Z</time>
      </trkpt>
      <trkpt lat="48.61715" lon="2.01548">
        <ele>122.4</ele>
        <time>2026-03-29T09:27:29Z</time>
      </trkpt>
      <trkpt lat="48.6171" lon="2.01547">
        <ele>122.2</ele>
        <time>2026-03-29T09:27:30Z</time>
      </trkpt>
      <trkpt lat="48.61706" lon="2.01546">
        <ele>122.2</ele>
        <time>2026-03-29T09:27:31Z</time>
      </trkpt>
      <trkpt lat="48.617" lon="2.01545">
        <ele>122.2</ele>
        <time>2026-03-29T09:27:32Z</time>
      </trkpt>
      <trkpt lat="48.61694" lon="2.01543">
        <ele>122.2</ele>
        <time>2026-03-29T09:27:33Z</time>
      </trkpt>
      <trkpt lat="48.61689" lon="2.01542">
        <ele>122.8</ele>
        <time>2026-03-29T09:27:34Z</time>
      </trkpt>
      <trkpt lat="48.61684" lon="2.0154">
        <ele>122.8</ele>
        <time>2026-03-29T09:27:35Z</time>
      </trkpt>
      <trkpt lat="48.6168" lon="2.01539">
        <ele>122.8</ele>
        <time>2026-03-29T09:27:36Z</time>
      </trkpt>
      <trkpt lat="48.61675" lon="2.01537">
        <ele>122.6</ele>
        <time>2026-03-29T09:27:37Z</time>
      </trkpt>
      <trkpt lat="48.61672" lon="2.01537">
        <ele>122.4</ele>
        <time>2026-03-29T09:27:38Z</time>
      </trkpt>
      <trkpt lat="48.61667" lon="2.01536">
        <ele>122.4</ele>
        <time>2026-03-29T09:27:39Z</time>
      </trkpt>
      <trkpt lat="48.61662" lon="2.01535">
        <ele>122.4</ele>
        <time>2026-03-29T09:27:40Z</time>
      </trkpt>
      <trkpt lat="48.61658" lon="2.01534">
        <ele>122.4</ele>
        <time>2026-03-29T09:27:41Z</time>
      </trkpt>
      <trkpt lat="48.61653" lon="2.01533">
        <ele>123</ele>
        <time>2026-03-29T09:27:42Z</time>
      </trkpt>
      <trkpt lat="48.6165" lon="2.01532">
        <ele>123</ele>
        <time>2026-03-29T09:27:43Z</time>
      </trkpt>
      <trkpt lat="48.61645" lon="2.01531">
        <ele>123</ele>
        <time>2026-03-29T09:27:44Z</time>
      </trkpt>
      <trkpt lat="48.61641" lon="2.0153">
        <ele>122.2</ele>
        <time>2026-03-29T09:27:45Z</time>
      </trkpt>
      <trkpt lat="48.61636" lon="2.01528">
        <ele>122.4</ele>
        <time>2026-03-29T09:27:46Z</time>
      </trkpt>
      <trkpt lat="48.61632" lon="2.01526">
        <ele>122.4</ele>
        <time>2026-03-29T09:27:47Z</time>
      </trkpt>
      <trkpt lat="48.61628" lon="2.01527">
        <ele>122.4</ele>
        <time>2026-03-29T09:27:48Z</time>
      </trkpt>
      <trkpt lat="48.61624" lon="2.01525">
        <ele>122.2</ele>
        <time>2026-03-29T09:27:49Z</time>
      </trkpt>
      <trkpt lat="48.61619" lon="2.01524">
        <ele>123.4</ele>
        <time>2026-03-29T09:27:50Z</time>
      </trkpt>
      <trkpt lat="48.61615" lon="2.01523">
        <ele>123.4</ele>
        <time>2026-03-29T09:27:51Z</time>
      </trkpt>
      <trkpt lat="48.61612" lon="2.01523">
        <ele>123.4</ele>
        <time>2026-03-29T09:27:52Z</time>
      </trkpt>
      <trkpt lat="48.61607" lon="2.01522">
        <ele>123.2</ele>
        <time>2026-03-29T09:27:53Z</time>
      </trkpt>
      <trkpt lat="48.61604" lon="2.01521">
        <ele>123</ele>
        <time>2026-03-29T09:27:54Z</time>
      </trkpt>
      <trkpt lat="48.616" lon="2.0152">
        <ele>123</ele>
        <time>2026-03-29T09:27:55Z</time>
      </trkpt>
      <trkpt lat="48.61597" lon="2.01519">
        <ele>123</ele>
        <time>2026-03-29T09:27:56Z</time>
      </trkpt>
      <trkpt lat="48.61592" lon="2.01518">
        <ele>123</ele>
        <time>2026-03-29T09:27:57Z</time>
      </trkpt>
      <trkpt lat="48.61589" lon="2.01516">
        <ele>123.8</ele>
        <time>2026-03-29T09:27:58Z</time>
      </trkpt>
      <trkpt lat="48.61586" lon="2.01514">
        <ele>123.8</ele>
        <time>2026-03-29T09:27:59Z</time>
      </trkpt>
      <trkpt lat="48.61584" lon="2.01509">
        <ele>123.8</ele>
        <time>2026-03-29T09:28:00Z</time>
      </trkpt>
      <trkpt lat="48.61584" lon="2.01505">
        <ele>123.8</ele>
        <time>2026-03-29T09:28:01Z</time>
      </trkpt>
      <trkpt lat="48.61585" lon="2.01501">
        <ele>124.4</ele>
        <time>2026-03-29T09:28:02Z</time>
      </trkpt>
      <trkpt lat="48.61587" lon="2.01498">
        <ele>124.4</ele>
        <time>2026-03-29T09:28:03Z</time>
      </trkpt>
      <trkpt lat="48.61588" lon="2.01495">
        <ele>124.4</ele>
        <time>2026-03-29T09:28:04Z</time>
      </trkpt>
      <trkpt lat="48.6159" lon="2.01493">
        <ele>124.4</ele>
        <time>2026-03-29T09:28:05Z</time>
      </trkpt>
      <trkpt lat="48.61592" lon="2.0149">
        <ele>124.4</ele>
        <time>2026-03-29T09:28:06Z</time>
      </trkpt>
      <trkpt lat="48.61594" lon="2.01487">
        <ele>124.4</ele>
        <time>2026-03-29T09:28:07Z</time>
      </trkpt>
      <trkpt lat="48.61596" lon="2.01483">
        <ele>124.4</ele>
        <time>2026-03-29T09:28:08Z</time>
      </trkpt>
      <trkpt lat="48.61599" lon="2.01479">
        <ele>124.4</ele>
        <time>2026-03-29T09:28:09Z</time>
      </trkpt>
      <trkpt lat="48.61602" lon="2.01475">
        <ele>124.6</ele>
        <time>2026-03-29T09:28:10Z</time>
      </trkpt>
      <trkpt lat="48.61605" lon="2.01471">
        <ele>124.6</ele>
        <time>2026-03-29T09:28:11Z</time>
      </trkpt>
      <trkpt lat="48.61608" lon="2.01468">
        <ele>124.6</ele>
        <time>2026-03-29T09:28:12Z</time>
      </trkpt>
      <trkpt lat="48.61611" lon="2.01464">
        <ele>123.8</ele>
        <time>2026-03-29T09:28:13Z</time>
      </trkpt>
      <trkpt lat="48.61615" lon="2.01459">
        <ele>124</ele>
        <time>2026-03-29T09:28:14Z</time>
      </trkpt>
      <trkpt lat="48.61618" lon="2.01454">
        <ele>124</ele>
        <time>2026-03-29T09:28:15Z</time>
      </trkpt>
      <trkpt lat="48.61622" lon="2.0145">
        <ele>124</ele>
        <time>2026-03-29T09:28:16Z</time>
      </trkpt>
      <trkpt lat="48.61625" lon="2.01445">
        <ele>123.6</ele>
        <time>2026-03-29T09:28:17Z</time>
      </trkpt>
      <trkpt lat="48.61629" lon="2.01441">
        <ele>124.2</ele>
        <time>2026-03-29T09:28:18Z</time>
      </trkpt>
      <trkpt lat="48.61632" lon="2.01436">
        <ele>124.2</ele>
        <time>2026-03-29T09:28:19Z</time>
      </trkpt>
      <trkpt lat="48.61634" lon="2.01432">
        <ele>124.2</ele>
        <time>2026-03-29T09:28:20Z</time>
      </trkpt>
      <trkpt lat="48.61637" lon="2.01428">
        <ele>123.6</ele>
        <time>2026-03-29T09:28:21Z</time>
      </trkpt>
      <trkpt lat="48.61639" lon="2.01424">
        <ele>124</ele>
        <time>2026-03-29T09:28:22Z</time>
      </trkpt>
      <trkpt lat="48.61643" lon="2.01421">
        <ele>124</ele>
        <time>2026-03-29T09:28:23Z</time>
      </trkpt>
      <trkpt lat="48.61646" lon="2.01416">
        <ele>124</ele>
        <time>2026-03-29T09:28:24Z</time>
      </trkpt>
      <trkpt lat="48.61649" lon="2.01412">
        <ele>124</ele>
        <time>2026-03-29T09:28:25Z</time>
      </trkpt>
      <trkpt lat="48.61652" lon="2.01407">
        <ele>123.8</ele>
        <time>2026-03-29T09:28:26Z</time>
      </trkpt>
      <trkpt lat="48.61655" lon="2.01403">
        <ele>123.8</ele>
        <time>2026-03-29T09:28:27Z</time>
      </trkpt>
      <trkpt lat="48.61659" lon="2.01398">
        <ele>123.8</ele>
        <time>2026-03-29T09:28:28Z</time>
      </trkpt>
      <trkpt lat="48.61661" lon="2.01394">
        <ele>123.8</ele>
        <time>2026-03-29T09:28:29Z</time>
      </trkpt>
      <trkpt lat="48.61664" lon="2.01391">
        <ele>123.6</ele>
        <time>2026-03-29T09:28:30Z</time>
      </trkpt>
      <trkpt lat="48.61667" lon="2.01387">
        <ele>123.6</ele>
        <time>2026-03-29T09:28:31Z</time>
      </trkpt>
      <trkpt lat="48.61669" lon="2.01384">
        <ele>123.6</ele>
        <time>2026-03-29T09:28:32Z</time>
      </trkpt>
      <trkpt lat="48.61672" lon="2.0138">
        <ele>124</ele>
        <time>2026-03-29T09:28:33Z</time>
      </trkpt>
      <trkpt lat="48.61674" lon="2.01376">
        <ele>125</ele>
        <time>2026-03-29T09:28:34Z</time>
      </trkpt>
      <trkpt lat="48.61676" lon="2.01372">
        <ele>125</ele>
        <time>2026-03-29T09:28:35Z</time>
      </trkpt>
      <trkpt lat="48.61679" lon="2.01368">
        <ele>125</ele>
        <time>2026-03-29T09:28:36Z</time>
      </trkpt>
      <trkpt lat="48.61681" lon="2.01365">
        <ele>124.8</ele>
        <time>2026-03-29T09:28:37Z</time>
      </trkpt>
      <trkpt lat="48.61684" lon="2.0136">
        <ele>124.8</ele>
        <time>2026-03-29T09:28:38Z</time>
      </trkpt>
      <trkpt lat="48.61686" lon="2.01357">
        <ele>124.8</ele>
        <time>2026-03-29T09:28:39Z</time>
      </trkpt>
      <trkpt lat="48.61689" lon="2.01353">
        <ele>124.8</ele>
        <time>2026-03-29T09:28:40Z</time>
      </trkpt>
      <trkpt lat="48.61692" lon="2.0135">
        <ele>125.6</ele>
        <time>2026-03-29T09:28:41Z</time>
      </trkpt>
      <trkpt lat="48.61694" lon="2.01347">
        <ele>125.2</ele>
        <time>2026-03-29T09:28:42Z</time>
      </trkpt>
      <trkpt lat="48.61696" lon="2.01344">
        <ele>125.2</ele>
        <time>2026-03-29T09:28:43Z</time>
      </trkpt>
      <trkpt lat="48.61698" lon="2.01341">
        <ele>125.2</ele>
        <time>2026-03-29T09:28:44Z</time>
      </trkpt>
      <trkpt lat="48.617" lon="2.01339">
        <ele>125.4</ele>
        <time>2026-03-29T09:28:45Z</time>
      </trkpt>
      <trkpt lat="48.61702" lon="2.01336">
        <ele>125.8</ele>
        <time>2026-03-29T09:28:46Z</time>
      </trkpt>
      <trkpt lat="48.61705" lon="2.01333">
        <ele>125.8</ele>
        <time>2026-03-29T09:28:47Z</time>
      </trkpt>
      <trkpt lat="48.61707" lon="2.0133">
        <ele>125.8</ele>
        <time>2026-03-29T09:28:48Z</time>
      </trkpt>
      <trkpt lat="48.61709" lon="2.01327">
        <ele>125.8</ele>
        <time>2026-03-29T09:28:49Z</time>
      </trkpt>
      <trkpt lat="48.61711" lon="2.01324">
        <ele>126.4</ele>
        <time>2026-03-29T09:28:50Z</time>
      </trkpt>
      <trkpt lat="48.61713" lon="2.0132">
        <ele>126.4</ele>
        <time>2026-03-29T09:28:51Z</time>
      </trkpt>
      <trkpt lat="48.61716" lon="2.01317">
        <ele>126.4</ele>
        <time>2026-03-29T09:28:52Z</time>
      </trkpt>
      <trkpt lat="48.61718" lon="2.01313">
        <ele>126.4</ele>
        <time>2026-03-29T09:28:53Z</time>
      </trkpt>
      <trkpt lat="48.6172" lon="2.0131">
        <ele>126.8</ele>
        <time>2026-03-29T09:28:54Z</time>
      </trkpt>
      <trkpt lat="48.61723" lon="2.01307">
        <ele>126.8</ele>
        <time>2026-03-29T09:28:55Z</time>
      </trkpt>
      <trkpt lat="48.61724" lon="2.01304">
        <ele>126.8</ele>
        <time>2026-03-29T09:28:56Z</time>
      </trkpt>
      <trkpt lat="48.61726" lon="2.01301">
        <ele>127.2</ele>
        <time>2026-03-29T09:28:57Z</time>
      </trkpt>
      <trkpt lat="48.61728" lon="2.01298">
        <ele>127.6</ele>
        <time>2026-03-29T09:28:58Z</time>
      </trkpt>
      <trkpt lat="48.6173" lon="2.01294">
        <ele>127.6</ele>
        <time>2026-03-29T09:28:59Z</time>
      </trkpt>
      <trkpt lat="48.61733" lon="2.01291">
        <ele>127.6</ele>
        <time>2026-03-29T09:29:00Z</time>
      </trkpt>
      <trkpt lat="48.61736" lon="2.01288">
        <ele>127.4</ele>
        <time>2026-03-29T09:29:01Z</time>
      </trkpt>
      <trkpt lat="48.61738" lon="2.01285">
        <ele>127.6</ele>
        <time>2026-03-29T09:29:02Z</time>
      </trkpt>
      <trkpt lat="48.6174" lon="2.01282">
        <ele>127.6</ele>
        <time>2026-03-29T09:29:03Z</time>
      </trkpt>
      <trkpt lat="48.61743" lon="2.01278">
        <ele>127.6</ele>
        <time>2026-03-29T09:29:04Z</time>
      </trkpt>
      <trkpt lat="48.61745" lon="2.01275">
        <ele>127.6</ele>
        <time>2026-03-29T09:29:05Z</time>
      </trkpt>
      <trkpt lat="48.61748" lon="2.01271">
        <ele>128</ele>
        <time>2026-03-29T09:29:06Z</time>
      </trkpt>
      <trkpt lat="48.61751" lon="2.01269">
        <ele>128</ele>
        <time>2026-03-29T09:29:07Z</time>
      </trkpt>
      <trkpt lat="48.61753" lon="2.01265">
        <ele>128</ele>
        <time>2026-03-29T09:29:08Z</time>
      </trkpt>
      <trkpt lat="48.61755" lon="2.01262">
        <ele>128</ele>
        <time>2026-03-29T09:29:09Z</time>
      </trkpt>
      <trkpt lat="48.61758" lon="2.01258">
        <ele>128.2</ele>
        <time>2026-03-29T09:29:10Z</time>
      </trkpt>
      <trkpt lat="48.61761" lon="2.01255">
        <ele>128.2</ele>
        <time>2026-03-29T09:29:11Z</time>
      </trkpt>
      <trkpt lat="48.61764" lon="2.01252">
        <ele>128.2</ele>
        <time>2026-03-29T09:29:12Z</time>
      </trkpt>
      <trkpt lat="48.61767" lon="2.0125">
        <ele>128.6</ele>
        <time>2026-03-29T09:29:13Z</time>
      </trkpt>
      <trkpt lat="48.61769" lon="2.01247">
        <ele>128.4</ele>
        <time>2026-03-29T09:29:14Z</time>
      </trkpt>
      <trkpt lat="48.61772" lon="2.01244">
        <ele>128.4</ele>
        <time>2026-03-29T09:29:15Z</time>
      </trkpt>
      <trkpt lat="48.61776" lon="2.01241">
        <ele>128.4</ele>
        <time>2026-03-29T09:29:16Z</time>
      </trkpt>
      <trkpt lat="48.61779" lon="2.01238">
        <ele>128.6</ele>
        <time>2026-03-29T09:29:17Z</time>
      </trkpt>
      <trkpt lat="48.61782" lon="2.01234">
        <ele>128.8</ele>
        <time>2026-03-29T09:29:18Z</time>
      </trkpt>
      <trkpt lat="48.61785" lon="2.01231">
        <ele>128.8</ele>
        <time>2026-03-29T09:29:19Z</time>
      </trkpt>
      <trkpt lat="48.61789" lon="2.01229">
        <ele>128.8</ele>
        <time>2026-03-29T09:29:20Z</time>
      </trkpt>
      <trkpt lat="48.61792" lon="2.01226">
        <ele>128.4</ele>
        <time>2026-03-29T09:29:21Z</time>
      </trkpt>
      <trkpt lat="48.61796" lon="2.01223">
        <ele>128.4</ele>
        <time>2026-03-29T09:29:22Z</time>
      </trkpt>
      <trkpt lat="48.61799" lon="2.01221">
        <ele>128.4</ele>
        <time>2026-03-29T09:29:23Z</time>
      </trkpt>
      <trkpt lat="48.61802" lon="2.01219">
        <ele>128.4</ele>
        <time>2026-03-29T09:29:24Z</time>
      </trkpt>
      <trkpt lat="48.61805" lon="2.01217">
        <ele>129</ele>
        <time>2026-03-29T09:29:25Z</time>
      </trkpt>
      <trkpt lat="48.61808" lon="2.01215">
        <ele>128.4</ele>
        <time>2026-03-29T09:29:26Z</time>
      </trkpt>
      <trkpt lat="48.61812" lon="2.01214">
        <ele>128.4</ele>
        <time>2026-03-29T09:29:27Z</time>
      </trkpt>
      <trkpt lat="48.61814" lon="2.01211">
        <ele>128.4</ele>
        <time>2026-03-29T09:29:28Z</time>
      </trkpt>
      <trkpt lat="48.61815" lon="2.01206">
        <ele>128.4</ele>
        <time>2026-03-29T09:29:29Z</time>
      </trkpt>
      <trkpt lat="48.61815" lon="2.01201">
        <ele>128</ele>
        <time>2026-03-29T09:29:30Z</time>
      </trkpt>
      <trkpt lat="48.61814" lon="2.01196">
        <ele>128</ele>
        <time>2026-03-29T09:29:31Z</time>
      </trkpt>
      <trkpt lat="48.61813" lon="2.01191">
        <ele>128</ele>
        <time>2026-03-29T09:29:32Z</time>
      </trkpt>
      <trkpt lat="48.61812" lon="2.01186">
        <ele>128</ele>
        <time>2026-03-29T09:29:33Z</time>
      </trkpt>
      <trkpt lat="48.61811" lon="2.01181">
        <ele>128</ele>
        <time>2026-03-29T09:29:34Z</time>
      </trkpt>
      <trkpt lat="48.6181" lon="2.01176">
        <ele>128</ele>
        <time>2026-03-29T09:29:35Z</time>
      </trkpt>
      <trkpt lat="48.61808" lon="2.01171">
        <ele>128</ele>
        <time>2026-03-29T09:29:36Z</time>
      </trkpt>
      <trkpt lat="48.61807" lon="2.01165">
        <ele>128</ele>
        <time>2026-03-29T09:29:37Z</time>
      </trkpt>
      <trkpt lat="48.61806" lon="2.0116">
        <ele>127.8</ele>
        <time>2026-03-29T09:29:38Z</time>
      </trkpt>
      <trkpt lat="48.61806" lon="2.01154">
        <ele>127.8</ele>
        <time>2026-03-29T09:29:39Z</time>
      </trkpt>
      <trkpt lat="48.61806" lon="2.01148">
        <ele>127.8</ele>
        <time>2026-03-29T09:29:40Z</time>
      </trkpt>
      <trkpt lat="48.61806" lon="2.01143">
        <ele>127.8</ele>
        <time>2026-03-29T09:29:41Z</time>
      </trkpt>
      <trkpt lat="48.61806" lon="2.01139">
        <ele>127</ele>
        <time>2026-03-29T09:29:42Z</time>
      </trkpt>
      <trkpt lat="48.61807" lon="2.01134">
        <ele>127</ele>
        <time>2026-03-29T09:29:43Z</time>
      </trkpt>
      <trkpt lat="48.61806" lon="2.01131">
        <ele>127</ele>
        <time>2026-03-29T09:29:44Z</time>
      </trkpt>
      <trkpt lat="48.61805" lon="2.01128">
        <ele>126.6</ele>
        <time>2026-03-29T09:29:45Z</time>
      </trkpt>
      <trkpt lat="48.61804" lon="2.01124">
        <ele>126</ele>
        <time>2026-03-29T09:29:46Z</time>
      </trkpt>
      <trkpt lat="48.61803" lon="2.0112">
        <ele>126</ele>
        <time>2026-03-29T09:29:47Z</time>
      </trkpt>
      <trkpt lat="48.61801" lon="2.01116">
        <ele>126</ele>
        <time>2026-03-29T09:29:48Z</time>
      </trkpt>
      <trkpt lat="48.618" lon="2.01113">
        <ele>127</ele>
        <time>2026-03-29T09:29:49Z</time>
      </trkpt>
      <trkpt lat="48.61798" lon="2.01109">
        <ele>127.2</ele>
        <time>2026-03-29T09:29:50Z</time>
      </trkpt>
      <trkpt lat="48.61798" lon="2.01104">
        <ele>127.2</ele>
        <time>2026-03-29T09:29:51Z</time>
      </trkpt>
      <trkpt lat="48.61797" lon="2.01099">
        <ele>127.2</ele>
        <time>2026-03-29T09:29:52Z</time>
      </trkpt>
      <trkpt lat="48.61796" lon="2.01094">
        <ele>127.6</ele>
        <time>2026-03-29T09:29:53Z</time>
      </trkpt>
      <trkpt lat="48.61795" lon="2.01089">
        <ele>127.2</ele>
        <time>2026-03-29T09:29:54Z</time>
      </trkpt>
      <trkpt lat="48.61794" lon="2.01085">
        <ele>127.2</ele>
        <time>2026-03-29T09:29:55Z</time>
      </trkpt>
      <trkpt lat="48.61793" lon="2.01081">
        <ele>127.2</ele>
        <time>2026-03-29T09:29:56Z</time>
      </trkpt>
      <trkpt lat="48.61792" lon="2.01076">
        <ele>127.2</ele>
        <time>2026-03-29T09:29:57Z</time>
      </trkpt>
      <trkpt lat="48.61791" lon="2.01072">
        <ele>127.2</ele>
        <time>2026-03-29T09:29:58Z</time>
      </trkpt>
      <trkpt lat="48.6179" lon="2.01067">
        <ele>127.2</ele>
        <time>2026-03-29T09:29:59Z</time>
      </trkpt>
      <trkpt lat="48.61789" lon="2.01062">
        <ele>127.2</ele>
        <time>2026-03-29T09:30:00Z</time>
      </trkpt>
      <trkpt lat="48.61787" lon="2.01057">
        <ele>127.2</ele>
        <time>2026-03-29T09:30:01Z</time>
      </trkpt>
      <trkpt lat="48.61786" lon="2.01053">
        <ele>127</ele>
        <time>2026-03-29T09:30:02Z</time>
      </trkpt>
      <trkpt lat="48.61785" lon="2.0105">
        <ele>127</ele>
        <time>2026-03-29T09:30:03Z</time>
      </trkpt>
      <trkpt lat="48.61784" lon="2.01046">
        <ele>127</ele>
        <time>2026-03-29T09:30:04Z</time>
      </trkpt>
      <trkpt lat="48.61784" lon="2.01041">
        <ele>128</ele>
        <time>2026-03-29T09:30:05Z</time>
      </trkpt>
      <trkpt lat="48.61783" lon="2.01036">
        <ele>127.8</ele>
        <time>2026-03-29T09:30:06Z</time>
      </trkpt>
      <trkpt lat="48.61782" lon="2.01033">
        <ele>127.8</ele>
        <time>2026-03-29T09:30:07Z</time>
      </trkpt>
      <trkpt lat="48.61781" lon="2.01028">
        <ele>127.8</ele>
        <time>2026-03-29T09:30:08Z</time>
      </trkpt>
      <trkpt lat="48.6178" lon="2.01023">
        <ele>127.8</ele>
        <time>2026-03-29T09:30:09Z</time>
      </trkpt>
      <trkpt lat="48.61779" lon="2.01017">
        <ele>127.6</ele>
        <time>2026-03-29T09:30:10Z</time>
      </trkpt>
      <trkpt lat="48.61778" lon="2.01012">
        <ele>127.6</ele>
        <time>2026-03-29T09:30:11Z</time>
      </trkpt>
      <trkpt lat="48.61777" lon="2.01006">
        <ele>127.6</ele>
        <time>2026-03-29T09:30:12Z</time>
      </trkpt>
      <trkpt lat="48.61776" lon="2.01002">
        <ele>128</ele>
        <time>2026-03-29T09:30:13Z</time>
      </trkpt>
      <trkpt lat="48.61775" lon="2.00997">
        <ele>127.8</ele>
        <time>2026-03-29T09:30:14Z</time>
      </trkpt>
      <trkpt lat="48.61774" lon="2.00992">
        <ele>127.8</ele>
        <time>2026-03-29T09:30:15Z</time>
      </trkpt>
      <trkpt lat="48.61772" lon="2.00986">
        <ele>127.8</ele>
        <time>2026-03-29T09:30:16Z</time>
      </trkpt>
      <trkpt lat="48.61771" lon="2.00982">
        <ele>128</ele>
        <time>2026-03-29T09:30:17Z</time>
      </trkpt>
      <trkpt lat="48.61769" lon="2.00976">
        <ele>128.2</ele>
        <time>2026-03-29T09:30:18Z</time>
      </trkpt>
      <trkpt lat="48.61768" lon="2.0097">
        <ele>128.2</ele>
        <time>2026-03-29T09:30:19Z</time>
      </trkpt>
      <trkpt lat="48.61767" lon="2.00964">
        <ele>128.2</ele>
        <time>2026-03-29T09:30:20Z</time>
      </trkpt>
      <trkpt lat="48.61765" lon="2.00959">
        <ele>128.2</ele>
        <time>2026-03-29T09:30:21Z</time>
      </trkpt>
      <trkpt lat="48.61764" lon="2.00953">
        <ele>128.2</ele>
        <time>2026-03-29T09:30:22Z</time>
      </trkpt>
      <trkpt lat="48.61763" lon="2.00946">
        <ele>128.2</ele>
        <time>2026-03-29T09:30:23Z</time>
      </trkpt>
      <trkpt lat="48.61762" lon="2.00939">
        <ele>128.2</ele>
        <time>2026-03-29T09:30:24Z</time>
      </trkpt>
      <trkpt lat="48.61761" lon="2.00933">
        <ele>128</ele>
        <time>2026-03-29T09:30:25Z</time>
      </trkpt>
      <trkpt lat="48.61759" lon="2.00927">
        <ele>128.4</ele>
        <time>2026-03-29T09:30:26Z</time>
      </trkpt>
      <trkpt lat="48.61758" lon="2.00921">
        <ele>128.4</ele>
        <time>2026-03-29T09:30:27Z</time>
      </trkpt>
      <trkpt lat="48.61756" lon="2.00915">
        <ele>128.4</ele>
        <time>2026-03-29T09:30:28Z</time>
      </trkpt>
      <trkpt lat="48.61755" lon="2.0091">
        <ele>128.4</ele>
        <time>2026-03-29T09:30:29Z</time>
      </trkpt>
      <trkpt lat="48.61753" lon="2.00904">
        <ele>128.4</ele>
        <time>2026-03-29T09:30:30Z</time>
      </trkpt>
      <trkpt lat="48.61752" lon="2.009">
        <ele>128.4</ele>
        <time>2026-03-29T09:30:31Z</time>
      </trkpt>
      <trkpt lat="48.61751" lon="2.00895">
        <ele>128.4</ele>
        <time>2026-03-29T09:30:32Z</time>
      </trkpt>
      <trkpt lat="48.61748" lon="2.0089">
        <ele>128.4</ele>
        <time>2026-03-29T09:30:33Z</time>
      </trkpt>
      <trkpt lat="48.61746" lon="2.00887">
        <ele>128.4</ele>
        <time>2026-03-29T09:30:34Z</time>
      </trkpt>
      <trkpt lat="48.61744" lon="2.00885">
        <ele>128.4</ele>
        <time>2026-03-29T09:30:35Z</time>
      </trkpt>
      <trkpt lat="48.6174" lon="2.00881">
        <ele>128.4</ele>
        <time>2026-03-29T09:30:36Z</time>
      </trkpt>
      <trkpt lat="48.61737" lon="2.00878">
        <ele>129.4</ele>
        <time>2026-03-29T09:30:37Z</time>
      </trkpt>
      <trkpt lat="48.61734" lon="2.00876">
        <ele>129.6</ele>
        <time>2026-03-29T09:30:38Z</time>
      </trkpt>
      <trkpt lat="48.6173" lon="2.00874">
        <ele>129.6</ele>
        <time>2026-03-29T09:30:39Z</time>
      </trkpt>
      <trkpt lat="48.61727" lon="2.00872">
        <ele>129.6</ele>
        <time>2026-03-29T09:30:40Z</time>
      </trkpt>
      <trkpt lat="48.61724" lon="2.00868">
        <ele>130.4</ele>
        <time>2026-03-29T09:30:41Z</time>
      </trkpt>
      <trkpt lat="48.61723" lon="2.00862">
        <ele>129.6</ele>
        <time>2026-03-29T09:30:42Z</time>
      </trkpt>
      <trkpt lat="48.61723" lon="2.00856">
        <ele>129.6</ele>
        <time>2026-03-29T09:30:43Z</time>
      </trkpt>
      <trkpt lat="48.61723" lon="2.0085">
        <ele>129.6</ele>
        <time>2026-03-29T09:30:44Z</time>
      </trkpt>
      <trkpt lat="48.61722" lon="2.00844">
        <ele>129.4</ele>
        <time>2026-03-29T09:30:45Z</time>
      </trkpt>
      <trkpt lat="48.61721" lon="2.00837">
        <ele>129.6</ele>
        <time>2026-03-29T09:30:46Z</time>
      </trkpt>
      <trkpt lat="48.61722" lon="2.00831">
        <ele>129.6</ele>
        <time>2026-03-29T09:30:47Z</time>
      </trkpt>
      <trkpt lat="48.61723" lon="2.00824">
        <ele>129.6</ele>
        <time>2026-03-29T09:30:48Z</time>
      </trkpt>
      <trkpt lat="48.61724" lon="2.00818">
        <ele>129</ele>
        <time>2026-03-29T09:30:49Z</time>
      </trkpt>
      <trkpt lat="48.61725" lon="2.00813">
        <ele>128.6</ele>
        <time>2026-03-29T09:30:50Z</time>
      </trkpt>
      <trkpt lat="48.61724" lon="2.00807">
        <ele>128.6</ele>
        <time>2026-03-29T09:30:51Z</time>
      </trkpt>
      <trkpt lat="48.61723" lon="2.00801">
        <ele>128.6</ele>
        <time>2026-03-29T09:30:52Z</time>
      </trkpt>
      <trkpt lat="48.61723" lon="2.00795">
        <ele>127.6</ele>
        <time>2026-03-29T09:30:53Z</time>
      </trkpt>
      <trkpt lat="48.61722" lon="2.0079">
        <ele>127.8</ele>
        <time>2026-03-29T09:30:54Z</time>
      </trkpt>
      <trkpt lat="48.61721" lon="2.00785">
        <ele>127.8</ele>
        <time>2026-03-29T09:30:55Z</time>
      </trkpt>
      <trkpt lat="48.61721" lon="2.00779">
        <ele>127.8</ele>
        <time>2026-03-29T09:30:56Z</time>
      </trkpt>
      <trkpt lat="48.6172" lon="2.00775">
        <ele>127.8</ele>
        <time>2026-03-29T09:30:57Z</time>
      </trkpt>
      <trkpt lat="48.61718" lon="2.00771">
        <ele>127</ele>
        <time>2026-03-29T09:30:58Z</time>
      </trkpt>
      <trkpt lat="48.61717" lon="2.00767">
        <ele>127</ele>
        <time>2026-03-29T09:30:59Z</time>
      </trkpt>
      <trkpt lat="48.61716" lon="2.00762">
        <ele>127</ele>
        <time>2026-03-29T09:31:00Z</time>
      </trkpt>
      <trkpt lat="48.61715" lon="2.00757">
        <ele>127</ele>
        <time>2026-03-29T09:31:01Z</time>
      </trkpt>
      <trkpt lat="48.61714" lon="2.00753">
        <ele>126.6</ele>
        <time>2026-03-29T09:31:02Z</time>
      </trkpt>
      <trkpt lat="48.61713" lon="2.00748">
        <ele>126.6</ele>
        <time>2026-03-29T09:31:03Z</time>
      </trkpt>
      <trkpt lat="48.61712" lon="2.00743">
        <ele>126.6</ele>
        <time>2026-03-29T09:31:04Z</time>
      </trkpt>
      <trkpt lat="48.61711" lon="2.00739">
        <ele>126.8</ele>
        <time>2026-03-29T09:31:05Z</time>
      </trkpt>
      <trkpt lat="48.6171" lon="2.00734">
        <ele>126.4</ele>
        <time>2026-03-29T09:31:06Z</time>
      </trkpt>
      <trkpt lat="48.61709" lon="2.0073">
        <ele>126.4</ele>
        <time>2026-03-29T09:31:07Z</time>
      </trkpt>
      <trkpt lat="48.61708" lon="2.00725">
        <ele>126.4</ele>
        <time>2026-03-29T09:31:08Z</time>
      </trkpt>
      <trkpt lat="48.61707" lon="2.00721">
        <ele>126.2</ele>
        <time>2026-03-29T09:31:09Z</time>
      </trkpt>
      <trkpt lat="48.61706" lon="2.00716">
        <ele>126.4</ele>
        <time>2026-03-29T09:31:10Z</time>
      </trkpt>
      <trkpt lat="48.61704" lon="2.00712">
        <ele>126.4</ele>
        <time>2026-03-29T09:31:11Z</time>
      </trkpt>
      <trkpt lat="48.61704" lon="2.00708">
        <ele>126.4</ele>
        <time>2026-03-29T09:31:12Z</time>
      </trkpt>
      <trkpt lat="48.61703" lon="2.00705">
        <ele>125.8</ele>
        <time>2026-03-29T09:31:13Z</time>
      </trkpt>
      <trkpt lat="48.61703" lon="2.00702">
        <ele>126.6</ele>
        <time>2026-03-29T09:31:14Z</time>
      </trkpt>
      <trkpt lat="48.61702" lon="2.00699">
        <ele>126.6</ele>
        <time>2026-03-29T09:31:15Z</time>
      </trkpt>
      <trkpt lat="48.61701" lon="2.00696">
        <ele>126.6</ele>
        <time>2026-03-29T09:31:16Z</time>
      </trkpt>
      <trkpt lat="48.617" lon="2.00693">
        <ele>126.2</ele>
        <time>2026-03-29T09:31:17Z</time>
      </trkpt>
      <trkpt lat="48.617" lon="2.0069">
        <ele>126.2</ele>
        <time>2026-03-29T09:31:18Z</time>
      </trkpt>
      <trkpt lat="48.61699" lon="2.00688">
        <ele>126.2</ele>
        <time>2026-03-29T09:31:19Z</time>
      </trkpt>
      <trkpt lat="48.61699" lon="2.00686">
        <ele>126.2</ele>
        <time>2026-03-29T09:31:20Z</time>
      </trkpt>
      <trkpt lat="48.61698" lon="2.00684">
        <ele>125.8</ele>
        <time>2026-03-29T09:31:21Z</time>
      </trkpt>
      <trkpt lat="48.61698" lon="2.00682">
        <ele>125.8</ele>
        <time>2026-03-29T09:31:22Z</time>
      </trkpt>
      <trkpt lat="48.61697" lon="2.00679">
        <ele>125.8</ele>
        <time>2026-03-29T09:31:23Z</time>
      </trkpt>
      <trkpt lat="48.61697" lon="2.00675">
        <ele>125.8</ele>
        <time>2026-03-29T09:31:24Z</time>
      </trkpt>
      <trkpt lat="48.61697" lon="2.00672">
        <ele>125.8</ele>
        <time>2026-03-29T09:31:25Z</time>
      </trkpt>
      <trkpt lat="48.61696" lon="2.00669">
        <ele>125.4</ele>
        <time>2026-03-29T09:31:26Z</time>
      </trkpt>
      <trkpt lat="48.61695" lon="2.00665">
        <ele>125.4</ele>
        <time>2026-03-29T09:31:27Z</time>
      </trkpt>
      <trkpt lat="48.61695" lon="2.00662">
        <ele>125.4</ele>
        <time>2026-03-29T09:31:28Z</time>
      </trkpt>
      <trkpt lat="48.61694" lon="2.00658">
        <ele>125.4</ele>
        <time>2026-03-29T09:31:29Z</time>
      </trkpt>
      <trkpt lat="48.61693" lon="2.00654">
        <ele>125</ele>
        <time>2026-03-29T09:31:30Z</time>
      </trkpt>
      <trkpt lat="48.61691" lon="2.00651">
        <ele>125</ele>
        <time>2026-03-29T09:31:31Z</time>
      </trkpt>
      <trkpt lat="48.6169" lon="2.00645">
        <ele>125</ele>
        <time>2026-03-29T09:31:32Z</time>
      </trkpt>
      <trkpt lat="48.61688" lon="2.0064">
        <ele>125.4</ele>
        <time>2026-03-29T09:31:33Z</time>
      </trkpt>
      <trkpt lat="48.61686" lon="2.00633">
        <ele>125.2</ele>
        <time>2026-03-29T09:31:34Z</time>
      </trkpt>
      <trkpt lat="48.61684" lon="2.00627">
        <ele>125.2</ele>
        <time>2026-03-29T09:31:35Z</time>
      </trkpt>
      <trkpt lat="48.61683" lon="2.00621">
        <ele>125.2</ele>
        <time>2026-03-29T09:31:36Z</time>
      </trkpt>
      <trkpt lat="48.61681" lon="2.00616">
        <ele>125.6</ele>
        <time>2026-03-29T09:31:37Z</time>
      </trkpt>
      <trkpt lat="48.61678" lon="2.0061">
        <ele>125.6</ele>
        <time>2026-03-29T09:31:38Z</time>
      </trkpt>
      <trkpt lat="48.61677" lon="2.00604">
        <ele>125.6</ele>
        <time>2026-03-29T09:31:39Z</time>
      </trkpt>
      <trkpt lat="48.61675" lon="2.00599">
        <ele>125.6</ele>
        <time>2026-03-29T09:31:40Z</time>
      </trkpt>
      <trkpt lat="48.61672" lon="2.00593">
        <ele>124.6</ele>
        <time>2026-03-29T09:31:41Z</time>
      </trkpt>
      <trkpt lat="48.6167" lon="2.00589">
        <ele>125.8</ele>
        <time>2026-03-29T09:31:42Z</time>
      </trkpt>
      <trkpt lat="48.61668" lon="2.00584">
        <ele>125.8</ele>
        <time>2026-03-29T09:31:43Z</time>
      </trkpt>
      <trkpt lat="48.61666" lon="2.00579">
        <ele>125.8</ele>
        <time>2026-03-29T09:31:44Z</time>
      </trkpt>
      <trkpt lat="48.61664" lon="2.00573">
        <ele>125.6</ele>
        <time>2026-03-29T09:31:45Z</time>
      </trkpt>
      <trkpt lat="48.61662" lon="2.00568">
        <ele>125.6</ele>
        <time>2026-03-29T09:31:46Z</time>
      </trkpt>
      <trkpt lat="48.6166" lon="2.00564">
        <ele>125.6</ele>
        <time>2026-03-29T09:31:47Z</time>
      </trkpt>
      <trkpt lat="48.61659" lon="2.00559">
        <ele>125.6</ele>
        <time>2026-03-29T09:31:48Z</time>
      </trkpt>
      <trkpt lat="48.61657" lon="2.00554">
        <ele>125.6</ele>
        <time>2026-03-29T09:31:49Z</time>
      </trkpt>
      <trkpt lat="48.61655" lon="2.00548">
        <ele>125.8</ele>
        <time>2026-03-29T09:31:50Z</time>
      </trkpt>
      <trkpt lat="48.61653" lon="2.00542">
        <ele>125.8</ele>
        <time>2026-03-29T09:31:51Z</time>
      </trkpt>
      <trkpt lat="48.61651" lon="2.00537">
        <ele>125.8</ele>
        <time>2026-03-29T09:31:52Z</time>
      </trkpt>
      <trkpt lat="48.61649" lon="2.00533">
        <ele>125.8</ele>
        <time>2026-03-29T09:31:53Z</time>
      </trkpt>
      <trkpt lat="48.61647" lon="2.00527">
        <ele>125.8</ele>
        <time>2026-03-29T09:31:54Z</time>
      </trkpt>
      <trkpt lat="48.61644" lon="2.00521">
        <ele>125.8</ele>
        <time>2026-03-29T09:31:55Z</time>
      </trkpt>
      <trkpt lat="48.61641" lon="2.00515">
        <ele>125.8</ele>
        <time>2026-03-29T09:31:56Z</time>
      </trkpt>
      <trkpt lat="48.61638" lon="2.00509">
        <ele>125.8</ele>
        <time>2026-03-29T09:31:57Z</time>
      </trkpt>
      <trkpt lat="48.61635" lon="2.00504">
        <ele>125.6</ele>
        <time>2026-03-29T09:31:58Z</time>
      </trkpt>
      <trkpt lat="48.61633" lon="2.00497">
        <ele>125.6</ele>
        <time>2026-03-29T09:31:59Z</time>
      </trkpt>
      <trkpt lat="48.6163" lon="2.00492">
        <ele>125.6</ele>
        <time>2026-03-29T09:32:00Z</time>
      </trkpt>
      <trkpt lat="48.61628" lon="2.00486">
        <ele>125.4</ele>
        <time>2026-03-29T09:32:01Z</time>
      </trkpt>
      <trkpt lat="48.61625" lon="2.00478">
        <ele>125.4</ele>
        <time>2026-03-29T09:32:02Z</time>
      </trkpt>
      <trkpt lat="48.61621" lon="2.00472">
        <ele>125.4</ele>
        <time>2026-03-29T09:32:03Z</time>
      </trkpt>
      <trkpt lat="48.61618" lon="2.00466">
        <ele>125.4</ele>
        <time>2026-03-29T09:32:04Z</time>
      </trkpt>
      <trkpt lat="48.61614" lon="2.00459">
        <ele>125.4</ele>
        <time>2026-03-29T09:32:05Z</time>
      </trkpt>
      <trkpt lat="48.61612" lon="2.00452">
        <ele>125.4</ele>
        <time>2026-03-29T09:32:06Z</time>
      </trkpt>
      <trkpt lat="48.61609" lon="2.00448">
        <ele>125.4</ele>
        <time>2026-03-29T09:32:07Z</time>
      </trkpt>
      <trkpt lat="48.61608" lon="2.00444">
        <ele>125.4</ele>
        <time>2026-03-29T09:32:08Z</time>
      </trkpt>
      <trkpt lat="48.61605" lon="2.00437">
        <ele>125.4</ele>
        <time>2026-03-29T09:32:09Z</time>
      </trkpt>
      <trkpt lat="48.61603" lon="2.00433">
        <ele>126</ele>
        <time>2026-03-29T09:32:10Z</time>
      </trkpt>
      <trkpt lat="48.616" lon="2.00429">
        <ele>126</ele>
        <time>2026-03-29T09:32:11Z</time>
      </trkpt>
      <trkpt lat="48.61597" lon="2.00424">
        <ele>126</ele>
        <time>2026-03-29T09:32:12Z</time>
      </trkpt>
      <trkpt lat="48.61596" lon="2.00419">
        <ele>126</ele>
        <time>2026-03-29T09:32:13Z</time>
      </trkpt>
      <trkpt lat="48.61594" lon="2.00414">
        <ele>125.6</ele>
        <time>2026-03-29T09:32:14Z</time>
      </trkpt>
      <trkpt lat="48.61592" lon="2.00409">
        <ele>125.6</ele>
        <time>2026-03-29T09:32:15Z</time>
      </trkpt>
      <trkpt lat="48.6159" lon="2.00404">
        <ele>125.6</ele>
        <time>2026-03-29T09:32:16Z</time>
      </trkpt>
      <trkpt lat="48.61587" lon="2.004">
        <ele>125.6</ele>
        <time>2026-03-29T09:32:17Z</time>
      </trkpt>
      <trkpt lat="48.61585" lon="2.00395">
        <ele>126.4</ele>
        <time>2026-03-29T09:32:18Z</time>
      </trkpt>
      <trkpt lat="48.61583" lon="2.00392">
        <ele>126.4</ele>
        <time>2026-03-29T09:32:19Z</time>
      </trkpt>
      <trkpt lat="48.61581" lon="2.00386">
        <ele>126.4</ele>
        <time>2026-03-29T09:32:20Z</time>
      </trkpt>
      <trkpt lat="48.61579" lon="2.00381">
        <ele>126.4</ele>
        <time>2026-03-29T09:32:21Z</time>
      </trkpt>
      <trkpt lat="48.61577" lon="2.00377">
        <ele>127</ele>
        <time>2026-03-29T09:32:22Z</time>
      </trkpt>
      <trkpt lat="48.61575" lon="2.00373">
        <ele>127</ele>
        <time>2026-03-29T09:32:23Z</time>
      </trkpt>
      <trkpt lat="48.61572" lon="2.00369">
        <ele>127</ele>
        <time>2026-03-29T09:32:24Z</time>
      </trkpt>
      <trkpt lat="48.6157" lon="2.00365">
        <ele>127.6</ele>
        <time>2026-03-29T09:32:25Z</time>
      </trkpt>
      <trkpt lat="48.61569" lon="2.00361">
        <ele>127.6</ele>
        <time>2026-03-29T09:32:26Z</time>
      </trkpt>
      <trkpt lat="48.61567" lon="2.00356">
        <ele>127.6</ele>
        <time>2026-03-29T09:32:27Z</time>
      </trkpt>
      <trkpt lat="48.61565" lon="2.00352">
        <ele>127.6</ele>
        <time>2026-03-29T09:32:28Z</time>
      </trkpt>
      <trkpt lat="48.61562" lon="2.00347">
        <ele>128.6</ele>
        <time>2026-03-29T09:32:29Z</time>
      </trkpt>
      <trkpt lat="48.6156" lon="2.00344">
        <ele>128.8</ele>
        <time>2026-03-29T09:32:30Z</time>
      </trkpt>
      <trkpt lat="48.61558" lon="2.0034">
        <ele>128.8</ele>
        <time>2026-03-29T09:32:31Z</time>
      </trkpt>
      <trkpt lat="48.61556" lon="2.00336">
        <ele>128.8</ele>
        <time>2026-03-29T09:32:32Z</time>
      </trkpt>
      <trkpt lat="48.61554" lon="2.00332">
        <ele>129.6</ele>
        <time>2026-03-29T09:32:33Z</time>
      </trkpt>
      <trkpt lat="48.61552" lon="2.00328">
        <ele>129.6</ele>
        <time>2026-03-29T09:32:34Z</time>
      </trkpt>
      <trkpt lat="48.61551" lon="2.00322">
        <ele>129.6</ele>
        <time>2026-03-29T09:32:35Z</time>
      </trkpt>
      <trkpt lat="48.61551" lon="2.00319">
        <ele>129.6</ele>
        <time>2026-03-29T09:32:36Z</time>
      </trkpt>
      <trkpt lat="48.61553" lon="2.00315">
        <ele>129.2</ele>
        <time>2026-03-29T09:32:37Z</time>
      </trkpt>
      <trkpt lat="48.61554" lon="2.00311">
        <ele>129</ele>
        <time>2026-03-29T09:32:38Z</time>
      </trkpt>
      <trkpt lat="48.61556" lon="2.00308">
        <ele>129</ele>
        <time>2026-03-29T09:32:39Z</time>
      </trkpt>
      <trkpt lat="48.61557" lon="2.00304">
        <ele>129</ele>
        <time>2026-03-29T09:32:40Z</time>
      </trkpt>
      <trkpt lat="48.61559" lon="2.003">
        <ele>129</ele>
        <time>2026-03-29T09:32:41Z</time>
      </trkpt>
      <trkpt lat="48.61561" lon="2.00298">
        <ele>128.4</ele>
        <time>2026-03-29T09:32:42Z</time>
      </trkpt>
      <trkpt lat="48.61564" lon="2.00294">
        <ele>128.4</ele>
        <time>2026-03-29T09:32:43Z</time>
      </trkpt>
      <trkpt lat="48.61568" lon="2.00289">
        <ele>128.4</ele>
        <time>2026-03-29T09:32:44Z</time>
      </trkpt>
      <trkpt lat="48.61571" lon="2.00284">
        <ele>127.4</ele>
        <time>2026-03-29T09:32:45Z</time>
      </trkpt>
      <trkpt lat="48.61574" lon="2.00278">
        <ele>127</ele>
        <time>2026-03-29T09:32:46Z</time>
      </trkpt>
      <trkpt lat="48.61576" lon="2.00271">
        <ele>127</ele>
        <time>2026-03-29T09:32:47Z</time>
      </trkpt>
      <trkpt lat="48.61579" lon="2.00265">
        <ele>127</ele>
        <time>2026-03-29T09:32:48Z</time>
      </trkpt>
      <trkpt lat="48.61583" lon="2.00259">
        <ele>127</ele>
        <time>2026-03-29T09:32:49Z</time>
      </trkpt>
      <trkpt lat="48.61587" lon="2.00254">
        <ele>126.4</ele>
        <time>2026-03-29T09:32:50Z</time>
      </trkpt>
      <trkpt lat="48.61591" lon="2.00248">
        <ele>126.4</ele>
        <time>2026-03-29T09:32:51Z</time>
      </trkpt>
      <trkpt lat="48.61594" lon="2.00241">
        <ele>126.4</ele>
        <time>2026-03-29T09:32:52Z</time>
      </trkpt>
      <trkpt lat="48.61597" lon="2.00233">
        <ele>126</ele>
        <time>2026-03-29T09:32:53Z</time>
      </trkpt>
      <trkpt lat="48.616" lon="2.00226">
        <ele>126.2</ele>
        <time>2026-03-29T09:32:54Z</time>
      </trkpt>
      <trkpt lat="48.61602" lon="2.00218">
        <ele>126.2</ele>
        <time>2026-03-29T09:32:55Z</time>
      </trkpt>
      <trkpt lat="48.61604" lon="2.00211">
        <ele>126.2</ele>
        <time>2026-03-29T09:32:56Z</time>
      </trkpt>
      <trkpt lat="48.61607" lon="2.00204">
        <ele>125.4</ele>
        <time>2026-03-29T09:32:57Z</time>
      </trkpt>
      <trkpt lat="48.6161" lon="2.00197">
        <ele>125.8</ele>
        <time>2026-03-29T09:32:58Z</time>
      </trkpt>
      <trkpt lat="48.61612" lon="2.0019">
        <ele>125.8</ele>
        <time>2026-03-29T09:32:59Z</time>
      </trkpt>
      <trkpt lat="48.61615" lon="2.00182">
        <ele>125.8</ele>
        <time>2026-03-29T09:33:00Z</time>
      </trkpt>
      <trkpt lat="48.61616" lon="2.00175">
        <ele>124.8</ele>
        <time>2026-03-29T09:33:01Z</time>
      </trkpt>
      <trkpt lat="48.61618" lon="2.00167">
        <ele>124.4</ele>
        <time>2026-03-29T09:33:02Z</time>
      </trkpt>
      <trkpt lat="48.61621" lon="2.0016">
        <ele>124.4</ele>
        <time>2026-03-29T09:33:03Z</time>
      </trkpt>
      <trkpt lat="48.61623" lon="2.00153">
        <ele>124.4</ele>
        <time>2026-03-29T09:33:04Z</time>
      </trkpt>
      <trkpt lat="48.61626" lon="2.00146">
        <ele>124.4</ele>
        <time>2026-03-29T09:33:05Z</time>
      </trkpt>
      <trkpt lat="48.61629" lon="2.00139">
        <ele>124.2</ele>
        <time>2026-03-29T09:33:06Z</time>
      </trkpt>
      <trkpt lat="48.61632" lon="2.00132">
        <ele>124.2</ele>
        <time>2026-03-29T09:33:07Z</time>
      </trkpt>
      <trkpt lat="48.61634" lon="2.00125">
        <ele>124.2</ele>
        <time>2026-03-29T09:33:08Z</time>
      </trkpt>
      <trkpt lat="48.61637" lon="2.00118">
        <ele>124.2</ele>
        <time>2026-03-29T09:33:09Z</time>
      </trkpt>
      <trkpt lat="48.6164" lon="2.00111">
        <ele>124.8</ele>
        <time>2026-03-29T09:33:10Z</time>
      </trkpt>
      <trkpt lat="48.61642" lon="2.00104">
        <ele>124.8</ele>
        <time>2026-03-29T09:33:11Z</time>
      </trkpt>
      <trkpt lat="48.61645" lon="2.00097">
        <ele>124.8</ele>
        <time>2026-03-29T09:33:12Z</time>
      </trkpt>
      <trkpt lat="48.61648" lon="2.00091">
        <ele>124.2</ele>
        <time>2026-03-29T09:33:13Z</time>
      </trkpt>
      <trkpt lat="48.61651" lon="2.00085">
        <ele>124</ele>
        <time>2026-03-29T09:33:14Z</time>
      </trkpt>
      <trkpt lat="48.61654" lon="2.00079">
        <ele>124</ele>
        <time>2026-03-29T09:33:15Z</time>
      </trkpt>
      <trkpt lat="48.61657" lon="2.00073">
        <ele>124</ele>
        <time>2026-03-29T09:33:16Z</time>
      </trkpt>
      <trkpt lat="48.61661" lon="2.00068">
        <ele>124</ele>
        <time>2026-03-29T09:33:17Z</time>
      </trkpt>
      <trkpt lat="48.61664" lon="2.00063">
        <ele>124</ele>
        <time>2026-03-29T09:33:18Z</time>
      </trkpt>
      <trkpt lat="48.61668" lon="2.00058">
        <ele>124</ele>
        <time>2026-03-29T09:33:19Z</time>
      </trkpt>
      <trkpt lat="48.61672" lon="2.00052">
        <ele>124</ele>
        <time>2026-03-29T09:33:20Z</time>
      </trkpt>
      <trkpt lat="48.61675" lon="2.00047">
        <ele>123</ele>
        <time>2026-03-29T09:33:21Z</time>
      </trkpt>
      <trkpt lat="48.61678" lon="2.00042">
        <ele>122.4</ele>
        <time>2026-03-29T09:33:22Z</time>
      </trkpt>
      <trkpt lat="48.6168" lon="2.00038">
        <ele>122.4</ele>
        <time>2026-03-29T09:33:23Z</time>
      </trkpt>
      <trkpt lat="48.61681" lon="2.00034">
        <ele>122.4</ele>
        <time>2026-03-29T09:33:24Z</time>
      </trkpt>
      <trkpt lat="48.6168" lon="2.00031">
        <ele>122.2</ele>
        <time>2026-03-29T09:33:25Z</time>
      </trkpt>
      <trkpt lat="48.61679" lon="2.0003">
        <ele>122</ele>
        <time>2026-03-29T09:33:26Z</time>
      </trkpt>
      <trkpt lat="48.61677" lon="2.0003">
        <ele>122</ele>
        <time>2026-03-29T09:33:27Z</time>
      </trkpt>
      <trkpt lat="48.61676" lon="2.0003">
        <ele>122</ele>
        <time>2026-03-29T09:33:28Z</time>
      </trkpt>
      <trkpt lat="48.61673" lon="2.00029">
        <ele>122.4</ele>
        <time>2026-03-29T09:33:29Z</time>
      </trkpt>
      <trkpt lat="48.61671" lon="2.00029">
        <ele>122.6</ele>
        <time>2026-03-29T09:33:30Z</time>
      </trkpt>
      <trkpt lat="48.61668" lon="2.0003">
        <ele>122.6</ele>
        <time>2026-03-29T09:33:31Z</time>
      </trkpt>
      <trkpt lat="48.61665" lon="2.0003">
        <ele>122.6</ele>
        <time>2026-03-29T09:33:32Z</time>
      </trkpt>
      <trkpt lat="48.61661" lon="2.00032">
        <ele>122.6</ele>
        <time>2026-03-29T09:33:33Z</time>
      </trkpt>
      <trkpt lat="48.61657" lon="2.00033">
        <ele>122.6</ele>
        <time>2026-03-29T09:33:34Z</time>
      </trkpt>
      <trkpt lat="48.61653" lon="2.00034">
        <ele>122.6</ele>
        <time>2026-03-29T09:33:35Z</time>
      </trkpt>
      <trkpt lat="48.61649" lon="2.00036">
        <ele>122.6</ele>
        <time>2026-03-29T09:33:36Z</time>
      </trkpt>
      <trkpt lat="48.61644" lon="2.00038">
        <ele>122.6</ele>
        <time>2026-03-29T09:33:37Z</time>
      </trkpt>
      <trkpt lat="48.61639" lon="2.0004">
        <ele>122.2</ele>
        <time>2026-03-29T09:33:38Z</time>
      </trkpt>
      <trkpt lat="48.61634" lon="2.00042">
        <ele>122.2</ele>
        <time>2026-03-29T09:33:39Z</time>
      </trkpt>
      <trkpt lat="48.61629" lon="2.00045">
        <ele>122.2</ele>
        <time>2026-03-29T09:33:40Z</time>
      </trkpt>
      <trkpt lat="48.61624" lon="2.00048">
        <ele>122.2</ele>
        <time>2026-03-29T09:33:41Z</time>
      </trkpt>
      <trkpt lat="48.61619" lon="2.00051">
        <ele>122</ele>
        <time>2026-03-29T09:33:42Z</time>
      </trkpt>
      <trkpt lat="48.61614" lon="2.00054">
        <ele>122</ele>
        <time>2026-03-29T09:33:43Z</time>
      </trkpt>
      <trkpt lat="48.61609" lon="2.00057">
        <ele>122</ele>
        <time>2026-03-29T09:33:44Z</time>
      </trkpt>
      <trkpt lat="48.61603" lon="2.00059">
        <ele>122</ele>
        <time>2026-03-29T09:33:45Z</time>
      </trkpt>
      <trkpt lat="48.61598" lon="2.00063">
        <ele>121.8</ele>
        <time>2026-03-29T09:33:46Z</time>
      </trkpt>
      <trkpt lat="48.61593" lon="2.00067">
        <ele>121.8</ele>
        <time>2026-03-29T09:33:47Z</time>
      </trkpt>
      <trkpt lat="48.61587" lon="2.00069">
        <ele>121.8</ele>
        <time>2026-03-29T09:33:48Z</time>
      </trkpt>
      <trkpt lat="48.61582" lon="2.00071">
        <ele>122.2</ele>
        <time>2026-03-29T09:33:49Z</time>
      </trkpt>
      <trkpt lat="48.61577" lon="2.00073">
        <ele>121.8</ele>
        <time>2026-03-29T09:33:50Z</time>
      </trkpt>
      <trkpt lat="48.61571" lon="2.00075">
        <ele>121.8</ele>
        <time>2026-03-29T09:33:51Z</time>
      </trkpt>
      <trkpt lat="48.61565" lon="2.00077">
        <ele>121.8</ele>
        <time>2026-03-29T09:33:52Z</time>
      </trkpt>
      <trkpt lat="48.6156" lon="2.00078">
        <ele>122.4</ele>
        <time>2026-03-29T09:33:53Z</time>
      </trkpt>
      <trkpt lat="48.61554" lon="2.0008">
        <ele>122</ele>
        <time>2026-03-29T09:33:54Z</time>
      </trkpt>
      <trkpt lat="48.61549" lon="2.00081">
        <ele>122</ele>
        <time>2026-03-29T09:33:55Z</time>
      </trkpt>
      <trkpt lat="48.61543" lon="2.00081">
        <ele>122</ele>
        <time>2026-03-29T09:33:56Z</time>
      </trkpt>
      <trkpt lat="48.61538" lon="2.00082">
        <ele>122.8</ele>
        <time>2026-03-29T09:33:57Z</time>
      </trkpt>
      <trkpt lat="48.61532" lon="2.00082">
        <ele>122.8</ele>
        <time>2026-03-29T09:33:58Z</time>
      </trkpt>
      <trkpt lat="48.61527" lon="2.00082">
        <ele>122.8</ele>
        <time>2026-03-29T09:33:59Z</time>
      </trkpt>
      <trkpt lat="48.61522" lon="2.00081">
        <ele>122.8</ele>
        <time>2026-03-29T09:34:00Z</time>
      </trkpt>
      <trkpt lat="48.61517" lon="2.00081">
        <ele>123.8</ele>
        <time>2026-03-29T09:34:01Z</time>
      </trkpt>
      <trkpt lat="48.61513" lon="2.0008">
        <ele>123.8</ele>
        <time>2026-03-29T09:34:02Z</time>
      </trkpt>
      <trkpt lat="48.61509" lon="2.0008">
        <ele>123.8</ele>
        <time>2026-03-29T09:34:03Z</time>
      </trkpt>
      <trkpt lat="48.61505" lon="2.00078">
        <ele>123.8</ele>
        <time>2026-03-29T09:34:04Z</time>
      </trkpt>
      <trkpt lat="48.61502" lon="2.00077">
        <ele>124</ele>
        <time>2026-03-29T09:34:05Z</time>
      </trkpt>
      <trkpt lat="48.61498" lon="2.00075">
        <ele>124.4</ele>
        <time>2026-03-29T09:34:06Z</time>
      </trkpt>
      <trkpt lat="48.61495" lon="2.00072">
        <ele>124.4</ele>
        <time>2026-03-29T09:34:07Z</time>
      </trkpt>
      <trkpt lat="48.61492" lon="2.0007">
        <ele>124.4</ele>
        <time>2026-03-29T09:34:08Z</time>
      </trkpt>
      <trkpt lat="48.61488" lon="2.00067">
        <ele>124.4</ele>
        <time>2026-03-29T09:34:09Z</time>
      </trkpt>
      <trkpt lat="48.61485" lon="2.00064">
        <ele>125</ele>
        <time>2026-03-29T09:34:10Z</time>
      </trkpt>
      <trkpt lat="48.61481" lon="2.00062">
        <ele>125</ele>
        <time>2026-03-29T09:34:11Z</time>
      </trkpt>
      <trkpt lat="48.61478" lon="2.0006">
        <ele>125</ele>
        <time>2026-03-29T09:34:12Z</time>
      </trkpt>
      <trkpt lat="48.61475" lon="2.00057">
        <ele>125.8</ele>
        <time>2026-03-29T09:34:13Z</time>
      </trkpt>
      <trkpt lat="48.61472" lon="2.00054">
        <ele>125.8</ele>
        <time>2026-03-29T09:34:14Z</time>
      </trkpt>
      <trkpt lat="48.61469" lon="2.00052">
        <ele>125.8</ele>
        <time>2026-03-29T09:34:15Z</time>
      </trkpt>
      <trkpt lat="48.61466" lon="2.0005">
        <ele>125.8</ele>
        <time>2026-03-29T09:34:16Z</time>
      </trkpt>
      <trkpt lat="48.61463" lon="2.00048">
        <ele>125.8</ele>
        <time>2026-03-29T09:34:17Z</time>
      </trkpt>
      <trkpt lat="48.6146" lon="2.00046">
        <ele>126.4</ele>
        <time>2026-03-29T09:34:18Z</time>
      </trkpt>
      <trkpt lat="48.61458" lon="2.00044">
        <ele>126.4</ele>
        <time>2026-03-29T09:34:19Z</time>
      </trkpt>
      <trkpt lat="48.61456" lon="2.00042">
        <ele>126.4</ele>
        <time>2026-03-29T09:34:20Z</time>
      </trkpt>
      <trkpt lat="48.61453" lon="2.0004">
        <ele>126.4</ele>
        <time>2026-03-29T09:34:21Z</time>
      </trkpt>
      <trkpt lat="48.6145" lon="2.00038">
        <ele>127.8</ele>
        <time>2026-03-29T09:34:22Z</time>
      </trkpt>
      <trkpt lat="48.61447" lon="2.00036">
        <ele>127.8</ele>
        <time>2026-03-29T09:34:23Z</time>
      </trkpt>
      <trkpt lat="48.61445" lon="2.00035">
        <ele>127.8</ele>
        <time>2026-03-29T09:34:24Z</time>
      </trkpt>
      <trkpt lat="48.61442" lon="2.00032">
        <ele>127.8</ele>
        <time>2026-03-29T09:34:25Z</time>
      </trkpt>
      <trkpt lat="48.6144" lon="2.0003">
        <ele>127.8</ele>
        <time>2026-03-29T09:34:26Z</time>
      </trkpt>
      <trkpt lat="48.61438" lon="2.00029">
        <ele>127.8</ele>
        <time>2026-03-29T09:34:27Z</time>
      </trkpt>
      <trkpt lat="48.61435" lon="2.00026">
        <ele>127.8</ele>
        <time>2026-03-29T09:34:28Z</time>
      </trkpt>
      <trkpt lat="48.61433" lon="2.00024">
        <ele>127.8</ele>
        <time>2026-03-29T09:34:29Z</time>
      </trkpt>
      <trkpt lat="48.61431" lon="2.00022">
        <ele>128.6</ele>
        <time>2026-03-29T09:34:30Z</time>
      </trkpt>
      <trkpt lat="48.61428" lon="2.0002">
        <ele>128.6</ele>
        <time>2026-03-29T09:34:31Z</time>
      </trkpt>
      <trkpt lat="48.61426" lon="2.00018">
        <ele>128.6</ele>
        <time>2026-03-29T09:34:32Z</time>
      </trkpt>
      <trkpt lat="48.61424" lon="2.00016">
        <ele>128.6</ele>
        <time>2026-03-29T09:34:33Z</time>
      </trkpt>
      <trkpt lat="48.61421" lon="2.00014">
        <ele>129.4</ele>
        <time>2026-03-29T09:34:34Z</time>
      </trkpt>
      <trkpt lat="48.61419" lon="2.00012">
        <ele>129.4</ele>
        <time>2026-03-29T09:34:35Z</time>
      </trkpt>
      <trkpt lat="48.61417" lon="2.0001">
        <ele>129.4</ele>
        <time>2026-03-29T09:34:36Z</time>
      </trkpt>
      <trkpt lat="48.61414" lon="2.00009">
        <ele>129.4</ele>
        <time>2026-03-29T09:34:37Z</time>
      </trkpt>
      <trkpt lat="48.61412" lon="2.00008">
        <ele>130</ele>
        <time>2026-03-29T09:34:38Z</time>
      </trkpt>
      <trkpt lat="48.6141" lon="2.00006">
        <ele>130</ele>
        <time>2026-03-29T09:34:39Z</time>
      </trkpt>
      <trkpt lat="48.61408" lon="2.00004">
        <ele>130</ele>
        <time>2026-03-29T09:34:40Z</time>
      </trkpt>
      <trkpt lat="48.61409" lon="2.00001">
        <ele>129.8</ele>
        <time>2026-03-29T09:34:41Z</time>
      </trkpt>
      <trkpt lat="48.61411" lon="2">
        <ele>129.6</ele>
        <time>2026-03-29T09:34:42Z</time>
      </trkpt>
      <trkpt lat="48.61413" lon="1.99997">
        <ele>129.6</ele>
        <time>2026-03-29T09:34:43Z</time>
      </trkpt>
      <trkpt lat="48.61415" lon="1.99995">
        <ele>129.6</ele>
        <time>2026-03-29T09:34:44Z</time>
      </trkpt>
      <trkpt lat="48.61417" lon="1.99993">
        <ele>129.6</ele>
        <time>2026-03-29T09:34:45Z</time>
      </trkpt>
      <trkpt lat="48.61419" lon="1.99989">
        <ele>128.8</ele>
        <time>2026-03-29T09:34:46Z</time>
      </trkpt>
      <trkpt lat="48.61421" lon="1.99986">
        <ele>128.8</ele>
        <time>2026-03-29T09:34:47Z</time>
      </trkpt>
      <trkpt lat="48.61424" lon="1.99981">
        <ele>128.8</ele>
        <time>2026-03-29T09:34:48Z</time>
      </trkpt>
      <trkpt lat="48.61426" lon="1.99976">
        <ele>128</ele>
        <time>2026-03-29T09:34:49Z</time>
      </trkpt>
      <trkpt lat="48.61429" lon="1.99973">
        <ele>128.4</ele>
        <time>2026-03-29T09:34:50Z</time>
      </trkpt>
      <trkpt lat="48.6143" lon="1.99968">
        <ele>128.4</ele>
        <time>2026-03-29T09:34:51Z</time>
      </trkpt>
      <trkpt lat="48.61431" lon="1.99964">
        <ele>128.4</ele>
        <time>2026-03-29T09:34:52Z</time>
      </trkpt>
      <trkpt lat="48.61432" lon="1.9996">
        <ele>127.4</ele>
        <time>2026-03-29T09:34:53Z</time>
      </trkpt>
      <trkpt lat="48.61434" lon="1.99956">
        <ele>127.6</ele>
        <time>2026-03-29T09:34:54Z</time>
      </trkpt>
      <trkpt lat="48.61436" lon="1.99951">
        <ele>127.6</ele>
        <time>2026-03-29T09:34:55Z</time>
      </trkpt>
      <trkpt lat="48.61438" lon="1.99947">
        <ele>127.6</ele>
        <time>2026-03-29T09:34:56Z</time>
      </trkpt>
      <trkpt lat="48.61442" lon="1.99943">
        <ele>127.2</ele>
        <time>2026-03-29T09:34:57Z</time>
      </trkpt>
      <trkpt lat="48.61444" lon="1.99941">
        <ele>126</ele>
        <time>2026-03-29T09:34:58Z</time>
      </trkpt>
      <trkpt lat="48.61447" lon="1.99939">
        <ele>126</ele>
        <time>2026-03-29T09:34:59Z</time>
      </trkpt>
      <trkpt lat="48.61452" lon="1.99939">
        <ele>126</ele>
        <time>2026-03-29T09:35:00Z</time>
      </trkpt>
      <trkpt lat="48.61456" lon="1.9994">
        <ele>126</ele>
        <time>2026-03-29T09:35:01Z</time>
      </trkpt>
      <trkpt lat="48.61461" lon="1.99941">
        <ele>125</ele>
        <time>2026-03-29T09:35:02Z</time>
      </trkpt>
      <trkpt lat="48.61464" lon="1.99943">
        <ele>125</ele>
        <time>2026-03-29T09:35:03Z</time>
      </trkpt>
      <trkpt lat="48.61468" lon="1.99943">
        <ele>125</ele>
        <time>2026-03-29T09:35:04Z</time>
      </trkpt>
      <trkpt lat="48.61471" lon="1.99943">
        <ele>124.4</ele>
        <time>2026-03-29T09:35:05Z</time>
      </trkpt>
      <trkpt lat="48.61474" lon="1.9994">
        <ele>123.6</ele>
        <time>2026-03-29T09:35:06Z</time>
      </trkpt>
      <trkpt lat="48.61475" lon="1.99936">
        <ele>123.6</ele>
        <time>2026-03-29T09:35:07Z</time>
      </trkpt>
      <trkpt lat="48.61476" lon="1.99931">
        <ele>123.6</ele>
        <time>2026-03-29T09:35:08Z</time>
      </trkpt>
      <trkpt lat="48.61478" lon="1.99927">
        <ele>124</ele>
        <time>2026-03-29T09:35:09Z</time>
      </trkpt>
      <trkpt lat="48.61481" lon="1.99923">
        <ele>123.8</ele>
        <time>2026-03-29T09:35:10Z</time>
      </trkpt>
      <trkpt lat="48.61484" lon="1.9992">
        <ele>123.8</ele>
        <time>2026-03-29T09:35:11Z</time>
      </trkpt>
      <trkpt lat="48.61487" lon="1.99916">
        <ele>123.8</ele>
        <time>2026-03-29T09:35:12Z</time>
      </trkpt>
      <trkpt lat="48.6149" lon="1.99912">
        <ele>123.2</ele>
        <time>2026-03-29T09:35:13Z</time>
      </trkpt>
      <trkpt lat="48.61493" lon="1.99905">
        <ele>123.4</ele>
        <time>2026-03-29T09:35:14Z</time>
      </trkpt>
      <trkpt lat="48.61494" lon="1.99898">
        <ele>123.4</ele>
        <time>2026-03-29T09:35:15Z</time>
      </trkpt>
      <trkpt lat="48.61495" lon="1.9989">
        <ele>123.4</ele>
        <time>2026-03-29T09:35:16Z</time>
      </trkpt>
      <trkpt lat="48.61495" lon="1.99883">
        <ele>123.4</ele>
        <time>2026-03-29T09:35:17Z</time>
      </trkpt>
      <trkpt lat="48.61495" lon="1.99876">
        <ele>123.4</ele>
        <time>2026-03-29T09:35:18Z</time>
      </trkpt>
      <trkpt lat="48.61495" lon="1.99869">
        <ele>123.4</ele>
        <time>2026-03-29T09:35:19Z</time>
      </trkpt>
      <trkpt lat="48.61495" lon="1.99861">
        <ele>123.4</ele>
        <time>2026-03-29T09:35:20Z</time>
      </trkpt>
      <trkpt lat="48.61495" lon="1.99854">
        <ele>124</ele>
        <time>2026-03-29T09:35:21Z</time>
      </trkpt>
      <trkpt lat="48.61495" lon="1.99847">
        <ele>124</ele>
        <time>2026-03-29T09:35:22Z</time>
      </trkpt>
      <trkpt lat="48.61495" lon="1.9984">
        <ele>124</ele>
        <time>2026-03-29T09:35:23Z</time>
      </trkpt>
      <trkpt lat="48.61495" lon="1.99832">
        <ele>124</ele>
        <time>2026-03-29T09:35:24Z</time>
      </trkpt>
      <trkpt lat="48.61495" lon="1.99825">
        <ele>124</ele>
        <time>2026-03-29T09:35:25Z</time>
      </trkpt>
      <trkpt lat="48.61495" lon="1.99818">
        <ele>124.8</ele>
        <time>2026-03-29T09:35:26Z</time>
      </trkpt>
      <trkpt lat="48.61495" lon="1.99811">
        <ele>124.8</ele>
        <time>2026-03-29T09:35:27Z</time>
      </trkpt>
      <trkpt lat="48.61495" lon="1.99805">
        <ele>124.8</ele>
        <time>2026-03-29T09:35:28Z</time>
      </trkpt>
      <trkpt lat="48.61495" lon="1.99798">
        <ele>124.8</ele>
        <time>2026-03-29T09:35:29Z</time>
      </trkpt>
      <trkpt lat="48.61494" lon="1.99792">
        <ele>125.4</ele>
        <time>2026-03-29T09:35:30Z</time>
      </trkpt>
      <trkpt lat="48.61494" lon="1.99785">
        <ele>125.4</ele>
        <time>2026-03-29T09:35:31Z</time>
      </trkpt>
      <trkpt lat="48.61494" lon="1.99779">
        <ele>125.4</ele>
        <time>2026-03-29T09:35:32Z</time>
      </trkpt>
      <trkpt lat="48.61494" lon="1.99772">
        <ele>126</ele>
        <time>2026-03-29T09:35:33Z</time>
      </trkpt>
      <trkpt lat="48.61494" lon="1.99766">
        <ele>126.2</ele>
        <time>2026-03-29T09:35:34Z</time>
      </trkpt>
      <trkpt lat="48.61494" lon="1.99759">
        <ele>126.2</ele>
        <time>2026-03-29T09:35:35Z</time>
      </trkpt>
      <trkpt lat="48.61493" lon="1.99753">
        <ele>126.2</ele>
        <time>2026-03-29T09:35:36Z</time>
      </trkpt>
      <trkpt lat="48.61493" lon="1.99747">
        <ele>127.2</ele>
        <time>2026-03-29T09:35:37Z</time>
      </trkpt>
      <trkpt lat="48.61493" lon="1.99741">
        <ele>127.2</ele>
        <time>2026-03-29T09:35:38Z</time>
      </trkpt>
      <trkpt lat="48.61493" lon="1.99735">
        <ele>127.2</ele>
        <time>2026-03-29T09:35:39Z</time>
      </trkpt>
      <trkpt lat="48.61493" lon="1.99729">
        <ele>127.2</ele>
        <time>2026-03-29T09:35:40Z</time>
      </trkpt>
      <trkpt lat="48.61493" lon="1.99723">
        <ele>127.6</ele>
        <time>2026-03-29T09:35:41Z</time>
      </trkpt>
      <trkpt lat="48.61492" lon="1.99717">
        <ele>127.8</ele>
        <time>2026-03-29T09:35:42Z</time>
      </trkpt>
      <trkpt lat="48.61492" lon="1.99712">
        <ele>127.8</ele>
        <time>2026-03-29T09:35:43Z</time>
      </trkpt>
      <trkpt lat="48.61492" lon="1.99706">
        <ele>127.8</ele>
        <time>2026-03-29T09:35:44Z</time>
      </trkpt>
      <trkpt lat="48.61492" lon="1.99701">
        <ele>128.4</ele>
        <time>2026-03-29T09:35:45Z</time>
      </trkpt>
      <trkpt lat="48.61492" lon="1.99695">
        <ele>128.6</ele>
        <time>2026-03-29T09:35:46Z</time>
      </trkpt>
      <trkpt lat="48.61491" lon="1.9969">
        <ele>128.6</ele>
        <time>2026-03-29T09:35:47Z</time>
      </trkpt>
      <trkpt lat="48.61491" lon="1.99684">
        <ele>128.6</ele>
        <time>2026-03-29T09:35:48Z</time>
      </trkpt>
      <trkpt lat="48.61491" lon="1.99678">
        <ele>129.2</ele>
        <time>2026-03-29T09:35:49Z</time>
      </trkpt>
      <trkpt lat="48.61491" lon="1.99673">
        <ele>129.4</ele>
        <time>2026-03-29T09:35:50Z</time>
      </trkpt>
      <trkpt lat="48.6149" lon="1.99667">
        <ele>129.4</ele>
        <time>2026-03-29T09:35:51Z</time>
      </trkpt>
      <trkpt lat="48.6149" lon="1.99661">
        <ele>129.4</ele>
        <time>2026-03-29T09:35:52Z</time>
      </trkpt>
      <trkpt lat="48.61489" lon="1.99655">
        <ele>130</ele>
        <time>2026-03-29T09:35:53Z</time>
      </trkpt>
      <trkpt lat="48.61489" lon="1.99649">
        <ele>129.8</ele>
        <time>2026-03-29T09:35:54Z</time>
      </trkpt>
      <trkpt lat="48.61489" lon="1.99643">
        <ele>129.8</ele>
        <time>2026-03-29T09:35:55Z</time>
      </trkpt>
      <trkpt lat="48.61488" lon="1.99637">
        <ele>129.8</ele>
        <time>2026-03-29T09:35:56Z</time>
      </trkpt>
      <trkpt lat="48.61488" lon="1.99631">
        <ele>129.8</ele>
        <time>2026-03-29T09:35:57Z</time>
      </trkpt>
      <trkpt lat="48.61488" lon="1.99625">
        <ele>130.2</ele>
        <time>2026-03-29T09:35:58Z</time>
      </trkpt>
      <trkpt lat="48.61487" lon="1.99619">
        <ele>130.2</ele>
        <time>2026-03-29T09:35:59Z</time>
      </trkpt>
      <trkpt lat="48.61487" lon="1.99612">
        <ele>130.2</ele>
        <time>2026-03-29T09:36:00Z</time>
      </trkpt>
      <trkpt lat="48.61486" lon="1.99606">
        <ele>130.4</ele>
        <time>2026-03-29T09:36:01Z</time>
      </trkpt>
      <trkpt lat="48.61485" lon="1.996">
        <ele>130.4</ele>
        <time>2026-03-29T09:36:02Z</time>
      </trkpt>
      <trkpt lat="48.61484" lon="1.99593">
        <ele>130.4</ele>
        <time>2026-03-29T09:36:03Z</time>
      </trkpt>
      <trkpt lat="48.61483" lon="1.99586">
        <ele>130.4</ele>
        <time>2026-03-29T09:36:04Z</time>
      </trkpt>
      <trkpt lat="48.61483" lon="1.99579">
        <ele>130.2</ele>
        <time>2026-03-29T09:36:05Z</time>
      </trkpt>
      <trkpt lat="48.61482" lon="1.99572">
        <ele>129.8</ele>
        <time>2026-03-29T09:36:06Z</time>
      </trkpt>
      <trkpt lat="48.61482" lon="1.99565">
        <ele>129.8</ele>
        <time>2026-03-29T09:36:07Z</time>
      </trkpt>
      <trkpt lat="48.61481" lon="1.99558">
        <ele>129.8</ele>
        <time>2026-03-29T09:36:08Z</time>
      </trkpt>
      <trkpt lat="48.61481" lon="1.99551">
        <ele>129.8</ele>
        <time>2026-03-29T09:36:09Z</time>
      </trkpt>
      <trkpt lat="48.6148" lon="1.99544">
        <ele>130</ele>
        <time>2026-03-29T09:36:10Z</time>
      </trkpt>
      <trkpt lat="48.61479" lon="1.99536">
        <ele>130</ele>
        <time>2026-03-29T09:36:11Z</time>
      </trkpt>
      <trkpt lat="48.61479" lon="1.99529">
        <ele>130</ele>
        <time>2026-03-29T09:36:12Z</time>
      </trkpt>
      <trkpt lat="48.61478" lon="1.99522">
        <ele>130</ele>
        <time>2026-03-29T09:36:13Z</time>
      </trkpt>
      <trkpt lat="48.61477" lon="1.99515">
        <ele>129.6</ele>
        <time>2026-03-29T09:36:14Z</time>
      </trkpt>
      <trkpt lat="48.61476" lon="1.99507">
        <ele>129.6</ele>
        <time>2026-03-29T09:36:15Z</time>
      </trkpt>
      <trkpt lat="48.61476" lon="1.995">
        <ele>129.6</ele>
        <time>2026-03-29T09:36:16Z</time>
      </trkpt>
      <trkpt lat="48.61475" lon="1.99493">
        <ele>129</ele>
        <time>2026-03-29T09:36:17Z</time>
      </trkpt>
      <trkpt lat="48.61474" lon="1.99485">
        <ele>129</ele>
        <time>2026-03-29T09:36:18Z</time>
      </trkpt>
      <trkpt lat="48.61474" lon="1.99477">
        <ele>129</ele>
        <time>2026-03-29T09:36:19Z</time>
      </trkpt>
      <trkpt lat="48.61473" lon="1.99469">
        <ele>129</ele>
        <time>2026-03-29T09:36:20Z</time>
      </trkpt>
      <trkpt lat="48.61473" lon="1.99462">
        <ele>129</ele>
        <time>2026-03-29T09:36:21Z</time>
      </trkpt>
      <trkpt lat="48.61472" lon="1.99454">
        <ele>128.6</ele>
        <time>2026-03-29T09:36:22Z</time>
      </trkpt>
      <trkpt lat="48.61471" lon="1.99447">
        <ele>128.6</ele>
        <time>2026-03-29T09:36:23Z</time>
      </trkpt>
      <trkpt lat="48.6147" lon="1.99439">
        <ele>128.6</ele>
        <time>2026-03-29T09:36:24Z</time>
      </trkpt>
      <trkpt lat="48.6147" lon="1.99431">
        <ele>128.6</ele>
        <time>2026-03-29T09:36:25Z</time>
      </trkpt>
      <trkpt lat="48.61469" lon="1.99424">
        <ele>128.2</ele>
        <time>2026-03-29T09:36:26Z</time>
      </trkpt>
      <trkpt lat="48.61469" lon="1.99417">
        <ele>128.2</ele>
        <time>2026-03-29T09:36:27Z</time>
      </trkpt>
      <trkpt lat="48.61468" lon="1.99409">
        <ele>128.2</ele>
        <time>2026-03-29T09:36:28Z</time>
      </trkpt>
      <trkpt lat="48.61468" lon="1.99402">
        <ele>129</ele>
        <time>2026-03-29T09:36:29Z</time>
      </trkpt>
      <trkpt lat="48.61467" lon="1.99394">
        <ele>128.6</ele>
        <time>2026-03-29T09:36:30Z</time>
      </trkpt>
      <trkpt lat="48.61466" lon="1.99387">
        <ele>128.6</ele>
        <time>2026-03-29T09:36:31Z</time>
      </trkpt>
      <trkpt lat="48.61465" lon="1.99379">
        <ele>128.6</ele>
        <time>2026-03-29T09:36:32Z</time>
      </trkpt>
      <trkpt lat="48.61464" lon="1.99372">
        <ele>128.6</ele>
        <time>2026-03-29T09:36:33Z</time>
      </trkpt>
      <trkpt lat="48.61463" lon="1.99365">
        <ele>128.6</ele>
        <time>2026-03-29T09:36:34Z</time>
      </trkpt>
      <trkpt lat="48.61463" lon="1.99358">
        <ele>128.6</ele>
        <time>2026-03-29T09:36:35Z</time>
      </trkpt>
      <trkpt lat="48.61462" lon="1.99351">
        <ele>128.6</ele>
        <time>2026-03-29T09:36:36Z</time>
      </trkpt>
      <trkpt lat="48.61461" lon="1.99343">
        <ele>128.6</ele>
        <time>2026-03-29T09:36:37Z</time>
      </trkpt>
      <trkpt lat="48.6146" lon="1.99336">
        <ele>128.4</ele>
        <time>2026-03-29T09:36:38Z</time>
      </trkpt>
      <trkpt lat="48.61459" lon="1.99328">
        <ele>128.4</ele>
        <time>2026-03-29T09:36:39Z</time>
      </trkpt>
      <trkpt lat="48.61458" lon="1.9932">
        <ele>128.4</ele>
        <time>2026-03-29T09:36:40Z</time>
      </trkpt>
      <trkpt lat="48.61457" lon="1.99312">
        <ele>127.8</ele>
        <time>2026-03-29T09:36:41Z</time>
      </trkpt>
      <trkpt lat="48.61456" lon="1.99303">
        <ele>127.2</ele>
        <time>2026-03-29T09:36:42Z</time>
      </trkpt>
      <trkpt lat="48.61454" lon="1.99295">
        <ele>127.2</ele>
        <time>2026-03-29T09:36:43Z</time>
      </trkpt>
      <trkpt lat="48.61453" lon="1.99286">
        <ele>127.2</ele>
        <time>2026-03-29T09:36:44Z</time>
      </trkpt>
      <trkpt lat="48.61451" lon="1.99276">
        <ele>126.2</ele>
        <time>2026-03-29T09:36:45Z</time>
      </trkpt>
      <trkpt lat="48.61449" lon="1.99267">
        <ele>126</ele>
        <time>2026-03-29T09:36:46Z</time>
      </trkpt>
      <trkpt lat="48.61447" lon="1.99257">
        <ele>126</ele>
        <time>2026-03-29T09:36:47Z</time>
      </trkpt>
      <trkpt lat="48.61446" lon="1.99247">
        <ele>126</ele>
        <time>2026-03-29T09:36:48Z</time>
      </trkpt>
      <trkpt lat="48.61444" lon="1.99236">
        <ele>125</ele>
        <time>2026-03-29T09:36:49Z</time>
      </trkpt>
      <trkpt lat="48.61442" lon="1.99226">
        <ele>124.8</ele>
        <time>2026-03-29T09:36:50Z</time>
      </trkpt>
      <trkpt lat="48.61439" lon="1.99215">
        <ele>124.8</ele>
        <time>2026-03-29T09:36:51Z</time>
      </trkpt>
      <trkpt lat="48.61437" lon="1.99204">
        <ele>124.8</ele>
        <time>2026-03-29T09:36:52Z</time>
      </trkpt>
      <trkpt lat="48.61434" lon="1.99193">
        <ele>124.8</ele>
        <time>2026-03-29T09:36:53Z</time>
      </trkpt>
      <trkpt lat="48.61431" lon="1.99182">
        <ele>123.8</ele>
        <time>2026-03-29T09:36:54Z</time>
      </trkpt>
      <trkpt lat="48.61428" lon="1.99172">
        <ele>123.8</ele>
        <time>2026-03-29T09:36:55Z</time>
      </trkpt>
      <trkpt lat="48.61425" lon="1.99162">
        <ele>123.8</ele>
        <time>2026-03-29T09:36:56Z</time>
      </trkpt>
      <trkpt lat="48.61423" lon="1.99151">
        <ele>122.8</ele>
        <time>2026-03-29T09:36:57Z</time>
      </trkpt>
      <trkpt lat="48.61421" lon="1.99142">
        <ele>122.2</ele>
        <time>2026-03-29T09:36:58Z</time>
      </trkpt>
      <trkpt lat="48.61418" lon="1.99131">
        <ele>122.2</ele>
        <time>2026-03-29T09:36:59Z</time>
      </trkpt>
      <trkpt lat="48.61416" lon="1.99121">
        <ele>122.2</ele>
        <time>2026-03-29T09:37:00Z</time>
      </trkpt>
      <trkpt lat="48.61414" lon="1.99111">
        <ele>121.2</ele>
        <time>2026-03-29T09:37:01Z</time>
      </trkpt>
      <trkpt lat="48.61412" lon="1.99101">
        <ele>120.6</ele>
        <time>2026-03-29T09:37:02Z</time>
      </trkpt>
      <trkpt lat="48.61411" lon="1.99091">
        <ele>120.6</ele>
        <time>2026-03-29T09:37:03Z</time>
      </trkpt>
      <trkpt lat="48.6141" lon="1.9908">
        <ele>120.6</ele>
        <time>2026-03-29T09:37:04Z</time>
      </trkpt>
      <trkpt lat="48.61409" lon="1.9907">
        <ele>120.6</ele>
        <time>2026-03-29T09:37:05Z</time>
      </trkpt>
      <trkpt lat="48.61409" lon="1.99059">
        <ele>119.8</ele>
        <time>2026-03-29T09:37:06Z</time>
      </trkpt>
      <trkpt lat="48.61408" lon="1.99049">
        <ele>119.8</ele>
        <time>2026-03-29T09:37:07Z</time>
      </trkpt>
      <trkpt lat="48.61408" lon="1.99039">
        <ele>119.8</ele>
        <time>2026-03-29T09:37:08Z</time>
      </trkpt>
      <trkpt lat="48.61408" lon="1.99029">
        <ele>119.8</ele>
        <time>2026-03-29T09:37:09Z</time>
      </trkpt>
      <trkpt lat="48.6141" lon="1.99016">
        <ele>118.4</ele>
        <time>2026-03-29T09:37:10Z</time>
      </trkpt>
      <trkpt lat="48.6141" lon="1.99005">
        <ele>118.4</ele>
        <time>2026-03-29T09:37:11Z</time>
      </trkpt>
      <trkpt lat="48.6141" lon="1.98994">
        <ele>118.4</ele>
        <time>2026-03-29T09:37:12Z</time>
      </trkpt>
      <trkpt lat="48.6141" lon="1.98983">
        <ele>117.4</ele>
        <time>2026-03-29T09:37:13Z</time>
      </trkpt>
      <trkpt lat="48.6141" lon="1.98971">
        <ele>117.2</ele>
        <time>2026-03-29T09:37:14Z</time>
      </trkpt>
      <trkpt lat="48.61411" lon="1.9896">
        <ele>117.2</ele>
        <time>2026-03-29T09:37:15Z</time>
      </trkpt>
      <trkpt lat="48.61411" lon="1.98948">
        <ele>117.2</ele>
        <time>2026-03-29T09:37:16Z</time>
      </trkpt>
      <trkpt lat="48.61411" lon="1.98936">
        <ele>117.2</ele>
        <time>2026-03-29T09:37:17Z</time>
      </trkpt>
      <trkpt lat="48.61412" lon="1.98925">
        <ele>116.6</ele>
        <time>2026-03-29T09:37:18Z</time>
      </trkpt>
      <trkpt lat="48.61412" lon="1.98913">
        <ele>116.6</ele>
        <time>2026-03-29T09:37:19Z</time>
      </trkpt>
      <trkpt lat="48.61412" lon="1.98901">
        <ele>116.6</ele>
        <time>2026-03-29T09:37:20Z</time>
      </trkpt>
      <trkpt lat="48.61413" lon="1.9889">
        <ele>115.6</ele>
        <time>2026-03-29T09:37:21Z</time>
      </trkpt>
      <trkpt lat="48.61413" lon="1.98878">
        <ele>114.2</ele>
        <time>2026-03-29T09:37:22Z</time>
      </trkpt>
      <trkpt lat="48.61413" lon="1.98866">
        <ele>114.2</ele>
        <time>2026-03-29T09:37:23Z</time>
      </trkpt>
      <trkpt lat="48.61412" lon="1.98854">
        <ele>114.2</ele>
        <time>2026-03-29T09:37:24Z</time>
      </trkpt>
      <trkpt lat="48.61411" lon="1.98843">
        <ele>113.6</ele>
        <time>2026-03-29T09:37:25Z</time>
      </trkpt>
      <trkpt lat="48.6141" lon="1.98831">
        <ele>112.8</ele>
        <time>2026-03-29T09:37:26Z</time>
      </trkpt>
      <trkpt lat="48.61407" lon="1.9882">
        <ele>112.8</ele>
        <time>2026-03-29T09:37:27Z</time>
      </trkpt>
      <trkpt lat="48.61404" lon="1.98809">
        <ele>112.8</ele>
        <time>2026-03-29T09:37:28Z</time>
      </trkpt>
      <trkpt lat="48.61399" lon="1.98798">
        <ele>111.8</ele>
        <time>2026-03-29T09:37:29Z</time>
      </trkpt>
      <trkpt lat="48.61394" lon="1.98788">
        <ele>111</ele>
        <time>2026-03-29T09:37:30Z</time>
      </trkpt>
      <trkpt lat="48.61387" lon="1.98779">
        <ele>111</ele>
        <time>2026-03-29T09:37:31Z</time>
      </trkpt>
      <trkpt lat="48.6138" lon="1.98772">
        <ele>111</ele>
        <time>2026-03-29T09:37:32Z</time>
      </trkpt>
      <trkpt lat="48.61372" lon="1.98766">
        <ele>110</ele>
        <time>2026-03-29T09:37:33Z</time>
      </trkpt>
      <trkpt lat="48.61363" lon="1.98762">
        <ele>107.8</ele>
        <time>2026-03-29T09:37:34Z</time>
      </trkpt>
      <trkpt lat="48.61357" lon="1.98758">
        <ele>107.8</ele>
        <time>2026-03-29T09:37:35Z</time>
      </trkpt>
      <trkpt lat="48.61351" lon="1.98754">
        <ele>107.8</ele>
        <time>2026-03-29T09:37:36Z</time>
      </trkpt>
      <trkpt lat="48.61347" lon="1.98748">
        <ele>106.8</ele>
        <time>2026-03-29T09:37:37Z</time>
      </trkpt>
      <trkpt lat="48.61344" lon="1.9874">
        <ele>105.4</ele>
        <time>2026-03-29T09:37:38Z</time>
      </trkpt>
      <trkpt lat="48.61342" lon="1.9873">
        <ele>105.4</ele>
        <time>2026-03-29T09:37:39Z</time>
      </trkpt>
      <trkpt lat="48.61342" lon="1.98719">
        <ele>105.4</ele>
        <time>2026-03-29T09:37:40Z</time>
      </trkpt>
      <trkpt lat="48.61343" lon="1.98708">
        <ele>104.4</ele>
        <time>2026-03-29T09:37:41Z</time>
      </trkpt>
      <trkpt lat="48.61345" lon="1.98696">
        <ele>104.2</ele>
        <time>2026-03-29T09:37:42Z</time>
      </trkpt>
      <trkpt lat="48.61346" lon="1.98685">
        <ele>104.2</ele>
        <time>2026-03-29T09:37:43Z</time>
      </trkpt>
      <trkpt lat="48.61347" lon="1.98675">
        <ele>104.2</ele>
        <time>2026-03-29T09:37:44Z</time>
      </trkpt>
      <trkpt lat="48.61346" lon="1.98666">
        <ele>104.2</ele>
        <time>2026-03-29T09:37:45Z</time>
      </trkpt>
      <trkpt lat="48.61343" lon="1.98657">
        <ele>103.8</ele>
        <time>2026-03-29T09:37:46Z</time>
      </trkpt>
      <trkpt lat="48.61339" lon="1.9865">
        <ele>103.8</ele>
        <time>2026-03-29T09:37:47Z</time>
      </trkpt>
      <trkpt lat="48.61335" lon="1.98642">
        <ele>103.8</ele>
        <time>2026-03-29T09:37:48Z</time>
      </trkpt>
      <trkpt lat="48.61332" lon="1.98634">
        <ele>104.2</ele>
        <time>2026-03-29T09:37:49Z</time>
      </trkpt>
      <trkpt lat="48.61329" lon="1.98625">
        <ele>104.2</ele>
        <time>2026-03-29T09:37:50Z</time>
      </trkpt>
      <trkpt lat="48.61327" lon="1.98616">
        <ele>104.2</ele>
        <time>2026-03-29T09:37:51Z</time>
      </trkpt>
      <trkpt lat="48.61325" lon="1.98606">
        <ele>104.2</ele>
        <time>2026-03-29T09:37:52Z</time>
      </trkpt>
      <trkpt lat="48.61324" lon="1.98596">
        <ele>104</ele>
        <time>2026-03-29T09:37:53Z</time>
      </trkpt>
      <trkpt lat="48.61324" lon="1.98586">
        <ele>103.6</ele>
        <time>2026-03-29T09:37:54Z</time>
      </trkpt>
      <trkpt lat="48.61324" lon="1.98577">
        <ele>103.6</ele>
        <time>2026-03-29T09:37:55Z</time>
      </trkpt>
      <trkpt lat="48.61325" lon="1.98568">
        <ele>103.6</ele>
        <time>2026-03-29T09:37:56Z</time>
      </trkpt>
      <trkpt lat="48.61326" lon="1.98559">
        <ele>103.6</ele>
        <time>2026-03-29T09:37:57Z</time>
      </trkpt>
      <trkpt lat="48.61327" lon="1.9855">
        <ele>103</ele>
        <time>2026-03-29T09:37:58Z</time>
      </trkpt>
      <trkpt lat="48.61327" lon="1.9854">
        <ele>103</ele>
        <time>2026-03-29T09:37:59Z</time>
      </trkpt>
      <trkpt lat="48.61327" lon="1.98531">
        <ele>103</ele>
        <time>2026-03-29T09:38:00Z</time>
      </trkpt>
      <trkpt lat="48.61328" lon="1.98522">
        <ele>103.6</ele>
        <time>2026-03-29T09:38:01Z</time>
      </trkpt>
      <trkpt lat="48.61328" lon="1.98513">
        <ele>103.8</ele>
        <time>2026-03-29T09:38:02Z</time>
      </trkpt>
      <trkpt lat="48.61329" lon="1.98505">
        <ele>103.8</ele>
        <time>2026-03-29T09:38:03Z</time>
      </trkpt>
      <trkpt lat="48.6133" lon="1.98496">
        <ele>103.8</ele>
        <time>2026-03-29T09:38:04Z</time>
      </trkpt>
      <trkpt lat="48.61331" lon="1.98488">
        <ele>103.8</ele>
        <time>2026-03-29T09:38:05Z</time>
      </trkpt>
      <trkpt lat="48.61332" lon="1.98481">
        <ele>104</ele>
        <time>2026-03-29T09:38:06Z</time>
      </trkpt>
      <trkpt lat="48.61335" lon="1.98474">
        <ele>104</ele>
        <time>2026-03-29T09:38:07Z</time>
      </trkpt>
      <trkpt lat="48.61338" lon="1.98468">
        <ele>104</ele>
        <time>2026-03-29T09:38:08Z</time>
      </trkpt>
      <trkpt lat="48.61341" lon="1.98462">
        <ele>103.6</ele>
        <time>2026-03-29T09:38:09Z</time>
      </trkpt>
      <trkpt lat="48.61344" lon="1.98456">
        <ele>104.2</ele>
        <time>2026-03-29T09:38:10Z</time>
      </trkpt>
      <trkpt lat="48.61347" lon="1.9845">
        <ele>104.2</ele>
        <time>2026-03-29T09:38:11Z</time>
      </trkpt>
      <trkpt lat="48.6135" lon="1.98445">
        <ele>104.2</ele>
        <time>2026-03-29T09:38:12Z</time>
      </trkpt>
      <trkpt lat="48.61353" lon="1.9844">
        <ele>104.2</ele>
        <time>2026-03-29T09:38:13Z</time>
      </trkpt>
      <trkpt lat="48.61356" lon="1.98436">
        <ele>104.4</ele>
        <time>2026-03-29T09:38:14Z</time>
      </trkpt>
      <trkpt lat="48.61358" lon="1.98431">
        <ele>104.4</ele>
        <time>2026-03-29T09:38:15Z</time>
      </trkpt>
      <trkpt lat="48.61361" lon="1.98426">
        <ele>104.4</ele>
        <time>2026-03-29T09:38:16Z</time>
      </trkpt>
      <trkpt lat="48.61364" lon="1.98421">
        <ele>104.4</ele>
        <time>2026-03-29T09:38:17Z</time>
      </trkpt>
      <trkpt lat="48.61366" lon="1.98417">
        <ele>105</ele>
        <time>2026-03-29T09:38:18Z</time>
      </trkpt>
      <trkpt lat="48.61368" lon="1.98413">
        <ele>105</ele>
        <time>2026-03-29T09:38:19Z</time>
      </trkpt>
      <trkpt lat="48.61371" lon="1.98408">
        <ele>105</ele>
        <time>2026-03-29T09:38:20Z</time>
      </trkpt>
      <trkpt lat="48.61373" lon="1.98404">
        <ele>104.8</ele>
        <time>2026-03-29T09:38:21Z</time>
      </trkpt>
      <trkpt lat="48.61376" lon="1.984">
        <ele>105.2</ele>
        <time>2026-03-29T09:38:22Z</time>
      </trkpt>
      <trkpt lat="48.61378" lon="1.98396">
        <ele>105.2</ele>
        <time>2026-03-29T09:38:23Z</time>
      </trkpt>
      <trkpt lat="48.6138" lon="1.98392">
        <ele>105.2</ele>
        <time>2026-03-29T09:38:24Z</time>
      </trkpt>
      <trkpt lat="48.61382" lon="1.98388">
        <ele>105.2</ele>
        <time>2026-03-29T09:38:25Z</time>
      </trkpt>
      <trkpt lat="48.61384" lon="1.98384">
        <ele>105.8</ele>
        <time>2026-03-29T09:38:26Z</time>
      </trkpt>
      <trkpt lat="48.61386" lon="1.9838">
        <ele>105.8</ele>
        <time>2026-03-29T09:38:27Z</time>
      </trkpt>
      <trkpt lat="48.61389" lon="1.98376">
        <ele>105.8</ele>
        <time>2026-03-29T09:38:28Z</time>
      </trkpt>
      <trkpt lat="48.61391" lon="1.98372">
        <ele>106.4</ele>
        <time>2026-03-29T09:38:29Z</time>
      </trkpt>
      <trkpt lat="48.61392" lon="1.98368">
        <ele>106</ele>
        <time>2026-03-29T09:38:30Z</time>
      </trkpt>
      <trkpt lat="48.61395" lon="1.98364">
        <ele>106</ele>
        <time>2026-03-29T09:38:31Z</time>
      </trkpt>
      <trkpt lat="48.61397" lon="1.9836">
        <ele>106</ele>
        <time>2026-03-29T09:38:32Z</time>
      </trkpt>
      <trkpt lat="48.61399" lon="1.98356">
        <ele>106.6</ele>
        <time>2026-03-29T09:38:33Z</time>
      </trkpt>
      <trkpt lat="48.61402" lon="1.98352">
        <ele>107</ele>
        <time>2026-03-29T09:38:34Z</time>
      </trkpt>
      <trkpt lat="48.61404" lon="1.98348">
        <ele>107</ele>
        <time>2026-03-29T09:38:35Z</time>
      </trkpt>
      <trkpt lat="48.61406" lon="1.98343">
        <ele>107</ele>
        <time>2026-03-29T09:38:36Z</time>
      </trkpt>
      <trkpt lat="48.61407" lon="1.98339">
        <ele>107</ele>
        <time>2026-03-29T09:38:37Z</time>
      </trkpt>
      <trkpt lat="48.61409" lon="1.98334">
        <ele>106.6</ele>
        <time>2026-03-29T09:38:38Z</time>
      </trkpt>
      <trkpt lat="48.6141" lon="1.9833">
        <ele>106.6</ele>
        <time>2026-03-29T09:38:39Z</time>
      </trkpt>
      <trkpt lat="48.61412" lon="1.98326">
        <ele>106.6</ele>
        <time>2026-03-29T09:38:40Z</time>
      </trkpt>
      <trkpt lat="48.61414" lon="1.98323">
        <ele>107.2</ele>
        <time>2026-03-29T09:38:41Z</time>
      </trkpt>
      <trkpt lat="48.61416" lon="1.98319">
        <ele>107</ele>
        <time>2026-03-29T09:38:42Z</time>
      </trkpt>
      <trkpt lat="48.61419" lon="1.98315">
        <ele>107</ele>
        <time>2026-03-29T09:38:43Z</time>
      </trkpt>
      <trkpt lat="48.61421" lon="1.98311">
        <ele>107</ele>
        <time>2026-03-29T09:38:44Z</time>
      </trkpt>
      <trkpt lat="48.61423" lon="1.98307">
        <ele>107.2</ele>
        <time>2026-03-29T09:38:45Z</time>
      </trkpt>
      <trkpt lat="48.61425" lon="1.98303">
        <ele>107.2</ele>
        <time>2026-03-29T09:38:46Z</time>
      </trkpt>
      <trkpt lat="48.61427" lon="1.98299">
        <ele>107.2</ele>
        <time>2026-03-29T09:38:47Z</time>
      </trkpt>
      <trkpt lat="48.61429" lon="1.98295">
        <ele>107.2</ele>
        <time>2026-03-29T09:38:48Z</time>
      </trkpt>
      <trkpt lat="48.6143" lon="1.98291">
        <ele>107.2</ele>
        <time>2026-03-29T09:38:49Z</time>
      </trkpt>
      <trkpt lat="48.61432" lon="1.98287">
        <ele>108</ele>
        <time>2026-03-29T09:38:50Z</time>
      </trkpt>
      <trkpt lat="48.61434" lon="1.98283">
        <ele>108</ele>
        <time>2026-03-29T09:38:51Z</time>
      </trkpt>
      <trkpt lat="48.61437" lon="1.98279">
        <ele>108</ele>
        <time>2026-03-29T09:38:52Z</time>
      </trkpt>
      <trkpt lat="48.61439" lon="1.98275">
        <ele>108.2</ele>
        <time>2026-03-29T09:38:53Z</time>
      </trkpt>
      <trkpt lat="48.6144" lon="1.98271">
        <ele>108.6</ele>
        <time>2026-03-29T09:38:54Z</time>
      </trkpt>
      <trkpt lat="48.61442" lon="1.98267">
        <ele>108.6</ele>
        <time>2026-03-29T09:38:55Z</time>
      </trkpt>
      <trkpt lat="48.61445" lon="1.98262">
        <ele>108.6</ele>
        <time>2026-03-29T09:38:56Z</time>
      </trkpt>
      <trkpt lat="48.61447" lon="1.98258">
        <ele>109.2</ele>
        <time>2026-03-29T09:38:57Z</time>
      </trkpt>
      <trkpt lat="48.61449" lon="1.98254">
        <ele>109</ele>
        <time>2026-03-29T09:38:58Z</time>
      </trkpt>
      <trkpt lat="48.61451" lon="1.9825">
        <ele>109</ele>
        <time>2026-03-29T09:38:59Z</time>
      </trkpt>
      <trkpt lat="48.61453" lon="1.98245">
        <ele>109</ele>
        <time>2026-03-29T09:39:00Z</time>
      </trkpt>
      <trkpt lat="48.61455" lon="1.98241">
        <ele>109.6</ele>
        <time>2026-03-29T09:39:01Z</time>
      </trkpt>
      <trkpt lat="48.61457" lon="1.98236">
        <ele>109.6</ele>
        <time>2026-03-29T09:39:02Z</time>
      </trkpt>
      <trkpt lat="48.61459" lon="1.98232">
        <ele>109.6</ele>
        <time>2026-03-29T09:39:03Z</time>
      </trkpt>
      <trkpt lat="48.61461" lon="1.98228">
        <ele>109.6</ele>
        <time>2026-03-29T09:39:04Z</time>
      </trkpt>
      <trkpt lat="48.61463" lon="1.98224">
        <ele>109.6</ele>
        <time>2026-03-29T09:39:05Z</time>
      </trkpt>
      <trkpt lat="48.61465" lon="1.9822">
        <ele>109.6</ele>
        <time>2026-03-29T09:39:06Z</time>
      </trkpt>
      <trkpt lat="48.61466" lon="1.98217">
        <ele>109.6</ele>
        <time>2026-03-29T09:39:07Z</time>
      </trkpt>
      <trkpt lat="48.61468" lon="1.98213">
        <ele>109.6</ele>
        <time>2026-03-29T09:39:08Z</time>
      </trkpt>
      <trkpt lat="48.6147" lon="1.9821">
        <ele>110.4</ele>
        <time>2026-03-29T09:39:09Z</time>
      </trkpt>
      <trkpt lat="48.61471" lon="1.98206">
        <ele>110.6</ele>
        <time>2026-03-29T09:39:10Z</time>
      </trkpt>
      <trkpt lat="48.61473" lon="1.98203">
        <ele>110.6</ele>
        <time>2026-03-29T09:39:11Z</time>
      </trkpt>
      <trkpt lat="48.61475" lon="1.98199">
        <ele>110.6</ele>
        <time>2026-03-29T09:39:12Z</time>
      </trkpt>
      <trkpt lat="48.61475" lon="1.98195">
        <ele>110.6</ele>
        <time>2026-03-29T09:39:13Z</time>
      </trkpt>
      <trkpt lat="48.61475" lon="1.9819">
        <ele>111</ele>
        <time>2026-03-29T09:39:14Z</time>
      </trkpt>
      <trkpt lat="48.61474" lon="1.98185">
        <ele>111</ele>
        <time>2026-03-29T09:39:15Z</time>
      </trkpt>
      <trkpt lat="48.61473" lon="1.9818">
        <ele>111</ele>
        <time>2026-03-29T09:39:16Z</time>
      </trkpt>
      <trkpt lat="48.61471" lon="1.98176">
        <ele>110.8</ele>
        <time>2026-03-29T09:39:17Z</time>
      </trkpt>
      <trkpt lat="48.61469" lon="1.98171">
        <ele>110.4</ele>
        <time>2026-03-29T09:39:18Z</time>
      </trkpt>
      <trkpt lat="48.61466" lon="1.98166">
        <ele>110.4</ele>
        <time>2026-03-29T09:39:19Z</time>
      </trkpt>
      <trkpt lat="48.61464" lon="1.98162">
        <ele>110.4</ele>
        <time>2026-03-29T09:39:20Z</time>
      </trkpt>
      <trkpt lat="48.61461" lon="1.98156">
        <ele>110.4</ele>
        <time>2026-03-29T09:39:21Z</time>
      </trkpt>
      <trkpt lat="48.61458" lon="1.98151">
        <ele>110.6</ele>
        <time>2026-03-29T09:39:22Z</time>
      </trkpt>
      <trkpt lat="48.61455" lon="1.98146">
        <ele>110.6</ele>
        <time>2026-03-29T09:39:23Z</time>
      </trkpt>
      <trkpt lat="48.61452" lon="1.9814">
        <ele>110.6</ele>
        <time>2026-03-29T09:39:24Z</time>
      </trkpt>
      <trkpt lat="48.61449" lon="1.98134">
        <ele>110.4</ele>
        <time>2026-03-29T09:39:25Z</time>
      </trkpt>
      <trkpt lat="48.61446" lon="1.98128">
        <ele>109.8</ele>
        <time>2026-03-29T09:39:26Z</time>
      </trkpt>
      <trkpt lat="48.61442" lon="1.98122">
        <ele>109.8</ele>
        <time>2026-03-29T09:39:27Z</time>
      </trkpt>
      <trkpt lat="48.61438" lon="1.98116">
        <ele>109.8</ele>
        <time>2026-03-29T09:39:28Z</time>
      </trkpt>
      <trkpt lat="48.61434" lon="1.9811">
        <ele>109.8</ele>
        <time>2026-03-29T09:39:29Z</time>
      </trkpt>
      <trkpt lat="48.61429" lon="1.98104">
        <ele>109.4</ele>
        <time>2026-03-29T09:39:30Z</time>
      </trkpt>
      <trkpt lat="48.61425" lon="1.98098">
        <ele>109.4</ele>
        <time>2026-03-29T09:39:31Z</time>
      </trkpt>
      <trkpt lat="48.61421" lon="1.98092">
        <ele>109.4</ele>
        <time>2026-03-29T09:39:32Z</time>
      </trkpt>
      <trkpt lat="48.61416" lon="1.98086">
        <ele>108.6</ele>
        <time>2026-03-29T09:39:33Z</time>
      </trkpt>
      <trkpt lat="48.61411" lon="1.9808">
        <ele>108.6</ele>
        <time>2026-03-29T09:39:34Z</time>
      </trkpt>
      <trkpt lat="48.61406" lon="1.98074">
        <ele>108.6</ele>
        <time>2026-03-29T09:39:35Z</time>
      </trkpt>
      <trkpt lat="48.61401" lon="1.98068">
        <ele>108.6</ele>
        <time>2026-03-29T09:39:36Z</time>
      </trkpt>
      <trkpt lat="48.61396" lon="1.98062">
        <ele>108</ele>
        <time>2026-03-29T09:39:37Z</time>
      </trkpt>
      <trkpt lat="48.6139" lon="1.98056">
        <ele>108.2</ele>
        <time>2026-03-29T09:39:38Z</time>
      </trkpt>
      <trkpt lat="48.61385" lon="1.9805">
        <ele>108.2</ele>
        <time>2026-03-29T09:39:39Z</time>
      </trkpt>
      <trkpt lat="48.61379" lon="1.98044">
        <ele>108.2</ele>
        <time>2026-03-29T09:39:40Z</time>
      </trkpt>
      <trkpt lat="48.61373" lon="1.98038">
        <ele>107.2</ele>
        <time>2026-03-29T09:39:41Z</time>
      </trkpt>
      <trkpt lat="48.61367" lon="1.98033">
        <ele>107.8</ele>
        <time>2026-03-29T09:39:42Z</time>
      </trkpt>
      <trkpt lat="48.6136" lon="1.98028">
        <ele>107.8</ele>
        <time>2026-03-29T09:39:43Z</time>
      </trkpt>
      <trkpt lat="48.61354" lon="1.98024">
        <ele>107.8</ele>
        <time>2026-03-29T09:39:44Z</time>
      </trkpt>
      <trkpt lat="48.61347" lon="1.9802">
        <ele>106.8</ele>
        <time>2026-03-29T09:39:45Z</time>
      </trkpt>
      <trkpt lat="48.6134" lon="1.98017">
        <ele>107</ele>
        <time>2026-03-29T09:39:46Z</time>
      </trkpt>
      <trkpt lat="48.61334" lon="1.98014">
        <ele>107</ele>
        <time>2026-03-29T09:39:47Z</time>
      </trkpt>
      <trkpt lat="48.61327" lon="1.98012">
        <ele>107</ele>
        <time>2026-03-29T09:39:48Z</time>
      </trkpt>
      <trkpt lat="48.6132" lon="1.98009">
        <ele>107</ele>
        <time>2026-03-29T09:39:49Z</time>
      </trkpt>
      <trkpt lat="48.61313" lon="1.98007">
        <ele>106.4</ele>
        <time>2026-03-29T09:39:50Z</time>
      </trkpt>
      <trkpt lat="48.61307" lon="1.98005">
        <ele>106.4</ele>
        <time>2026-03-29T09:39:51Z</time>
      </trkpt>
      <trkpt lat="48.613" lon="1.98002">
        <ele>106.4</ele>
        <time>2026-03-29T09:39:52Z</time>
      </trkpt>
      <trkpt lat="48.61293" lon="1.97998">
        <ele>106.4</ele>
        <time>2026-03-29T09:39:53Z</time>
      </trkpt>
      <trkpt lat="48.61287" lon="1.97993">
        <ele>106.6</ele>
        <time>2026-03-29T09:39:54Z</time>
      </trkpt>
      <trkpt lat="48.61281" lon="1.97988">
        <ele>106.6</ele>
        <time>2026-03-29T09:39:55Z</time>
      </trkpt>
      <trkpt lat="48.61275" lon="1.97982">
        <ele>106.6</ele>
        <time>2026-03-29T09:39:56Z</time>
      </trkpt>
      <trkpt lat="48.61269" lon="1.97975">
        <ele>106.2</ele>
        <time>2026-03-29T09:39:57Z</time>
      </trkpt>
      <trkpt lat="48.61264" lon="1.97968">
        <ele>105.8</ele>
        <time>2026-03-29T09:39:58Z</time>
      </trkpt>
      <trkpt lat="48.6126" lon="1.97959">
        <ele>105.8</ele>
        <time>2026-03-29T09:39:59Z</time>
      </trkpt>
      <trkpt lat="48.61256" lon="1.9795">
        <ele>105.8</ele>
        <time>2026-03-29T09:40:00Z</time>
      </trkpt>
      <trkpt lat="48.61252" lon="1.97941">
        <ele>105.8</ele>
        <time>2026-03-29T09:40:01Z</time>
      </trkpt>
      <trkpt lat="48.61249" lon="1.97931">
        <ele>105.8</ele>
        <time>2026-03-29T09:40:02Z</time>
      </trkpt>
      <trkpt lat="48.61246" lon="1.97922">
        <ele>105.8</ele>
        <time>2026-03-29T09:40:03Z</time>
      </trkpt>
      <trkpt lat="48.61243" lon="1.97912">
        <ele>105.8</ele>
        <time>2026-03-29T09:40:04Z</time>
      </trkpt>
      <trkpt lat="48.6124" lon="1.97903">
        <ele>105.8</ele>
        <time>2026-03-29T09:40:05Z</time>
      </trkpt>
      <trkpt lat="48.61237" lon="1.97893">
        <ele>106.2</ele>
        <time>2026-03-29T09:40:06Z</time>
      </trkpt>
      <trkpt lat="48.61234" lon="1.97884">
        <ele>106.2</ele>
        <time>2026-03-29T09:40:07Z</time>
      </trkpt>
      <trkpt lat="48.61231" lon="1.97875">
        <ele>106.2</ele>
        <time>2026-03-29T09:40:08Z</time>
      </trkpt>
      <trkpt lat="48.61227" lon="1.97867">
        <ele>106.2</ele>
        <time>2026-03-29T09:40:09Z</time>
      </trkpt>
      <trkpt lat="48.61224" lon="1.97858">
        <ele>106.2</ele>
        <time>2026-03-29T09:40:10Z</time>
      </trkpt>
      <trkpt lat="48.61221" lon="1.9785">
        <ele>106.2</ele>
        <time>2026-03-29T09:40:11Z</time>
      </trkpt>
      <trkpt lat="48.61218" lon="1.97842">
        <ele>106.2</ele>
        <time>2026-03-29T09:40:12Z</time>
      </trkpt>
      <trkpt lat="48.61215" lon="1.97834">
        <ele>105.8</ele>
        <time>2026-03-29T09:40:13Z</time>
      </trkpt>
      <trkpt lat="48.61212" lon="1.97827">
        <ele>105.8</ele>
        <time>2026-03-29T09:40:14Z</time>
      </trkpt>
      <trkpt lat="48.61209" lon="1.97819">
        <ele>105.8</ele>
        <time>2026-03-29T09:40:15Z</time>
      </trkpt>
      <trkpt lat="48.61206" lon="1.97812">
        <ele>105.8</ele>
        <time>2026-03-29T09:40:16Z</time>
      </trkpt>
      <trkpt lat="48.61203" lon="1.97804">
        <ele>105.8</ele>
        <time>2026-03-29T09:40:17Z</time>
      </trkpt>
      <trkpt lat="48.612" lon="1.97796">
        <ele>106</ele>
        <time>2026-03-29T09:40:18Z</time>
      </trkpt>
      <trkpt lat="48.61197" lon="1.97789">
        <ele>106</ele>
        <time>2026-03-29T09:40:19Z</time>
      </trkpt>
      <trkpt lat="48.61194" lon="1.97782">
        <ele>106</ele>
        <time>2026-03-29T09:40:20Z</time>
      </trkpt>
      <trkpt lat="48.61191" lon="1.97775">
        <ele>106</ele>
        <time>2026-03-29T09:40:21Z</time>
      </trkpt>
      <trkpt lat="48.61188" lon="1.97768">
        <ele>106.4</ele>
        <time>2026-03-29T09:40:22Z</time>
      </trkpt>
      <trkpt lat="48.61185" lon="1.97761">
        <ele>106.4</ele>
        <time>2026-03-29T09:40:23Z</time>
      </trkpt>
      <trkpt lat="48.61182" lon="1.97755">
        <ele>106.4</ele>
        <time>2026-03-29T09:40:24Z</time>
      </trkpt>
      <trkpt lat="48.61179" lon="1.97747">
        <ele>106.4</ele>
        <time>2026-03-29T09:40:25Z</time>
      </trkpt>
      <trkpt lat="48.61176" lon="1.9774">
        <ele>106</ele>
        <time>2026-03-29T09:40:26Z</time>
      </trkpt>
      <trkpt lat="48.61173" lon="1.97732">
        <ele>106</ele>
        <time>2026-03-29T09:40:27Z</time>
      </trkpt>
      <trkpt lat="48.6117" lon="1.97725">
        <ele>106</ele>
        <time>2026-03-29T09:40:28Z</time>
      </trkpt>
      <trkpt lat="48.61168" lon="1.97717">
        <ele>106</ele>
        <time>2026-03-29T09:40:29Z</time>
      </trkpt>
      <trkpt lat="48.61166" lon="1.97709">
        <ele>106.6</ele>
        <time>2026-03-29T09:40:30Z</time>
      </trkpt>
      <trkpt lat="48.61166" lon="1.977">
        <ele>106.6</ele>
        <time>2026-03-29T09:40:31Z</time>
      </trkpt>
      <trkpt lat="48.61167" lon="1.97692">
        <ele>106.6</ele>
        <time>2026-03-29T09:40:32Z</time>
      </trkpt>
      <trkpt lat="48.61169" lon="1.97684">
        <ele>106.8</ele>
        <time>2026-03-29T09:40:33Z</time>
      </trkpt>
      <trkpt lat="48.6117" lon="1.97675">
        <ele>107</ele>
        <time>2026-03-29T09:40:34Z</time>
      </trkpt>
      <trkpt lat="48.61171" lon="1.97667">
        <ele>107</ele>
        <time>2026-03-29T09:40:35Z</time>
      </trkpt>
      <trkpt lat="48.61171" lon="1.97659">
        <ele>107</ele>
        <time>2026-03-29T09:40:36Z</time>
      </trkpt>
      <trkpt lat="48.61169" lon="1.97651">
        <ele>107</ele>
        <time>2026-03-29T09:40:37Z</time>
      </trkpt>
      <trkpt lat="48.61167" lon="1.97642">
        <ele>106.6</ele>
        <time>2026-03-29T09:40:38Z</time>
      </trkpt>
      <trkpt lat="48.61165" lon="1.97635">
        <ele>106.6</ele>
        <time>2026-03-29T09:40:39Z</time>
      </trkpt>
      <trkpt lat="48.61164" lon="1.97627">
        <ele>106.6</ele>
        <time>2026-03-29T09:40:40Z</time>
      </trkpt>
      <trkpt lat="48.61162" lon="1.97619">
        <ele>106.6</ele>
        <time>2026-03-29T09:40:41Z</time>
      </trkpt>
      <trkpt lat="48.61161" lon="1.97611">
        <ele>107</ele>
        <time>2026-03-29T09:40:42Z</time>
      </trkpt>
      <trkpt lat="48.6116" lon="1.97603">
        <ele>107</ele>
        <time>2026-03-29T09:40:43Z</time>
      </trkpt>
      <trkpt lat="48.61159" lon="1.97595">
        <ele>107</ele>
        <time>2026-03-29T09:40:44Z</time>
      </trkpt>
      <trkpt lat="48.61158" lon="1.97587">
        <ele>106.8</ele>
        <time>2026-03-29T09:40:45Z</time>
      </trkpt>
      <trkpt lat="48.61157" lon="1.97579">
        <ele>106.8</ele>
        <time>2026-03-29T09:40:46Z</time>
      </trkpt>
      <trkpt lat="48.61157" lon="1.97571">
        <ele>106.8</ele>
        <time>2026-03-29T09:40:47Z</time>
      </trkpt>
      <trkpt lat="48.61158" lon="1.97564">
        <ele>106.8</ele>
        <time>2026-03-29T09:40:48Z</time>
      </trkpt>
      <trkpt lat="48.61158" lon="1.97556">
        <ele>107.2</ele>
        <time>2026-03-29T09:40:49Z</time>
      </trkpt>
      <trkpt lat="48.6116" lon="1.97548">
        <ele>107.4</ele>
        <time>2026-03-29T09:40:50Z</time>
      </trkpt>
      <trkpt lat="48.61161" lon="1.97541">
        <ele>107.4</ele>
        <time>2026-03-29T09:40:51Z</time>
      </trkpt>
      <trkpt lat="48.61162" lon="1.97533">
        <ele>107.4</ele>
        <time>2026-03-29T09:40:52Z</time>
      </trkpt>
      <trkpt lat="48.61164" lon="1.97526">
        <ele>107.8</ele>
        <time>2026-03-29T09:40:53Z</time>
      </trkpt>
      <trkpt lat="48.61166" lon="1.97519">
        <ele>107.4</ele>
        <time>2026-03-29T09:40:54Z</time>
      </trkpt>
      <trkpt lat="48.61168" lon="1.97511">
        <ele>107.4</ele>
        <time>2026-03-29T09:40:55Z</time>
      </trkpt>
      <trkpt lat="48.6117" lon="1.97504">
        <ele>107.4</ele>
        <time>2026-03-29T09:40:56Z</time>
      </trkpt>
      <trkpt lat="48.61172" lon="1.97497">
        <ele>107.4</ele>
        <time>2026-03-29T09:40:57Z</time>
      </trkpt>
      <trkpt lat="48.61174" lon="1.97489">
        <ele>107.6</ele>
        <time>2026-03-29T09:40:58Z</time>
      </trkpt>
      <trkpt lat="48.61176" lon="1.97482">
        <ele>107.6</ele>
        <time>2026-03-29T09:40:59Z</time>
      </trkpt>
      <trkpt lat="48.61178" lon="1.97474">
        <ele>107.6</ele>
        <time>2026-03-29T09:41:00Z</time>
      </trkpt>
      <trkpt lat="48.6118" lon="1.97467">
        <ele>107.6</ele>
        <time>2026-03-29T09:41:01Z</time>
      </trkpt>
      <trkpt lat="48.61181" lon="1.97459">
        <ele>107.8</ele>
        <time>2026-03-29T09:41:02Z</time>
      </trkpt>
      <trkpt lat="48.61182" lon="1.97451">
        <ele>107.8</ele>
        <time>2026-03-29T09:41:03Z</time>
      </trkpt>
      <trkpt lat="48.61183" lon="1.97442">
        <ele>107.8</ele>
        <time>2026-03-29T09:41:04Z</time>
      </trkpt>
      <trkpt lat="48.61183" lon="1.97434">
        <ele>107.2</ele>
        <time>2026-03-29T09:41:05Z</time>
      </trkpt>
      <trkpt lat="48.61182" lon="1.97425">
        <ele>107.2</ele>
        <time>2026-03-29T09:41:06Z</time>
      </trkpt>
      <trkpt lat="48.61181" lon="1.97417">
        <ele>107.2</ele>
        <time>2026-03-29T09:41:07Z</time>
      </trkpt>
      <trkpt lat="48.61179" lon="1.97408">
        <ele>107.2</ele>
        <time>2026-03-29T09:41:08Z</time>
      </trkpt>
      <trkpt lat="48.61177" lon="1.974">
        <ele>107.2</ele>
        <time>2026-03-29T09:41:09Z</time>
      </trkpt>
      <trkpt lat="48.61175" lon="1.97392">
        <ele>107.2</ele>
        <time>2026-03-29T09:41:10Z</time>
      </trkpt>
      <trkpt lat="48.61172" lon="1.97385">
        <ele>107.2</ele>
        <time>2026-03-29T09:41:11Z</time>
      </trkpt>
      <trkpt lat="48.61169" lon="1.97377">
        <ele>107.2</ele>
        <time>2026-03-29T09:41:12Z</time>
      </trkpt>
      <trkpt lat="48.61166" lon="1.97369">
        <ele>107.2</ele>
        <time>2026-03-29T09:41:13Z</time>
      </trkpt>
      <trkpt lat="48.61163" lon="1.97362">
        <ele>107.2</ele>
        <time>2026-03-29T09:41:14Z</time>
      </trkpt>
      <trkpt lat="48.6116" lon="1.97354">
        <ele>107.2</ele>
        <time>2026-03-29T09:41:15Z</time>
      </trkpt>
      <trkpt lat="48.61157" lon="1.97347">
        <ele>107.2</ele>
        <time>2026-03-29T09:41:16Z</time>
      </trkpt>
      <trkpt lat="48.61154" lon="1.97339">
        <ele>107.2</ele>
        <time>2026-03-29T09:41:17Z</time>
      </trkpt>
      <trkpt lat="48.61152" lon="1.97331">
        <ele>107.8</ele>
        <time>2026-03-29T09:41:18Z</time>
      </trkpt>
      <trkpt lat="48.6115" lon="1.97323">
        <ele>107.8</ele>
        <time>2026-03-29T09:41:19Z</time>
      </trkpt>
      <trkpt lat="48.61149" lon="1.97315">
        <ele>107.8</ele>
        <time>2026-03-29T09:41:20Z</time>
      </trkpt>
      <trkpt lat="48.61148" lon="1.97307">
        <ele>107.4</ele>
        <time>2026-03-29T09:41:21Z</time>
      </trkpt>
      <trkpt lat="48.61147" lon="1.97299">
        <ele>107.4</ele>
        <time>2026-03-29T09:41:22Z</time>
      </trkpt>
      <trkpt lat="48.61146" lon="1.97291">
        <ele>107.4</ele>
        <time>2026-03-29T09:41:23Z</time>
      </trkpt>
      <trkpt lat="48.61145" lon="1.97282">
        <ele>107.4</ele>
        <time>2026-03-29T09:41:24Z</time>
      </trkpt>
      <trkpt lat="48.61144" lon="1.97274">
        <ele>107.8</ele>
        <time>2026-03-29T09:41:25Z</time>
      </trkpt>
      <trkpt lat="48.61142" lon="1.97266">
        <ele>108.2</ele>
        <time>2026-03-29T09:41:26Z</time>
      </trkpt>
      <trkpt lat="48.6114" lon="1.97258">
        <ele>108.2</ele>
        <time>2026-03-29T09:41:27Z</time>
      </trkpt>
      <trkpt lat="48.61138" lon="1.97251">
        <ele>108.2</ele>
        <time>2026-03-29T09:41:28Z</time>
      </trkpt>
      <trkpt lat="48.61136" lon="1.97243">
        <ele>108.2</ele>
        <time>2026-03-29T09:41:29Z</time>
      </trkpt>
      <trkpt lat="48.61134" lon="1.97236">
        <ele>108.6</ele>
        <time>2026-03-29T09:41:30Z</time>
      </trkpt>
      <trkpt lat="48.61132" lon="1.97229">
        <ele>108.6</ele>
        <time>2026-03-29T09:41:31Z</time>
      </trkpt>
      <trkpt lat="48.61129" lon="1.97222">
        <ele>108.6</ele>
        <time>2026-03-29T09:41:32Z</time>
      </trkpt>
      <trkpt lat="48.61126" lon="1.97215">
        <ele>108.6</ele>
        <time>2026-03-29T09:41:33Z</time>
      </trkpt>
      <trkpt lat="48.61123" lon="1.97208">
        <ele>108.6</ele>
        <time>2026-03-29T09:41:34Z</time>
      </trkpt>
      <trkpt lat="48.61119" lon="1.97202">
        <ele>108.6</ele>
        <time>2026-03-29T09:41:35Z</time>
      </trkpt>
      <trkpt lat="48.61116" lon="1.97196">
        <ele>108.6</ele>
        <time>2026-03-29T09:41:36Z</time>
      </trkpt>
      <trkpt lat="48.61113" lon="1.9719">
        <ele>108.6</ele>
        <time>2026-03-29T09:41:37Z</time>
      </trkpt>
      <trkpt lat="48.6111" lon="1.97184">
        <ele>109.2</ele>
        <time>2026-03-29T09:41:38Z</time>
      </trkpt>
      <trkpt lat="48.61108" lon="1.97179">
        <ele>109.2</ele>
        <time>2026-03-29T09:41:39Z</time>
      </trkpt>
      <trkpt lat="48.61105" lon="1.97173">
        <ele>109.2</ele>
        <time>2026-03-29T09:41:40Z</time>
      </trkpt>
      <trkpt lat="48.61103" lon="1.97167">
        <ele>108.8</ele>
        <time>2026-03-29T09:41:41Z</time>
      </trkpt>
      <trkpt lat="48.61102" lon="1.97161">
        <ele>109</ele>
        <time>2026-03-29T09:41:42Z</time>
      </trkpt>
      <trkpt lat="48.61101" lon="1.97155">
        <ele>109</ele>
        <time>2026-03-29T09:41:43Z</time>
      </trkpt>
      <trkpt lat="48.61099" lon="1.97151">
        <ele>109</ele>
        <time>2026-03-29T09:41:44Z</time>
      </trkpt>
      <trkpt lat="48.61096" lon="1.97148">
        <ele>109</ele>
        <time>2026-03-29T09:41:45Z</time>
      </trkpt>
      <trkpt lat="48.61092" lon="1.97147">
        <ele>108.8</ele>
        <time>2026-03-29T09:41:46Z</time>
      </trkpt>
      <trkpt lat="48.61088" lon="1.97147">
        <ele>108.8</ele>
        <time>2026-03-29T09:41:47Z</time>
      </trkpt>
      <trkpt lat="48.61084" lon="1.97149">
        <ele>108.8</ele>
        <time>2026-03-29T09:41:48Z</time>
      </trkpt>
      <trkpt lat="48.61081" lon="1.9715">
        <ele>108.8</ele>
        <time>2026-03-29T09:41:49Z</time>
      </trkpt>
      <trkpt lat="48.61077" lon="1.97152">
        <ele>108.8</ele>
        <time>2026-03-29T09:41:50Z</time>
      </trkpt>
      <trkpt lat="48.61073" lon="1.97153">
        <ele>108.8</ele>
        <time>2026-03-29T09:41:51Z</time>
      </trkpt>
      <trkpt lat="48.61069" lon="1.97155">
        <ele>108.8</ele>
        <time>2026-03-29T09:41:52Z</time>
      </trkpt>
      <trkpt lat="48.61066" lon="1.97156">
        <ele>108.2</ele>
        <time>2026-03-29T09:41:53Z</time>
      </trkpt>
      <trkpt lat="48.61062" lon="1.97157">
        <ele>108.6</ele>
        <time>2026-03-29T09:41:54Z</time>
      </trkpt>
      <trkpt lat="48.61058" lon="1.97159">
        <ele>108.6</ele>
        <time>2026-03-29T09:41:55Z</time>
      </trkpt>
      <trkpt lat="48.61054" lon="1.97161">
        <ele>108.6</ele>
        <time>2026-03-29T09:41:56Z</time>
      </trkpt>
      <trkpt lat="48.6105" lon="1.97162">
        <ele>108.6</ele>
        <time>2026-03-29T09:41:57Z</time>
      </trkpt>
      <trkpt lat="48.61046" lon="1.97164">
        <ele>109</ele>
        <time>2026-03-29T09:41:58Z</time>
      </trkpt>
      <trkpt lat="48.61041" lon="1.97166">
        <ele>109</ele>
        <time>2026-03-29T09:41:59Z</time>
      </trkpt>
      <trkpt lat="48.61037" lon="1.97167">
        <ele>109</ele>
        <time>2026-03-29T09:42:00Z</time>
      </trkpt>
      <trkpt lat="48.61032" lon="1.97168">
        <ele>109</ele>
        <time>2026-03-29T09:42:01Z</time>
      </trkpt>
      <trkpt lat="48.61028" lon="1.9717">
        <ele>108.8</ele>
        <time>2026-03-29T09:42:02Z</time>
      </trkpt>
      <trkpt lat="48.61024" lon="1.97171">
        <ele>108.8</ele>
        <time>2026-03-29T09:42:03Z</time>
      </trkpt>
      <trkpt lat="48.6102" lon="1.97172">
        <ele>108.8</ele>
        <time>2026-03-29T09:42:04Z</time>
      </trkpt>
      <trkpt lat="48.61016" lon="1.97174">
        <ele>109</ele>
        <time>2026-03-29T09:42:05Z</time>
      </trkpt>
      <trkpt lat="48.61014" lon="1.97175">
        <ele>108.8</ele>
        <time>2026-03-29T09:42:06Z</time>
      </trkpt>
      <trkpt lat="48.61012" lon="1.97175">
        <ele>108.8</ele>
        <time>2026-03-29T09:42:07Z</time>
      </trkpt>
      <trkpt lat="48.6101" lon="1.97175">
        <ele>108.8</ele>
        <time>2026-03-29T09:42:08Z</time>
      </trkpt>
      <trkpt lat="48.61008" lon="1.97177">
        <ele>108.8</ele>
        <time>2026-03-29T09:42:09Z</time>
      </trkpt>
      <trkpt lat="48.61007" lon="1.97181">
        <ele>109</ele>
        <time>2026-03-29T09:42:10Z</time>
      </trkpt>
      <trkpt lat="48.61006" lon="1.97185">
        <ele>109</ele>
        <time>2026-03-29T09:42:11Z</time>
      </trkpt>
      <trkpt lat="48.61003" lon="1.97188">
        <ele>109</ele>
        <time>2026-03-29T09:42:12Z</time>
      </trkpt>
      <trkpt lat="48.61001" lon="1.97192">
        <ele>109.2</ele>
        <time>2026-03-29T09:42:13Z</time>
      </trkpt>
      <trkpt lat="48.60998" lon="1.97195">
        <ele>109.2</ele>
        <time>2026-03-29T09:42:14Z</time>
      </trkpt>
      <trkpt lat="48.60995" lon="1.97198">
        <ele>109.2</ele>
        <time>2026-03-29T09:42:15Z</time>
      </trkpt>
      <trkpt lat="48.60991" lon="1.97201">
        <ele>109.2</ele>
        <time>2026-03-29T09:42:16Z</time>
      </trkpt>
      <trkpt lat="48.60987" lon="1.97204">
        <ele>109.6</ele>
        <time>2026-03-29T09:42:17Z</time>
      </trkpt>
      <trkpt lat="48.60984" lon="1.97207">
        <ele>109.6</ele>
        <time>2026-03-29T09:42:18Z</time>
      </trkpt>
      <trkpt lat="48.60981" lon="1.97211">
        <ele>109.6</ele>
        <time>2026-03-29T09:42:19Z</time>
      </trkpt>
      <trkpt lat="48.60977" lon="1.97215">
        <ele>109.6</ele>
        <time>2026-03-29T09:42:20Z</time>
      </trkpt>
      <trkpt lat="48.60974" lon="1.97218">
        <ele>109.6</ele>
        <time>2026-03-29T09:42:21Z</time>
      </trkpt>
      <trkpt lat="48.6097" lon="1.97222">
        <ele>110</ele>
        <time>2026-03-29T09:42:22Z</time>
      </trkpt>
      <trkpt lat="48.60966" lon="1.97225">
        <ele>110</ele>
        <time>2026-03-29T09:42:23Z</time>
      </trkpt>
      <trkpt lat="48.60962" lon="1.97229">
        <ele>110</ele>
        <time>2026-03-29T09:42:24Z</time>
      </trkpt>
      <trkpt lat="48.60958" lon="1.97232">
        <ele>110</ele>
        <time>2026-03-29T09:42:25Z</time>
      </trkpt>
      <trkpt lat="48.60954" lon="1.97236">
        <ele>110</ele>
        <time>2026-03-29T09:42:26Z</time>
      </trkpt>
      <trkpt lat="48.6095" lon="1.97239">
        <ele>110</ele>
        <time>2026-03-29T09:42:27Z</time>
      </trkpt>
      <trkpt lat="48.60945" lon="1.97243">
        <ele>110</ele>
        <time>2026-03-29T09:42:28Z</time>
      </trkpt>
      <trkpt lat="48.60941" lon="1.97246">
        <ele>110</ele>
        <time>2026-03-29T09:42:29Z</time>
      </trkpt>
      <trkpt lat="48.60937" lon="1.97249">
        <ele>110</ele>
        <time>2026-03-29T09:42:30Z</time>
      </trkpt>
      <trkpt lat="48.60933" lon="1.97252">
        <ele>110</ele>
        <time>2026-03-29T09:42:31Z</time>
      </trkpt>
      <trkpt lat="48.60928" lon="1.97256">
        <ele>110</ele>
        <time>2026-03-29T09:42:32Z</time>
      </trkpt>
      <trkpt lat="48.60924" lon="1.97259">
        <ele>110.4</ele>
        <time>2026-03-29T09:42:33Z</time>
      </trkpt>
      <trkpt lat="48.6092" lon="1.97263">
        <ele>110.4</ele>
        <time>2026-03-29T09:42:34Z</time>
      </trkpt>
      <trkpt lat="48.60916" lon="1.97267">
        <ele>110.4</ele>
        <time>2026-03-29T09:42:35Z</time>
      </trkpt>
      <trkpt lat="48.60912" lon="1.97271">
        <ele>110.4</ele>
        <time>2026-03-29T09:42:36Z</time>
      </trkpt>
      <trkpt lat="48.60908" lon="1.97276">
        <ele>110.4</ele>
        <time>2026-03-29T09:42:37Z</time>
      </trkpt>
      <trkpt lat="48.60904" lon="1.97281">
        <ele>110.4</ele>
        <time>2026-03-29T09:42:38Z</time>
      </trkpt>
      <trkpt lat="48.609" lon="1.97286">
        <ele>110.4</ele>
        <time>2026-03-29T09:42:39Z</time>
      </trkpt>
      <trkpt lat="48.60897" lon="1.97292">
        <ele>110.4</ele>
        <time>2026-03-29T09:42:40Z</time>
      </trkpt>
      <trkpt lat="48.60893" lon="1.97298">
        <ele>110.4</ele>
        <time>2026-03-29T09:42:41Z</time>
      </trkpt>
      <trkpt lat="48.6089" lon="1.97303">
        <ele>110.6</ele>
        <time>2026-03-29T09:42:42Z</time>
      </trkpt>
      <trkpt lat="48.60887" lon="1.97309">
        <ele>110.6</ele>
        <time>2026-03-29T09:42:43Z</time>
      </trkpt>
      <trkpt lat="48.60883" lon="1.97315">
        <ele>110.6</ele>
        <time>2026-03-29T09:42:44Z</time>
      </trkpt>
      <trkpt lat="48.6088" lon="1.9732">
        <ele>110.6</ele>
        <time>2026-03-29T09:42:45Z</time>
      </trkpt>
      <trkpt lat="48.60876" lon="1.97325">
        <ele>110.4</ele>
        <time>2026-03-29T09:42:46Z</time>
      </trkpt>
      <trkpt lat="48.60872" lon="1.97331">
        <ele>110.4</ele>
        <time>2026-03-29T09:42:47Z</time>
      </trkpt>
      <trkpt lat="48.60869" lon="1.97336">
        <ele>110.4</ele>
        <time>2026-03-29T09:42:48Z</time>
      </trkpt>
      <trkpt lat="48.60865" lon="1.97342">
        <ele>111</ele>
        <time>2026-03-29T09:42:49Z</time>
      </trkpt>
      <trkpt lat="48.60862" lon="1.97348">
        <ele>110.2</ele>
        <time>2026-03-29T09:42:50Z</time>
      </trkpt>
      <trkpt lat="48.60858" lon="1.97353">
        <ele>110.2</ele>
        <time>2026-03-29T09:42:51Z</time>
      </trkpt>
      <trkpt lat="48.60854" lon="1.97358">
        <ele>110.2</ele>
        <time>2026-03-29T09:42:52Z</time>
      </trkpt>
      <trkpt lat="48.6085" lon="1.97363">
        <ele>111.2</ele>
        <time>2026-03-29T09:42:53Z</time>
      </trkpt>
      <trkpt lat="48.60846" lon="1.97368">
        <ele>111.6</ele>
        <time>2026-03-29T09:42:54Z</time>
      </trkpt>
      <trkpt lat="48.60842" lon="1.97372">
        <ele>111.6</ele>
        <time>2026-03-29T09:42:55Z</time>
      </trkpt>
      <trkpt lat="48.60838" lon="1.97377">
        <ele>111.6</ele>
        <time>2026-03-29T09:42:56Z</time>
      </trkpt>
      <trkpt lat="48.60835" lon="1.97381">
        <ele>111.6</ele>
        <time>2026-03-29T09:42:57Z</time>
      </trkpt>
      <trkpt lat="48.60831" lon="1.97386">
        <ele>111.2</ele>
        <time>2026-03-29T09:42:58Z</time>
      </trkpt>
      <trkpt lat="48.60827" lon="1.9739">
        <ele>111.2</ele>
        <time>2026-03-29T09:42:59Z</time>
      </trkpt>
      <trkpt lat="48.60823" lon="1.97394">
        <ele>111.2</ele>
        <time>2026-03-29T09:43:00Z</time>
      </trkpt>
      <trkpt lat="48.6082" lon="1.97399">
        <ele>111.6</ele>
        <time>2026-03-29T09:43:01Z</time>
      </trkpt>
      <trkpt lat="48.60817" lon="1.97404">
        <ele>111.4</ele>
        <time>2026-03-29T09:43:02Z</time>
      </trkpt>
      <trkpt lat="48.60813" lon="1.97407">
        <ele>111.4</ele>
        <time>2026-03-29T09:43:03Z</time>
      </trkpt>
      <trkpt lat="48.60809" lon="1.97412">
        <ele>111.4</ele>
        <time>2026-03-29T09:43:04Z</time>
      </trkpt>
      <trkpt lat="48.60806" lon="1.97416">
        <ele>111.4</ele>
        <time>2026-03-29T09:43:05Z</time>
      </trkpt>
      <trkpt lat="48.60802" lon="1.9742">
        <ele>112.2</ele>
        <time>2026-03-29T09:43:06Z</time>
      </trkpt>
      <trkpt lat="48.60799" lon="1.97424">
        <ele>112.2</ele>
        <time>2026-03-29T09:43:07Z</time>
      </trkpt>
      <trkpt lat="48.60795" lon="1.97428">
        <ele>112.2</ele>
        <time>2026-03-29T09:43:08Z</time>
      </trkpt>
      <trkpt lat="48.60793" lon="1.97433">
        <ele>112</ele>
        <time>2026-03-29T09:43:09Z</time>
      </trkpt>
      <trkpt lat="48.60791" lon="1.97438">
        <ele>112.4</ele>
        <time>2026-03-29T09:43:10Z</time>
      </trkpt>
      <trkpt lat="48.6079" lon="1.97444">
        <ele>112.4</ele>
        <time>2026-03-29T09:43:11Z</time>
      </trkpt>
      <trkpt lat="48.6079" lon="1.97449">
        <ele>112.4</ele>
        <time>2026-03-29T09:43:12Z</time>
      </trkpt>
      <trkpt lat="48.60791" lon="1.97455">
        <ele>112.4</ele>
        <time>2026-03-29T09:43:13Z</time>
      </trkpt>
      <trkpt lat="48.60792" lon="1.97461">
        <ele>112.4</ele>
        <time>2026-03-29T09:43:14Z</time>
      </trkpt>
      <trkpt lat="48.60793" lon="1.97468">
        <ele>112.4</ele>
        <time>2026-03-29T09:43:15Z</time>
      </trkpt>
      <trkpt lat="48.60794" lon="1.97475">
        <ele>112.4</ele>
        <time>2026-03-29T09:43:16Z</time>
      </trkpt>
      <trkpt lat="48.60793" lon="1.97481">
        <ele>112.4</ele>
        <time>2026-03-29T09:43:17Z</time>
      </trkpt>
      <trkpt lat="48.60794" lon="1.97488">
        <ele>111</ele>
        <time>2026-03-29T09:43:18Z</time>
      </trkpt>
      <trkpt lat="48.60796" lon="1.97494">
        <ele>111</ele>
        <time>2026-03-29T09:43:19Z</time>
      </trkpt>
      <trkpt lat="48.60798" lon="1.97499">
        <ele>111</ele>
        <time>2026-03-29T09:43:20Z</time>
      </trkpt>
      <trkpt lat="48.60798" lon="1.97504">
        <ele>111.4</ele>
        <time>2026-03-29T09:43:21Z</time>
      </trkpt>
      <trkpt lat="48.60801" lon="1.9751">
        <ele>111.6</ele>
        <time>2026-03-29T09:43:22Z</time>
      </trkpt>
      <trkpt lat="48.60803" lon="1.97516">
        <ele>111.6</ele>
        <time>2026-03-29T09:43:23Z</time>
      </trkpt>
      <trkpt lat="48.60805" lon="1.97524">
        <ele>111.6</ele>
        <time>2026-03-29T09:43:24Z</time>
      </trkpt>
      <trkpt lat="48.60807" lon="1.9753">
        <ele>111.6</ele>
        <time>2026-03-29T09:43:25Z</time>
      </trkpt>
      <trkpt lat="48.6081" lon="1.97537">
        <ele>111.6</ele>
        <time>2026-03-29T09:43:26Z</time>
      </trkpt>
      <trkpt lat="48.60812" lon="1.97543">
        <ele>111.6</ele>
        <time>2026-03-29T09:43:27Z</time>
      </trkpt>
      <trkpt lat="48.60814" lon="1.97548">
        <ele>111.6</ele>
        <time>2026-03-29T09:43:28Z</time>
      </trkpt>
      <trkpt lat="48.60816" lon="1.97554">
        <ele>111.6</ele>
        <time>2026-03-29T09:43:29Z</time>
      </trkpt>
      <trkpt lat="48.60819" lon="1.97561">
        <ele>111.4</ele>
        <time>2026-03-29T09:43:30Z</time>
      </trkpt>
      <trkpt lat="48.6082" lon="1.97567">
        <ele>111.4</ele>
        <time>2026-03-29T09:43:31Z</time>
      </trkpt>
      <trkpt lat="48.60822" lon="1.97575">
        <ele>111.4</ele>
        <time>2026-03-29T09:43:32Z</time>
      </trkpt>
      <trkpt lat="48.60823" lon="1.97581">
        <ele>111.4</ele>
        <time>2026-03-29T09:43:33Z</time>
      </trkpt>
      <trkpt lat="48.60825" lon="1.97588">
        <ele>111.6</ele>
        <time>2026-03-29T09:43:34Z</time>
      </trkpt>
      <trkpt lat="48.60827" lon="1.97596">
        <ele>111.6</ele>
        <time>2026-03-29T09:43:35Z</time>
      </trkpt>
      <trkpt lat="48.60828" lon="1.97603">
        <ele>111.6</ele>
        <time>2026-03-29T09:43:36Z</time>
      </trkpt>
      <trkpt lat="48.60829" lon="1.9761">
        <ele>111.4</ele>
        <time>2026-03-29T09:43:37Z</time>
      </trkpt>
      <trkpt lat="48.6083" lon="1.97618">
        <ele>111.4</ele>
        <time>2026-03-29T09:43:38Z</time>
      </trkpt>
      <trkpt lat="48.60831" lon="1.97624">
        <ele>111.4</ele>
        <time>2026-03-29T09:43:39Z</time>
      </trkpt>
      <trkpt lat="48.60832" lon="1.97631">
        <ele>111.4</ele>
        <time>2026-03-29T09:43:40Z</time>
      </trkpt>
      <trkpt lat="48.60833" lon="1.97639">
        <ele>111</ele>
        <time>2026-03-29T09:43:41Z</time>
      </trkpt>
      <trkpt lat="48.60834" lon="1.97646">
        <ele>111</ele>
        <time>2026-03-29T09:43:42Z</time>
      </trkpt>
      <trkpt lat="48.60835" lon="1.97654">
        <ele>111</ele>
        <time>2026-03-29T09:43:43Z</time>
      </trkpt>
      <trkpt lat="48.60836" lon="1.97663">
        <ele>111</ele>
        <time>2026-03-29T09:43:44Z</time>
      </trkpt>
      <trkpt lat="48.60836" lon="1.97671">
        <ele>111</ele>
        <time>2026-03-29T09:43:45Z</time>
      </trkpt>
      <trkpt lat="48.60837" lon="1.97679">
        <ele>111.2</ele>
        <time>2026-03-29T09:43:46Z</time>
      </trkpt>
      <trkpt lat="48.60837" lon="1.97687">
        <ele>111.2</ele>
        <time>2026-03-29T09:43:47Z</time>
      </trkpt>
      <trkpt lat="48.60837" lon="1.97693">
        <ele>111.2</ele>
        <time>2026-03-29T09:43:48Z</time>
      </trkpt>
      <trkpt lat="48.60836" lon="1.97701">
        <ele>110.6</ele>
        <time>2026-03-29T09:43:49Z</time>
      </trkpt>
      <trkpt lat="48.60836" lon="1.97707">
        <ele>110.4</ele>
        <time>2026-03-29T09:43:50Z</time>
      </trkpt>
      <trkpt lat="48.60837" lon="1.97713">
        <ele>110.4</ele>
        <time>2026-03-29T09:43:51Z</time>
      </trkpt>
      <trkpt lat="48.60836" lon="1.97721">
        <ele>110.4</ele>
        <time>2026-03-29T09:43:52Z</time>
      </trkpt>
      <trkpt lat="48.60836" lon="1.97727">
        <ele>109.8</ele>
        <time>2026-03-29T09:43:53Z</time>
      </trkpt>
      <trkpt lat="48.60834" lon="1.97733">
        <ele>110.8</ele>
        <time>2026-03-29T09:43:54Z</time>
      </trkpt>
      <trkpt lat="48.60834" lon="1.97741">
        <ele>110.8</ele>
        <time>2026-03-29T09:43:55Z</time>
      </trkpt>
      <trkpt lat="48.60833" lon="1.97749">
        <ele>110.8</ele>
        <time>2026-03-29T09:43:56Z</time>
      </trkpt>
      <trkpt lat="48.60834" lon="1.97756">
        <ele>109.8</ele>
        <time>2026-03-29T09:43:57Z</time>
      </trkpt>
      <trkpt lat="48.60833" lon="1.97764">
        <ele>109.6</ele>
        <time>2026-03-29T09:43:58Z</time>
      </trkpt>
      <trkpt lat="48.60832" lon="1.97772">
        <ele>109.6</ele>
        <time>2026-03-29T09:43:59Z</time>
      </trkpt>
      <trkpt lat="48.60832" lon="1.9778">
        <ele>109.6</ele>
        <time>2026-03-29T09:44:00Z</time>
      </trkpt>
      <trkpt lat="48.60832" lon="1.97788">
        <ele>109.6</ele>
        <time>2026-03-29T09:44:01Z</time>
      </trkpt>
      <trkpt lat="48.60831" lon="1.97795">
        <ele>109.2</ele>
        <time>2026-03-29T09:44:02Z</time>
      </trkpt>
      <trkpt lat="48.60831" lon="1.97801">
        <ele>109.2</ele>
        <time>2026-03-29T09:44:03Z</time>
      </trkpt>
      <trkpt lat="48.6083" lon="1.97808">
        <ele>109.2</ele>
        <time>2026-03-29T09:44:04Z</time>
      </trkpt>
      <trkpt lat="48.6083" lon="1.97816">
        <ele>109.2</ele>
        <time>2026-03-29T09:44:05Z</time>
      </trkpt>
      <trkpt lat="48.6083" lon="1.97822">
        <ele>109.2</ele>
        <time>2026-03-29T09:44:06Z</time>
      </trkpt>
      <trkpt lat="48.60829" lon="1.9783">
        <ele>109.2</ele>
        <time>2026-03-29T09:44:07Z</time>
      </trkpt>
      <trkpt lat="48.60829" lon="1.97837">
        <ele>109.2</ele>
        <time>2026-03-29T09:44:08Z</time>
      </trkpt>
      <trkpt lat="48.60829" lon="1.97843">
        <ele>109.2</ele>
        <time>2026-03-29T09:44:09Z</time>
      </trkpt>
      <trkpt lat="48.60829" lon="1.97849">
        <ele>109</ele>
        <time>2026-03-29T09:44:10Z</time>
      </trkpt>
      <trkpt lat="48.60829" lon="1.97855">
        <ele>109</ele>
        <time>2026-03-29T09:44:11Z</time>
      </trkpt>
      <trkpt lat="48.60828" lon="1.97862">
        <ele>109</ele>
        <time>2026-03-29T09:44:12Z</time>
      </trkpt>
      <trkpt lat="48.60826" lon="1.97868">
        <ele>109</ele>
        <time>2026-03-29T09:44:13Z</time>
      </trkpt>
      <trkpt lat="48.60826" lon="1.97874">
        <ele>109.2</ele>
        <time>2026-03-29T09:44:14Z</time>
      </trkpt>
      <trkpt lat="48.60826" lon="1.9788">
        <ele>109.2</ele>
        <time>2026-03-29T09:44:15Z</time>
      </trkpt>
      <trkpt lat="48.60826" lon="1.97886">
        <ele>109.2</ele>
        <time>2026-03-29T09:44:16Z</time>
      </trkpt>
      <trkpt lat="48.60825" lon="1.97893">
        <ele>109.2</ele>
        <time>2026-03-29T09:44:17Z</time>
      </trkpt>
      <trkpt lat="48.60825" lon="1.979">
        <ele>109.4</ele>
        <time>2026-03-29T09:44:18Z</time>
      </trkpt>
      <trkpt lat="48.60823" lon="1.97905">
        <ele>109.4</ele>
        <time>2026-03-29T09:44:19Z</time>
      </trkpt>
      <trkpt lat="48.60823" lon="1.97912">
        <ele>109.4</ele>
        <time>2026-03-29T09:44:20Z</time>
      </trkpt>
      <trkpt lat="48.60823" lon="1.9792">
        <ele>109.8</ele>
        <time>2026-03-29T09:44:21Z</time>
      </trkpt>
      <trkpt lat="48.60822" lon="1.97925">
        <ele>110</ele>
        <time>2026-03-29T09:44:22Z</time>
      </trkpt>
      <trkpt lat="48.6082" lon="1.97932">
        <ele>110</ele>
        <time>2026-03-29T09:44:23Z</time>
      </trkpt>
      <trkpt lat="48.60819" lon="1.97938">
        <ele>110</ele>
        <time>2026-03-29T09:44:24Z</time>
      </trkpt>
      <trkpt lat="48.60819" lon="1.97945">
        <ele>110</ele>
        <time>2026-03-29T09:44:25Z</time>
      </trkpt>
      <trkpt lat="48.60819" lon="1.97951">
        <ele>109.8</ele>
        <time>2026-03-29T09:44:26Z</time>
      </trkpt>
      <trkpt lat="48.60818" lon="1.97957">
        <ele>109.8</ele>
        <time>2026-03-29T09:44:27Z</time>
      </trkpt>
      <trkpt lat="48.60817" lon="1.97963">
        <ele>109.8</ele>
        <time>2026-03-29T09:44:28Z</time>
      </trkpt>
      <trkpt lat="48.60816" lon="1.97969">
        <ele>110.4</ele>
        <time>2026-03-29T09:44:29Z</time>
      </trkpt>
      <trkpt lat="48.60815" lon="1.97976">
        <ele>110.2</ele>
        <time>2026-03-29T09:44:30Z</time>
      </trkpt>
      <trkpt lat="48.60813" lon="1.97984">
        <ele>110.2</ele>
        <time>2026-03-29T09:44:31Z</time>
      </trkpt>
      <trkpt lat="48.60812" lon="1.97991">
        <ele>110.2</ele>
        <time>2026-03-29T09:44:32Z</time>
      </trkpt>
      <trkpt lat="48.6081" lon="1.97998">
        <ele>110</ele>
        <time>2026-03-29T09:44:33Z</time>
      </trkpt>
      <trkpt lat="48.60808" lon="1.98005">
        <ele>109.4</ele>
        <time>2026-03-29T09:44:34Z</time>
      </trkpt>
      <trkpt lat="48.60807" lon="1.98011">
        <ele>109.4</ele>
        <time>2026-03-29T09:44:35Z</time>
      </trkpt>
      <trkpt lat="48.60805" lon="1.98018">
        <ele>109.4</ele>
        <time>2026-03-29T09:44:36Z</time>
      </trkpt>
      <trkpt lat="48.60804" lon="1.98024">
        <ele>109.4</ele>
        <time>2026-03-29T09:44:37Z</time>
      </trkpt>
      <trkpt lat="48.60803" lon="1.98031">
        <ele>109</ele>
        <time>2026-03-29T09:44:38Z</time>
      </trkpt>
      <trkpt lat="48.60802" lon="1.98038">
        <ele>109</ele>
        <time>2026-03-29T09:44:39Z</time>
      </trkpt>
      <trkpt lat="48.60799" lon="1.98046">
        <ele>109</ele>
        <time>2026-03-29T09:44:40Z</time>
      </trkpt>
      <trkpt lat="48.60798" lon="1.98052">
        <ele>110</ele>
        <time>2026-03-29T09:44:41Z</time>
      </trkpt>
      <trkpt lat="48.60797" lon="1.98059">
        <ele>109.6</ele>
        <time>2026-03-29T09:44:42Z</time>
      </trkpt>
      <trkpt lat="48.60795" lon="1.98065">
        <ele>109.6</ele>
        <time>2026-03-29T09:44:43Z</time>
      </trkpt>
      <trkpt lat="48.60793" lon="1.98071">
        <ele>109.6</ele>
        <time>2026-03-29T09:44:44Z</time>
      </trkpt>
      <trkpt lat="48.60792" lon="1.98077">
        <ele>109.6</ele>
        <time>2026-03-29T09:44:45Z</time>
      </trkpt>
      <trkpt lat="48.6079" lon="1.98084">
        <ele>109.2</ele>
        <time>2026-03-29T09:44:46Z</time>
      </trkpt>
      <trkpt lat="48.60789" lon="1.9809">
        <ele>109.2</ele>
        <time>2026-03-29T09:44:47Z</time>
      </trkpt>
      <trkpt lat="48.60788" lon="1.98097">
        <ele>109.2</ele>
        <time>2026-03-29T09:44:48Z</time>
      </trkpt>
      <trkpt lat="48.60786" lon="1.98103">
        <ele>109.6</ele>
        <time>2026-03-29T09:44:49Z</time>
      </trkpt>
      <trkpt lat="48.60785" lon="1.9811">
        <ele>109.6</ele>
        <time>2026-03-29T09:44:50Z</time>
      </trkpt>
      <trkpt lat="48.60783" lon="1.98117">
        <ele>109.6</ele>
        <time>2026-03-29T09:44:51Z</time>
      </trkpt>
      <trkpt lat="48.60783" lon="1.98124">
        <ele>109.6</ele>
        <time>2026-03-29T09:44:52Z</time>
      </trkpt>
      <trkpt lat="48.60781" lon="1.98132">
        <ele>109.6</ele>
        <time>2026-03-29T09:44:53Z</time>
      </trkpt>
      <trkpt lat="48.6078" lon="1.98138">
        <ele>109.2</ele>
        <time>2026-03-29T09:44:54Z</time>
      </trkpt>
      <trkpt lat="48.60778" lon="1.98145">
        <ele>109.2</ele>
        <time>2026-03-29T09:44:55Z</time>
      </trkpt>
      <trkpt lat="48.60778" lon="1.98151">
        <ele>109.2</ele>
        <time>2026-03-29T09:44:56Z</time>
      </trkpt>
      <trkpt lat="48.60776" lon="1.98159">
        <ele>109.2</ele>
        <time>2026-03-29T09:44:57Z</time>
      </trkpt>
      <trkpt lat="48.60774" lon="1.98167">
        <ele>109.2</ele>
        <time>2026-03-29T09:44:58Z</time>
      </trkpt>
      <trkpt lat="48.60772" lon="1.98174">
        <ele>109.2</ele>
        <time>2026-03-29T09:44:59Z</time>
      </trkpt>
      <trkpt lat="48.6077" lon="1.98181">
        <ele>109.2</ele>
        <time>2026-03-29T09:45:00Z</time>
      </trkpt>
      <trkpt lat="48.60767" lon="1.98186">
        <ele>109.2</ele>
        <time>2026-03-29T09:45:01Z</time>
      </trkpt>
      <trkpt lat="48.60764" lon="1.98189">
        <ele>109.6</ele>
        <time>2026-03-29T09:45:02Z</time>
      </trkpt>
      <trkpt lat="48.6076" lon="1.98193">
        <ele>109.6</ele>
        <time>2026-03-29T09:45:03Z</time>
      </trkpt>
      <trkpt lat="48.60758" lon="1.98196">
        <ele>109.6</ele>
        <time>2026-03-29T09:45:04Z</time>
      </trkpt>
      <trkpt lat="48.60756" lon="1.98201">
        <ele>109.6</ele>
        <time>2026-03-29T09:45:05Z</time>
      </trkpt>
      <trkpt lat="48.60754" lon="1.98206">
        <ele>109.4</ele>
        <time>2026-03-29T09:45:06Z</time>
      </trkpt>
      <trkpt lat="48.60753" lon="1.98212">
        <ele>109.4</ele>
        <time>2026-03-29T09:45:07Z</time>
      </trkpt>
      <trkpt lat="48.60751" lon="1.98217">
        <ele>109.4</ele>
        <time>2026-03-29T09:45:08Z</time>
      </trkpt>
      <trkpt lat="48.60749" lon="1.98223">
        <ele>109.6</ele>
        <time>2026-03-29T09:45:09Z</time>
      </trkpt>
      <trkpt lat="48.60747" lon="1.98229">
        <ele>108.8</ele>
        <time>2026-03-29T09:45:10Z</time>
      </trkpt>
      <trkpt lat="48.60745" lon="1.98234">
        <ele>108.8</ele>
        <time>2026-03-29T09:45:11Z</time>
      </trkpt>
      <trkpt lat="48.60742" lon="1.98239">
        <ele>108.8</ele>
        <time>2026-03-29T09:45:12Z</time>
      </trkpt>
      <trkpt lat="48.60738" lon="1.98245">
        <ele>109</ele>
        <time>2026-03-29T09:45:13Z</time>
      </trkpt>
      <trkpt lat="48.60733" lon="1.98247">
        <ele>108.8</ele>
        <time>2026-03-29T09:45:14Z</time>
      </trkpt>
      <trkpt lat="48.60728" lon="1.9825">
        <ele>108.8</ele>
        <time>2026-03-29T09:45:15Z</time>
      </trkpt>
      <trkpt lat="48.60724" lon="1.98253">
        <ele>108.8</ele>
        <time>2026-03-29T09:45:16Z</time>
      </trkpt>
      <trkpt lat="48.60719" lon="1.98256">
        <ele>108.8</ele>
        <time>2026-03-29T09:45:17Z</time>
      </trkpt>
      <trkpt lat="48.60715" lon="1.98259">
        <ele>108.6</ele>
        <time>2026-03-29T09:45:18Z</time>
      </trkpt>
      <trkpt lat="48.60713" lon="1.98264">
        <ele>108.6</ele>
        <time>2026-03-29T09:45:19Z</time>
      </trkpt>
      <trkpt lat="48.6071" lon="1.98269">
        <ele>108.6</ele>
        <time>2026-03-29T09:45:20Z</time>
      </trkpt>
      <trkpt lat="48.60706" lon="1.98274">
        <ele>108.6</ele>
        <time>2026-03-29T09:45:21Z</time>
      </trkpt>
      <trkpt lat="48.60701" lon="1.98276">
        <ele>108.6</ele>
        <time>2026-03-29T09:45:22Z</time>
      </trkpt>
      <trkpt lat="48.60697" lon="1.98277">
        <ele>108.6</ele>
        <time>2026-03-29T09:45:23Z</time>
      </trkpt>
      <trkpt lat="48.60693" lon="1.9828">
        <ele>108.6</ele>
        <time>2026-03-29T09:45:24Z</time>
      </trkpt>
      <trkpt lat="48.60688" lon="1.98282">
        <ele>108.6</ele>
        <time>2026-03-29T09:45:25Z</time>
      </trkpt>
      <trkpt lat="48.60683" lon="1.98286">
        <ele>108.6</ele>
        <time>2026-03-29T09:45:26Z</time>
      </trkpt>
      <trkpt lat="48.60678" lon="1.98289">
        <ele>108.6</ele>
        <time>2026-03-29T09:45:27Z</time>
      </trkpt>
      <trkpt lat="48.60674" lon="1.9829">
        <ele>108.6</ele>
        <time>2026-03-29T09:45:28Z</time>
      </trkpt>
      <trkpt lat="48.60669" lon="1.98294">
        <ele>108.6</ele>
        <time>2026-03-29T09:45:29Z</time>
      </trkpt>
      <trkpt lat="48.60665" lon="1.98296">
        <ele>109</ele>
        <time>2026-03-29T09:45:30Z</time>
      </trkpt>
      <trkpt lat="48.6066" lon="1.98298">
        <ele>109</ele>
        <time>2026-03-29T09:45:31Z</time>
      </trkpt>
      <trkpt lat="48.60655" lon="1.983">
        <ele>109</ele>
        <time>2026-03-29T09:45:32Z</time>
      </trkpt>
      <trkpt lat="48.6065" lon="1.98303">
        <ele>109</ele>
        <time>2026-03-29T09:45:33Z</time>
      </trkpt>
      <trkpt lat="48.60646" lon="1.98305">
        <ele>108.8</ele>
        <time>2026-03-29T09:45:34Z</time>
      </trkpt>
      <trkpt lat="48.60641" lon="1.98308">
        <ele>108.8</ele>
        <time>2026-03-29T09:45:35Z</time>
      </trkpt>
      <trkpt lat="48.60637" lon="1.9831">
        <ele>108.8</ele>
        <time>2026-03-29T09:45:36Z</time>
      </trkpt>
      <trkpt lat="48.60632" lon="1.98311">
        <ele>109</ele>
        <time>2026-03-29T09:45:37Z</time>
      </trkpt>
      <trkpt lat="48.60628" lon="1.98313">
        <ele>109.2</ele>
        <time>2026-03-29T09:45:38Z</time>
      </trkpt>
      <trkpt lat="48.60623" lon="1.98316">
        <ele>109.2</ele>
        <time>2026-03-29T09:45:39Z</time>
      </trkpt>
      <trkpt lat="48.60619" lon="1.98318">
        <ele>109.2</ele>
        <time>2026-03-29T09:45:40Z</time>
      </trkpt>
      <trkpt lat="48.60614" lon="1.98321">
        <ele>109.6</ele>
        <time>2026-03-29T09:45:41Z</time>
      </trkpt>
      <trkpt lat="48.6061" lon="1.98323">
        <ele>109.8</ele>
        <time>2026-03-29T09:45:42Z</time>
      </trkpt>
      <trkpt lat="48.60606" lon="1.98326">
        <ele>109.8</ele>
        <time>2026-03-29T09:45:43Z</time>
      </trkpt>
      <trkpt lat="48.60602" lon="1.98327">
        <ele>109.8</ele>
        <time>2026-03-29T09:45:44Z</time>
      </trkpt>
      <trkpt lat="48.60599" lon="1.98328">
        <ele>110.2</ele>
        <time>2026-03-29T09:45:45Z</time>
      </trkpt>
      <trkpt lat="48.60595" lon="1.98329">
        <ele>110.2</ele>
        <time>2026-03-29T09:45:46Z</time>
      </trkpt>
      <trkpt lat="48.60591" lon="1.98331">
        <ele>110.2</ele>
        <time>2026-03-29T09:45:47Z</time>
      </trkpt>
      <trkpt lat="48.60586" lon="1.98333">
        <ele>110.2</ele>
        <time>2026-03-29T09:45:48Z</time>
      </trkpt>
      <trkpt lat="48.60582" lon="1.98334">
        <ele>110.2</ele>
        <time>2026-03-29T09:45:49Z</time>
      </trkpt>
      <trkpt lat="48.60578" lon="1.98336">
        <ele>109.8</ele>
        <time>2026-03-29T09:45:50Z</time>
      </trkpt>
      <trkpt lat="48.60574" lon="1.98338">
        <ele>109.8</ele>
        <time>2026-03-29T09:45:51Z</time>
      </trkpt>
      <trkpt lat="48.6057" lon="1.9834">
        <ele>109.8</ele>
        <time>2026-03-29T09:45:52Z</time>
      </trkpt>
      <trkpt lat="48.60566" lon="1.98342">
        <ele>109.8</ele>
        <time>2026-03-29T09:45:53Z</time>
      </trkpt>
      <trkpt lat="48.60561" lon="1.98345">
        <ele>109.4</ele>
        <time>2026-03-29T09:45:54Z</time>
      </trkpt>
      <trkpt lat="48.60557" lon="1.98346">
        <ele>109.4</ele>
        <time>2026-03-29T09:45:55Z</time>
      </trkpt>
      <trkpt lat="48.60551" lon="1.98348">
        <ele>109.4</ele>
        <time>2026-03-29T09:45:56Z</time>
      </trkpt>
      <trkpt lat="48.60546" lon="1.9835">
        <ele>109.4</ele>
        <time>2026-03-29T09:45:57Z</time>
      </trkpt>
      <trkpt lat="48.60541" lon="1.98352">
        <ele>108.8</ele>
        <time>2026-03-29T09:45:58Z</time>
      </trkpt>
      <trkpt lat="48.60536" lon="1.98352">
        <ele>108.8</ele>
        <time>2026-03-29T09:45:59Z</time>
      </trkpt>
      <trkpt lat="48.6053" lon="1.98353">
        <ele>108.8</ele>
        <time>2026-03-29T09:46:00Z</time>
      </trkpt>
      <trkpt lat="48.60525" lon="1.98354">
        <ele>108.8</ele>
        <time>2026-03-29T09:46:01Z</time>
      </trkpt>
      <trkpt lat="48.6052" lon="1.98354">
        <ele>109.2</ele>
        <time>2026-03-29T09:46:02Z</time>
      </trkpt>
      <trkpt lat="48.60515" lon="1.98355">
        <ele>109.2</ele>
        <time>2026-03-29T09:46:03Z</time>
      </trkpt>
      <trkpt lat="48.60509" lon="1.98356">
        <ele>109.2</ele>
        <time>2026-03-29T09:46:04Z</time>
      </trkpt>
      <trkpt lat="48.60505" lon="1.98357">
        <ele>109.2</ele>
        <time>2026-03-29T09:46:05Z</time>
      </trkpt>
      <trkpt lat="48.605" lon="1.9836">
        <ele>109</ele>
        <time>2026-03-29T09:46:06Z</time>
      </trkpt>
      <trkpt lat="48.60494" lon="1.98361">
        <ele>109</ele>
        <time>2026-03-29T09:46:07Z</time>
      </trkpt>
      <trkpt lat="48.60489" lon="1.98362">
        <ele>109</ele>
        <time>2026-03-29T09:46:08Z</time>
      </trkpt>
      <trkpt lat="48.60483" lon="1.98363">
        <ele>108.4</ele>
        <time>2026-03-29T09:46:09Z</time>
      </trkpt>
      <trkpt lat="48.60478" lon="1.98364">
        <ele>108.6</ele>
        <time>2026-03-29T09:46:10Z</time>
      </trkpt>
      <trkpt lat="48.60473" lon="1.98365">
        <ele>108.6</ele>
        <time>2026-03-29T09:46:11Z</time>
      </trkpt>
      <trkpt lat="48.60467" lon="1.98366">
        <ele>108.6</ele>
        <time>2026-03-29T09:46:12Z</time>
      </trkpt>
      <trkpt lat="48.60461" lon="1.98367">
        <ele>108.6</ele>
        <time>2026-03-29T09:46:13Z</time>
      </trkpt>
      <trkpt lat="48.60457" lon="1.98369">
        <ele>108.6</ele>
        <time>2026-03-29T09:46:14Z</time>
      </trkpt>
      <trkpt lat="48.60453" lon="1.98371">
        <ele>108.6</ele>
        <time>2026-03-29T09:46:15Z</time>
      </trkpt>
      <trkpt lat="48.60449" lon="1.98372">
        <ele>108.6</ele>
        <time>2026-03-29T09:46:16Z</time>
      </trkpt>
      <trkpt lat="48.60446" lon="1.98375">
        <ele>108.6</ele>
        <time>2026-03-29T09:46:17Z</time>
      </trkpt>
      <trkpt lat="48.60442" lon="1.98377">
        <ele>108.6</ele>
        <time>2026-03-29T09:46:18Z</time>
      </trkpt>
      <trkpt lat="48.60437" lon="1.98379">
        <ele>108.6</ele>
        <time>2026-03-29T09:46:19Z</time>
      </trkpt>
      <trkpt lat="48.60433" lon="1.98381">
        <ele>108.6</ele>
        <time>2026-03-29T09:46:20Z</time>
      </trkpt>
      <trkpt lat="48.6043" lon="1.98382">
        <ele>108.6</ele>
        <time>2026-03-29T09:46:21Z</time>
      </trkpt>
      <trkpt lat="48.60425" lon="1.98384">
        <ele>108.6</ele>
        <time>2026-03-29T09:46:22Z</time>
      </trkpt>
      <trkpt lat="48.6042" lon="1.98386">
        <ele>108.6</ele>
        <time>2026-03-29T09:46:23Z</time>
      </trkpt>
      <trkpt lat="48.60416" lon="1.98388">
        <ele>108.6</ele>
        <time>2026-03-29T09:46:24Z</time>
      </trkpt>
      <trkpt lat="48.60412" lon="1.9839">
        <ele>108.6</ele>
        <time>2026-03-29T09:46:25Z</time>
      </trkpt>
      <trkpt lat="48.60408" lon="1.98391">
        <ele>109</ele>
        <time>2026-03-29T09:46:26Z</time>
      </trkpt>
      <trkpt lat="48.60405" lon="1.98393">
        <ele>109</ele>
        <time>2026-03-29T09:46:27Z</time>
      </trkpt>
      <trkpt lat="48.60401" lon="1.98395">
        <ele>109</ele>
        <time>2026-03-29T09:46:28Z</time>
      </trkpt>
      <trkpt lat="48.60398" lon="1.98397">
        <ele>109</ele>
        <time>2026-03-29T09:46:29Z</time>
      </trkpt>
      <trkpt lat="48.60395" lon="1.98398">
        <ele>109.4</ele>
        <time>2026-03-29T09:46:30Z</time>
      </trkpt>
      <trkpt lat="48.60392" lon="1.98399">
        <ele>109.4</ele>
        <time>2026-03-29T09:46:31Z</time>
      </trkpt>
      <trkpt lat="48.60389" lon="1.98401">
        <ele>109.4</ele>
        <time>2026-03-29T09:46:32Z</time>
      </trkpt>
      <trkpt lat="48.60385" lon="1.98403">
        <ele>109.8</ele>
        <time>2026-03-29T09:46:33Z</time>
      </trkpt>
      <trkpt lat="48.60382" lon="1.98404">
        <ele>110</ele>
        <time>2026-03-29T09:46:34Z</time>
      </trkpt>
      <trkpt lat="48.60379" lon="1.98406">
        <ele>110</ele>
        <time>2026-03-29T09:46:35Z</time>
      </trkpt>
      <trkpt lat="48.60376" lon="1.98407">
        <ele>110</ele>
        <time>2026-03-29T09:46:36Z</time>
      </trkpt>
      <trkpt lat="48.60374" lon="1.98409">
        <ele>110</ele>
        <time>2026-03-29T09:46:37Z</time>
      </trkpt>
      <trkpt lat="48.6037" lon="1.98411">
        <ele>111</ele>
        <time>2026-03-29T09:46:38Z</time>
      </trkpt>
      <trkpt lat="48.60367" lon="1.98414">
        <ele>111</ele>
        <time>2026-03-29T09:46:39Z</time>
      </trkpt>
      <trkpt lat="48.60364" lon="1.98416">
        <ele>111</ele>
        <time>2026-03-29T09:46:40Z</time>
      </trkpt>
      <trkpt lat="48.60361" lon="1.98418">
        <ele>111.8</ele>
        <time>2026-03-29T09:46:41Z</time>
      </trkpt>
      <trkpt lat="48.60359" lon="1.98421">
        <ele>112</ele>
        <time>2026-03-29T09:46:42Z</time>
      </trkpt>
      <trkpt lat="48.60356" lon="1.98424">
        <ele>112</ele>
        <time>2026-03-29T09:46:43Z</time>
      </trkpt>
      <trkpt lat="48.60354" lon="1.98427">
        <ele>112</ele>
        <time>2026-03-29T09:46:44Z</time>
      </trkpt>
      <trkpt lat="48.60351" lon="1.9843">
        <ele>112</ele>
        <time>2026-03-29T09:46:45Z</time>
      </trkpt>
      <trkpt lat="48.60348" lon="1.98433">
        <ele>112.2</ele>
        <time>2026-03-29T09:46:46Z</time>
      </trkpt>
      <trkpt lat="48.60345" lon="1.98435">
        <ele>112.2</ele>
        <time>2026-03-29T09:46:47Z</time>
      </trkpt>
      <trkpt lat="48.60341" lon="1.98438">
        <ele>112.2</ele>
        <time>2026-03-29T09:46:48Z</time>
      </trkpt>
      <trkpt lat="48.60338" lon="1.9844">
        <ele>112.2</ele>
        <time>2026-03-29T09:46:49Z</time>
      </trkpt>
      <trkpt lat="48.60334" lon="1.98443">
        <ele>113</ele>
        <time>2026-03-29T09:46:50Z</time>
      </trkpt>
      <trkpt lat="48.60331" lon="1.98446">
        <ele>113</ele>
        <time>2026-03-29T09:46:51Z</time>
      </trkpt>
      <trkpt lat="48.60328" lon="1.9845">
        <ele>113</ele>
        <time>2026-03-29T09:46:52Z</time>
      </trkpt>
      <trkpt lat="48.60325" lon="1.98454">
        <ele>113</ele>
        <time>2026-03-29T09:46:53Z</time>
      </trkpt>
      <trkpt lat="48.60321" lon="1.98457">
        <ele>113</ele>
        <time>2026-03-29T09:46:54Z</time>
      </trkpt>
      <trkpt lat="48.60318" lon="1.9846">
        <ele>113</ele>
        <time>2026-03-29T09:46:55Z</time>
      </trkpt>
      <trkpt lat="48.60316" lon="1.98464">
        <ele>113</ele>
        <time>2026-03-29T09:46:56Z</time>
      </trkpt>
      <trkpt lat="48.60313" lon="1.98467">
        <ele>112.8</ele>
        <time>2026-03-29T09:46:57Z</time>
      </trkpt>
      <trkpt lat="48.6031" lon="1.98471">
        <ele>113.4</ele>
        <time>2026-03-29T09:46:58Z</time>
      </trkpt>
      <trkpt lat="48.60308" lon="1.98474">
        <ele>113.4</ele>
        <time>2026-03-29T09:46:59Z</time>
      </trkpt>
      <trkpt lat="48.60306" lon="1.98478">
        <ele>113.4</ele>
        <time>2026-03-29T09:47:00Z</time>
      </trkpt>
      <trkpt lat="48.60303" lon="1.98482">
        <ele>112.8</ele>
        <time>2026-03-29T09:47:01Z</time>
      </trkpt>
      <trkpt lat="48.603" lon="1.98486">
        <ele>112.2</ele>
        <time>2026-03-29T09:47:02Z</time>
      </trkpt>
      <trkpt lat="48.60298" lon="1.9849">
        <ele>112.2</ele>
        <time>2026-03-29T09:47:03Z</time>
      </trkpt>
      <trkpt lat="48.60296" lon="1.98494">
        <ele>112.2</ele>
        <time>2026-03-29T09:47:04Z</time>
      </trkpt>
      <trkpt lat="48.60295" lon="1.98498">
        <ele>112.2</ele>
        <time>2026-03-29T09:47:05Z</time>
      </trkpt>
      <trkpt lat="48.60293" lon="1.98503">
        <ele>112.2</ele>
        <time>2026-03-29T09:47:06Z</time>
      </trkpt>
      <trkpt lat="48.6029" lon="1.98508">
        <ele>112.2</ele>
        <time>2026-03-29T09:47:07Z</time>
      </trkpt>
      <trkpt lat="48.60288" lon="1.98512">
        <ele>112.2</ele>
        <time>2026-03-29T09:47:08Z</time>
      </trkpt>
      <trkpt lat="48.60286" lon="1.98516">
        <ele>112.2</ele>
        <time>2026-03-29T09:47:09Z</time>
      </trkpt>
      <trkpt lat="48.60284" lon="1.9852">
        <ele>111.8</ele>
        <time>2026-03-29T09:47:10Z</time>
      </trkpt>
      <trkpt lat="48.60282" lon="1.98524">
        <ele>111.8</ele>
        <time>2026-03-29T09:47:11Z</time>
      </trkpt>
      <trkpt lat="48.60279" lon="1.98529">
        <ele>111.8</ele>
        <time>2026-03-29T09:47:12Z</time>
      </trkpt>
      <trkpt lat="48.60277" lon="1.98532">
        <ele>111.8</ele>
        <time>2026-03-29T09:47:13Z</time>
      </trkpt>
      <trkpt lat="48.60275" lon="1.98536">
        <ele>111.8</ele>
        <time>2026-03-29T09:47:14Z</time>
      </trkpt>
      <trkpt lat="48.60272" lon="1.98539">
        <ele>111.8</ele>
        <time>2026-03-29T09:47:15Z</time>
      </trkpt>
      <trkpt lat="48.60271" lon="1.98542">
        <ele>111.8</ele>
        <time>2026-03-29T09:47:16Z</time>
      </trkpt>
      <trkpt lat="48.60268" lon="1.98546">
        <ele>111.8</ele>
        <time>2026-03-29T09:47:17Z</time>
      </trkpt>
      <trkpt lat="48.60265" lon="1.98549">
        <ele>111.8</ele>
        <time>2026-03-29T09:47:18Z</time>
      </trkpt>
      <trkpt lat="48.60262" lon="1.98552">
        <ele>111.8</ele>
        <time>2026-03-29T09:47:19Z</time>
      </trkpt>
      <trkpt lat="48.60259" lon="1.98555">
        <ele>111.8</ele>
        <time>2026-03-29T09:47:20Z</time>
      </trkpt>
      <trkpt lat="48.60257" lon="1.98559">
        <ele>111.8</ele>
        <time>2026-03-29T09:47:21Z</time>
      </trkpt>
      <trkpt lat="48.60254" lon="1.98562">
        <ele>112.2</ele>
        <time>2026-03-29T09:47:22Z</time>
      </trkpt>
      <trkpt lat="48.60251" lon="1.98565">
        <ele>112.2</ele>
        <time>2026-03-29T09:47:23Z</time>
      </trkpt>
      <trkpt lat="48.60248" lon="1.98568">
        <ele>112.2</ele>
        <time>2026-03-29T09:47:24Z</time>
      </trkpt>
      <trkpt lat="48.60246" lon="1.9857">
        <ele>112.2</ele>
        <time>2026-03-29T09:47:25Z</time>
      </trkpt>
      <trkpt lat="48.60243" lon="1.98573">
        <ele>112.4</ele>
        <time>2026-03-29T09:47:26Z</time>
      </trkpt>
      <trkpt lat="48.6024" lon="1.98575">
        <ele>112.4</ele>
        <time>2026-03-29T09:47:27Z</time>
      </trkpt>
      <trkpt lat="48.60237" lon="1.98578">
        <ele>112.4</ele>
        <time>2026-03-29T09:47:28Z</time>
      </trkpt>
      <trkpt lat="48.60234" lon="1.9858">
        <ele>113</ele>
        <time>2026-03-29T09:47:29Z</time>
      </trkpt>
      <trkpt lat="48.60231" lon="1.98583">
        <ele>113</ele>
        <time>2026-03-29T09:47:30Z</time>
      </trkpt>
      <trkpt lat="48.60228" lon="1.98586">
        <ele>113</ele>
        <time>2026-03-29T09:47:31Z</time>
      </trkpt>
      <trkpt lat="48.60225" lon="1.98588">
        <ele>113</ele>
        <time>2026-03-29T09:47:32Z</time>
      </trkpt>
      <trkpt lat="48.60222" lon="1.98591">
        <ele>112.6</ele>
        <time>2026-03-29T09:47:33Z</time>
      </trkpt>
      <trkpt lat="48.60219" lon="1.98594">
        <ele>114.2</ele>
        <time>2026-03-29T09:47:34Z</time>
      </trkpt>
      <trkpt lat="48.60216" lon="1.98597">
        <ele>114.2</ele>
        <time>2026-03-29T09:47:35Z</time>
      </trkpt>
      <trkpt lat="48.60214" lon="1.98599">
        <ele>114.2</ele>
        <time>2026-03-29T09:47:36Z</time>
      </trkpt>
      <trkpt lat="48.6021" lon="1.98601">
        <ele>113.6</ele>
        <time>2026-03-29T09:47:37Z</time>
      </trkpt>
      <trkpt lat="48.60207" lon="1.98604">
        <ele>113.6</ele>
        <time>2026-03-29T09:47:38Z</time>
      </trkpt>
      <trkpt lat="48.60203" lon="1.98607">
        <ele>113.6</ele>
        <time>2026-03-29T09:47:39Z</time>
      </trkpt>
      <trkpt lat="48.602" lon="1.9861">
        <ele>113.6</ele>
        <time>2026-03-29T09:47:40Z</time>
      </trkpt>
      <trkpt lat="48.60197" lon="1.98613">
        <ele>114.2</ele>
        <time>2026-03-29T09:47:41Z</time>
      </trkpt>
      <trkpt lat="48.60194" lon="1.98616">
        <ele>113.8</ele>
        <time>2026-03-29T09:47:42Z</time>
      </trkpt>
      <trkpt lat="48.60191" lon="1.98618">
        <ele>113.8</ele>
        <time>2026-03-29T09:47:43Z</time>
      </trkpt>
      <trkpt lat="48.60188" lon="1.98621">
        <ele>113.8</ele>
        <time>2026-03-29T09:47:44Z</time>
      </trkpt>
      <trkpt lat="48.60186" lon="1.98624">
        <ele>114.8</ele>
        <time>2026-03-29T09:47:45Z</time>
      </trkpt>
      <trkpt lat="48.60183" lon="1.98626">
        <ele>114.6</ele>
        <time>2026-03-29T09:47:46Z</time>
      </trkpt>
      <trkpt lat="48.6018" lon="1.98629">
        <ele>114.6</ele>
        <time>2026-03-29T09:47:47Z</time>
      </trkpt>
      <trkpt lat="48.60178" lon="1.98631">
        <ele>114.6</ele>
        <time>2026-03-29T09:47:48Z</time>
      </trkpt>
      <trkpt lat="48.60175" lon="1.98634">
        <ele>115.2</ele>
        <time>2026-03-29T09:47:49Z</time>
      </trkpt>
      <trkpt lat="48.60173" lon="1.98637">
        <ele>115.6</ele>
        <time>2026-03-29T09:47:50Z</time>
      </trkpt>
      <trkpt lat="48.60171" lon="1.98639">
        <ele>115.6</ele>
        <time>2026-03-29T09:47:51Z</time>
      </trkpt>
      <trkpt lat="48.60168" lon="1.98643">
        <ele>115.6</ele>
        <time>2026-03-29T09:47:52Z</time>
      </trkpt>
      <trkpt lat="48.60166" lon="1.98645">
        <ele>116</ele>
        <time>2026-03-29T09:47:53Z</time>
      </trkpt>
      <trkpt lat="48.60164" lon="1.98646">
        <ele>116</ele>
        <time>2026-03-29T09:47:54Z</time>
      </trkpt>
      <trkpt lat="48.60162" lon="1.98646">
        <ele>116</ele>
        <time>2026-03-29T09:47:55Z</time>
      </trkpt>
      <trkpt lat="48.6016" lon="1.98644">
        <ele>116</ele>
        <time>2026-03-29T09:47:56Z</time>
      </trkpt>
      <trkpt lat="48.60158" lon="1.98642">
        <ele>116.4</ele>
        <time>2026-03-29T09:47:57Z</time>
      </trkpt>
      <trkpt lat="48.60156" lon="1.98639">
        <ele>117</ele>
        <time>2026-03-29T09:47:58Z</time>
      </trkpt>
      <trkpt lat="48.60154" lon="1.98637">
        <ele>117</ele>
        <time>2026-03-29T09:47:59Z</time>
      </trkpt>
      <trkpt lat="48.60151" lon="1.98635">
        <ele>117</ele>
        <time>2026-03-29T09:48:00Z</time>
      </trkpt>
      <trkpt lat="48.60149" lon="1.98634">
        <ele>117</ele>
        <time>2026-03-29T09:48:01Z</time>
      </trkpt>
      <trkpt lat="48.60146" lon="1.98632">
        <ele>117.6</ele>
        <time>2026-03-29T09:48:02Z</time>
      </trkpt>
      <trkpt lat="48.60143" lon="1.98632">
        <ele>117.6</ele>
        <time>2026-03-29T09:48:03Z</time>
      </trkpt>
      <trkpt lat="48.6014" lon="1.98631">
        <ele>117.6</ele>
        <time>2026-03-29T09:48:04Z</time>
      </trkpt>
      <trkpt lat="48.60138" lon="1.9863">
        <ele>117.6</ele>
        <time>2026-03-29T09:48:05Z</time>
      </trkpt>
      <trkpt lat="48.60135" lon="1.98628">
        <ele>117.2</ele>
        <time>2026-03-29T09:48:06Z</time>
      </trkpt>
      <trkpt lat="48.60133" lon="1.98626">
        <ele>117.2</ele>
        <time>2026-03-29T09:48:07Z</time>
      </trkpt>
      <trkpt lat="48.60132" lon="1.98624">
        <ele>117.2</ele>
        <time>2026-03-29T09:48:08Z</time>
      </trkpt>
      <trkpt lat="48.60131" lon="1.9862">
        <ele>117.8</ele>
        <time>2026-03-29T09:48:09Z</time>
      </trkpt>
      <trkpt lat="48.6013" lon="1.98615">
        <ele>117.6</ele>
        <time>2026-03-29T09:48:10Z</time>
      </trkpt>
      <trkpt lat="48.6013" lon="1.98611">
        <ele>117.6</ele>
        <time>2026-03-29T09:48:11Z</time>
      </trkpt>
      <trkpt lat="48.6013" lon="1.98608">
        <ele>117.6</ele>
        <time>2026-03-29T09:48:12Z</time>
      </trkpt>
      <trkpt lat="48.60129" lon="1.98604">
        <ele>117.6</ele>
        <time>2026-03-29T09:48:13Z</time>
      </trkpt>
      <trkpt lat="48.60126" lon="1.98601">
        <ele>118.4</ele>
        <time>2026-03-29T09:48:14Z</time>
      </trkpt>
      <trkpt lat="48.60124" lon="1.98599">
        <ele>118.4</ele>
        <time>2026-03-29T09:48:15Z</time>
      </trkpt>
      <trkpt lat="48.60122" lon="1.98597">
        <ele>118.4</ele>
        <time>2026-03-29T09:48:16Z</time>
      </trkpt>
      <trkpt lat="48.60119" lon="1.98595">
        <ele>118.4</ele>
        <time>2026-03-29T09:48:17Z</time>
      </trkpt>
      <trkpt lat="48.60117" lon="1.98595">
        <ele>118.6</ele>
        <time>2026-03-29T09:48:18Z</time>
      </trkpt>
      <trkpt lat="48.60113" lon="1.98594">
        <ele>118.6</ele>
        <time>2026-03-29T09:48:19Z</time>
      </trkpt>
      <trkpt lat="48.6011" lon="1.98594">
        <ele>118.6</ele>
        <time>2026-03-29T09:48:20Z</time>
      </trkpt>
      <trkpt lat="48.60107" lon="1.98593">
        <ele>118.6</ele>
        <time>2026-03-29T09:48:21Z</time>
      </trkpt>
      <trkpt lat="48.60104" lon="1.98593">
        <ele>118.6</ele>
        <time>2026-03-29T09:48:22Z</time>
      </trkpt>
      <trkpt lat="48.60101" lon="1.98594">
        <ele>118.6</ele>
        <time>2026-03-29T09:48:23Z</time>
      </trkpt>
      <trkpt lat="48.60098" lon="1.98593">
        <ele>118.6</ele>
        <time>2026-03-29T09:48:24Z</time>
      </trkpt>
      <trkpt lat="48.60095" lon="1.98592">
        <ele>119.2</ele>
        <time>2026-03-29T09:48:25Z</time>
      </trkpt>
      <trkpt lat="48.60092" lon="1.98591">
        <ele>119.4</ele>
        <time>2026-03-29T09:48:26Z</time>
      </trkpt>
      <trkpt lat="48.60089" lon="1.98589">
        <ele>119.4</ele>
        <time>2026-03-29T09:48:27Z</time>
      </trkpt>
      <trkpt lat="48.60087" lon="1.98587">
        <ele>119.4</ele>
        <time>2026-03-29T09:48:28Z</time>
      </trkpt>
      <trkpt lat="48.60084" lon="1.98585">
        <ele>119.4</ele>
        <time>2026-03-29T09:48:29Z</time>
      </trkpt>
      <trkpt lat="48.60082" lon="1.98582">
        <ele>119.8</ele>
        <time>2026-03-29T09:48:30Z</time>
      </trkpt>
      <trkpt lat="48.60079" lon="1.98579">
        <ele>119.8</ele>
        <time>2026-03-29T09:48:31Z</time>
      </trkpt>
      <trkpt lat="48.60077" lon="1.98575">
        <ele>119.8</ele>
        <time>2026-03-29T09:48:32Z</time>
      </trkpt>
      <trkpt lat="48.60075" lon="1.98572">
        <ele>120.6</ele>
        <time>2026-03-29T09:48:33Z</time>
      </trkpt>
      <trkpt lat="48.60073" lon="1.98569">
        <ele>121.2</ele>
        <time>2026-03-29T09:48:34Z</time>
      </trkpt>
      <trkpt lat="48.60071" lon="1.98566">
        <ele>121.2</ele>
        <time>2026-03-29T09:48:35Z</time>
      </trkpt>
      <trkpt lat="48.60069" lon="1.98565">
        <ele>121.2</ele>
        <time>2026-03-29T09:48:36Z</time>
      </trkpt>
      <trkpt lat="48.60066" lon="1.98563">
        <ele>121.2</ele>
        <time>2026-03-29T09:48:37Z</time>
      </trkpt>
      <trkpt lat="48.60064" lon="1.9856">
        <ele>121.4</ele>
        <time>2026-03-29T09:48:38Z</time>
      </trkpt>
      <trkpt lat="48.60062" lon="1.98557">
        <ele>121.4</ele>
        <time>2026-03-29T09:48:39Z</time>
      </trkpt>
      <trkpt lat="48.60059" lon="1.98554">
        <ele>121.4</ele>
        <time>2026-03-29T09:48:40Z</time>
      </trkpt>
      <trkpt lat="48.60057" lon="1.98551">
        <ele>121.6</ele>
        <time>2026-03-29T09:48:41Z</time>
      </trkpt>
      <trkpt lat="48.60055" lon="1.98549">
        <ele>122.2</ele>
        <time>2026-03-29T09:48:42Z</time>
      </trkpt>
      <trkpt lat="48.60053" lon="1.98547">
        <ele>122.2</ele>
        <time>2026-03-29T09:48:43Z</time>
      </trkpt>
      <trkpt lat="48.6005" lon="1.98545">
        <ele>122.2</ele>
        <time>2026-03-29T09:48:44Z</time>
      </trkpt>
      <trkpt lat="48.60048" lon="1.98543">
        <ele>122.2</ele>
        <time>2026-03-29T09:48:45Z</time>
      </trkpt>
      <trkpt lat="48.60046" lon="1.98541">
        <ele>122.6</ele>
        <time>2026-03-29T09:48:46Z</time>
      </trkpt>
      <trkpt lat="48.60045" lon="1.98538">
        <ele>122.6</ele>
        <time>2026-03-29T09:48:47Z</time>
      </trkpt>
      <trkpt lat="48.60043" lon="1.98534">
        <ele>122.6</ele>
        <time>2026-03-29T09:48:48Z</time>
      </trkpt>
      <trkpt lat="48.60042" lon="1.98531">
        <ele>122.6</ele>
        <time>2026-03-29T09:48:49Z</time>
      </trkpt>
      <trkpt lat="48.6004" lon="1.98528">
        <ele>123</ele>
        <time>2026-03-29T09:48:50Z</time>
      </trkpt>
      <trkpt lat="48.6004" lon="1.98525">
        <ele>123</ele>
        <time>2026-03-29T09:48:51Z</time>
      </trkpt>
      <trkpt lat="48.6004" lon="1.98522">
        <ele>123</ele>
        <time>2026-03-29T09:48:52Z</time>
      </trkpt>
      <trkpt lat="48.60039" lon="1.98519">
        <ele>123</ele>
        <time>2026-03-29T09:48:53Z</time>
      </trkpt>
      <trkpt lat="48.60038" lon="1.98515">
        <ele>123.4</ele>
        <time>2026-03-29T09:48:54Z</time>
      </trkpt>
      <trkpt lat="48.60037" lon="1.98512">
        <ele>123.4</ele>
        <time>2026-03-29T09:48:55Z</time>
      </trkpt>
      <trkpt lat="48.60036" lon="1.98509">
        <ele>123.4</ele>
        <time>2026-03-29T09:48:56Z</time>
      </trkpt>
      <trkpt lat="48.60035" lon="1.98506">
        <ele>124</ele>
        <time>2026-03-29T09:48:57Z</time>
      </trkpt>
      <trkpt lat="48.60034" lon="1.98503">
        <ele>124.4</ele>
        <time>2026-03-29T09:48:58Z</time>
      </trkpt>
      <trkpt lat="48.60033" lon="1.98499">
        <ele>124.4</ele>
        <time>2026-03-29T09:48:59Z</time>
      </trkpt>
      <trkpt lat="48.60032" lon="1.98496">
        <ele>124.4</ele>
        <time>2026-03-29T09:49:00Z</time>
      </trkpt>
      <trkpt lat="48.60031" lon="1.98493">
        <ele>125</ele>
        <time>2026-03-29T09:49:01Z</time>
      </trkpt>
      <trkpt lat="48.60031" lon="1.98489">
        <ele>125</ele>
        <time>2026-03-29T09:49:02Z</time>
      </trkpt>
      <trkpt lat="48.6003" lon="1.98486">
        <ele>125</ele>
        <time>2026-03-29T09:49:03Z</time>
      </trkpt>
      <trkpt lat="48.60029" lon="1.98483">
        <ele>125</ele>
        <time>2026-03-29T09:49:04Z</time>
      </trkpt>
      <trkpt lat="48.60029" lon="1.9848">
        <ele>126</ele>
        <time>2026-03-29T09:49:05Z</time>
      </trkpt>
      <trkpt lat="48.60029" lon="1.98477">
        <ele>126.2</ele>
        <time>2026-03-29T09:49:06Z</time>
      </trkpt>
      <trkpt lat="48.6003" lon="1.98474">
        <ele>126.2</ele>
        <time>2026-03-29T09:49:07Z</time>
      </trkpt>
      <trkpt lat="48.60031" lon="1.98471">
        <ele>126.2</ele>
        <time>2026-03-29T09:49:08Z</time>
      </trkpt>
      <trkpt lat="48.60033" lon="1.98469">
        <ele>126.8</ele>
        <time>2026-03-29T09:49:09Z</time>
      </trkpt>
      <trkpt lat="48.60035" lon="1.98468">
        <ele>127</ele>
        <time>2026-03-29T09:49:10Z</time>
      </trkpt>
      <trkpt lat="48.60037" lon="1.98467">
        <ele>127</ele>
        <time>2026-03-29T09:49:11Z</time>
      </trkpt>
      <trkpt lat="48.60039" lon="1.98466">
        <ele>127</ele>
        <time>2026-03-29T09:49:12Z</time>
      </trkpt>
      <trkpt lat="48.60041" lon="1.98465">
        <ele>127</ele>
        <time>2026-03-29T09:49:13Z</time>
      </trkpt>
      <trkpt lat="48.60042" lon="1.98463">
        <ele>127.6</ele>
        <time>2026-03-29T09:49:14Z</time>
      </trkpt>
      <trkpt lat="48.60044" lon="1.98461">
        <ele>127.6</ele>
        <time>2026-03-29T09:49:15Z</time>
      </trkpt>
      <trkpt lat="48.60046" lon="1.98459">
        <ele>127.6</ele>
        <time>2026-03-29T09:49:16Z</time>
      </trkpt>
      <trkpt lat="48.60047" lon="1.98458">
        <ele>127.6</ele>
        <time>2026-03-29T09:49:17Z</time>
      </trkpt>
      <trkpt lat="48.6005" lon="1.98457">
        <ele>127.2</ele>
        <time>2026-03-29T09:49:18Z</time>
      </trkpt>
      <trkpt lat="48.60052" lon="1.98455">
        <ele>127.2</ele>
        <time>2026-03-29T09:49:19Z</time>
      </trkpt>
      <trkpt lat="48.60054" lon="1.98453">
        <ele>127.2</ele>
        <time>2026-03-29T09:49:20Z</time>
      </trkpt>
      <trkpt lat="48.60056" lon="1.98452">
        <ele>128</ele>
        <time>2026-03-29T09:49:21Z</time>
      </trkpt>
      <trkpt lat="48.60058" lon="1.98449">
        <ele>128</ele>
        <time>2026-03-29T09:49:22Z</time>
      </trkpt>
      <trkpt lat="48.6006" lon="1.98447">
        <ele>128</ele>
        <time>2026-03-29T09:49:23Z</time>
      </trkpt>
      <trkpt lat="48.60063" lon="1.98445">
        <ele>128</ele>
        <time>2026-03-29T09:49:24Z</time>
      </trkpt>
      <trkpt lat="48.60065" lon="1.98442">
        <ele>128.2</ele>
        <time>2026-03-29T09:49:25Z</time>
      </trkpt>
      <trkpt lat="48.60067" lon="1.98441">
        <ele>128</ele>
        <time>2026-03-29T09:49:26Z</time>
      </trkpt>
      <trkpt lat="48.60069" lon="1.9844">
        <ele>128</ele>
        <time>2026-03-29T09:49:27Z</time>
      </trkpt>
      <trkpt lat="48.60072" lon="1.98439">
        <ele>128</ele>
        <time>2026-03-29T09:49:28Z</time>
      </trkpt>
      <trkpt lat="48.60074" lon="1.98437">
        <ele>127.2</ele>
        <time>2026-03-29T09:49:29Z</time>
      </trkpt>
      <trkpt lat="48.60076" lon="1.98434">
        <ele>127.8</ele>
        <time>2026-03-29T09:49:30Z</time>
      </trkpt>
      <trkpt lat="48.60078" lon="1.98431">
        <ele>127.8</ele>
        <time>2026-03-29T09:49:31Z</time>
      </trkpt>
      <trkpt lat="48.6008" lon="1.98429">
        <ele>127.8</ele>
        <time>2026-03-29T09:49:32Z</time>
      </trkpt>
      <trkpt lat="48.60083" lon="1.98426">
        <ele>127.8</ele>
        <time>2026-03-29T09:49:33Z</time>
      </trkpt>
      <trkpt lat="48.60085" lon="1.98423">
        <ele>127</ele>
        <time>2026-03-29T09:49:34Z</time>
      </trkpt>
      <trkpt lat="48.60088" lon="1.98419">
        <ele>127</ele>
        <time>2026-03-29T09:49:35Z</time>
      </trkpt>
      <trkpt lat="48.60092" lon="1.98417">
        <ele>127</ele>
        <time>2026-03-29T09:49:36Z</time>
      </trkpt>
      <trkpt lat="48.60096" lon="1.98417">
        <ele>127</ele>
        <time>2026-03-29T09:49:37Z</time>
      </trkpt>
      <trkpt lat="48.60099" lon="1.98415">
        <ele>126.2</ele>
        <time>2026-03-29T09:49:38Z</time>
      </trkpt>
      <trkpt lat="48.60103" lon="1.9841">
        <ele>126.2</ele>
        <time>2026-03-29T09:49:39Z</time>
      </trkpt>
      <trkpt lat="48.60106" lon="1.98406">
        <ele>126.2</ele>
        <time>2026-03-29T09:49:40Z</time>
      </trkpt>
      <trkpt lat="48.6011" lon="1.98401">
        <ele>126</ele>
        <time>2026-03-29T09:49:41Z</time>
      </trkpt>
      <trkpt lat="48.60113" lon="1.98397">
        <ele>125.4</ele>
        <time>2026-03-29T09:49:42Z</time>
      </trkpt>
      <trkpt lat="48.60117" lon="1.98392">
        <ele>125.4</ele>
        <time>2026-03-29T09:49:43Z</time>
      </trkpt>
      <trkpt lat="48.60121" lon="1.98388">
        <ele>125.4</ele>
        <time>2026-03-29T09:49:44Z</time>
      </trkpt>
      <trkpt lat="48.60126" lon="1.98385">
        <ele>125.4</ele>
        <time>2026-03-29T09:49:45Z</time>
      </trkpt>
      <trkpt lat="48.60131" lon="1.98382">
        <ele>124.2</ele>
        <time>2026-03-29T09:49:46Z</time>
      </trkpt>
      <trkpt lat="48.60136" lon="1.98378">
        <ele>124.2</ele>
        <time>2026-03-29T09:49:47Z</time>
      </trkpt>
      <trkpt lat="48.60139" lon="1.98371">
        <ele>124.2</ele>
        <time>2026-03-29T09:49:48Z</time>
      </trkpt>
      <trkpt lat="48.60143" lon="1.98367">
        <ele>123.2</ele>
        <time>2026-03-29T09:49:49Z</time>
      </trkpt>
      <trkpt lat="48.60146" lon="1.98366">
        <ele>122</ele>
        <time>2026-03-29T09:49:50Z</time>
      </trkpt>
      <trkpt lat="48.6015" lon="1.98367">
        <ele>122</ele>
        <time>2026-03-29T09:49:51Z</time>
      </trkpt>
      <trkpt lat="48.60155" lon="1.98367">
        <ele>122</ele>
        <time>2026-03-29T09:49:52Z</time>
      </trkpt>
      <trkpt lat="48.6016" lon="1.98364">
        <ele>121</ele>
        <time>2026-03-29T09:49:53Z</time>
      </trkpt>
      <trkpt lat="48.60165" lon="1.98359">
        <ele>121.2</ele>
        <time>2026-03-29T09:49:54Z</time>
      </trkpt>
      <trkpt lat="48.6017" lon="1.98357">
        <ele>121.2</ele>
        <time>2026-03-29T09:49:55Z</time>
      </trkpt>
      <trkpt lat="48.60175" lon="1.98355">
        <ele>121.2</ele>
        <time>2026-03-29T09:49:56Z</time>
      </trkpt>
      <trkpt lat="48.60179" lon="1.98349">
        <ele>121.2</ele>
        <time>2026-03-29T09:49:57Z</time>
      </trkpt>
      <trkpt lat="48.60183" lon="1.98346">
        <ele>121.6</ele>
        <time>2026-03-29T09:49:58Z</time>
      </trkpt>
      <trkpt lat="48.60187" lon="1.98346">
        <ele>121.6</ele>
        <time>2026-03-29T09:49:59Z</time>
      </trkpt>
      <trkpt lat="48.6019" lon="1.98347">
        <ele>121.6</ele>
        <time>2026-03-29T09:50:00Z</time>
      </trkpt>
      <trkpt lat="48.60193" lon="1.98349">
        <ele>121.6</ele>
        <time>2026-03-29T09:50:01Z</time>
      </trkpt>
      <trkpt lat="48.60196" lon="1.98351">
        <ele>121.8</ele>
        <time>2026-03-29T09:50:02Z</time>
      </trkpt>
      <trkpt lat="48.60199" lon="1.9835">
        <ele>121.8</ele>
        <time>2026-03-29T09:50:03Z</time>
      </trkpt>
      <trkpt lat="48.60202" lon="1.98349">
        <ele>121.8</ele>
        <time>2026-03-29T09:50:04Z</time>
      </trkpt>
      <trkpt lat="48.60205" lon="1.98346">
        <ele>121.8</ele>
        <time>2026-03-29T09:50:05Z</time>
      </trkpt>
      <trkpt lat="48.60207" lon="1.98343">
        <ele>122.2</ele>
        <time>2026-03-29T09:50:06Z</time>
      </trkpt>
      <trkpt lat="48.60209" lon="1.9834">
        <ele>122.2</ele>
        <time>2026-03-29T09:50:07Z</time>
      </trkpt>
      <trkpt lat="48.60211" lon="1.98337">
        <ele>122.2</ele>
        <time>2026-03-29T09:50:08Z</time>
      </trkpt>
      <trkpt lat="48.60214" lon="1.98335">
        <ele>122.2</ele>
        <time>2026-03-29T09:50:09Z</time>
      </trkpt>
      <trkpt lat="48.60216" lon="1.98333">
        <ele>123.4</ele>
        <time>2026-03-29T09:50:10Z</time>
      </trkpt>
      <trkpt lat="48.60219" lon="1.98331">
        <ele>123.4</ele>
        <time>2026-03-29T09:50:11Z</time>
      </trkpt>
      <trkpt lat="48.60221" lon="1.98328">
        <ele>123.4</ele>
        <time>2026-03-29T09:50:12Z</time>
      </trkpt>
      <trkpt lat="48.60223" lon="1.98325">
        <ele>123.8</ele>
        <time>2026-03-29T09:50:13Z</time>
      </trkpt>
      <trkpt lat="48.60225" lon="1.98323">
        <ele>124</ele>
        <time>2026-03-29T09:50:14Z</time>
      </trkpt>
      <trkpt lat="48.60227" lon="1.9832">
        <ele>124</ele>
        <time>2026-03-29T09:50:15Z</time>
      </trkpt>
      <trkpt lat="48.6023" lon="1.98318">
        <ele>124</ele>
        <time>2026-03-29T09:50:16Z</time>
      </trkpt>
      <trkpt lat="48.60232" lon="1.98316">
        <ele>124.8</ele>
        <time>2026-03-29T09:50:17Z</time>
      </trkpt>
      <trkpt lat="48.60235" lon="1.98314">
        <ele>124.8</ele>
        <time>2026-03-29T09:50:18Z</time>
      </trkpt>
      <trkpt lat="48.60237" lon="1.98311">
        <ele>124.8</ele>
        <time>2026-03-29T09:50:19Z</time>
      </trkpt>
      <trkpt lat="48.6024" lon="1.98309">
        <ele>124.8</ele>
        <time>2026-03-29T09:50:20Z</time>
      </trkpt>
      <trkpt lat="48.60242" lon="1.98307">
        <ele>125</ele>
        <time>2026-03-29T09:50:21Z</time>
      </trkpt>
      <trkpt lat="48.60245" lon="1.98306">
        <ele>125.4</ele>
        <time>2026-03-29T09:50:22Z</time>
      </trkpt>
      <trkpt lat="48.60248" lon="1.98304">
        <ele>125.4</ele>
        <time>2026-03-29T09:50:23Z</time>
      </trkpt>
      <trkpt lat="48.6025" lon="1.98302">
        <ele>125.4</ele>
        <time>2026-03-29T09:50:24Z</time>
      </trkpt>
      <trkpt lat="48.60253" lon="1.98302">
        <ele>125.2</ele>
        <time>2026-03-29T09:50:25Z</time>
      </trkpt>
      <trkpt lat="48.60255" lon="1.98301">
        <ele>125.2</ele>
        <time>2026-03-29T09:50:26Z</time>
      </trkpt>
      <trkpt lat="48.60258" lon="1.983">
        <ele>125.2</ele>
        <time>2026-03-29T09:50:27Z</time>
      </trkpt>
      <trkpt lat="48.6026" lon="1.98299">
        <ele>125.2</ele>
        <time>2026-03-29T09:50:28Z</time>
      </trkpt>
      <trkpt lat="48.60263" lon="1.98298">
        <ele>124.4</ele>
        <time>2026-03-29T09:50:29Z</time>
      </trkpt>
      <trkpt lat="48.60267" lon="1.98298">
        <ele>124.2</ele>
        <time>2026-03-29T09:50:30Z</time>
      </trkpt>
      <trkpt lat="48.6027" lon="1.98297">
        <ele>124.2</ele>
        <time>2026-03-29T09:50:31Z</time>
      </trkpt>
      <trkpt lat="48.60274" lon="1.98296">
        <ele>124.2</ele>
        <time>2026-03-29T09:50:32Z</time>
      </trkpt>
      <trkpt lat="48.60278" lon="1.98293">
        <ele>124.2</ele>
        <time>2026-03-29T09:50:33Z</time>
      </trkpt>
      <trkpt lat="48.60282" lon="1.9829">
        <ele>123</ele>
        <time>2026-03-29T09:50:34Z</time>
      </trkpt>
      <trkpt lat="48.60287" lon="1.98287">
        <ele>123</ele>
        <time>2026-03-29T09:50:35Z</time>
      </trkpt>
      <trkpt lat="48.60291" lon="1.98283">
        <ele>123</ele>
        <time>2026-03-29T09:50:36Z</time>
      </trkpt>
      <trkpt lat="48.60295" lon="1.98279">
        <ele>122</ele>
        <time>2026-03-29T09:50:37Z</time>
      </trkpt>
      <trkpt lat="48.603" lon="1.98277">
        <ele>121.8</ele>
        <time>2026-03-29T09:50:38Z</time>
      </trkpt>
      <trkpt lat="48.60304" lon="1.98274">
        <ele>121.8</ele>
        <time>2026-03-29T09:50:39Z</time>
      </trkpt>
      <trkpt lat="48.60308" lon="1.98271">
        <ele>121.8</ele>
        <time>2026-03-29T09:50:40Z</time>
      </trkpt>
      <trkpt lat="48.60311" lon="1.9827">
        <ele>120.8</ele>
        <time>2026-03-29T09:50:41Z</time>
      </trkpt>
      <trkpt lat="48.60315" lon="1.9827">
        <ele>118.2</ele>
        <time>2026-03-29T09:50:42Z</time>
      </trkpt>
      <trkpt lat="48.60317" lon="1.9827">
        <ele>118.2</ele>
        <time>2026-03-29T09:50:43Z</time>
      </trkpt>
      <trkpt lat="48.6032" lon="1.98266">
        <ele>118.2</ele>
        <time>2026-03-29T09:50:44Z</time>
      </trkpt>
      <trkpt lat="48.60323" lon="1.9826">
        <ele>117.2</ele>
        <time>2026-03-29T09:50:45Z</time>
      </trkpt>
      <trkpt lat="48.60326" lon="1.98254">
        <ele>114.2</ele>
        <time>2026-03-29T09:50:46Z</time>
      </trkpt>
      <trkpt lat="48.60329" lon="1.98246">
        <ele>114.2</ele>
        <time>2026-03-29T09:50:47Z</time>
      </trkpt>
      <trkpt lat="48.60334" lon="1.98239">
        <ele>114.2</ele>
        <time>2026-03-29T09:50:48Z</time>
      </trkpt>
      <trkpt lat="48.60338" lon="1.98234">
        <ele>114.2</ele>
        <time>2026-03-29T09:50:49Z</time>
      </trkpt>
      <trkpt lat="48.60341" lon="1.98229">
        <ele>113.2</ele>
        <time>2026-03-29T09:50:50Z</time>
      </trkpt>
      <trkpt lat="48.60341" lon="1.98224">
        <ele>113.2</ele>
        <time>2026-03-29T09:50:51Z</time>
      </trkpt>
      <trkpt lat="48.6034" lon="1.9822">
        <ele>113.2</ele>
        <time>2026-03-29T09:50:52Z</time>
      </trkpt>
      <trkpt lat="48.60342" lon="1.98215">
        <ele>112.8</ele>
        <time>2026-03-29T09:50:53Z</time>
      </trkpt>
      <trkpt lat="48.60343" lon="1.98211">
        <ele>112.4</ele>
        <time>2026-03-29T09:50:54Z</time>
      </trkpt>
      <trkpt lat="48.60345" lon="1.98206">
        <ele>112.4</ele>
        <time>2026-03-29T09:50:55Z</time>
      </trkpt>
      <trkpt lat="48.60346" lon="1.982">
        <ele>112.4</ele>
        <time>2026-03-29T09:50:56Z</time>
      </trkpt>
      <trkpt lat="48.60347" lon="1.98195">
        <ele>112.4</ele>
        <time>2026-03-29T09:50:57Z</time>
      </trkpt>
      <trkpt lat="48.60348" lon="1.9819">
        <ele>113</ele>
        <time>2026-03-29T09:50:58Z</time>
      </trkpt>
      <trkpt lat="48.60347" lon="1.98185">
        <ele>113</ele>
        <time>2026-03-29T09:50:59Z</time>
      </trkpt>
      <trkpt lat="48.60347" lon="1.9818">
        <ele>113</ele>
        <time>2026-03-29T09:51:00Z</time>
      </trkpt>
      <trkpt lat="48.60346" lon="1.98176">
        <ele>113</ele>
        <time>2026-03-29T09:51:01Z</time>
      </trkpt>
      <trkpt lat="48.60344" lon="1.98173">
        <ele>113.2</ele>
        <time>2026-03-29T09:51:02Z</time>
      </trkpt>
      <trkpt lat="48.60341" lon="1.9817">
        <ele>113.2</ele>
        <time>2026-03-29T09:51:03Z</time>
      </trkpt>
      <trkpt lat="48.6034" lon="1.98165">
        <ele>113.2</ele>
        <time>2026-03-29T09:51:04Z</time>
      </trkpt>
      <trkpt lat="48.6034" lon="1.9816">
        <ele>113.2</ele>
        <time>2026-03-29T09:51:05Z</time>
      </trkpt>
      <trkpt lat="48.60338" lon="1.98155">
        <ele>112.8</ele>
        <time>2026-03-29T09:51:06Z</time>
      </trkpt>
      <trkpt lat="48.60338" lon="1.98151">
        <ele>112.8</ele>
        <time>2026-03-29T09:51:07Z</time>
      </trkpt>
      <trkpt lat="48.60337" lon="1.98146">
        <ele>112.8</ele>
        <time>2026-03-29T09:51:08Z</time>
      </trkpt>
      <trkpt lat="48.60338" lon="1.98141">
        <ele>112.8</ele>
        <time>2026-03-29T09:51:09Z</time>
      </trkpt>
      <trkpt lat="48.60338" lon="1.9814">
        <ele>112.6</ele>
        <time>2026-03-29T09:51:10Z</time>
      </trkpt>
      <trkpt lat="48.60338" lon="1.9814">
        <ele>112.6</ele>
        <time>2026-03-29T09:51:11Z</time>
      </trkpt>
      <trkpt lat="48.60338" lon="1.9814">
        <ele>112.6</ele>
        <time>2026-03-29T09:51:12Z</time>
      </trkpt>
      <trkpt lat="48.6034" lon="1.98134">
        <ele>112.8</ele>
        <time>2026-03-29T09:51:23Z</time>
      </trkpt>
      <trkpt lat="48.60342" lon="1.98131">
        <ele>112.8</ele>
        <time>2026-03-29T09:51:24Z</time>
      </trkpt>
      <trkpt lat="48.60343" lon="1.98128">
        <ele>112.8</ele>
        <time>2026-03-29T09:51:25Z</time>
      </trkpt>
      <trkpt lat="48.60345" lon="1.98124">
        <ele>113</ele>
        <time>2026-03-29T09:51:26Z</time>
      </trkpt>
      <trkpt lat="48.60347" lon="1.9812">
        <ele>113</ele>
        <time>2026-03-29T09:51:27Z</time>
      </trkpt>
      <trkpt lat="48.60349" lon="1.98117">
        <ele>113</ele>
        <time>2026-03-29T09:51:28Z</time>
      </trkpt>
      <trkpt lat="48.60351" lon="1.98113">
        <ele>113</ele>
        <time>2026-03-29T09:51:29Z</time>
      </trkpt>
      <trkpt lat="48.60353" lon="1.98109">
        <ele>113.8</ele>
        <time>2026-03-29T09:51:30Z</time>
      </trkpt>
      <trkpt lat="48.60354" lon="1.98106">
        <ele>113.8</ele>
        <time>2026-03-29T09:51:31Z</time>
      </trkpt>
      <trkpt lat="48.60356" lon="1.98103">
        <ele>113.8</ele>
        <time>2026-03-29T09:51:32Z</time>
      </trkpt>
      <trkpt lat="48.60358" lon="1.98099">
        <ele>113.8</ele>
        <time>2026-03-29T09:51:33Z</time>
      </trkpt>
      <trkpt lat="48.60359" lon="1.98097">
        <ele>114.6</ele>
        <time>2026-03-29T09:51:34Z</time>
      </trkpt>
      <trkpt lat="48.6036" lon="1.98094">
        <ele>114.6</ele>
        <time>2026-03-29T09:51:35Z</time>
      </trkpt>
      <trkpt lat="48.60362" lon="1.9809">
        <ele>114.6</ele>
        <time>2026-03-29T09:51:36Z</time>
      </trkpt>
      <trkpt lat="48.60363" lon="1.98087">
        <ele>114.6</ele>
        <time>2026-03-29T09:51:37Z</time>
      </trkpt>
      <trkpt lat="48.60364" lon="1.98084">
        <ele>114.6</ele>
        <time>2026-03-29T09:51:38Z</time>
      </trkpt>
      <trkpt lat="48.60366" lon="1.98081">
        <ele>114.6</ele>
        <time>2026-03-29T09:51:39Z</time>
      </trkpt>
      <trkpt lat="48.60368" lon="1.98078">
        <ele>114.6</ele>
        <time>2026-03-29T09:51:40Z</time>
      </trkpt>
      <trkpt lat="48.60369" lon="1.98075">
        <ele>115.2</ele>
        <time>2026-03-29T09:51:41Z</time>
      </trkpt>
      <trkpt lat="48.60371" lon="1.98071">
        <ele>116</ele>
        <time>2026-03-29T09:51:42Z</time>
      </trkpt>
      <trkpt lat="48.60373" lon="1.98068">
        <ele>116</ele>
        <time>2026-03-29T09:51:43Z</time>
      </trkpt>
      <trkpt lat="48.60374" lon="1.98065">
        <ele>116</ele>
        <time>2026-03-29T09:51:44Z</time>
      </trkpt>
      <trkpt lat="48.60376" lon="1.98062">
        <ele>116</ele>
        <time>2026-03-29T09:51:45Z</time>
      </trkpt>
      <trkpt lat="48.60377" lon="1.98059">
        <ele>115.6</ele>
        <time>2026-03-29T09:51:46Z</time>
      </trkpt>
      <trkpt lat="48.60379" lon="1.98056">
        <ele>115.6</ele>
        <time>2026-03-29T09:51:47Z</time>
      </trkpt>
      <trkpt lat="48.6038" lon="1.98052">
        <ele>115.6</ele>
        <time>2026-03-29T09:51:48Z</time>
      </trkpt>
      <trkpt lat="48.60382" lon="1.98049">
        <ele>116.4</ele>
        <time>2026-03-29T09:51:49Z</time>
      </trkpt>
      <trkpt lat="48.60383" lon="1.98046">
        <ele>116</ele>
        <time>2026-03-29T09:51:50Z</time>
      </trkpt>
      <trkpt lat="48.60385" lon="1.98042">
        <ele>116</ele>
        <time>2026-03-29T09:51:51Z</time>
      </trkpt>
      <trkpt lat="48.60386" lon="1.98039">
        <ele>116</ele>
        <time>2026-03-29T09:51:52Z</time>
      </trkpt>
      <trkpt lat="48.60388" lon="1.98036">
        <ele>116.8</ele>
        <time>2026-03-29T09:51:53Z</time>
      </trkpt>
      <trkpt lat="48.6039" lon="1.98032">
        <ele>117</ele>
        <time>2026-03-29T09:51:54Z</time>
      </trkpt>
      <trkpt lat="48.60391" lon="1.98029">
        <ele>117</ele>
        <time>2026-03-29T09:51:55Z</time>
      </trkpt>
      <trkpt lat="48.60393" lon="1.98026">
        <ele>117</ele>
        <time>2026-03-29T09:51:56Z</time>
      </trkpt>
      <trkpt lat="48.60395" lon="1.98022">
        <ele>117</ele>
        <time>2026-03-29T09:51:57Z</time>
      </trkpt>
      <trkpt lat="48.60397" lon="1.98018">
        <ele>117</ele>
        <time>2026-03-29T09:51:58Z</time>
      </trkpt>
      <trkpt lat="48.60399" lon="1.98015">
        <ele>117</ele>
        <time>2026-03-29T09:51:59Z</time>
      </trkpt>
      <trkpt lat="48.604" lon="1.98011">
        <ele>117</ele>
        <time>2026-03-29T09:52:00Z</time>
      </trkpt>
      <trkpt lat="48.60402" lon="1.98007">
        <ele>117</ele>
        <time>2026-03-29T09:52:01Z</time>
      </trkpt>
      <trkpt lat="48.60404" lon="1.98004">
        <ele>117.4</ele>
        <time>2026-03-29T09:52:02Z</time>
      </trkpt>
      <trkpt lat="48.60405" lon="1.98">
        <ele>117.4</ele>
        <time>2026-03-29T09:52:03Z</time>
      </trkpt>
      <trkpt lat="48.60407" lon="1.97996">
        <ele>117.4</ele>
        <time>2026-03-29T09:52:04Z</time>
      </trkpt>
      <trkpt lat="48.60409" lon="1.97993">
        <ele>118</ele>
        <time>2026-03-29T09:52:05Z</time>
      </trkpt>
      <trkpt lat="48.6041" lon="1.9799">
        <ele>117.8</ele>
        <time>2026-03-29T09:52:06Z</time>
      </trkpt>
      <trkpt lat="48.60412" lon="1.97986">
        <ele>117.8</ele>
        <time>2026-03-29T09:52:07Z</time>
      </trkpt>
      <trkpt lat="48.60414" lon="1.97982">
        <ele>117.8</ele>
        <time>2026-03-29T09:52:08Z</time>
      </trkpt>
      <trkpt lat="48.60415" lon="1.97979">
        <ele>117.8</ele>
        <time>2026-03-29T09:52:09Z</time>
      </trkpt>
      <trkpt lat="48.60417" lon="1.97975">
        <ele>118</ele>
        <time>2026-03-29T09:52:10Z</time>
      </trkpt>
      <trkpt lat="48.60419" lon="1.97971">
        <ele>118</ele>
        <time>2026-03-29T09:52:11Z</time>
      </trkpt>
      <trkpt lat="48.60421" lon="1.97967">
        <ele>118</ele>
        <time>2026-03-29T09:52:12Z</time>
      </trkpt>
      <trkpt lat="48.60423" lon="1.97963">
        <ele>118</ele>
        <time>2026-03-29T09:52:13Z</time>
      </trkpt>
      <trkpt lat="48.60425" lon="1.9796">
        <ele>118.4</ele>
        <time>2026-03-29T09:52:14Z</time>
      </trkpt>
      <trkpt lat="48.60427" lon="1.97956">
        <ele>118.4</ele>
        <time>2026-03-29T09:52:15Z</time>
      </trkpt>
      <trkpt lat="48.60429" lon="1.97952">
        <ele>118.4</ele>
        <time>2026-03-29T09:52:16Z</time>
      </trkpt>
      <trkpt lat="48.60431" lon="1.97947">
        <ele>118.4</ele>
        <time>2026-03-29T09:52:17Z</time>
      </trkpt>
      <trkpt lat="48.60433" lon="1.97943">
        <ele>118.8</ele>
        <time>2026-03-29T09:52:18Z</time>
      </trkpt>
      <trkpt lat="48.60435" lon="1.97939">
        <ele>118.8</ele>
        <time>2026-03-29T09:52:19Z</time>
      </trkpt>
      <trkpt lat="48.60437" lon="1.97935">
        <ele>118.8</ele>
        <time>2026-03-29T09:52:20Z</time>
      </trkpt>
      <trkpt lat="48.60439" lon="1.97931">
        <ele>118.8</ele>
        <time>2026-03-29T09:52:21Z</time>
      </trkpt>
      <trkpt lat="48.60441" lon="1.97927">
        <ele>118.6</ele>
        <time>2026-03-29T09:52:22Z</time>
      </trkpt>
      <trkpt lat="48.60443" lon="1.97923">
        <ele>118.6</ele>
        <time>2026-03-29T09:52:23Z</time>
      </trkpt>
      <trkpt lat="48.60445" lon="1.97919">
        <ele>118.6</ele>
        <time>2026-03-29T09:52:24Z</time>
      </trkpt>
      <trkpt lat="48.60446" lon="1.97915">
        <ele>118.8</ele>
        <time>2026-03-29T09:52:25Z</time>
      </trkpt>
      <trkpt lat="48.60448" lon="1.97911">
        <ele>118.4</ele>
        <time>2026-03-29T09:52:26Z</time>
      </trkpt>
      <trkpt lat="48.6045" lon="1.97906">
        <ele>118.4</ele>
        <time>2026-03-29T09:52:27Z</time>
      </trkpt>
      <trkpt lat="48.60452" lon="1.97902">
        <ele>118.4</ele>
        <time>2026-03-29T09:52:28Z</time>
      </trkpt>
      <trkpt lat="48.60453" lon="1.97897">
        <ele>118.4</ele>
        <time>2026-03-29T09:52:29Z</time>
      </trkpt>
      <trkpt lat="48.60456" lon="1.97892">
        <ele>118.6</ele>
        <time>2026-03-29T09:52:30Z</time>
      </trkpt>
      <trkpt lat="48.60458" lon="1.97888">
        <ele>118.6</ele>
        <time>2026-03-29T09:52:31Z</time>
      </trkpt>
      <trkpt lat="48.6046" lon="1.97883">
        <ele>118.6</ele>
        <time>2026-03-29T09:52:32Z</time>
      </trkpt>
      <trkpt lat="48.60462" lon="1.97879">
        <ele>118.8</ele>
        <time>2026-03-29T09:52:33Z</time>
      </trkpt>
      <trkpt lat="48.60464" lon="1.97875">
        <ele>119.2</ele>
        <time>2026-03-29T09:52:34Z</time>
      </trkpt>
      <trkpt lat="48.60466" lon="1.97871">
        <ele>119.2</ele>
        <time>2026-03-29T09:52:35Z</time>
      </trkpt>
      <trkpt lat="48.60469" lon="1.97867">
        <ele>119.2</ele>
        <time>2026-03-29T09:52:36Z</time>
      </trkpt>
      <trkpt lat="48.60471" lon="1.97862">
        <ele>118.6</ele>
        <time>2026-03-29T09:52:37Z</time>
      </trkpt>
      <trkpt lat="48.60473" lon="1.97858">
        <ele>119.2</ele>
        <time>2026-03-29T09:52:38Z</time>
      </trkpt>
      <trkpt lat="48.60475" lon="1.97853">
        <ele>119.2</ele>
        <time>2026-03-29T09:52:39Z</time>
      </trkpt>
      <trkpt lat="48.60478" lon="1.97848">
        <ele>119.2</ele>
        <time>2026-03-29T09:52:40Z</time>
      </trkpt>
      <trkpt lat="48.60479" lon="1.97843">
        <ele>119.2</ele>
        <time>2026-03-29T09:52:41Z</time>
      </trkpt>
      <trkpt lat="48.60481" lon="1.97839">
        <ele>119.4</ele>
        <time>2026-03-29T09:52:42Z</time>
      </trkpt>
      <trkpt lat="48.60483" lon="1.97834">
        <ele>119.4</ele>
        <time>2026-03-29T09:52:43Z</time>
      </trkpt>
      <trkpt lat="48.60485" lon="1.9783">
        <ele>119.4</ele>
        <time>2026-03-29T09:52:44Z</time>
      </trkpt>
      <trkpt lat="48.60487" lon="1.97825">
        <ele>119.4</ele>
        <time>2026-03-29T09:52:45Z</time>
      </trkpt>
      <trkpt lat="48.60489" lon="1.97822">
        <ele>119.4</ele>
        <time>2026-03-29T09:52:46Z</time>
      </trkpt>
      <trkpt lat="48.60491" lon="1.97818">
        <ele>119.4</ele>
        <time>2026-03-29T09:52:47Z</time>
      </trkpt>
      <trkpt lat="48.60493" lon="1.97813">
        <ele>119.4</ele>
        <time>2026-03-29T09:52:48Z</time>
      </trkpt>
      <trkpt lat="48.60495" lon="1.97809">
        <ele>119.4</ele>
        <time>2026-03-29T09:52:49Z</time>
      </trkpt>
      <trkpt lat="48.60496" lon="1.97804">
        <ele>119.2</ele>
        <time>2026-03-29T09:52:50Z</time>
      </trkpt>
      <trkpt lat="48.60498" lon="1.97799">
        <ele>119.2</ele>
        <time>2026-03-29T09:52:51Z</time>
      </trkpt>
      <trkpt lat="48.605" lon="1.97795">
        <ele>119.2</ele>
        <time>2026-03-29T09:52:52Z</time>
      </trkpt>
      <trkpt lat="48.60503" lon="1.9779">
        <ele>119.4</ele>
        <time>2026-03-29T09:52:53Z</time>
      </trkpt>
      <trkpt lat="48.60505" lon="1.97785">
        <ele>119.8</ele>
        <time>2026-03-29T09:52:54Z</time>
      </trkpt>
      <trkpt lat="48.60507" lon="1.9778">
        <ele>119.8</ele>
        <time>2026-03-29T09:52:55Z</time>
      </trkpt>
      <trkpt lat="48.60509" lon="1.97776">
        <ele>119.8</ele>
        <time>2026-03-29T09:52:56Z</time>
      </trkpt>
      <trkpt lat="48.60511" lon="1.97771">
        <ele>119.8</ele>
        <time>2026-03-29T09:52:57Z</time>
      </trkpt>
      <trkpt lat="48.60514" lon="1.97766">
        <ele>119.8</ele>
        <time>2026-03-29T09:52:58Z</time>
      </trkpt>
      <trkpt lat="48.60516" lon="1.97762">
        <ele>119.8</ele>
        <time>2026-03-29T09:52:59Z</time>
      </trkpt>
      <trkpt lat="48.60518" lon="1.97757">
        <ele>119.8</ele>
        <time>2026-03-29T09:53:00Z</time>
      </trkpt>
      <trkpt lat="48.60519" lon="1.97753">
        <ele>119.8</ele>
        <time>2026-03-29T09:53:01Z</time>
      </trkpt>
      <trkpt lat="48.60521" lon="1.97749">
        <ele>119.2</ele>
        <time>2026-03-29T09:53:02Z</time>
      </trkpt>
      <trkpt lat="48.60523" lon="1.97745">
        <ele>119.2</ele>
        <time>2026-03-29T09:53:03Z</time>
      </trkpt>
      <trkpt lat="48.60525" lon="1.9774">
        <ele>119.2</ele>
        <time>2026-03-29T09:53:04Z</time>
      </trkpt>
      <trkpt lat="48.60526" lon="1.97735">
        <ele>119.2</ele>
        <time>2026-03-29T09:53:05Z</time>
      </trkpt>
      <trkpt lat="48.60528" lon="1.9773">
        <ele>119.2</ele>
        <time>2026-03-29T09:53:06Z</time>
      </trkpt>
      <trkpt lat="48.60529" lon="1.97724">
        <ele>119.2</ele>
        <time>2026-03-29T09:53:07Z</time>
      </trkpt>
      <trkpt lat="48.6053" lon="1.97718">
        <ele>119.2</ele>
        <time>2026-03-29T09:53:08Z</time>
      </trkpt>
      <trkpt lat="48.60531" lon="1.97712">
        <ele>118.4</ele>
        <time>2026-03-29T09:53:09Z</time>
      </trkpt>
      <trkpt lat="48.60533" lon="1.97706">
        <ele>118.4</ele>
        <time>2026-03-29T09:53:10Z</time>
      </trkpt>
      <trkpt lat="48.60535" lon="1.97702">
        <ele>118.4</ele>
        <time>2026-03-29T09:53:11Z</time>
      </trkpt>
      <trkpt lat="48.60536" lon="1.97696">
        <ele>118.4</ele>
        <time>2026-03-29T09:53:12Z</time>
      </trkpt>
      <trkpt lat="48.60537" lon="1.97691">
        <ele>117.8</ele>
        <time>2026-03-29T09:53:13Z</time>
      </trkpt>
      <trkpt lat="48.60538" lon="1.97685">
        <ele>118.2</ele>
        <time>2026-03-29T09:53:14Z</time>
      </trkpt>
      <trkpt lat="48.60538" lon="1.97679">
        <ele>118.2</ele>
        <time>2026-03-29T09:53:15Z</time>
      </trkpt>
      <trkpt lat="48.60537" lon="1.97676">
        <ele>118.2</ele>
        <time>2026-03-29T09:53:16Z</time>
      </trkpt>
      <trkpt lat="48.60537" lon="1.97671">
        <ele>118</ele>
        <time>2026-03-29T09:53:17Z</time>
      </trkpt>
      <trkpt lat="48.60539" lon="1.97669">
        <ele>117.8</ele>
        <time>2026-03-29T09:53:18Z</time>
      </trkpt>
      <trkpt lat="48.60542" lon="1.97668">
        <ele>117.8</ele>
        <time>2026-03-29T09:53:19Z</time>
      </trkpt>
      <trkpt lat="48.60545" lon="1.97666">
        <ele>117.8</ele>
        <time>2026-03-29T09:53:20Z</time>
      </trkpt>
      <trkpt lat="48.60549" lon="1.97666">
        <ele>117.8</ele>
        <time>2026-03-29T09:53:21Z</time>
      </trkpt>
      <trkpt lat="48.60552" lon="1.97667">
        <ele>117.2</ele>
        <time>2026-03-29T09:53:22Z</time>
      </trkpt>
      <trkpt lat="48.60556" lon="1.97667">
        <ele>117.2</ele>
        <time>2026-03-29T09:53:23Z</time>
      </trkpt>
      <trkpt lat="48.60559" lon="1.97665">
        <ele>117.2</ele>
        <time>2026-03-29T09:53:24Z</time>
      </trkpt>
      <trkpt lat="48.60563" lon="1.97663">
        <ele>117.2</ele>
        <time>2026-03-29T09:53:25Z</time>
      </trkpt>
      <trkpt lat="48.60567" lon="1.97662">
        <ele>117</ele>
        <time>2026-03-29T09:53:26Z</time>
      </trkpt>
      <trkpt lat="48.60569" lon="1.97659">
        <ele>117</ele>
        <time>2026-03-29T09:53:27Z</time>
      </trkpt>
      <trkpt lat="48.6057" lon="1.97656">
        <ele>117</ele>
        <time>2026-03-29T09:53:28Z</time>
      </trkpt>
      <trkpt lat="48.60571" lon="1.97654">
        <ele>116</ele>
        <time>2026-03-29T09:53:29Z</time>
      </trkpt>
      <trkpt lat="48.60571" lon="1.97651">
        <ele>115.8</ele>
        <time>2026-03-29T09:53:30Z</time>
      </trkpt>
      <trkpt lat="48.60572" lon="1.97648">
        <ele>115.8</ele>
        <time>2026-03-29T09:53:31Z</time>
      </trkpt>
      <trkpt lat="48.60573" lon="1.97645">
        <ele>115.8</ele>
        <time>2026-03-29T09:53:32Z</time>
      </trkpt>
      <trkpt lat="48.60573" lon="1.97641">
        <ele>115.8</ele>
        <time>2026-03-29T09:53:33Z</time>
      </trkpt>
      <trkpt lat="48.60573" lon="1.97638">
        <ele>115.8</ele>
        <time>2026-03-29T09:53:34Z</time>
      </trkpt>
      <trkpt lat="48.60573" lon="1.97634">
        <ele>115.8</ele>
        <time>2026-03-29T09:53:35Z</time>
      </trkpt>
      <trkpt lat="48.60573" lon="1.9763">
        <ele>115.8</ele>
        <time>2026-03-29T09:53:36Z</time>
      </trkpt>
      <trkpt lat="48.60573" lon="1.97625">
        <ele>115.8</ele>
        <time>2026-03-29T09:53:37Z</time>
      </trkpt>
      <trkpt lat="48.60573" lon="1.9762">
        <ele>116</ele>
        <time>2026-03-29T09:53:38Z</time>
      </trkpt>
      <trkpt lat="48.60573" lon="1.97615">
        <ele>116</ele>
        <time>2026-03-29T09:53:39Z</time>
      </trkpt>
      <trkpt lat="48.60573" lon="1.97611">
        <ele>116</ele>
        <time>2026-03-29T09:53:40Z</time>
      </trkpt>
      <trkpt lat="48.60572" lon="1.97606">
        <ele>116</ele>
        <time>2026-03-29T09:53:41Z</time>
      </trkpt>
      <trkpt lat="48.6057" lon="1.97604">
        <ele>116</ele>
        <time>2026-03-29T09:53:42Z</time>
      </trkpt>
      <trkpt lat="48.60569" lon="1.976">
        <ele>116</ele>
        <time>2026-03-29T09:53:43Z</time>
      </trkpt>
      <trkpt lat="48.60568" lon="1.97595">
        <ele>116</ele>
        <time>2026-03-29T09:53:44Z</time>
      </trkpt>
      <trkpt lat="48.60567" lon="1.97592">
        <ele>116</ele>
        <time>2026-03-29T09:53:45Z</time>
      </trkpt>
      <trkpt lat="48.60566" lon="1.97587">
        <ele>116.4</ele>
        <time>2026-03-29T09:53:46Z</time>
      </trkpt>
      <trkpt lat="48.60566" lon="1.97583">
        <ele>116.4</ele>
        <time>2026-03-29T09:53:47Z</time>
      </trkpt>
      <trkpt lat="48.60567" lon="1.97579">
        <ele>116.4</ele>
        <time>2026-03-29T09:53:48Z</time>
      </trkpt>
      <trkpt lat="48.60569" lon="1.97576">
        <ele>116.4</ele>
        <time>2026-03-29T09:53:49Z</time>
      </trkpt>
      <trkpt lat="48.60571" lon="1.97573">
        <ele>116.8</ele>
        <time>2026-03-29T09:53:50Z</time>
      </trkpt>
      <trkpt lat="48.60573" lon="1.9757">
        <ele>116.8</ele>
        <time>2026-03-29T09:53:51Z</time>
      </trkpt>
      <trkpt lat="48.60575" lon="1.97566">
        <ele>116.8</ele>
        <time>2026-03-29T09:53:52Z</time>
      </trkpt>
      <trkpt lat="48.60577" lon="1.97563">
        <ele>116.8</ele>
        <time>2026-03-29T09:53:53Z</time>
      </trkpt>
      <trkpt lat="48.6058" lon="1.97559">
        <ele>117</ele>
        <time>2026-03-29T09:53:54Z</time>
      </trkpt>
      <trkpt lat="48.60582" lon="1.97556">
        <ele>117</ele>
        <time>2026-03-29T09:53:55Z</time>
      </trkpt>
      <trkpt lat="48.60584" lon="1.97554">
        <ele>117</ele>
        <time>2026-03-29T09:53:56Z</time>
      </trkpt>
      <trkpt lat="48.60584" lon="1.9755">
        <ele>117</ele>
        <time>2026-03-29T09:53:57Z</time>
      </trkpt>
      <trkpt lat="48.60584" lon="1.97546">
        <ele>116.6</ele>
        <time>2026-03-29T09:53:58Z</time>
      </trkpt>
      <trkpt lat="48.60582" lon="1.97542">
        <ele>116.6</ele>
        <time>2026-03-29T09:53:59Z</time>
      </trkpt>
      <trkpt lat="48.6058" lon="1.97539">
        <ele>116.6</ele>
        <time>2026-03-29T09:54:00Z</time>
      </trkpt>
      <trkpt lat="48.60577" lon="1.97536">
        <ele>117.4</ele>
        <time>2026-03-29T09:54:01Z</time>
      </trkpt>
      <trkpt lat="48.60575" lon="1.97533">
        <ele>117</ele>
        <time>2026-03-29T09:54:02Z</time>
      </trkpt>
      <trkpt lat="48.60574" lon="1.97529">
        <ele>117</ele>
        <time>2026-03-29T09:54:03Z</time>
      </trkpt>
      <trkpt lat="48.60571" lon="1.97525">
        <ele>117</ele>
        <time>2026-03-29T09:54:04Z</time>
      </trkpt>
      <trkpt lat="48.60569" lon="1.97523">
        <ele>117.6</ele>
        <time>2026-03-29T09:54:05Z</time>
      </trkpt>
      <trkpt lat="48.60566" lon="1.9752">
        <ele>117.6</ele>
        <time>2026-03-29T09:54:06Z</time>
      </trkpt>
      <trkpt lat="48.60564" lon="1.97517">
        <ele>117.6</ele>
        <time>2026-03-29T09:54:07Z</time>
      </trkpt>
      <trkpt lat="48.60562" lon="1.97513">
        <ele>117.6</ele>
        <time>2026-03-29T09:54:08Z</time>
      </trkpt>
      <trkpt lat="48.60559" lon="1.97511">
        <ele>117.8</ele>
        <time>2026-03-29T09:54:09Z</time>
      </trkpt>
      <trkpt lat="48.60556" lon="1.97509">
        <ele>118.4</ele>
        <time>2026-03-29T09:54:10Z</time>
      </trkpt>
      <trkpt lat="48.60554" lon="1.97506">
        <ele>118.4</ele>
        <time>2026-03-29T09:54:11Z</time>
      </trkpt>
      <trkpt lat="48.60551" lon="1.97503">
        <ele>118.4</ele>
        <time>2026-03-29T09:54:12Z</time>
      </trkpt>
      <trkpt lat="48.60549" lon="1.975">
        <ele>117.8</ele>
        <time>2026-03-29T09:54:13Z</time>
      </trkpt>
      <trkpt lat="48.60547" lon="1.97498">
        <ele>118.6</ele>
        <time>2026-03-29T09:54:14Z</time>
      </trkpt>
      <trkpt lat="48.60546" lon="1.97497">
        <ele>118.6</ele>
        <time>2026-03-29T09:54:15Z</time>
      </trkpt>
      <trkpt lat="48.60544" lon="1.97494">
        <ele>118.6</ele>
        <time>2026-03-29T09:54:16Z</time>
      </trkpt>
      <trkpt lat="48.60542" lon="1.97491">
        <ele>118.6</ele>
        <time>2026-03-29T09:54:17Z</time>
      </trkpt>
      <trkpt lat="48.60539" lon="1.97489">
        <ele>118.6</ele>
        <time>2026-03-29T09:54:18Z</time>
      </trkpt>
      <trkpt lat="48.60537" lon="1.97487">
        <ele>118.6</ele>
        <time>2026-03-29T09:54:19Z</time>
      </trkpt>
      <trkpt lat="48.60534" lon="1.97485">
        <ele>118.6</ele>
        <time>2026-03-29T09:54:20Z</time>
      </trkpt>
      <trkpt lat="48.60531" lon="1.97482">
        <ele>118.6</ele>
        <time>2026-03-29T09:54:21Z</time>
      </trkpt>
      <trkpt lat="48.60528" lon="1.97479">
        <ele>118.8</ele>
        <time>2026-03-29T09:54:22Z</time>
      </trkpt>
      <trkpt lat="48.60526" lon="1.97476">
        <ele>118.8</ele>
        <time>2026-03-29T09:54:23Z</time>
      </trkpt>
      <trkpt lat="48.60522" lon="1.97473">
        <ele>118.8</ele>
        <time>2026-03-29T09:54:24Z</time>
      </trkpt>
      <trkpt lat="48.6052" lon="1.97471">
        <ele>118.8</ele>
        <time>2026-03-29T09:54:25Z</time>
      </trkpt>
      <trkpt lat="48.60517" lon="1.97469">
        <ele>118.8</ele>
        <time>2026-03-29T09:54:26Z</time>
      </trkpt>
      <trkpt lat="48.60513" lon="1.97469">
        <ele>118.8</ele>
        <time>2026-03-29T09:54:27Z</time>
      </trkpt>
      <trkpt lat="48.60509" lon="1.97467">
        <ele>118.8</ele>
        <time>2026-03-29T09:54:28Z</time>
      </trkpt>
      <trkpt lat="48.60506" lon="1.97465">
        <ele>118.8</ele>
        <time>2026-03-29T09:54:29Z</time>
      </trkpt>
      <trkpt lat="48.60502" lon="1.97463">
        <ele>119.2</ele>
        <time>2026-03-29T09:54:30Z</time>
      </trkpt>
      <trkpt lat="48.60499" lon="1.9746">
        <ele>119.2</ele>
        <time>2026-03-29T09:54:31Z</time>
      </trkpt>
      <trkpt lat="48.60496" lon="1.97458">
        <ele>119.2</ele>
        <time>2026-03-29T09:54:32Z</time>
      </trkpt>
      <trkpt lat="48.60493" lon="1.97456">
        <ele>119.2</ele>
        <time>2026-03-29T09:54:33Z</time>
      </trkpt>
      <trkpt lat="48.6049" lon="1.97454">
        <ele>119.4</ele>
        <time>2026-03-29T09:54:34Z</time>
      </trkpt>
      <trkpt lat="48.60487" lon="1.97453">
        <ele>119.4</ele>
        <time>2026-03-29T09:54:35Z</time>
      </trkpt>
      <trkpt lat="48.60485" lon="1.97451">
        <ele>119.4</ele>
        <time>2026-03-29T09:54:36Z</time>
      </trkpt>
      <trkpt lat="48.60481" lon="1.97449">
        <ele>119.8</ele>
        <time>2026-03-29T09:54:37Z</time>
      </trkpt>
      <trkpt lat="48.60478" lon="1.97447">
        <ele>119.6</ele>
        <time>2026-03-29T09:54:38Z</time>
      </trkpt>
      <trkpt lat="48.60476" lon="1.97446">
        <ele>119.6</ele>
        <time>2026-03-29T09:54:39Z</time>
      </trkpt>
      <trkpt lat="48.60473" lon="1.97444">
        <ele>119.6</ele>
        <time>2026-03-29T09:54:40Z</time>
      </trkpt>
      <trkpt lat="48.6047" lon="1.97441">
        <ele>120.6</ele>
        <time>2026-03-29T09:54:41Z</time>
      </trkpt>
      <trkpt lat="48.60468" lon="1.97438">
        <ele>119.8</ele>
        <time>2026-03-29T09:54:42Z</time>
      </trkpt>
      <trkpt lat="48.60467" lon="1.97435">
        <ele>119.8</ele>
        <time>2026-03-29T09:54:43Z</time>
      </trkpt>
      <trkpt lat="48.60465" lon="1.97432">
        <ele>119.8</ele>
        <time>2026-03-29T09:54:44Z</time>
      </trkpt>
      <trkpt lat="48.60463" lon="1.97429">
        <ele>120.2</ele>
        <time>2026-03-29T09:54:45Z</time>
      </trkpt>
      <trkpt lat="48.60461" lon="1.97426">
        <ele>120.6</ele>
        <time>2026-03-29T09:54:46Z</time>
      </trkpt>
      <trkpt lat="48.6046" lon="1.97423">
        <ele>120.6</ele>
        <time>2026-03-29T09:54:47Z</time>
      </trkpt>
      <trkpt lat="48.60459" lon="1.9742">
        <ele>120.6</ele>
        <time>2026-03-29T09:54:48Z</time>
      </trkpt>
      <trkpt lat="48.60457" lon="1.97416">
        <ele>120.6</ele>
        <time>2026-03-29T09:54:49Z</time>
      </trkpt>
      <trkpt lat="48.60456" lon="1.97412">
        <ele>121.2</ele>
        <time>2026-03-29T09:54:50Z</time>
      </trkpt>
      <trkpt lat="48.60453" lon="1.97409">
        <ele>121.2</ele>
        <time>2026-03-29T09:54:51Z</time>
      </trkpt>
      <trkpt lat="48.60451" lon="1.97407">
        <ele>121.2</ele>
        <time>2026-03-29T09:54:52Z</time>
      </trkpt>
      <trkpt lat="48.60449" lon="1.97404">
        <ele>121.2</ele>
        <time>2026-03-29T09:54:53Z</time>
      </trkpt>
      <trkpt lat="48.60447" lon="1.97401">
        <ele>121</ele>
        <time>2026-03-29T09:54:54Z</time>
      </trkpt>
      <trkpt lat="48.60444" lon="1.97398">
        <ele>121</ele>
        <time>2026-03-29T09:54:55Z</time>
      </trkpt>
      <trkpt lat="48.60443" lon="1.97396">
        <ele>121</ele>
        <time>2026-03-29T09:54:56Z</time>
      </trkpt>
      <trkpt lat="48.60441" lon="1.97393">
        <ele>121.6</ele>
        <time>2026-03-29T09:54:57Z</time>
      </trkpt>
      <trkpt lat="48.60439" lon="1.97389">
        <ele>121.6</ele>
        <time>2026-03-29T09:54:58Z</time>
      </trkpt>
      <trkpt lat="48.60437" lon="1.97386">
        <ele>121.6</ele>
        <time>2026-03-29T09:54:59Z</time>
      </trkpt>
      <trkpt lat="48.60435" lon="1.97383">
        <ele>121.6</ele>
        <time>2026-03-29T09:55:00Z</time>
      </trkpt>
      <trkpt lat="48.60433" lon="1.97379">
        <ele>121.6</ele>
        <time>2026-03-29T09:55:01Z</time>
      </trkpt>
      <trkpt lat="48.60431" lon="1.97375">
        <ele>121.8</ele>
        <time>2026-03-29T09:55:02Z</time>
      </trkpt>
      <trkpt lat="48.60429" lon="1.97373">
        <ele>121.8</ele>
        <time>2026-03-29T09:55:03Z</time>
      </trkpt>
      <trkpt lat="48.60426" lon="1.9737">
        <ele>121.8</ele>
        <time>2026-03-29T09:55:04Z</time>
      </trkpt>
      <trkpt lat="48.60423" lon="1.97367">
        <ele>121.8</ele>
        <time>2026-03-29T09:55:05Z</time>
      </trkpt>
      <trkpt lat="48.6042" lon="1.97366">
        <ele>121.6</ele>
        <time>2026-03-29T09:55:06Z</time>
      </trkpt>
      <trkpt lat="48.60417" lon="1.97365">
        <ele>121.6</ele>
        <time>2026-03-29T09:55:07Z</time>
      </trkpt>
      <trkpt lat="48.60415" lon="1.97363">
        <ele>121.6</ele>
        <time>2026-03-29T09:55:08Z</time>
      </trkpt>
      <trkpt lat="48.60413" lon="1.9736">
        <ele>122.6</ele>
        <time>2026-03-29T09:55:09Z</time>
      </trkpt>
      <trkpt lat="48.60411" lon="1.97356">
        <ele>122.6</ele>
        <time>2026-03-29T09:55:10Z</time>
      </trkpt>
      <trkpt lat="48.60409" lon="1.97354">
        <ele>122.6</ele>
        <time>2026-03-29T09:55:11Z</time>
      </trkpt>
      <trkpt lat="48.60406" lon="1.97352">
        <ele>122.6</ele>
        <time>2026-03-29T09:55:12Z</time>
      </trkpt>
      <trkpt lat="48.60404" lon="1.97349">
        <ele>122.6</ele>
        <time>2026-03-29T09:55:13Z</time>
      </trkpt>
      <trkpt lat="48.60401" lon="1.97347">
        <ele>123.2</ele>
        <time>2026-03-29T09:55:14Z</time>
      </trkpt>
      <trkpt lat="48.60399" lon="1.97345">
        <ele>123.2</ele>
        <time>2026-03-29T09:55:15Z</time>
      </trkpt>
      <trkpt lat="48.60396" lon="1.97343">
        <ele>123.2</ele>
        <time>2026-03-29T09:55:16Z</time>
      </trkpt>
      <trkpt lat="48.60394" lon="1.9734">
        <ele>123.8</ele>
        <time>2026-03-29T09:55:17Z</time>
      </trkpt>
      <trkpt lat="48.60391" lon="1.97337">
        <ele>123.8</ele>
        <time>2026-03-29T09:55:18Z</time>
      </trkpt>
      <trkpt lat="48.6039" lon="1.97335">
        <ele>123.8</ele>
        <time>2026-03-29T09:55:19Z</time>
      </trkpt>
      <trkpt lat="48.60388" lon="1.97333">
        <ele>123.8</ele>
        <time>2026-03-29T09:55:20Z</time>
      </trkpt>
      <trkpt lat="48.60386" lon="1.97331">
        <ele>124.6</ele>
        <time>2026-03-29T09:55:21Z</time>
      </trkpt>
      <trkpt lat="48.60385" lon="1.97329">
        <ele>125</ele>
        <time>2026-03-29T09:55:22Z</time>
      </trkpt>
      <trkpt lat="48.60383" lon="1.97326">
        <ele>125</ele>
        <time>2026-03-29T09:55:23Z</time>
      </trkpt>
      <trkpt lat="48.60382" lon="1.97323">
        <ele>125</ele>
        <time>2026-03-29T09:55:24Z</time>
      </trkpt>
      <trkpt lat="48.6038" lon="1.97319">
        <ele>125</ele>
        <time>2026-03-29T09:55:25Z</time>
      </trkpt>
      <trkpt lat="48.60378" lon="1.97317">
        <ele>124.8</ele>
        <time>2026-03-29T09:55:26Z</time>
      </trkpt>
      <trkpt lat="48.60375" lon="1.97314">
        <ele>124.8</ele>
        <time>2026-03-29T09:55:27Z</time>
      </trkpt>
      <trkpt lat="48.60372" lon="1.97312">
        <ele>124.8</ele>
        <time>2026-03-29T09:55:28Z</time>
      </trkpt>
      <trkpt lat="48.6037" lon="1.9731">
        <ele>125.8</ele>
        <time>2026-03-29T09:55:29Z</time>
      </trkpt>
      <trkpt lat="48.60367" lon="1.97307">
        <ele>126</ele>
        <time>2026-03-29T09:55:30Z</time>
      </trkpt>
      <trkpt lat="48.60365" lon="1.97305">
        <ele>126</ele>
        <time>2026-03-29T09:55:31Z</time>
      </trkpt>
      <trkpt lat="48.60363" lon="1.97303">
        <ele>126</ele>
        <time>2026-03-29T09:55:32Z</time>
      </trkpt>
      <trkpt lat="48.6036" lon="1.973">
        <ele>126.4</ele>
        <time>2026-03-29T09:55:33Z</time>
      </trkpt>
      <trkpt lat="48.60358" lon="1.97298">
        <ele>126.2</ele>
        <time>2026-03-29T09:55:34Z</time>
      </trkpt>
      <trkpt lat="48.60356" lon="1.97296">
        <ele>126.2</ele>
        <time>2026-03-29T09:55:35Z</time>
      </trkpt>
      <trkpt lat="48.60354" lon="1.97294">
        <ele>126.2</ele>
        <time>2026-03-29T09:55:36Z</time>
      </trkpt>
      <trkpt lat="48.60352" lon="1.97292">
        <ele>127.2</ele>
        <time>2026-03-29T09:55:37Z</time>
      </trkpt>
      <trkpt lat="48.6035" lon="1.9729">
        <ele>126.8</ele>
        <time>2026-03-29T09:55:38Z</time>
      </trkpt>
      <trkpt lat="48.60348" lon="1.97288">
        <ele>126.8</ele>
        <time>2026-03-29T09:55:39Z</time>
      </trkpt>
      <trkpt lat="48.60346" lon="1.97286">
        <ele>126.8</ele>
        <time>2026-03-29T09:55:40Z</time>
      </trkpt>
      <trkpt lat="48.60344" lon="1.97284">
        <ele>127.8</ele>
        <time>2026-03-29T09:55:41Z</time>
      </trkpt>
      <trkpt lat="48.60342" lon="1.97282">
        <ele>127.6</ele>
        <time>2026-03-29T09:55:42Z</time>
      </trkpt>
      <trkpt lat="48.60341" lon="1.97279">
        <ele>127.6</ele>
        <time>2026-03-29T09:55:43Z</time>
      </trkpt>
      <trkpt lat="48.60339" lon="1.97275">
        <ele>127.6</ele>
        <time>2026-03-29T09:55:44Z</time>
      </trkpt>
      <trkpt lat="48.60338" lon="1.97271">
        <ele>127.8</ele>
        <time>2026-03-29T09:55:45Z</time>
      </trkpt>
      <trkpt lat="48.60337" lon="1.97267">
        <ele>128</ele>
        <time>2026-03-29T09:55:46Z</time>
      </trkpt>
      <trkpt lat="48.60336" lon="1.97263">
        <ele>128</ele>
        <time>2026-03-29T09:55:47Z</time>
      </trkpt>
      <trkpt lat="48.60335" lon="1.97259">
        <ele>128</ele>
        <time>2026-03-29T09:55:48Z</time>
      </trkpt>
      <trkpt lat="48.60334" lon="1.97255">
        <ele>128.4</ele>
        <time>2026-03-29T09:55:49Z</time>
      </trkpt>
      <trkpt lat="48.60332" lon="1.97251">
        <ele>128.4</ele>
        <time>2026-03-29T09:55:50Z</time>
      </trkpt>
      <trkpt lat="48.6033" lon="1.97247">
        <ele>128.4</ele>
        <time>2026-03-29T09:55:51Z</time>
      </trkpt>
      <trkpt lat="48.60329" lon="1.97243">
        <ele>128.4</ele>
        <time>2026-03-29T09:55:52Z</time>
      </trkpt>
      <trkpt lat="48.60327" lon="1.97239">
        <ele>129</ele>
        <time>2026-03-29T09:55:53Z</time>
      </trkpt>
      <trkpt lat="48.60326" lon="1.97236">
        <ele>129</ele>
        <time>2026-03-29T09:55:54Z</time>
      </trkpt>
      <trkpt lat="48.60324" lon="1.97232">
        <ele>129</ele>
        <time>2026-03-29T09:55:55Z</time>
      </trkpt>
      <trkpt lat="48.60323" lon="1.97228">
        <ele>129</ele>
        <time>2026-03-29T09:55:56Z</time>
      </trkpt>
      <trkpt lat="48.60322" lon="1.97223">
        <ele>129</ele>
        <time>2026-03-29T09:55:57Z</time>
      </trkpt>
      <trkpt lat="48.60321" lon="1.97219">
        <ele>129</ele>
        <time>2026-03-29T09:55:58Z</time>
      </trkpt>
      <trkpt lat="48.60319" lon="1.97216">
        <ele>129</ele>
        <time>2026-03-29T09:55:59Z</time>
      </trkpt>
      <trkpt lat="48.60316" lon="1.97214">
        <ele>129</ele>
        <time>2026-03-29T09:56:00Z</time>
      </trkpt>
      <trkpt lat="48.60314" lon="1.97213">
        <ele>129.6</ele>
        <time>2026-03-29T09:56:01Z</time>
      </trkpt>
      <trkpt lat="48.60311" lon="1.97211">
        <ele>130</ele>
        <time>2026-03-29T09:56:02Z</time>
      </trkpt>
      <trkpt lat="48.60308" lon="1.97208">
        <ele>130</ele>
        <time>2026-03-29T09:56:03Z</time>
      </trkpt>
      <trkpt lat="48.60306" lon="1.97205">
        <ele>130</ele>
        <time>2026-03-29T09:56:04Z</time>
      </trkpt>
      <trkpt lat="48.60305" lon="1.97202">
        <ele>130</ele>
        <time>2026-03-29T09:56:05Z</time>
      </trkpt>
      <trkpt lat="48.60303" lon="1.97199">
        <ele>130.2</ele>
        <time>2026-03-29T09:56:06Z</time>
      </trkpt>
      <trkpt lat="48.60301" lon="1.97197">
        <ele>130.2</ele>
        <time>2026-03-29T09:56:07Z</time>
      </trkpt>
      <trkpt lat="48.60299" lon="1.97194">
        <ele>130.2</ele>
        <time>2026-03-29T09:56:08Z</time>
      </trkpt>
      <trkpt lat="48.60297" lon="1.97192">
        <ele>130.4</ele>
        <time>2026-03-29T09:56:09Z</time>
      </trkpt>
      <trkpt lat="48.60296" lon="1.97189">
        <ele>130.8</ele>
        <time>2026-03-29T09:56:10Z</time>
      </trkpt>
      <trkpt lat="48.60294" lon="1.97187">
        <ele>130.8</ele>
        <time>2026-03-29T09:56:11Z</time>
      </trkpt>
      <trkpt lat="48.60292" lon="1.97185">
        <ele>130.8</ele>
        <time>2026-03-29T09:56:12Z</time>
      </trkpt>
      <trkpt lat="48.60291" lon="1.97181">
        <ele>130.8</ele>
        <time>2026-03-29T09:56:13Z</time>
      </trkpt>
      <trkpt lat="48.6029" lon="1.97178">
        <ele>131</ele>
        <time>2026-03-29T09:56:14Z</time>
      </trkpt>
      <trkpt lat="48.6029" lon="1.97173">
        <ele>131</ele>
        <time>2026-03-29T09:56:15Z</time>
      </trkpt>
      <trkpt lat="48.60289" lon="1.97168">
        <ele>131</ele>
        <time>2026-03-29T09:56:16Z</time>
      </trkpt>
      <trkpt lat="48.60288" lon="1.97164">
        <ele>131.4</ele>
        <time>2026-03-29T09:56:17Z</time>
      </trkpt>
      <trkpt lat="48.60287" lon="1.9716">
        <ele>131.6</ele>
        <time>2026-03-29T09:56:18Z</time>
      </trkpt>
      <trkpt lat="48.60286" lon="1.97155">
        <ele>131.6</ele>
        <time>2026-03-29T09:56:19Z</time>
      </trkpt>
      <trkpt lat="48.60286" lon="1.97151">
        <ele>131.6</ele>
        <time>2026-03-29T09:56:20Z</time>
      </trkpt>
      <trkpt lat="48.60285" lon="1.97146">
        <ele>131.6</ele>
        <time>2026-03-29T09:56:21Z</time>
      </trkpt>
      <trkpt lat="48.60283" lon="1.97142">
        <ele>132.4</ele>
        <time>2026-03-29T09:56:22Z</time>
      </trkpt>
      <trkpt lat="48.60281" lon="1.97138">
        <ele>132.4</ele>
        <time>2026-03-29T09:56:23Z</time>
      </trkpt>
      <trkpt lat="48.6028" lon="1.97135">
        <ele>132.4</ele>
        <time>2026-03-29T09:56:24Z</time>
      </trkpt>
      <trkpt lat="48.6028" lon="1.97131">
        <ele>132</ele>
        <time>2026-03-29T09:56:25Z</time>
      </trkpt>
      <trkpt lat="48.60278" lon="1.97127">
        <ele>132.4</ele>
        <time>2026-03-29T09:56:26Z</time>
      </trkpt>
      <trkpt lat="48.60276" lon="1.97125">
        <ele>132.4</ele>
        <time>2026-03-29T09:56:27Z</time>
      </trkpt>
      <trkpt lat="48.60273" lon="1.97122">
        <ele>132.4</ele>
        <time>2026-03-29T09:56:28Z</time>
      </trkpt>
      <trkpt lat="48.6027" lon="1.97121">
        <ele>132.4</ele>
        <time>2026-03-29T09:56:29Z</time>
      </trkpt>
      <trkpt lat="48.60267" lon="1.9712">
        <ele>132.4</ele>
        <time>2026-03-29T09:56:30Z</time>
      </trkpt>
      <trkpt lat="48.60265" lon="1.97119">
        <ele>132.4</ele>
        <time>2026-03-29T09:56:31Z</time>
      </trkpt>
      <trkpt lat="48.60263" lon="1.97117">
        <ele>132.4</ele>
        <time>2026-03-29T09:56:32Z</time>
      </trkpt>
      <trkpt lat="48.60261" lon="1.97116">
        <ele>133.2</ele>
        <time>2026-03-29T09:56:33Z</time>
      </trkpt>
      <trkpt lat="48.60258" lon="1.97116">
        <ele>133.4</ele>
        <time>2026-03-29T09:56:34Z</time>
      </trkpt>
      <trkpt lat="48.60256" lon="1.97114">
        <ele>133.4</ele>
        <time>2026-03-29T09:56:35Z</time>
      </trkpt>
      <trkpt lat="48.60254" lon="1.97114">
        <ele>133.4</ele>
        <time>2026-03-29T09:56:36Z</time>
      </trkpt>
      <trkpt lat="48.60252" lon="1.97113">
        <ele>133.4</ele>
        <time>2026-03-29T09:56:37Z</time>
      </trkpt>
      <trkpt lat="48.60249" lon="1.97112">
        <ele>133.6</ele>
        <time>2026-03-29T09:56:38Z</time>
      </trkpt>
      <trkpt lat="48.60248" lon="1.97112">
        <ele>133.6</ele>
        <time>2026-03-29T09:56:39Z</time>
      </trkpt>
      <trkpt lat="48.60246" lon="1.97111">
        <ele>133.6</ele>
        <time>2026-03-29T09:56:40Z</time>
      </trkpt>
      <trkpt lat="48.60244" lon="1.9711">
        <ele>134.2</ele>
        <time>2026-03-29T09:56:41Z</time>
      </trkpt>
      <trkpt lat="48.60242" lon="1.97109">
        <ele>134.2</ele>
        <time>2026-03-29T09:56:42Z</time>
      </trkpt>
      <trkpt lat="48.6024" lon="1.97108">
        <ele>134.2</ele>
        <time>2026-03-29T09:56:43Z</time>
      </trkpt>
      <trkpt lat="48.60238" lon="1.97107">
        <ele>134.2</ele>
        <time>2026-03-29T09:56:44Z</time>
      </trkpt>
      <trkpt lat="48.60237" lon="1.97106">
        <ele>134.2</ele>
        <time>2026-03-29T09:56:45Z</time>
      </trkpt>
      <trkpt lat="48.60235" lon="1.97105">
        <ele>134.8</ele>
        <time>2026-03-29T09:56:46Z</time>
      </trkpt>
      <trkpt lat="48.60233" lon="1.97103">
        <ele>134.8</ele>
        <time>2026-03-29T09:56:47Z</time>
      </trkpt>
      <trkpt lat="48.60231" lon="1.97101">
        <ele>134.8</ele>
        <time>2026-03-29T09:56:48Z</time>
      </trkpt>
      <trkpt lat="48.60228" lon="1.971">
        <ele>135.2</ele>
        <time>2026-03-29T09:56:49Z</time>
      </trkpt>
      <trkpt lat="48.60226" lon="1.971">
        <ele>135.6</ele>
        <time>2026-03-29T09:56:50Z</time>
      </trkpt>
      <trkpt lat="48.60224" lon="1.97099">
        <ele>135.6</ele>
        <time>2026-03-29T09:56:51Z</time>
      </trkpt>
      <trkpt lat="48.60222" lon="1.97098">
        <ele>135.6</ele>
        <time>2026-03-29T09:56:52Z</time>
      </trkpt>
      <trkpt lat="48.6022" lon="1.97097">
        <ele>135.6</ele>
        <time>2026-03-29T09:56:53Z</time>
      </trkpt>
      <trkpt lat="48.60219" lon="1.97096">
        <ele>136</ele>
        <time>2026-03-29T09:56:54Z</time>
      </trkpt>
      <trkpt lat="48.60216" lon="1.97094">
        <ele>136</ele>
        <time>2026-03-29T09:56:55Z</time>
      </trkpt>
      <trkpt lat="48.60215" lon="1.97093">
        <ele>136</ele>
        <time>2026-03-29T09:56:56Z</time>
      </trkpt>
      <trkpt lat="48.60213" lon="1.97091">
        <ele>136</ele>
        <time>2026-03-29T09:56:57Z</time>
      </trkpt>
      <trkpt lat="48.60211" lon="1.9709">
        <ele>136.6</ele>
        <time>2026-03-29T09:56:58Z</time>
      </trkpt>
      <trkpt lat="48.60209" lon="1.97089">
        <ele>136.6</ele>
        <time>2026-03-29T09:56:59Z</time>
      </trkpt>
      <trkpt lat="48.60207" lon="1.97087">
        <ele>136.6</ele>
        <time>2026-03-29T09:57:00Z</time>
      </trkpt>
      <trkpt lat="48.60205" lon="1.97086">
        <ele>137.2</ele>
        <time>2026-03-29T09:57:01Z</time>
      </trkpt>
      <trkpt lat="48.60203" lon="1.97086">
        <ele>137.8</ele>
        <time>2026-03-29T09:57:02Z</time>
      </trkpt>
      <trkpt lat="48.60202" lon="1.97085">
        <ele>137.8</ele>
        <time>2026-03-29T09:57:03Z</time>
      </trkpt>
      <trkpt lat="48.60199" lon="1.97085">
        <ele>137.8</ele>
        <time>2026-03-29T09:57:04Z</time>
      </trkpt>
      <trkpt lat="48.60197" lon="1.97085">
        <ele>137.8</ele>
        <time>2026-03-29T09:57:05Z</time>
      </trkpt>
      <trkpt lat="48.60195" lon="1.97085">
        <ele>138.4</ele>
        <time>2026-03-29T09:57:06Z</time>
      </trkpt>
      <trkpt lat="48.60193" lon="1.97084">
        <ele>138.4</ele>
        <time>2026-03-29T09:57:07Z</time>
      </trkpt>
      <trkpt lat="48.60191" lon="1.97084">
        <ele>138.4</ele>
        <time>2026-03-29T09:57:08Z</time>
      </trkpt>
      <trkpt lat="48.60188" lon="1.97083">
        <ele>138.8</ele>
        <time>2026-03-29T09:57:09Z</time>
      </trkpt>
      <trkpt lat="48.60186" lon="1.97083">
        <ele>139.4</ele>
        <time>2026-03-29T09:57:10Z</time>
      </trkpt>
      <trkpt lat="48.60183" lon="1.97083">
        <ele>139.4</ele>
        <time>2026-03-29T09:57:11Z</time>
      </trkpt>
      <trkpt lat="48.60181" lon="1.97084">
        <ele>139.4</ele>
        <time>2026-03-29T09:57:12Z</time>
      </trkpt>
      <trkpt lat="48.60178" lon="1.97083">
        <ele>139.4</ele>
        <time>2026-03-29T09:57:13Z</time>
      </trkpt>
      <trkpt lat="48.60176" lon="1.97083">
        <ele>139.6</ele>
        <time>2026-03-29T09:57:14Z</time>
      </trkpt>
      <trkpt lat="48.60173" lon="1.97083">
        <ele>139.6</ele>
        <time>2026-03-29T09:57:15Z</time>
      </trkpt>
      <trkpt lat="48.60171" lon="1.97084">
        <ele>139.6</ele>
        <time>2026-03-29T09:57:16Z</time>
      </trkpt>
      <trkpt lat="48.60169" lon="1.97084">
        <ele>140.6</ele>
        <time>2026-03-29T09:57:17Z</time>
      </trkpt>
      <trkpt lat="48.60166" lon="1.97085">
        <ele>140.8</ele>
        <time>2026-03-29T09:57:18Z</time>
      </trkpt>
      <trkpt lat="48.60164" lon="1.97084">
        <ele>140.8</ele>
        <time>2026-03-29T09:57:19Z</time>
      </trkpt>
      <trkpt lat="48.60162" lon="1.97084">
        <ele>140.8</ele>
        <time>2026-03-29T09:57:20Z</time>
      </trkpt>
      <trkpt lat="48.60159" lon="1.97084">
        <ele>140.8</ele>
        <time>2026-03-29T09:57:21Z</time>
      </trkpt>
      <trkpt lat="48.60157" lon="1.97083">
        <ele>141.6</ele>
        <time>2026-03-29T09:57:22Z</time>
      </trkpt>
      <trkpt lat="48.60154" lon="1.97083">
        <ele>141.6</ele>
        <time>2026-03-29T09:57:23Z</time>
      </trkpt>
      <trkpt lat="48.60152" lon="1.97083">
        <ele>141.6</ele>
        <time>2026-03-29T09:57:24Z</time>
      </trkpt>
      <trkpt lat="48.6015" lon="1.97083">
        <ele>142</ele>
        <time>2026-03-29T09:57:25Z</time>
      </trkpt>
      <trkpt lat="48.60148" lon="1.97083">
        <ele>142.8</ele>
        <time>2026-03-29T09:57:26Z</time>
      </trkpt>
      <trkpt lat="48.60145" lon="1.97082">
        <ele>142.8</ele>
        <time>2026-03-29T09:57:27Z</time>
      </trkpt>
      <trkpt lat="48.60144" lon="1.97081">
        <ele>142.8</ele>
        <time>2026-03-29T09:57:28Z</time>
      </trkpt>
      <trkpt lat="48.60142" lon="1.9708">
        <ele>142.8</ele>
        <time>2026-03-29T09:57:29Z</time>
      </trkpt>
      <trkpt lat="48.6014" lon="1.97079">
        <ele>143.2</ele>
        <time>2026-03-29T09:57:30Z</time>
      </trkpt>
      <trkpt lat="48.60138" lon="1.97079">
        <ele>143.2</ele>
        <time>2026-03-29T09:57:31Z</time>
      </trkpt>
      <trkpt lat="48.60136" lon="1.97078">
        <ele>143.2</ele>
        <time>2026-03-29T09:57:32Z</time>
      </trkpt>
      <trkpt lat="48.60134" lon="1.97078">
        <ele>143.8</ele>
        <time>2026-03-29T09:57:33Z</time>
      </trkpt>
      <trkpt lat="48.60132" lon="1.97078">
        <ele>143.8</ele>
        <time>2026-03-29T09:57:34Z</time>
      </trkpt>
      <trkpt lat="48.60129" lon="1.97078">
        <ele>143.8</ele>
        <time>2026-03-29T09:57:35Z</time>
      </trkpt>
      <trkpt lat="48.60127" lon="1.97077">
        <ele>143.8</ele>
        <time>2026-03-29T09:57:36Z</time>
      </trkpt>
      <trkpt lat="48.60125" lon="1.97077">
        <ele>144.2</ele>
        <time>2026-03-29T09:57:37Z</time>
      </trkpt>
      <trkpt lat="48.60123" lon="1.97076">
        <ele>144.2</ele>
        <time>2026-03-29T09:57:38Z</time>
      </trkpt>
      <trkpt lat="48.60121" lon="1.97076">
        <ele>144.2</ele>
        <time>2026-03-29T09:57:39Z</time>
      </trkpt>
      <trkpt lat="48.60118" lon="1.97076">
        <ele>144.2</ele>
        <time>2026-03-29T09:57:40Z</time>
      </trkpt>
      <trkpt lat="48.60116" lon="1.97076">
        <ele>145.2</ele>
        <time>2026-03-29T09:57:41Z</time>
      </trkpt>
      <trkpt lat="48.60114" lon="1.97075">
        <ele>145.6</ele>
        <time>2026-03-29T09:57:42Z</time>
      </trkpt>
      <trkpt lat="48.60112" lon="1.97076">
        <ele>145.6</ele>
        <time>2026-03-29T09:57:43Z</time>
      </trkpt>
      <trkpt lat="48.6011" lon="1.97076">
        <ele>145.6</ele>
        <time>2026-03-29T09:57:44Z</time>
      </trkpt>
      <trkpt lat="48.60108" lon="1.97075">
        <ele>145.6</ele>
        <time>2026-03-29T09:57:45Z</time>
      </trkpt>
      <trkpt lat="48.60105" lon="1.97076">
        <ele>146</ele>
        <time>2026-03-29T09:57:46Z</time>
      </trkpt>
      <trkpt lat="48.60103" lon="1.97076">
        <ele>146</ele>
        <time>2026-03-29T09:57:47Z</time>
      </trkpt>
      <trkpt lat="48.60101" lon="1.97076">
        <ele>146</ele>
        <time>2026-03-29T09:57:48Z</time>
      </trkpt>
      <trkpt lat="48.60099" lon="1.97076">
        <ele>147</ele>
        <time>2026-03-29T09:57:49Z</time>
      </trkpt>
      <trkpt lat="48.60097" lon="1.97077">
        <ele>146.6</ele>
        <time>2026-03-29T09:57:50Z</time>
      </trkpt>
      <trkpt lat="48.60095" lon="1.97077">
        <ele>146.6</ele>
        <time>2026-03-29T09:57:51Z</time>
      </trkpt>
      <trkpt lat="48.60093" lon="1.97078">
        <ele>146.6</ele>
        <time>2026-03-29T09:57:52Z</time>
      </trkpt>
      <trkpt lat="48.60091" lon="1.97079">
        <ele>147.6</ele>
        <time>2026-03-29T09:57:53Z</time>
      </trkpt>
      <trkpt lat="48.60089" lon="1.9708">
        <ele>147.4</ele>
        <time>2026-03-29T09:57:54Z</time>
      </trkpt>
      <trkpt lat="48.60087" lon="1.97081">
        <ele>147.4</ele>
        <time>2026-03-29T09:57:55Z</time>
      </trkpt>
      <trkpt lat="48.60085" lon="1.97082">
        <ele>147.4</ele>
        <time>2026-03-29T09:57:56Z</time>
      </trkpt>
      <trkpt lat="48.60082" lon="1.97083">
        <ele>147.8</ele>
        <time>2026-03-29T09:57:57Z</time>
      </trkpt>
      <trkpt lat="48.6008" lon="1.97084">
        <ele>147.8</ele>
        <time>2026-03-29T09:57:58Z</time>
      </trkpt>
      <trkpt lat="48.60077" lon="1.97085">
        <ele>147.8</ele>
        <time>2026-03-29T09:57:59Z</time>
      </trkpt>
      <trkpt lat="48.60075" lon="1.97087">
        <ele>147.8</ele>
        <time>2026-03-29T09:58:00Z</time>
      </trkpt>
      <trkpt lat="48.60072" lon="1.97089">
        <ele>147.8</ele>
        <time>2026-03-29T09:58:01Z</time>
      </trkpt>
      <trkpt lat="48.6007" lon="1.97091">
        <ele>148.2</ele>
        <time>2026-03-29T09:58:02Z</time>
      </trkpt>
      <trkpt lat="48.60067" lon="1.97092">
        <ele>148.2</ele>
        <time>2026-03-29T09:58:03Z</time>
      </trkpt>
      <trkpt lat="48.60064" lon="1.97095">
        <ele>148.2</ele>
        <time>2026-03-29T09:58:04Z</time>
      </trkpt>
      <trkpt lat="48.60061" lon="1.97098">
        <ele>147.8</ele>
        <time>2026-03-29T09:58:05Z</time>
      </trkpt>
      <trkpt lat="48.60058" lon="1.97101">
        <ele>148</ele>
        <time>2026-03-29T09:58:06Z</time>
      </trkpt>
      <trkpt lat="48.60055" lon="1.97103">
        <ele>148</ele>
        <time>2026-03-29T09:58:07Z</time>
      </trkpt>
      <trkpt lat="48.60053" lon="1.97106">
        <ele>148</ele>
        <time>2026-03-29T09:58:08Z</time>
      </trkpt>
      <trkpt lat="48.6005" lon="1.97109">
        <ele>148</ele>
        <time>2026-03-29T09:58:09Z</time>
      </trkpt>
      <trkpt lat="48.60047" lon="1.97112">
        <ele>148.4</ele>
        <time>2026-03-29T09:58:10Z</time>
      </trkpt>
      <trkpt lat="48.60045" lon="1.97115">
        <ele>148.4</ele>
        <time>2026-03-29T09:58:11Z</time>
      </trkpt>
      <trkpt lat="48.60042" lon="1.97118">
        <ele>148.4</ele>
        <time>2026-03-29T09:58:12Z</time>
      </trkpt>
      <trkpt lat="48.60039" lon="1.9712">
        <ele>148.2</ele>
        <time>2026-03-29T09:58:13Z</time>
      </trkpt>
      <trkpt lat="48.60036" lon="1.97123">
        <ele>148.4</ele>
        <time>2026-03-29T09:58:14Z</time>
      </trkpt>
      <trkpt lat="48.60033" lon="1.97126">
        <ele>148.4</ele>
        <time>2026-03-29T09:58:15Z</time>
      </trkpt>
      <trkpt lat="48.6003" lon="1.97129">
        <ele>148.4</ele>
        <time>2026-03-29T09:58:16Z</time>
      </trkpt>
      <trkpt lat="48.60027" lon="1.97131">
        <ele>148.4</ele>
        <time>2026-03-29T09:58:17Z</time>
      </trkpt>
      <trkpt lat="48.60024" lon="1.97131">
        <ele>149</ele>
        <time>2026-03-29T09:58:18Z</time>
      </trkpt>
      <trkpt lat="48.60021" lon="1.97132">
        <ele>149</ele>
        <time>2026-03-29T09:58:19Z</time>
      </trkpt>
      <trkpt lat="48.60018" lon="1.97133">
        <ele>149</ele>
        <time>2026-03-29T09:58:20Z</time>
      </trkpt>
      <trkpt lat="48.60015" lon="1.97133">
        <ele>149</ele>
        <time>2026-03-29T09:58:21Z</time>
      </trkpt>
      <trkpt lat="48.60012" lon="1.97134">
        <ele>149.2</ele>
        <time>2026-03-29T09:58:22Z</time>
      </trkpt>
      <trkpt lat="48.60008" lon="1.97135">
        <ele>149.2</ele>
        <time>2026-03-29T09:58:23Z</time>
      </trkpt>
      <trkpt lat="48.60005" lon="1.97136">
        <ele>149.2</ele>
        <time>2026-03-29T09:58:24Z</time>
      </trkpt>
      <trkpt lat="48.60001" lon="1.97137">
        <ele>149.2</ele>
        <time>2026-03-29T09:58:25Z</time>
      </trkpt>
      <trkpt lat="48.59997" lon="1.97138">
        <ele>149</ele>
        <time>2026-03-29T09:58:26Z</time>
      </trkpt>
      <trkpt lat="48.59993" lon="1.97138">
        <ele>149</ele>
        <time>2026-03-29T09:58:27Z</time>
      </trkpt>
      <trkpt lat="48.59989" lon="1.97139">
        <ele>149</ele>
        <time>2026-03-29T09:58:28Z</time>
      </trkpt>
      <trkpt lat="48.59985" lon="1.97139">
        <ele>148.6</ele>
        <time>2026-03-29T09:58:29Z</time>
      </trkpt>
      <trkpt lat="48.59981" lon="1.97139">
        <ele>149.2</ele>
        <time>2026-03-29T09:58:30Z</time>
      </trkpt>
      <trkpt lat="48.59976" lon="1.97139">
        <ele>149.2</ele>
        <time>2026-03-29T09:58:31Z</time>
      </trkpt>
      <trkpt lat="48.59972" lon="1.97137">
        <ele>149.2</ele>
        <time>2026-03-29T09:58:32Z</time>
      </trkpt>
      <trkpt lat="48.59968" lon="1.97136">
        <ele>149.2</ele>
        <time>2026-03-29T09:58:33Z</time>
      </trkpt>
      <trkpt lat="48.59964" lon="1.97134">
        <ele>149</ele>
        <time>2026-03-29T09:58:34Z</time>
      </trkpt>
      <trkpt lat="48.5996" lon="1.97132">
        <ele>149</ele>
        <time>2026-03-29T09:58:35Z</time>
      </trkpt>
      <trkpt lat="48.59957" lon="1.9713">
        <ele>149</ele>
        <time>2026-03-29T09:58:36Z</time>
      </trkpt>
      <trkpt lat="48.59954" lon="1.97127">
        <ele>149</ele>
        <time>2026-03-29T09:58:37Z</time>
      </trkpt>
      <trkpt lat="48.59951" lon="1.97124">
        <ele>149.4</ele>
        <time>2026-03-29T09:58:38Z</time>
      </trkpt>
      <trkpt lat="48.59947" lon="1.97121">
        <ele>149.4</ele>
        <time>2026-03-29T09:58:39Z</time>
      </trkpt>
      <trkpt lat="48.59944" lon="1.97118">
        <ele>149.4</ele>
        <time>2026-03-29T09:58:40Z</time>
      </trkpt>
      <trkpt lat="48.5994" lon="1.97116">
        <ele>149.4</ele>
        <time>2026-03-29T09:58:41Z</time>
      </trkpt>
      <trkpt lat="48.59937" lon="1.97113">
        <ele>149.2</ele>
        <time>2026-03-29T09:58:42Z</time>
      </trkpt>
      <trkpt lat="48.59933" lon="1.9711">
        <ele>149.2</ele>
        <time>2026-03-29T09:58:43Z</time>
      </trkpt>
      <trkpt lat="48.59929" lon="1.97107">
        <ele>149.2</ele>
        <time>2026-03-29T09:58:44Z</time>
      </trkpt>
      <trkpt lat="48.59925" lon="1.97104">
        <ele>149.2</ele>
        <time>2026-03-29T09:58:45Z</time>
      </trkpt>
      <trkpt lat="48.59922" lon="1.97101">
        <ele>149.2</ele>
        <time>2026-03-29T09:58:46Z</time>
      </trkpt>
      <trkpt lat="48.59918" lon="1.97098">
        <ele>149.2</ele>
        <time>2026-03-29T09:58:47Z</time>
      </trkpt>
      <trkpt lat="48.59914" lon="1.97094">
        <ele>149.2</ele>
        <time>2026-03-29T09:58:48Z</time>
      </trkpt>
      <trkpt lat="48.59911" lon="1.9709">
        <ele>150.2</ele>
        <time>2026-03-29T09:58:49Z</time>
      </trkpt>
      <trkpt lat="48.59908" lon="1.97087">
        <ele>149.4</ele>
        <time>2026-03-29T09:58:50Z</time>
      </trkpt>
      <trkpt lat="48.59905" lon="1.97083">
        <ele>149.4</ele>
        <time>2026-03-29T09:58:51Z</time>
      </trkpt>
      <trkpt lat="48.59903" lon="1.9708">
        <ele>149.4</ele>
        <time>2026-03-29T09:58:52Z</time>
      </trkpt>
      <trkpt lat="48.599" lon="1.97077">
        <ele>150.4</ele>
        <time>2026-03-29T09:58:53Z</time>
      </trkpt>
      <trkpt lat="48.59896" lon="1.97073">
        <ele>150.2</ele>
        <time>2026-03-29T09:58:54Z</time>
      </trkpt>
      <trkpt lat="48.59893" lon="1.97071">
        <ele>150.2</ele>
        <time>2026-03-29T09:58:55Z</time>
      </trkpt>
      <trkpt lat="48.5989" lon="1.97067">
        <ele>150.2</ele>
        <time>2026-03-29T09:58:56Z</time>
      </trkpt>
      <trkpt lat="48.59886" lon="1.97064">
        <ele>150.2</ele>
        <time>2026-03-29T09:58:57Z</time>
      </trkpt>
      <trkpt lat="48.59882" lon="1.97062">
        <ele>150</ele>
        <time>2026-03-29T09:58:58Z</time>
      </trkpt>
      <trkpt lat="48.59878" lon="1.97059">
        <ele>150</ele>
        <time>2026-03-29T09:58:59Z</time>
      </trkpt>
      <trkpt lat="48.59874" lon="1.97056">
        <ele>150</ele>
        <time>2026-03-29T09:59:00Z</time>
      </trkpt>
      <trkpt lat="48.59871" lon="1.97052">
        <ele>150.6</ele>
        <time>2026-03-29T09:59:01Z</time>
      </trkpt>
      <trkpt lat="48.59868" lon="1.97049">
        <ele>150.8</ele>
        <time>2026-03-29T09:59:02Z</time>
      </trkpt>
      <trkpt lat="48.59864" lon="1.97047">
        <ele>150.8</ele>
        <time>2026-03-29T09:59:03Z</time>
      </trkpt>
      <trkpt lat="48.59861" lon="1.97044">
        <ele>150.8</ele>
        <time>2026-03-29T09:59:04Z</time>
      </trkpt>
      <trkpt lat="48.59857" lon="1.97041">
        <ele>150.8</ele>
        <time>2026-03-29T09:59:05Z</time>
      </trkpt>
      <trkpt lat="48.59854" lon="1.97039">
        <ele>150.2</ele>
        <time>2026-03-29T09:59:06Z</time>
      </trkpt>
      <trkpt lat="48.59851" lon="1.97034">
        <ele>150.2</ele>
        <time>2026-03-29T09:59:07Z</time>
      </trkpt>
      <trkpt lat="48.59847" lon="1.9703">
        <ele>150.2</ele>
        <time>2026-03-29T09:59:08Z</time>
      </trkpt>
      <trkpt lat="48.59844" lon="1.97026">
        <ele>151.2</ele>
        <time>2026-03-29T09:59:09Z</time>
      </trkpt>
      <trkpt lat="48.5984" lon="1.97022">
        <ele>150.8</ele>
        <time>2026-03-29T09:59:10Z</time>
      </trkpt>
      <trkpt lat="48.59836" lon="1.97017">
        <ele>150.8</ele>
        <time>2026-03-29T09:59:11Z</time>
      </trkpt>
      <trkpt lat="48.59832" lon="1.97013">
        <ele>150.8</ele>
        <time>2026-03-29T09:59:12Z</time>
      </trkpt>
      <trkpt lat="48.59828" lon="1.97009">
        <ele>150.6</ele>
        <time>2026-03-29T09:59:13Z</time>
      </trkpt>
      <trkpt lat="48.59824" lon="1.97006">
        <ele>151</ele>
        <time>2026-03-29T09:59:14Z</time>
      </trkpt>
      <trkpt lat="48.5982" lon="1.97002">
        <ele>151</ele>
        <time>2026-03-29T09:59:15Z</time>
      </trkpt>
      <trkpt lat="48.59817" lon="1.96998">
        <ele>151</ele>
        <time>2026-03-29T09:59:16Z</time>
      </trkpt>
      <trkpt lat="48.59813" lon="1.96994">
        <ele>151</ele>
        <time>2026-03-29T09:59:17Z</time>
      </trkpt>
      <trkpt lat="48.59809" lon="1.9699">
        <ele>151.6</ele>
        <time>2026-03-29T09:59:18Z</time>
      </trkpt>
      <trkpt lat="48.59805" lon="1.96986">
        <ele>151.6</ele>
        <time>2026-03-29T09:59:19Z</time>
      </trkpt>
      <trkpt lat="48.59802" lon="1.96982">
        <ele>151.6</ele>
        <time>2026-03-29T09:59:20Z</time>
      </trkpt>
      <trkpt lat="48.59799" lon="1.96978">
        <ele>151.6</ele>
        <time>2026-03-29T09:59:21Z</time>
      </trkpt>
      <trkpt lat="48.59796" lon="1.96975">
        <ele>152.2</ele>
        <time>2026-03-29T09:59:22Z</time>
      </trkpt>
      <trkpt lat="48.59794" lon="1.96972">
        <ele>152.2</ele>
        <time>2026-03-29T09:59:23Z</time>
      </trkpt>
      <trkpt lat="48.59791" lon="1.96968">
        <ele>152.2</ele>
        <time>2026-03-29T09:59:24Z</time>
      </trkpt>
      <trkpt lat="48.59788" lon="1.96965">
        <ele>152.2</ele>
        <time>2026-03-29T09:59:25Z</time>
      </trkpt>
      <trkpt lat="48.59785" lon="1.96962">
        <ele>152.4</ele>
        <time>2026-03-29T09:59:26Z</time>
      </trkpt>
      <trkpt lat="48.59781" lon="1.96959">
        <ele>152.4</ele>
        <time>2026-03-29T09:59:27Z</time>
      </trkpt>
      <trkpt lat="48.59778" lon="1.96956">
        <ele>152.4</ele>
        <time>2026-03-29T09:59:28Z</time>
      </trkpt>
      <trkpt lat="48.59774" lon="1.96952">
        <ele>152.2</ele>
        <time>2026-03-29T09:59:29Z</time>
      </trkpt>
      <trkpt lat="48.59771" lon="1.96948">
        <ele>152.2</ele>
        <time>2026-03-29T09:59:30Z</time>
      </trkpt>
      <trkpt lat="48.59768" lon="1.96945">
        <ele>152.2</ele>
        <time>2026-03-29T09:59:31Z</time>
      </trkpt>
      <trkpt lat="48.59765" lon="1.96941">
        <ele>152.2</ele>
        <time>2026-03-29T09:59:32Z</time>
      </trkpt>
      <trkpt lat="48.59761" lon="1.96937">
        <ele>152.4</ele>
        <time>2026-03-29T09:59:33Z</time>
      </trkpt>
      <trkpt lat="48.59758" lon="1.96934">
        <ele>152.4</ele>
        <time>2026-03-29T09:59:34Z</time>
      </trkpt>
      <trkpt lat="48.59755" lon="1.96931">
        <ele>152.4</ele>
        <time>2026-03-29T09:59:35Z</time>
      </trkpt>
      <trkpt lat="48.59752" lon="1.96927">
        <ele>152.4</ele>
        <time>2026-03-29T09:59:36Z</time>
      </trkpt>
      <trkpt lat="48.5975" lon="1.96924">
        <ele>152.4</ele>
        <time>2026-03-29T09:59:37Z</time>
      </trkpt>
      <trkpt lat="48.59747" lon="1.96921">
        <ele>153</ele>
        <time>2026-03-29T09:59:38Z</time>
      </trkpt>
      <trkpt lat="48.59743" lon="1.96917">
        <ele>153</ele>
        <time>2026-03-29T09:59:39Z</time>
      </trkpt>
      <trkpt lat="48.59739" lon="1.96913">
        <ele>153</ele>
        <time>2026-03-29T09:59:40Z</time>
      </trkpt>
      <trkpt lat="48.59736" lon="1.9691">
        <ele>152.2</ele>
        <time>2026-03-29T09:59:41Z</time>
      </trkpt>
      <trkpt lat="48.59732" lon="1.96906">
        <ele>152.2</ele>
        <time>2026-03-29T09:59:42Z</time>
      </trkpt>
      <trkpt lat="48.59728" lon="1.96902">
        <ele>152.2</ele>
        <time>2026-03-29T09:59:43Z</time>
      </trkpt>
      <trkpt lat="48.59724" lon="1.96899">
        <ele>152.2</ele>
        <time>2026-03-29T09:59:44Z</time>
      </trkpt>
      <trkpt lat="48.5972" lon="1.96895">
        <ele>152.2</ele>
        <time>2026-03-29T09:59:45Z</time>
      </trkpt>
      <trkpt lat="48.59715" lon="1.96891">
        <ele>151.6</ele>
        <time>2026-03-29T09:59:46Z</time>
      </trkpt>
      <trkpt lat="48.5971" lon="1.96886">
        <ele>151.6</ele>
        <time>2026-03-29T09:59:47Z</time>
      </trkpt>
      <trkpt lat="48.59706" lon="1.9688">
        <ele>151.6</ele>
        <time>2026-03-29T09:59:48Z</time>
      </trkpt>
      <trkpt lat="48.59701" lon="1.96875">
        <ele>150.6</ele>
        <time>2026-03-29T09:59:49Z</time>
      </trkpt>
      <trkpt lat="48.59696" lon="1.96869">
        <ele>149.8</ele>
        <time>2026-03-29T09:59:50Z</time>
      </trkpt>
      <trkpt lat="48.59691" lon="1.96864">
        <ele>149.8</ele>
        <time>2026-03-29T09:59:51Z</time>
      </trkpt>
      <trkpt lat="48.59685" lon="1.9686">
        <ele>149.8</ele>
        <time>2026-03-29T09:59:52Z</time>
      </trkpt>
      <trkpt lat="48.5968" lon="1.96856">
        <ele>150.4</ele>
        <time>2026-03-29T09:59:53Z</time>
      </trkpt>
      <trkpt lat="48.59675" lon="1.96852">
        <ele>150.8</ele>
        <time>2026-03-29T09:59:54Z</time>
      </trkpt>
      <trkpt lat="48.59672" lon="1.96849">
        <ele>150.8</ele>
        <time>2026-03-29T09:59:55Z</time>
      </trkpt>
      <trkpt lat="48.59668" lon="1.96845">
        <ele>150.8</ele>
        <time>2026-03-29T09:59:56Z</time>
      </trkpt>
      <trkpt lat="48.59665" lon="1.96842">
        <ele>150.8</ele>
        <time>2026-03-29T09:59:57Z</time>
      </trkpt>
      <trkpt lat="48.59662" lon="1.96839">
        <ele>151.4</ele>
        <time>2026-03-29T09:59:58Z</time>
      </trkpt>
      <trkpt lat="48.5966" lon="1.96836">
        <ele>151.4</ele>
        <time>2026-03-29T09:59:59Z</time>
      </trkpt>
      <trkpt lat="48.59657" lon="1.96833">
        <ele>151.4</ele>
        <time>2026-03-29T10:00:00Z</time>
      </trkpt>
      <trkpt lat="48.59655" lon="1.96831">
        <ele>151.8</ele>
        <time>2026-03-29T10:00:01Z</time>
      </trkpt>
      <trkpt lat="48.59652" lon="1.96829">
        <ele>152.2</ele>
        <time>2026-03-29T10:00:02Z</time>
      </trkpt>
      <trkpt lat="48.5965" lon="1.96827">
        <ele>152.2</ele>
        <time>2026-03-29T10:00:03Z</time>
      </trkpt>
      <trkpt lat="48.59647" lon="1.96824">
        <ele>152.2</ele>
        <time>2026-03-29T10:00:04Z</time>
      </trkpt>
      <trkpt lat="48.59645" lon="1.96822">
        <ele>152.2</ele>
        <time>2026-03-29T10:00:05Z</time>
      </trkpt>
      <trkpt lat="48.59643" lon="1.96819">
        <ele>152.6</ele>
        <time>2026-03-29T10:00:06Z</time>
      </trkpt>
      <trkpt lat="48.5964" lon="1.96817">
        <ele>152.6</ele>
        <time>2026-03-29T10:00:07Z</time>
      </trkpt>
      <trkpt lat="48.59638" lon="1.96814">
        <ele>152.6</ele>
        <time>2026-03-29T10:00:08Z</time>
      </trkpt>
      <trkpt lat="48.59636" lon="1.96812">
        <ele>152.6</ele>
        <time>2026-03-29T10:00:09Z</time>
      </trkpt>
      <trkpt lat="48.59633" lon="1.9681">
        <ele>153.2</ele>
        <time>2026-03-29T10:00:10Z</time>
      </trkpt>
      <trkpt lat="48.59631" lon="1.96807">
        <ele>153.2</ele>
        <time>2026-03-29T10:00:11Z</time>
      </trkpt>
      <trkpt lat="48.59628" lon="1.96805">
        <ele>153.2</ele>
        <time>2026-03-29T10:00:12Z</time>
      </trkpt>
      <trkpt lat="48.59626" lon="1.96802">
        <ele>153.2</ele>
        <time>2026-03-29T10:00:13Z</time>
      </trkpt>
      <trkpt lat="48.59623" lon="1.968">
        <ele>153.6</ele>
        <time>2026-03-29T10:00:14Z</time>
      </trkpt>
      <trkpt lat="48.59621" lon="1.96798">
        <ele>153.6</ele>
        <time>2026-03-29T10:00:15Z</time>
      </trkpt>
      <trkpt lat="48.59619" lon="1.96795">
        <ele>153.6</ele>
        <time>2026-03-29T10:00:16Z</time>
      </trkpt>
      <trkpt lat="48.59616" lon="1.96793">
        <ele>153.6</ele>
        <time>2026-03-29T10:00:17Z</time>
      </trkpt>
      <trkpt lat="48.59614" lon="1.9679">
        <ele>153.8</ele>
        <time>2026-03-29T10:00:18Z</time>
      </trkpt>
      <trkpt lat="48.59612" lon="1.96788">
        <ele>153.8</ele>
        <time>2026-03-29T10:00:19Z</time>
      </trkpt>
      <trkpt lat="48.59609" lon="1.96785">
        <ele>153.8</ele>
        <time>2026-03-29T10:00:20Z</time>
      </trkpt>
      <trkpt lat="48.59607" lon="1.96783">
        <ele>153.8</ele>
        <time>2026-03-29T10:00:21Z</time>
      </trkpt>
      <trkpt lat="48.59604" lon="1.9678">
        <ele>153.8</ele>
        <time>2026-03-29T10:00:22Z</time>
      </trkpt>
      <trkpt lat="48.59601" lon="1.96778">
        <ele>153.8</ele>
        <time>2026-03-29T10:00:23Z</time>
      </trkpt>
      <trkpt lat="48.59599" lon="1.96775">
        <ele>153.8</ele>
        <time>2026-03-29T10:00:24Z</time>
      </trkpt>
      <trkpt lat="48.59597" lon="1.96772">
        <ele>153.8</ele>
        <time>2026-03-29T10:00:25Z</time>
      </trkpt>
      <trkpt lat="48.59594" lon="1.96769">
        <ele>153.6</ele>
        <time>2026-03-29T10:00:26Z</time>
      </trkpt>
      <trkpt lat="48.59592" lon="1.96767">
        <ele>153.6</ele>
        <time>2026-03-29T10:00:27Z</time>
      </trkpt>
      <trkpt lat="48.59589" lon="1.96764">
        <ele>153.6</ele>
        <time>2026-03-29T10:00:28Z</time>
      </trkpt>
      <trkpt lat="48.59587" lon="1.96762">
        <ele>153</ele>
        <time>2026-03-29T10:00:29Z</time>
      </trkpt>
      <trkpt lat="48.59584" lon="1.96759">
        <ele>154</ele>
        <time>2026-03-29T10:00:30Z</time>
      </trkpt>
      <trkpt lat="48.59582" lon="1.96756">
        <ele>154</ele>
        <time>2026-03-29T10:00:31Z</time>
      </trkpt>
      <trkpt lat="48.5958" lon="1.96754">
        <ele>154</ele>
        <time>2026-03-29T10:00:32Z</time>
      </trkpt>
      <trkpt lat="48.59577" lon="1.96751">
        <ele>154</ele>
        <time>2026-03-29T10:00:33Z</time>
      </trkpt>
      <trkpt lat="48.59575" lon="1.96748">
        <ele>154.2</ele>
        <time>2026-03-29T10:00:34Z</time>
      </trkpt>
      <trkpt lat="48.59573" lon="1.96746">
        <ele>154.2</ele>
        <time>2026-03-29T10:00:35Z</time>
      </trkpt>
      <trkpt lat="48.59571" lon="1.96744">
        <ele>154.2</ele>
        <time>2026-03-29T10:00:36Z</time>
      </trkpt>
      <trkpt lat="48.59569" lon="1.96741">
        <ele>154.8</ele>
        <time>2026-03-29T10:00:37Z</time>
      </trkpt>
      <trkpt lat="48.59568" lon="1.96739">
        <ele>155</ele>
        <time>2026-03-29T10:00:38Z</time>
      </trkpt>
      <trkpt lat="48.59566" lon="1.96736">
        <ele>155</ele>
        <time>2026-03-29T10:00:39Z</time>
      </trkpt>
      <trkpt lat="48.59563" lon="1.96734">
        <ele>155</ele>
        <time>2026-03-29T10:00:40Z</time>
      </trkpt>
      <trkpt lat="48.59561" lon="1.96732">
        <ele>155</ele>
        <time>2026-03-29T10:00:41Z</time>
      </trkpt>
      <trkpt lat="48.59559" lon="1.9673">
        <ele>155.4</ele>
        <time>2026-03-29T10:00:42Z</time>
      </trkpt>
      <trkpt lat="48.59556" lon="1.96728">
        <ele>155.4</ele>
        <time>2026-03-29T10:00:43Z</time>
      </trkpt>
      <trkpt lat="48.59554" lon="1.96725">
        <ele>155.4</ele>
        <time>2026-03-29T10:00:44Z</time>
      </trkpt>
      <trkpt lat="48.59552" lon="1.96722">
        <ele>155.4</ele>
        <time>2026-03-29T10:00:45Z</time>
      </trkpt>
      <trkpt lat="48.5955" lon="1.96719">
        <ele>156.2</ele>
        <time>2026-03-29T10:00:46Z</time>
      </trkpt>
      <trkpt lat="48.59548" lon="1.96717">
        <ele>156.2</ele>
        <time>2026-03-29T10:00:47Z</time>
      </trkpt>
      <trkpt lat="48.59546" lon="1.96715">
        <ele>156.2</ele>
        <time>2026-03-29T10:00:48Z</time>
      </trkpt>
      <trkpt lat="48.59543" lon="1.96712">
        <ele>155.6</ele>
        <time>2026-03-29T10:00:49Z</time>
      </trkpt>
      <trkpt lat="48.59541" lon="1.9671">
        <ele>156</ele>
        <time>2026-03-29T10:00:50Z</time>
      </trkpt>
      <trkpt lat="48.59538" lon="1.96708">
        <ele>156</ele>
        <time>2026-03-29T10:00:51Z</time>
      </trkpt>
      <trkpt lat="48.59536" lon="1.96706">
        <ele>156</ele>
        <time>2026-03-29T10:00:52Z</time>
      </trkpt>
      <trkpt lat="48.59533" lon="1.96703">
        <ele>156</ele>
        <time>2026-03-29T10:00:53Z</time>
      </trkpt>
      <trkpt lat="48.59531" lon="1.96701">
        <ele>156.6</ele>
        <time>2026-03-29T10:00:54Z</time>
      </trkpt>
      <trkpt lat="48.59528" lon="1.96699">
        <ele>156.6</ele>
        <time>2026-03-29T10:00:55Z</time>
      </trkpt>
      <trkpt lat="48.59526" lon="1.96696">
        <ele>156.6</ele>
        <time>2026-03-29T10:00:56Z</time>
      </trkpt>
      <trkpt lat="48.59523" lon="1.96694">
        <ele>155.8</ele>
        <time>2026-03-29T10:00:57Z</time>
      </trkpt>
      <trkpt lat="48.59521" lon="1.96691">
        <ele>156.4</ele>
        <time>2026-03-29T10:00:58Z</time>
      </trkpt>
      <trkpt lat="48.59519" lon="1.96689">
        <ele>156.4</ele>
        <time>2026-03-29T10:00:59Z</time>
      </trkpt>
      <trkpt lat="48.59516" lon="1.96686">
        <ele>156.4</ele>
        <time>2026-03-29T10:01:00Z</time>
      </trkpt>
      <trkpt lat="48.59514" lon="1.96684">
        <ele>157.2</ele>
        <time>2026-03-29T10:01:01Z</time>
      </trkpt>
      <trkpt lat="48.59511" lon="1.96681">
        <ele>156.8</ele>
        <time>2026-03-29T10:01:02Z</time>
      </trkpt>
      <trkpt lat="48.59509" lon="1.96679">
        <ele>156.8</ele>
        <time>2026-03-29T10:01:03Z</time>
      </trkpt>
      <trkpt lat="48.59506" lon="1.96676">
        <ele>156.8</ele>
        <time>2026-03-29T10:01:04Z</time>
      </trkpt>
      <trkpt lat="48.59504" lon="1.96674">
        <ele>157.4</ele>
        <time>2026-03-29T10:01:05Z</time>
      </trkpt>
      <trkpt lat="48.59501" lon="1.96671">
        <ele>158.2</ele>
        <time>2026-03-29T10:01:06Z</time>
      </trkpt>
      <trkpt lat="48.59499" lon="1.96669">
        <ele>158.2</ele>
        <time>2026-03-29T10:01:07Z</time>
      </trkpt>
      <trkpt lat="48.59497" lon="1.96667">
        <ele>158.2</ele>
        <time>2026-03-29T10:01:08Z</time>
      </trkpt>
      <trkpt lat="48.59494" lon="1.96665">
        <ele>158.2</ele>
        <time>2026-03-29T10:01:09Z</time>
      </trkpt>
      <trkpt lat="48.59492" lon="1.96662">
        <ele>157.4</ele>
        <time>2026-03-29T10:01:10Z</time>
      </trkpt>
      <trkpt lat="48.5949" lon="1.96659">
        <ele>157.4</ele>
        <time>2026-03-29T10:01:11Z</time>
      </trkpt>
      <trkpt lat="48.59487" lon="1.96657">
        <ele>157.4</ele>
        <time>2026-03-29T10:01:12Z</time>
      </trkpt>
      <trkpt lat="48.59483" lon="1.96655">
        <ele>157.4</ele>
        <time>2026-03-29T10:01:13Z</time>
      </trkpt>
      <trkpt lat="48.59479" lon="1.96652">
        <ele>156.6</ele>
        <time>2026-03-29T10:01:14Z</time>
      </trkpt>
      <trkpt lat="48.59475" lon="1.96649">
        <ele>156.6</ele>
        <time>2026-03-29T10:01:15Z</time>
      </trkpt>
      <trkpt lat="48.59471" lon="1.96647">
        <ele>156.6</ele>
        <time>2026-03-29T10:01:16Z</time>
      </trkpt>
      <trkpt lat="48.59466" lon="1.96643">
        <ele>155.6</ele>
        <time>2026-03-29T10:01:17Z</time>
      </trkpt>
      <trkpt lat="48.5946" lon="1.96639">
        <ele>154.4</ele>
        <time>2026-03-29T10:01:18Z</time>
      </trkpt>
      <trkpt lat="48.59455" lon="1.96634">
        <ele>154.4</ele>
        <time>2026-03-29T10:01:19Z</time>
      </trkpt>
      <trkpt lat="48.5945" lon="1.96629">
        <ele>154.4</ele>
        <time>2026-03-29T10:01:20Z</time>
      </trkpt>
      <trkpt lat="48.59445" lon="1.96625">
        <ele>154.4</ele>
        <time>2026-03-29T10:01:21Z</time>
      </trkpt>
      <trkpt lat="48.59441" lon="1.96623">
        <ele>153.6</ele>
        <time>2026-03-29T10:01:22Z</time>
      </trkpt>
      <trkpt lat="48.59437" lon="1.96624">
        <ele>153.6</ele>
        <time>2026-03-29T10:01:23Z</time>
      </trkpt>
      <trkpt lat="48.59434" lon="1.96627">
        <ele>153.6</ele>
        <time>2026-03-29T10:01:24Z</time>
      </trkpt>
      <trkpt lat="48.59431" lon="1.96632">
        <ele>152.8</ele>
        <time>2026-03-29T10:01:25Z</time>
      </trkpt>
      <trkpt lat="48.5943" lon="1.96637">
        <ele>152.6</ele>
        <time>2026-03-29T10:01:26Z</time>
      </trkpt>
      <trkpt lat="48.59429" lon="1.96642">
        <ele>152.6</ele>
        <time>2026-03-29T10:01:27Z</time>
      </trkpt>
      <trkpt lat="48.59427" lon="1.96647">
        <ele>152.6</ele>
        <time>2026-03-29T10:01:28Z</time>
      </trkpt>
      <trkpt lat="48.59425" lon="1.96651">
        <ele>152.2</ele>
        <time>2026-03-29T10:01:29Z</time>
      </trkpt>
      <trkpt lat="48.59422" lon="1.96654">
        <ele>152</ele>
        <time>2026-03-29T10:01:30Z</time>
      </trkpt>
      <trkpt lat="48.5942" lon="1.96658">
        <ele>152</ele>
        <time>2026-03-29T10:01:31Z</time>
      </trkpt>
      <trkpt lat="48.59418" lon="1.96661">
        <ele>152</ele>
        <time>2026-03-29T10:01:32Z</time>
      </trkpt>
      <trkpt lat="48.59416" lon="1.96665">
        <ele>152.6</ele>
        <time>2026-03-29T10:01:33Z</time>
      </trkpt>
      <trkpt lat="48.59413" lon="1.96669">
        <ele>152.4</ele>
        <time>2026-03-29T10:01:34Z</time>
      </trkpt>
      <trkpt lat="48.59411" lon="1.96672">
        <ele>152.4</ele>
        <time>2026-03-29T10:01:35Z</time>
      </trkpt>
      <trkpt lat="48.5941" lon="1.96676">
        <ele>152.4</ele>
        <time>2026-03-29T10:01:36Z</time>
      </trkpt>
      <trkpt lat="48.5941" lon="1.9668">
        <ele>152.4</ele>
        <time>2026-03-29T10:01:37Z</time>
      </trkpt>
      <trkpt lat="48.5941" lon="1.96683">
        <ele>152.4</ele>
        <time>2026-03-29T10:01:38Z</time>
      </trkpt>
      <trkpt lat="48.5941" lon="1.96685">
        <ele>152.4</ele>
        <time>2026-03-29T10:01:39Z</time>
      </trkpt>
      <trkpt lat="48.5941" lon="1.96686">
        <ele>152.4</ele>
        <time>2026-03-29T10:01:40Z</time>
      </trkpt>
      <trkpt lat="48.5941" lon="1.96688">
        <ele>152.4</ele>
        <time>2026-03-29T10:01:41Z</time>
      </trkpt>
      <trkpt lat="48.59411" lon="1.96688">
        <ele>152.2</ele>
        <time>2026-03-29T10:01:42Z</time>
      </trkpt>
      <trkpt lat="48.59411" lon="1.96688">
        <ele>152.2</ele>
        <time>2026-03-29T10:01:43Z</time>
      </trkpt>
      <trkpt lat="48.5941" lon="1.96689">
        <ele>152.2</ele>
        <time>2026-03-29T10:01:44Z</time>
      </trkpt>
      <trkpt lat="48.5941" lon="1.9669">
        <ele>152.8</ele>
        <time>2026-03-29T10:01:45Z</time>
      </trkpt>
      <trkpt lat="48.59411" lon="1.96692">
        <ele>152.6</ele>
        <time>2026-03-29T10:01:46Z</time>
      </trkpt>
      <trkpt lat="48.59412" lon="1.96693">
        <ele>152.6</ele>
        <time>2026-03-29T10:01:47Z</time>
      </trkpt>
      <trkpt lat="48.59412" lon="1.96695">
        <ele>152.6</ele>
        <time>2026-03-29T10:01:48Z</time>
      </trkpt>
      <trkpt lat="48.59413" lon="1.96698">
        <ele>152.6</ele>
        <time>2026-03-29T10:01:49Z</time>
      </trkpt>
      <trkpt lat="48.59413" lon="1.96701">
        <ele>153.6</ele>
        <time>2026-03-29T10:01:50Z</time>
      </trkpt>
      <trkpt lat="48.59414" lon="1.96704">
        <ele>153.6</ele>
        <time>2026-03-29T10:01:51Z</time>
      </trkpt>
      <trkpt lat="48.59414" lon="1.96706">
        <ele>153.6</ele>
        <time>2026-03-29T10:01:52Z</time>
      </trkpt>
      <trkpt lat="48.59415" lon="1.96709">
        <ele>153.6</ele>
        <time>2026-03-29T10:01:53Z</time>
      </trkpt>
      <trkpt lat="48.59416" lon="1.96712">
        <ele>154.6</ele>
        <time>2026-03-29T10:01:54Z</time>
      </trkpt>
      <trkpt lat="48.59417" lon="1.96715">
        <ele>154.6</ele>
        <time>2026-03-29T10:01:55Z</time>
      </trkpt>
      <trkpt lat="48.59417" lon="1.96718">
        <ele>154.6</ele>
        <time>2026-03-29T10:01:56Z</time>
      </trkpt>
      <trkpt lat="48.59416" lon="1.96721">
        <ele>154.6</ele>
        <time>2026-03-29T10:01:57Z</time>
      </trkpt>
      <trkpt lat="48.59416" lon="1.96724">
        <ele>154.8</ele>
        <time>2026-03-29T10:01:58Z</time>
      </trkpt>
      <trkpt lat="48.59416" lon="1.96727">
        <ele>154.8</ele>
        <time>2026-03-29T10:01:59Z</time>
      </trkpt>
      <trkpt lat="48.59416" lon="1.9673">
        <ele>154.8</ele>
        <time>2026-03-29T10:02:00Z</time>
      </trkpt>
      <trkpt lat="48.59416" lon="1.96733">
        <ele>155.6</ele>
        <time>2026-03-29T10:02:01Z</time>
      </trkpt>
      <trkpt lat="48.59416" lon="1.96736">
        <ele>155.6</ele>
        <time>2026-03-29T10:02:02Z</time>
      </trkpt>
      <trkpt lat="48.59416" lon="1.96738">
        <ele>155.6</ele>
        <time>2026-03-29T10:02:03Z</time>
      </trkpt>
      <trkpt lat="48.59416" lon="1.96741">
        <ele>155.6</ele>
        <time>2026-03-29T10:02:04Z</time>
      </trkpt>
      <trkpt lat="48.59416" lon="1.96743">
        <ele>156.6</ele>
        <time>2026-03-29T10:02:05Z</time>
      </trkpt>
      <trkpt lat="48.59417" lon="1.96746">
        <ele>156.6</ele>
        <time>2026-03-29T10:02:06Z</time>
      </trkpt>
      <trkpt lat="48.59417" lon="1.96748">
        <ele>156.6</ele>
        <time>2026-03-29T10:02:07Z</time>
      </trkpt>
      <trkpt lat="48.59418" lon="1.96751">
        <ele>156.6</ele>
        <time>2026-03-29T10:02:08Z</time>
      </trkpt>
      <trkpt lat="48.59419" lon="1.96753">
        <ele>157.6</ele>
        <time>2026-03-29T10:02:09Z</time>
      </trkpt>
      <trkpt lat="48.5942" lon="1.96756">
        <ele>157.8</ele>
        <time>2026-03-29T10:02:10Z</time>
      </trkpt>
      <trkpt lat="48.59421" lon="1.96758">
        <ele>157.8</ele>
        <time>2026-03-29T10:02:11Z</time>
      </trkpt>
      <trkpt lat="48.59422" lon="1.9676">
        <ele>157.8</ele>
        <time>2026-03-29T10:02:12Z</time>
      </trkpt>
      <trkpt lat="48.59423" lon="1.96762">
        <ele>158.4</ele>
        <time>2026-03-29T10:02:13Z</time>
      </trkpt>
      <trkpt lat="48.59424" lon="1.96765">
        <ele>158.4</ele>
        <time>2026-03-29T10:02:14Z</time>
      </trkpt>
      <trkpt lat="48.59426" lon="1.96767">
        <ele>158.4</ele>
        <time>2026-03-29T10:02:15Z</time>
      </trkpt>
      <trkpt lat="48.59427" lon="1.96769">
        <ele>158.4</ele>
        <time>2026-03-29T10:02:16Z</time>
      </trkpt>
      <trkpt lat="48.59428" lon="1.96772">
        <ele>159</ele>
        <time>2026-03-29T10:02:17Z</time>
      </trkpt>
      <trkpt lat="48.59429" lon="1.96774">
        <ele>158.8</ele>
        <time>2026-03-29T10:02:18Z</time>
      </trkpt>
      <trkpt lat="48.5943" lon="1.96776">
        <ele>158.8</ele>
        <time>2026-03-29T10:02:19Z</time>
      </trkpt>
      <trkpt lat="48.5943" lon="1.96779">
        <ele>158.8</ele>
        <time>2026-03-29T10:02:20Z</time>
      </trkpt>
      <trkpt lat="48.59431" lon="1.96781">
        <ele>159.6</ele>
        <time>2026-03-29T10:02:21Z</time>
      </trkpt>
      <trkpt lat="48.59432" lon="1.96784">
        <ele>159.8</ele>
        <time>2026-03-29T10:02:22Z</time>
      </trkpt>
      <trkpt lat="48.59433" lon="1.96787">
        <ele>159.8</ele>
        <time>2026-03-29T10:02:23Z</time>
      </trkpt>
      <trkpt lat="48.59434" lon="1.96789">
        <ele>159.8</ele>
        <time>2026-03-29T10:02:24Z</time>
      </trkpt>
      <trkpt lat="48.59435" lon="1.96792">
        <ele>160.6</ele>
        <time>2026-03-29T10:02:25Z</time>
      </trkpt>
      <trkpt lat="48.59436" lon="1.96795">
        <ele>160.6</ele>
        <time>2026-03-29T10:02:26Z</time>
      </trkpt>
      <trkpt lat="48.59436" lon="1.96797">
        <ele>160.6</ele>
        <time>2026-03-29T10:02:27Z</time>
      </trkpt>
      <trkpt lat="48.59437" lon="1.968">
        <ele>160.6</ele>
        <time>2026-03-29T10:02:28Z</time>
      </trkpt>
      <trkpt lat="48.59438" lon="1.96802">
        <ele>161</ele>
        <time>2026-03-29T10:02:29Z</time>
      </trkpt>
      <trkpt lat="48.59439" lon="1.96805">
        <ele>161.4</ele>
        <time>2026-03-29T10:02:30Z</time>
      </trkpt>
      <trkpt lat="48.5944" lon="1.96807">
        <ele>161.4</ele>
        <time>2026-03-29T10:02:31Z</time>
      </trkpt>
      <trkpt lat="48.5944" lon="1.9681">
        <ele>161.4</ele>
        <time>2026-03-29T10:02:32Z</time>
      </trkpt>
      <trkpt lat="48.59441" lon="1.96812">
        <ele>162.2</ele>
        <time>2026-03-29T10:02:33Z</time>
      </trkpt>
      <trkpt lat="48.59442" lon="1.96815">
        <ele>162.6</ele>
        <time>2026-03-29T10:02:34Z</time>
      </trkpt>
      <trkpt lat="48.59444" lon="1.96817">
        <ele>162.6</ele>
        <time>2026-03-29T10:02:35Z</time>
      </trkpt>
      <trkpt lat="48.59444" lon="1.9682">
        <ele>162.6</ele>
        <time>2026-03-29T10:02:36Z</time>
      </trkpt>
      <trkpt lat="48.59444" lon="1.96823">
        <ele>162.8</ele>
        <time>2026-03-29T10:02:37Z</time>
      </trkpt>
      <trkpt lat="48.59444" lon="1.96826">
        <ele>163</ele>
        <time>2026-03-29T10:02:38Z</time>
      </trkpt>
      <trkpt lat="48.59444" lon="1.96828">
        <ele>163</ele>
        <time>2026-03-29T10:02:39Z</time>
      </trkpt>
      <trkpt lat="48.59444" lon="1.96831">
        <ele>163</ele>
        <time>2026-03-29T10:02:40Z</time>
      </trkpt>
      <trkpt lat="48.59444" lon="1.96834">
        <ele>163.8</ele>
        <time>2026-03-29T10:02:41Z</time>
      </trkpt>
      <trkpt lat="48.59444" lon="1.96837">
        <ele>164.6</ele>
        <time>2026-03-29T10:02:42Z</time>
      </trkpt>
      <trkpt lat="48.59444" lon="1.96839">
        <ele>164.6</ele>
        <time>2026-03-29T10:02:43Z</time>
      </trkpt>
      <trkpt lat="48.59444" lon="1.96842">
        <ele>164.6</ele>
        <time>2026-03-29T10:02:44Z</time>
      </trkpt>
      <trkpt lat="48.59443" lon="1.96845">
        <ele>164.6</ele>
        <time>2026-03-29T10:02:45Z</time>
      </trkpt>
      <trkpt lat="48.59443" lon="1.96848">
        <ele>165</ele>
        <time>2026-03-29T10:02:46Z</time>
      </trkpt>
      <trkpt lat="48.59442" lon="1.9685">
        <ele>165</ele>
        <time>2026-03-29T10:02:47Z</time>
      </trkpt>
      <trkpt lat="48.5944" lon="1.96851">
        <ele>165</ele>
        <time>2026-03-29T10:02:48Z</time>
      </trkpt>
      <trkpt lat="48.59439" lon="1.96853">
        <ele>165.4</ele>
        <time>2026-03-29T10:02:49Z</time>
      </trkpt>
      <trkpt lat="48.59437" lon="1.96855">
        <ele>166</ele>
        <time>2026-03-29T10:02:50Z</time>
      </trkpt>
      <trkpt lat="48.59436" lon="1.96855">
        <ele>166</ele>
        <time>2026-03-29T10:02:51Z</time>
      </trkpt>
      <trkpt lat="48.59434" lon="1.96856">
        <ele>166</ele>
        <time>2026-03-29T10:02:52Z</time>
      </trkpt>
      <trkpt lat="48.59432" lon="1.96856">
        <ele>166.4</ele>
        <time>2026-03-29T10:02:53Z</time>
      </trkpt>
      <trkpt lat="48.5943" lon="1.96857">
        <ele>166.8</ele>
        <time>2026-03-29T10:02:54Z</time>
      </trkpt>
      <trkpt lat="48.59428" lon="1.96857">
        <ele>166.8</ele>
        <time>2026-03-29T10:02:55Z</time>
      </trkpt>
      <trkpt lat="48.59426" lon="1.96858">
        <ele>166.8</ele>
        <time>2026-03-29T10:02:56Z</time>
      </trkpt>
      <trkpt lat="48.59425" lon="1.96859">
        <ele>167.4</ele>
        <time>2026-03-29T10:02:57Z</time>
      </trkpt>
      <trkpt lat="48.59423" lon="1.9686">
        <ele>167.6</ele>
        <time>2026-03-29T10:02:58Z</time>
      </trkpt>
      <trkpt lat="48.59421" lon="1.96861">
        <ele>167.6</ele>
        <time>2026-03-29T10:02:59Z</time>
      </trkpt>
      <trkpt lat="48.5942" lon="1.96862">
        <ele>167.6</ele>
        <time>2026-03-29T10:03:00Z</time>
      </trkpt>
      <trkpt lat="48.59418" lon="1.96864">
        <ele>167.8</ele>
        <time>2026-03-29T10:03:01Z</time>
      </trkpt>
      <trkpt lat="48.59417" lon="1.96866">
        <ele>168.6</ele>
        <time>2026-03-29T10:03:02Z</time>
      </trkpt>
      <trkpt lat="48.59415" lon="1.96867">
        <ele>168.6</ele>
        <time>2026-03-29T10:03:03Z</time>
      </trkpt>
      <trkpt lat="48.59413" lon="1.96869">
        <ele>168.6</ele>
        <time>2026-03-29T10:03:04Z</time>
      </trkpt>
      <trkpt lat="48.59413" lon="1.96872">
        <ele>168.6</ele>
        <time>2026-03-29T10:03:05Z</time>
      </trkpt>
      <trkpt lat="48.59412" lon="1.96874">
        <ele>169.6</ele>
        <time>2026-03-29T10:03:06Z</time>
      </trkpt>
      <trkpt lat="48.5941" lon="1.96877">
        <ele>169.6</ele>
        <time>2026-03-29T10:03:07Z</time>
      </trkpt>
      <trkpt lat="48.59409" lon="1.96879">
        <ele>169.6</ele>
        <time>2026-03-29T10:03:08Z</time>
      </trkpt>
      <trkpt lat="48.59408" lon="1.96881">
        <ele>169.6</ele>
        <time>2026-03-29T10:03:09Z</time>
      </trkpt>
      <trkpt lat="48.59406" lon="1.96884">
        <ele>169.8</ele>
        <time>2026-03-29T10:03:10Z</time>
      </trkpt>
      <trkpt lat="48.59405" lon="1.96886">
        <ele>169.8</ele>
        <time>2026-03-29T10:03:11Z</time>
      </trkpt>
      <trkpt lat="48.59404" lon="1.96889">
        <ele>169.8</ele>
        <time>2026-03-29T10:03:12Z</time>
      </trkpt>
      <trkpt lat="48.59403" lon="1.96893">
        <ele>169.8</ele>
        <time>2026-03-29T10:03:13Z</time>
      </trkpt>
      <trkpt lat="48.59403" lon="1.96896">
        <ele>170</ele>
        <time>2026-03-29T10:03:14Z</time>
      </trkpt>
      <trkpt lat="48.59403" lon="1.969">
        <ele>170</ele>
        <time>2026-03-29T10:03:15Z</time>
      </trkpt>
      <trkpt lat="48.59403" lon="1.96904">
        <ele>170</ele>
        <time>2026-03-29T10:03:16Z</time>
      </trkpt>
      <trkpt lat="48.59404" lon="1.96909">
        <ele>169.4</ele>
        <time>2026-03-29T10:03:17Z</time>
      </trkpt>
      <trkpt lat="48.59405" lon="1.96913">
        <ele>169.6</ele>
        <time>2026-03-29T10:03:18Z</time>
      </trkpt>
      <trkpt lat="48.59406" lon="1.96917">
        <ele>169.6</ele>
        <time>2026-03-29T10:03:19Z</time>
      </trkpt>
      <trkpt lat="48.59406" lon="1.96922">
        <ele>169.6</ele>
        <time>2026-03-29T10:03:20Z</time>
      </trkpt>
      <trkpt lat="48.59407" lon="1.96927">
        <ele>169.6</ele>
        <time>2026-03-29T10:03:21Z</time>
      </trkpt>
      <trkpt lat="48.59408" lon="1.96932">
        <ele>169.2</ele>
        <time>2026-03-29T10:03:22Z</time>
      </trkpt>
      <trkpt lat="48.59409" lon="1.96936">
        <ele>169.2</ele>
        <time>2026-03-29T10:03:23Z</time>
      </trkpt>
      <trkpt lat="48.5941" lon="1.96941">
        <ele>169.2</ele>
        <time>2026-03-29T10:03:24Z</time>
      </trkpt>
      <trkpt lat="48.59411" lon="1.96945">
        <ele>169.2</ele>
        <time>2026-03-29T10:03:25Z</time>
      </trkpt>
      <trkpt lat="48.59413" lon="1.96949">
        <ele>169.2</ele>
        <time>2026-03-29T10:03:26Z</time>
      </trkpt>
      <trkpt lat="48.59416" lon="1.96953">
        <ele>169.2</ele>
        <time>2026-03-29T10:03:27Z</time>
      </trkpt>
      <trkpt lat="48.59418" lon="1.96956">
        <ele>169.2</ele>
        <time>2026-03-29T10:03:28Z</time>
      </trkpt>
      <trkpt lat="48.59421" lon="1.9696">
        <ele>169.2</ele>
        <time>2026-03-29T10:03:29Z</time>
      </trkpt>
      <trkpt lat="48.59423" lon="1.96964">
        <ele>168.8</ele>
        <time>2026-03-29T10:03:30Z</time>
      </trkpt>
      <trkpt lat="48.59424" lon="1.96969">
        <ele>168.8</ele>
        <time>2026-03-29T10:03:31Z</time>
      </trkpt>
      <trkpt lat="48.59425" lon="1.96974">
        <ele>168.8</ele>
        <time>2026-03-29T10:03:32Z</time>
      </trkpt>
      <trkpt lat="48.59424" lon="1.96979">
        <ele>168.8</ele>
        <time>2026-03-29T10:03:33Z</time>
      </trkpt>
      <trkpt lat="48.59424" lon="1.96984">
        <ele>169.2</ele>
        <time>2026-03-29T10:03:34Z</time>
      </trkpt>
      <trkpt lat="48.59423" lon="1.9699">
        <ele>169.2</ele>
        <time>2026-03-29T10:03:35Z</time>
      </trkpt>
      <trkpt lat="48.59422" lon="1.96994">
        <ele>169.2</ele>
        <time>2026-03-29T10:03:36Z</time>
      </trkpt>
      <trkpt lat="48.59422" lon="1.96999">
        <ele>169.2</ele>
        <time>2026-03-29T10:03:37Z</time>
      </trkpt>
      <trkpt lat="48.59421" lon="1.97004">
        <ele>169.2</ele>
        <time>2026-03-29T10:03:38Z</time>
      </trkpt>
      <trkpt lat="48.5942" lon="1.97008">
        <ele>169.2</ele>
        <time>2026-03-29T10:03:39Z</time>
      </trkpt>
      <trkpt lat="48.59419" lon="1.97013">
        <ele>169.2</ele>
        <time>2026-03-29T10:03:40Z</time>
      </trkpt>
      <trkpt lat="48.59419" lon="1.97018">
        <ele>169.2</ele>
        <time>2026-03-29T10:03:41Z</time>
      </trkpt>
      <trkpt lat="48.59419" lon="1.97023">
        <ele>169.6</ele>
        <time>2026-03-29T10:03:42Z</time>
      </trkpt>
      <trkpt lat="48.5942" lon="1.97028">
        <ele>169.6</ele>
        <time>2026-03-29T10:03:43Z</time>
      </trkpt>
      <trkpt lat="48.59421" lon="1.97032">
        <ele>169.6</ele>
        <time>2026-03-29T10:03:44Z</time>
      </trkpt>
      <trkpt lat="48.59422" lon="1.97038">
        <ele>169.6</ele>
        <time>2026-03-29T10:03:45Z</time>
      </trkpt>
      <trkpt lat="48.59423" lon="1.97043">
        <ele>169.4</ele>
        <time>2026-03-29T10:03:46Z</time>
      </trkpt>
      <trkpt lat="48.59424" lon="1.97047">
        <ele>169.4</ele>
        <time>2026-03-29T10:03:47Z</time>
      </trkpt>
      <trkpt lat="48.59425" lon="1.97052">
        <ele>169.4</ele>
        <time>2026-03-29T10:03:48Z</time>
      </trkpt>
      <trkpt lat="48.59426" lon="1.97057">
        <ele>169.8</ele>
        <time>2026-03-29T10:03:49Z</time>
      </trkpt>
      <trkpt lat="48.59426" lon="1.97062">
        <ele>169.8</ele>
        <time>2026-03-29T10:03:50Z</time>
      </trkpt>
      <trkpt lat="48.59427" lon="1.97067">
        <ele>169.8</ele>
        <time>2026-03-29T10:03:51Z</time>
      </trkpt>
      <trkpt lat="48.59428" lon="1.97072">
        <ele>169.8</ele>
        <time>2026-03-29T10:03:52Z</time>
      </trkpt>
      <trkpt lat="48.5943" lon="1.97076">
        <ele>169.8</ele>
        <time>2026-03-29T10:03:53Z</time>
      </trkpt>
      <trkpt lat="48.59432" lon="1.9708">
        <ele>169.6</ele>
        <time>2026-03-29T10:03:54Z</time>
      </trkpt>
      <trkpt lat="48.59433" lon="1.97085">
        <ele>169.6</ele>
        <time>2026-03-29T10:03:55Z</time>
      </trkpt>
      <trkpt lat="48.59434" lon="1.9709">
        <ele>169.6</ele>
        <time>2026-03-29T10:03:56Z</time>
      </trkpt>
      <trkpt lat="48.59434" lon="1.97095">
        <ele>169.6</ele>
        <time>2026-03-29T10:03:57Z</time>
      </trkpt>
      <trkpt lat="48.59434" lon="1.97101">
        <ele>169.8</ele>
        <time>2026-03-29T10:03:58Z</time>
      </trkpt>
      <trkpt lat="48.59434" lon="1.97106">
        <ele>169.8</ele>
        <time>2026-03-29T10:03:59Z</time>
      </trkpt>
      <trkpt lat="48.59434" lon="1.97112">
        <ele>169.8</ele>
        <time>2026-03-29T10:04:00Z</time>
      </trkpt>
      <trkpt lat="48.59434" lon="1.97117">
        <ele>169.8</ele>
        <time>2026-03-29T10:04:01Z</time>
      </trkpt>
      <trkpt lat="48.59434" lon="1.97123">
        <ele>169.2</ele>
        <time>2026-03-29T10:04:02Z</time>
      </trkpt>
      <trkpt lat="48.59433" lon="1.97128">
        <ele>169.2</ele>
        <time>2026-03-29T10:04:03Z</time>
      </trkpt>
      <trkpt lat="48.59433" lon="1.97134">
        <ele>169.2</ele>
        <time>2026-03-29T10:04:04Z</time>
      </trkpt>
      <trkpt lat="48.59433" lon="1.97139">
        <ele>169.2</ele>
        <time>2026-03-29T10:04:05Z</time>
      </trkpt>
      <trkpt lat="48.59434" lon="1.97145">
        <ele>169.6</ele>
        <time>2026-03-29T10:04:06Z</time>
      </trkpt>
      <trkpt lat="48.59435" lon="1.9715">
        <ele>169.6</ele>
        <time>2026-03-29T10:04:07Z</time>
      </trkpt>
      <trkpt lat="48.59437" lon="1.97156">
        <ele>169.6</ele>
        <time>2026-03-29T10:04:08Z</time>
      </trkpt>
      <trkpt lat="48.59439" lon="1.97161">
        <ele>169.8</ele>
        <time>2026-03-29T10:04:09Z</time>
      </trkpt>
      <trkpt lat="48.5944" lon="1.97167">
        <ele>169.8</ele>
        <time>2026-03-29T10:04:10Z</time>
      </trkpt>
      <trkpt lat="48.59441" lon="1.97172">
        <ele>169.8</ele>
        <time>2026-03-29T10:04:11Z</time>
      </trkpt>
      <trkpt lat="48.59442" lon="1.97178">
        <ele>169.8</ele>
        <time>2026-03-29T10:04:12Z</time>
      </trkpt>
      <trkpt lat="48.59442" lon="1.97184">
        <ele>169.8</ele>
        <time>2026-03-29T10:04:13Z</time>
      </trkpt>
      <trkpt lat="48.5944" lon="1.97189">
        <ele>169.8</ele>
        <time>2026-03-29T10:04:14Z</time>
      </trkpt>
      <trkpt lat="48.59437" lon="1.97193">
        <ele>169.8</ele>
        <time>2026-03-29T10:04:15Z</time>
      </trkpt>
      <trkpt lat="48.59435" lon="1.97198">
        <ele>169.8</ele>
        <time>2026-03-29T10:04:16Z</time>
      </trkpt>
      <trkpt lat="48.59433" lon="1.97203">
        <ele>170</ele>
        <time>2026-03-29T10:04:17Z</time>
      </trkpt>
      <trkpt lat="48.5943" lon="1.97207">
        <ele>169.4</ele>
        <time>2026-03-29T10:04:18Z</time>
      </trkpt>
      <trkpt lat="48.59428" lon="1.97212">
        <ele>169.4</ele>
        <time>2026-03-29T10:04:19Z</time>
      </trkpt>
      <trkpt lat="48.59426" lon="1.97218">
        <ele>169.4</ele>
        <time>2026-03-29T10:04:20Z</time>
      </trkpt>
      <trkpt lat="48.59425" lon="1.97225">
        <ele>169.4</ele>
        <time>2026-03-29T10:04:21Z</time>
      </trkpt>
      <trkpt lat="48.59424" lon="1.97231">
        <ele>166.8</ele>
        <time>2026-03-29T10:04:22Z</time>
      </trkpt>
      <trkpt lat="48.59424" lon="1.97236">
        <ele>166.8</ele>
        <time>2026-03-29T10:04:23Z</time>
      </trkpt>
      <trkpt lat="48.59425" lon="1.97241">
        <ele>166.8</ele>
        <time>2026-03-29T10:04:24Z</time>
      </trkpt>
      <trkpt lat="48.59427" lon="1.97245">
        <ele>166.6</ele>
        <time>2026-03-29T10:04:25Z</time>
      </trkpt>
      <trkpt lat="48.59429" lon="1.97247">
        <ele>166.4</ele>
        <time>2026-03-29T10:04:26Z</time>
      </trkpt>
      <trkpt lat="48.59431" lon="1.9725">
        <ele>166.4</ele>
        <time>2026-03-29T10:04:27Z</time>
      </trkpt>
      <trkpt lat="48.59432" lon="1.97255">
        <ele>166.4</ele>
        <time>2026-03-29T10:04:28Z</time>
      </trkpt>
      <trkpt lat="48.59435" lon="1.9726">
        <ele>166.4</ele>
        <time>2026-03-29T10:04:29Z</time>
      </trkpt>
      <trkpt lat="48.59437" lon="1.97266">
        <ele>165</ele>
        <time>2026-03-29T10:04:30Z</time>
      </trkpt>
      <trkpt lat="48.59441" lon="1.97271">
        <ele>165</ele>
        <time>2026-03-29T10:04:31Z</time>
      </trkpt>
      <trkpt lat="48.59444" lon="1.97276">
        <ele>165</ele>
        <time>2026-03-29T10:04:32Z</time>
      </trkpt>
      <trkpt lat="48.59448" lon="1.9728">
        <ele>164</ele>
        <time>2026-03-29T10:04:33Z</time>
      </trkpt>
      <trkpt lat="48.59451" lon="1.97283">
        <ele>162.2</ele>
        <time>2026-03-29T10:04:34Z</time>
      </trkpt>
      <trkpt lat="48.59453" lon="1.97285">
        <ele>162.2</ele>
        <time>2026-03-29T10:04:35Z</time>
      </trkpt>
      <trkpt lat="48.59455" lon="1.97288">
        <ele>162.2</ele>
        <time>2026-03-29T10:04:36Z</time>
      </trkpt>
      <trkpt lat="48.59456" lon="1.97292">
        <ele>161.2</ele>
        <time>2026-03-29T10:04:37Z</time>
      </trkpt>
      <trkpt lat="48.59457" lon="1.97294">
        <ele>159.4</ele>
        <time>2026-03-29T10:04:38Z</time>
      </trkpt>
      <trkpt lat="48.59459" lon="1.97298">
        <ele>159.4</ele>
        <time>2026-03-29T10:04:39Z</time>
      </trkpt>
      <trkpt lat="48.5946" lon="1.97305">
        <ele>159.4</ele>
        <time>2026-03-29T10:04:40Z</time>
      </trkpt>
      <trkpt lat="48.59461" lon="1.97313">
        <ele>158.4</ele>
        <time>2026-03-29T10:04:41Z</time>
      </trkpt>
      <trkpt lat="48.59461" lon="1.97321">
        <ele>152.8</ele>
        <time>2026-03-29T10:04:42Z</time>
      </trkpt>
      <trkpt lat="48.59462" lon="1.97329">
        <ele>152.8</ele>
        <time>2026-03-29T10:04:43Z</time>
      </trkpt>
      <trkpt lat="48.59463" lon="1.97338">
        <ele>152.8</ele>
        <time>2026-03-29T10:04:44Z</time>
      </trkpt>
      <trkpt lat="48.59465" lon="1.97347">
        <ele>152.8</ele>
        <time>2026-03-29T10:04:45Z</time>
      </trkpt>
      <trkpt lat="48.59468" lon="1.97356">
        <ele>150.8</ele>
        <time>2026-03-29T10:04:46Z</time>
      </trkpt>
      <trkpt lat="48.59471" lon="1.97366">
        <ele>150.8</ele>
        <time>2026-03-29T10:04:47Z</time>
      </trkpt>
      <trkpt lat="48.59472" lon="1.97378">
        <ele>150.8</ele>
        <time>2026-03-29T10:04:48Z</time>
      </trkpt>
      <trkpt lat="48.59474" lon="1.97389">
        <ele>149.8</ele>
        <time>2026-03-29T10:04:49Z</time>
      </trkpt>
      <trkpt lat="48.59477" lon="1.97399">
        <ele>149.6</ele>
        <time>2026-03-29T10:04:50Z</time>
      </trkpt>
      <trkpt lat="48.59479" lon="1.97409">
        <ele>149.6</ele>
        <time>2026-03-29T10:04:51Z</time>
      </trkpt>
      <trkpt lat="48.59479" lon="1.97419">
        <ele>149.6</ele>
        <time>2026-03-29T10:04:52Z</time>
      </trkpt>
      <trkpt lat="48.59478" lon="1.97428">
        <ele>148.8</ele>
        <time>2026-03-29T10:04:53Z</time>
      </trkpt>
      <trkpt lat="48.59477" lon="1.97436">
        <ele>148.8</ele>
        <time>2026-03-29T10:04:54Z</time>
      </trkpt>
      <trkpt lat="48.59475" lon="1.97441">
        <ele>148.8</ele>
        <time>2026-03-29T10:04:55Z</time>
      </trkpt>
      <trkpt lat="48.59473" lon="1.97446">
        <ele>148.8</ele>
        <time>2026-03-29T10:04:56Z</time>
      </trkpt>
      <trkpt lat="48.59472" lon="1.9745">
        <ele>149</ele>
        <time>2026-03-29T10:04:57Z</time>
      </trkpt>
      <trkpt lat="48.59471" lon="1.97453">
        <ele>149.2</ele>
        <time>2026-03-29T10:04:58Z</time>
      </trkpt>
      <trkpt lat="48.59471" lon="1.97457">
        <ele>149.2</ele>
        <time>2026-03-29T10:04:59Z</time>
      </trkpt>
      <trkpt lat="48.5947" lon="1.9746">
        <ele>149.2</ele>
        <time>2026-03-29T10:05:00Z</time>
      </trkpt>
      <trkpt lat="48.5947" lon="1.97463">
        <ele>149.2</ele>
        <time>2026-03-29T10:05:01Z</time>
      </trkpt>
      <trkpt lat="48.5947" lon="1.97466">
        <ele>149.2</ele>
        <time>2026-03-29T10:05:02Z</time>
      </trkpt>
      <trkpt lat="48.5947" lon="1.97469">
        <ele>149.2</ele>
        <time>2026-03-29T10:05:03Z</time>
      </trkpt>
      <trkpt lat="48.59471" lon="1.97472">
        <ele>149.2</ele>
        <time>2026-03-29T10:05:04Z</time>
      </trkpt>
      <trkpt lat="48.59472" lon="1.97475">
        <ele>149.2</ele>
        <time>2026-03-29T10:05:05Z</time>
      </trkpt>
      <trkpt lat="48.59473" lon="1.97478">
        <ele>150.4</ele>
        <time>2026-03-29T10:05:06Z</time>
      </trkpt>
      <trkpt lat="48.59473" lon="1.97481">
        <ele>150.4</ele>
        <time>2026-03-29T10:05:07Z</time>
      </trkpt>
      <trkpt lat="48.59474" lon="1.97484">
        <ele>150.4</ele>
        <time>2026-03-29T10:05:08Z</time>
      </trkpt>
      <trkpt lat="48.59474" lon="1.97486">
        <ele>150.4</ele>
        <time>2026-03-29T10:05:09Z</time>
      </trkpt>
      <trkpt lat="48.59475" lon="1.97489">
        <ele>151</ele>
        <time>2026-03-29T10:05:10Z</time>
      </trkpt>
      <trkpt lat="48.59476" lon="1.97491">
        <ele>151</ele>
        <time>2026-03-29T10:05:11Z</time>
      </trkpt>
      <trkpt lat="48.59476" lon="1.97494">
        <ele>151</ele>
        <time>2026-03-29T10:05:12Z</time>
      </trkpt>
      <trkpt lat="48.59476" lon="1.97496">
        <ele>151.8</ele>
        <time>2026-03-29T10:05:13Z</time>
      </trkpt>
      <trkpt lat="48.59476" lon="1.97499">
        <ele>151.6</ele>
        <time>2026-03-29T10:05:14Z</time>
      </trkpt>
      <trkpt lat="48.59476" lon="1.97501">
        <ele>151.6</ele>
        <time>2026-03-29T10:05:15Z</time>
      </trkpt>
      <trkpt lat="48.59476" lon="1.97503">
        <ele>151.6</ele>
        <time>2026-03-29T10:05:16Z</time>
      </trkpt>
      <trkpt lat="48.59474" lon="1.97506">
        <ele>151.6</ele>
        <time>2026-03-29T10:05:17Z</time>
      </trkpt>
      <trkpt lat="48.59473" lon="1.97509">
        <ele>152.2</ele>
        <time>2026-03-29T10:05:18Z</time>
      </trkpt>
      <trkpt lat="48.59472" lon="1.97511">
        <ele>152.2</ele>
        <time>2026-03-29T10:05:19Z</time>
      </trkpt>
      <trkpt lat="48.59471" lon="1.97514">
        <ele>152.2</ele>
        <time>2026-03-29T10:05:20Z</time>
      </trkpt>
      <trkpt lat="48.5947" lon="1.97516">
        <ele>152</ele>
        <time>2026-03-29T10:05:21Z</time>
      </trkpt>
      <trkpt lat="48.5947" lon="1.97519">
        <ele>152.4</ele>
        <time>2026-03-29T10:05:22Z</time>
      </trkpt>
      <trkpt lat="48.59469" lon="1.97521">
        <ele>152.4</ele>
        <time>2026-03-29T10:05:23Z</time>
      </trkpt>
      <trkpt lat="48.59468" lon="1.97524">
        <ele>152.4</ele>
        <time>2026-03-29T10:05:24Z</time>
      </trkpt>
      <trkpt lat="48.59466" lon="1.97526">
        <ele>152.4</ele>
        <time>2026-03-29T10:05:25Z</time>
      </trkpt>
      <trkpt lat="48.59465" lon="1.97529">
        <ele>153</ele>
        <time>2026-03-29T10:05:26Z</time>
      </trkpt>
      <trkpt lat="48.59463" lon="1.97531">
        <ele>153</ele>
        <time>2026-03-29T10:05:27Z</time>
      </trkpt>
      <trkpt lat="48.59462" lon="1.97534">
        <ele>153</ele>
        <time>2026-03-29T10:05:28Z</time>
      </trkpt>
      <trkpt lat="48.5946" lon="1.97536">
        <ele>153</ele>
        <time>2026-03-29T10:05:29Z</time>
      </trkpt>
      <trkpt lat="48.59459" lon="1.97538">
        <ele>153.6</ele>
        <time>2026-03-29T10:05:30Z</time>
      </trkpt>
      <trkpt lat="48.59457" lon="1.9754">
        <ele>153.6</ele>
        <time>2026-03-29T10:05:31Z</time>
      </trkpt>
      <trkpt lat="48.59457" lon="1.97542">
        <ele>153.6</ele>
        <time>2026-03-29T10:05:32Z</time>
      </trkpt>
      <trkpt lat="48.59455" lon="1.97545">
        <ele>153.6</ele>
        <time>2026-03-29T10:05:33Z</time>
      </trkpt>
      <trkpt lat="48.59453" lon="1.97547">
        <ele>153.6</ele>
        <time>2026-03-29T10:05:34Z</time>
      </trkpt>
      <trkpt lat="48.59452" lon="1.97549">
        <ele>153.6</ele>
        <time>2026-03-29T10:05:35Z</time>
      </trkpt>
      <trkpt lat="48.5945" lon="1.97551">
        <ele>153.6</ele>
        <time>2026-03-29T10:05:36Z</time>
      </trkpt>
      <trkpt lat="48.59449" lon="1.97554">
        <ele>154.4</ele>
        <time>2026-03-29T10:05:37Z</time>
      </trkpt>
      <trkpt lat="48.59448" lon="1.97556">
        <ele>154</ele>
        <time>2026-03-29T10:05:38Z</time>
      </trkpt>
      <trkpt lat="48.59447" lon="1.97559">
        <ele>154</ele>
        <time>2026-03-29T10:05:39Z</time>
      </trkpt>
      <trkpt lat="48.59446" lon="1.97562">
        <ele>154</ele>
        <time>2026-03-29T10:05:40Z</time>
      </trkpt>
      <trkpt lat="48.59445" lon="1.97565">
        <ele>154.8</ele>
        <time>2026-03-29T10:05:41Z</time>
      </trkpt>
      <trkpt lat="48.59444" lon="1.97568">
        <ele>155</ele>
        <time>2026-03-29T10:05:42Z</time>
      </trkpt>
      <trkpt lat="48.59443" lon="1.9757">
        <ele>155</ele>
        <time>2026-03-29T10:05:43Z</time>
      </trkpt>
      <trkpt lat="48.59442" lon="1.97572">
        <ele>155</ele>
        <time>2026-03-29T10:05:44Z</time>
      </trkpt>
      <trkpt lat="48.59441" lon="1.97575">
        <ele>155.6</ele>
        <time>2026-03-29T10:05:45Z</time>
      </trkpt>
      <trkpt lat="48.5944" lon="1.97577">
        <ele>155.4</ele>
        <time>2026-03-29T10:05:46Z</time>
      </trkpt>
      <trkpt lat="48.5944" lon="1.9758">
        <ele>155.4</ele>
        <time>2026-03-29T10:05:47Z</time>
      </trkpt>
      <trkpt lat="48.5944" lon="1.97583">
        <ele>155.4</ele>
        <time>2026-03-29T10:05:48Z</time>
      </trkpt>
      <trkpt lat="48.59439" lon="1.97585">
        <ele>156</ele>
        <time>2026-03-29T10:05:49Z</time>
      </trkpt>
      <trkpt lat="48.59438" lon="1.97588">
        <ele>156</ele>
        <time>2026-03-29T10:05:50Z</time>
      </trkpt>
      <trkpt lat="48.59437" lon="1.9759">
        <ele>156</ele>
        <time>2026-03-29T10:05:51Z</time>
      </trkpt>
      <trkpt lat="48.59436" lon="1.97592">
        <ele>156</ele>
        <time>2026-03-29T10:05:52Z</time>
      </trkpt>
      <trkpt lat="48.59435" lon="1.97595">
        <ele>156.8</ele>
        <time>2026-03-29T10:05:53Z</time>
      </trkpt>
      <trkpt lat="48.59435" lon="1.97598">
        <ele>156.8</ele>
        <time>2026-03-29T10:05:54Z</time>
      </trkpt>
      <trkpt lat="48.59434" lon="1.976">
        <ele>156.8</ele>
        <time>2026-03-29T10:05:55Z</time>
      </trkpt>
      <trkpt lat="48.59434" lon="1.97603">
        <ele>156.8</ele>
        <time>2026-03-29T10:05:56Z</time>
      </trkpt>
      <trkpt lat="48.59433" lon="1.97605">
        <ele>157.4</ele>
        <time>2026-03-29T10:05:57Z</time>
      </trkpt>
      <trkpt lat="48.59433" lon="1.97608">
        <ele>157.4</ele>
        <time>2026-03-29T10:05:58Z</time>
      </trkpt>
      <trkpt lat="48.59432" lon="1.9761">
        <ele>157.4</ele>
        <time>2026-03-29T10:05:59Z</time>
      </trkpt>
      <trkpt lat="48.59432" lon="1.97613">
        <ele>157.4</ele>
        <time>2026-03-29T10:06:00Z</time>
      </trkpt>
      <trkpt lat="48.59432" lon="1.97615">
        <ele>157.4</ele>
        <time>2026-03-29T10:06:01Z</time>
      </trkpt>
      <trkpt lat="48.59432" lon="1.97618">
        <ele>158.8</ele>
        <time>2026-03-29T10:06:02Z</time>
      </trkpt>
      <trkpt lat="48.59432" lon="1.97621">
        <ele>158.8</ele>
        <time>2026-03-29T10:06:03Z</time>
      </trkpt>
      <trkpt lat="48.59431" lon="1.97623">
        <ele>158.8</ele>
        <time>2026-03-29T10:06:04Z</time>
      </trkpt>
      <trkpt lat="48.59431" lon="1.97626">
        <ele>158.8</ele>
        <time>2026-03-29T10:06:05Z</time>
      </trkpt>
      <trkpt lat="48.59431" lon="1.97628">
        <ele>159.4</ele>
        <time>2026-03-29T10:06:06Z</time>
      </trkpt>
      <trkpt lat="48.59431" lon="1.9763">
        <ele>159.4</ele>
        <time>2026-03-29T10:06:07Z</time>
      </trkpt>
      <trkpt lat="48.5943" lon="1.97633">
        <ele>159.4</ele>
        <time>2026-03-29T10:06:08Z</time>
      </trkpt>
      <trkpt lat="48.5943" lon="1.97635">
        <ele>159.4</ele>
        <time>2026-03-29T10:06:09Z</time>
      </trkpt>
      <trkpt lat="48.5943" lon="1.97638">
        <ele>159.8</ele>
        <time>2026-03-29T10:06:10Z</time>
      </trkpt>
      <trkpt lat="48.5943" lon="1.9764">
        <ele>159.8</ele>
        <time>2026-03-29T10:06:11Z</time>
      </trkpt>
      <trkpt lat="48.59429" lon="1.97643">
        <ele>159.8</ele>
        <time>2026-03-29T10:06:12Z</time>
      </trkpt>
      <trkpt lat="48.59429" lon="1.97645">
        <ele>159.8</ele>
        <time>2026-03-29T10:06:13Z</time>
      </trkpt>
      <trkpt lat="48.59429" lon="1.97648">
        <ele>160.4</ele>
        <time>2026-03-29T10:06:14Z</time>
      </trkpt>
      <trkpt lat="48.59429" lon="1.97651">
        <ele>160.4</ele>
        <time>2026-03-29T10:06:15Z</time>
      </trkpt>
      <trkpt lat="48.59428" lon="1.97653">
        <ele>160.4</ele>
        <time>2026-03-29T10:06:16Z</time>
      </trkpt>
      <trkpt lat="48.59428" lon="1.97656">
        <ele>161.4</ele>
        <time>2026-03-29T10:06:17Z</time>
      </trkpt>
      <trkpt lat="48.59428" lon="1.97658">
        <ele>161.6</ele>
        <time>2026-03-29T10:06:18Z</time>
      </trkpt>
      <trkpt lat="48.59428" lon="1.97661">
        <ele>161.6</ele>
        <time>2026-03-29T10:06:19Z</time>
      </trkpt>
      <trkpt lat="48.59427" lon="1.97663">
        <ele>161.6</ele>
        <time>2026-03-29T10:06:20Z</time>
      </trkpt>
      <trkpt lat="48.59427" lon="1.97666">
        <ele>161.6</ele>
        <time>2026-03-29T10:06:21Z</time>
      </trkpt>
      <trkpt lat="48.59427" lon="1.97668">
        <ele>162.4</ele>
        <time>2026-03-29T10:06:22Z</time>
      </trkpt>
      <trkpt lat="48.59427" lon="1.97671">
        <ele>162.4</ele>
        <time>2026-03-29T10:06:23Z</time>
      </trkpt>
      <trkpt lat="48.59427" lon="1.97673">
        <ele>162.4</ele>
        <time>2026-03-29T10:06:24Z</time>
      </trkpt>
      <trkpt lat="48.59427" lon="1.97676">
        <ele>163</ele>
        <time>2026-03-29T10:06:25Z</time>
      </trkpt>
      <trkpt lat="48.59428" lon="1.97679">
        <ele>163.4</ele>
        <time>2026-03-29T10:06:26Z</time>
      </trkpt>
      <trkpt lat="48.59429" lon="1.97682">
        <ele>163.4</ele>
        <time>2026-03-29T10:06:27Z</time>
      </trkpt>
      <trkpt lat="48.59429" lon="1.97684">
        <ele>163.4</ele>
        <time>2026-03-29T10:06:28Z</time>
      </trkpt>
      <trkpt lat="48.5943" lon="1.97687">
        <ele>163.4</ele>
        <time>2026-03-29T10:06:29Z</time>
      </trkpt>
      <trkpt lat="48.5943" lon="1.97689">
        <ele>163.6</ele>
        <time>2026-03-29T10:06:30Z</time>
      </trkpt>
      <trkpt lat="48.5943" lon="1.97692">
        <ele>163.6</ele>
        <time>2026-03-29T10:06:31Z</time>
      </trkpt>
      <trkpt lat="48.59431" lon="1.97695">
        <ele>163.6</ele>
        <time>2026-03-29T10:06:32Z</time>
      </trkpt>
      <trkpt lat="48.59432" lon="1.97698">
        <ele>163.6</ele>
        <time>2026-03-29T10:06:33Z</time>
      </trkpt>
      <trkpt lat="48.59433" lon="1.977">
        <ele>164.4</ele>
        <time>2026-03-29T10:06:34Z</time>
      </trkpt>
      <trkpt lat="48.59433" lon="1.97703">
        <ele>164.4</ele>
        <time>2026-03-29T10:06:35Z</time>
      </trkpt>
      <trkpt lat="48.59434" lon="1.97705">
        <ele>164.4</ele>
        <time>2026-03-29T10:06:36Z</time>
      </trkpt>
      <trkpt lat="48.59435" lon="1.97708">
        <ele>165.2</ele>
        <time>2026-03-29T10:06:37Z</time>
      </trkpt>
      <trkpt lat="48.59435" lon="1.9771">
        <ele>165.4</ele>
        <time>2026-03-29T10:06:38Z</time>
      </trkpt>
      <trkpt lat="48.59436" lon="1.97713">
        <ele>165.4</ele>
        <time>2026-03-29T10:06:39Z</time>
      </trkpt>
      <trkpt lat="48.59437" lon="1.97716">
        <ele>165.4</ele>
        <time>2026-03-29T10:06:40Z</time>
      </trkpt>
      <trkpt lat="48.59438" lon="1.97718">
        <ele>165.8</ele>
        <time>2026-03-29T10:06:41Z</time>
      </trkpt>
      <trkpt lat="48.59439" lon="1.9772">
        <ele>166</ele>
        <time>2026-03-29T10:06:42Z</time>
      </trkpt>
      <trkpt lat="48.59439" lon="1.97723">
        <ele>166</ele>
        <time>2026-03-29T10:06:43Z</time>
      </trkpt>
      <trkpt lat="48.59439" lon="1.97725">
        <ele>166</ele>
        <time>2026-03-29T10:06:44Z</time>
      </trkpt>
      <trkpt lat="48.59439" lon="1.97728">
        <ele>166.6</ele>
        <time>2026-03-29T10:06:45Z</time>
      </trkpt>
      <trkpt lat="48.59438" lon="1.97731">
        <ele>167.2</ele>
        <time>2026-03-29T10:06:46Z</time>
      </trkpt>
      <trkpt lat="48.59437" lon="1.97732">
        <ele>167.2</ele>
        <time>2026-03-29T10:06:47Z</time>
      </trkpt>
      <trkpt lat="48.59436" lon="1.97734">
        <ele>167.2</ele>
        <time>2026-03-29T10:06:48Z</time>
      </trkpt>
      <trkpt lat="48.59434" lon="1.97734">
        <ele>167.8</ele>
        <time>2026-03-29T10:06:49Z</time>
      </trkpt>
      <trkpt lat="48.59433" lon="1.97734">
        <ele>167.8</ele>
        <time>2026-03-29T10:06:50Z</time>
      </trkpt>
      <trkpt lat="48.59431" lon="1.97734">
        <ele>167.8</ele>
        <time>2026-03-29T10:06:51Z</time>
      </trkpt>
      <trkpt lat="48.59429" lon="1.97734">
        <ele>167.8</ele>
        <time>2026-03-29T10:06:52Z</time>
      </trkpt>
      <trkpt lat="48.59427" lon="1.97733">
        <ele>167.8</ele>
        <time>2026-03-29T10:06:53Z</time>
      </trkpt>
      <trkpt lat="48.59425" lon="1.97732">
        <ele>168</ele>
        <time>2026-03-29T10:06:54Z</time>
      </trkpt>
      <trkpt lat="48.59423" lon="1.97732">
        <ele>168</ele>
        <time>2026-03-29T10:06:55Z</time>
      </trkpt>
      <trkpt lat="48.59421" lon="1.97731">
        <ele>168</ele>
        <time>2026-03-29T10:06:56Z</time>
      </trkpt>
      <trkpt lat="48.59418" lon="1.97729">
        <ele>168</ele>
        <time>2026-03-29T10:06:57Z</time>
      </trkpt>
      <trkpt lat="48.59416" lon="1.97728">
        <ele>167.8</ele>
        <time>2026-03-29T10:06:58Z</time>
      </trkpt>
      <trkpt lat="48.59414" lon="1.97727">
        <ele>167.8</ele>
        <time>2026-03-29T10:06:59Z</time>
      </trkpt>
      <trkpt lat="48.59411" lon="1.97725">
        <ele>167.8</ele>
        <time>2026-03-29T10:07:00Z</time>
      </trkpt>
      <trkpt lat="48.59409" lon="1.97724">
        <ele>167.8</ele>
        <time>2026-03-29T10:07:01Z</time>
      </trkpt>
      <trkpt lat="48.59407" lon="1.97723">
        <ele>167.8</ele>
        <time>2026-03-29T10:07:02Z</time>
      </trkpt>
      <trkpt lat="48.59404" lon="1.97722">
        <ele>167.8</ele>
        <time>2026-03-29T10:07:03Z</time>
      </trkpt>
      <trkpt lat="48.59402" lon="1.97721">
        <ele>167.8</ele>
        <time>2026-03-29T10:07:04Z</time>
      </trkpt>
      <trkpt lat="48.59399" lon="1.97719">
        <ele>167.8</ele>
        <time>2026-03-29T10:07:05Z</time>
      </trkpt>
      <trkpt lat="48.59397" lon="1.97717">
        <ele>167.4</ele>
        <time>2026-03-29T10:07:06Z</time>
      </trkpt>
      <trkpt lat="48.59394" lon="1.97715">
        <ele>167.4</ele>
        <time>2026-03-29T10:07:07Z</time>
      </trkpt>
      <trkpt lat="48.59391" lon="1.97714">
        <ele>167.4</ele>
        <time>2026-03-29T10:07:08Z</time>
      </trkpt>
      <trkpt lat="48.59388" lon="1.97712">
        <ele>167.8</ele>
        <time>2026-03-29T10:07:09Z</time>
      </trkpt>
      <trkpt lat="48.59386" lon="1.97711">
        <ele>168.2</ele>
        <time>2026-03-29T10:07:10Z</time>
      </trkpt>
      <trkpt lat="48.59383" lon="1.9771">
        <ele>168.2</ele>
        <time>2026-03-29T10:07:11Z</time>
      </trkpt>
      <trkpt lat="48.5938" lon="1.97708">
        <ele>168.2</ele>
        <time>2026-03-29T10:07:12Z</time>
      </trkpt>
      <trkpt lat="48.59377" lon="1.97707">
        <ele>168.2</ele>
        <time>2026-03-29T10:07:13Z</time>
      </trkpt>
      <trkpt lat="48.59374" lon="1.97706">
        <ele>168</ele>
        <time>2026-03-29T10:07:14Z</time>
      </trkpt>
      <trkpt lat="48.59371" lon="1.97706">
        <ele>168</ele>
        <time>2026-03-29T10:07:15Z</time>
      </trkpt>
      <trkpt lat="48.59368" lon="1.97706">
        <ele>168</ele>
        <time>2026-03-29T10:07:16Z</time>
      </trkpt>
      <trkpt lat="48.59365" lon="1.97706">
        <ele>168</ele>
        <time>2026-03-29T10:07:17Z</time>
      </trkpt>
      <trkpt lat="48.59362" lon="1.97707">
        <ele>168.4</ele>
        <time>2026-03-29T10:07:18Z</time>
      </trkpt>
      <trkpt lat="48.5936" lon="1.97709">
        <ele>168.4</ele>
        <time>2026-03-29T10:07:19Z</time>
      </trkpt>
      <trkpt lat="48.59357" lon="1.97712">
        <ele>168.4</ele>
        <time>2026-03-29T10:07:20Z</time>
      </trkpt>
      <trkpt lat="48.59355" lon="1.97716">
        <ele>168.2</ele>
        <time>2026-03-29T10:07:21Z</time>
      </trkpt>
      <trkpt lat="48.59354" lon="1.9772">
        <ele>168</ele>
        <time>2026-03-29T10:07:22Z</time>
      </trkpt>
      <trkpt lat="48.59352" lon="1.97724">
        <ele>168</ele>
        <time>2026-03-29T10:07:23Z</time>
      </trkpt>
      <trkpt lat="48.5935" lon="1.97728">
        <ele>168</ele>
        <time>2026-03-29T10:07:24Z</time>
      </trkpt>
      <trkpt lat="48.59348" lon="1.97731">
        <ele>168</ele>
        <time>2026-03-29T10:07:25Z</time>
      </trkpt>
      <trkpt lat="48.59347" lon="1.97735">
        <ele>167.8</ele>
        <time>2026-03-29T10:07:26Z</time>
      </trkpt>
      <trkpt lat="48.59345" lon="1.9774">
        <ele>167.8</ele>
        <time>2026-03-29T10:07:27Z</time>
      </trkpt>
      <trkpt lat="48.59344" lon="1.97744">
        <ele>167.8</ele>
        <time>2026-03-29T10:07:28Z</time>
      </trkpt>
      <trkpt lat="48.59343" lon="1.97748">
        <ele>167.8</ele>
        <time>2026-03-29T10:07:29Z</time>
      </trkpt>
      <trkpt lat="48.59341" lon="1.97752">
        <ele>168</ele>
        <time>2026-03-29T10:07:30Z</time>
      </trkpt>
      <trkpt lat="48.59339" lon="1.97757">
        <ele>168</ele>
        <time>2026-03-29T10:07:31Z</time>
      </trkpt>
      <trkpt lat="48.59337" lon="1.97761">
        <ele>168</ele>
        <time>2026-03-29T10:07:32Z</time>
      </trkpt>
      <trkpt lat="48.59337" lon="1.97766">
        <ele>168</ele>
        <time>2026-03-29T10:07:33Z</time>
      </trkpt>
      <trkpt lat="48.59336" lon="1.9777">
        <ele>168</ele>
        <time>2026-03-29T10:07:34Z</time>
      </trkpt>
      <trkpt lat="48.59336" lon="1.97776">
        <ele>168</ele>
        <time>2026-03-29T10:07:35Z</time>
      </trkpt>
      <trkpt lat="48.59337" lon="1.97781">
        <ele>168</ele>
        <time>2026-03-29T10:07:36Z</time>
      </trkpt>
      <trkpt lat="48.59338" lon="1.97787">
        <ele>167.6</ele>
        <time>2026-03-29T10:07:37Z</time>
      </trkpt>
      <trkpt lat="48.5934" lon="1.97793">
        <ele>167.6</ele>
        <time>2026-03-29T10:07:38Z</time>
      </trkpt>
      <trkpt lat="48.59341" lon="1.97798">
        <ele>167.6</ele>
        <time>2026-03-29T10:07:39Z</time>
      </trkpt>
      <trkpt lat="48.59343" lon="1.97803">
        <ele>167.6</ele>
        <time>2026-03-29T10:07:40Z</time>
      </trkpt>
      <trkpt lat="48.59345" lon="1.97808">
        <ele>167.6</ele>
        <time>2026-03-29T10:07:41Z</time>
      </trkpt>
      <trkpt lat="48.59347" lon="1.97813">
        <ele>168</ele>
        <time>2026-03-29T10:07:42Z</time>
      </trkpt>
      <trkpt lat="48.59348" lon="1.97817">
        <ele>168</ele>
        <time>2026-03-29T10:07:43Z</time>
      </trkpt>
      <trkpt lat="48.59349" lon="1.97822">
        <ele>168</ele>
        <time>2026-03-29T10:07:44Z</time>
      </trkpt>
      <trkpt lat="48.59351" lon="1.97828">
        <ele>168</ele>
        <time>2026-03-29T10:07:45Z</time>
      </trkpt>
      <trkpt lat="48.59352" lon="1.97833">
        <ele>167.6</ele>
        <time>2026-03-29T10:07:46Z</time>
      </trkpt>
      <trkpt lat="48.59354" lon="1.97838">
        <ele>167.6</ele>
        <time>2026-03-29T10:07:47Z</time>
      </trkpt>
      <trkpt lat="48.59355" lon="1.97843">
        <ele>167.6</ele>
        <time>2026-03-29T10:07:48Z</time>
      </trkpt>
      <trkpt lat="48.59356" lon="1.97849">
        <ele>167.6</ele>
        <time>2026-03-29T10:07:49Z</time>
      </trkpt>
      <trkpt lat="48.59358" lon="1.97854">
        <ele>167.4</ele>
        <time>2026-03-29T10:07:50Z</time>
      </trkpt>
      <trkpt lat="48.5936" lon="1.97859">
        <ele>167.4</ele>
        <time>2026-03-29T10:07:51Z</time>
      </trkpt>
      <trkpt lat="48.59361" lon="1.97865">
        <ele>167.4</ele>
        <time>2026-03-29T10:07:52Z</time>
      </trkpt>
      <trkpt lat="48.59362" lon="1.9787">
        <ele>167.4</ele>
        <time>2026-03-29T10:07:53Z</time>
      </trkpt>
      <trkpt lat="48.59363" lon="1.97874">
        <ele>167.2</ele>
        <time>2026-03-29T10:07:54Z</time>
      </trkpt>
      <trkpt lat="48.59365" lon="1.97879">
        <ele>167.2</ele>
        <time>2026-03-29T10:07:55Z</time>
      </trkpt>
      <trkpt lat="48.59366" lon="1.97884">
        <ele>167.2</ele>
        <time>2026-03-29T10:07:56Z</time>
      </trkpt>
      <trkpt lat="48.59366" lon="1.97889">
        <ele>167.4</ele>
        <time>2026-03-29T10:07:57Z</time>
      </trkpt>
      <trkpt lat="48.59367" lon="1.97894">
        <ele>167.8</ele>
        <time>2026-03-29T10:07:58Z</time>
      </trkpt>
      <trkpt lat="48.59366" lon="1.97899">
        <ele>167.8</ele>
        <time>2026-03-29T10:07:59Z</time>
      </trkpt>
      <trkpt lat="48.59366" lon="1.97905">
        <ele>167.8</ele>
        <time>2026-03-29T10:08:00Z</time>
      </trkpt>
      <trkpt lat="48.59365" lon="1.97909">
        <ele>167.8</ele>
        <time>2026-03-29T10:08:01Z</time>
      </trkpt>
      <trkpt lat="48.59365" lon="1.97915">
        <ele>167.8</ele>
        <time>2026-03-29T10:08:02Z</time>
      </trkpt>
      <trkpt lat="48.59366" lon="1.9792">
        <ele>167.8</ele>
        <time>2026-03-29T10:08:03Z</time>
      </trkpt>
      <trkpt lat="48.59366" lon="1.97925">
        <ele>167.8</ele>
        <time>2026-03-29T10:08:04Z</time>
      </trkpt>
      <trkpt lat="48.59366" lon="1.9793">
        <ele>167.8</ele>
        <time>2026-03-29T10:08:05Z</time>
      </trkpt>
      <trkpt lat="48.59365" lon="1.97935">
        <ele>168.2</ele>
        <time>2026-03-29T10:08:06Z</time>
      </trkpt>
      <trkpt lat="48.59365" lon="1.9794">
        <ele>168.2</ele>
        <time>2026-03-29T10:08:07Z</time>
      </trkpt>
      <trkpt lat="48.59364" lon="1.97946">
        <ele>168.2</ele>
        <time>2026-03-29T10:08:08Z</time>
      </trkpt>
      <trkpt lat="48.59362" lon="1.9795">
        <ele>167.8</ele>
        <time>2026-03-29T10:08:09Z</time>
      </trkpt>
      <trkpt lat="48.59361" lon="1.97955">
        <ele>167.8</ele>
        <time>2026-03-29T10:08:10Z</time>
      </trkpt>
      <trkpt lat="48.5936" lon="1.9796">
        <ele>167.8</ele>
        <time>2026-03-29T10:08:11Z</time>
      </trkpt>
      <trkpt lat="48.59358" lon="1.97965">
        <ele>167.8</ele>
        <time>2026-03-29T10:08:12Z</time>
      </trkpt>
      <trkpt lat="48.59357" lon="1.9797">
        <ele>167.8</ele>
        <time>2026-03-29T10:08:13Z</time>
      </trkpt>
      <trkpt lat="48.59356" lon="1.97975">
        <ele>167.8</ele>
        <time>2026-03-29T10:08:14Z</time>
      </trkpt>
      <trkpt lat="48.59354" lon="1.9798">
        <ele>167.8</ele>
        <time>2026-03-29T10:08:15Z</time>
      </trkpt>
      <trkpt lat="48.59353" lon="1.97984">
        <ele>167.8</ele>
        <time>2026-03-29T10:08:16Z</time>
      </trkpt>
      <trkpt lat="48.59351" lon="1.97988">
        <ele>167.6</ele>
        <time>2026-03-29T10:08:17Z</time>
      </trkpt>
      <trkpt lat="48.5935" lon="1.97991">
        <ele>167.6</ele>
        <time>2026-03-29T10:08:18Z</time>
      </trkpt>
      <trkpt lat="48.59348" lon="1.97994">
        <ele>167.6</ele>
        <time>2026-03-29T10:08:19Z</time>
      </trkpt>
      <trkpt lat="48.59345" lon="1.97997">
        <ele>167.6</ele>
        <time>2026-03-29T10:08:20Z</time>
      </trkpt>
      <trkpt lat="48.59343" lon="1.97999">
        <ele>167.6</ele>
        <time>2026-03-29T10:08:21Z</time>
      </trkpt>
      <trkpt lat="48.5934" lon="1.98001">
        <ele>166.8</ele>
        <time>2026-03-29T10:08:22Z</time>
      </trkpt>
      <trkpt lat="48.59337" lon="1.98">
        <ele>166.8</ele>
        <time>2026-03-29T10:08:23Z</time>
      </trkpt>
      <trkpt lat="48.59334" lon="1.97998">
        <ele>166.8</ele>
        <time>2026-03-29T10:08:24Z</time>
      </trkpt>
      <trkpt lat="48.5933" lon="1.97998">
        <ele>165.8</ele>
        <time>2026-03-29T10:08:25Z</time>
      </trkpt>
      <trkpt lat="48.59326" lon="1.98">
        <ele>164.2</ele>
        <time>2026-03-29T10:08:26Z</time>
      </trkpt>
      <trkpt lat="48.59322" lon="1.98001">
        <ele>164.2</ele>
        <time>2026-03-29T10:08:27Z</time>
      </trkpt>
      <trkpt lat="48.59319" lon="1.98002">
        <ele>164.2</ele>
        <time>2026-03-29T10:08:28Z</time>
      </trkpt>
      <trkpt lat="48.59315" lon="1.98005">
        <ele>163.2</ele>
        <time>2026-03-29T10:08:29Z</time>
      </trkpt>
      <trkpt lat="48.59312" lon="1.98008">
        <ele>160.2</ele>
        <time>2026-03-29T10:08:30Z</time>
      </trkpt>
      <trkpt lat="48.59309" lon="1.98011">
        <ele>160.2</ele>
        <time>2026-03-29T10:08:31Z</time>
      </trkpt>
      <trkpt lat="48.59305" lon="1.98013">
        <ele>160.2</ele>
        <time>2026-03-29T10:08:32Z</time>
      </trkpt>
      <trkpt lat="48.59301" lon="1.98014">
        <ele>159.2</ele>
        <time>2026-03-29T10:08:33Z</time>
      </trkpt>
      <trkpt lat="48.59296" lon="1.98013">
        <ele>156.2</ele>
        <time>2026-03-29T10:08:34Z</time>
      </trkpt>
      <trkpt lat="48.59292" lon="1.98014">
        <ele>156.2</ele>
        <time>2026-03-29T10:08:35Z</time>
      </trkpt>
      <trkpt lat="48.59288" lon="1.98017">
        <ele>156.2</ele>
        <time>2026-03-29T10:08:36Z</time>
      </trkpt>
      <trkpt lat="48.59284" lon="1.9802">
        <ele>155.2</ele>
        <time>2026-03-29T10:08:37Z</time>
      </trkpt>
      <trkpt lat="48.5928" lon="1.9802">
        <ele>153.2</ele>
        <time>2026-03-29T10:08:38Z</time>
      </trkpt>
      <trkpt lat="48.59275" lon="1.9802">
        <ele>153.2</ele>
        <time>2026-03-29T10:08:39Z</time>
      </trkpt>
      <trkpt lat="48.5927" lon="1.98019">
        <ele>153.2</ele>
        <time>2026-03-29T10:08:40Z</time>
      </trkpt>
      <trkpt lat="48.59264" lon="1.98017">
        <ele>152.2</ele>
        <time>2026-03-29T10:08:41Z</time>
      </trkpt>
      <trkpt lat="48.59258" lon="1.98016">
        <ele>150.2</ele>
        <time>2026-03-29T10:08:42Z</time>
      </trkpt>
      <trkpt lat="48.59253" lon="1.98015">
        <ele>150.2</ele>
        <time>2026-03-29T10:08:43Z</time>
      </trkpt>
      <trkpt lat="48.5925" lon="1.98016">
        <ele>150.2</ele>
        <time>2026-03-29T10:08:44Z</time>
      </trkpt>
      <trkpt lat="48.59246" lon="1.98019">
        <ele>149.2</ele>
        <time>2026-03-29T10:08:45Z</time>
      </trkpt>
      <trkpt lat="48.59244" lon="1.98024">
        <ele>149</ele>
        <time>2026-03-29T10:08:46Z</time>
      </trkpt>
      <trkpt lat="48.59242" lon="1.9803">
        <ele>149</ele>
        <time>2026-03-29T10:08:47Z</time>
      </trkpt>
      <trkpt lat="48.5924" lon="1.98035">
        <ele>149</ele>
        <time>2026-03-29T10:08:48Z</time>
      </trkpt>
      <trkpt lat="48.59238" lon="1.9804">
        <ele>149</ele>
        <time>2026-03-29T10:08:49Z</time>
      </trkpt>
      <trkpt lat="48.59235" lon="1.98046">
        <ele>146.4</ele>
        <time>2026-03-29T10:08:50Z</time>
      </trkpt>
      <trkpt lat="48.59233" lon="1.9805">
        <ele>146.4</ele>
        <time>2026-03-29T10:08:51Z</time>
      </trkpt>
      <trkpt lat="48.59232" lon="1.98055">
        <ele>146.4</ele>
        <time>2026-03-29T10:08:52Z</time>
      </trkpt>
      <trkpt lat="48.59231" lon="1.9806">
        <ele>145.4</ele>
        <time>2026-03-29T10:08:53Z</time>
      </trkpt>
      <trkpt lat="48.59229" lon="1.98066">
        <ele>142.8</ele>
        <time>2026-03-29T10:08:54Z</time>
      </trkpt>
      <trkpt lat="48.59227" lon="1.98071">
        <ele>142.8</ele>
        <time>2026-03-29T10:08:55Z</time>
      </trkpt>
      <trkpt lat="48.59226" lon="1.98077">
        <ele>142.8</ele>
        <time>2026-03-29T10:08:56Z</time>
      </trkpt>
      <trkpt lat="48.59224" lon="1.98084">
        <ele>141.8</ele>
        <time>2026-03-29T10:08:57Z</time>
      </trkpt>
      <trkpt lat="48.59221" lon="1.98091">
        <ele>141</ele>
        <time>2026-03-29T10:08:58Z</time>
      </trkpt>
      <trkpt lat="48.59219" lon="1.98099">
        <ele>141</ele>
        <time>2026-03-29T10:08:59Z</time>
      </trkpt>
      <trkpt lat="48.59216" lon="1.98106">
        <ele>141</ele>
        <time>2026-03-29T10:09:00Z</time>
      </trkpt>
      <trkpt lat="48.59214" lon="1.98112">
        <ele>140</ele>
        <time>2026-03-29T10:09:01Z</time>
      </trkpt>
      <trkpt lat="48.59211" lon="1.98119">
        <ele>137.6</ele>
        <time>2026-03-29T10:09:02Z</time>
      </trkpt>
      <trkpt lat="48.59209" lon="1.98127">
        <ele>137.6</ele>
        <time>2026-03-29T10:09:03Z</time>
      </trkpt>
      <trkpt lat="48.59206" lon="1.98135">
        <ele>137.6</ele>
        <time>2026-03-29T10:09:04Z</time>
      </trkpt>
      <trkpt lat="48.59203" lon="1.98143">
        <ele>136.6</ele>
        <time>2026-03-29T10:09:05Z</time>
      </trkpt>
      <trkpt lat="48.59199" lon="1.98152">
        <ele>135.6</ele>
        <time>2026-03-29T10:09:06Z</time>
      </trkpt>
      <trkpt lat="48.59195" lon="1.98161">
        <ele>135.6</ele>
        <time>2026-03-29T10:09:07Z</time>
      </trkpt>
      <trkpt lat="48.59192" lon="1.9817">
        <ele>135.6</ele>
        <time>2026-03-29T10:09:08Z</time>
      </trkpt>
      <trkpt lat="48.59191" lon="1.98177">
        <ele>135.6</ele>
        <time>2026-03-29T10:09:09Z</time>
      </trkpt>
      <trkpt lat="48.59189" lon="1.98185">
        <ele>134.8</ele>
        <time>2026-03-29T10:09:10Z</time>
      </trkpt>
      <trkpt lat="48.59185" lon="1.98192">
        <ele>134.8</ele>
        <time>2026-03-29T10:09:11Z</time>
      </trkpt>
      <trkpt lat="48.59183" lon="1.98199">
        <ele>134.8</ele>
        <time>2026-03-29T10:09:12Z</time>
      </trkpt>
      <trkpt lat="48.5918" lon="1.98206">
        <ele>134.8</ele>
        <time>2026-03-29T10:09:13Z</time>
      </trkpt>
      <trkpt lat="48.59177" lon="1.98214">
        <ele>133.2</ele>
        <time>2026-03-29T10:09:14Z</time>
      </trkpt>
      <trkpt lat="48.59174" lon="1.98223">
        <ele>133.2</ele>
        <time>2026-03-29T10:09:15Z</time>
      </trkpt>
      <trkpt lat="48.59171" lon="1.98231">
        <ele>133.2</ele>
        <time>2026-03-29T10:09:16Z</time>
      </trkpt>
      <trkpt lat="48.59168" lon="1.98241">
        <ele>133.2</ele>
        <time>2026-03-29T10:09:17Z</time>
      </trkpt>
      <trkpt lat="48.59165" lon="1.98251">
        <ele>131.4</ele>
        <time>2026-03-29T10:09:18Z</time>
      </trkpt>
      <trkpt lat="48.59161" lon="1.98261">
        <ele>131.4</ele>
        <time>2026-03-29T10:09:19Z</time>
      </trkpt>
      <trkpt lat="48.59158" lon="1.98271">
        <ele>131.4</ele>
        <time>2026-03-29T10:09:20Z</time>
      </trkpt>
      <trkpt lat="48.59156" lon="1.98279">
        <ele>131.4</ele>
        <time>2026-03-29T10:09:21Z</time>
      </trkpt>
      <trkpt lat="48.59154" lon="1.98288">
        <ele>131</ele>
        <time>2026-03-29T10:09:22Z</time>
      </trkpt>
      <trkpt lat="48.59153" lon="1.98298">
        <ele>131</ele>
        <time>2026-03-29T10:09:23Z</time>
      </trkpt>
      <trkpt lat="48.59155" lon="1.98308">
        <ele>131</ele>
        <time>2026-03-29T10:09:24Z</time>
      </trkpt>
      <trkpt lat="48.59156" lon="1.98317">
        <ele>131</ele>
        <time>2026-03-29T10:09:25Z</time>
      </trkpt>
      <trkpt lat="48.59158" lon="1.98325">
        <ele>130.2</ele>
        <time>2026-03-29T10:09:26Z</time>
      </trkpt>
      <trkpt lat="48.59161" lon="1.98333">
        <ele>130.2</ele>
        <time>2026-03-29T10:09:27Z</time>
      </trkpt>
      <trkpt lat="48.59165" lon="1.98338">
        <ele>130.2</ele>
        <time>2026-03-29T10:09:28Z</time>
      </trkpt>
      <trkpt lat="48.59168" lon="1.98341">
        <ele>130.6</ele>
        <time>2026-03-29T10:09:29Z</time>
      </trkpt>
      <trkpt lat="48.59172" lon="1.98346">
        <ele>130.4</ele>
        <time>2026-03-29T10:09:30Z</time>
      </trkpt>
      <trkpt lat="48.59176" lon="1.98351">
        <ele>130.4</ele>
        <time>2026-03-29T10:09:31Z</time>
      </trkpt>
      <trkpt lat="48.59179" lon="1.98355">
        <ele>130.4</ele>
        <time>2026-03-29T10:09:32Z</time>
      </trkpt>
      <trkpt lat="48.59183" lon="1.98359">
        <ele>130.4</ele>
        <time>2026-03-29T10:09:33Z</time>
      </trkpt>
      <trkpt lat="48.59188" lon="1.98364">
        <ele>130.4</ele>
        <time>2026-03-29T10:09:34Z</time>
      </trkpt>
      <trkpt lat="48.59192" lon="1.98368">
        <ele>130.4</ele>
        <time>2026-03-29T10:09:35Z</time>
      </trkpt>
      <trkpt lat="48.59197" lon="1.98374">
        <ele>130.4</ele>
        <time>2026-03-29T10:09:36Z</time>
      </trkpt>
      <trkpt lat="48.59203" lon="1.9838">
        <ele>129.6</ele>
        <time>2026-03-29T10:09:37Z</time>
      </trkpt>
      <trkpt lat="48.59208" lon="1.98385">
        <ele>130</ele>
        <time>2026-03-29T10:09:38Z</time>
      </trkpt>
      <trkpt lat="48.59214" lon="1.98391">
        <ele>130</ele>
        <time>2026-03-29T10:09:39Z</time>
      </trkpt>
      <trkpt lat="48.5922" lon="1.98397">
        <ele>130</ele>
        <time>2026-03-29T10:09:40Z</time>
      </trkpt>
      <trkpt lat="48.59225" lon="1.98403">
        <ele>129</ele>
        <time>2026-03-29T10:09:41Z</time>
      </trkpt>
      <trkpt lat="48.59231" lon="1.98409">
        <ele>128.4</ele>
        <time>2026-03-29T10:09:42Z</time>
      </trkpt>
      <trkpt lat="48.59237" lon="1.98414">
        <ele>128.4</ele>
        <time>2026-03-29T10:09:43Z</time>
      </trkpt>
      <trkpt lat="48.59243" lon="1.9842">
        <ele>128.4</ele>
        <time>2026-03-29T10:09:44Z</time>
      </trkpt>
      <trkpt lat="48.59249" lon="1.98426">
        <ele>127.4</ele>
        <time>2026-03-29T10:09:45Z</time>
      </trkpt>
      <trkpt lat="48.59256" lon="1.98433">
        <ele>127.2</ele>
        <time>2026-03-29T10:09:46Z</time>
      </trkpt>
      <trkpt lat="48.59263" lon="1.98439">
        <ele>127.2</ele>
        <time>2026-03-29T10:09:47Z</time>
      </trkpt>
      <trkpt lat="48.59268" lon="1.98445">
        <ele>127.2</ele>
        <time>2026-03-29T10:09:48Z</time>
      </trkpt>
      <trkpt lat="48.59275" lon="1.9845">
        <ele>126.2</ele>
        <time>2026-03-29T10:09:49Z</time>
      </trkpt>
      <trkpt lat="48.59281" lon="1.98456">
        <ele>124.4</ele>
        <time>2026-03-29T10:09:50Z</time>
      </trkpt>
      <trkpt lat="48.59287" lon="1.98462">
        <ele>124.4</ele>
        <time>2026-03-29T10:09:51Z</time>
      </trkpt>
      <trkpt lat="48.59293" lon="1.98468">
        <ele>124.4</ele>
        <time>2026-03-29T10:09:52Z</time>
      </trkpt>
      <trkpt lat="48.59299" lon="1.98474">
        <ele>124.4</ele>
        <time>2026-03-29T10:09:53Z</time>
      </trkpt>
      <trkpt lat="48.59304" lon="1.98479">
        <ele>123</ele>
        <time>2026-03-29T10:09:54Z</time>
      </trkpt>
      <trkpt lat="48.5931" lon="1.98485">
        <ele>123</ele>
        <time>2026-03-29T10:09:55Z</time>
      </trkpt>
      <trkpt lat="48.59315" lon="1.9849">
        <ele>123</ele>
        <time>2026-03-29T10:09:56Z</time>
      </trkpt>
      <trkpt lat="48.5932" lon="1.98495">
        <ele>123.6</ele>
        <time>2026-03-29T10:09:57Z</time>
      </trkpt>
      <trkpt lat="48.59324" lon="1.985">
        <ele>123.8</ele>
        <time>2026-03-29T10:09:58Z</time>
      </trkpt>
      <trkpt lat="48.59328" lon="1.98504">
        <ele>123.8</ele>
        <time>2026-03-29T10:09:59Z</time>
      </trkpt>
      <trkpt lat="48.59332" lon="1.98508">
        <ele>123.8</ele>
        <time>2026-03-29T10:10:00Z</time>
      </trkpt>
      <trkpt lat="48.59335" lon="1.98514">
        <ele>123.8</ele>
        <time>2026-03-29T10:10:01Z</time>
      </trkpt>
      <trkpt lat="48.59339" lon="1.98521">
        <ele>123.8</ele>
        <time>2026-03-29T10:10:02Z</time>
      </trkpt>
      <trkpt lat="48.59342" lon="1.98526">
        <ele>123.8</ele>
        <time>2026-03-29T10:10:03Z</time>
      </trkpt>
      <trkpt lat="48.59345" lon="1.98531">
        <ele>123.8</ele>
        <time>2026-03-29T10:10:04Z</time>
      </trkpt>
      <trkpt lat="48.59347" lon="1.98536">
        <ele>123.8</ele>
        <time>2026-03-29T10:10:05Z</time>
      </trkpt>
      <trkpt lat="48.5935" lon="1.9854">
        <ele>124</ele>
        <time>2026-03-29T10:10:06Z</time>
      </trkpt>
      <trkpt lat="48.59352" lon="1.98544">
        <ele>124</ele>
        <time>2026-03-29T10:10:07Z</time>
      </trkpt>
      <trkpt lat="48.59355" lon="1.98549">
        <ele>124</ele>
        <time>2026-03-29T10:10:08Z</time>
      </trkpt>
      <trkpt lat="48.59358" lon="1.98554">
        <ele>123.6</ele>
        <time>2026-03-29T10:10:09Z</time>
      </trkpt>
      <trkpt lat="48.59361" lon="1.98559">
        <ele>123.4</ele>
        <time>2026-03-29T10:10:10Z</time>
      </trkpt>
      <trkpt lat="48.59363" lon="1.98563">
        <ele>123.4</ele>
        <time>2026-03-29T10:10:11Z</time>
      </trkpt>
      <trkpt lat="48.59366" lon="1.98567">
        <ele>123.4</ele>
        <time>2026-03-29T10:10:12Z</time>
      </trkpt>
      <trkpt lat="48.59369" lon="1.98571">
        <ele>123.4</ele>
        <time>2026-03-29T10:10:13Z</time>
      </trkpt>
      <trkpt lat="48.59371" lon="1.98575">
        <ele>123.8</ele>
        <time>2026-03-29T10:10:14Z</time>
      </trkpt>
      <trkpt lat="48.59373" lon="1.98579">
        <ele>123.8</ele>
        <time>2026-03-29T10:10:15Z</time>
      </trkpt>
      <trkpt lat="48.59375" lon="1.98583">
        <ele>123.8</ele>
        <time>2026-03-29T10:10:16Z</time>
      </trkpt>
      <trkpt lat="48.59377" lon="1.98588">
        <ele>123.8</ele>
        <time>2026-03-29T10:10:17Z</time>
      </trkpt>
      <trkpt lat="48.59379" lon="1.98592">
        <ele>123.8</ele>
        <time>2026-03-29T10:10:18Z</time>
      </trkpt>
      <trkpt lat="48.59381" lon="1.98596">
        <ele>123.8</ele>
        <time>2026-03-29T10:10:19Z</time>
      </trkpt>
      <trkpt lat="48.59382" lon="1.98599">
        <ele>123.8</ele>
        <time>2026-03-29T10:10:20Z</time>
      </trkpt>
      <trkpt lat="48.59385" lon="1.98603">
        <ele>124.6</ele>
        <time>2026-03-29T10:10:21Z</time>
      </trkpt>
      <trkpt lat="48.59388" lon="1.98609">
        <ele>124.8</ele>
        <time>2026-03-29T10:10:22Z</time>
      </trkpt>
      <trkpt lat="48.5939" lon="1.98613">
        <ele>124.8</ele>
        <time>2026-03-29T10:10:23Z</time>
      </trkpt>
      <trkpt lat="48.59393" lon="1.98617">
        <ele>124.8</ele>
        <time>2026-03-29T10:10:24Z</time>
      </trkpt>
      <trkpt lat="48.59396" lon="1.98622">
        <ele>124.4</ele>
        <time>2026-03-29T10:10:25Z</time>
      </trkpt>
      <trkpt lat="48.59398" lon="1.98626">
        <ele>124.4</ele>
        <time>2026-03-29T10:10:26Z</time>
      </trkpt>
      <trkpt lat="48.59401" lon="1.98631">
        <ele>124.4</ele>
        <time>2026-03-29T10:10:27Z</time>
      </trkpt>
      <trkpt lat="48.59402" lon="1.98635">
        <ele>124.4</ele>
        <time>2026-03-29T10:10:28Z</time>
      </trkpt>
      <trkpt lat="48.59405" lon="1.98639">
        <ele>125</ele>
        <time>2026-03-29T10:10:29Z</time>
      </trkpt>
      <trkpt lat="48.59407" lon="1.98642">
        <ele>125</ele>
        <time>2026-03-29T10:10:30Z</time>
      </trkpt>
      <trkpt lat="48.59409" lon="1.98646">
        <ele>125</ele>
        <time>2026-03-29T10:10:31Z</time>
      </trkpt>
      <trkpt lat="48.59412" lon="1.98652">
        <ele>125</ele>
        <time>2026-03-29T10:10:32Z</time>
      </trkpt>
      <trkpt lat="48.59414" lon="1.98656">
        <ele>125.2</ele>
        <time>2026-03-29T10:10:33Z</time>
      </trkpt>
      <trkpt lat="48.59418" lon="1.98662">
        <ele>125.2</ele>
        <time>2026-03-29T10:10:34Z</time>
      </trkpt>
      <trkpt lat="48.59421" lon="1.98667">
        <ele>125.2</ele>
        <time>2026-03-29T10:10:35Z</time>
      </trkpt>
      <trkpt lat="48.59424" lon="1.98672">
        <ele>125.2</ele>
        <time>2026-03-29T10:10:36Z</time>
      </trkpt>
      <trkpt lat="48.59427" lon="1.98676">
        <ele>125.2</ele>
        <time>2026-03-29T10:10:37Z</time>
      </trkpt>
      <trkpt lat="48.59429" lon="1.9868">
        <ele>125.2</ele>
        <time>2026-03-29T10:10:38Z</time>
      </trkpt>
      <trkpt lat="48.59431" lon="1.98684">
        <ele>125.2</ele>
        <time>2026-03-29T10:10:39Z</time>
      </trkpt>
      <trkpt lat="48.59434" lon="1.98687">
        <ele>125.2</ele>
        <time>2026-03-29T10:10:40Z</time>
      </trkpt>
      <trkpt lat="48.59436" lon="1.9869">
        <ele>126.2</ele>
        <time>2026-03-29T10:10:41Z</time>
      </trkpt>
      <trkpt lat="48.59438" lon="1.98694">
        <ele>125.8</ele>
        <time>2026-03-29T10:10:42Z</time>
      </trkpt>
      <trkpt lat="48.5944" lon="1.98698">
        <ele>125.8</ele>
        <time>2026-03-29T10:10:43Z</time>
      </trkpt>
      <trkpt lat="48.59442" lon="1.98701">
        <ele>125.8</ele>
        <time>2026-03-29T10:10:44Z</time>
      </trkpt>
      <trkpt lat="48.59445" lon="1.98706">
        <ele>126.8</ele>
        <time>2026-03-29T10:10:45Z</time>
      </trkpt>
      <trkpt lat="48.59447" lon="1.9871">
        <ele>127.2</ele>
        <time>2026-03-29T10:10:46Z</time>
      </trkpt>
      <trkpt lat="48.59449" lon="1.98713">
        <ele>127.2</ele>
        <time>2026-03-29T10:10:47Z</time>
      </trkpt>
      <trkpt lat="48.59451" lon="1.98717">
        <ele>127.2</ele>
        <time>2026-03-29T10:10:48Z</time>
      </trkpt>
      <trkpt lat="48.59454" lon="1.98721">
        <ele>127.2</ele>
        <time>2026-03-29T10:10:49Z</time>
      </trkpt>
      <trkpt lat="48.59456" lon="1.98724">
        <ele>127.8</ele>
        <time>2026-03-29T10:10:50Z</time>
      </trkpt>
      <trkpt lat="48.59457" lon="1.98727">
        <ele>127.8</ele>
        <time>2026-03-29T10:10:51Z</time>
      </trkpt>
      <trkpt lat="48.59459" lon="1.9873">
        <ele>127.8</ele>
        <time>2026-03-29T10:10:52Z</time>
      </trkpt>
      <trkpt lat="48.59461" lon="1.98734">
        <ele>127.8</ele>
        <time>2026-03-29T10:10:53Z</time>
      </trkpt>
      <trkpt lat="48.59463" lon="1.98738">
        <ele>128.6</ele>
        <time>2026-03-29T10:10:54Z</time>
      </trkpt>
      <trkpt lat="48.59466" lon="1.98741">
        <ele>128.6</ele>
        <time>2026-03-29T10:10:55Z</time>
      </trkpt>
      <trkpt lat="48.59468" lon="1.98745">
        <ele>128.6</ele>
        <time>2026-03-29T10:10:56Z</time>
      </trkpt>
      <trkpt lat="48.5947" lon="1.98749">
        <ele>128.4</ele>
        <time>2026-03-29T10:10:57Z</time>
      </trkpt>
      <trkpt lat="48.59472" lon="1.98752">
        <ele>128.6</ele>
        <time>2026-03-29T10:10:58Z</time>
      </trkpt>
      <trkpt lat="48.59473" lon="1.98755">
        <ele>128.6</ele>
        <time>2026-03-29T10:10:59Z</time>
      </trkpt>
      <trkpt lat="48.59475" lon="1.98757">
        <ele>128.6</ele>
        <time>2026-03-29T10:11:00Z</time>
      </trkpt>
      <trkpt lat="48.59477" lon="1.9876">
        <ele>128.6</ele>
        <time>2026-03-29T10:11:01Z</time>
      </trkpt>
      <trkpt lat="48.59478" lon="1.98763">
        <ele>129</ele>
        <time>2026-03-29T10:11:02Z</time>
      </trkpt>
      <trkpt lat="48.5948" lon="1.98765">
        <ele>129</ele>
        <time>2026-03-29T10:11:03Z</time>
      </trkpt>
      <trkpt lat="48.59482" lon="1.98768">
        <ele>129</ele>
        <time>2026-03-29T10:11:04Z</time>
      </trkpt>
      <trkpt lat="48.59484" lon="1.98771">
        <ele>129.4</ele>
        <time>2026-03-29T10:11:05Z</time>
      </trkpt>
      <trkpt lat="48.59485" lon="1.98775">
        <ele>130</ele>
        <time>2026-03-29T10:11:06Z</time>
      </trkpt>
      <trkpt lat="48.59487" lon="1.98778">
        <ele>130</ele>
        <time>2026-03-29T10:11:07Z</time>
      </trkpt>
      <trkpt lat="48.59488" lon="1.9878">
        <ele>130</ele>
        <time>2026-03-29T10:11:08Z</time>
      </trkpt>
      <trkpt lat="48.59489" lon="1.98783">
        <ele>130.6</ele>
        <time>2026-03-29T10:11:09Z</time>
      </trkpt>
      <trkpt lat="48.59489" lon="1.98787">
        <ele>131</ele>
        <time>2026-03-29T10:11:10Z</time>
      </trkpt>
      <trkpt lat="48.59488" lon="1.98789">
        <ele>131</ele>
        <time>2026-03-29T10:11:11Z</time>
      </trkpt>
      <trkpt lat="48.59486" lon="1.98791">
        <ele>131</ele>
        <time>2026-03-29T10:11:12Z</time>
      </trkpt>
      <trkpt lat="48.59483" lon="1.98793">
        <ele>130.2</ele>
        <time>2026-03-29T10:11:13Z</time>
      </trkpt>
      <trkpt lat="48.59481" lon="1.98795">
        <ele>130</ele>
        <time>2026-03-29T10:11:14Z</time>
      </trkpt>
      <trkpt lat="48.59478" lon="1.98797">
        <ele>130</ele>
        <time>2026-03-29T10:11:15Z</time>
      </trkpt>
      <trkpt lat="48.59474" lon="1.98798">
        <ele>130</ele>
        <time>2026-03-29T10:11:16Z</time>
      </trkpt>
      <trkpt lat="48.5947" lon="1.98799">
        <ele>130</ele>
        <time>2026-03-29T10:11:17Z</time>
      </trkpt>
      <trkpt lat="48.59466" lon="1.98801">
        <ele>129</ele>
        <time>2026-03-29T10:11:18Z</time>
      </trkpt>
      <trkpt lat="48.59462" lon="1.98803">
        <ele>129</ele>
        <time>2026-03-29T10:11:19Z</time>
      </trkpt>
      <trkpt lat="48.59458" lon="1.98804">
        <ele>129</ele>
        <time>2026-03-29T10:11:20Z</time>
      </trkpt>
      <trkpt lat="48.59454" lon="1.98804">
        <ele>129</ele>
        <time>2026-03-29T10:11:21Z</time>
      </trkpt>
      <trkpt lat="48.59449" lon="1.98805">
        <ele>129</ele>
        <time>2026-03-29T10:11:22Z</time>
      </trkpt>
      <trkpt lat="48.59445" lon="1.98806">
        <ele>129</ele>
        <time>2026-03-29T10:11:23Z</time>
      </trkpt>
      <trkpt lat="48.5944" lon="1.98806">
        <ele>129</ele>
        <time>2026-03-29T10:11:24Z</time>
      </trkpt>
      <trkpt lat="48.59436" lon="1.98807">
        <ele>128.4</ele>
        <time>2026-03-29T10:11:25Z</time>
      </trkpt>
      <trkpt lat="48.59432" lon="1.98808">
        <ele>127.6</ele>
        <time>2026-03-29T10:11:26Z</time>
      </trkpt>
      <trkpt lat="48.59427" lon="1.9881">
        <ele>127.6</ele>
        <time>2026-03-29T10:11:27Z</time>
      </trkpt>
      <trkpt lat="48.59423" lon="1.9881">
        <ele>127.6</ele>
        <time>2026-03-29T10:11:28Z</time>
      </trkpt>
      <trkpt lat="48.59418" lon="1.98811">
        <ele>127.6</ele>
        <time>2026-03-29T10:11:29Z</time>
      </trkpt>
      <trkpt lat="48.59414" lon="1.98811">
        <ele>126.8</ele>
        <time>2026-03-29T10:11:30Z</time>
      </trkpt>
      <trkpt lat="48.5941" lon="1.98812">
        <ele>126.8</ele>
        <time>2026-03-29T10:11:31Z</time>
      </trkpt>
      <trkpt lat="48.59405" lon="1.98813">
        <ele>126.8</ele>
        <time>2026-03-29T10:11:32Z</time>
      </trkpt>
      <trkpt lat="48.594" lon="1.98814">
        <ele>126.8</ele>
        <time>2026-03-29T10:11:33Z</time>
      </trkpt>
      <trkpt lat="48.59396" lon="1.98815">
        <ele>126.6</ele>
        <time>2026-03-29T10:11:34Z</time>
      </trkpt>
      <trkpt lat="48.59391" lon="1.98816">
        <ele>126.6</ele>
        <time>2026-03-29T10:11:35Z</time>
      </trkpt>
      <trkpt lat="48.59386" lon="1.98816">
        <ele>126.6</ele>
        <time>2026-03-29T10:11:36Z</time>
      </trkpt>
      <trkpt lat="48.59382" lon="1.98817">
        <ele>125.6</ele>
        <time>2026-03-29T10:11:37Z</time>
      </trkpt>
      <trkpt lat="48.59378" lon="1.98819">
        <ele>125.8</ele>
        <time>2026-03-29T10:11:38Z</time>
      </trkpt>
      <trkpt lat="48.59373" lon="1.9882">
        <ele>125.8</ele>
        <time>2026-03-29T10:11:39Z</time>
      </trkpt>
      <trkpt lat="48.59369" lon="1.98821">
        <ele>125.8</ele>
        <time>2026-03-29T10:11:40Z</time>
      </trkpt>
      <trkpt lat="48.59365" lon="1.98822">
        <ele>125.8</ele>
        <time>2026-03-29T10:11:41Z</time>
      </trkpt>
      <trkpt lat="48.59361" lon="1.98824">
        <ele>125.8</ele>
        <time>2026-03-29T10:11:42Z</time>
      </trkpt>
      <trkpt lat="48.59357" lon="1.98825">
        <ele>125.8</ele>
        <time>2026-03-29T10:11:43Z</time>
      </trkpt>
      <trkpt lat="48.59353" lon="1.98827">
        <ele>125.8</ele>
        <time>2026-03-29T10:11:44Z</time>
      </trkpt>
      <trkpt lat="48.59349" lon="1.98829">
        <ele>126.2</ele>
        <time>2026-03-29T10:11:45Z</time>
      </trkpt>
      <trkpt lat="48.59345" lon="1.98831">
        <ele>126</ele>
        <time>2026-03-29T10:11:46Z</time>
      </trkpt>
      <trkpt lat="48.59341" lon="1.98832">
        <ele>126</ele>
        <time>2026-03-29T10:11:47Z</time>
      </trkpt>
      <trkpt lat="48.59337" lon="1.98834">
        <ele>126</ele>
        <time>2026-03-29T10:11:48Z</time>
      </trkpt>
      <trkpt lat="48.59333" lon="1.98836">
        <ele>126.4</ele>
        <time>2026-03-29T10:11:49Z</time>
      </trkpt>
      <trkpt lat="48.59329" lon="1.98838">
        <ele>127</ele>
        <time>2026-03-29T10:11:50Z</time>
      </trkpt>
      <trkpt lat="48.59325" lon="1.98839">
        <ele>127</ele>
        <time>2026-03-29T10:11:51Z</time>
      </trkpt>
      <trkpt lat="48.59322" lon="1.9884">
        <ele>127</ele>
        <time>2026-03-29T10:11:52Z</time>
      </trkpt>
      <trkpt lat="48.59318" lon="1.98842">
        <ele>126.8</ele>
        <time>2026-03-29T10:11:53Z</time>
      </trkpt>
      <trkpt lat="48.59314" lon="1.98844">
        <ele>126.8</ele>
        <time>2026-03-29T10:11:54Z</time>
      </trkpt>
      <trkpt lat="48.5931" lon="1.98845">
        <ele>126.8</ele>
        <time>2026-03-29T10:11:55Z</time>
      </trkpt>
      <trkpt lat="48.59306" lon="1.98847">
        <ele>126.8</ele>
        <time>2026-03-29T10:11:56Z</time>
      </trkpt>
      <trkpt lat="48.59302" lon="1.98849">
        <ele>126.8</ele>
        <time>2026-03-29T10:11:57Z</time>
      </trkpt>
      <trkpt lat="48.59297" lon="1.98851">
        <ele>127</ele>
        <time>2026-03-29T10:11:58Z</time>
      </trkpt>
      <trkpt lat="48.59293" lon="1.98853">
        <ele>127</ele>
        <time>2026-03-29T10:11:59Z</time>
      </trkpt>
      <trkpt lat="48.59288" lon="1.98855">
        <ele>127</ele>
        <time>2026-03-29T10:12:00Z</time>
      </trkpt>
      <trkpt lat="48.59284" lon="1.98857">
        <ele>126.8</ele>
        <time>2026-03-29T10:12:01Z</time>
      </trkpt>
      <trkpt lat="48.59279" lon="1.98859">
        <ele>127.2</ele>
        <time>2026-03-29T10:12:02Z</time>
      </trkpt>
      <trkpt lat="48.59275" lon="1.98861">
        <ele>127.2</ele>
        <time>2026-03-29T10:12:03Z</time>
      </trkpt>
      <trkpt lat="48.5927" lon="1.98863">
        <ele>127.2</ele>
        <time>2026-03-29T10:12:04Z</time>
      </trkpt>
      <trkpt lat="48.59266" lon="1.98865">
        <ele>127.2</ele>
        <time>2026-03-29T10:12:05Z</time>
      </trkpt>
      <trkpt lat="48.59262" lon="1.98867">
        <ele>126.8</ele>
        <time>2026-03-29T10:12:06Z</time>
      </trkpt>
      <trkpt lat="48.59258" lon="1.9887">
        <ele>126.8</ele>
        <time>2026-03-29T10:12:07Z</time>
      </trkpt>
      <trkpt lat="48.59254" lon="1.98872">
        <ele>126.8</ele>
        <time>2026-03-29T10:12:08Z</time>
      </trkpt>
      <trkpt lat="48.5925" lon="1.98875">
        <ele>127.6</ele>
        <time>2026-03-29T10:12:09Z</time>
      </trkpt>
      <trkpt lat="48.59247" lon="1.98878">
        <ele>128</ele>
        <time>2026-03-29T10:12:10Z</time>
      </trkpt>
      <trkpt lat="48.59244" lon="1.98881">
        <ele>128</ele>
        <time>2026-03-29T10:12:11Z</time>
      </trkpt>
      <trkpt lat="48.59241" lon="1.98885">
        <ele>128</ele>
        <time>2026-03-29T10:12:12Z</time>
      </trkpt>
      <trkpt lat="48.59239" lon="1.98889">
        <ele>127.6</ele>
        <time>2026-03-29T10:12:13Z</time>
      </trkpt>
      <trkpt lat="48.59237" lon="1.98894">
        <ele>127.6</ele>
        <time>2026-03-29T10:12:14Z</time>
      </trkpt>
      <trkpt lat="48.59235" lon="1.98898">
        <ele>127.6</ele>
        <time>2026-03-29T10:12:15Z</time>
      </trkpt>
      <trkpt lat="48.59232" lon="1.98902">
        <ele>127.6</ele>
        <time>2026-03-29T10:12:16Z</time>
      </trkpt>
      <trkpt lat="48.5923" lon="1.98906">
        <ele>127.8</ele>
        <time>2026-03-29T10:12:17Z</time>
      </trkpt>
      <trkpt lat="48.59227" lon="1.9891">
        <ele>127.6</ele>
        <time>2026-03-29T10:12:18Z</time>
      </trkpt>
      <trkpt lat="48.59225" lon="1.98914">
        <ele>127.6</ele>
        <time>2026-03-29T10:12:19Z</time>
      </trkpt>
      <trkpt lat="48.59223" lon="1.98919">
        <ele>127.6</ele>
        <time>2026-03-29T10:12:20Z</time>
      </trkpt>
      <trkpt lat="48.59222" lon="1.98923">
        <ele>128.2</ele>
        <time>2026-03-29T10:12:21Z</time>
      </trkpt>
      <trkpt lat="48.5922" lon="1.98927">
        <ele>128.6</ele>
        <time>2026-03-29T10:12:22Z</time>
      </trkpt>
      <trkpt lat="48.59218" lon="1.98931">
        <ele>128.6</ele>
        <time>2026-03-29T10:12:23Z</time>
      </trkpt>
      <trkpt lat="48.59216" lon="1.98935">
        <ele>128.6</ele>
        <time>2026-03-29T10:12:24Z</time>
      </trkpt>
      <trkpt lat="48.59214" lon="1.9894">
        <ele>128.4</ele>
        <time>2026-03-29T10:12:25Z</time>
      </trkpt>
      <trkpt lat="48.59211" lon="1.98945">
        <ele>128</ele>
        <time>2026-03-29T10:12:26Z</time>
      </trkpt>
      <trkpt lat="48.59209" lon="1.98949">
        <ele>128</ele>
        <time>2026-03-29T10:12:27Z</time>
      </trkpt>
      <trkpt lat="48.59207" lon="1.98953">
        <ele>128</ele>
        <time>2026-03-29T10:12:28Z</time>
      </trkpt>
      <trkpt lat="48.59205" lon="1.98957">
        <ele>127.8</ele>
        <time>2026-03-29T10:12:29Z</time>
      </trkpt>
      <trkpt lat="48.59204" lon="1.98963">
        <ele>128.6</ele>
        <time>2026-03-29T10:12:30Z</time>
      </trkpt>
      <trkpt lat="48.59203" lon="1.98967">
        <ele>128.6</ele>
        <time>2026-03-29T10:12:31Z</time>
      </trkpt>
      <trkpt lat="48.59201" lon="1.9897">
        <ele>128.6</ele>
        <time>2026-03-29T10:12:32Z</time>
      </trkpt>
      <trkpt lat="48.59199" lon="1.98972">
        <ele>127.6</ele>
        <time>2026-03-29T10:12:33Z</time>
      </trkpt>
      <trkpt lat="48.59196" lon="1.98975">
        <ele>127.6</ele>
        <time>2026-03-29T10:12:34Z</time>
      </trkpt>
      <trkpt lat="48.59193" lon="1.98977">
        <ele>127.6</ele>
        <time>2026-03-29T10:12:35Z</time>
      </trkpt>
      <trkpt lat="48.59191" lon="1.9898">
        <ele>127.6</ele>
        <time>2026-03-29T10:12:36Z</time>
      </trkpt>
      <trkpt lat="48.59189" lon="1.98983">
        <ele>127.2</ele>
        <time>2026-03-29T10:12:37Z</time>
      </trkpt>
      <trkpt lat="48.59187" lon="1.98987">
        <ele>126.8</ele>
        <time>2026-03-29T10:12:38Z</time>
      </trkpt>
      <trkpt lat="48.59184" lon="1.9899">
        <ele>126.8</ele>
        <time>2026-03-29T10:12:39Z</time>
      </trkpt>
      <trkpt lat="48.59181" lon="1.98993">
        <ele>126.8</ele>
        <time>2026-03-29T10:12:40Z</time>
      </trkpt>
      <trkpt lat="48.59178" lon="1.98997">
        <ele>126.8</ele>
        <time>2026-03-29T10:12:41Z</time>
      </trkpt>
      <trkpt lat="48.59176" lon="1.99001">
        <ele>126.8</ele>
        <time>2026-03-29T10:12:42Z</time>
      </trkpt>
      <trkpt lat="48.59172" lon="1.99006">
        <ele>126.8</ele>
        <time>2026-03-29T10:12:43Z</time>
      </trkpt>
      <trkpt lat="48.59169" lon="1.9901">
        <ele>126.8</ele>
        <time>2026-03-29T10:12:44Z</time>
      </trkpt>
      <trkpt lat="48.59165" lon="1.99015">
        <ele>125.8</ele>
        <time>2026-03-29T10:12:45Z</time>
      </trkpt>
      <trkpt lat="48.59161" lon="1.9902">
        <ele>125.6</ele>
        <time>2026-03-29T10:12:46Z</time>
      </trkpt>
      <trkpt lat="48.59157" lon="1.99025">
        <ele>125.6</ele>
        <time>2026-03-29T10:12:47Z</time>
      </trkpt>
      <trkpt lat="48.59153" lon="1.99028">
        <ele>125.6</ele>
        <time>2026-03-29T10:12:48Z</time>
      </trkpt>
      <trkpt lat="48.59148" lon="1.99032">
        <ele>124.6</ele>
        <time>2026-03-29T10:12:49Z</time>
      </trkpt>
      <trkpt lat="48.59143" lon="1.99036">
        <ele>124.4</ele>
        <time>2026-03-29T10:12:50Z</time>
      </trkpt>
      <trkpt lat="48.59138" lon="1.9904">
        <ele>124.4</ele>
        <time>2026-03-29T10:12:51Z</time>
      </trkpt>
      <trkpt lat="48.59133" lon="1.99044">
        <ele>124.4</ele>
        <time>2026-03-29T10:12:52Z</time>
      </trkpt>
      <trkpt lat="48.59128" lon="1.99048">
        <ele>123.6</ele>
        <time>2026-03-29T10:12:53Z</time>
      </trkpt>
      <trkpt lat="48.59123" lon="1.99053">
        <ele>123.6</ele>
        <time>2026-03-29T10:12:54Z</time>
      </trkpt>
      <trkpt lat="48.59118" lon="1.99059">
        <ele>123.6</ele>
        <time>2026-03-29T10:12:55Z</time>
      </trkpt>
      <trkpt lat="48.59113" lon="1.99064">
        <ele>123.6</ele>
        <time>2026-03-29T10:12:56Z</time>
      </trkpt>
      <trkpt lat="48.59108" lon="1.99069">
        <ele>122.8</ele>
        <time>2026-03-29T10:12:57Z</time>
      </trkpt>
      <trkpt lat="48.59103" lon="1.99075">
        <ele>122.6</ele>
        <time>2026-03-29T10:12:58Z</time>
      </trkpt>
      <trkpt lat="48.59097" lon="1.99082">
        <ele>122.6</ele>
        <time>2026-03-29T10:12:59Z</time>
      </trkpt>
      <trkpt lat="48.59092" lon="1.99087">
        <ele>122.6</ele>
        <time>2026-03-29T10:13:00Z</time>
      </trkpt>
      <trkpt lat="48.59087" lon="1.99093">
        <ele>122</ele>
        <time>2026-03-29T10:13:01Z</time>
      </trkpt>
      <trkpt lat="48.59082" lon="1.99099">
        <ele>122.2</ele>
        <time>2026-03-29T10:13:02Z</time>
      </trkpt>
      <trkpt lat="48.59076" lon="1.99105">
        <ele>122.2</ele>
        <time>2026-03-29T10:13:03Z</time>
      </trkpt>
      <trkpt lat="48.5907" lon="1.99108">
        <ele>122.2</ele>
        <time>2026-03-29T10:13:04Z</time>
      </trkpt>
      <trkpt lat="48.59064" lon="1.99109">
        <ele>121.2</ele>
        <time>2026-03-29T10:13:05Z</time>
      </trkpt>
      <trkpt lat="48.59058" lon="1.99107">
        <ele>121.6</ele>
        <time>2026-03-29T10:13:06Z</time>
      </trkpt>
      <trkpt lat="48.59052" lon="1.99104">
        <ele>121.6</ele>
        <time>2026-03-29T10:13:07Z</time>
      </trkpt>
      <trkpt lat="48.59046" lon="1.991">
        <ele>121.6</ele>
        <time>2026-03-29T10:13:08Z</time>
      </trkpt>
      <trkpt lat="48.5904" lon="1.99097">
        <ele>121.6</ele>
        <time>2026-03-29T10:13:09Z</time>
      </trkpt>
      <trkpt lat="48.59034" lon="1.99093">
        <ele>121.6</ele>
        <time>2026-03-29T10:13:10Z</time>
      </trkpt>
      <trkpt lat="48.59027" lon="1.9909">
        <ele>121.6</ele>
        <time>2026-03-29T10:13:11Z</time>
      </trkpt>
      <trkpt lat="48.59021" lon="1.99086">
        <ele>121.6</ele>
        <time>2026-03-29T10:13:12Z</time>
      </trkpt>
      <trkpt lat="48.59014" lon="1.99082">
        <ele>121</ele>
        <time>2026-03-29T10:13:13Z</time>
      </trkpt>
      <trkpt lat="48.59007" lon="1.99078">
        <ele>120.6</ele>
        <time>2026-03-29T10:13:14Z</time>
      </trkpt>
      <trkpt lat="48.59001" lon="1.99074">
        <ele>120.6</ele>
        <time>2026-03-29T10:13:15Z</time>
      </trkpt>
      <trkpt lat="48.58994" lon="1.9907">
        <ele>120.6</ele>
        <time>2026-03-29T10:13:16Z</time>
      </trkpt>
      <trkpt lat="48.58987" lon="1.99066">
        <ele>120.4</ele>
        <time>2026-03-29T10:13:17Z</time>
      </trkpt>
      <trkpt lat="48.5898" lon="1.99062">
        <ele>120</ele>
        <time>2026-03-29T10:13:18Z</time>
      </trkpt>
      <trkpt lat="48.58973" lon="1.99059">
        <ele>120</ele>
        <time>2026-03-29T10:13:19Z</time>
      </trkpt>
      <trkpt lat="48.58967" lon="1.99055">
        <ele>120</ele>
        <time>2026-03-29T10:13:20Z</time>
      </trkpt>
      <trkpt lat="48.5896" lon="1.99052">
        <ele>120</ele>
        <time>2026-03-29T10:13:21Z</time>
      </trkpt>
      <trkpt lat="48.58954" lon="1.99049">
        <ele>120.2</ele>
        <time>2026-03-29T10:13:22Z</time>
      </trkpt>
      <trkpt lat="48.58948" lon="1.99046">
        <ele>120.2</ele>
        <time>2026-03-29T10:13:23Z</time>
      </trkpt>
      <trkpt lat="48.58942" lon="1.99043">
        <ele>120.2</ele>
        <time>2026-03-29T10:13:24Z</time>
      </trkpt>
      <trkpt lat="48.58936" lon="1.9904">
        <ele>119.2</ele>
        <time>2026-03-29T10:13:25Z</time>
      </trkpt>
      <trkpt lat="48.5893" lon="1.99037">
        <ele>119.4</ele>
        <time>2026-03-29T10:13:26Z</time>
      </trkpt>
      <trkpt lat="48.58925" lon="1.99033">
        <ele>119.4</ele>
        <time>2026-03-29T10:13:27Z</time>
      </trkpt>
      <trkpt lat="48.58919" lon="1.99029">
        <ele>119.4</ele>
        <time>2026-03-29T10:13:28Z</time>
      </trkpt>
      <trkpt lat="48.58913" lon="1.99026">
        <ele>119.4</ele>
        <time>2026-03-29T10:13:29Z</time>
      </trkpt>
      <trkpt lat="48.58908" lon="1.99022">
        <ele>119.2</ele>
        <time>2026-03-29T10:13:30Z</time>
      </trkpt>
      <trkpt lat="48.58902" lon="1.99019">
        <ele>119.2</ele>
        <time>2026-03-29T10:13:31Z</time>
      </trkpt>
      <trkpt lat="48.58896" lon="1.99016">
        <ele>119.2</ele>
        <time>2026-03-29T10:13:32Z</time>
      </trkpt>
      <trkpt lat="48.58891" lon="1.99013">
        <ele>119.2</ele>
        <time>2026-03-29T10:13:33Z</time>
      </trkpt>
      <trkpt lat="48.58885" lon="1.9901">
        <ele>120</ele>
        <time>2026-03-29T10:13:34Z</time>
      </trkpt>
      <trkpt lat="48.58879" lon="1.99007">
        <ele>120</ele>
        <time>2026-03-29T10:13:35Z</time>
      </trkpt>
      <trkpt lat="48.58874" lon="1.99003">
        <ele>120</ele>
        <time>2026-03-29T10:13:36Z</time>
      </trkpt>
      <trkpt lat="48.58868" lon="1.99">
        <ele>120</ele>
        <time>2026-03-29T10:13:37Z</time>
      </trkpt>
      <trkpt lat="48.58863" lon="1.98997">
        <ele>120.2</ele>
        <time>2026-03-29T10:13:38Z</time>
      </trkpt>
      <trkpt lat="48.58858" lon="1.98994">
        <ele>120.2</ele>
        <time>2026-03-29T10:13:39Z</time>
      </trkpt>
      <trkpt lat="48.58852" lon="1.98991">
        <ele>120.2</ele>
        <time>2026-03-29T10:13:40Z</time>
      </trkpt>
      <trkpt lat="48.58847" lon="1.98988">
        <ele>119.8</ele>
        <time>2026-03-29T10:13:41Z</time>
      </trkpt>
      <trkpt lat="48.58842" lon="1.98985">
        <ele>119.8</ele>
        <time>2026-03-29T10:13:42Z</time>
      </trkpt>
      <trkpt lat="48.58837" lon="1.98983">
        <ele>119.8</ele>
        <time>2026-03-29T10:13:43Z</time>
      </trkpt>
      <trkpt lat="48.58832" lon="1.9898">
        <ele>119.8</ele>
        <time>2026-03-29T10:13:44Z</time>
      </trkpt>
      <trkpt lat="48.58827" lon="1.98977">
        <ele>120.2</ele>
        <time>2026-03-29T10:13:45Z</time>
      </trkpt>
      <trkpt lat="48.58822" lon="1.98975">
        <ele>120.4</ele>
        <time>2026-03-29T10:13:46Z</time>
      </trkpt>
      <trkpt lat="48.58817" lon="1.98972">
        <ele>120.4</ele>
        <time>2026-03-29T10:13:47Z</time>
      </trkpt>
      <trkpt lat="48.58813" lon="1.98969">
        <ele>120.4</ele>
        <time>2026-03-29T10:13:48Z</time>
      </trkpt>
      <trkpt lat="48.58809" lon="1.98967">
        <ele>121</ele>
        <time>2026-03-29T10:13:49Z</time>
      </trkpt>
      <trkpt lat="48.58804" lon="1.98964">
        <ele>121</ele>
        <time>2026-03-29T10:13:50Z</time>
      </trkpt>
      <trkpt lat="48.588" lon="1.98963">
        <ele>121</ele>
        <time>2026-03-29T10:13:51Z</time>
      </trkpt>
      <trkpt lat="48.58796" lon="1.98959">
        <ele>121</ele>
        <time>2026-03-29T10:13:52Z</time>
      </trkpt>
      <trkpt lat="48.58791" lon="1.98956">
        <ele>121</ele>
        <time>2026-03-29T10:13:53Z</time>
      </trkpt>
      <trkpt lat="48.58786" lon="1.98954">
        <ele>121.6</ele>
        <time>2026-03-29T10:13:54Z</time>
      </trkpt>
      <trkpt lat="48.58781" lon="1.98951">
        <ele>121.6</ele>
        <time>2026-03-29T10:13:55Z</time>
      </trkpt>
      <trkpt lat="48.58776" lon="1.98948">
        <ele>121.6</ele>
        <time>2026-03-29T10:13:56Z</time>
      </trkpt>
      <trkpt lat="48.58772" lon="1.98945">
        <ele>122.4</ele>
        <time>2026-03-29T10:13:57Z</time>
      </trkpt>
      <trkpt lat="48.58768" lon="1.98941">
        <ele>122.2</ele>
        <time>2026-03-29T10:13:58Z</time>
      </trkpt>
      <trkpt lat="48.58765" lon="1.98937">
        <ele>122.2</ele>
        <time>2026-03-29T10:13:59Z</time>
      </trkpt>
      <trkpt lat="48.58763" lon="1.98931">
        <ele>122.2</ele>
        <time>2026-03-29T10:14:00Z</time>
      </trkpt>
      <trkpt lat="48.58763" lon="1.98925">
        <ele>122.6</ele>
        <time>2026-03-29T10:14:01Z</time>
      </trkpt>
      <trkpt lat="48.58765" lon="1.98919">
        <ele>122.2</ele>
        <time>2026-03-29T10:14:02Z</time>
      </trkpt>
      <trkpt lat="48.58767" lon="1.98913">
        <ele>122.2</ele>
        <time>2026-03-29T10:14:03Z</time>
      </trkpt>
      <trkpt lat="48.58768" lon="1.98907">
        <ele>122.2</ele>
        <time>2026-03-29T10:14:04Z</time>
      </trkpt>
      <trkpt lat="48.5877" lon="1.989">
        <ele>121.4</ele>
        <time>2026-03-29T10:14:05Z</time>
      </trkpt>
      <trkpt lat="48.58773" lon="1.98893">
        <ele>121.6</ele>
        <time>2026-03-29T10:14:06Z</time>
      </trkpt>
      <trkpt lat="48.58775" lon="1.98886">
        <ele>121.6</ele>
        <time>2026-03-29T10:14:07Z</time>
      </trkpt>
      <trkpt lat="48.58777" lon="1.98879">
        <ele>121.6</ele>
        <time>2026-03-29T10:14:08Z</time>
      </trkpt>
      <trkpt lat="48.58779" lon="1.98871">
        <ele>121.2</ele>
        <time>2026-03-29T10:14:09Z</time>
      </trkpt>
      <trkpt lat="48.58781" lon="1.98863">
        <ele>120.2</ele>
        <time>2026-03-29T10:14:10Z</time>
      </trkpt>
      <trkpt lat="48.58782" lon="1.98854">
        <ele>120.2</ele>
        <time>2026-03-29T10:14:11Z</time>
      </trkpt>
      <trkpt lat="48.58781" lon="1.98845">
        <ele>120.2</ele>
        <time>2026-03-29T10:14:12Z</time>
      </trkpt>
      <trkpt lat="48.58777" lon="1.98838">
        <ele>119.6</ele>
        <time>2026-03-29T10:14:13Z</time>
      </trkpt>
      <trkpt lat="48.58772" lon="1.98833">
        <ele>119.8</ele>
        <time>2026-03-29T10:14:14Z</time>
      </trkpt>
      <trkpt lat="48.58767" lon="1.9883">
        <ele>119.8</ele>
        <time>2026-03-29T10:14:15Z</time>
      </trkpt>
      <trkpt lat="48.58761" lon="1.98827">
        <ele>119.8</ele>
        <time>2026-03-29T10:14:16Z</time>
      </trkpt>
      <trkpt lat="48.58755" lon="1.98825">
        <ele>119.8</ele>
        <time>2026-03-29T10:14:17Z</time>
      </trkpt>
      <trkpt lat="48.5875" lon="1.98823">
        <ele>119.8</ele>
        <time>2026-03-29T10:14:18Z</time>
      </trkpt>
      <trkpt lat="48.58744" lon="1.98821">
        <ele>119.8</ele>
        <time>2026-03-29T10:14:19Z</time>
      </trkpt>
      <trkpt lat="48.58739" lon="1.98819">
        <ele>119.8</ele>
        <time>2026-03-29T10:14:20Z</time>
      </trkpt>
      <trkpt lat="48.58733" lon="1.98816">
        <ele>120</ele>
        <time>2026-03-29T10:14:21Z</time>
      </trkpt>
      <trkpt lat="48.58728" lon="1.98815">
        <ele>120</ele>
        <time>2026-03-29T10:14:22Z</time>
      </trkpt>
      <trkpt lat="48.58722" lon="1.98813">
        <ele>120</ele>
        <time>2026-03-29T10:14:23Z</time>
      </trkpt>
      <trkpt lat="48.58717" lon="1.98811">
        <ele>120</ele>
        <time>2026-03-29T10:14:24Z</time>
      </trkpt>
      <trkpt lat="48.58711" lon="1.98808">
        <ele>119.2</ele>
        <time>2026-03-29T10:14:25Z</time>
      </trkpt>
      <trkpt lat="48.58706" lon="1.98805">
        <ele>119.8</ele>
        <time>2026-03-29T10:14:26Z</time>
      </trkpt>
      <trkpt lat="48.58701" lon="1.98801">
        <ele>119.8</ele>
        <time>2026-03-29T10:14:27Z</time>
      </trkpt>
      <trkpt lat="48.58695" lon="1.98798">
        <ele>119.8</ele>
        <time>2026-03-29T10:14:28Z</time>
      </trkpt>
      <trkpt lat="48.58689" lon="1.98795">
        <ele>119.2</ele>
        <time>2026-03-29T10:14:29Z</time>
      </trkpt>
      <trkpt lat="48.58684" lon="1.98792">
        <ele>119</ele>
        <time>2026-03-29T10:14:30Z</time>
      </trkpt>
      <trkpt lat="48.58678" lon="1.98789">
        <ele>119</ele>
        <time>2026-03-29T10:14:31Z</time>
      </trkpt>
      <trkpt lat="48.58672" lon="1.98786">
        <ele>119</ele>
        <time>2026-03-29T10:14:32Z</time>
      </trkpt>
      <trkpt lat="48.58666" lon="1.98783">
        <ele>119</ele>
        <time>2026-03-29T10:14:33Z</time>
      </trkpt>
      <trkpt lat="48.5866" lon="1.9878">
        <ele>118.8</ele>
        <time>2026-03-29T10:14:34Z</time>
      </trkpt>
      <trkpt lat="48.58654" lon="1.98776">
        <ele>118.8</ele>
        <time>2026-03-29T10:14:35Z</time>
      </trkpt>
      <trkpt lat="48.58649" lon="1.98772">
        <ele>118.8</ele>
        <time>2026-03-29T10:14:36Z</time>
      </trkpt>
      <trkpt lat="48.58643" lon="1.98768">
        <ele>118.8</ele>
        <time>2026-03-29T10:14:37Z</time>
      </trkpt>
      <trkpt lat="48.58637" lon="1.98764">
        <ele>118.4</ele>
        <time>2026-03-29T10:14:38Z</time>
      </trkpt>
      <trkpt lat="48.58632" lon="1.9876">
        <ele>118.4</ele>
        <time>2026-03-29T10:14:39Z</time>
      </trkpt>
      <trkpt lat="48.58625" lon="1.98757">
        <ele>118.4</ele>
        <time>2026-03-29T10:14:40Z</time>
      </trkpt>
      <trkpt lat="48.58619" lon="1.98755">
        <ele>118.4</ele>
        <time>2026-03-29T10:14:41Z</time>
      </trkpt>
      <trkpt lat="48.58613" lon="1.98752">
        <ele>117.8</ele>
        <time>2026-03-29T10:14:42Z</time>
      </trkpt>
      <trkpt lat="48.58607" lon="1.98749">
        <ele>117.8</ele>
        <time>2026-03-29T10:14:43Z</time>
      </trkpt>
      <trkpt lat="48.586" lon="1.98745">
        <ele>117.8</ele>
        <time>2026-03-29T10:14:44Z</time>
      </trkpt>
      <trkpt lat="48.58594" lon="1.98741">
        <ele>117.4</ele>
        <time>2026-03-29T10:14:45Z</time>
      </trkpt>
      <trkpt lat="48.58588" lon="1.98738">
        <ele>117</ele>
        <time>2026-03-29T10:14:46Z</time>
      </trkpt>
      <trkpt lat="48.58581" lon="1.98734">
        <ele>117</ele>
        <time>2026-03-29T10:14:47Z</time>
      </trkpt>
      <trkpt lat="48.58575" lon="1.98729">
        <ele>117</ele>
        <time>2026-03-29T10:14:48Z</time>
      </trkpt>
      <trkpt lat="48.58569" lon="1.98724">
        <ele>116.6</ele>
        <time>2026-03-29T10:14:49Z</time>
      </trkpt>
      <trkpt lat="48.58564" lon="1.98718">
        <ele>116.2</ele>
        <time>2026-03-29T10:14:50Z</time>
      </trkpt>
      <trkpt lat="48.58559" lon="1.9871">
        <ele>116.2</ele>
        <time>2026-03-29T10:14:51Z</time>
      </trkpt>
      <trkpt lat="48.58555" lon="1.987">
        <ele>116.2</ele>
        <time>2026-03-29T10:14:52Z</time>
      </trkpt>
      <trkpt lat="48.58553" lon="1.9869">
        <ele>116.2</ele>
        <time>2026-03-29T10:14:53Z</time>
      </trkpt>
      <trkpt lat="48.58551" lon="1.98679">
        <ele>115.2</ele>
        <time>2026-03-29T10:14:54Z</time>
      </trkpt>
      <trkpt lat="48.5855" lon="1.98669">
        <ele>115.2</ele>
        <time>2026-03-29T10:14:55Z</time>
      </trkpt>
      <trkpt lat="48.58548" lon="1.98658">
        <ele>115.2</ele>
        <time>2026-03-29T10:14:56Z</time>
      </trkpt>
      <trkpt lat="48.58547" lon="1.98648">
        <ele>115.2</ele>
        <time>2026-03-29T10:14:57Z</time>
      </trkpt>
      <trkpt lat="48.58545" lon="1.98638">
        <ele>114.4</ele>
        <time>2026-03-29T10:14:58Z</time>
      </trkpt>
      <trkpt lat="48.58544" lon="1.98628">
        <ele>114.4</ele>
        <time>2026-03-29T10:14:59Z</time>
      </trkpt>
      <trkpt lat="48.58542" lon="1.98618">
        <ele>114.4</ele>
        <time>2026-03-29T10:15:00Z</time>
      </trkpt>
      <trkpt lat="48.58541" lon="1.98608">
        <ele>114.4</ele>
        <time>2026-03-29T10:15:01Z</time>
      </trkpt>
      <trkpt lat="48.5854" lon="1.98598">
        <ele>114.2</ele>
        <time>2026-03-29T10:15:02Z</time>
      </trkpt>
      <trkpt lat="48.58538" lon="1.98588">
        <ele>114.2</ele>
        <time>2026-03-29T10:15:03Z</time>
      </trkpt>
      <trkpt lat="48.58537" lon="1.98578">
        <ele>114.2</ele>
        <time>2026-03-29T10:15:04Z</time>
      </trkpt>
      <trkpt lat="48.58536" lon="1.98569">
        <ele>114.2</ele>
        <time>2026-03-29T10:15:05Z</time>
      </trkpt>
      <trkpt lat="48.58535" lon="1.98559">
        <ele>114.6</ele>
        <time>2026-03-29T10:15:06Z</time>
      </trkpt>
      <trkpt lat="48.58533" lon="1.98551">
        <ele>114.6</ele>
        <time>2026-03-29T10:15:07Z</time>
      </trkpt>
      <trkpt lat="48.58532" lon="1.98542">
        <ele>114.6</ele>
        <time>2026-03-29T10:15:08Z</time>
      </trkpt>
      <trkpt lat="48.58531" lon="1.98534">
        <ele>114.4</ele>
        <time>2026-03-29T10:15:09Z</time>
      </trkpt>
      <trkpt lat="48.5853" lon="1.98526">
        <ele>114.4</ele>
        <time>2026-03-29T10:15:10Z</time>
      </trkpt>
      <trkpt lat="48.58529" lon="1.98518">
        <ele>114.4</ele>
        <time>2026-03-29T10:15:11Z</time>
      </trkpt>
      <trkpt lat="48.58528" lon="1.9851">
        <ele>114.4</ele>
        <time>2026-03-29T10:15:12Z</time>
      </trkpt>
      <trkpt lat="48.58527" lon="1.98503">
        <ele>114.4</ele>
        <time>2026-03-29T10:15:13Z</time>
      </trkpt>
      <trkpt lat="48.58526" lon="1.98495">
        <ele>114</ele>
        <time>2026-03-29T10:15:14Z</time>
      </trkpt>
      <trkpt lat="48.58525" lon="1.98487">
        <ele>114</ele>
        <time>2026-03-29T10:15:15Z</time>
      </trkpt>
      <trkpt lat="48.58523" lon="1.9848">
        <ele>114</ele>
        <time>2026-03-29T10:15:16Z</time>
      </trkpt>
      <trkpt lat="48.58522" lon="1.98473">
        <ele>114</ele>
        <time>2026-03-29T10:15:17Z</time>
      </trkpt>
      <trkpt lat="48.58522" lon="1.98465">
        <ele>114.2</ele>
        <time>2026-03-29T10:15:18Z</time>
      </trkpt>
      <trkpt lat="48.58521" lon="1.98458">
        <ele>114.2</ele>
        <time>2026-03-29T10:15:19Z</time>
      </trkpt>
      <trkpt lat="48.5852" lon="1.9845">
        <ele>114.2</ele>
        <time>2026-03-29T10:15:20Z</time>
      </trkpt>
      <trkpt lat="48.5852" lon="1.98443">
        <ele>114.2</ele>
        <time>2026-03-29T10:15:21Z</time>
      </trkpt>
      <trkpt lat="48.58519" lon="1.98435">
        <ele>114.6</ele>
        <time>2026-03-29T10:15:22Z</time>
      </trkpt>
      <trkpt lat="48.58518" lon="1.98428">
        <ele>114.6</ele>
        <time>2026-03-29T10:15:23Z</time>
      </trkpt>
      <trkpt lat="48.58517" lon="1.98422">
        <ele>114.6</ele>
        <time>2026-03-29T10:15:24Z</time>
      </trkpt>
      <trkpt lat="48.58517" lon="1.98415">
        <ele>115</ele>
        <time>2026-03-29T10:15:25Z</time>
      </trkpt>
      <trkpt lat="48.58516" lon="1.98409">
        <ele>114.4</ele>
        <time>2026-03-29T10:15:26Z</time>
      </trkpt>
      <trkpt lat="48.58516" lon="1.98403">
        <ele>114.4</ele>
        <time>2026-03-29T10:15:27Z</time>
      </trkpt>
      <trkpt lat="48.58515" lon="1.98397">
        <ele>114.4</ele>
        <time>2026-03-29T10:15:28Z</time>
      </trkpt>
      <trkpt lat="48.58515" lon="1.98391">
        <ele>114.4</ele>
        <time>2026-03-29T10:15:29Z</time>
      </trkpt>
      <trkpt lat="48.58514" lon="1.98386">
        <ele>114.6</ele>
        <time>2026-03-29T10:15:30Z</time>
      </trkpt>
      <trkpt lat="48.58514" lon="1.98381">
        <ele>114.6</ele>
        <time>2026-03-29T10:15:31Z</time>
      </trkpt>
      <trkpt lat="48.58514" lon="1.98375">
        <ele>114.6</ele>
        <time>2026-03-29T10:15:32Z</time>
      </trkpt>
      <trkpt lat="48.58514" lon="1.9837">
        <ele>114.6</ele>
        <time>2026-03-29T10:15:33Z</time>
      </trkpt>
      <trkpt lat="48.58514" lon="1.98364">
        <ele>115</ele>
        <time>2026-03-29T10:15:34Z</time>
      </trkpt>
      <trkpt lat="48.58515" lon="1.98358">
        <ele>115</ele>
        <time>2026-03-29T10:15:35Z</time>
      </trkpt>
      <trkpt lat="48.58516" lon="1.98353">
        <ele>115</ele>
        <time>2026-03-29T10:15:36Z</time>
      </trkpt>
      <trkpt lat="48.58517" lon="1.98347">
        <ele>115</ele>
        <time>2026-03-29T10:15:37Z</time>
      </trkpt>
      <trkpt lat="48.58518" lon="1.98341">
        <ele>115.2</ele>
        <time>2026-03-29T10:15:38Z</time>
      </trkpt>
      <trkpt lat="48.58519" lon="1.98335">
        <ele>115.2</ele>
        <time>2026-03-29T10:15:39Z</time>
      </trkpt>
      <trkpt lat="48.58521" lon="1.9833">
        <ele>115.2</ele>
        <time>2026-03-29T10:15:40Z</time>
      </trkpt>
      <trkpt lat="48.58522" lon="1.98324">
        <ele>115.2</ele>
        <time>2026-03-29T10:15:41Z</time>
      </trkpt>
      <trkpt lat="48.58524" lon="1.98319">
        <ele>115.2</ele>
        <time>2026-03-29T10:15:42Z</time>
      </trkpt>
      <trkpt lat="48.58525" lon="1.98313">
        <ele>115.2</ele>
        <time>2026-03-29T10:15:43Z</time>
      </trkpt>
      <trkpt lat="48.58527" lon="1.98307">
        <ele>115.2</ele>
        <time>2026-03-29T10:15:44Z</time>
      </trkpt>
      <trkpt lat="48.58529" lon="1.98301">
        <ele>115.2</ele>
        <time>2026-03-29T10:15:45Z</time>
      </trkpt>
      <trkpt lat="48.58531" lon="1.98296">
        <ele>115.6</ele>
        <time>2026-03-29T10:15:46Z</time>
      </trkpt>
      <trkpt lat="48.58533" lon="1.9829">
        <ele>115.6</ele>
        <time>2026-03-29T10:15:47Z</time>
      </trkpt>
      <trkpt lat="48.58535" lon="1.98285">
        <ele>115.6</ele>
        <time>2026-03-29T10:15:48Z</time>
      </trkpt>
      <trkpt lat="48.58537" lon="1.98279">
        <ele>115.6</ele>
        <time>2026-03-29T10:15:49Z</time>
      </trkpt>
      <trkpt lat="48.58539" lon="1.98273">
        <ele>115.6</ele>
        <time>2026-03-29T10:15:50Z</time>
      </trkpt>
      <trkpt lat="48.5854" lon="1.98266">
        <ele>115.6</ele>
        <time>2026-03-29T10:15:51Z</time>
      </trkpt>
      <trkpt lat="48.58542" lon="1.9826">
        <ele>115.6</ele>
        <time>2026-03-29T10:15:52Z</time>
      </trkpt>
      <trkpt lat="48.58544" lon="1.98254">
        <ele>115.6</ele>
        <time>2026-03-29T10:15:53Z</time>
      </trkpt>
      <trkpt lat="48.58545" lon="1.98248">
        <ele>115.6</ele>
        <time>2026-03-29T10:15:54Z</time>
      </trkpt>
      <trkpt lat="48.58547" lon="1.98242">
        <ele>115.6</ele>
        <time>2026-03-29T10:15:55Z</time>
      </trkpt>
      <trkpt lat="48.58548" lon="1.98236">
        <ele>115.6</ele>
        <time>2026-03-29T10:15:56Z</time>
      </trkpt>
      <trkpt lat="48.5855" lon="1.9823">
        <ele>115.6</ele>
        <time>2026-03-29T10:15:57Z</time>
      </trkpt>
      <trkpt lat="48.58551" lon="1.98224">
        <ele>115.8</ele>
        <time>2026-03-29T10:15:58Z</time>
      </trkpt>
      <trkpt lat="48.58553" lon="1.98218">
        <ele>115.8</ele>
        <time>2026-03-29T10:15:59Z</time>
      </trkpt>
      <trkpt lat="48.58554" lon="1.98212">
        <ele>115.8</ele>
        <time>2026-03-29T10:16:00Z</time>
      </trkpt>
      <trkpt lat="48.58556" lon="1.98206">
        <ele>115.8</ele>
        <time>2026-03-29T10:16:01Z</time>
      </trkpt>
      <trkpt lat="48.58557" lon="1.982">
        <ele>115.8</ele>
        <time>2026-03-29T10:16:02Z</time>
      </trkpt>
      <trkpt lat="48.58559" lon="1.98195">
        <ele>115.8</ele>
        <time>2026-03-29T10:16:03Z</time>
      </trkpt>
      <trkpt lat="48.58561" lon="1.98189">
        <ele>115.8</ele>
        <time>2026-03-29T10:16:04Z</time>
      </trkpt>
      <trkpt lat="48.58563" lon="1.98184">
        <ele>115.8</ele>
        <time>2026-03-29T10:16:05Z</time>
      </trkpt>
      <trkpt lat="48.58565" lon="1.98179">
        <ele>116</ele>
        <time>2026-03-29T10:16:06Z</time>
      </trkpt>
      <trkpt lat="48.58568" lon="1.98174">
        <ele>116</ele>
        <time>2026-03-29T10:16:07Z</time>
      </trkpt>
      <trkpt lat="48.5857" lon="1.9817">
        <ele>116</ele>
        <time>2026-03-29T10:16:08Z</time>
      </trkpt>
      <trkpt lat="48.58572" lon="1.98166">
        <ele>116</ele>
        <time>2026-03-29T10:16:09Z</time>
      </trkpt>
      <trkpt lat="48.58574" lon="1.98162">
        <ele>116.2</ele>
        <time>2026-03-29T10:16:10Z</time>
      </trkpt>
      <trkpt lat="48.58575" lon="1.98157">
        <ele>116.2</ele>
        <time>2026-03-29T10:16:11Z</time>
      </trkpt>
      <trkpt lat="48.58577" lon="1.98152">
        <ele>116.2</ele>
        <time>2026-03-29T10:16:12Z</time>
      </trkpt>
      <trkpt lat="48.58579" lon="1.98147">
        <ele>116.2</ele>
        <time>2026-03-29T10:16:13Z</time>
      </trkpt>
      <trkpt lat="48.5858" lon="1.98141">
        <ele>116.4</ele>
        <time>2026-03-29T10:16:14Z</time>
      </trkpt>
      <trkpt lat="48.58582" lon="1.98134">
        <ele>116.4</ele>
        <time>2026-03-29T10:16:15Z</time>
      </trkpt>
      <trkpt lat="48.58582" lon="1.98128">
        <ele>116.4</ele>
        <time>2026-03-29T10:16:16Z</time>
      </trkpt>
      <trkpt lat="48.58583" lon="1.98121">
        <ele>116.4</ele>
        <time>2026-03-29T10:16:17Z</time>
      </trkpt>
      <trkpt lat="48.58583" lon="1.98115">
        <ele>116.4</ele>
        <time>2026-03-29T10:16:18Z</time>
      </trkpt>
      <trkpt lat="48.58584" lon="1.98108">
        <ele>116.4</ele>
        <time>2026-03-29T10:16:19Z</time>
      </trkpt>
      <trkpt lat="48.58586" lon="1.98102">
        <ele>116.4</ele>
        <time>2026-03-29T10:16:20Z</time>
      </trkpt>
      <trkpt lat="48.58586" lon="1.98095">
        <ele>116.4</ele>
        <time>2026-03-29T10:16:21Z</time>
      </trkpt>
      <trkpt lat="48.58586" lon="1.98089">
        <ele>116.2</ele>
        <time>2026-03-29T10:16:22Z</time>
      </trkpt>
      <trkpt lat="48.58585" lon="1.98083">
        <ele>116.2</ele>
        <time>2026-03-29T10:16:23Z</time>
      </trkpt>
      <trkpt lat="48.58583" lon="1.98078">
        <ele>116.2</ele>
        <time>2026-03-29T10:16:24Z</time>
      </trkpt>
      <trkpt lat="48.58581" lon="1.98076">
        <ele>116.2</ele>
        <time>2026-03-29T10:16:25Z</time>
      </trkpt>
      <trkpt lat="48.58577" lon="1.98075">
        <ele>116.2</ele>
        <time>2026-03-29T10:16:26Z</time>
      </trkpt>
      <trkpt lat="48.58574" lon="1.98073">
        <ele>116.2</ele>
        <time>2026-03-29T10:16:27Z</time>
      </trkpt>
      <trkpt lat="48.58571" lon="1.9807">
        <ele>116.2</ele>
        <time>2026-03-29T10:16:28Z</time>
      </trkpt>
      <trkpt lat="48.58568" lon="1.98069">
        <ele>116.2</ele>
        <time>2026-03-29T10:16:29Z</time>
      </trkpt>
      <trkpt lat="48.58566" lon="1.98068">
        <ele>116</ele>
        <time>2026-03-29T10:16:30Z</time>
      </trkpt>
      <trkpt lat="48.58563" lon="1.98066">
        <ele>116</ele>
        <time>2026-03-29T10:16:31Z</time>
      </trkpt>
      <trkpt lat="48.58559" lon="1.98065">
        <ele>116</ele>
        <time>2026-03-29T10:16:32Z</time>
      </trkpt>
      <trkpt lat="48.58555" lon="1.98063">
        <ele>116</ele>
        <time>2026-03-29T10:16:33Z</time>
      </trkpt>
      <trkpt lat="48.58551" lon="1.98061">
        <ele>116</ele>
        <time>2026-03-29T10:16:34Z</time>
      </trkpt>
      <trkpt lat="48.58547" lon="1.9806">
        <ele>116</ele>
        <time>2026-03-29T10:16:35Z</time>
      </trkpt>
      <trkpt lat="48.58543" lon="1.98057">
        <ele>116</ele>
        <time>2026-03-29T10:16:36Z</time>
      </trkpt>
      <trkpt lat="48.58539" lon="1.98054">
        <ele>116</ele>
        <time>2026-03-29T10:16:37Z</time>
      </trkpt>
      <trkpt lat="48.58535" lon="1.98052">
        <ele>115.4</ele>
        <time>2026-03-29T10:16:38Z</time>
      </trkpt>
      <trkpt lat="48.58531" lon="1.98049">
        <ele>115.4</ele>
        <time>2026-03-29T10:16:39Z</time>
      </trkpt>
      <trkpt lat="48.58527" lon="1.98046">
        <ele>115.4</ele>
        <time>2026-03-29T10:16:40Z</time>
      </trkpt>
      <trkpt lat="48.58524" lon="1.98043">
        <ele>115.4</ele>
        <time>2026-03-29T10:16:41Z</time>
      </trkpt>
      <trkpt lat="48.58521" lon="1.98039">
        <ele>115.2</ele>
        <time>2026-03-29T10:16:42Z</time>
      </trkpt>
      <trkpt lat="48.58517" lon="1.98036">
        <ele>115.2</ele>
        <time>2026-03-29T10:16:43Z</time>
      </trkpt>
      <trkpt lat="48.58514" lon="1.98032">
        <ele>115.2</ele>
        <time>2026-03-29T10:16:44Z</time>
      </trkpt>
      <trkpt lat="48.58511" lon="1.98028">
        <ele>115.2</ele>
        <time>2026-03-29T10:16:45Z</time>
      </trkpt>
      <trkpt lat="48.58508" lon="1.98025">
        <ele>115.2</ele>
        <time>2026-03-29T10:16:46Z</time>
      </trkpt>
      <trkpt lat="48.58505" lon="1.98022">
        <ele>115.2</ele>
        <time>2026-03-29T10:16:47Z</time>
      </trkpt>
      <trkpt lat="48.58501" lon="1.98019">
        <ele>115.2</ele>
        <time>2026-03-29T10:16:48Z</time>
      </trkpt>
      <trkpt lat="48.58497" lon="1.98015">
        <ele>115.2</ele>
        <time>2026-03-29T10:16:49Z</time>
      </trkpt>
      <trkpt lat="48.58494" lon="1.98012">
        <ele>115.4</ele>
        <time>2026-03-29T10:16:50Z</time>
      </trkpt>
      <trkpt lat="48.5849" lon="1.98008">
        <ele>115.4</ele>
        <time>2026-03-29T10:16:51Z</time>
      </trkpt>
      <trkpt lat="48.58488" lon="1.98005">
        <ele>115.4</ele>
        <time>2026-03-29T10:16:52Z</time>
      </trkpt>
      <trkpt lat="48.58485" lon="1.98002">
        <ele>115.4</ele>
        <time>2026-03-29T10:16:53Z</time>
      </trkpt>
      <trkpt lat="48.58482" lon="1.97999">
        <ele>115.8</ele>
        <time>2026-03-29T10:16:54Z</time>
      </trkpt>
      <trkpt lat="48.58479" lon="1.97996">
        <ele>115.8</ele>
        <time>2026-03-29T10:16:55Z</time>
      </trkpt>
      <trkpt lat="48.58476" lon="1.97993">
        <ele>115.8</ele>
        <time>2026-03-29T10:16:56Z</time>
      </trkpt>
      <trkpt lat="48.58472" lon="1.97989">
        <ele>115.8</ele>
        <time>2026-03-29T10:16:57Z</time>
      </trkpt>
      <trkpt lat="48.5847" lon="1.97987">
        <ele>116</ele>
        <time>2026-03-29T10:16:58Z</time>
      </trkpt>
      <trkpt lat="48.58468" lon="1.97984">
        <ele>116</ele>
        <time>2026-03-29T10:16:59Z</time>
      </trkpt>
      <trkpt lat="48.58465" lon="1.9798">
        <ele>116</ele>
        <time>2026-03-29T10:17:00Z</time>
      </trkpt>
      <trkpt lat="48.58463" lon="1.97976">
        <ele>115.6</ele>
        <time>2026-03-29T10:17:01Z</time>
      </trkpt>
      <trkpt lat="48.5846" lon="1.97973">
        <ele>115.8</ele>
        <time>2026-03-29T10:17:02Z</time>
      </trkpt>
      <trkpt lat="48.58457" lon="1.97969">
        <ele>115.8</ele>
        <time>2026-03-29T10:17:03Z</time>
      </trkpt>
      <trkpt lat="48.58454" lon="1.97964">
        <ele>115.8</ele>
        <time>2026-03-29T10:17:04Z</time>
      </trkpt>
      <trkpt lat="48.58453" lon="1.9796">
        <ele>115.8</ele>
        <time>2026-03-29T10:17:05Z</time>
      </trkpt>
      <trkpt lat="48.5845" lon="1.97955">
        <ele>115.6</ele>
        <time>2026-03-29T10:17:06Z</time>
      </trkpt>
      <trkpt lat="48.58447" lon="1.9795">
        <ele>115.6</ele>
        <time>2026-03-29T10:17:07Z</time>
      </trkpt>
      <trkpt lat="48.58445" lon="1.97946">
        <ele>115.6</ele>
        <time>2026-03-29T10:17:08Z</time>
      </trkpt>
      <trkpt lat="48.58442" lon="1.97942">
        <ele>116.2</ele>
        <time>2026-03-29T10:17:09Z</time>
      </trkpt>
      <trkpt lat="48.58439" lon="1.97938">
        <ele>116.4</ele>
        <time>2026-03-29T10:17:10Z</time>
      </trkpt>
      <trkpt lat="48.58436" lon="1.97934">
        <ele>116.4</ele>
        <time>2026-03-29T10:17:11Z</time>
      </trkpt>
      <trkpt lat="48.58434" lon="1.9793">
        <ele>116.4</ele>
        <time>2026-03-29T10:17:12Z</time>
      </trkpt>
      <trkpt lat="48.58432" lon="1.97926">
        <ele>116.4</ele>
        <time>2026-03-29T10:17:13Z</time>
      </trkpt>
      <trkpt lat="48.58429" lon="1.97921">
        <ele>116.4</ele>
        <time>2026-03-29T10:17:14Z</time>
      </trkpt>
      <trkpt lat="48.58425" lon="1.97917">
        <ele>116.4</ele>
        <time>2026-03-29T10:17:15Z</time>
      </trkpt>
      <trkpt lat="48.58423" lon="1.97913">
        <ele>116.4</ele>
        <time>2026-03-29T10:17:16Z</time>
      </trkpt>
      <trkpt lat="48.5842" lon="1.97909">
        <ele>116.4</ele>
        <time>2026-03-29T10:17:17Z</time>
      </trkpt>
      <trkpt lat="48.58418" lon="1.97905">
        <ele>116.6</ele>
        <time>2026-03-29T10:17:18Z</time>
      </trkpt>
      <trkpt lat="48.58415" lon="1.979">
        <ele>116.6</ele>
        <time>2026-03-29T10:17:19Z</time>
      </trkpt>
      <trkpt lat="48.58412" lon="1.97896">
        <ele>116.6</ele>
        <time>2026-03-29T10:17:20Z</time>
      </trkpt>
      <trkpt lat="48.58409" lon="1.97892">
        <ele>116.6</ele>
        <time>2026-03-29T10:17:21Z</time>
      </trkpt>
      <trkpt lat="48.58407" lon="1.97888">
        <ele>117</ele>
        <time>2026-03-29T10:17:22Z</time>
      </trkpt>
      <trkpt lat="48.58404" lon="1.97884">
        <ele>117</ele>
        <time>2026-03-29T10:17:23Z</time>
      </trkpt>
      <trkpt lat="48.58401" lon="1.9788">
        <ele>117</ele>
        <time>2026-03-29T10:17:24Z</time>
      </trkpt>
      <trkpt lat="48.58398" lon="1.97877">
        <ele>117</ele>
        <time>2026-03-29T10:17:25Z</time>
      </trkpt>
      <trkpt lat="48.58395" lon="1.97874">
        <ele>117.2</ele>
        <time>2026-03-29T10:17:26Z</time>
      </trkpt>
      <trkpt lat="48.58392" lon="1.97871">
        <ele>117.2</ele>
        <time>2026-03-29T10:17:27Z</time>
      </trkpt>
      <trkpt lat="48.58389" lon="1.97867">
        <ele>117.2</ele>
        <time>2026-03-29T10:17:28Z</time>
      </trkpt>
      <trkpt lat="48.58386" lon="1.97862">
        <ele>117.4</ele>
        <time>2026-03-29T10:17:29Z</time>
      </trkpt>
      <trkpt lat="48.58383" lon="1.97858">
        <ele>118</ele>
        <time>2026-03-29T10:17:30Z</time>
      </trkpt>
      <trkpt lat="48.5838" lon="1.97853">
        <ele>118</ele>
        <time>2026-03-29T10:17:31Z</time>
      </trkpt>
      <trkpt lat="48.58376" lon="1.97848">
        <ele>118</ele>
        <time>2026-03-29T10:17:32Z</time>
      </trkpt>
      <trkpt lat="48.58374" lon="1.97843">
        <ele>117.8</ele>
        <time>2026-03-29T10:17:33Z</time>
      </trkpt>
      <trkpt lat="48.5837" lon="1.97839">
        <ele>118</ele>
        <time>2026-03-29T10:17:34Z</time>
      </trkpt>
      <trkpt lat="48.58367" lon="1.97835">
        <ele>118</ele>
        <time>2026-03-29T10:17:35Z</time>
      </trkpt>
      <trkpt lat="48.58364" lon="1.97831">
        <ele>118</ele>
        <time>2026-03-29T10:17:36Z</time>
      </trkpt>
      <trkpt lat="48.5836" lon="1.97827">
        <ele>118</ele>
        <time>2026-03-29T10:17:37Z</time>
      </trkpt>
      <trkpt lat="48.58357" lon="1.97822">
        <ele>118</ele>
        <time>2026-03-29T10:17:38Z</time>
      </trkpt>
      <trkpt lat="48.58354" lon="1.97818">
        <ele>118</ele>
        <time>2026-03-29T10:17:39Z</time>
      </trkpt>
      <trkpt lat="48.58351" lon="1.97814">
        <ele>118</ele>
        <time>2026-03-29T10:17:40Z</time>
      </trkpt>
      <trkpt lat="48.58347" lon="1.9781">
        <ele>118.6</ele>
        <time>2026-03-29T10:17:41Z</time>
      </trkpt>
      <trkpt lat="48.58345" lon="1.97805">
        <ele>118.8</ele>
        <time>2026-03-29T10:17:42Z</time>
      </trkpt>
      <trkpt lat="48.58342" lon="1.97801">
        <ele>118.8</ele>
        <time>2026-03-29T10:17:43Z</time>
      </trkpt>
      <trkpt lat="48.58339" lon="1.97796">
        <ele>118.8</ele>
        <time>2026-03-29T10:17:44Z</time>
      </trkpt>
      <trkpt lat="48.58337" lon="1.97791">
        <ele>118.6</ele>
        <time>2026-03-29T10:17:45Z</time>
      </trkpt>
      <trkpt lat="48.58334" lon="1.97787">
        <ele>118.4</ele>
        <time>2026-03-29T10:17:46Z</time>
      </trkpt>
      <trkpt lat="48.58332" lon="1.97782">
        <ele>118.4</ele>
        <time>2026-03-29T10:17:47Z</time>
      </trkpt>
      <trkpt lat="48.58329" lon="1.97777">
        <ele>118.4</ele>
        <time>2026-03-29T10:17:48Z</time>
      </trkpt>
      <trkpt lat="48.58327" lon="1.97773">
        <ele>118.4</ele>
        <time>2026-03-29T10:17:49Z</time>
      </trkpt>
      <trkpt lat="48.58325" lon="1.97768">
        <ele>118.6</ele>
        <time>2026-03-29T10:17:50Z</time>
      </trkpt>
      <trkpt lat="48.58323" lon="1.97763">
        <ele>118.6</ele>
        <time>2026-03-29T10:17:51Z</time>
      </trkpt>
      <trkpt lat="48.58321" lon="1.97757">
        <ele>118.6</ele>
        <time>2026-03-29T10:17:52Z</time>
      </trkpt>
      <trkpt lat="48.58318" lon="1.97752">
        <ele>118.6</ele>
        <time>2026-03-29T10:17:53Z</time>
      </trkpt>
      <trkpt lat="48.58316" lon="1.97747">
        <ele>117.8</ele>
        <time>2026-03-29T10:17:54Z</time>
      </trkpt>
      <trkpt lat="48.58313" lon="1.97741">
        <ele>117.8</ele>
        <time>2026-03-29T10:17:55Z</time>
      </trkpt>
      <trkpt lat="48.58311" lon="1.97736">
        <ele>117.8</ele>
        <time>2026-03-29T10:17:56Z</time>
      </trkpt>
      <trkpt lat="48.58309" lon="1.97731">
        <ele>118</ele>
        <time>2026-03-29T10:17:57Z</time>
      </trkpt>
      <trkpt lat="48.58307" lon="1.97726">
        <ele>118</ele>
        <time>2026-03-29T10:17:58Z</time>
      </trkpt>
      <trkpt lat="48.58304" lon="1.97721">
        <ele>118</ele>
        <time>2026-03-29T10:17:59Z</time>
      </trkpt>
      <trkpt lat="48.58302" lon="1.97716">
        <ele>118</ele>
        <time>2026-03-29T10:18:00Z</time>
      </trkpt>
      <trkpt lat="48.583" lon="1.97711">
        <ele>118</ele>
        <time>2026-03-29T10:18:01Z</time>
      </trkpt>
      <trkpt lat="48.58298" lon="1.97707">
        <ele>118.2</ele>
        <time>2026-03-29T10:18:02Z</time>
      </trkpt>
      <trkpt lat="48.58296" lon="1.97702">
        <ele>118.2</ele>
        <time>2026-03-29T10:18:03Z</time>
      </trkpt>
      <trkpt lat="48.58294" lon="1.97698">
        <ele>118.2</ele>
        <time>2026-03-29T10:18:04Z</time>
      </trkpt>
      <trkpt lat="48.58292" lon="1.97694">
        <ele>118.4</ele>
        <time>2026-03-29T10:18:05Z</time>
      </trkpt>
      <trkpt lat="48.5829" lon="1.9769">
        <ele>118.6</ele>
        <time>2026-03-29T10:18:06Z</time>
      </trkpt>
      <trkpt lat="48.58288" lon="1.97685">
        <ele>118.6</ele>
        <time>2026-03-29T10:18:07Z</time>
      </trkpt>
      <trkpt lat="48.58286" lon="1.9768">
        <ele>118.6</ele>
        <time>2026-03-29T10:18:08Z</time>
      </trkpt>
      <trkpt lat="48.58284" lon="1.97677">
        <ele>118.6</ele>
        <time>2026-03-29T10:18:09Z</time>
      </trkpt>
      <trkpt lat="48.58283" lon="1.97672">
        <ele>118.6</ele>
        <time>2026-03-29T10:18:10Z</time>
      </trkpt>
      <trkpt lat="48.58281" lon="1.97668">
        <ele>118.6</ele>
        <time>2026-03-29T10:18:11Z</time>
      </trkpt>
      <trkpt lat="48.58279" lon="1.97664">
        <ele>118.6</ele>
        <time>2026-03-29T10:18:12Z</time>
      </trkpt>
      <trkpt lat="48.58276" lon="1.9766">
        <ele>118.6</ele>
        <time>2026-03-29T10:18:13Z</time>
      </trkpt>
      <trkpt lat="48.58274" lon="1.97655">
        <ele>118.4</ele>
        <time>2026-03-29T10:18:14Z</time>
      </trkpt>
      <trkpt lat="48.58273" lon="1.9765">
        <ele>118.4</ele>
        <time>2026-03-29T10:18:15Z</time>
      </trkpt>
      <trkpt lat="48.58271" lon="1.97645">
        <ele>118.4</ele>
        <time>2026-03-29T10:18:16Z</time>
      </trkpt>
      <trkpt lat="48.5827" lon="1.97639">
        <ele>118.4</ele>
        <time>2026-03-29T10:18:17Z</time>
      </trkpt>
      <trkpt lat="48.58268" lon="1.97633">
        <ele>118.4</ele>
        <time>2026-03-29T10:18:18Z</time>
      </trkpt>
      <trkpt lat="48.58266" lon="1.97627">
        <ele>118.4</ele>
        <time>2026-03-29T10:18:19Z</time>
      </trkpt>
      <trkpt lat="48.58264" lon="1.97621">
        <ele>118.4</ele>
        <time>2026-03-29T10:18:20Z</time>
      </trkpt>
      <trkpt lat="48.58262" lon="1.97615">
        <ele>118</ele>
        <time>2026-03-29T10:18:21Z</time>
      </trkpt>
      <trkpt lat="48.5826" lon="1.9761">
        <ele>117.8</ele>
        <time>2026-03-29T10:18:22Z</time>
      </trkpt>
      <trkpt lat="48.58258" lon="1.97605">
        <ele>117.8</ele>
        <time>2026-03-29T10:18:23Z</time>
      </trkpt>
      <trkpt lat="48.58257" lon="1.976">
        <ele>117.8</ele>
        <time>2026-03-29T10:18:24Z</time>
      </trkpt>
      <trkpt lat="48.58255" lon="1.97596">
        <ele>118</ele>
        <time>2026-03-29T10:18:25Z</time>
      </trkpt>
      <trkpt lat="48.58253" lon="1.97593">
        <ele>118.4</ele>
        <time>2026-03-29T10:18:26Z</time>
      </trkpt>
      <trkpt lat="48.58251" lon="1.97589">
        <ele>118.4</ele>
        <time>2026-03-29T10:18:27Z</time>
      </trkpt>
      <trkpt lat="48.58249" lon="1.97586">
        <ele>118.4</ele>
        <time>2026-03-29T10:18:28Z</time>
      </trkpt>
      <trkpt lat="48.58247" lon="1.97581">
        <ele>118.4</ele>
        <time>2026-03-29T10:18:29Z</time>
      </trkpt>
      <trkpt lat="48.58246" lon="1.97577">
        <ele>118.4</ele>
        <time>2026-03-29T10:18:30Z</time>
      </trkpt>
      <trkpt lat="48.58245" lon="1.97573">
        <ele>118.4</ele>
        <time>2026-03-29T10:18:31Z</time>
      </trkpt>
      <trkpt lat="48.58243" lon="1.97567">
        <ele>118.4</ele>
        <time>2026-03-29T10:18:32Z</time>
      </trkpt>
      <trkpt lat="48.58241" lon="1.97562">
        <ele>118.8</ele>
        <time>2026-03-29T10:18:33Z</time>
      </trkpt>
      <trkpt lat="48.5824" lon="1.97557">
        <ele>118.4</ele>
        <time>2026-03-29T10:18:34Z</time>
      </trkpt>
      <trkpt lat="48.58238" lon="1.97553">
        <ele>118.4</ele>
        <time>2026-03-29T10:18:35Z</time>
      </trkpt>
      <trkpt lat="48.58236" lon="1.97548">
        <ele>118.4</ele>
        <time>2026-03-29T10:18:36Z</time>
      </trkpt>
      <trkpt lat="48.58235" lon="1.97544">
        <ele>118.4</ele>
        <time>2026-03-29T10:18:37Z</time>
      </trkpt>
      <trkpt lat="48.58233" lon="1.97539">
        <ele>118.8</ele>
        <time>2026-03-29T10:18:38Z</time>
      </trkpt>
      <trkpt lat="48.58231" lon="1.97534">
        <ele>118.8</ele>
        <time>2026-03-29T10:18:39Z</time>
      </trkpt>
      <trkpt lat="48.5823" lon="1.97529">
        <ele>118.8</ele>
        <time>2026-03-29T10:18:40Z</time>
      </trkpt>
      <trkpt lat="48.58228" lon="1.97525">
        <ele>118.8</ele>
        <time>2026-03-29T10:18:41Z</time>
      </trkpt>
      <trkpt lat="48.58226" lon="1.9752">
        <ele>118.6</ele>
        <time>2026-03-29T10:18:42Z</time>
      </trkpt>
      <trkpt lat="48.58224" lon="1.97514">
        <ele>118.6</ele>
        <time>2026-03-29T10:18:43Z</time>
      </trkpt>
      <trkpt lat="48.58222" lon="1.97509">
        <ele>118.6</ele>
        <time>2026-03-29T10:18:44Z</time>
      </trkpt>
      <trkpt lat="48.58219" lon="1.97504">
        <ele>118.6</ele>
        <time>2026-03-29T10:18:45Z</time>
      </trkpt>
      <trkpt lat="48.58217" lon="1.97499">
        <ele>118.8</ele>
        <time>2026-03-29T10:18:46Z</time>
      </trkpt>
      <trkpt lat="48.58214" lon="1.97494">
        <ele>118.8</ele>
        <time>2026-03-29T10:18:47Z</time>
      </trkpt>
      <trkpt lat="48.58211" lon="1.97488">
        <ele>118.8</ele>
        <time>2026-03-29T10:18:48Z</time>
      </trkpt>
      <trkpt lat="48.58209" lon="1.97483">
        <ele>118.6</ele>
        <time>2026-03-29T10:18:49Z</time>
      </trkpt>
      <trkpt lat="48.58207" lon="1.97477">
        <ele>118.6</ele>
        <time>2026-03-29T10:18:50Z</time>
      </trkpt>
      <trkpt lat="48.58205" lon="1.97471">
        <ele>118.6</ele>
        <time>2026-03-29T10:18:51Z</time>
      </trkpt>
      <trkpt lat="48.58203" lon="1.97465">
        <ele>118.6</ele>
        <time>2026-03-29T10:18:52Z</time>
      </trkpt>
      <trkpt lat="48.58201" lon="1.9746">
        <ele>118.8</ele>
        <time>2026-03-29T10:18:53Z</time>
      </trkpt>
      <trkpt lat="48.58199" lon="1.97455">
        <ele>118.8</ele>
        <time>2026-03-29T10:18:54Z</time>
      </trkpt>
      <trkpt lat="48.58197" lon="1.9745">
        <ele>118.8</ele>
        <time>2026-03-29T10:18:55Z</time>
      </trkpt>
      <trkpt lat="48.58196" lon="1.97445">
        <ele>118.8</ele>
        <time>2026-03-29T10:18:56Z</time>
      </trkpt>
      <trkpt lat="48.58195" lon="1.9744">
        <ele>118.8</ele>
        <time>2026-03-29T10:18:57Z</time>
      </trkpt>
      <trkpt lat="48.58194" lon="1.97436">
        <ele>119.2</ele>
        <time>2026-03-29T10:18:58Z</time>
      </trkpt>
      <trkpt lat="48.58192" lon="1.97431">
        <ele>119.2</ele>
        <time>2026-03-29T10:18:59Z</time>
      </trkpt>
      <trkpt lat="48.58191" lon="1.97426">
        <ele>119.2</ele>
        <time>2026-03-29T10:19:00Z</time>
      </trkpt>
      <trkpt lat="48.58189" lon="1.97421">
        <ele>119.2</ele>
        <time>2026-03-29T10:19:01Z</time>
      </trkpt>
      <trkpt lat="48.58186" lon="1.97416">
        <ele>119.2</ele>
        <time>2026-03-29T10:19:02Z</time>
      </trkpt>
      <trkpt lat="48.58185" lon="1.97412">
        <ele>119.2</ele>
        <time>2026-03-29T10:19:03Z</time>
      </trkpt>
      <trkpt lat="48.58183" lon="1.97406">
        <ele>119.2</ele>
        <time>2026-03-29T10:19:04Z</time>
      </trkpt>
      <trkpt lat="48.58181" lon="1.97402">
        <ele>119</ele>
        <time>2026-03-29T10:19:05Z</time>
      </trkpt>
      <trkpt lat="48.58179" lon="1.97397">
        <ele>119.4</ele>
        <time>2026-03-29T10:19:06Z</time>
      </trkpt>
      <trkpt lat="48.58177" lon="1.97394">
        <ele>119.4</ele>
        <time>2026-03-29T10:19:07Z</time>
      </trkpt>
      <trkpt lat="48.58175" lon="1.97392">
        <ele>119.4</ele>
        <time>2026-03-29T10:19:08Z</time>
      </trkpt>
      <trkpt lat="48.58172" lon="1.9739">
        <ele>119.4</ele>
        <time>2026-03-29T10:19:09Z</time>
      </trkpt>
      <trkpt lat="48.58169" lon="1.9739">
        <ele>120</ele>
        <time>2026-03-29T10:19:10Z</time>
      </trkpt>
      <trkpt lat="48.58165" lon="1.97388">
        <ele>120</ele>
        <time>2026-03-29T10:19:11Z</time>
      </trkpt>
      <trkpt lat="48.58161" lon="1.97387">
        <ele>120</ele>
        <time>2026-03-29T10:19:12Z</time>
      </trkpt>
      <trkpt lat="48.58157" lon="1.97384">
        <ele>119</ele>
        <time>2026-03-29T10:19:13Z</time>
      </trkpt>
      <trkpt lat="48.58152" lon="1.97381">
        <ele>119.8</ele>
        <time>2026-03-29T10:19:14Z</time>
      </trkpt>
      <trkpt lat="48.5815" lon="1.9738">
        <ele>119.8</ele>
        <time>2026-03-29T10:19:15Z</time>
      </trkpt>
      <trkpt lat="48.58147" lon="1.97379">
        <ele>119.8</ele>
        <time>2026-03-29T10:19:16Z</time>
      </trkpt>
      <trkpt lat="48.58144" lon="1.97377">
        <ele>119.8</ele>
        <time>2026-03-29T10:19:17Z</time>
      </trkpt>
      <trkpt lat="48.58143" lon="1.97374">
        <ele>119.8</ele>
        <time>2026-03-29T10:19:18Z</time>
      </trkpt>
      <trkpt lat="48.58142" lon="1.97371">
        <ele>119.8</ele>
        <time>2026-03-29T10:19:19Z</time>
      </trkpt>
      <trkpt lat="48.58142" lon="1.97368">
        <ele>119.8</ele>
        <time>2026-03-29T10:19:20Z</time>
      </trkpt>
      <trkpt lat="48.58141" lon="1.97366">
        <ele>119.8</ele>
        <time>2026-03-29T10:19:21Z</time>
      </trkpt>
      <trkpt lat="48.5814" lon="1.97363">
        <ele>120.2</ele>
        <time>2026-03-29T10:19:22Z</time>
      </trkpt>
      <trkpt lat="48.58138" lon="1.9736">
        <ele>120.2</ele>
        <time>2026-03-29T10:19:23Z</time>
      </trkpt>
      <trkpt lat="48.58137" lon="1.97357">
        <ele>120.2</ele>
        <time>2026-03-29T10:19:24Z</time>
      </trkpt>
      <trkpt lat="48.58136" lon="1.97352">
        <ele>120.4</ele>
        <time>2026-03-29T10:19:25Z</time>
      </trkpt>
      <trkpt lat="48.58135" lon="1.97349">
        <ele>120.4</ele>
        <time>2026-03-29T10:19:26Z</time>
      </trkpt>
      <trkpt lat="48.58134" lon="1.97348">
        <ele>120.4</ele>
        <time>2026-03-29T10:19:27Z</time>
      </trkpt>
      <trkpt lat="48.58132" lon="1.97344">
        <ele>120.4</ele>
        <time>2026-03-29T10:19:28Z</time>
      </trkpt>
      <trkpt lat="48.58131" lon="1.97341">
        <ele>121</ele>
        <time>2026-03-29T10:19:29Z</time>
      </trkpt>
      <trkpt lat="48.58129" lon="1.97338">
        <ele>121.6</ele>
        <time>2026-03-29T10:19:30Z</time>
      </trkpt>
      <trkpt lat="48.58128" lon="1.97334">
        <ele>121.6</ele>
        <time>2026-03-29T10:19:31Z</time>
      </trkpt>
      <trkpt lat="48.58128" lon="1.97331">
        <ele>121.6</ele>
        <time>2026-03-29T10:19:32Z</time>
      </trkpt>
      <trkpt lat="48.58127" lon="1.97328">
        <ele>121.6</ele>
        <time>2026-03-29T10:19:33Z</time>
      </trkpt>
      <trkpt lat="48.58127" lon="1.97326">
        <ele>122</ele>
        <time>2026-03-29T10:19:34Z</time>
      </trkpt>
      <trkpt lat="48.58125" lon="1.97322">
        <ele>122</ele>
        <time>2026-03-29T10:19:35Z</time>
      </trkpt>
      <trkpt lat="48.58126" lon="1.9732">
        <ele>122</ele>
        <time>2026-03-29T10:19:36Z</time>
      </trkpt>
      <trkpt lat="48.58125" lon="1.97315">
        <ele>122.8</ele>
        <time>2026-03-29T10:19:37Z</time>
      </trkpt>
      <trkpt lat="48.58124" lon="1.97313">
        <ele>123</ele>
        <time>2026-03-29T10:19:38Z</time>
      </trkpt>
      <trkpt lat="48.58124" lon="1.9731">
        <ele>123</ele>
        <time>2026-03-29T10:19:39Z</time>
      </trkpt>
      <trkpt lat="48.58124" lon="1.97306">
        <ele>123</ele>
        <time>2026-03-29T10:19:40Z</time>
      </trkpt>
      <trkpt lat="48.58123" lon="1.97304">
        <ele>123.2</ele>
        <time>2026-03-29T10:19:41Z</time>
      </trkpt>
      <trkpt lat="48.58123" lon="1.97301">
        <ele>123.4</ele>
        <time>2026-03-29T10:19:42Z</time>
      </trkpt>
      <trkpt lat="48.58122" lon="1.97298">
        <ele>123.4</ele>
        <time>2026-03-29T10:19:43Z</time>
      </trkpt>
      <trkpt lat="48.58122" lon="1.97295">
        <ele>123.4</ele>
        <time>2026-03-29T10:19:44Z</time>
      </trkpt>
      <trkpt lat="48.58122" lon="1.97291">
        <ele>123.8</ele>
        <time>2026-03-29T10:19:45Z</time>
      </trkpt>
      <trkpt lat="48.58122" lon="1.97288">
        <ele>124</ele>
        <time>2026-03-29T10:19:46Z</time>
      </trkpt>
      <trkpt lat="48.58122" lon="1.97285">
        <ele>124</ele>
        <time>2026-03-29T10:19:47Z</time>
      </trkpt>
      <trkpt lat="48.58123" lon="1.97282">
        <ele>124</ele>
        <time>2026-03-29T10:19:48Z</time>
      </trkpt>
      <trkpt lat="48.58122" lon="1.97278">
        <ele>124</ele>
        <time>2026-03-29T10:19:49Z</time>
      </trkpt>
      <trkpt lat="48.58122" lon="1.97275">
        <ele>124.2</ele>
        <time>2026-03-29T10:19:50Z</time>
      </trkpt>
      <trkpt lat="48.58121" lon="1.97272">
        <ele>124.2</ele>
        <time>2026-03-29T10:19:51Z</time>
      </trkpt>
      <trkpt lat="48.58121" lon="1.97268">
        <ele>124.2</ele>
        <time>2026-03-29T10:19:52Z</time>
      </trkpt>
      <trkpt lat="48.58121" lon="1.97264">
        <ele>124.4</ele>
        <time>2026-03-29T10:19:53Z</time>
      </trkpt>
      <trkpt lat="48.58121" lon="1.97262">
        <ele>124.8</ele>
        <time>2026-03-29T10:19:54Z</time>
      </trkpt>
      <trkpt lat="48.5812" lon="1.9726">
        <ele>124.8</ele>
        <time>2026-03-29T10:19:55Z</time>
      </trkpt>
      <trkpt lat="48.58119" lon="1.97258">
        <ele>124.8</ele>
        <time>2026-03-29T10:19:56Z</time>
      </trkpt>
      <trkpt lat="48.58119" lon="1.97255">
        <ele>124.8</ele>
        <time>2026-03-29T10:19:57Z</time>
      </trkpt>
      <trkpt lat="48.58118" lon="1.97254">
        <ele>125.6</ele>
        <time>2026-03-29T10:19:58Z</time>
      </trkpt>
      <trkpt lat="48.58117" lon="1.97252">
        <ele>125.6</ele>
        <time>2026-03-29T10:19:59Z</time>
      </trkpt>
      <trkpt lat="48.58116" lon="1.9725">
        <ele>125.6</ele>
        <time>2026-03-29T10:20:00Z</time>
      </trkpt>
      <trkpt lat="48.58115" lon="1.97249">
        <ele>126</ele>
        <time>2026-03-29T10:20:01Z</time>
      </trkpt>
      <trkpt lat="48.58114" lon="1.97248">
        <ele>126.4</ele>
        <time>2026-03-29T10:20:02Z</time>
      </trkpt>
      <trkpt lat="48.58113" lon="1.97246">
        <ele>126.4</ele>
        <time>2026-03-29T10:20:03Z</time>
      </trkpt>
      <trkpt lat="48.58113" lon="1.97244">
        <ele>126.4</ele>
        <time>2026-03-29T10:20:04Z</time>
      </trkpt>
      <trkpt lat="48.58112" lon="1.97241">
        <ele>127.4</ele>
        <time>2026-03-29T10:20:05Z</time>
      </trkpt>
      <trkpt lat="48.58112" lon="1.97239">
        <ele>127.6</ele>
        <time>2026-03-29T10:20:06Z</time>
      </trkpt>
      <trkpt lat="48.58111" lon="1.97237">
        <ele>127.6</ele>
        <time>2026-03-29T10:20:07Z</time>
      </trkpt>
      <trkpt lat="48.58111" lon="1.97235">
        <ele>127.6</ele>
        <time>2026-03-29T10:20:08Z</time>
      </trkpt>
      <trkpt lat="48.58111" lon="1.97232">
        <ele>127.6</ele>
        <time>2026-03-29T10:20:09Z</time>
      </trkpt>
      <trkpt lat="48.5811" lon="1.9723">
        <ele>128.2</ele>
        <time>2026-03-29T10:20:10Z</time>
      </trkpt>
      <trkpt lat="48.5811" lon="1.97229">
        <ele>128.2</ele>
        <time>2026-03-29T10:20:11Z</time>
      </trkpt>
      <trkpt lat="48.5811" lon="1.97227">
        <ele>128.2</ele>
        <time>2026-03-29T10:20:12Z</time>
      </trkpt>
      <trkpt lat="48.5811" lon="1.97225">
        <ele>129</ele>
        <time>2026-03-29T10:20:13Z</time>
      </trkpt>
      <trkpt lat="48.58109" lon="1.97222">
        <ele>129</ele>
        <time>2026-03-29T10:20:14Z</time>
      </trkpt>
      <trkpt lat="48.58108" lon="1.9722">
        <ele>129</ele>
        <time>2026-03-29T10:20:15Z</time>
      </trkpt>
      <trkpt lat="48.58108" lon="1.97218">
        <ele>129</ele>
        <time>2026-03-29T10:20:16Z</time>
      </trkpt>
      <trkpt lat="48.58107" lon="1.97215">
        <ele>129</ele>
        <time>2026-03-29T10:20:17Z</time>
      </trkpt>
      <trkpt lat="48.58106" lon="1.97214">
        <ele>130.6</ele>
        <time>2026-03-29T10:20:18Z</time>
      </trkpt>
      <trkpt lat="48.58106" lon="1.97212">
        <ele>130.6</ele>
        <time>2026-03-29T10:20:19Z</time>
      </trkpt>
      <trkpt lat="48.58105" lon="1.9721">
        <ele>130.6</ele>
        <time>2026-03-29T10:20:20Z</time>
      </trkpt>
      <trkpt lat="48.58104" lon="1.97208">
        <ele>131</ele>
        <time>2026-03-29T10:20:21Z</time>
      </trkpt>
      <trkpt lat="48.58104" lon="1.97206">
        <ele>131.2</ele>
        <time>2026-03-29T10:20:22Z</time>
      </trkpt>
      <trkpt lat="48.58102" lon="1.97202">
        <ele>131.2</ele>
        <time>2026-03-29T10:20:23Z</time>
      </trkpt>
      <trkpt lat="48.58101" lon="1.972">
        <ele>131.2</ele>
        <time>2026-03-29T10:20:24Z</time>
      </trkpt>
      <trkpt lat="48.581" lon="1.97198">
        <ele>131.2</ele>
        <time>2026-03-29T10:20:25Z</time>
      </trkpt>
      <trkpt lat="48.58099" lon="1.97195">
        <ele>131.4</ele>
        <time>2026-03-29T10:20:26Z</time>
      </trkpt>
      <trkpt lat="48.58099" lon="1.97192">
        <ele>131.4</ele>
        <time>2026-03-29T10:20:27Z</time>
      </trkpt>
      <trkpt lat="48.58098" lon="1.9719">
        <ele>131.4</ele>
        <time>2026-03-29T10:20:28Z</time>
      </trkpt>
      <trkpt lat="48.58098" lon="1.97188">
        <ele>131.8</ele>
        <time>2026-03-29T10:20:29Z</time>
      </trkpt>
      <trkpt lat="48.58097" lon="1.97185">
        <ele>132.2</ele>
        <time>2026-03-29T10:20:30Z</time>
      </trkpt>
      <trkpt lat="48.58097" lon="1.97181">
        <ele>132.2</ele>
        <time>2026-03-29T10:20:31Z</time>
      </trkpt>
      <trkpt lat="48.58097" lon="1.97178">
        <ele>132.2</ele>
        <time>2026-03-29T10:20:32Z</time>
      </trkpt>
      <trkpt lat="48.58096" lon="1.97175">
        <ele>132.2</ele>
        <time>2026-03-29T10:20:33Z</time>
      </trkpt>
      <trkpt lat="48.58096" lon="1.97172">
        <ele>132.6</ele>
        <time>2026-03-29T10:20:34Z</time>
      </trkpt>
      <trkpt lat="48.58095" lon="1.97168">
        <ele>132.6</ele>
        <time>2026-03-29T10:20:35Z</time>
      </trkpt>
      <trkpt lat="48.58095" lon="1.97165">
        <ele>132.6</ele>
        <time>2026-03-29T10:20:36Z</time>
      </trkpt>
      <trkpt lat="48.58095" lon="1.97162">
        <ele>132.6</ele>
        <time>2026-03-29T10:20:37Z</time>
      </trkpt>
      <trkpt lat="48.58094" lon="1.97159">
        <ele>132.4</ele>
        <time>2026-03-29T10:20:38Z</time>
      </trkpt>
      <trkpt lat="48.58095" lon="1.97155">
        <ele>132.4</ele>
        <time>2026-03-29T10:20:39Z</time>
      </trkpt>
      <trkpt lat="48.58095" lon="1.97152">
        <ele>132.4</ele>
        <time>2026-03-29T10:20:40Z</time>
      </trkpt>
      <trkpt lat="48.58094" lon="1.97148">
        <ele>131.4</ele>
        <time>2026-03-29T10:20:41Z</time>
      </trkpt>
      <trkpt lat="48.58093" lon="1.97142">
        <ele>131.6</ele>
        <time>2026-03-29T10:20:42Z</time>
      </trkpt>
      <trkpt lat="48.58092" lon="1.97137">
        <ele>131.6</ele>
        <time>2026-03-29T10:20:43Z</time>
      </trkpt>
      <trkpt lat="48.58091" lon="1.97132">
        <ele>131.6</ele>
        <time>2026-03-29T10:20:44Z</time>
      </trkpt>
      <trkpt lat="48.5809" lon="1.97127">
        <ele>130.6</ele>
        <time>2026-03-29T10:20:45Z</time>
      </trkpt>
      <trkpt lat="48.58089" lon="1.97121">
        <ele>130.2</ele>
        <time>2026-03-29T10:20:46Z</time>
      </trkpt>
      <trkpt lat="48.58088" lon="1.97115">
        <ele>130.2</ele>
        <time>2026-03-29T10:20:47Z</time>
      </trkpt>
      <trkpt lat="48.58087" lon="1.97108">
        <ele>130.2</ele>
        <time>2026-03-29T10:20:48Z</time>
      </trkpt>
      <trkpt lat="48.58087" lon="1.97102">
        <ele>130.2</ele>
        <time>2026-03-29T10:20:49Z</time>
      </trkpt>
      <trkpt lat="48.58086" lon="1.97096">
        <ele>129.8</ele>
        <time>2026-03-29T10:20:50Z</time>
      </trkpt>
      <trkpt lat="48.58084" lon="1.9709">
        <ele>129.8</ele>
        <time>2026-03-29T10:20:51Z</time>
      </trkpt>
      <trkpt lat="48.58083" lon="1.97085">
        <ele>129.8</ele>
        <time>2026-03-29T10:20:52Z</time>
      </trkpt>
      <trkpt lat="48.58082" lon="1.97081">
        <ele>130</ele>
        <time>2026-03-29T10:20:53Z</time>
      </trkpt>
      <trkpt lat="48.58081" lon="1.97076">
        <ele>129.8</ele>
        <time>2026-03-29T10:20:54Z</time>
      </trkpt>
      <trkpt lat="48.58081" lon="1.97071">
        <ele>129.8</ele>
        <time>2026-03-29T10:20:55Z</time>
      </trkpt>
      <trkpt lat="48.58081" lon="1.97067">
        <ele>129.8</ele>
        <time>2026-03-29T10:20:56Z</time>
      </trkpt>
      <trkpt lat="48.5808" lon="1.97064">
        <ele>130</ele>
        <time>2026-03-29T10:20:57Z</time>
      </trkpt>
      <trkpt lat="48.5808" lon="1.9706">
        <ele>130</ele>
        <time>2026-03-29T10:20:58Z</time>
      </trkpt>
      <trkpt lat="48.58078" lon="1.97055">
        <ele>130</ele>
        <time>2026-03-29T10:20:59Z</time>
      </trkpt>
      <trkpt lat="48.58077" lon="1.97051">
        <ele>130</ele>
        <time>2026-03-29T10:21:00Z</time>
      </trkpt>
      <trkpt lat="48.58077" lon="1.97047">
        <ele>130</ele>
        <time>2026-03-29T10:21:01Z</time>
      </trkpt>
      <trkpt lat="48.58077" lon="1.97042">
        <ele>130</ele>
        <time>2026-03-29T10:21:02Z</time>
      </trkpt>
      <trkpt lat="48.58076" lon="1.97037">
        <ele>130</ele>
        <time>2026-03-29T10:21:03Z</time>
      </trkpt>
      <trkpt lat="48.58076" lon="1.97033">
        <ele>130</ele>
        <time>2026-03-29T10:21:04Z</time>
      </trkpt>
      <trkpt lat="48.58075" lon="1.97028">
        <ele>130</ele>
        <time>2026-03-29T10:21:05Z</time>
      </trkpt>
      <trkpt lat="48.58074" lon="1.97024">
        <ele>129.6</ele>
        <time>2026-03-29T10:21:06Z</time>
      </trkpt>
      <trkpt lat="48.58073" lon="1.9702">
        <ele>129.6</ele>
        <time>2026-03-29T10:21:07Z</time>
      </trkpt>
      <trkpt lat="48.58072" lon="1.97016">
        <ele>129.6</ele>
        <time>2026-03-29T10:21:08Z</time>
      </trkpt>
      <trkpt lat="48.58071" lon="1.97012">
        <ele>130</ele>
        <time>2026-03-29T10:21:09Z</time>
      </trkpt>
      <trkpt lat="48.58069" lon="1.97007">
        <ele>130.2</ele>
        <time>2026-03-29T10:21:10Z</time>
      </trkpt>
      <trkpt lat="48.58068" lon="1.97004">
        <ele>130.2</ele>
        <time>2026-03-29T10:21:11Z</time>
      </trkpt>
      <trkpt lat="48.58067" lon="1.97">
        <ele>130.2</ele>
        <time>2026-03-29T10:21:12Z</time>
      </trkpt>
      <trkpt lat="48.58066" lon="1.96997">
        <ele>130.8</ele>
        <time>2026-03-29T10:21:13Z</time>
      </trkpt>
      <trkpt lat="48.58066" lon="1.96993">
        <ele>131</ele>
        <time>2026-03-29T10:21:14Z</time>
      </trkpt>
      <trkpt lat="48.58067" lon="1.96991">
        <ele>131</ele>
        <time>2026-03-29T10:21:15Z</time>
      </trkpt>
      <trkpt lat="48.58066" lon="1.96987">
        <ele>131</ele>
        <time>2026-03-29T10:21:16Z</time>
      </trkpt>
      <trkpt lat="48.58065" lon="1.96983">
        <ele>131</ele>
        <time>2026-03-29T10:21:17Z</time>
      </trkpt>
      <trkpt lat="48.58065" lon="1.9698">
        <ele>131.6</ele>
        <time>2026-03-29T10:21:18Z</time>
      </trkpt>
      <trkpt lat="48.58065" lon="1.96977">
        <ele>131.6</ele>
        <time>2026-03-29T10:21:19Z</time>
      </trkpt>
      <trkpt lat="48.58065" lon="1.96974">
        <ele>131.6</ele>
        <time>2026-03-29T10:21:20Z</time>
      </trkpt>
      <trkpt lat="48.58064" lon="1.96969">
        <ele>132.4</ele>
        <time>2026-03-29T10:21:21Z</time>
      </trkpt>
      <trkpt lat="48.58063" lon="1.96965">
        <ele>131.6</ele>
        <time>2026-03-29T10:21:22Z</time>
      </trkpt>
      <trkpt lat="48.58063" lon="1.96961">
        <ele>131.6</ele>
        <time>2026-03-29T10:21:23Z</time>
      </trkpt>
      <trkpt lat="48.58062" lon="1.96956">
        <ele>131.6</ele>
        <time>2026-03-29T10:21:24Z</time>
      </trkpt>
      <trkpt lat="48.58061" lon="1.96952">
        <ele>131.8</ele>
        <time>2026-03-29T10:21:25Z</time>
      </trkpt>
      <trkpt lat="48.58061" lon="1.96947">
        <ele>131.8</ele>
        <time>2026-03-29T10:21:26Z</time>
      </trkpt>
      <trkpt lat="48.5806" lon="1.96942">
        <ele>131.8</ele>
        <time>2026-03-29T10:21:27Z</time>
      </trkpt>
      <trkpt lat="48.5806" lon="1.96938">
        <ele>131.8</ele>
        <time>2026-03-29T10:21:28Z</time>
      </trkpt>
      <trkpt lat="48.5806" lon="1.96934">
        <ele>132.6</ele>
        <time>2026-03-29T10:21:29Z</time>
      </trkpt>
      <trkpt lat="48.58059" lon="1.9693">
        <ele>132.6</ele>
        <time>2026-03-29T10:21:30Z</time>
      </trkpt>
      <trkpt lat="48.58058" lon="1.96926">
        <ele>132.6</ele>
        <time>2026-03-29T10:21:31Z</time>
      </trkpt>
      <trkpt lat="48.58057" lon="1.96922">
        <ele>132.6</ele>
        <time>2026-03-29T10:21:32Z</time>
      </trkpt>
      <trkpt lat="48.58058" lon="1.96917">
        <ele>133</ele>
        <time>2026-03-29T10:21:33Z</time>
      </trkpt>
      <trkpt lat="48.58057" lon="1.96912">
        <ele>132.4</ele>
        <time>2026-03-29T10:21:34Z</time>
      </trkpt>
      <trkpt lat="48.58057" lon="1.96909">
        <ele>132.4</ele>
        <time>2026-03-29T10:21:35Z</time>
      </trkpt>
      <trkpt lat="48.58056" lon="1.96905">
        <ele>132.4</ele>
        <time>2026-03-29T10:21:36Z</time>
      </trkpt>
      <trkpt lat="48.58053" lon="1.969">
        <ele>132.4</ele>
        <time>2026-03-29T10:21:37Z</time>
      </trkpt>
      <trkpt lat="48.58051" lon="1.96895">
        <ele>132.6</ele>
        <time>2026-03-29T10:21:38Z</time>
      </trkpt>
      <trkpt lat="48.5805" lon="1.9689">
        <ele>132.6</ele>
        <time>2026-03-29T10:21:39Z</time>
      </trkpt>
      <trkpt lat="48.58049" lon="1.96886">
        <ele>132.6</ele>
        <time>2026-03-29T10:21:40Z</time>
      </trkpt>
      <trkpt lat="48.58049" lon="1.9688">
        <ele>132.6</ele>
        <time>2026-03-29T10:21:41Z</time>
      </trkpt>
      <trkpt lat="48.58048" lon="1.96875">
        <ele>132.2</ele>
        <time>2026-03-29T10:21:42Z</time>
      </trkpt>
      <trkpt lat="48.58048" lon="1.9687">
        <ele>132.2</ele>
        <time>2026-03-29T10:21:43Z</time>
      </trkpt>
      <trkpt lat="48.58048" lon="1.96864">
        <ele>132.2</ele>
        <time>2026-03-29T10:21:44Z</time>
      </trkpt>
      <trkpt lat="48.58048" lon="1.96859">
        <ele>132.2</ele>
        <time>2026-03-29T10:21:45Z</time>
      </trkpt>
      <trkpt lat="48.58047" lon="1.96853">
        <ele>132</ele>
        <time>2026-03-29T10:21:46Z</time>
      </trkpt>
      <trkpt lat="48.58046" lon="1.96847">
        <ele>132</ele>
        <time>2026-03-29T10:21:47Z</time>
      </trkpt>
      <trkpt lat="48.58045" lon="1.9684">
        <ele>132</ele>
        <time>2026-03-29T10:21:48Z</time>
      </trkpt>
      <trkpt lat="48.58044" lon="1.96834">
        <ele>131.6</ele>
        <time>2026-03-29T10:21:49Z</time>
      </trkpt>
      <trkpt lat="48.58043" lon="1.96828">
        <ele>132.2</ele>
        <time>2026-03-29T10:21:50Z</time>
      </trkpt>
      <trkpt lat="48.58042" lon="1.96823">
        <ele>132.2</ele>
        <time>2026-03-29T10:21:51Z</time>
      </trkpt>
      <trkpt lat="48.58041" lon="1.96818">
        <ele>132.2</ele>
        <time>2026-03-29T10:21:52Z</time>
      </trkpt>
      <trkpt lat="48.58041" lon="1.96813">
        <ele>131.6</ele>
        <time>2026-03-29T10:21:53Z</time>
      </trkpt>
      <trkpt lat="48.58041" lon="1.96808">
        <ele>131.8</ele>
        <time>2026-03-29T10:21:54Z</time>
      </trkpt>
      <trkpt lat="48.58041" lon="1.96802">
        <ele>131.8</ele>
        <time>2026-03-29T10:21:55Z</time>
      </trkpt>
      <trkpt lat="48.5804" lon="1.96797">
        <ele>131.8</ele>
        <time>2026-03-29T10:21:56Z</time>
      </trkpt>
      <trkpt lat="48.5804" lon="1.96792">
        <ele>131.8</ele>
        <time>2026-03-29T10:21:57Z</time>
      </trkpt>
      <trkpt lat="48.58039" lon="1.96789">
        <ele>132.4</ele>
        <time>2026-03-29T10:21:58Z</time>
      </trkpt>
      <trkpt lat="48.58037" lon="1.96785">
        <ele>132.4</ele>
        <time>2026-03-29T10:21:59Z</time>
      </trkpt>
      <trkpt lat="48.58036" lon="1.96782">
        <ele>132.4</ele>
        <time>2026-03-29T10:22:00Z</time>
      </trkpt>
      <trkpt lat="48.58035" lon="1.96779">
        <ele>133</ele>
        <time>2026-03-29T10:22:01Z</time>
      </trkpt>
      <trkpt lat="48.58034" lon="1.96776">
        <ele>133.2</ele>
        <time>2026-03-29T10:22:02Z</time>
      </trkpt>
      <trkpt lat="48.58034" lon="1.96773">
        <ele>133.2</ele>
        <time>2026-03-29T10:22:03Z</time>
      </trkpt>
      <trkpt lat="48.58034" lon="1.96769">
        <ele>133.2</ele>
        <time>2026-03-29T10:22:04Z</time>
      </trkpt>
      <trkpt lat="48.58034" lon="1.96766">
        <ele>133.2</ele>
        <time>2026-03-29T10:22:05Z</time>
      </trkpt>
      <trkpt lat="48.58034" lon="1.96763">
        <ele>134.2</ele>
        <time>2026-03-29T10:22:06Z</time>
      </trkpt>
      <trkpt lat="48.58033" lon="1.96759">
        <ele>134.2</ele>
        <time>2026-03-29T10:22:07Z</time>
      </trkpt>
      <trkpt lat="48.58032" lon="1.96756">
        <ele>134.2</ele>
        <time>2026-03-29T10:22:08Z</time>
      </trkpt>
      <trkpt lat="48.58031" lon="1.96753">
        <ele>135.2</ele>
        <time>2026-03-29T10:22:09Z</time>
      </trkpt>
      <trkpt lat="48.5803" lon="1.96749">
        <ele>136</ele>
        <time>2026-03-29T10:22:10Z</time>
      </trkpt>
      <trkpt lat="48.58029" lon="1.96747">
        <ele>136</ele>
        <time>2026-03-29T10:22:11Z</time>
      </trkpt>
      <trkpt lat="48.58029" lon="1.96744">
        <ele>136</ele>
        <time>2026-03-29T10:22:12Z</time>
      </trkpt>
      <trkpt lat="48.58027" lon="1.9674">
        <ele>136</ele>
        <time>2026-03-29T10:22:13Z</time>
      </trkpt>
      <trkpt lat="48.58027" lon="1.96737">
        <ele>137</ele>
        <time>2026-03-29T10:22:14Z</time>
      </trkpt>
      <trkpt lat="48.58027" lon="1.96735">
        <ele>137</ele>
        <time>2026-03-29T10:22:15Z</time>
      </trkpt>
      <trkpt lat="48.58026" lon="1.96732">
        <ele>137</ele>
        <time>2026-03-29T10:22:16Z</time>
      </trkpt>
      <trkpt lat="48.58025" lon="1.96728">
        <ele>137</ele>
        <time>2026-03-29T10:22:17Z</time>
      </trkpt>
      <trkpt lat="48.58024" lon="1.96726">
        <ele>137.4</ele>
        <time>2026-03-29T10:22:18Z</time>
      </trkpt>
      <trkpt lat="48.58024" lon="1.96723">
        <ele>137.4</ele>
        <time>2026-03-29T10:22:19Z</time>
      </trkpt>
      <trkpt lat="48.58024" lon="1.9672">
        <ele>137.4</ele>
        <time>2026-03-29T10:22:20Z</time>
      </trkpt>
      <trkpt lat="48.58024" lon="1.96718">
        <ele>137.4</ele>
        <time>2026-03-29T10:22:21Z</time>
      </trkpt>
      <trkpt lat="48.58022" lon="1.96714">
        <ele>137.6</ele>
        <time>2026-03-29T10:22:22Z</time>
      </trkpt>
      <trkpt lat="48.58021" lon="1.9671">
        <ele>137.6</ele>
        <time>2026-03-29T10:22:23Z</time>
      </trkpt>
      <trkpt lat="48.58018" lon="1.96705">
        <ele>137.6</ele>
        <time>2026-03-29T10:22:24Z</time>
      </trkpt>
      <trkpt lat="48.58017" lon="1.96701">
        <ele>136.6</ele>
        <time>2026-03-29T10:22:25Z</time>
      </trkpt>
      <trkpt lat="48.58016" lon="1.96696">
        <ele>136.6</ele>
        <time>2026-03-29T10:22:26Z</time>
      </trkpt>
      <trkpt lat="48.58017" lon="1.96691">
        <ele>136.6</ele>
        <time>2026-03-29T10:22:27Z</time>
      </trkpt>
      <trkpt lat="48.58017" lon="1.96686">
        <ele>136.6</ele>
        <time>2026-03-29T10:22:28Z</time>
      </trkpt>
      <trkpt lat="48.58017" lon="1.96681">
        <ele>136.6</ele>
        <time>2026-03-29T10:22:29Z</time>
      </trkpt>
      <trkpt lat="48.58016" lon="1.96676">
        <ele>137</ele>
        <time>2026-03-29T10:22:30Z</time>
      </trkpt>
      <trkpt lat="48.58016" lon="1.96671">
        <ele>137</ele>
        <time>2026-03-29T10:22:31Z</time>
      </trkpt>
      <trkpt lat="48.58015" lon="1.96667">
        <ele>137</ele>
        <time>2026-03-29T10:22:32Z</time>
      </trkpt>
      <trkpt lat="48.58015" lon="1.96662">
        <ele>137</ele>
        <time>2026-03-29T10:22:33Z</time>
      </trkpt>
      <trkpt lat="48.58014" lon="1.96658">
        <ele>137</ele>
        <time>2026-03-29T10:22:34Z</time>
      </trkpt>
      <trkpt lat="48.58014" lon="1.96654">
        <ele>137</ele>
        <time>2026-03-29T10:22:35Z</time>
      </trkpt>
      <trkpt lat="48.58013" lon="1.9665">
        <ele>137</ele>
        <time>2026-03-29T10:22:36Z</time>
      </trkpt>
      <trkpt lat="48.58012" lon="1.96646">
        <ele>137</ele>
        <time>2026-03-29T10:22:37Z</time>
      </trkpt>
      <trkpt lat="48.58011" lon="1.96642">
        <ele>137.4</ele>
        <time>2026-03-29T10:22:38Z</time>
      </trkpt>
      <trkpt lat="48.58011" lon="1.96638">
        <ele>137.4</ele>
        <time>2026-03-29T10:22:39Z</time>
      </trkpt>
      <trkpt lat="48.5801" lon="1.96634">
        <ele>137.4</ele>
        <time>2026-03-29T10:22:40Z</time>
      </trkpt>
      <trkpt lat="48.58009" lon="1.96629">
        <ele>137.4</ele>
        <time>2026-03-29T10:22:41Z</time>
      </trkpt>
      <trkpt lat="48.58008" lon="1.96626">
        <ele>137.4</ele>
        <time>2026-03-29T10:22:42Z</time>
      </trkpt>
      <trkpt lat="48.58007" lon="1.96622">
        <ele>137.4</ele>
        <time>2026-03-29T10:22:43Z</time>
      </trkpt>
      <trkpt lat="48.58007" lon="1.96618">
        <ele>137.4</ele>
        <time>2026-03-29T10:22:44Z</time>
      </trkpt>
      <trkpt lat="48.58007" lon="1.96614">
        <ele>137.4</ele>
        <time>2026-03-29T10:22:45Z</time>
      </trkpt>
      <trkpt lat="48.58007" lon="1.9661">
        <ele>137</ele>
        <time>2026-03-29T10:22:46Z</time>
      </trkpt>
      <trkpt lat="48.58005" lon="1.96605">
        <ele>137</ele>
        <time>2026-03-29T10:22:47Z</time>
      </trkpt>
      <trkpt lat="48.58004" lon="1.96601">
        <ele>137</ele>
        <time>2026-03-29T10:22:48Z</time>
      </trkpt>
      <trkpt lat="48.58003" lon="1.96596">
        <ele>137</ele>
        <time>2026-03-29T10:22:49Z</time>
      </trkpt>
      <trkpt lat="48.58002" lon="1.96591">
        <ele>137.4</ele>
        <time>2026-03-29T10:22:50Z</time>
      </trkpt>
      <trkpt lat="48.58002" lon="1.96587">
        <ele>137.4</ele>
        <time>2026-03-29T10:22:51Z</time>
      </trkpt>
      <trkpt lat="48.58001" lon="1.96582">
        <ele>137.4</ele>
        <time>2026-03-29T10:22:52Z</time>
      </trkpt>
      <trkpt lat="48.58001" lon="1.96576">
        <ele>137.2</ele>
        <time>2026-03-29T10:22:53Z</time>
      </trkpt>
      <trkpt lat="48.58001" lon="1.9657">
        <ele>137</ele>
        <time>2026-03-29T10:22:54Z</time>
      </trkpt>
      <trkpt lat="48.58" lon="1.96565">
        <ele>137</ele>
        <time>2026-03-29T10:22:55Z</time>
      </trkpt>
      <trkpt lat="48.58" lon="1.96559">
        <ele>137</ele>
        <time>2026-03-29T10:22:56Z</time>
      </trkpt>
      <trkpt lat="48.58" lon="1.96554">
        <ele>137</ele>
        <time>2026-03-29T10:22:57Z</time>
      </trkpt>
      <trkpt lat="48.57999" lon="1.96548">
        <ele>136.6</ele>
        <time>2026-03-29T10:22:58Z</time>
      </trkpt>
      <trkpt lat="48.57999" lon="1.96542">
        <ele>136.6</ele>
        <time>2026-03-29T10:22:59Z</time>
      </trkpt>
      <trkpt lat="48.57998" lon="1.96537">
        <ele>136.6</ele>
        <time>2026-03-29T10:23:00Z</time>
      </trkpt>
      <trkpt lat="48.57996" lon="1.96532">
        <ele>136.6</ele>
        <time>2026-03-29T10:23:01Z</time>
      </trkpt>
      <trkpt lat="48.57995" lon="1.96527">
        <ele>136.4</ele>
        <time>2026-03-29T10:23:02Z</time>
      </trkpt>
      <trkpt lat="48.57996" lon="1.96523">
        <ele>136.4</ele>
        <time>2026-03-29T10:23:03Z</time>
      </trkpt>
      <trkpt lat="48.57995" lon="1.96518">
        <ele>136.4</ele>
        <time>2026-03-29T10:23:04Z</time>
      </trkpt>
      <trkpt lat="48.57993" lon="1.96513">
        <ele>136.4</ele>
        <time>2026-03-29T10:23:05Z</time>
      </trkpt>
      <trkpt lat="48.57991" lon="1.9651">
        <ele>136</ele>
        <time>2026-03-29T10:23:06Z</time>
      </trkpt>
      <trkpt lat="48.5799" lon="1.96506">
        <ele>136</ele>
        <time>2026-03-29T10:23:07Z</time>
      </trkpt>
      <trkpt lat="48.57988" lon="1.96501">
        <ele>136</ele>
        <time>2026-03-29T10:23:08Z</time>
      </trkpt>
      <trkpt lat="48.57987" lon="1.96496">
        <ele>136</ele>
        <time>2026-03-29T10:23:09Z</time>
      </trkpt>
      <trkpt lat="48.57987" lon="1.9649">
        <ele>136</ele>
        <time>2026-03-29T10:23:10Z</time>
      </trkpt>
      <trkpt lat="48.57986" lon="1.96484">
        <ele>136</ele>
        <time>2026-03-29T10:23:11Z</time>
      </trkpt>
      <trkpt lat="48.57986" lon="1.96478">
        <ele>136</ele>
        <time>2026-03-29T10:23:12Z</time>
      </trkpt>
      <trkpt lat="48.57986" lon="1.96472">
        <ele>136</ele>
        <time>2026-03-29T10:23:13Z</time>
      </trkpt>
      <trkpt lat="48.57984" lon="1.96466">
        <ele>135.6</ele>
        <time>2026-03-29T10:23:14Z</time>
      </trkpt>
      <trkpt lat="48.57982" lon="1.96461">
        <ele>135.6</ele>
        <time>2026-03-29T10:23:15Z</time>
      </trkpt>
      <trkpt lat="48.57982" lon="1.96455">
        <ele>135.6</ele>
        <time>2026-03-29T10:23:16Z</time>
      </trkpt>
      <trkpt lat="48.57981" lon="1.96448">
        <ele>135.4</ele>
        <time>2026-03-29T10:23:17Z</time>
      </trkpt>
      <trkpt lat="48.57981" lon="1.96441">
        <ele>134.8</ele>
        <time>2026-03-29T10:23:18Z</time>
      </trkpt>
      <trkpt lat="48.57981" lon="1.96435">
        <ele>134.8</ele>
        <time>2026-03-29T10:23:19Z</time>
      </trkpt>
      <trkpt lat="48.5798" lon="1.96428">
        <ele>134.8</ele>
        <time>2026-03-29T10:23:20Z</time>
      </trkpt>
      <trkpt lat="48.5798" lon="1.96422">
        <ele>134.2</ele>
        <time>2026-03-29T10:23:21Z</time>
      </trkpt>
      <trkpt lat="48.5798" lon="1.96415">
        <ele>134.2</ele>
        <time>2026-03-29T10:23:22Z</time>
      </trkpt>
      <trkpt lat="48.5798" lon="1.96408">
        <ele>134.2</ele>
        <time>2026-03-29T10:23:23Z</time>
      </trkpt>
      <trkpt lat="48.57979" lon="1.96401">
        <ele>134.2</ele>
        <time>2026-03-29T10:23:24Z</time>
      </trkpt>
      <trkpt lat="48.57979" lon="1.96395">
        <ele>133.2</ele>
        <time>2026-03-29T10:23:25Z</time>
      </trkpt>
      <trkpt lat="48.57979" lon="1.96388">
        <ele>132.8</ele>
        <time>2026-03-29T10:23:26Z</time>
      </trkpt>
      <trkpt lat="48.57978" lon="1.96381">
        <ele>132.8</ele>
        <time>2026-03-29T10:23:27Z</time>
      </trkpt>
      <trkpt lat="48.57977" lon="1.96374">
        <ele>132.8</ele>
        <time>2026-03-29T10:23:28Z</time>
      </trkpt>
      <trkpt lat="48.57976" lon="1.96368">
        <ele>132.8</ele>
        <time>2026-03-29T10:23:29Z</time>
      </trkpt>
      <trkpt lat="48.57976" lon="1.96361">
        <ele>132.4</ele>
        <time>2026-03-29T10:23:30Z</time>
      </trkpt>
      <trkpt lat="48.57976" lon="1.96353">
        <ele>132.4</ele>
        <time>2026-03-29T10:23:31Z</time>
      </trkpt>
      <trkpt lat="48.57976" lon="1.96347">
        <ele>132.4</ele>
        <time>2026-03-29T10:23:32Z</time>
      </trkpt>
      <trkpt lat="48.57976" lon="1.96341">
        <ele>131.8</ele>
        <time>2026-03-29T10:23:33Z</time>
      </trkpt>
      <trkpt lat="48.57975" lon="1.96335">
        <ele>131.8</ele>
        <time>2026-03-29T10:23:34Z</time>
      </trkpt>
      <trkpt lat="48.57974" lon="1.96329">
        <ele>131.8</ele>
        <time>2026-03-29T10:23:35Z</time>
      </trkpt>
      <trkpt lat="48.57973" lon="1.96323">
        <ele>131.8</ele>
        <time>2026-03-29T10:23:36Z</time>
      </trkpt>
      <trkpt lat="48.57972" lon="1.96317">
        <ele>131.8</ele>
        <time>2026-03-29T10:23:37Z</time>
      </trkpt>
      <trkpt lat="48.57971" lon="1.96311">
        <ele>131.8</ele>
        <time>2026-03-29T10:23:38Z</time>
      </trkpt>
      <trkpt lat="48.57969" lon="1.96307">
        <ele>131.8</ele>
        <time>2026-03-29T10:23:39Z</time>
      </trkpt>
      <trkpt lat="48.57969" lon="1.96302">
        <ele>131.8</ele>
        <time>2026-03-29T10:23:40Z</time>
      </trkpt>
      <trkpt lat="48.57968" lon="1.96296">
        <ele>131.8</ele>
        <time>2026-03-29T10:23:41Z</time>
      </trkpt>
      <trkpt lat="48.57969" lon="1.96291">
        <ele>131.4</ele>
        <time>2026-03-29T10:23:42Z</time>
      </trkpt>
      <trkpt lat="48.57969" lon="1.96285">
        <ele>131.4</ele>
        <time>2026-03-29T10:23:43Z</time>
      </trkpt>
      <trkpt lat="48.57968" lon="1.9628">
        <ele>131.4</ele>
        <time>2026-03-29T10:23:44Z</time>
      </trkpt>
      <trkpt lat="48.57966" lon="1.96275">
        <ele>131.4</ele>
        <time>2026-03-29T10:23:45Z</time>
      </trkpt>
      <trkpt lat="48.57965" lon="1.96272">
        <ele>131.2</ele>
        <time>2026-03-29T10:23:46Z</time>
      </trkpt>
      <trkpt lat="48.57966" lon="1.96267">
        <ele>131.2</ele>
        <time>2026-03-29T10:23:47Z</time>
      </trkpt>
      <trkpt lat="48.57966" lon="1.96264">
        <ele>131.2</ele>
        <time>2026-03-29T10:23:48Z</time>
      </trkpt>
      <trkpt lat="48.57966" lon="1.96259">
        <ele>131</ele>
        <time>2026-03-29T10:23:49Z</time>
      </trkpt>
      <trkpt lat="48.57966" lon="1.96254">
        <ele>131</ele>
        <time>2026-03-29T10:23:50Z</time>
      </trkpt>
      <trkpt lat="48.57966" lon="1.96248">
        <ele>131</ele>
        <time>2026-03-29T10:23:51Z</time>
      </trkpt>
      <trkpt lat="48.57965" lon="1.96244">
        <ele>131</ele>
        <time>2026-03-29T10:23:52Z</time>
      </trkpt>
      <trkpt lat="48.57964" lon="1.96239">
        <ele>131</ele>
        <time>2026-03-29T10:23:53Z</time>
      </trkpt>
      <trkpt lat="48.57963" lon="1.96236">
        <ele>130.6</ele>
        <time>2026-03-29T10:23:54Z</time>
      </trkpt>
      <trkpt lat="48.57962" lon="1.96232">
        <ele>130.6</ele>
        <time>2026-03-29T10:23:55Z</time>
      </trkpt>
      <trkpt lat="48.5796" lon="1.96228">
        <ele>130.6</ele>
        <time>2026-03-29T10:23:56Z</time>
      </trkpt>
      <trkpt lat="48.57959" lon="1.96225">
        <ele>130.6</ele>
        <time>2026-03-29T10:23:57Z</time>
      </trkpt>
      <trkpt lat="48.57959" lon="1.9622">
        <ele>130.4</ele>
        <time>2026-03-29T10:23:58Z</time>
      </trkpt>
      <trkpt lat="48.5796" lon="1.96217">
        <ele>130.4</ele>
        <time>2026-03-29T10:23:59Z</time>
      </trkpt>
      <trkpt lat="48.57961" lon="1.96211">
        <ele>130.4</ele>
        <time>2026-03-29T10:24:00Z</time>
      </trkpt>
      <trkpt lat="48.57959" lon="1.96206">
        <ele>130.4</ele>
        <time>2026-03-29T10:24:01Z</time>
      </trkpt>
      <trkpt lat="48.57959" lon="1.96201">
        <ele>130.6</ele>
        <time>2026-03-29T10:24:02Z</time>
      </trkpt>
      <trkpt lat="48.57959" lon="1.96197">
        <ele>130.6</ele>
        <time>2026-03-29T10:24:03Z</time>
      </trkpt>
      <trkpt lat="48.57959" lon="1.96191">
        <ele>130.6</ele>
        <time>2026-03-29T10:24:04Z</time>
      </trkpt>
      <trkpt lat="48.57958" lon="1.96187">
        <ele>130.6</ele>
        <time>2026-03-29T10:24:05Z</time>
      </trkpt>
      <trkpt lat="48.57957" lon="1.96182">
        <ele>130.4</ele>
        <time>2026-03-29T10:24:06Z</time>
      </trkpt>
      <trkpt lat="48.57957" lon="1.96178">
        <ele>130.4</ele>
        <time>2026-03-29T10:24:07Z</time>
      </trkpt>
      <trkpt lat="48.57957" lon="1.96174">
        <ele>130.4</ele>
        <time>2026-03-29T10:24:08Z</time>
      </trkpt>
      <trkpt lat="48.57956" lon="1.96169">
        <ele>130.6</ele>
        <time>2026-03-29T10:24:09Z</time>
      </trkpt>
      <trkpt lat="48.57956" lon="1.96164">
        <ele>130.6</ele>
        <time>2026-03-29T10:24:10Z</time>
      </trkpt>
      <trkpt lat="48.57955" lon="1.9616">
        <ele>130.6</ele>
        <time>2026-03-29T10:24:11Z</time>
      </trkpt>
      <trkpt lat="48.57954" lon="1.96155">
        <ele>130.6</ele>
        <time>2026-03-29T10:24:12Z</time>
      </trkpt>
      <trkpt lat="48.57954" lon="1.9615">
        <ele>130.6</ele>
        <time>2026-03-29T10:24:13Z</time>
      </trkpt>
      <trkpt lat="48.57954" lon="1.96147">
        <ele>131</ele>
        <time>2026-03-29T10:24:14Z</time>
      </trkpt>
      <trkpt lat="48.57953" lon="1.96143">
        <ele>131</ele>
        <time>2026-03-29T10:24:15Z</time>
      </trkpt>
      <trkpt lat="48.57953" lon="1.96138">
        <ele>131</ele>
        <time>2026-03-29T10:24:16Z</time>
      </trkpt>
      <trkpt lat="48.57952" lon="1.96132">
        <ele>130.2</ele>
        <time>2026-03-29T10:24:17Z</time>
      </trkpt>
      <trkpt lat="48.57952" lon="1.96127">
        <ele>130</ele>
        <time>2026-03-29T10:24:18Z</time>
      </trkpt>
      <trkpt lat="48.57954" lon="1.96124">
        <ele>130</ele>
        <time>2026-03-29T10:24:19Z</time>
      </trkpt>
      <trkpt lat="48.57955" lon="1.9612">
        <ele>130</ele>
        <time>2026-03-29T10:24:20Z</time>
      </trkpt>
      <trkpt lat="48.57957" lon="1.96117">
        <ele>129</ele>
        <time>2026-03-29T10:24:21Z</time>
      </trkpt>
      <trkpt lat="48.57957" lon="1.96113">
        <ele>128.6</ele>
        <time>2026-03-29T10:24:22Z</time>
      </trkpt>
      <trkpt lat="48.57956" lon="1.96108">
        <ele>128.6</ele>
        <time>2026-03-29T10:24:23Z</time>
      </trkpt>
      <trkpt lat="48.57955" lon="1.96105">
        <ele>128.6</ele>
        <time>2026-03-29T10:24:24Z</time>
      </trkpt>
      <trkpt lat="48.57954" lon="1.96101">
        <ele>129</ele>
        <time>2026-03-29T10:24:25Z</time>
      </trkpt>
      <trkpt lat="48.57954" lon="1.96096">
        <ele>129.2</ele>
        <time>2026-03-29T10:24:26Z</time>
      </trkpt>
      <trkpt lat="48.57953" lon="1.9609">
        <ele>129.2</ele>
        <time>2026-03-29T10:24:27Z</time>
      </trkpt>
      <trkpt lat="48.57952" lon="1.96085">
        <ele>129.2</ele>
        <time>2026-03-29T10:24:28Z</time>
      </trkpt>
      <trkpt lat="48.57952" lon="1.96081">
        <ele>129.2</ele>
        <time>2026-03-29T10:24:29Z</time>
      </trkpt>
      <trkpt lat="48.57951" lon="1.96076">
        <ele>129</ele>
        <time>2026-03-29T10:24:30Z</time>
      </trkpt>
      <trkpt lat="48.5795" lon="1.96069">
        <ele>129</ele>
        <time>2026-03-29T10:24:31Z</time>
      </trkpt>
      <trkpt lat="48.5795" lon="1.96065">
        <ele>129</ele>
        <time>2026-03-29T10:24:32Z</time>
      </trkpt>
      <trkpt lat="48.57948" lon="1.96059">
        <ele>129</ele>
        <time>2026-03-29T10:24:33Z</time>
      </trkpt>
      <trkpt lat="48.57947" lon="1.96054">
        <ele>128.6</ele>
        <time>2026-03-29T10:24:34Z</time>
      </trkpt>
      <trkpt lat="48.57947" lon="1.96049">
        <ele>128.6</ele>
        <time>2026-03-29T10:24:35Z</time>
      </trkpt>
      <trkpt lat="48.57947" lon="1.96045">
        <ele>128.6</ele>
        <time>2026-03-29T10:24:36Z</time>
      </trkpt>
      <trkpt lat="48.57948" lon="1.96041">
        <ele>129</ele>
        <time>2026-03-29T10:24:37Z</time>
      </trkpt>
      <trkpt lat="48.57948" lon="1.96037">
        <ele>129.8</ele>
        <time>2026-03-29T10:24:38Z</time>
      </trkpt>
      <trkpt lat="48.5795" lon="1.96034">
        <ele>129.8</ele>
        <time>2026-03-29T10:24:39Z</time>
      </trkpt>
      <trkpt lat="48.57951" lon="1.96031">
        <ele>129.8</ele>
        <time>2026-03-29T10:24:40Z</time>
      </trkpt>
      <trkpt lat="48.57953" lon="1.96028">
        <ele>130.4</ele>
        <time>2026-03-29T10:24:41Z</time>
      </trkpt>
      <trkpt lat="48.57952" lon="1.96025">
        <ele>130.4</ele>
        <time>2026-03-29T10:24:42Z</time>
      </trkpt>
      <trkpt lat="48.57952" lon="1.9602">
        <ele>130.4</ele>
        <time>2026-03-29T10:24:43Z</time>
      </trkpt>
      <trkpt lat="48.57952" lon="1.96017">
        <ele>130.4</ele>
        <time>2026-03-29T10:24:44Z</time>
      </trkpt>
      <trkpt lat="48.57951" lon="1.96014">
        <ele>130.8</ele>
        <time>2026-03-29T10:24:45Z</time>
      </trkpt>
      <trkpt lat="48.57951" lon="1.96009">
        <ele>130.4</ele>
        <time>2026-03-29T10:24:46Z</time>
      </trkpt>
      <trkpt lat="48.57951" lon="1.96005">
        <ele>130.4</ele>
        <time>2026-03-29T10:24:47Z</time>
      </trkpt>
      <trkpt lat="48.57951" lon="1.96">
        <ele>130.4</ele>
        <time>2026-03-29T10:24:48Z</time>
      </trkpt>
      <trkpt lat="48.57952" lon="1.95997">
        <ele>130.8</ele>
        <time>2026-03-29T10:24:49Z</time>
      </trkpt>
      <trkpt lat="48.57952" lon="1.95994">
        <ele>131</ele>
        <time>2026-03-29T10:24:50Z</time>
      </trkpt>
      <trkpt lat="48.57953" lon="1.9599">
        <ele>131</ele>
        <time>2026-03-29T10:24:51Z</time>
      </trkpt>
      <trkpt lat="48.57953" lon="1.95986">
        <ele>131</ele>
        <time>2026-03-29T10:24:52Z</time>
      </trkpt>
      <trkpt lat="48.57952" lon="1.95982">
        <ele>131.4</ele>
        <time>2026-03-29T10:24:53Z</time>
      </trkpt>
      <trkpt lat="48.57951" lon="1.95978">
        <ele>131.4</ele>
        <time>2026-03-29T10:24:54Z</time>
      </trkpt>
      <trkpt lat="48.5795" lon="1.95974">
        <ele>131.4</ele>
        <time>2026-03-29T10:24:55Z</time>
      </trkpt>
      <trkpt lat="48.57948" lon="1.95969">
        <ele>131.4</ele>
        <time>2026-03-29T10:24:56Z</time>
      </trkpt>
      <trkpt lat="48.57947" lon="1.95964">
        <ele>131.4</ele>
        <time>2026-03-29T10:24:57Z</time>
      </trkpt>
      <trkpt lat="48.57946" lon="1.95959">
        <ele>131.6</ele>
        <time>2026-03-29T10:24:58Z</time>
      </trkpt>
      <trkpt lat="48.57945" lon="1.95954">
        <ele>131.6</ele>
        <time>2026-03-29T10:24:59Z</time>
      </trkpt>
      <trkpt lat="48.57945" lon="1.9595">
        <ele>131.6</ele>
        <time>2026-03-29T10:25:00Z</time>
      </trkpt>
      <trkpt lat="48.57944" lon="1.95945">
        <ele>131.6</ele>
        <time>2026-03-29T10:25:01Z</time>
      </trkpt>
      <trkpt lat="48.57944" lon="1.9594">
        <ele>132.2</ele>
        <time>2026-03-29T10:25:02Z</time>
      </trkpt>
      <trkpt lat="48.57944" lon="1.95936">
        <ele>132.2</ele>
        <time>2026-03-29T10:25:03Z</time>
      </trkpt>
      <trkpt lat="48.57944" lon="1.95932">
        <ele>132.2</ele>
        <time>2026-03-29T10:25:04Z</time>
      </trkpt>
      <trkpt lat="48.57943" lon="1.95927">
        <ele>132.2</ele>
        <time>2026-03-29T10:25:05Z</time>
      </trkpt>
      <trkpt lat="48.57942" lon="1.95923">
        <ele>132.6</ele>
        <time>2026-03-29T10:25:06Z</time>
      </trkpt>
      <trkpt lat="48.57941" lon="1.95919">
        <ele>132.6</ele>
        <time>2026-03-29T10:25:07Z</time>
      </trkpt>
      <trkpt lat="48.57941" lon="1.95916">
        <ele>132.6</ele>
        <time>2026-03-29T10:25:08Z</time>
      </trkpt>
      <trkpt lat="48.57941" lon="1.95912">
        <ele>132.6</ele>
        <time>2026-03-29T10:25:09Z</time>
      </trkpt>
      <trkpt lat="48.57941" lon="1.95909">
        <ele>132.8</ele>
        <time>2026-03-29T10:25:10Z</time>
      </trkpt>
      <trkpt lat="48.57941" lon="1.95906">
        <ele>132.8</ele>
        <time>2026-03-29T10:25:11Z</time>
      </trkpt>
      <trkpt lat="48.57941" lon="1.95904">
        <ele>132.8</ele>
        <time>2026-03-29T10:25:12Z</time>
      </trkpt>
      <trkpt lat="48.5794" lon="1.95901">
        <ele>132.8</ele>
        <time>2026-03-29T10:25:13Z</time>
      </trkpt>
      <trkpt lat="48.5794" lon="1.95898">
        <ele>133.6</ele>
        <time>2026-03-29T10:25:14Z</time>
      </trkpt>
      <trkpt lat="48.5794" lon="1.95895">
        <ele>133.6</ele>
        <time>2026-03-29T10:25:15Z</time>
      </trkpt>
      <trkpt lat="48.57939" lon="1.95892">
        <ele>133.6</ele>
        <time>2026-03-29T10:25:16Z</time>
      </trkpt>
      <trkpt lat="48.57938" lon="1.95891">
        <ele>133.8</ele>
        <time>2026-03-29T10:25:17Z</time>
      </trkpt>
      <trkpt lat="48.57938" lon="1.95888">
        <ele>134.6</ele>
        <time>2026-03-29T10:25:18Z</time>
      </trkpt>
      <trkpt lat="48.57938" lon="1.95886">
        <ele>134.6</ele>
        <time>2026-03-29T10:25:19Z</time>
      </trkpt>
      <trkpt lat="48.57938" lon="1.95883">
        <ele>134.6</ele>
        <time>2026-03-29T10:25:20Z</time>
      </trkpt>
      <trkpt lat="48.57938" lon="1.9588">
        <ele>134.6</ele>
        <time>2026-03-29T10:25:21Z</time>
      </trkpt>
      <trkpt lat="48.57937" lon="1.95878">
        <ele>135.2</ele>
        <time>2026-03-29T10:25:22Z</time>
      </trkpt>
      <trkpt lat="48.57937" lon="1.95875">
        <ele>135.2</ele>
        <time>2026-03-29T10:25:23Z</time>
      </trkpt>
      <trkpt lat="48.57938" lon="1.95872">
        <ele>135.2</ele>
        <time>2026-03-29T10:25:24Z</time>
      </trkpt>
      <trkpt lat="48.57938" lon="1.95869">
        <ele>135.2</ele>
        <time>2026-03-29T10:25:25Z</time>
      </trkpt>
      <trkpt lat="48.57938" lon="1.95865">
        <ele>136.2</ele>
        <time>2026-03-29T10:25:26Z</time>
      </trkpt>
      <trkpt lat="48.57938" lon="1.95862">
        <ele>136.2</ele>
        <time>2026-03-29T10:25:27Z</time>
      </trkpt>
      <trkpt lat="48.57937" lon="1.95859">
        <ele>136.2</ele>
        <time>2026-03-29T10:25:28Z</time>
      </trkpt>
      <trkpt lat="48.57937" lon="1.95856">
        <ele>136.2</ele>
        <time>2026-03-29T10:25:29Z</time>
      </trkpt>
      <trkpt lat="48.57937" lon="1.95853">
        <ele>136.8</ele>
        <time>2026-03-29T10:25:30Z</time>
      </trkpt>
      <trkpt lat="48.57936" lon="1.9585">
        <ele>136.8</ele>
        <time>2026-03-29T10:25:31Z</time>
      </trkpt>
      <trkpt lat="48.57935" lon="1.95847">
        <ele>136.8</ele>
        <time>2026-03-29T10:25:32Z</time>
      </trkpt>
      <trkpt lat="48.57935" lon="1.95844">
        <ele>136.8</ele>
        <time>2026-03-29T10:25:33Z</time>
      </trkpt>
      <trkpt lat="48.57934" lon="1.95841">
        <ele>137.2</ele>
        <time>2026-03-29T10:25:34Z</time>
      </trkpt>
      <trkpt lat="48.57934" lon="1.95838">
        <ele>137.2</ele>
        <time>2026-03-29T10:25:35Z</time>
      </trkpt>
      <trkpt lat="48.57933" lon="1.95835">
        <ele>137.2</ele>
        <time>2026-03-29T10:25:36Z</time>
      </trkpt>
      <trkpt lat="48.57933" lon="1.95832">
        <ele>137.4</ele>
        <time>2026-03-29T10:25:37Z</time>
      </trkpt>
      <trkpt lat="48.57933" lon="1.95828">
        <ele>138</ele>
        <time>2026-03-29T10:25:38Z</time>
      </trkpt>
      <trkpt lat="48.57934" lon="1.95825">
        <ele>138</ele>
        <time>2026-03-29T10:25:39Z</time>
      </trkpt>
      <trkpt lat="48.57933" lon="1.95822">
        <ele>138</ele>
        <time>2026-03-29T10:25:40Z</time>
      </trkpt>
      <trkpt lat="48.57933" lon="1.95819">
        <ele>138</ele>
        <time>2026-03-29T10:25:41Z</time>
      </trkpt>
      <trkpt lat="48.57933" lon="1.95815">
        <ele>138.4</ele>
        <time>2026-03-29T10:25:42Z</time>
      </trkpt>
      <trkpt lat="48.57933" lon="1.95812">
        <ele>138.4</ele>
        <time>2026-03-29T10:25:43Z</time>
      </trkpt>
      <trkpt lat="48.57934" lon="1.95809">
        <ele>138.4</ele>
        <time>2026-03-29T10:25:44Z</time>
      </trkpt>
      <trkpt lat="48.57934" lon="1.95805">
        <ele>138.4</ele>
        <time>2026-03-29T10:25:45Z</time>
      </trkpt>
      <trkpt lat="48.57934" lon="1.95801">
        <ele>138.2</ele>
        <time>2026-03-29T10:25:46Z</time>
      </trkpt>
      <trkpt lat="48.57933" lon="1.95797">
        <ele>138.2</ele>
        <time>2026-03-29T10:25:47Z</time>
      </trkpt>
      <trkpt lat="48.57933" lon="1.95794">
        <ele>138.2</ele>
        <time>2026-03-29T10:25:48Z</time>
      </trkpt>
      <trkpt lat="48.57933" lon="1.9579">
        <ele>139.2</ele>
        <time>2026-03-29T10:25:49Z</time>
      </trkpt>
      <trkpt lat="48.57933" lon="1.95786">
        <ele>139</ele>
        <time>2026-03-29T10:25:50Z</time>
      </trkpt>
      <trkpt lat="48.57933" lon="1.95783">
        <ele>139</ele>
        <time>2026-03-29T10:25:51Z</time>
      </trkpt>
      <trkpt lat="48.57933" lon="1.9578">
        <ele>139</ele>
        <time>2026-03-29T10:25:52Z</time>
      </trkpt>
      <trkpt lat="48.57932" lon="1.95776">
        <ele>139.4</ele>
        <time>2026-03-29T10:25:53Z</time>
      </trkpt>
      <trkpt lat="48.57931" lon="1.95772">
        <ele>139.4</ele>
        <time>2026-03-29T10:25:54Z</time>
      </trkpt>
      <trkpt lat="48.5793" lon="1.95769">
        <ele>139.4</ele>
        <time>2026-03-29T10:25:55Z</time>
      </trkpt>
      <trkpt lat="48.57929" lon="1.95765">
        <ele>139.4</ele>
        <time>2026-03-29T10:25:56Z</time>
      </trkpt>
      <trkpt lat="48.57928" lon="1.95761">
        <ele>139.4</ele>
        <time>2026-03-29T10:25:57Z</time>
      </trkpt>
      <trkpt lat="48.57927" lon="1.95758">
        <ele>139.6</ele>
        <time>2026-03-29T10:25:58Z</time>
      </trkpt>
      <trkpt lat="48.57927" lon="1.95755">
        <ele>139.6</ele>
        <time>2026-03-29T10:25:59Z</time>
      </trkpt>
      <trkpt lat="48.57927" lon="1.95751">
        <ele>139.6</ele>
        <time>2026-03-29T10:26:00Z</time>
      </trkpt>
      <trkpt lat="48.57926" lon="1.95748">
        <ele>139.6</ele>
        <time>2026-03-29T10:26:01Z</time>
      </trkpt>
      <trkpt lat="48.57926" lon="1.95744">
        <ele>140</ele>
        <time>2026-03-29T10:26:02Z</time>
      </trkpt>
      <trkpt lat="48.57926" lon="1.95742">
        <ele>140</ele>
        <time>2026-03-29T10:26:03Z</time>
      </trkpt>
      <trkpt lat="48.57925" lon="1.95738">
        <ele>140</ele>
        <time>2026-03-29T10:26:04Z</time>
      </trkpt>
      <trkpt lat="48.57925" lon="1.95735">
        <ele>140</ele>
        <time>2026-03-29T10:26:05Z</time>
      </trkpt>
      <trkpt lat="48.57924" lon="1.95731">
        <ele>139.8</ele>
        <time>2026-03-29T10:26:06Z</time>
      </trkpt>
      <trkpt lat="48.57923" lon="1.95727">
        <ele>139.8</ele>
        <time>2026-03-29T10:26:07Z</time>
      </trkpt>
      <trkpt lat="48.57923" lon="1.95724">
        <ele>139.8</ele>
        <time>2026-03-29T10:26:08Z</time>
      </trkpt>
      <trkpt lat="48.57923" lon="1.95721">
        <ele>140</ele>
        <time>2026-03-29T10:26:09Z</time>
      </trkpt>
      <trkpt lat="48.57922" lon="1.95717">
        <ele>140.4</ele>
        <time>2026-03-29T10:26:10Z</time>
      </trkpt>
      <trkpt lat="48.57922" lon="1.95713">
        <ele>140.4</ele>
        <time>2026-03-29T10:26:11Z</time>
      </trkpt>
      <trkpt lat="48.57922" lon="1.9571">
        <ele>140.4</ele>
        <time>2026-03-29T10:26:12Z</time>
      </trkpt>
      <trkpt lat="48.57921" lon="1.95707">
        <ele>140.6</ele>
        <time>2026-03-29T10:26:13Z</time>
      </trkpt>
      <trkpt lat="48.5792" lon="1.95703">
        <ele>141</ele>
        <time>2026-03-29T10:26:14Z</time>
      </trkpt>
      <trkpt lat="48.5792" lon="1.95699">
        <ele>141</ele>
        <time>2026-03-29T10:26:15Z</time>
      </trkpt>
      <trkpt lat="48.57919" lon="1.95695">
        <ele>141</ele>
        <time>2026-03-29T10:26:16Z</time>
      </trkpt>
      <trkpt lat="48.57918" lon="1.9569">
        <ele>141</ele>
        <time>2026-03-29T10:26:17Z</time>
      </trkpt>
      <trkpt lat="48.57918" lon="1.95686">
        <ele>141.4</ele>
        <time>2026-03-29T10:26:18Z</time>
      </trkpt>
      <trkpt lat="48.57918" lon="1.95683">
        <ele>141.4</ele>
        <time>2026-03-29T10:26:19Z</time>
      </trkpt>
      <trkpt lat="48.57918" lon="1.9568">
        <ele>141.4</ele>
        <time>2026-03-29T10:26:20Z</time>
      </trkpt>
      <trkpt lat="48.57918" lon="1.95677">
        <ele>142.2</ele>
        <time>2026-03-29T10:26:21Z</time>
      </trkpt>
      <trkpt lat="48.57918" lon="1.95673">
        <ele>141.8</ele>
        <time>2026-03-29T10:26:22Z</time>
      </trkpt>
      <trkpt lat="48.57917" lon="1.9567">
        <ele>141.8</ele>
        <time>2026-03-29T10:26:23Z</time>
      </trkpt>
      <trkpt lat="48.57916" lon="1.95667">
        <ele>141.8</ele>
        <time>2026-03-29T10:26:24Z</time>
      </trkpt>
      <trkpt lat="48.57915" lon="1.95664">
        <ele>142.8</ele>
        <time>2026-03-29T10:26:25Z</time>
      </trkpt>
      <trkpt lat="48.57915" lon="1.95661">
        <ele>143.2</ele>
        <time>2026-03-29T10:26:26Z</time>
      </trkpt>
      <trkpt lat="48.57915" lon="1.95657">
        <ele>143.2</ele>
        <time>2026-03-29T10:26:27Z</time>
      </trkpt>
      <trkpt lat="48.57915" lon="1.95654">
        <ele>143.2</ele>
        <time>2026-03-29T10:26:28Z</time>
      </trkpt>
      <trkpt lat="48.57914" lon="1.95651">
        <ele>143.2</ele>
        <time>2026-03-29T10:26:29Z</time>
      </trkpt>
      <trkpt lat="48.57914" lon="1.95647">
        <ele>142.6</ele>
        <time>2026-03-29T10:26:30Z</time>
      </trkpt>
      <trkpt lat="48.57913" lon="1.95642">
        <ele>142.6</ele>
        <time>2026-03-29T10:26:31Z</time>
      </trkpt>
      <trkpt lat="48.57912" lon="1.95638">
        <ele>142.6</ele>
        <time>2026-03-29T10:26:32Z</time>
      </trkpt>
      <trkpt lat="48.57911" lon="1.95633">
        <ele>143.2</ele>
        <time>2026-03-29T10:26:33Z</time>
      </trkpt>
      <trkpt lat="48.5791" lon="1.95628">
        <ele>142.6</ele>
        <time>2026-03-29T10:26:34Z</time>
      </trkpt>
      <trkpt lat="48.57909" lon="1.95622">
        <ele>142.6</ele>
        <time>2026-03-29T10:26:35Z</time>
      </trkpt>
      <trkpt lat="48.57909" lon="1.95617">
        <ele>142.6</ele>
        <time>2026-03-29T10:26:36Z</time>
      </trkpt>
      <trkpt lat="48.57908" lon="1.95611">
        <ele>142.6</ele>
        <time>2026-03-29T10:26:37Z</time>
      </trkpt>
      <trkpt lat="48.57907" lon="1.95605">
        <ele>142.2</ele>
        <time>2026-03-29T10:26:38Z</time>
      </trkpt>
      <trkpt lat="48.57906" lon="1.95599">
        <ele>142.2</ele>
        <time>2026-03-29T10:26:39Z</time>
      </trkpt>
      <trkpt lat="48.57905" lon="1.95594">
        <ele>142.2</ele>
        <time>2026-03-29T10:26:40Z</time>
      </trkpt>
      <trkpt lat="48.57904" lon="1.95589">
        <ele>142.2</ele>
        <time>2026-03-29T10:26:41Z</time>
      </trkpt>
      <trkpt lat="48.57904" lon="1.95583">
        <ele>142.6</ele>
        <time>2026-03-29T10:26:42Z</time>
      </trkpt>
      <trkpt lat="48.57903" lon="1.95578">
        <ele>142.6</ele>
        <time>2026-03-29T10:26:43Z</time>
      </trkpt>
      <trkpt lat="48.57902" lon="1.95572">
        <ele>142.6</ele>
        <time>2026-03-29T10:26:44Z</time>
      </trkpt>
      <trkpt lat="48.57901" lon="1.95566">
        <ele>142.4</ele>
        <time>2026-03-29T10:26:45Z</time>
      </trkpt>
      <trkpt lat="48.579" lon="1.95561">
        <ele>142.2</ele>
        <time>2026-03-29T10:26:46Z</time>
      </trkpt>
      <trkpt lat="48.579" lon="1.95556">
        <ele>142.2</ele>
        <time>2026-03-29T10:26:47Z</time>
      </trkpt>
      <trkpt lat="48.579" lon="1.95551">
        <ele>142.2</ele>
        <time>2026-03-29T10:26:48Z</time>
      </trkpt>
      <trkpt lat="48.57899" lon="1.95546">
        <ele>142.2</ele>
        <time>2026-03-29T10:26:49Z</time>
      </trkpt>
      <trkpt lat="48.57899" lon="1.95541">
        <ele>142.4</ele>
        <time>2026-03-29T10:26:50Z</time>
      </trkpt>
      <trkpt lat="48.57899" lon="1.95536">
        <ele>142.4</ele>
        <time>2026-03-29T10:26:51Z</time>
      </trkpt>
      <trkpt lat="48.57898" lon="1.95529">
        <ele>142.4</ele>
        <time>2026-03-29T10:26:52Z</time>
      </trkpt>
      <trkpt lat="48.57897" lon="1.95524">
        <ele>142.4</ele>
        <time>2026-03-29T10:26:53Z</time>
      </trkpt>
      <trkpt lat="48.57896" lon="1.95519">
        <ele>142</ele>
        <time>2026-03-29T10:26:54Z</time>
      </trkpt>
      <trkpt lat="48.57896" lon="1.95513">
        <ele>142</ele>
        <time>2026-03-29T10:26:55Z</time>
      </trkpt>
      <trkpt lat="48.57895" lon="1.95507">
        <ele>142</ele>
        <time>2026-03-29T10:26:56Z</time>
      </trkpt>
      <trkpt lat="48.57895" lon="1.95502">
        <ele>142.2</ele>
        <time>2026-03-29T10:26:57Z</time>
      </trkpt>
      <trkpt lat="48.57895" lon="1.95497">
        <ele>142.2</ele>
        <time>2026-03-29T10:26:58Z</time>
      </trkpt>
      <trkpt lat="48.57895" lon="1.95493">
        <ele>142.2</ele>
        <time>2026-03-29T10:26:59Z</time>
      </trkpt>
      <trkpt lat="48.57894" lon="1.95487">
        <ele>142.2</ele>
        <time>2026-03-29T10:27:00Z</time>
      </trkpt>
      <trkpt lat="48.57893" lon="1.95482">
        <ele>142.6</ele>
        <time>2026-03-29T10:27:01Z</time>
      </trkpt>
      <trkpt lat="48.57893" lon="1.95477">
        <ele>142.6</ele>
        <time>2026-03-29T10:27:02Z</time>
      </trkpt>
      <trkpt lat="48.57892" lon="1.95472">
        <ele>142.6</ele>
        <time>2026-03-29T10:27:03Z</time>
      </trkpt>
      <trkpt lat="48.57891" lon="1.95466">
        <ele>142.6</ele>
        <time>2026-03-29T10:27:04Z</time>
      </trkpt>
      <trkpt lat="48.5789" lon="1.95461">
        <ele>143.2</ele>
        <time>2026-03-29T10:27:05Z</time>
      </trkpt>
      <trkpt lat="48.5789" lon="1.95456">
        <ele>143.2</ele>
        <time>2026-03-29T10:27:06Z</time>
      </trkpt>
      <trkpt lat="48.5789" lon="1.95451">
        <ele>143.2</ele>
        <time>2026-03-29T10:27:07Z</time>
      </trkpt>
      <trkpt lat="48.5789" lon="1.95446">
        <ele>143.2</ele>
        <time>2026-03-29T10:27:08Z</time>
      </trkpt>
      <trkpt lat="48.57889" lon="1.95441">
        <ele>143.2</ele>
        <time>2026-03-29T10:27:09Z</time>
      </trkpt>
      <trkpt lat="48.57888" lon="1.95435">
        <ele>143.4</ele>
        <time>2026-03-29T10:27:10Z</time>
      </trkpt>
      <trkpt lat="48.57888" lon="1.9543">
        <ele>143.4</ele>
        <time>2026-03-29T10:27:11Z</time>
      </trkpt>
      <trkpt lat="48.57887" lon="1.95424">
        <ele>143.4</ele>
        <time>2026-03-29T10:27:12Z</time>
      </trkpt>
      <trkpt lat="48.57888" lon="1.9542">
        <ele>143.4</ele>
        <time>2026-03-29T10:27:13Z</time>
      </trkpt>
      <trkpt lat="48.5789" lon="1.95415">
        <ele>143.8</ele>
        <time>2026-03-29T10:27:14Z</time>
      </trkpt>
      <trkpt lat="48.57892" lon="1.95411">
        <ele>143.8</ele>
        <time>2026-03-29T10:27:15Z</time>
      </trkpt>
      <trkpt lat="48.57893" lon="1.95409">
        <ele>143.8</ele>
        <time>2026-03-29T10:27:16Z</time>
      </trkpt>
      <trkpt lat="48.57895" lon="1.95406">
        <ele>143.6</ele>
        <time>2026-03-29T10:27:17Z</time>
      </trkpt>
      <trkpt lat="48.57897" lon="1.95403">
        <ele>143.6</ele>
        <time>2026-03-29T10:27:18Z</time>
      </trkpt>
      <trkpt lat="48.57898" lon="1.95398">
        <ele>143.6</ele>
        <time>2026-03-29T10:27:19Z</time>
      </trkpt>
      <trkpt lat="48.57897" lon="1.95394">
        <ele>143.6</ele>
        <time>2026-03-29T10:27:20Z</time>
      </trkpt>
      <trkpt lat="48.57897" lon="1.95388">
        <ele>143.6</ele>
        <time>2026-03-29T10:27:21Z</time>
      </trkpt>
      <trkpt lat="48.57897" lon="1.95382">
        <ele>143</ele>
        <time>2026-03-29T10:27:22Z</time>
      </trkpt>
      <trkpt lat="48.57897" lon="1.95376">
        <ele>143</ele>
        <time>2026-03-29T10:27:23Z</time>
      </trkpt>
      <trkpt lat="48.57896" lon="1.9537">
        <ele>143</ele>
        <time>2026-03-29T10:27:24Z</time>
      </trkpt>
      <trkpt lat="48.57894" lon="1.95364">
        <ele>142.6</ele>
        <time>2026-03-29T10:27:25Z</time>
      </trkpt>
      <trkpt lat="48.57893" lon="1.95358">
        <ele>142.6</ele>
        <time>2026-03-29T10:27:26Z</time>
      </trkpt>
      <trkpt lat="48.57892" lon="1.95352">
        <ele>142.6</ele>
        <time>2026-03-29T10:27:27Z</time>
      </trkpt>
      <trkpt lat="48.57891" lon="1.95345">
        <ele>142.6</ele>
        <time>2026-03-29T10:27:28Z</time>
      </trkpt>
      <trkpt lat="48.5789" lon="1.95339">
        <ele>141.6</ele>
        <time>2026-03-29T10:27:29Z</time>
      </trkpt>
      <trkpt lat="48.5789" lon="1.95332">
        <ele>141</ele>
        <time>2026-03-29T10:27:30Z</time>
      </trkpt>
      <trkpt lat="48.57889" lon="1.95323">
        <ele>141</ele>
        <time>2026-03-29T10:27:31Z</time>
      </trkpt>
      <trkpt lat="48.57888" lon="1.95314">
        <ele>141</ele>
        <time>2026-03-29T10:27:32Z</time>
      </trkpt>
      <trkpt lat="48.57887" lon="1.95306">
        <ele>141</ele>
        <time>2026-03-29T10:27:33Z</time>
      </trkpt>
      <trkpt lat="48.57885" lon="1.95297">
        <ele>138.6</ele>
        <time>2026-03-29T10:27:34Z</time>
      </trkpt>
      <trkpt lat="48.57886" lon="1.95287">
        <ele>138.6</ele>
        <time>2026-03-29T10:27:35Z</time>
      </trkpt>
      <trkpt lat="48.57887" lon="1.95278">
        <ele>138.6</ele>
        <time>2026-03-29T10:27:36Z</time>
      </trkpt>
      <trkpt lat="48.57889" lon="1.9527">
        <ele>138.6</ele>
        <time>2026-03-29T10:27:37Z</time>
      </trkpt>
      <trkpt lat="48.57889" lon="1.95262">
        <ele>138</ele>
        <time>2026-03-29T10:27:38Z</time>
      </trkpt>
      <trkpt lat="48.57888" lon="1.95253">
        <ele>138</ele>
        <time>2026-03-29T10:27:39Z</time>
      </trkpt>
      <trkpt lat="48.57888" lon="1.95245">
        <ele>138</ele>
        <time>2026-03-29T10:27:40Z</time>
      </trkpt>
      <trkpt lat="48.57885" lon="1.95239">
        <ele>137</ele>
        <time>2026-03-29T10:27:41Z</time>
      </trkpt>
      <trkpt lat="48.57885" lon="1.95232">
        <ele>136.6</ele>
        <time>2026-03-29T10:27:42Z</time>
      </trkpt>
      <trkpt lat="48.57884" lon="1.95227">
        <ele>136.6</ele>
        <time>2026-03-29T10:27:43Z</time>
      </trkpt>
      <trkpt lat="48.57882" lon="1.95224">
        <ele>136.6</ele>
        <time>2026-03-29T10:27:44Z</time>
      </trkpt>
      <trkpt lat="48.57881" lon="1.95218">
        <ele>135.6</ele>
        <time>2026-03-29T10:27:45Z</time>
      </trkpt>
      <trkpt lat="48.57879" lon="1.95213">
        <ele>135.2</ele>
        <time>2026-03-29T10:27:46Z</time>
      </trkpt>
      <trkpt lat="48.57878" lon="1.95207">
        <ele>135.2</ele>
        <time>2026-03-29T10:27:47Z</time>
      </trkpt>
      <trkpt lat="48.57878" lon="1.95202">
        <ele>135.2</ele>
        <time>2026-03-29T10:27:48Z</time>
      </trkpt>
      <trkpt lat="48.57878" lon="1.95198">
        <ele>134.2</ele>
        <time>2026-03-29T10:27:49Z</time>
      </trkpt>
      <trkpt lat="48.57879" lon="1.95195">
        <ele>134.2</ele>
        <time>2026-03-29T10:27:50Z</time>
      </trkpt>
      <trkpt lat="48.57881" lon="1.95193">
        <ele>134.2</ele>
        <time>2026-03-29T10:27:51Z</time>
      </trkpt>
      <trkpt lat="48.57882" lon="1.9519">
        <ele>134.2</ele>
        <time>2026-03-29T10:27:52Z</time>
      </trkpt>
      <trkpt lat="48.57883" lon="1.95189">
        <ele>134.2</ele>
        <time>2026-03-29T10:27:53Z</time>
      </trkpt>
      <trkpt lat="48.57884" lon="1.95187">
        <ele>134.2</ele>
        <time>2026-03-29T10:27:54Z</time>
      </trkpt>
      <trkpt lat="48.57886" lon="1.95184">
        <ele>134.2</ele>
        <time>2026-03-29T10:27:55Z</time>
      </trkpt>
      <trkpt lat="48.57888" lon="1.95182">
        <ele>134.2</ele>
        <time>2026-03-29T10:27:56Z</time>
      </trkpt>
      <trkpt lat="48.57891" lon="1.95179">
        <ele>134.6</ele>
        <time>2026-03-29T10:27:57Z</time>
      </trkpt>
      <trkpt lat="48.57892" lon="1.95176">
        <ele>134.8</ele>
        <time>2026-03-29T10:27:58Z</time>
      </trkpt>
      <trkpt lat="48.57894" lon="1.95173">
        <ele>134.8</ele>
        <time>2026-03-29T10:27:59Z</time>
      </trkpt>
      <trkpt lat="48.57896" lon="1.9517">
        <ele>134.8</ele>
        <time>2026-03-29T10:28:00Z</time>
      </trkpt>
      <trkpt lat="48.57898" lon="1.95166">
        <ele>134.8</ele>
        <time>2026-03-29T10:28:01Z</time>
      </trkpt>
      <trkpt lat="48.57899" lon="1.95163">
        <ele>134.6</ele>
        <time>2026-03-29T10:28:02Z</time>
      </trkpt>
      <trkpt lat="48.579" lon="1.95158">
        <ele>134.6</ele>
        <time>2026-03-29T10:28:03Z</time>
      </trkpt>
      <trkpt lat="48.57902" lon="1.95153">
        <ele>134.6</ele>
        <time>2026-03-29T10:28:04Z</time>
      </trkpt>
      <trkpt lat="48.57903" lon="1.95148">
        <ele>134.6</ele>
        <time>2026-03-29T10:28:05Z</time>
      </trkpt>
      <trkpt lat="48.57906" lon="1.95143">
        <ele>134.8</ele>
        <time>2026-03-29T10:28:06Z</time>
      </trkpt>
      <trkpt lat="48.57907" lon="1.9514">
        <ele>134.8</ele>
        <time>2026-03-29T10:28:07Z</time>
      </trkpt>
      <trkpt lat="48.5791" lon="1.95136">
        <ele>134.8</ele>
        <time>2026-03-29T10:28:08Z</time>
      </trkpt>
      <trkpt lat="48.57912" lon="1.95134">
        <ele>134.8</ele>
        <time>2026-03-29T10:28:09Z</time>
      </trkpt>
      <trkpt lat="48.57915" lon="1.95132">
        <ele>135</ele>
        <time>2026-03-29T10:28:10Z</time>
      </trkpt>
      <trkpt lat="48.57916" lon="1.95132">
        <ele>135</ele>
        <time>2026-03-29T10:28:11Z</time>
      </trkpt>
      <trkpt lat="48.57918" lon="1.95129">
        <ele>135</ele>
        <time>2026-03-29T10:28:12Z</time>
      </trkpt>
      <trkpt lat="48.57919" lon="1.95125">
        <ele>135</ele>
        <time>2026-03-29T10:28:13Z</time>
      </trkpt>
      <trkpt lat="48.5792" lon="1.95121">
        <ele>135</ele>
        <time>2026-03-29T10:28:14Z</time>
      </trkpt>
      <trkpt lat="48.57921" lon="1.95116">
        <ele>135</ele>
        <time>2026-03-29T10:28:15Z</time>
      </trkpt>
      <trkpt lat="48.57923" lon="1.95112">
        <ele>135</ele>
        <time>2026-03-29T10:28:16Z</time>
      </trkpt>
      <trkpt lat="48.57923" lon="1.95108">
        <ele>135</ele>
        <time>2026-03-29T10:28:17Z</time>
      </trkpt>
      <trkpt lat="48.57924" lon="1.95102">
        <ele>134.6</ele>
        <time>2026-03-29T10:28:18Z</time>
      </trkpt>
      <trkpt lat="48.57926" lon="1.95096">
        <ele>134.6</ele>
        <time>2026-03-29T10:28:19Z</time>
      </trkpt>
      <trkpt lat="48.57926" lon="1.95092">
        <ele>134.6</ele>
        <time>2026-03-29T10:28:20Z</time>
      </trkpt>
      <trkpt lat="48.57927" lon="1.95086">
        <ele>134.4</ele>
        <time>2026-03-29T10:28:21Z</time>
      </trkpt>
      <trkpt lat="48.57927" lon="1.95081">
        <ele>134.2</ele>
        <time>2026-03-29T10:28:22Z</time>
      </trkpt>
      <trkpt lat="48.57928" lon="1.95076">
        <ele>134.2</ele>
        <time>2026-03-29T10:28:23Z</time>
      </trkpt>
      <trkpt lat="48.57928" lon="1.95071">
        <ele>134.2</ele>
        <time>2026-03-29T10:28:24Z</time>
      </trkpt>
      <trkpt lat="48.57927" lon="1.95065">
        <ele>134.2</ele>
        <time>2026-03-29T10:28:25Z</time>
      </trkpt>
      <trkpt lat="48.57927" lon="1.95058">
        <ele>133</ele>
        <time>2026-03-29T10:28:26Z</time>
      </trkpt>
      <trkpt lat="48.57927" lon="1.9505">
        <ele>133</ele>
        <time>2026-03-29T10:28:27Z</time>
      </trkpt>
      <trkpt lat="48.57928" lon="1.95044">
        <ele>133</ele>
        <time>2026-03-29T10:28:28Z</time>
      </trkpt>
      <trkpt lat="48.57931" lon="1.9504">
        <ele>133</ele>
        <time>2026-03-29T10:28:29Z</time>
      </trkpt>
      <trkpt lat="48.57934" lon="1.95039">
        <ele>132.8</ele>
        <time>2026-03-29T10:28:30Z</time>
      </trkpt>
      <trkpt lat="48.57936" lon="1.95036">
        <ele>132.8</ele>
        <time>2026-03-29T10:28:31Z</time>
      </trkpt>
      <trkpt lat="48.57939" lon="1.95033">
        <ele>132.8</ele>
        <time>2026-03-29T10:28:32Z</time>
      </trkpt>
      <trkpt lat="48.57941" lon="1.95032">
        <ele>133</ele>
        <time>2026-03-29T10:28:33Z</time>
      </trkpt>
      <trkpt lat="48.57944" lon="1.95032">
        <ele>133.2</ele>
        <time>2026-03-29T10:28:34Z</time>
      </trkpt>
      <trkpt lat="48.57946" lon="1.95032">
        <ele>133.2</ele>
        <time>2026-03-29T10:28:35Z</time>
      </trkpt>
      <trkpt lat="48.57949" lon="1.95033">
        <ele>133.2</ele>
        <time>2026-03-29T10:28:36Z</time>
      </trkpt>
      <trkpt lat="48.57951" lon="1.95033">
        <ele>133.8</ele>
        <time>2026-03-29T10:28:37Z</time>
      </trkpt>
      <trkpt lat="48.57952" lon="1.95033">
        <ele>134</ele>
        <time>2026-03-29T10:28:38Z</time>
      </trkpt>
      <trkpt lat="48.57954" lon="1.95033">
        <ele>134</ele>
        <time>2026-03-29T10:28:39Z</time>
      </trkpt>
      <trkpt lat="48.57956" lon="1.95033">
        <ele>134</ele>
        <time>2026-03-29T10:28:40Z</time>
      </trkpt>
      <trkpt lat="48.57957" lon="1.95033">
        <ele>134.8</ele>
        <time>2026-03-29T10:28:41Z</time>
      </trkpt>
      <trkpt lat="48.57958" lon="1.95033">
        <ele>134.6</ele>
        <time>2026-03-29T10:28:42Z</time>
      </trkpt>
      <trkpt lat="48.57961" lon="1.95033">
        <ele>134.6</ele>
        <time>2026-03-29T10:28:43Z</time>
      </trkpt>
      <trkpt lat="48.57964" lon="1.95033">
        <ele>134.6</ele>
        <time>2026-03-29T10:28:44Z</time>
      </trkpt>
      <trkpt lat="48.57966" lon="1.95032">
        <ele>134.6</ele>
        <time>2026-03-29T10:28:45Z</time>
      </trkpt>
      <trkpt lat="48.57969" lon="1.95032">
        <ele>135</ele>
        <time>2026-03-29T10:28:46Z</time>
      </trkpt>
      <trkpt lat="48.57971" lon="1.95031">
        <ele>135</ele>
        <time>2026-03-29T10:28:47Z</time>
      </trkpt>
      <trkpt lat="48.57972" lon="1.95029">
        <ele>135</ele>
        <time>2026-03-29T10:28:48Z</time>
      </trkpt>
      <trkpt lat="48.57974" lon="1.95027">
        <ele>135</ele>
        <time>2026-03-29T10:28:49Z</time>
      </trkpt>
      <trkpt lat="48.57975" lon="1.95025">
        <ele>134.4</ele>
        <time>2026-03-29T10:28:50Z</time>
      </trkpt>
      <trkpt lat="48.57978" lon="1.95022">
        <ele>134.4</ele>
        <time>2026-03-29T10:28:51Z</time>
      </trkpt>
      <trkpt lat="48.5798" lon="1.95019">
        <ele>134.4</ele>
        <time>2026-03-29T10:28:52Z</time>
      </trkpt>
      <trkpt lat="48.57982" lon="1.95017">
        <ele>134.4</ele>
        <time>2026-03-29T10:28:53Z</time>
      </trkpt>
      <trkpt lat="48.57984" lon="1.95014">
        <ele>134.6</ele>
        <time>2026-03-29T10:28:54Z</time>
      </trkpt>
      <trkpt lat="48.57987" lon="1.95012">
        <ele>134.6</ele>
        <time>2026-03-29T10:28:55Z</time>
      </trkpt>
      <trkpt lat="48.57989" lon="1.9501">
        <ele>134.6</ele>
        <time>2026-03-29T10:28:56Z</time>
      </trkpt>
      <trkpt lat="48.57992" lon="1.95008">
        <ele>135.2</ele>
        <time>2026-03-29T10:28:57Z</time>
      </trkpt>
      <trkpt lat="48.57995" lon="1.95005">
        <ele>135.2</ele>
        <time>2026-03-29T10:28:58Z</time>
      </trkpt>
      <trkpt lat="48.57999" lon="1.95003">
        <ele>135.2</ele>
        <time>2026-03-29T10:28:59Z</time>
      </trkpt>
      <trkpt lat="48.58001" lon="1.95">
        <ele>135.2</ele>
        <time>2026-03-29T10:29:00Z</time>
      </trkpt>
      <trkpt lat="48.58004" lon="1.94998">
        <ele>135.2</ele>
        <time>2026-03-29T10:29:01Z</time>
      </trkpt>
      <trkpt lat="48.58008" lon="1.94995">
        <ele>135.4</ele>
        <time>2026-03-29T10:29:02Z</time>
      </trkpt>
      <trkpt lat="48.58011" lon="1.94994">
        <ele>135.4</ele>
        <time>2026-03-29T10:29:03Z</time>
      </trkpt>
      <trkpt lat="48.58014" lon="1.94991">
        <ele>135.4</ele>
        <time>2026-03-29T10:29:04Z</time>
      </trkpt>
      <trkpt lat="48.58016" lon="1.94987">
        <ele>135.4</ele>
        <time>2026-03-29T10:29:05Z</time>
      </trkpt>
      <trkpt lat="48.58017" lon="1.94983">
        <ele>135.8</ele>
        <time>2026-03-29T10:29:06Z</time>
      </trkpt>
      <trkpt lat="48.5802" lon="1.94978">
        <ele>135.8</ele>
        <time>2026-03-29T10:29:07Z</time>
      </trkpt>
      <trkpt lat="48.58022" lon="1.94973">
        <ele>135.8</ele>
        <time>2026-03-29T10:29:08Z</time>
      </trkpt>
      <trkpt lat="48.58024" lon="1.9497">
        <ele>135.2</ele>
        <time>2026-03-29T10:29:09Z</time>
      </trkpt>
      <trkpt lat="48.58028" lon="1.94968">
        <ele>135.4</ele>
        <time>2026-03-29T10:29:10Z</time>
      </trkpt>
      <trkpt lat="48.58031" lon="1.94968">
        <ele>135.4</ele>
        <time>2026-03-29T10:29:11Z</time>
      </trkpt>
      <trkpt lat="48.58034" lon="1.94968">
        <ele>135.4</ele>
        <time>2026-03-29T10:29:12Z</time>
      </trkpt>
      <trkpt lat="48.58037" lon="1.94968">
        <ele>135.4</ele>
        <time>2026-03-29T10:29:13Z</time>
      </trkpt>
      <trkpt lat="48.58041" lon="1.94968">
        <ele>135.8</ele>
        <time>2026-03-29T10:29:14Z</time>
      </trkpt>
      <trkpt lat="48.58044" lon="1.94967">
        <ele>135.8</ele>
        <time>2026-03-29T10:29:15Z</time>
      </trkpt>
      <trkpt lat="48.58047" lon="1.94968">
        <ele>135.8</ele>
        <time>2026-03-29T10:29:16Z</time>
      </trkpt>
      <trkpt lat="48.5805" lon="1.94967">
        <ele>136</ele>
        <time>2026-03-29T10:29:17Z</time>
      </trkpt>
      <trkpt lat="48.58053" lon="1.94967">
        <ele>136</ele>
        <time>2026-03-29T10:29:18Z</time>
      </trkpt>
      <trkpt lat="48.58056" lon="1.94966">
        <ele>136</ele>
        <time>2026-03-29T10:29:19Z</time>
      </trkpt>
      <trkpt lat="48.58059" lon="1.94966">
        <ele>136</ele>
        <time>2026-03-29T10:29:20Z</time>
      </trkpt>
      <trkpt lat="48.58061" lon="1.94966">
        <ele>136.4</ele>
        <time>2026-03-29T10:29:21Z</time>
      </trkpt>
      <trkpt lat="48.58064" lon="1.94967">
        <ele>136</ele>
        <time>2026-03-29T10:29:22Z</time>
      </trkpt>
      <trkpt lat="48.58066" lon="1.94967">
        <ele>136</ele>
        <time>2026-03-29T10:29:23Z</time>
      </trkpt>
      <trkpt lat="48.58068" lon="1.94968">
        <ele>136</ele>
        <time>2026-03-29T10:29:24Z</time>
      </trkpt>
      <trkpt lat="48.5807" lon="1.94968">
        <ele>136.6</ele>
        <time>2026-03-29T10:29:25Z</time>
      </trkpt>
      <trkpt lat="48.58073" lon="1.94968">
        <ele>136.6</ele>
        <time>2026-03-29T10:29:26Z</time>
      </trkpt>
      <trkpt lat="48.58075" lon="1.94969">
        <ele>136.6</ele>
        <time>2026-03-29T10:29:27Z</time>
      </trkpt>
      <trkpt lat="48.58077" lon="1.94968">
        <ele>136.6</ele>
        <time>2026-03-29T10:29:28Z</time>
      </trkpt>
      <trkpt lat="48.58079" lon="1.94969">
        <ele>136.6</ele>
        <time>2026-03-29T10:29:29Z</time>
      </trkpt>
      <trkpt lat="48.58081" lon="1.94969">
        <ele>137</ele>
        <time>2026-03-29T10:29:30Z</time>
      </trkpt>
      <trkpt lat="48.58083" lon="1.94969">
        <ele>137</ele>
        <time>2026-03-29T10:29:31Z</time>
      </trkpt>
      <trkpt lat="48.58085" lon="1.9497">
        <ele>137</ele>
        <time>2026-03-29T10:29:32Z</time>
      </trkpt>
      <trkpt lat="48.58086" lon="1.94971">
        <ele>137</ele>
        <time>2026-03-29T10:29:33Z</time>
      </trkpt>
      <trkpt lat="48.58088" lon="1.94971">
        <ele>137.6</ele>
        <time>2026-03-29T10:29:34Z</time>
      </trkpt>
      <trkpt lat="48.5809" lon="1.94972">
        <ele>137.6</ele>
        <time>2026-03-29T10:29:35Z</time>
      </trkpt>
      <trkpt lat="48.58092" lon="1.94972">
        <ele>137.6</ele>
        <time>2026-03-29T10:29:36Z</time>
      </trkpt>
      <trkpt lat="48.58094" lon="1.94972">
        <ele>137.6</ele>
        <time>2026-03-29T10:29:37Z</time>
      </trkpt>
      <trkpt lat="48.58095" lon="1.94972">
        <ele>137.6</ele>
        <time>2026-03-29T10:29:38Z</time>
      </trkpt>
      <trkpt lat="48.58097" lon="1.94972">
        <ele>137.6</ele>
        <time>2026-03-29T10:29:39Z</time>
      </trkpt>
      <trkpt lat="48.58099" lon="1.94972">
        <ele>137.6</ele>
        <time>2026-03-29T10:29:40Z</time>
      </trkpt>
      <trkpt lat="48.58101" lon="1.94972">
        <ele>137.6</ele>
        <time>2026-03-29T10:29:41Z</time>
      </trkpt>
      <trkpt lat="48.58102" lon="1.94971">
        <ele>137.8</ele>
        <time>2026-03-29T10:29:42Z</time>
      </trkpt>
      <trkpt lat="48.58104" lon="1.94971">
        <ele>137.8</ele>
        <time>2026-03-29T10:29:43Z</time>
      </trkpt>
      <trkpt lat="48.58106" lon="1.94971">
        <ele>137.8</ele>
        <time>2026-03-29T10:29:44Z</time>
      </trkpt>
      <trkpt lat="48.58108" lon="1.94971">
        <ele>138</ele>
        <time>2026-03-29T10:29:45Z</time>
      </trkpt>
      <trkpt lat="48.5811" lon="1.94971">
        <ele>138.2</ele>
        <time>2026-03-29T10:29:46Z</time>
      </trkpt>
      <trkpt lat="48.58112" lon="1.94971">
        <ele>138.2</ele>
        <time>2026-03-29T10:29:47Z</time>
      </trkpt>
      <trkpt lat="48.58113" lon="1.94972">
        <ele>138.2</ele>
        <time>2026-03-29T10:29:48Z</time>
      </trkpt>
      <trkpt lat="48.58115" lon="1.94973">
        <ele>139</ele>
        <time>2026-03-29T10:29:49Z</time>
      </trkpt>
      <trkpt lat="48.58117" lon="1.94973">
        <ele>138.4</ele>
        <time>2026-03-29T10:29:50Z</time>
      </trkpt>
      <trkpt lat="48.58119" lon="1.94974">
        <ele>138.4</ele>
        <time>2026-03-29T10:29:51Z</time>
      </trkpt>
      <trkpt lat="48.58121" lon="1.94974">
        <ele>138.4</ele>
        <time>2026-03-29T10:29:52Z</time>
      </trkpt>
      <trkpt lat="48.58123" lon="1.94974">
        <ele>138.4</ele>
        <time>2026-03-29T10:29:53Z</time>
      </trkpt>
      <trkpt lat="48.58125" lon="1.94974">
        <ele>139</ele>
        <time>2026-03-29T10:29:54Z</time>
      </trkpt>
      <trkpt lat="48.58127" lon="1.94974">
        <ele>139</ele>
        <time>2026-03-29T10:29:55Z</time>
      </trkpt>
      <trkpt lat="48.58129" lon="1.94974">
        <ele>139</ele>
        <time>2026-03-29T10:29:56Z</time>
      </trkpt>
      <trkpt lat="48.58131" lon="1.94975">
        <ele>139.4</ele>
        <time>2026-03-29T10:29:57Z</time>
      </trkpt>
      <trkpt lat="48.58133" lon="1.94975">
        <ele>139.8</ele>
        <time>2026-03-29T10:29:58Z</time>
      </trkpt>
      <trkpt lat="48.58135" lon="1.94975">
        <ele>139.8</ele>
        <time>2026-03-29T10:29:59Z</time>
      </trkpt>
      <trkpt lat="48.58137" lon="1.94975">
        <ele>139.8</ele>
        <time>2026-03-29T10:30:00Z</time>
      </trkpt>
      <trkpt lat="48.58139" lon="1.94975">
        <ele>139.8</ele>
        <time>2026-03-29T10:30:01Z</time>
      </trkpt>
      <trkpt lat="48.58141" lon="1.94975">
        <ele>139.8</ele>
        <time>2026-03-29T10:30:02Z</time>
      </trkpt>
      <trkpt lat="48.58143" lon="1.94975">
        <ele>139.8</ele>
        <time>2026-03-29T10:30:03Z</time>
      </trkpt>
      <trkpt lat="48.58145" lon="1.94975">
        <ele>139.8</ele>
        <time>2026-03-29T10:30:04Z</time>
      </trkpt>
      <trkpt lat="48.58147" lon="1.94975">
        <ele>140.6</ele>
        <time>2026-03-29T10:30:05Z</time>
      </trkpt>
      <trkpt lat="48.58149" lon="1.94975">
        <ele>140.2</ele>
        <time>2026-03-29T10:30:06Z</time>
      </trkpt>
      <trkpt lat="48.58151" lon="1.94976">
        <ele>140.2</ele>
        <time>2026-03-29T10:30:07Z</time>
      </trkpt>
      <trkpt lat="48.58154" lon="1.94976">
        <ele>140.2</ele>
        <time>2026-03-29T10:30:08Z</time>
      </trkpt>
      <trkpt lat="48.58156" lon="1.94976">
        <ele>140.2</ele>
        <time>2026-03-29T10:30:09Z</time>
      </trkpt>
      <trkpt lat="48.58157" lon="1.94976">
        <ele>140.6</ele>
        <time>2026-03-29T10:30:10Z</time>
      </trkpt>
      <trkpt lat="48.5816" lon="1.94975">
        <ele>140.6</ele>
        <time>2026-03-29T10:30:11Z</time>
      </trkpt>
      <trkpt lat="48.58162" lon="1.94975">
        <ele>140.6</ele>
        <time>2026-03-29T10:30:12Z</time>
      </trkpt>
      <trkpt lat="48.58164" lon="1.94975">
        <ele>140.6</ele>
        <time>2026-03-29T10:30:13Z</time>
      </trkpt>
      <trkpt lat="48.58166" lon="1.94975">
        <ele>141</ele>
        <time>2026-03-29T10:30:14Z</time>
      </trkpt>
      <trkpt lat="48.58168" lon="1.94975">
        <ele>141</ele>
        <time>2026-03-29T10:30:15Z</time>
      </trkpt>
      <trkpt lat="48.5817" lon="1.94975">
        <ele>141</ele>
        <time>2026-03-29T10:30:16Z</time>
      </trkpt>
      <trkpt lat="48.58171" lon="1.94975">
        <ele>141</ele>
        <time>2026-03-29T10:30:17Z</time>
      </trkpt>
      <trkpt lat="48.58173" lon="1.94975">
        <ele>141.2</ele>
        <time>2026-03-29T10:30:18Z</time>
      </trkpt>
      <trkpt lat="48.58175" lon="1.94975">
        <ele>141.2</ele>
        <time>2026-03-29T10:30:19Z</time>
      </trkpt>
      <trkpt lat="48.58177" lon="1.94975">
        <ele>141.2</ele>
        <time>2026-03-29T10:30:20Z</time>
      </trkpt>
      <trkpt lat="48.58179" lon="1.94975">
        <ele>141.6</ele>
        <time>2026-03-29T10:30:21Z</time>
      </trkpt>
      <trkpt lat="48.58181" lon="1.94975">
        <ele>142.2</ele>
        <time>2026-03-29T10:30:22Z</time>
      </trkpt>
      <trkpt lat="48.58182" lon="1.94975">
        <ele>142.2</ele>
        <time>2026-03-29T10:30:23Z</time>
      </trkpt>
      <trkpt lat="48.58184" lon="1.94975">
        <ele>142.2</ele>
        <time>2026-03-29T10:30:24Z</time>
      </trkpt>
      <trkpt lat="48.58187" lon="1.94975">
        <ele>142.2</ele>
        <time>2026-03-29T10:30:25Z</time>
      </trkpt>
      <trkpt lat="48.58188" lon="1.94975">
        <ele>142.6</ele>
        <time>2026-03-29T10:30:26Z</time>
      </trkpt>
      <trkpt lat="48.5819" lon="1.94975">
        <ele>142.6</ele>
        <time>2026-03-29T10:30:27Z</time>
      </trkpt>
      <trkpt lat="48.58192" lon="1.94975">
        <ele>142.6</ele>
        <time>2026-03-29T10:30:28Z</time>
      </trkpt>
      <trkpt lat="48.58193" lon="1.94974">
        <ele>142.6</ele>
        <time>2026-03-29T10:30:29Z</time>
      </trkpt>
      <trkpt lat="48.58195" lon="1.94972">
        <ele>142.8</ele>
        <time>2026-03-29T10:30:30Z</time>
      </trkpt>
      <trkpt lat="48.58197" lon="1.94972">
        <ele>142.8</ele>
        <time>2026-03-29T10:30:31Z</time>
      </trkpt>
      <trkpt lat="48.58199" lon="1.94972">
        <ele>142.8</ele>
        <time>2026-03-29T10:30:32Z</time>
      </trkpt>
      <trkpt lat="48.582" lon="1.94971">
        <ele>142.8</ele>
        <time>2026-03-29T10:30:33Z</time>
      </trkpt>
      <trkpt lat="48.58202" lon="1.9497">
        <ele>143.6</ele>
        <time>2026-03-29T10:30:34Z</time>
      </trkpt>
      <trkpt lat="48.58204" lon="1.94969">
        <ele>143.6</ele>
        <time>2026-03-29T10:30:35Z</time>
      </trkpt>
      <trkpt lat="48.58206" lon="1.94968">
        <ele>143.6</ele>
        <time>2026-03-29T10:30:36Z</time>
      </trkpt>
      <trkpt lat="48.58208" lon="1.94968">
        <ele>143.6</ele>
        <time>2026-03-29T10:30:37Z</time>
      </trkpt>
      <trkpt lat="48.5821" lon="1.94968">
        <ele>143.6</ele>
        <time>2026-03-29T10:30:38Z</time>
      </trkpt>
      <trkpt lat="48.58212" lon="1.94967">
        <ele>143.6</ele>
        <time>2026-03-29T10:30:39Z</time>
      </trkpt>
      <trkpt lat="48.58214" lon="1.94966">
        <ele>143.6</ele>
        <time>2026-03-29T10:30:40Z</time>
      </trkpt>
      <trkpt lat="48.58216" lon="1.94965">
        <ele>144.2</ele>
        <time>2026-03-29T10:30:41Z</time>
      </trkpt>
      <trkpt lat="48.58218" lon="1.94965">
        <ele>144</ele>
        <time>2026-03-29T10:30:42Z</time>
      </trkpt>
      <trkpt lat="48.58219" lon="1.94965">
        <ele>144</ele>
        <time>2026-03-29T10:30:43Z</time>
      </trkpt>
      <trkpt lat="48.58221" lon="1.94964">
        <ele>144</ele>
        <time>2026-03-29T10:30:44Z</time>
      </trkpt>
      <trkpt lat="48.58223" lon="1.94963">
        <ele>144.4</ele>
        <time>2026-03-29T10:30:45Z</time>
      </trkpt>
      <trkpt lat="48.58225" lon="1.94962">
        <ele>144.6</ele>
        <time>2026-03-29T10:30:46Z</time>
      </trkpt>
      <trkpt lat="48.58227" lon="1.94961">
        <ele>144.6</ele>
        <time>2026-03-29T10:30:47Z</time>
      </trkpt>
      <trkpt lat="48.58228" lon="1.9496">
        <ele>144.6</ele>
        <time>2026-03-29T10:30:48Z</time>
      </trkpt>
      <trkpt lat="48.58229" lon="1.94956">
        <ele>145.4</ele>
        <time>2026-03-29T10:30:49Z</time>
      </trkpt>
      <trkpt lat="48.5823" lon="1.94954">
        <ele>145</ele>
        <time>2026-03-29T10:30:50Z</time>
      </trkpt>
      <trkpt lat="48.58231" lon="1.94952">
        <ele>145</ele>
        <time>2026-03-29T10:30:51Z</time>
      </trkpt>
      <trkpt lat="48.58233" lon="1.9495">
        <ele>145</ele>
        <time>2026-03-29T10:30:52Z</time>
      </trkpt>
      <trkpt lat="48.58235" lon="1.9495">
        <ele>146</ele>
        <time>2026-03-29T10:30:53Z</time>
      </trkpt>
      <trkpt lat="48.58237" lon="1.94949">
        <ele>146.2</ele>
        <time>2026-03-29T10:30:54Z</time>
      </trkpt>
      <trkpt lat="48.58238" lon="1.94949">
        <ele>146.2</ele>
        <time>2026-03-29T10:30:55Z</time>
      </trkpt>
      <trkpt lat="48.58239" lon="1.94948">
        <ele>146.2</ele>
        <time>2026-03-29T10:30:56Z</time>
      </trkpt>
      <trkpt lat="48.58241" lon="1.94947">
        <ele>146.6</ele>
        <time>2026-03-29T10:30:57Z</time>
      </trkpt>
      <trkpt lat="48.58243" lon="1.94947">
        <ele>146.8</ele>
        <time>2026-03-29T10:30:58Z</time>
      </trkpt>
      <trkpt lat="48.58244" lon="1.94946">
        <ele>146.8</ele>
        <time>2026-03-29T10:30:59Z</time>
      </trkpt>
      <trkpt lat="48.58245" lon="1.94946">
        <ele>146.8</ele>
        <time>2026-03-29T10:31:00Z</time>
      </trkpt>
      <trkpt lat="48.58247" lon="1.94944">
        <ele>147.4</ele>
        <time>2026-03-29T10:31:01Z</time>
      </trkpt>
      <trkpt lat="48.58248" lon="1.94942">
        <ele>147.6</ele>
        <time>2026-03-29T10:31:02Z</time>
      </trkpt>
      <trkpt lat="48.58249" lon="1.9494">
        <ele>147.6</ele>
        <time>2026-03-29T10:31:03Z</time>
      </trkpt>
      <trkpt lat="48.5825" lon="1.94937">
        <ele>147.6</ele>
        <time>2026-03-29T10:31:04Z</time>
      </trkpt>
      <trkpt lat="48.58251" lon="1.94934">
        <ele>147.6</ele>
        <time>2026-03-29T10:31:05Z</time>
      </trkpt>
      <trkpt lat="48.58251" lon="1.94931">
        <ele>147.2</ele>
        <time>2026-03-29T10:31:06Z</time>
      </trkpt>
      <trkpt lat="48.58252" lon="1.94927">
        <ele>147.2</ele>
        <time>2026-03-29T10:31:07Z</time>
      </trkpt>
      <trkpt lat="48.58252" lon="1.94924">
        <ele>147.2</ele>
        <time>2026-03-29T10:31:08Z</time>
      </trkpt>
      <trkpt lat="48.58253" lon="1.94919">
        <ele>147.2</ele>
        <time>2026-03-29T10:31:09Z</time>
      </trkpt>
      <trkpt lat="48.58254" lon="1.94914">
        <ele>146.8</ele>
        <time>2026-03-29T10:31:10Z</time>
      </trkpt>
      <trkpt lat="48.58253" lon="1.94908">
        <ele>146.8</ele>
        <time>2026-03-29T10:31:11Z</time>
      </trkpt>
      <trkpt lat="48.58254" lon="1.94902">
        <ele>146.8</ele>
        <time>2026-03-29T10:31:12Z</time>
      </trkpt>
      <trkpt lat="48.58255" lon="1.94896">
        <ele>146.6</ele>
        <time>2026-03-29T10:31:13Z</time>
      </trkpt>
      <trkpt lat="48.58255" lon="1.9489">
        <ele>145.8</ele>
        <time>2026-03-29T10:31:14Z</time>
      </trkpt>
      <trkpt lat="48.58256" lon="1.94884">
        <ele>145.8</ele>
        <time>2026-03-29T10:31:15Z</time>
      </trkpt>
      <trkpt lat="48.58257" lon="1.94879">
        <ele>145.8</ele>
        <time>2026-03-29T10:31:16Z</time>
      </trkpt>
      <trkpt lat="48.58258" lon="1.94874">
        <ele>145.8</ele>
        <time>2026-03-29T10:31:17Z</time>
      </trkpt>
      <trkpt lat="48.58258" lon="1.94869">
        <ele>146</ele>
        <time>2026-03-29T10:31:18Z</time>
      </trkpt>
      <trkpt lat="48.58258" lon="1.94865">
        <ele>146</ele>
        <time>2026-03-29T10:31:19Z</time>
      </trkpt>
      <trkpt lat="48.58259" lon="1.9486">
        <ele>146</ele>
        <time>2026-03-29T10:31:20Z</time>
      </trkpt>
      <trkpt lat="48.5826" lon="1.94857">
        <ele>146</ele>
        <time>2026-03-29T10:31:21Z</time>
      </trkpt>
      <trkpt lat="48.58261" lon="1.94855">
        <ele>146</ele>
        <time>2026-03-29T10:31:22Z</time>
      </trkpt>
      <trkpt lat="48.58262" lon="1.94852">
        <ele>146</ele>
        <time>2026-03-29T10:31:23Z</time>
      </trkpt>
      <trkpt lat="48.58262" lon="1.94849">
        <ele>146</ele>
        <time>2026-03-29T10:31:24Z</time>
      </trkpt>
      <trkpt lat="48.58263" lon="1.94846">
        <ele>146.4</ele>
        <time>2026-03-29T10:31:25Z</time>
      </trkpt>
      <trkpt lat="48.58264" lon="1.94843">
        <ele>146.6</ele>
        <time>2026-03-29T10:31:26Z</time>
      </trkpt>
      <trkpt lat="48.58264" lon="1.9484">
        <ele>146.6</ele>
        <time>2026-03-29T10:31:27Z</time>
      </trkpt>
      <trkpt lat="48.58264" lon="1.94837">
        <ele>146.6</ele>
        <time>2026-03-29T10:31:28Z</time>
      </trkpt>
      <trkpt lat="48.58264" lon="1.94832">
        <ele>147.4</ele>
        <time>2026-03-29T10:31:29Z</time>
      </trkpt>
      <trkpt lat="48.58265" lon="1.94828">
        <ele>147.6</ele>
        <time>2026-03-29T10:31:30Z</time>
      </trkpt>
      <trkpt lat="48.58265" lon="1.94826">
        <ele>147.6</ele>
        <time>2026-03-29T10:31:31Z</time>
      </trkpt>
      <trkpt lat="48.58266" lon="1.94824">
        <ele>147.6</ele>
        <time>2026-03-29T10:31:32Z</time>
      </trkpt>
      <trkpt lat="48.58267" lon="1.94821">
        <ele>147.6</ele>
        <time>2026-03-29T10:31:33Z</time>
      </trkpt>
      <trkpt lat="48.58268" lon="1.94818">
        <ele>148.6</ele>
        <time>2026-03-29T10:31:34Z</time>
      </trkpt>
      <trkpt lat="48.58269" lon="1.94816">
        <ele>148.6</ele>
        <time>2026-03-29T10:31:35Z</time>
      </trkpt>
      <trkpt lat="48.58271" lon="1.94814">
        <ele>148.6</ele>
        <time>2026-03-29T10:31:36Z</time>
      </trkpt>
      <trkpt lat="48.58272" lon="1.94812">
        <ele>148.6</ele>
        <time>2026-03-29T10:31:37Z</time>
      </trkpt>
      <trkpt lat="48.58273" lon="1.94809">
        <ele>149.2</ele>
        <time>2026-03-29T10:31:38Z</time>
      </trkpt>
      <trkpt lat="48.58273" lon="1.94807">
        <ele>149.2</ele>
        <time>2026-03-29T10:31:39Z</time>
      </trkpt>
      <trkpt lat="48.58274" lon="1.94804">
        <ele>149.2</ele>
        <time>2026-03-29T10:31:40Z</time>
      </trkpt>
      <trkpt lat="48.58275" lon="1.94802">
        <ele>149.8</ele>
        <time>2026-03-29T10:31:41Z</time>
      </trkpt>
      <trkpt lat="48.58275" lon="1.948">
        <ele>149.8</ele>
        <time>2026-03-29T10:31:42Z</time>
      </trkpt>
      <trkpt lat="48.58275" lon="1.94797">
        <ele>149.8</ele>
        <time>2026-03-29T10:31:43Z</time>
      </trkpt>
      <trkpt lat="48.58275" lon="1.94793">
        <ele>149.8</ele>
        <time>2026-03-29T10:31:44Z</time>
      </trkpt>
      <trkpt lat="48.58276" lon="1.94791">
        <ele>149.8</ele>
        <time>2026-03-29T10:31:45Z</time>
      </trkpt>
      <trkpt lat="48.58277" lon="1.94788">
        <ele>149.8</ele>
        <time>2026-03-29T10:31:46Z</time>
      </trkpt>
      <trkpt lat="48.58278" lon="1.94785">
        <ele>149.8</ele>
        <time>2026-03-29T10:31:47Z</time>
      </trkpt>
      <trkpt lat="48.58279" lon="1.94783">
        <ele>149.8</ele>
        <time>2026-03-29T10:31:48Z</time>
      </trkpt>
      <trkpt lat="48.5828" lon="1.9478">
        <ele>150.4</ele>
        <time>2026-03-29T10:31:49Z</time>
      </trkpt>
      <trkpt lat="48.58282" lon="1.94779">
        <ele>150.8</ele>
        <time>2026-03-29T10:31:50Z</time>
      </trkpt>
      <trkpt lat="48.58282" lon="1.94778">
        <ele>150.8</ele>
        <time>2026-03-29T10:31:51Z</time>
      </trkpt>
      <trkpt lat="48.58284" lon="1.94775">
        <ele>150.8</ele>
        <time>2026-03-29T10:31:52Z</time>
      </trkpt>
      <trkpt lat="48.58285" lon="1.94773">
        <ele>150.8</ele>
        <time>2026-03-29T10:31:53Z</time>
      </trkpt>
      <trkpt lat="48.58286" lon="1.94771">
        <ele>151.4</ele>
        <time>2026-03-29T10:31:54Z</time>
      </trkpt>
      <trkpt lat="48.58288" lon="1.94769">
        <ele>151.4</ele>
        <time>2026-03-29T10:31:55Z</time>
      </trkpt>
      <trkpt lat="48.58289" lon="1.94768">
        <ele>151.4</ele>
        <time>2026-03-29T10:31:56Z</time>
      </trkpt>
      <trkpt lat="48.58291" lon="1.94767">
        <ele>152</ele>
        <time>2026-03-29T10:31:57Z</time>
      </trkpt>
      <trkpt lat="48.58292" lon="1.94765">
        <ele>152.2</ele>
        <time>2026-03-29T10:31:58Z</time>
      </trkpt>
      <trkpt lat="48.58294" lon="1.94765">
        <ele>152.2</ele>
        <time>2026-03-29T10:31:59Z</time>
      </trkpt>
      <trkpt lat="48.58294" lon="1.94765">
        <ele>152.2</ele>
        <time>2026-03-29T10:32:00Z</time>
      </trkpt>
      <trkpt lat="48.58296" lon="1.94764">
        <ele>152.2</ele>
        <time>2026-03-29T10:32:01Z</time>
      </trkpt>
      <trkpt lat="48.58298" lon="1.94764">
        <ele>153.4</ele>
        <time>2026-03-29T10:32:02Z</time>
      </trkpt>
      <trkpt lat="48.58299" lon="1.94765">
        <ele>153.4</ele>
        <time>2026-03-29T10:32:03Z</time>
      </trkpt>
      <trkpt lat="48.583" lon="1.94765">
        <ele>153.4</ele>
        <time>2026-03-29T10:32:04Z</time>
      </trkpt>
      <trkpt lat="48.58301" lon="1.94766">
        <ele>153.8</ele>
        <time>2026-03-29T10:32:05Z</time>
      </trkpt>
      <trkpt lat="48.58304" lon="1.94766">
        <ele>154.4</ele>
        <time>2026-03-29T10:32:06Z</time>
      </trkpt>
      <trkpt lat="48.58305" lon="1.94766">
        <ele>154.4</ele>
        <time>2026-03-29T10:32:07Z</time>
      </trkpt>
      <trkpt lat="48.58306" lon="1.94767">
        <ele>154.4</ele>
        <time>2026-03-29T10:32:08Z</time>
      </trkpt>
      <trkpt lat="48.58308" lon="1.94767">
        <ele>155.4</ele>
        <time>2026-03-29T10:32:09Z</time>
      </trkpt>
      <trkpt lat="48.58309" lon="1.94768">
        <ele>155.8</ele>
        <time>2026-03-29T10:32:10Z</time>
      </trkpt>
      <trkpt lat="48.58311" lon="1.94767">
        <ele>155.8</ele>
        <time>2026-03-29T10:32:11Z</time>
      </trkpt>
      <trkpt lat="48.58312" lon="1.94767">
        <ele>155.8</ele>
        <time>2026-03-29T10:32:12Z</time>
      </trkpt>
      <trkpt lat="48.58314" lon="1.94766">
        <ele>156.8</ele>
        <time>2026-03-29T10:32:13Z</time>
      </trkpt>
      <trkpt lat="48.58315" lon="1.94766">
        <ele>157.4</ele>
        <time>2026-03-29T10:32:14Z</time>
      </trkpt>
      <trkpt lat="48.58316" lon="1.94766">
        <ele>157.4</ele>
        <time>2026-03-29T10:32:15Z</time>
      </trkpt>
      <trkpt lat="48.58317" lon="1.94765">
        <ele>157.4</ele>
        <time>2026-03-29T10:32:16Z</time>
      </trkpt>
      <trkpt lat="48.58318" lon="1.94764">
        <ele>157.4</ele>
        <time>2026-03-29T10:32:17Z</time>
      </trkpt>
      <trkpt lat="48.5832" lon="1.94762">
        <ele>158.2</ele>
        <time>2026-03-29T10:32:18Z</time>
      </trkpt>
      <trkpt lat="48.58321" lon="1.94761">
        <ele>158.2</ele>
        <time>2026-03-29T10:32:19Z</time>
      </trkpt>
      <trkpt lat="48.58322" lon="1.94759">
        <ele>158.2</ele>
        <time>2026-03-29T10:32:20Z</time>
      </trkpt>
      <trkpt lat="48.58323" lon="1.94756">
        <ele>158.2</ele>
        <time>2026-03-29T10:32:21Z</time>
      </trkpt>
      <trkpt lat="48.58323" lon="1.94754">
        <ele>158.4</ele>
        <time>2026-03-29T10:32:22Z</time>
      </trkpt>
      <trkpt lat="48.58324" lon="1.94752">
        <ele>158.4</ele>
        <time>2026-03-29T10:32:23Z</time>
      </trkpt>
      <trkpt lat="48.58324" lon="1.9475">
        <ele>158.4</ele>
        <time>2026-03-29T10:32:24Z</time>
      </trkpt>
      <trkpt lat="48.58325" lon="1.94747">
        <ele>158</ele>
        <time>2026-03-29T10:32:25Z</time>
      </trkpt>
      <trkpt lat="48.58326" lon="1.94745">
        <ele>158</ele>
        <time>2026-03-29T10:32:26Z</time>
      </trkpt>
      <trkpt lat="48.58327" lon="1.94743">
        <ele>158</ele>
        <time>2026-03-29T10:32:27Z</time>
      </trkpt>
      <trkpt lat="48.58329" lon="1.94743">
        <ele>158</ele>
        <time>2026-03-29T10:32:28Z</time>
      </trkpt>
      <trkpt lat="48.5833" lon="1.94743">
        <ele>159</ele>
        <time>2026-03-29T10:32:29Z</time>
      </trkpt>
      <trkpt lat="48.58332" lon="1.94743">
        <ele>159.4</ele>
        <time>2026-03-29T10:32:30Z</time>
      </trkpt>
      <trkpt lat="48.58333" lon="1.94743">
        <ele>159.4</ele>
        <time>2026-03-29T10:32:31Z</time>
      </trkpt>
      <trkpt lat="48.58334" lon="1.94743">
        <ele>159.4</ele>
        <time>2026-03-29T10:32:32Z</time>
      </trkpt>
      <trkpt lat="48.58336" lon="1.94743">
        <ele>160.2</ele>
        <time>2026-03-29T10:32:33Z</time>
      </trkpt>
      <trkpt lat="48.58337" lon="1.94743">
        <ele>160.2</ele>
        <time>2026-03-29T10:32:34Z</time>
      </trkpt>
      <trkpt lat="48.58338" lon="1.94743">
        <ele>160.2</ele>
        <time>2026-03-29T10:32:35Z</time>
      </trkpt>
      <trkpt lat="48.5834" lon="1.94743">
        <ele>160.2</ele>
        <time>2026-03-29T10:32:36Z</time>
      </trkpt>
      <trkpt lat="48.58341" lon="1.94743">
        <ele>160.2</ele>
        <time>2026-03-29T10:32:37Z</time>
      </trkpt>
      <trkpt lat="48.58342" lon="1.94744">
        <ele>161.2</ele>
        <time>2026-03-29T10:32:38Z</time>
      </trkpt>
      <trkpt lat="48.58344" lon="1.94744">
        <ele>161.2</ele>
        <time>2026-03-29T10:32:39Z</time>
      </trkpt>
      <trkpt lat="48.58345" lon="1.94745">
        <ele>161.2</ele>
        <time>2026-03-29T10:32:40Z</time>
      </trkpt>
      <trkpt lat="48.58347" lon="1.94744">
        <ele>161.2</ele>
        <time>2026-03-29T10:32:41Z</time>
      </trkpt>
      <trkpt lat="48.58349" lon="1.94744">
        <ele>161.8</ele>
        <time>2026-03-29T10:32:42Z</time>
      </trkpt>
      <trkpt lat="48.5835" lon="1.94743">
        <ele>161.8</ele>
        <time>2026-03-29T10:32:43Z</time>
      </trkpt>
      <trkpt lat="48.58351" lon="1.94741">
        <ele>161.8</ele>
        <time>2026-03-29T10:32:44Z</time>
      </trkpt>
      <trkpt lat="48.58352" lon="1.9474">
        <ele>162.2</ele>
        <time>2026-03-29T10:32:45Z</time>
      </trkpt>
      <trkpt lat="48.58353" lon="1.94739">
        <ele>162.2</ele>
        <time>2026-03-29T10:32:46Z</time>
      </trkpt>
      <trkpt lat="48.58355" lon="1.94739">
        <ele>162.2</ele>
        <time>2026-03-29T10:32:47Z</time>
      </trkpt>
      <trkpt lat="48.58357" lon="1.94738">
        <ele>162.2</ele>
        <time>2026-03-29T10:32:48Z</time>
      </trkpt>
      <trkpt lat="48.58359" lon="1.94736">
        <ele>163.2</ele>
        <time>2026-03-29T10:32:49Z</time>
      </trkpt>
      <trkpt lat="48.58361" lon="1.94735">
        <ele>163.4</ele>
        <time>2026-03-29T10:32:50Z</time>
      </trkpt>
      <trkpt lat="48.58362" lon="1.94734">
        <ele>163.4</ele>
        <time>2026-03-29T10:32:51Z</time>
      </trkpt>
      <trkpt lat="48.58364" lon="1.94734">
        <ele>163.4</ele>
        <time>2026-03-29T10:32:52Z</time>
      </trkpt>
      <trkpt lat="48.58366" lon="1.94733">
        <ele>164</ele>
        <time>2026-03-29T10:32:53Z</time>
      </trkpt>
      <trkpt lat="48.58367" lon="1.94732">
        <ele>164.2</ele>
        <time>2026-03-29T10:32:54Z</time>
      </trkpt>
      <trkpt lat="48.58368" lon="1.94731">
        <ele>164.2</ele>
        <time>2026-03-29T10:32:55Z</time>
      </trkpt>
      <trkpt lat="48.5837" lon="1.9473">
        <ele>164.2</ele>
        <time>2026-03-29T10:32:56Z</time>
      </trkpt>
      <trkpt lat="48.58371" lon="1.9473">
        <ele>164.2</ele>
        <time>2026-03-29T10:32:57Z</time>
      </trkpt>
      <trkpt lat="48.58372" lon="1.94729">
        <ele>164.6</ele>
        <time>2026-03-29T10:32:58Z</time>
      </trkpt>
      <trkpt lat="48.58374" lon="1.94727">
        <ele>164.6</ele>
        <time>2026-03-29T10:32:59Z</time>
      </trkpt>
      <trkpt lat="48.58375" lon="1.94727">
        <ele>164.6</ele>
        <time>2026-03-29T10:33:00Z</time>
      </trkpt>
      <trkpt lat="48.58376" lon="1.94725">
        <ele>165</ele>
        <time>2026-03-29T10:33:01Z</time>
      </trkpt>
      <trkpt lat="48.58378" lon="1.94724">
        <ele>165.2</ele>
        <time>2026-03-29T10:33:02Z</time>
      </trkpt>
      <trkpt lat="48.58379" lon="1.94723">
        <ele>165.2</ele>
        <time>2026-03-29T10:33:03Z</time>
      </trkpt>
      <trkpt lat="48.5838" lon="1.94722">
        <ele>165.2</ele>
        <time>2026-03-29T10:33:04Z</time>
      </trkpt>
      <trkpt lat="48.58382" lon="1.9472">
        <ele>165.2</ele>
        <time>2026-03-29T10:33:05Z</time>
      </trkpt>
      <trkpt lat="48.58383" lon="1.94718">
        <ele>165.4</ele>
        <time>2026-03-29T10:33:06Z</time>
      </trkpt>
      <trkpt lat="48.58384" lon="1.94715">
        <ele>165.4</ele>
        <time>2026-03-29T10:33:07Z</time>
      </trkpt>
      <trkpt lat="48.58386" lon="1.94713">
        <ele>165.4</ele>
        <time>2026-03-29T10:33:08Z</time>
      </trkpt>
      <trkpt lat="48.58387" lon="1.94709">
        <ele>165.4</ele>
        <time>2026-03-29T10:33:09Z</time>
      </trkpt>
      <trkpt lat="48.58389" lon="1.94707">
        <ele>165.4</ele>
        <time>2026-03-29T10:33:10Z</time>
      </trkpt>
      <trkpt lat="48.5839" lon="1.94704">
        <ele>165.4</ele>
        <time>2026-03-29T10:33:11Z</time>
      </trkpt>
      <trkpt lat="48.58391" lon="1.94702">
        <ele>165.4</ele>
        <time>2026-03-29T10:33:12Z</time>
      </trkpt>
      <trkpt lat="48.58393" lon="1.947">
        <ele>165.4</ele>
        <time>2026-03-29T10:33:13Z</time>
      </trkpt>
      <trkpt lat="48.58394" lon="1.94699">
        <ele>165.4</ele>
        <time>2026-03-29T10:33:14Z</time>
      </trkpt>
      <trkpt lat="48.58395" lon="1.94697">
        <ele>165.4</ele>
        <time>2026-03-29T10:33:15Z</time>
      </trkpt>
      <trkpt lat="48.58396" lon="1.94695">
        <ele>165.4</ele>
        <time>2026-03-29T10:33:16Z</time>
      </trkpt>
      <trkpt lat="48.58398" lon="1.94692">
        <ele>165.4</ele>
        <time>2026-03-29T10:33:17Z</time>
      </trkpt>
      <trkpt lat="48.584" lon="1.94689">
        <ele>165</ele>
        <time>2026-03-29T10:33:18Z</time>
      </trkpt>
      <trkpt lat="48.58402" lon="1.94687">
        <ele>165</ele>
        <time>2026-03-29T10:33:19Z</time>
      </trkpt>
      <trkpt lat="48.58404" lon="1.94685">
        <ele>165</ele>
        <time>2026-03-29T10:33:20Z</time>
      </trkpt>
      <trkpt lat="48.58406" lon="1.94684">
        <ele>165.8</ele>
        <time>2026-03-29T10:33:21Z</time>
      </trkpt>
      <trkpt lat="48.58408" lon="1.94685">
        <ele>165.6</ele>
        <time>2026-03-29T10:33:22Z</time>
      </trkpt>
      <trkpt lat="48.5841" lon="1.94687">
        <ele>165.6</ele>
        <time>2026-03-29T10:33:23Z</time>
      </trkpt>
      <trkpt lat="48.58412" lon="1.94688">
        <ele>165.6</ele>
        <time>2026-03-29T10:33:24Z</time>
      </trkpt>
      <trkpt lat="48.58415" lon="1.94688">
        <ele>166.2</ele>
        <time>2026-03-29T10:33:25Z</time>
      </trkpt>
      <trkpt lat="48.58416" lon="1.94688">
        <ele>166.6</ele>
        <time>2026-03-29T10:33:26Z</time>
      </trkpt>
      <trkpt lat="48.58419" lon="1.94686">
        <ele>166.6</ele>
        <time>2026-03-29T10:33:27Z</time>
      </trkpt>
      <trkpt lat="48.58421" lon="1.94683">
        <ele>166.6</ele>
        <time>2026-03-29T10:33:28Z</time>
      </trkpt>
      <trkpt lat="48.58423" lon="1.9468">
        <ele>166.4</ele>
        <time>2026-03-29T10:33:29Z</time>
      </trkpt>
      <trkpt lat="48.58424" lon="1.94677">
        <ele>166.4</ele>
        <time>2026-03-29T10:33:30Z</time>
      </trkpt>
      <trkpt lat="48.58426" lon="1.94675">
        <ele>166.4</ele>
        <time>2026-03-29T10:33:31Z</time>
      </trkpt>
      <trkpt lat="48.58426" lon="1.94673">
        <ele>166.4</ele>
        <time>2026-03-29T10:33:32Z</time>
      </trkpt>
      <trkpt lat="48.58428" lon="1.94669">
        <ele>166.6</ele>
        <time>2026-03-29T10:33:33Z</time>
      </trkpt>
      <trkpt lat="48.58429" lon="1.94667">
        <ele>166.4</ele>
        <time>2026-03-29T10:33:34Z</time>
      </trkpt>
      <trkpt lat="48.5843" lon="1.94663">
        <ele>166.4</ele>
        <time>2026-03-29T10:33:35Z</time>
      </trkpt>
      <trkpt lat="48.58431" lon="1.9466">
        <ele>166.4</ele>
        <time>2026-03-29T10:33:36Z</time>
      </trkpt>
      <trkpt lat="48.58432" lon="1.94657">
        <ele>166.4</ele>
        <time>2026-03-29T10:33:37Z</time>
      </trkpt>
      <trkpt lat="48.58434" lon="1.94656">
        <ele>167</ele>
        <time>2026-03-29T10:33:38Z</time>
      </trkpt>
      <trkpt lat="48.58437" lon="1.94656">
        <ele>167</ele>
        <time>2026-03-29T10:33:39Z</time>
      </trkpt>
      <trkpt lat="48.5844" lon="1.94655">
        <ele>167</ele>
        <time>2026-03-29T10:33:40Z</time>
      </trkpt>
      <trkpt lat="48.58443" lon="1.94654">
        <ele>166</ele>
        <time>2026-03-29T10:33:41Z</time>
      </trkpt>
      <trkpt lat="48.58446" lon="1.94654">
        <ele>166.2</ele>
        <time>2026-03-29T10:33:42Z</time>
      </trkpt>
      <trkpt lat="48.58449" lon="1.94653">
        <ele>166.2</ele>
        <time>2026-03-29T10:33:43Z</time>
      </trkpt>
      <trkpt lat="48.58452" lon="1.94653">
        <ele>166.2</ele>
        <time>2026-03-29T10:33:44Z</time>
      </trkpt>
      <trkpt lat="48.58455" lon="1.94652">
        <ele>166.2</ele>
        <time>2026-03-29T10:33:45Z</time>
      </trkpt>
      <trkpt lat="48.58457" lon="1.94652">
        <ele>167.2</ele>
        <time>2026-03-29T10:33:46Z</time>
      </trkpt>
      <trkpt lat="48.5846" lon="1.94653">
        <ele>167.2</ele>
        <time>2026-03-29T10:33:47Z</time>
      </trkpt>
      <trkpt lat="48.58463" lon="1.94655">
        <ele>167.2</ele>
        <time>2026-03-29T10:33:48Z</time>
      </trkpt>
      <trkpt lat="48.58465" lon="1.94656">
        <ele>167.2</ele>
        <time>2026-03-29T10:33:49Z</time>
      </trkpt>
      <trkpt lat="48.58467" lon="1.94657">
        <ele>167</ele>
        <time>2026-03-29T10:33:50Z</time>
      </trkpt>
      <trkpt lat="48.58469" lon="1.94659">
        <ele>167</ele>
        <time>2026-03-29T10:33:51Z</time>
      </trkpt>
      <trkpt lat="48.58471" lon="1.94661">
        <ele>167</ele>
        <time>2026-03-29T10:33:52Z</time>
      </trkpt>
      <trkpt lat="48.58473" lon="1.94662">
        <ele>167</ele>
        <time>2026-03-29T10:33:53Z</time>
      </trkpt>
      <trkpt lat="48.58476" lon="1.94663">
        <ele>167</ele>
        <time>2026-03-29T10:33:54Z</time>
      </trkpt>
      <trkpt lat="48.58479" lon="1.94665">
        <ele>167</ele>
        <time>2026-03-29T10:33:55Z</time>
      </trkpt>
      <trkpt lat="48.58482" lon="1.94666">
        <ele>167</ele>
        <time>2026-03-29T10:33:56Z</time>
      </trkpt>
      <trkpt lat="48.58484" lon="1.94667">
        <ele>167</ele>
        <time>2026-03-29T10:33:57Z</time>
      </trkpt>
      <trkpt lat="48.58487" lon="1.94668">
        <ele>166.6</ele>
        <time>2026-03-29T10:33:58Z</time>
      </trkpt>
      <trkpt lat="48.5849" lon="1.9467">
        <ele>166.6</ele>
        <time>2026-03-29T10:33:59Z</time>
      </trkpt>
      <trkpt lat="48.58493" lon="1.94672">
        <ele>166.6</ele>
        <time>2026-03-29T10:34:00Z</time>
      </trkpt>
      <trkpt lat="48.58495" lon="1.94675">
        <ele>166.6</ele>
        <time>2026-03-29T10:34:01Z</time>
      </trkpt>
      <trkpt lat="48.58497" lon="1.94678">
        <ele>165.8</ele>
        <time>2026-03-29T10:34:02Z</time>
      </trkpt>
      <trkpt lat="48.585" lon="1.9468">
        <ele>165.8</ele>
        <time>2026-03-29T10:34:03Z</time>
      </trkpt>
      <trkpt lat="48.58503" lon="1.94683">
        <ele>165.8</ele>
        <time>2026-03-29T10:34:04Z</time>
      </trkpt>
      <trkpt lat="48.58506" lon="1.94685">
        <ele>165.8</ele>
        <time>2026-03-29T10:34:05Z</time>
      </trkpt>
      <trkpt lat="48.5851" lon="1.94688">
        <ele>165.6</ele>
        <time>2026-03-29T10:34:06Z</time>
      </trkpt>
      <trkpt lat="48.58513" lon="1.9469">
        <ele>165.6</ele>
        <time>2026-03-29T10:34:07Z</time>
      </trkpt>
      <trkpt lat="48.58518" lon="1.94692">
        <ele>165.6</ele>
        <time>2026-03-29T10:34:08Z</time>
      </trkpt>
      <trkpt lat="48.58522" lon="1.94693">
        <ele>164.8</ele>
        <time>2026-03-29T10:34:09Z</time>
      </trkpt>
      <trkpt lat="48.58528" lon="1.94694">
        <ele>164.8</ele>
        <time>2026-03-29T10:34:10Z</time>
      </trkpt>
      <trkpt lat="48.58533" lon="1.94696">
        <ele>164.8</ele>
        <time>2026-03-29T10:34:11Z</time>
      </trkpt>
      <trkpt lat="48.58539" lon="1.94698">
        <ele>164.8</ele>
        <time>2026-03-29T10:34:12Z</time>
      </trkpt>
      <trkpt lat="48.58545" lon="1.947">
        <ele>163.8</ele>
        <time>2026-03-29T10:34:13Z</time>
      </trkpt>
      <trkpt lat="48.58551" lon="1.94702">
        <ele>162.8</ele>
        <time>2026-03-29T10:34:14Z</time>
      </trkpt>
      <trkpt lat="48.58556" lon="1.94704">
        <ele>162.8</ele>
        <time>2026-03-29T10:34:15Z</time>
      </trkpt>
      <trkpt lat="48.5856" lon="1.94707">
        <ele>162.8</ele>
        <time>2026-03-29T10:34:16Z</time>
      </trkpt>
      <trkpt lat="48.58566" lon="1.94711">
        <ele>162.8</ele>
        <time>2026-03-29T10:34:17Z</time>
      </trkpt>
      <trkpt lat="48.58572" lon="1.94715">
        <ele>161.2</ele>
        <time>2026-03-29T10:34:18Z</time>
      </trkpt>
      <trkpt lat="48.58577" lon="1.94718">
        <ele>161.2</ele>
        <time>2026-03-29T10:34:19Z</time>
      </trkpt>
      <trkpt lat="48.58583" lon="1.9472">
        <ele>161.2</ele>
        <time>2026-03-29T10:34:20Z</time>
      </trkpt>
      <trkpt lat="48.58588" lon="1.94723">
        <ele>161.2</ele>
        <time>2026-03-29T10:34:21Z</time>
      </trkpt>
      <trkpt lat="48.58593" lon="1.94726">
        <ele>160.8</ele>
        <time>2026-03-29T10:34:22Z</time>
      </trkpt>
      <trkpt lat="48.58599" lon="1.94729">
        <ele>160.8</ele>
        <time>2026-03-29T10:34:23Z</time>
      </trkpt>
      <trkpt lat="48.58604" lon="1.94732">
        <ele>160.8</ele>
        <time>2026-03-29T10:34:24Z</time>
      </trkpt>
      <trkpt lat="48.58609" lon="1.94734">
        <ele>160.8</ele>
        <time>2026-03-29T10:34:25Z</time>
      </trkpt>
      <trkpt lat="48.58613" lon="1.94735">
        <ele>160.4</ele>
        <time>2026-03-29T10:34:26Z</time>
      </trkpt>
      <trkpt lat="48.58619" lon="1.94735">
        <ele>160.4</ele>
        <time>2026-03-29T10:34:27Z</time>
      </trkpt>
      <trkpt lat="48.58623" lon="1.94735">
        <ele>160.4</ele>
        <time>2026-03-29T10:34:28Z</time>
      </trkpt>
      <trkpt lat="48.58629" lon="1.94736">
        <ele>159.4</ele>
        <time>2026-03-29T10:34:29Z</time>
      </trkpt>
      <trkpt lat="48.58635" lon="1.94737">
        <ele>159</ele>
        <time>2026-03-29T10:34:30Z</time>
      </trkpt>
      <trkpt lat="48.5864" lon="1.94739">
        <ele>159</ele>
        <time>2026-03-29T10:34:31Z</time>
      </trkpt>
      <trkpt lat="48.58647" lon="1.94742">
        <ele>159</ele>
        <time>2026-03-29T10:34:32Z</time>
      </trkpt>
      <trkpt lat="48.58653" lon="1.94743">
        <ele>159</ele>
        <time>2026-03-29T10:34:33Z</time>
      </trkpt>
      <trkpt lat="48.58659" lon="1.94744">
        <ele>158.6</ele>
        <time>2026-03-29T10:34:34Z</time>
      </trkpt>
      <trkpt lat="48.58665" lon="1.94744">
        <ele>158.6</ele>
        <time>2026-03-29T10:34:35Z</time>
      </trkpt>
      <trkpt lat="48.5867" lon="1.94746">
        <ele>158.6</ele>
        <time>2026-03-29T10:34:36Z</time>
      </trkpt>
      <trkpt lat="48.58675" lon="1.94747">
        <ele>157.6</ele>
        <time>2026-03-29T10:34:37Z</time>
      </trkpt>
      <trkpt lat="48.58682" lon="1.94751">
        <ele>156.2</ele>
        <time>2026-03-29T10:34:38Z</time>
      </trkpt>
      <trkpt lat="48.58689" lon="1.94757">
        <ele>156.2</ele>
        <time>2026-03-29T10:34:39Z</time>
      </trkpt>
      <trkpt lat="48.58696" lon="1.94764">
        <ele>156.2</ele>
        <time>2026-03-29T10:34:40Z</time>
      </trkpt>
      <trkpt lat="48.58703" lon="1.94772">
        <ele>155.2</ele>
        <time>2026-03-29T10:34:41Z</time>
      </trkpt>
      <trkpt lat="48.58709" lon="1.94779">
        <ele>152.6</ele>
        <time>2026-03-29T10:34:42Z</time>
      </trkpt>
      <trkpt lat="48.58717" lon="1.94786">
        <ele>152.6</ele>
        <time>2026-03-29T10:34:43Z</time>
      </trkpt>
      <trkpt lat="48.58724" lon="1.94794">
        <ele>152.6</ele>
        <time>2026-03-29T10:34:44Z</time>
      </trkpt>
      <trkpt lat="48.58731" lon="1.94801">
        <ele>151.6</ele>
        <time>2026-03-29T10:34:45Z</time>
      </trkpt>
      <trkpt lat="48.58738" lon="1.94805">
        <ele>149.8</ele>
        <time>2026-03-29T10:34:46Z</time>
      </trkpt>
      <trkpt lat="48.58746" lon="1.9481">
        <ele>149.8</ele>
        <time>2026-03-29T10:34:47Z</time>
      </trkpt>
      <trkpt lat="48.58753" lon="1.94816">
        <ele>149.8</ele>
        <time>2026-03-29T10:34:48Z</time>
      </trkpt>
      <trkpt lat="48.58761" lon="1.94823">
        <ele>148.8</ele>
        <time>2026-03-29T10:34:49Z</time>
      </trkpt>
      <trkpt lat="48.58768" lon="1.94831">
        <ele>144.6</ele>
        <time>2026-03-29T10:34:50Z</time>
      </trkpt>
      <trkpt lat="48.58774" lon="1.94839">
        <ele>144.6</ele>
        <time>2026-03-29T10:34:51Z</time>
      </trkpt>
      <trkpt lat="48.58781" lon="1.94846">
        <ele>144.6</ele>
        <time>2026-03-29T10:34:52Z</time>
      </trkpt>
      <trkpt lat="48.58789" lon="1.94854">
        <ele>144.6</ele>
        <time>2026-03-29T10:34:53Z</time>
      </trkpt>
      <trkpt lat="48.58796" lon="1.9486">
        <ele>143.8</ele>
        <time>2026-03-29T10:34:54Z</time>
      </trkpt>
      <trkpt lat="48.58804" lon="1.94867">
        <ele>143.8</ele>
        <time>2026-03-29T10:34:55Z</time>
      </trkpt>
      <trkpt lat="48.58812" lon="1.94873">
        <ele>143.8</ele>
        <time>2026-03-29T10:34:56Z</time>
      </trkpt>
      <trkpt lat="48.5882" lon="1.9488">
        <ele>142.8</ele>
        <time>2026-03-29T10:34:57Z</time>
      </trkpt>
      <trkpt lat="48.58827" lon="1.94887">
        <ele>143</ele>
        <time>2026-03-29T10:34:58Z</time>
      </trkpt>
      <trkpt lat="48.58835" lon="1.94893">
        <ele>143</ele>
        <time>2026-03-29T10:34:59Z</time>
      </trkpt>
      <trkpt lat="48.58842" lon="1.94899">
        <ele>143</ele>
        <time>2026-03-29T10:35:00Z</time>
      </trkpt>
      <trkpt lat="48.5885" lon="1.94906">
        <ele>142</ele>
        <time>2026-03-29T10:35:01Z</time>
      </trkpt>
      <trkpt lat="48.58854" lon="1.94911">
        <ele>140.2</ele>
        <time>2026-03-29T10:35:02Z</time>
      </trkpt>
      <trkpt lat="48.5886" lon="1.94916">
        <ele>140.2</ele>
        <time>2026-03-29T10:35:03Z</time>
      </trkpt>
      <trkpt lat="48.58865" lon="1.9492">
        <ele>140.2</ele>
        <time>2026-03-29T10:35:04Z</time>
      </trkpt>
      <trkpt lat="48.58871" lon="1.94925">
        <ele>140.2</ele>
        <time>2026-03-29T10:35:05Z</time>
      </trkpt>
      <trkpt lat="48.58875" lon="1.94929">
        <ele>139.8</ele>
        <time>2026-03-29T10:35:06Z</time>
      </trkpt>
      <trkpt lat="48.5888" lon="1.94934">
        <ele>139.8</ele>
        <time>2026-03-29T10:35:07Z</time>
      </trkpt>
      <trkpt lat="48.58885" lon="1.94939">
        <ele>139.8</ele>
        <time>2026-03-29T10:35:08Z</time>
      </trkpt>
      <trkpt lat="48.5889" lon="1.94945">
        <ele>139.8</ele>
        <time>2026-03-29T10:35:09Z</time>
      </trkpt>
      <trkpt lat="48.58895" lon="1.94951">
        <ele>139</ele>
        <time>2026-03-29T10:35:10Z</time>
      </trkpt>
      <trkpt lat="48.589" lon="1.94956">
        <ele>139</ele>
        <time>2026-03-29T10:35:11Z</time>
      </trkpt>
      <trkpt lat="48.58904" lon="1.9496">
        <ele>139</ele>
        <time>2026-03-29T10:35:12Z</time>
      </trkpt>
      <trkpt lat="48.58908" lon="1.94964">
        <ele>139</ele>
        <time>2026-03-29T10:35:13Z</time>
      </trkpt>
      <trkpt lat="48.58913" lon="1.94969">
        <ele>138.2</ele>
        <time>2026-03-29T10:35:14Z</time>
      </trkpt>
      <trkpt lat="48.58917" lon="1.94974">
        <ele>138.2</ele>
        <time>2026-03-29T10:35:15Z</time>
      </trkpt>
      <trkpt lat="48.58923" lon="1.94978">
        <ele>138.2</ele>
        <time>2026-03-29T10:35:16Z</time>
      </trkpt>
      <trkpt lat="48.58927" lon="1.94983">
        <ele>138.2</ele>
        <time>2026-03-29T10:35:17Z</time>
      </trkpt>
      <trkpt lat="48.58931" lon="1.9499">
        <ele>137</ele>
        <time>2026-03-29T10:35:18Z</time>
      </trkpt>
      <trkpt lat="48.58936" lon="1.94995">
        <ele>137</ele>
        <time>2026-03-29T10:35:19Z</time>
      </trkpt>
      <trkpt lat="48.58941" lon="1.95001">
        <ele>137</ele>
        <time>2026-03-29T10:35:20Z</time>
      </trkpt>
      <trkpt lat="48.58946" lon="1.95007">
        <ele>137</ele>
        <time>2026-03-29T10:35:21Z</time>
      </trkpt>
      <trkpt lat="48.58951" lon="1.95013">
        <ele>136.4</ele>
        <time>2026-03-29T10:35:22Z</time>
      </trkpt>
      <trkpt lat="48.58955" lon="1.9502">
        <ele>136.4</ele>
        <time>2026-03-29T10:35:23Z</time>
      </trkpt>
      <trkpt lat="48.5896" lon="1.95025">
        <ele>136.4</ele>
        <time>2026-03-29T10:35:24Z</time>
      </trkpt>
      <trkpt lat="48.58965" lon="1.95031">
        <ele>135.4</ele>
        <time>2026-03-29T10:35:25Z</time>
      </trkpt>
      <trkpt lat="48.5897" lon="1.95038">
        <ele>135.4</ele>
        <time>2026-03-29T10:35:26Z</time>
      </trkpt>
      <trkpt lat="48.58973" lon="1.95044">
        <ele>135.4</ele>
        <time>2026-03-29T10:35:27Z</time>
      </trkpt>
      <trkpt lat="48.58977" lon="1.95049">
        <ele>135.4</ele>
        <time>2026-03-29T10:35:28Z</time>
      </trkpt>
      <trkpt lat="48.58981" lon="1.95054">
        <ele>135.4</ele>
        <time>2026-03-29T10:35:29Z</time>
      </trkpt>
      <trkpt lat="48.58985" lon="1.95058">
        <ele>134.4</ele>
        <time>2026-03-29T10:35:30Z</time>
      </trkpt>
      <trkpt lat="48.58989" lon="1.95065">
        <ele>134.4</ele>
        <time>2026-03-29T10:35:31Z</time>
      </trkpt>
      <trkpt lat="48.58994" lon="1.9507">
        <ele>134.4</ele>
        <time>2026-03-29T10:35:32Z</time>
      </trkpt>
      <trkpt lat="48.58998" lon="1.95074">
        <ele>134.4</ele>
        <time>2026-03-29T10:35:33Z</time>
      </trkpt>
      <trkpt lat="48.59003" lon="1.9508">
        <ele>134.6</ele>
        <time>2026-03-29T10:35:34Z</time>
      </trkpt>
      <trkpt lat="48.59008" lon="1.95085">
        <ele>134.6</ele>
        <time>2026-03-29T10:35:35Z</time>
      </trkpt>
      <trkpt lat="48.59013" lon="1.9509">
        <ele>134.6</ele>
        <time>2026-03-29T10:35:36Z</time>
      </trkpt>
      <trkpt lat="48.59018" lon="1.95096">
        <ele>134.2</ele>
        <time>2026-03-29T10:35:37Z</time>
      </trkpt>
      <trkpt lat="48.59023" lon="1.951">
        <ele>133.6</ele>
        <time>2026-03-29T10:35:38Z</time>
      </trkpt>
      <trkpt lat="48.59027" lon="1.95105">
        <ele>133.6</ele>
        <time>2026-03-29T10:35:39Z</time>
      </trkpt>
      <trkpt lat="48.59032" lon="1.9511">
        <ele>133.6</ele>
        <time>2026-03-29T10:35:40Z</time>
      </trkpt>
      <trkpt lat="48.59037" lon="1.95115">
        <ele>133.6</ele>
        <time>2026-03-29T10:35:41Z</time>
      </trkpt>
      <trkpt lat="48.59042" lon="1.95121">
        <ele>132.8</ele>
        <time>2026-03-29T10:35:42Z</time>
      </trkpt>
      <trkpt lat="48.59045" lon="1.95127">
        <ele>132.8</ele>
        <time>2026-03-29T10:35:43Z</time>
      </trkpt>
      <trkpt lat="48.5905" lon="1.95132">
        <ele>132.8</ele>
        <time>2026-03-29T10:35:44Z</time>
      </trkpt>
      <trkpt lat="48.59055" lon="1.95136">
        <ele>132.8</ele>
        <time>2026-03-29T10:35:45Z</time>
      </trkpt>
      <trkpt lat="48.59058" lon="1.95138">
        <ele>133.2</ele>
        <time>2026-03-29T10:35:46Z</time>
      </trkpt>
      <trkpt lat="48.59062" lon="1.95142">
        <ele>133.2</ele>
        <time>2026-03-29T10:35:47Z</time>
      </trkpt>
      <trkpt lat="48.59066" lon="1.95146">
        <ele>133.2</ele>
        <time>2026-03-29T10:35:48Z</time>
      </trkpt>
      <trkpt lat="48.59071" lon="1.9515">
        <ele>133.2</ele>
        <time>2026-03-29T10:35:49Z</time>
      </trkpt>
      <trkpt lat="48.59075" lon="1.95153">
        <ele>132.6</ele>
        <time>2026-03-29T10:35:50Z</time>
      </trkpt>
      <trkpt lat="48.59079" lon="1.95158">
        <ele>132.6</ele>
        <time>2026-03-29T10:35:51Z</time>
      </trkpt>
      <trkpt lat="48.59083" lon="1.95164">
        <ele>132.6</ele>
        <time>2026-03-29T10:35:52Z</time>
      </trkpt>
      <trkpt lat="48.59087" lon="1.95167">
        <ele>132.6</ele>
        <time>2026-03-29T10:35:53Z</time>
      </trkpt>
      <trkpt lat="48.59091" lon="1.95171">
        <ele>132.8</ele>
        <time>2026-03-29T10:35:54Z</time>
      </trkpt>
      <trkpt lat="48.59096" lon="1.95176">
        <ele>132.8</ele>
        <time>2026-03-29T10:35:55Z</time>
      </trkpt>
      <trkpt lat="48.59101" lon="1.95181">
        <ele>132.8</ele>
        <time>2026-03-29T10:35:56Z</time>
      </trkpt>
      <trkpt lat="48.59105" lon="1.95185">
        <ele>132</ele>
        <time>2026-03-29T10:35:57Z</time>
      </trkpt>
      <trkpt lat="48.5911" lon="1.95191">
        <ele>131.8</ele>
        <time>2026-03-29T10:35:58Z</time>
      </trkpt>
      <trkpt lat="48.59114" lon="1.95196">
        <ele>131.8</ele>
        <time>2026-03-29T10:35:59Z</time>
      </trkpt>
      <trkpt lat="48.59119" lon="1.952">
        <ele>131.8</ele>
        <time>2026-03-29T10:36:00Z</time>
      </trkpt>
      <trkpt lat="48.59124" lon="1.95205">
        <ele>131.8</ele>
        <time>2026-03-29T10:36:01Z</time>
      </trkpt>
      <trkpt lat="48.59128" lon="1.95208">
        <ele>131.2</ele>
        <time>2026-03-29T10:36:02Z</time>
      </trkpt>
      <trkpt lat="48.59133" lon="1.95212">
        <ele>131.2</ele>
        <time>2026-03-29T10:36:03Z</time>
      </trkpt>
      <trkpt lat="48.59137" lon="1.95216">
        <ele>131.2</ele>
        <time>2026-03-29T10:36:04Z</time>
      </trkpt>
      <trkpt lat="48.59142" lon="1.9522">
        <ele>131.2</ele>
        <time>2026-03-29T10:36:05Z</time>
      </trkpt>
      <trkpt lat="48.59148" lon="1.95225">
        <ele>131.4</ele>
        <time>2026-03-29T10:36:06Z</time>
      </trkpt>
      <trkpt lat="48.59152" lon="1.9523">
        <ele>131.4</ele>
        <time>2026-03-29T10:36:07Z</time>
      </trkpt>
      <trkpt lat="48.59158" lon="1.95236">
        <ele>131.4</ele>
        <time>2026-03-29T10:36:08Z</time>
      </trkpt>
      <trkpt lat="48.59162" lon="1.95241">
        <ele>130.8</ele>
        <time>2026-03-29T10:36:09Z</time>
      </trkpt>
      <trkpt lat="48.59167" lon="1.95245">
        <ele>131.2</ele>
        <time>2026-03-29T10:36:10Z</time>
      </trkpt>
      <trkpt lat="48.59172" lon="1.95251">
        <ele>131.2</ele>
        <time>2026-03-29T10:36:11Z</time>
      </trkpt>
      <trkpt lat="48.59178" lon="1.95256">
        <ele>131.2</ele>
        <time>2026-03-29T10:36:12Z</time>
      </trkpt>
      <trkpt lat="48.59184" lon="1.95261">
        <ele>130.2</ele>
        <time>2026-03-29T10:36:13Z</time>
      </trkpt>
      <trkpt lat="48.59188" lon="1.95265">
        <ele>130</ele>
        <time>2026-03-29T10:36:14Z</time>
      </trkpt>
      <trkpt lat="48.59193" lon="1.9527">
        <ele>130</ele>
        <time>2026-03-29T10:36:15Z</time>
      </trkpt>
      <trkpt lat="48.59198" lon="1.95275">
        <ele>130</ele>
        <time>2026-03-29T10:36:16Z</time>
      </trkpt>
      <trkpt lat="48.59202" lon="1.95279">
        <ele>129</ele>
        <time>2026-03-29T10:36:17Z</time>
      </trkpt>
      <trkpt lat="48.59208" lon="1.95285">
        <ele>129.4</ele>
        <time>2026-03-29T10:36:18Z</time>
      </trkpt>
      <trkpt lat="48.59213" lon="1.95291">
        <ele>129.4</ele>
        <time>2026-03-29T10:36:19Z</time>
      </trkpt>
      <trkpt lat="48.59219" lon="1.95296">
        <ele>129.4</ele>
        <time>2026-03-29T10:36:20Z</time>
      </trkpt>
      <trkpt lat="48.59224" lon="1.95301">
        <ele>129</ele>
        <time>2026-03-29T10:36:21Z</time>
      </trkpt>
      <trkpt lat="48.59228" lon="1.95307">
        <ele>128.4</ele>
        <time>2026-03-29T10:36:22Z</time>
      </trkpt>
      <trkpt lat="48.59234" lon="1.95312">
        <ele>128.4</ele>
        <time>2026-03-29T10:36:23Z</time>
      </trkpt>
      <trkpt lat="48.59239" lon="1.95317">
        <ele>128.4</ele>
        <time>2026-03-29T10:36:24Z</time>
      </trkpt>
      <trkpt lat="48.59245" lon="1.95322">
        <ele>128.4</ele>
        <time>2026-03-29T10:36:25Z</time>
      </trkpt>
      <trkpt lat="48.5925" lon="1.95328">
        <ele>128.4</ele>
        <time>2026-03-29T10:36:26Z</time>
      </trkpt>
      <trkpt lat="48.59255" lon="1.95334">
        <ele>128.4</ele>
        <time>2026-03-29T10:36:27Z</time>
      </trkpt>
      <trkpt lat="48.5926" lon="1.9534">
        <ele>128.4</ele>
        <time>2026-03-29T10:36:28Z</time>
      </trkpt>
      <trkpt lat="48.59265" lon="1.95345">
        <ele>127.8</ele>
        <time>2026-03-29T10:36:29Z</time>
      </trkpt>
      <trkpt lat="48.5927" lon="1.95351">
        <ele>127.8</ele>
        <time>2026-03-29T10:36:30Z</time>
      </trkpt>
      <trkpt lat="48.59275" lon="1.95355">
        <ele>127.8</ele>
        <time>2026-03-29T10:36:31Z</time>
      </trkpt>
      <trkpt lat="48.5928" lon="1.95359">
        <ele>127.8</ele>
        <time>2026-03-29T10:36:32Z</time>
      </trkpt>
      <trkpt lat="48.59284" lon="1.95364">
        <ele>127.4</ele>
        <time>2026-03-29T10:36:33Z</time>
      </trkpt>
      <trkpt lat="48.59288" lon="1.95368">
        <ele>126.6</ele>
        <time>2026-03-29T10:36:34Z</time>
      </trkpt>
      <trkpt lat="48.59291" lon="1.95371">
        <ele>126.6</ele>
        <time>2026-03-29T10:36:35Z</time>
      </trkpt>
      <trkpt lat="48.59295" lon="1.95374">
        <ele>126.6</ele>
        <time>2026-03-29T10:36:36Z</time>
      </trkpt>
      <trkpt lat="48.59299" lon="1.95378">
        <ele>126.8</ele>
        <time>2026-03-29T10:36:37Z</time>
      </trkpt>
      <trkpt lat="48.59303" lon="1.95382">
        <ele>126.2</ele>
        <time>2026-03-29T10:36:38Z</time>
      </trkpt>
      <trkpt lat="48.59308" lon="1.95387">
        <ele>126.2</ele>
        <time>2026-03-29T10:36:39Z</time>
      </trkpt>
      <trkpt lat="48.59313" lon="1.95392">
        <ele>126.2</ele>
        <time>2026-03-29T10:36:40Z</time>
      </trkpt>
      <trkpt lat="48.59317" lon="1.95397">
        <ele>126.2</ele>
        <time>2026-03-29T10:36:41Z</time>
      </trkpt>
      <trkpt lat="48.59322" lon="1.95401">
        <ele>126</ele>
        <time>2026-03-29T10:36:42Z</time>
      </trkpt>
      <trkpt lat="48.59327" lon="1.95406">
        <ele>126</ele>
        <time>2026-03-29T10:36:43Z</time>
      </trkpt>
      <trkpt lat="48.59331" lon="1.9541">
        <ele>126</ele>
        <time>2026-03-29T10:36:44Z</time>
      </trkpt>
      <trkpt lat="48.59336" lon="1.95414">
        <ele>126</ele>
        <time>2026-03-29T10:36:45Z</time>
      </trkpt>
      <trkpt lat="48.5934" lon="1.95419">
        <ele>125.8</ele>
        <time>2026-03-29T10:36:46Z</time>
      </trkpt>
      <trkpt lat="48.59344" lon="1.95422">
        <ele>125.8</ele>
        <time>2026-03-29T10:36:47Z</time>
      </trkpt>
      <trkpt lat="48.59347" lon="1.95426">
        <ele>125.8</ele>
        <time>2026-03-29T10:36:48Z</time>
      </trkpt>
      <trkpt lat="48.5935" lon="1.95431">
        <ele>125.4</ele>
        <time>2026-03-29T10:36:49Z</time>
      </trkpt>
      <trkpt lat="48.59354" lon="1.95435">
        <ele>125.2</ele>
        <time>2026-03-29T10:36:50Z</time>
      </trkpt>
      <trkpt lat="48.59359" lon="1.95439">
        <ele>125.2</ele>
        <time>2026-03-29T10:36:51Z</time>
      </trkpt>
      <trkpt lat="48.59363" lon="1.95443">
        <ele>125.2</ele>
        <time>2026-03-29T10:36:52Z</time>
      </trkpt>
      <trkpt lat="48.59367" lon="1.95447">
        <ele>125.2</ele>
        <time>2026-03-29T10:36:53Z</time>
      </trkpt>
      <trkpt lat="48.5937" lon="1.95451">
        <ele>124</ele>
        <time>2026-03-29T10:36:54Z</time>
      </trkpt>
      <trkpt lat="48.59374" lon="1.95454">
        <ele>124</ele>
        <time>2026-03-29T10:36:55Z</time>
      </trkpt>
      <trkpt lat="48.59378" lon="1.95457">
        <ele>124</ele>
        <time>2026-03-29T10:36:56Z</time>
      </trkpt>
      <trkpt lat="48.59383" lon="1.9546">
        <ele>124.4</ele>
        <time>2026-03-29T10:36:57Z</time>
      </trkpt>
      <trkpt lat="48.59386" lon="1.95464">
        <ele>124.4</ele>
        <time>2026-03-29T10:36:58Z</time>
      </trkpt>
      <trkpt lat="48.5939" lon="1.95469">
        <ele>124.4</ele>
        <time>2026-03-29T10:36:59Z</time>
      </trkpt>
      <trkpt lat="48.59394" lon="1.95472">
        <ele>124.4</ele>
        <time>2026-03-29T10:37:00Z</time>
      </trkpt>
      <trkpt lat="48.59398" lon="1.95476">
        <ele>124.8</ele>
        <time>2026-03-29T10:37:01Z</time>
      </trkpt>
      <trkpt lat="48.59402" lon="1.9548">
        <ele>124.8</ele>
        <time>2026-03-29T10:37:02Z</time>
      </trkpt>
      <trkpt lat="48.59405" lon="1.95483">
        <ele>124.8</ele>
        <time>2026-03-29T10:37:03Z</time>
      </trkpt>
      <trkpt lat="48.59409" lon="1.95487">
        <ele>124.8</ele>
        <time>2026-03-29T10:37:04Z</time>
      </trkpt>
      <trkpt lat="48.59413" lon="1.9549">
        <ele>124.8</ele>
        <time>2026-03-29T10:37:05Z</time>
      </trkpt>
      <trkpt lat="48.59417" lon="1.95494">
        <ele>125.2</ele>
        <time>2026-03-29T10:37:06Z</time>
      </trkpt>
      <trkpt lat="48.59421" lon="1.95498">
        <ele>125.2</ele>
        <time>2026-03-29T10:37:07Z</time>
      </trkpt>
      <trkpt lat="48.59425" lon="1.95501">
        <ele>125.2</ele>
        <time>2026-03-29T10:37:08Z</time>
      </trkpt>
      <trkpt lat="48.5943" lon="1.95506">
        <ele>124.4</ele>
        <time>2026-03-29T10:37:09Z</time>
      </trkpt>
      <trkpt lat="48.59434" lon="1.9551">
        <ele>124.6</ele>
        <time>2026-03-29T10:37:10Z</time>
      </trkpt>
      <trkpt lat="48.59439" lon="1.95515">
        <ele>124.6</ele>
        <time>2026-03-29T10:37:11Z</time>
      </trkpt>
      <trkpt lat="48.59443" lon="1.95519">
        <ele>124.6</ele>
        <time>2026-03-29T10:37:12Z</time>
      </trkpt>
      <trkpt lat="48.59446" lon="1.95523">
        <ele>124.6</ele>
        <time>2026-03-29T10:37:13Z</time>
      </trkpt>
      <trkpt lat="48.5945" lon="1.95526">
        <ele>123.8</ele>
        <time>2026-03-29T10:37:14Z</time>
      </trkpt>
      <trkpt lat="48.59453" lon="1.95527">
        <ele>123.8</ele>
        <time>2026-03-29T10:37:15Z</time>
      </trkpt>
      <trkpt lat="48.59457" lon="1.95531">
        <ele>123.8</ele>
        <time>2026-03-29T10:37:16Z</time>
      </trkpt>
      <trkpt lat="48.5946" lon="1.95535">
        <ele>124.4</ele>
        <time>2026-03-29T10:37:17Z</time>
      </trkpt>
      <trkpt lat="48.59463" lon="1.95539">
        <ele>124.4</ele>
        <time>2026-03-29T10:37:18Z</time>
      </trkpt>
      <trkpt lat="48.59466" lon="1.95542">
        <ele>124.4</ele>
        <time>2026-03-29T10:37:19Z</time>
      </trkpt>
      <trkpt lat="48.59469" lon="1.95546">
        <ele>124.4</ele>
        <time>2026-03-29T10:37:20Z</time>
      </trkpt>
      <trkpt lat="48.59473" lon="1.95549">
        <ele>124.4</ele>
        <time>2026-03-29T10:37:21Z</time>
      </trkpt>
      <trkpt lat="48.59477" lon="1.95552">
        <ele>124.6</ele>
        <time>2026-03-29T10:37:22Z</time>
      </trkpt>
      <trkpt lat="48.5948" lon="1.95557">
        <ele>124.6</ele>
        <time>2026-03-29T10:37:23Z</time>
      </trkpt>
      <trkpt lat="48.59483" lon="1.95561">
        <ele>124.6</ele>
        <time>2026-03-29T10:37:24Z</time>
      </trkpt>
      <trkpt lat="48.59486" lon="1.95565">
        <ele>124.4</ele>
        <time>2026-03-29T10:37:25Z</time>
      </trkpt>
      <trkpt lat="48.5949" lon="1.95569">
        <ele>124.8</ele>
        <time>2026-03-29T10:37:26Z</time>
      </trkpt>
      <trkpt lat="48.59494" lon="1.95573">
        <ele>124.8</ele>
        <time>2026-03-29T10:37:27Z</time>
      </trkpt>
      <trkpt lat="48.59497" lon="1.95577">
        <ele>124.8</ele>
        <time>2026-03-29T10:37:28Z</time>
      </trkpt>
      <trkpt lat="48.59499" lon="1.95581">
        <ele>124.6</ele>
        <time>2026-03-29T10:37:29Z</time>
      </trkpt>
      <trkpt lat="48.59503" lon="1.95585">
        <ele>124.4</ele>
        <time>2026-03-29T10:37:30Z</time>
      </trkpt>
      <trkpt lat="48.59507" lon="1.95588">
        <ele>124.4</ele>
        <time>2026-03-29T10:37:31Z</time>
      </trkpt>
      <trkpt lat="48.59511" lon="1.95592">
        <ele>124.4</ele>
        <time>2026-03-29T10:37:32Z</time>
      </trkpt>
      <trkpt lat="48.59515" lon="1.95597">
        <ele>124.4</ele>
        <time>2026-03-29T10:37:33Z</time>
      </trkpt>
      <trkpt lat="48.59518" lon="1.95601">
        <ele>124.2</ele>
        <time>2026-03-29T10:37:34Z</time>
      </trkpt>
      <trkpt lat="48.59522" lon="1.95604">
        <ele>124.2</ele>
        <time>2026-03-29T10:37:35Z</time>
      </trkpt>
      <trkpt lat="48.59526" lon="1.95607">
        <ele>124.2</ele>
        <time>2026-03-29T10:37:36Z</time>
      </trkpt>
      <trkpt lat="48.5953" lon="1.9561">
        <ele>124.2</ele>
        <time>2026-03-29T10:37:37Z</time>
      </trkpt>
      <trkpt lat="48.59534" lon="1.95613">
        <ele>123.6</ele>
        <time>2026-03-29T10:37:38Z</time>
      </trkpt>
      <trkpt lat="48.59538" lon="1.95617">
        <ele>123.6</ele>
        <time>2026-03-29T10:37:39Z</time>
      </trkpt>
      <trkpt lat="48.59541" lon="1.95621">
        <ele>123.6</ele>
        <time>2026-03-29T10:37:40Z</time>
      </trkpt>
      <trkpt lat="48.59546" lon="1.95624">
        <ele>124.4</ele>
        <time>2026-03-29T10:37:41Z</time>
      </trkpt>
      <trkpt lat="48.59549" lon="1.95626">
        <ele>124.4</ele>
        <time>2026-03-29T10:37:42Z</time>
      </trkpt>
      <trkpt lat="48.59552" lon="1.95629">
        <ele>124.4</ele>
        <time>2026-03-29T10:37:43Z</time>
      </trkpt>
      <trkpt lat="48.59556" lon="1.95631">
        <ele>124.4</ele>
        <time>2026-03-29T10:37:44Z</time>
      </trkpt>
      <trkpt lat="48.5956" lon="1.95634">
        <ele>124.8</ele>
        <time>2026-03-29T10:37:45Z</time>
      </trkpt>
      <trkpt lat="48.59564" lon="1.95636">
        <ele>124.6</ele>
        <time>2026-03-29T10:37:46Z</time>
      </trkpt>
      <trkpt lat="48.59568" lon="1.95638">
        <ele>124.6</ele>
        <time>2026-03-29T10:37:47Z</time>
      </trkpt>
      <trkpt lat="48.59571" lon="1.95639">
        <ele>124.6</ele>
        <time>2026-03-29T10:37:48Z</time>
      </trkpt>
      <trkpt lat="48.59575" lon="1.9564">
        <ele>124.6</ele>
        <time>2026-03-29T10:37:49Z</time>
      </trkpt>
      <trkpt lat="48.5958" lon="1.95641">
        <ele>124.2</ele>
        <time>2026-03-29T10:37:50Z</time>
      </trkpt>
      <trkpt lat="48.59584" lon="1.95643">
        <ele>124.2</ele>
        <time>2026-03-29T10:37:51Z</time>
      </trkpt>
      <trkpt lat="48.59588" lon="1.95642">
        <ele>124.2</ele>
        <time>2026-03-29T10:37:52Z</time>
      </trkpt>
      <trkpt lat="48.59593" lon="1.95641">
        <ele>125.2</ele>
        <time>2026-03-29T10:37:53Z</time>
      </trkpt>
      <trkpt lat="48.59598" lon="1.9564">
        <ele>125.4</ele>
        <time>2026-03-29T10:37:54Z</time>
      </trkpt>
      <trkpt lat="48.59603" lon="1.95637">
        <ele>125.4</ele>
        <time>2026-03-29T10:37:55Z</time>
      </trkpt>
      <trkpt lat="48.59608" lon="1.95636">
        <ele>125.4</ele>
        <time>2026-03-29T10:37:56Z</time>
      </trkpt>
      <trkpt lat="48.59613" lon="1.95635">
        <ele>125</ele>
        <time>2026-03-29T10:37:57Z</time>
      </trkpt>
      <trkpt lat="48.59617" lon="1.95635">
        <ele>124.8</ele>
        <time>2026-03-29T10:37:58Z</time>
      </trkpt>
      <trkpt lat="48.59622" lon="1.95634">
        <ele>124.8</ele>
        <time>2026-03-29T10:37:59Z</time>
      </trkpt>
      <trkpt lat="48.59625" lon="1.95635">
        <ele>124.8</ele>
        <time>2026-03-29T10:38:00Z</time>
      </trkpt>
      <trkpt lat="48.59629" lon="1.95635">
        <ele>124.8</ele>
        <time>2026-03-29T10:38:01Z</time>
      </trkpt>
      <trkpt lat="48.59633" lon="1.95636">
        <ele>124.8</ele>
        <time>2026-03-29T10:38:02Z</time>
      </trkpt>
      <trkpt lat="48.59637" lon="1.95636">
        <ele>124.8</ele>
        <time>2026-03-29T10:38:03Z</time>
      </trkpt>
      <trkpt lat="48.59641" lon="1.95637">
        <ele>124.8</ele>
        <time>2026-03-29T10:38:04Z</time>
      </trkpt>
      <trkpt lat="48.59645" lon="1.95638">
        <ele>124.8</ele>
        <time>2026-03-29T10:38:05Z</time>
      </trkpt>
      <trkpt lat="48.59648" lon="1.95639">
        <ele>125.4</ele>
        <time>2026-03-29T10:38:06Z</time>
      </trkpt>
      <trkpt lat="48.59652" lon="1.95639">
        <ele>125.4</ele>
        <time>2026-03-29T10:38:07Z</time>
      </trkpt>
      <trkpt lat="48.59655" lon="1.9564">
        <ele>125.4</ele>
        <time>2026-03-29T10:38:08Z</time>
      </trkpt>
      <trkpt lat="48.59659" lon="1.95641">
        <ele>125.4</ele>
        <time>2026-03-29T10:38:09Z</time>
      </trkpt>
      <trkpt lat="48.59663" lon="1.95643">
        <ele>125.8</ele>
        <time>2026-03-29T10:38:10Z</time>
      </trkpt>
      <trkpt lat="48.59666" lon="1.95644">
        <ele>125.8</ele>
        <time>2026-03-29T10:38:11Z</time>
      </trkpt>
      <trkpt lat="48.59669" lon="1.95647">
        <ele>125.8</ele>
        <time>2026-03-29T10:38:12Z</time>
      </trkpt>
      <trkpt lat="48.59671" lon="1.95649">
        <ele>125.8</ele>
        <time>2026-03-29T10:38:13Z</time>
      </trkpt>
      <trkpt lat="48.59674" lon="1.95649">
        <ele>125.8</ele>
        <time>2026-03-29T10:38:14Z</time>
      </trkpt>
      <trkpt lat="48.59678" lon="1.9565">
        <ele>125.8</ele>
        <time>2026-03-29T10:38:15Z</time>
      </trkpt>
      <trkpt lat="48.59682" lon="1.95652">
        <ele>125.8</ele>
        <time>2026-03-29T10:38:16Z</time>
      </trkpt>
      <trkpt lat="48.59685" lon="1.95653">
        <ele>126.2</ele>
        <time>2026-03-29T10:38:17Z</time>
      </trkpt>
      <trkpt lat="48.59688" lon="1.95653">
        <ele>126.4</ele>
        <time>2026-03-29T10:38:18Z</time>
      </trkpt>
      <trkpt lat="48.59692" lon="1.95654">
        <ele>126.4</ele>
        <time>2026-03-29T10:38:19Z</time>
      </trkpt>
      <trkpt lat="48.59695" lon="1.95654">
        <ele>126.4</ele>
        <time>2026-03-29T10:38:20Z</time>
      </trkpt>
      <trkpt lat="48.59698" lon="1.95655">
        <ele>126.4</ele>
        <time>2026-03-29T10:38:21Z</time>
      </trkpt>
      <trkpt lat="48.59702" lon="1.95656">
        <ele>126.6</ele>
        <time>2026-03-29T10:38:22Z</time>
      </trkpt>
      <trkpt lat="48.59706" lon="1.95658">
        <ele>126.6</ele>
        <time>2026-03-29T10:38:23Z</time>
      </trkpt>
      <trkpt lat="48.5971" lon="1.95659">
        <ele>126.6</ele>
        <time>2026-03-29T10:38:24Z</time>
      </trkpt>
      <trkpt lat="48.59713" lon="1.95659">
        <ele>126.6</ele>
        <time>2026-03-29T10:38:25Z</time>
      </trkpt>
      <trkpt lat="48.59717" lon="1.9566">
        <ele>126.8</ele>
        <time>2026-03-29T10:38:26Z</time>
      </trkpt>
      <trkpt lat="48.5972" lon="1.9566">
        <ele>126.8</ele>
        <time>2026-03-29T10:38:27Z</time>
      </trkpt>
      <trkpt lat="48.59724" lon="1.95662">
        <ele>126.8</ele>
        <time>2026-03-29T10:38:28Z</time>
      </trkpt>
      <trkpt lat="48.59727" lon="1.95663">
        <ele>126.8</ele>
        <time>2026-03-29T10:38:29Z</time>
      </trkpt>
      <trkpt lat="48.5973" lon="1.95664">
        <ele>127.2</ele>
        <time>2026-03-29T10:38:30Z</time>
      </trkpt>
      <trkpt lat="48.59733" lon="1.95666">
        <ele>127.2</ele>
        <time>2026-03-29T10:38:31Z</time>
      </trkpt>
      <trkpt lat="48.59736" lon="1.95669">
        <ele>127.2</ele>
        <time>2026-03-29T10:38:32Z</time>
      </trkpt>
      <trkpt lat="48.5974" lon="1.9567">
        <ele>127.2</ele>
        <time>2026-03-29T10:38:33Z</time>
      </trkpt>
      <trkpt lat="48.59743" lon="1.95671">
        <ele>127.6</ele>
        <time>2026-03-29T10:38:34Z</time>
      </trkpt>
      <trkpt lat="48.59745" lon="1.95672">
        <ele>127.6</ele>
        <time>2026-03-29T10:38:35Z</time>
      </trkpt>
      <trkpt lat="48.59748" lon="1.95673">
        <ele>127.6</ele>
        <time>2026-03-29T10:38:36Z</time>
      </trkpt>
      <trkpt lat="48.59752" lon="1.95675">
        <ele>127.6</ele>
        <time>2026-03-29T10:38:37Z</time>
      </trkpt>
      <trkpt lat="48.59756" lon="1.95676">
        <ele>127.4</ele>
        <time>2026-03-29T10:38:38Z</time>
      </trkpt>
      <trkpt lat="48.59758" lon="1.95676">
        <ele>127.4</ele>
        <time>2026-03-29T10:38:39Z</time>
      </trkpt>
      <trkpt lat="48.59762" lon="1.95676">
        <ele>127.4</ele>
        <time>2026-03-29T10:38:40Z</time>
      </trkpt>
      <trkpt lat="48.59765" lon="1.95677">
        <ele>127.6</ele>
        <time>2026-03-29T10:38:41Z</time>
      </trkpt>
      <trkpt lat="48.59768" lon="1.95677">
        <ele>128.2</ele>
        <time>2026-03-29T10:38:42Z</time>
      </trkpt>
      <trkpt lat="48.59772" lon="1.95679">
        <ele>128.2</ele>
        <time>2026-03-29T10:38:43Z</time>
      </trkpt>
      <trkpt lat="48.59775" lon="1.9568">
        <ele>128.2</ele>
        <time>2026-03-29T10:38:44Z</time>
      </trkpt>
      <trkpt lat="48.59777" lon="1.9568">
        <ele>128.2</ele>
        <time>2026-03-29T10:38:45Z</time>
      </trkpt>
      <trkpt lat="48.59781" lon="1.95682">
        <ele>128.6</ele>
        <time>2026-03-29T10:38:46Z</time>
      </trkpt>
      <trkpt lat="48.59783" lon="1.95682">
        <ele>128.6</ele>
        <time>2026-03-29T10:38:47Z</time>
      </trkpt>
      <trkpt lat="48.59786" lon="1.95682">
        <ele>128.6</ele>
        <time>2026-03-29T10:38:48Z</time>
      </trkpt>
      <trkpt lat="48.5979" lon="1.95681">
        <ele>129</ele>
        <time>2026-03-29T10:38:49Z</time>
      </trkpt>
      <trkpt lat="48.59793" lon="1.95681">
        <ele>129.4</ele>
        <time>2026-03-29T10:38:50Z</time>
      </trkpt>
      <trkpt lat="48.59795" lon="1.9568">
        <ele>129.4</ele>
        <time>2026-03-29T10:38:51Z</time>
      </trkpt>
      <trkpt lat="48.59798" lon="1.9568">
        <ele>129.4</ele>
        <time>2026-03-29T10:38:52Z</time>
      </trkpt>
      <trkpt lat="48.59803" lon="1.9568">
        <ele>129.4</ele>
        <time>2026-03-29T10:38:53Z</time>
      </trkpt>
      <trkpt lat="48.59807" lon="1.95679">
        <ele>129</ele>
        <time>2026-03-29T10:38:54Z</time>
      </trkpt>
      <trkpt lat="48.5981" lon="1.95679">
        <ele>129</ele>
        <time>2026-03-29T10:38:55Z</time>
      </trkpt>
      <trkpt lat="48.59815" lon="1.95678">
        <ele>129</ele>
        <time>2026-03-29T10:38:56Z</time>
      </trkpt>
      <trkpt lat="48.59817" lon="1.95678">
        <ele>130</ele>
        <time>2026-03-29T10:38:57Z</time>
      </trkpt>
      <trkpt lat="48.59821" lon="1.95678">
        <ele>130</ele>
        <time>2026-03-29T10:38:58Z</time>
      </trkpt>
      <trkpt lat="48.59824" lon="1.95678">
        <ele>130</ele>
        <time>2026-03-29T10:38:59Z</time>
      </trkpt>
      <trkpt lat="48.59827" lon="1.95678">
        <ele>130</ele>
        <time>2026-03-29T10:39:00Z</time>
      </trkpt>
      <trkpt lat="48.5983" lon="1.95678">
        <ele>130</ele>
        <time>2026-03-29T10:39:01Z</time>
      </trkpt>
      <trkpt lat="48.59834" lon="1.95678">
        <ele>130</ele>
        <time>2026-03-29T10:39:02Z</time>
      </trkpt>
      <trkpt lat="48.59837" lon="1.95678">
        <ele>130</ele>
        <time>2026-03-29T10:39:03Z</time>
      </trkpt>
      <trkpt lat="48.59841" lon="1.95677">
        <ele>130</ele>
        <time>2026-03-29T10:39:04Z</time>
      </trkpt>
      <trkpt lat="48.59844" lon="1.95676">
        <ele>130</ele>
        <time>2026-03-29T10:39:05Z</time>
      </trkpt>
      <trkpt lat="48.59847" lon="1.95677">
        <ele>130.6</ele>
        <time>2026-03-29T10:39:06Z</time>
      </trkpt>
      <trkpt lat="48.5985" lon="1.95678">
        <ele>130.6</ele>
        <time>2026-03-29T10:39:07Z</time>
      </trkpt>
      <trkpt lat="48.59852" lon="1.95678">
        <ele>130.6</ele>
        <time>2026-03-29T10:39:08Z</time>
      </trkpt>
      <trkpt lat="48.59855" lon="1.95677">
        <ele>130.8</ele>
        <time>2026-03-29T10:39:09Z</time>
      </trkpt>
      <trkpt lat="48.59858" lon="1.95676">
        <ele>131</ele>
        <time>2026-03-29T10:39:10Z</time>
      </trkpt>
      <trkpt lat="48.59861" lon="1.95677">
        <ele>131</ele>
        <time>2026-03-29T10:39:11Z</time>
      </trkpt>
      <trkpt lat="48.59863" lon="1.95677">
        <ele>131</ele>
        <time>2026-03-29T10:39:12Z</time>
      </trkpt>
      <trkpt lat="48.59867" lon="1.95677">
        <ele>131.8</ele>
        <time>2026-03-29T10:39:13Z</time>
      </trkpt>
      <trkpt lat="48.5987" lon="1.95677">
        <ele>131.8</ele>
        <time>2026-03-29T10:39:14Z</time>
      </trkpt>
      <trkpt lat="48.59873" lon="1.95677">
        <ele>131.8</ele>
        <time>2026-03-29T10:39:15Z</time>
      </trkpt>
      <trkpt lat="48.59876" lon="1.95677">
        <ele>131.8</ele>
        <time>2026-03-29T10:39:16Z</time>
      </trkpt>
      <trkpt lat="48.59878" lon="1.95677">
        <ele>131.8</ele>
        <time>2026-03-29T10:39:17Z</time>
      </trkpt>
      <trkpt lat="48.59881" lon="1.95677">
        <ele>132.6</ele>
        <time>2026-03-29T10:39:18Z</time>
      </trkpt>
      <trkpt lat="48.59884" lon="1.95678">
        <ele>132.6</ele>
        <time>2026-03-29T10:39:19Z</time>
      </trkpt>
      <trkpt lat="48.59888" lon="1.95677">
        <ele>132.6</ele>
        <time>2026-03-29T10:39:20Z</time>
      </trkpt>
      <trkpt lat="48.5989" lon="1.95677">
        <ele>132.6</ele>
        <time>2026-03-29T10:39:21Z</time>
      </trkpt>
      <trkpt lat="48.59893" lon="1.95677">
        <ele>132.6</ele>
        <time>2026-03-29T10:39:22Z</time>
      </trkpt>
      <trkpt lat="48.59896" lon="1.95676">
        <ele>132.6</ele>
        <time>2026-03-29T10:39:23Z</time>
      </trkpt>
      <trkpt lat="48.59899" lon="1.95676">
        <ele>132.6</ele>
        <time>2026-03-29T10:39:24Z</time>
      </trkpt>
      <trkpt lat="48.59902" lon="1.95677">
        <ele>133.4</ele>
        <time>2026-03-29T10:39:25Z</time>
      </trkpt>
      <trkpt lat="48.59906" lon="1.95676">
        <ele>133.2</ele>
        <time>2026-03-29T10:39:26Z</time>
      </trkpt>
      <trkpt lat="48.5991" lon="1.95674">
        <ele>133.2</ele>
        <time>2026-03-29T10:39:27Z</time>
      </trkpt>
      <trkpt lat="48.59914" lon="1.95675">
        <ele>133.2</ele>
        <time>2026-03-29T10:39:28Z</time>
      </trkpt>
      <trkpt lat="48.59918" lon="1.95674">
        <ele>134.2</ele>
        <time>2026-03-29T10:39:29Z</time>
      </trkpt>
      <trkpt lat="48.59922" lon="1.95674">
        <ele>134.2</ele>
        <time>2026-03-29T10:39:30Z</time>
      </trkpt>
      <trkpt lat="48.59926" lon="1.95673">
        <ele>134.2</ele>
        <time>2026-03-29T10:39:31Z</time>
      </trkpt>
      <trkpt lat="48.59929" lon="1.95673">
        <ele>134.2</ele>
        <time>2026-03-29T10:39:32Z</time>
      </trkpt>
      <trkpt lat="48.59932" lon="1.95673">
        <ele>134.2</ele>
        <time>2026-03-29T10:39:33Z</time>
      </trkpt>
      <trkpt lat="48.59936" lon="1.95675">
        <ele>134</ele>
        <time>2026-03-29T10:39:34Z</time>
      </trkpt>
      <trkpt lat="48.5994" lon="1.95677">
        <ele>134</ele>
        <time>2026-03-29T10:39:35Z</time>
      </trkpt>
      <trkpt lat="48.59944" lon="1.95678">
        <ele>134</ele>
        <time>2026-03-29T10:39:36Z</time>
      </trkpt>
      <trkpt lat="48.59949" lon="1.95679">
        <ele>134</ele>
        <time>2026-03-29T10:39:37Z</time>
      </trkpt>
      <trkpt lat="48.59955" lon="1.9568">
        <ele>133</ele>
        <time>2026-03-29T10:39:38Z</time>
      </trkpt>
      <trkpt lat="48.59961" lon="1.95681">
        <ele>133</ele>
        <time>2026-03-29T10:39:39Z</time>
      </trkpt>
      <trkpt lat="48.59966" lon="1.95684">
        <ele>133</ele>
        <time>2026-03-29T10:39:40Z</time>
      </trkpt>
      <trkpt lat="48.5997" lon="1.95686">
        <ele>132</ele>
        <time>2026-03-29T10:39:41Z</time>
      </trkpt>
      <trkpt lat="48.59976" lon="1.95691">
        <ele>132</ele>
        <time>2026-03-29T10:39:42Z</time>
      </trkpt>
      <trkpt lat="48.59981" lon="1.95696">
        <ele>132</ele>
        <time>2026-03-29T10:39:43Z</time>
      </trkpt>
      <trkpt lat="48.59986" lon="1.95701">
        <ele>132</ele>
        <time>2026-03-29T10:39:44Z</time>
      </trkpt>
      <trkpt lat="48.5999" lon="1.95708">
        <ele>131</ele>
        <time>2026-03-29T10:39:45Z</time>
      </trkpt>
      <trkpt lat="48.59995" lon="1.95714">
        <ele>130.4</ele>
        <time>2026-03-29T10:39:46Z</time>
      </trkpt>
      <trkpt lat="48.59999" lon="1.95722">
        <ele>130.4</ele>
        <time>2026-03-29T10:39:47Z</time>
      </trkpt>
      <trkpt lat="48.60003" lon="1.95729">
        <ele>130.4</ele>
        <time>2026-03-29T10:39:48Z</time>
      </trkpt>
      <trkpt lat="48.60005" lon="1.95736">
        <ele>129.6</ele>
        <time>2026-03-29T10:39:49Z</time>
      </trkpt>
      <trkpt lat="48.60008" lon="1.95744">
        <ele>129.6</ele>
        <time>2026-03-29T10:39:50Z</time>
      </trkpt>
      <trkpt lat="48.60011" lon="1.95751">
        <ele>129.6</ele>
        <time>2026-03-29T10:39:51Z</time>
      </trkpt>
      <trkpt lat="48.60015" lon="1.95759">
        <ele>129.6</ele>
        <time>2026-03-29T10:39:52Z</time>
      </trkpt>
      <trkpt lat="48.60018" lon="1.95766">
        <ele>129.6</ele>
        <time>2026-03-29T10:39:53Z</time>
      </trkpt>
      <trkpt lat="48.60021" lon="1.95773">
        <ele>128.6</ele>
        <time>2026-03-29T10:39:54Z</time>
      </trkpt>
      <trkpt lat="48.60024" lon="1.95782">
        <ele>128.6</ele>
        <time>2026-03-29T10:39:55Z</time>
      </trkpt>
      <trkpt lat="48.60028" lon="1.95789">
        <ele>128.6</ele>
        <time>2026-03-29T10:39:56Z</time>
      </trkpt>
      <trkpt lat="48.60031" lon="1.95796">
        <ele>128.2</ele>
        <time>2026-03-29T10:39:57Z</time>
      </trkpt>
      <trkpt lat="48.60035" lon="1.95803">
        <ele>127.2</ele>
        <time>2026-03-29T10:39:58Z</time>
      </trkpt>
      <trkpt lat="48.60038" lon="1.9581">
        <ele>127.2</ele>
        <time>2026-03-29T10:39:59Z</time>
      </trkpt>
      <trkpt lat="48.60042" lon="1.95817">
        <ele>127.2</ele>
        <time>2026-03-29T10:40:00Z</time>
      </trkpt>
      <trkpt lat="48.60045" lon="1.95823">
        <ele>127.2</ele>
        <time>2026-03-29T10:40:01Z</time>
      </trkpt>
      <trkpt lat="48.60048" lon="1.95829">
        <ele>127.2</ele>
        <time>2026-03-29T10:40:02Z</time>
      </trkpt>
      <trkpt lat="48.60052" lon="1.95835">
        <ele>127.2</ele>
        <time>2026-03-29T10:40:03Z</time>
      </trkpt>
      <trkpt lat="48.60056" lon="1.9584">
        <ele>127.2</ele>
        <time>2026-03-29T10:40:04Z</time>
      </trkpt>
      <trkpt lat="48.6006" lon="1.95844">
        <ele>126.2</ele>
        <time>2026-03-29T10:40:05Z</time>
      </trkpt>
      <trkpt lat="48.60064" lon="1.95847">
        <ele>126.4</ele>
        <time>2026-03-29T10:40:06Z</time>
      </trkpt>
      <trkpt lat="48.60067" lon="1.9585">
        <ele>126.4</ele>
        <time>2026-03-29T10:40:07Z</time>
      </trkpt>
      <trkpt lat="48.60071" lon="1.95853">
        <ele>126.4</ele>
        <time>2026-03-29T10:40:08Z</time>
      </trkpt>
      <trkpt lat="48.60074" lon="1.95857">
        <ele>126.4</ele>
        <time>2026-03-29T10:40:09Z</time>
      </trkpt>
      <trkpt lat="48.60079" lon="1.9586">
        <ele>125.8</ele>
        <time>2026-03-29T10:40:10Z</time>
      </trkpt>
      <trkpt lat="48.60083" lon="1.95863">
        <ele>125.8</ele>
        <time>2026-03-29T10:40:11Z</time>
      </trkpt>
      <trkpt lat="48.60088" lon="1.95864">
        <ele>125.8</ele>
        <time>2026-03-29T10:40:12Z</time>
      </trkpt>
      <trkpt lat="48.60092" lon="1.95865">
        <ele>125.8</ele>
        <time>2026-03-29T10:40:13Z</time>
      </trkpt>
      <trkpt lat="48.60097" lon="1.95866">
        <ele>125.4</ele>
        <time>2026-03-29T10:40:14Z</time>
      </trkpt>
      <trkpt lat="48.60102" lon="1.95867">
        <ele>125.4</ele>
        <time>2026-03-29T10:40:15Z</time>
      </trkpt>
      <trkpt lat="48.60107" lon="1.95867">
        <ele>125.4</ele>
        <time>2026-03-29T10:40:16Z</time>
      </trkpt>
      <trkpt lat="48.6011" lon="1.95866">
        <ele>125.4</ele>
        <time>2026-03-29T10:40:17Z</time>
      </trkpt>
      <trkpt lat="48.60114" lon="1.95866">
        <ele>125.2</ele>
        <time>2026-03-29T10:40:18Z</time>
      </trkpt>
      <trkpt lat="48.60118" lon="1.95865">
        <ele>125.2</ele>
        <time>2026-03-29T10:40:19Z</time>
      </trkpt>
      <trkpt lat="48.60121" lon="1.95864">
        <ele>125.2</ele>
        <time>2026-03-29T10:40:20Z</time>
      </trkpt>
      <trkpt lat="48.60124" lon="1.95863">
        <ele>124.6</ele>
        <time>2026-03-29T10:40:21Z</time>
      </trkpt>
      <trkpt lat="48.60129" lon="1.95863">
        <ele>124</ele>
        <time>2026-03-29T10:40:22Z</time>
      </trkpt>
      <trkpt lat="48.60133" lon="1.95863">
        <ele>124</ele>
        <time>2026-03-29T10:40:23Z</time>
      </trkpt>
      <trkpt lat="48.60137" lon="1.95863">
        <ele>124</ele>
        <time>2026-03-29T10:40:24Z</time>
      </trkpt>
      <trkpt lat="48.60141" lon="1.95863">
        <ele>124.4</ele>
        <time>2026-03-29T10:40:25Z</time>
      </trkpt>
      <trkpt lat="48.60146" lon="1.95862">
        <ele>124.4</ele>
        <time>2026-03-29T10:40:26Z</time>
      </trkpt>
      <trkpt lat="48.6015" lon="1.95863">
        <ele>124.4</ele>
        <time>2026-03-29T10:40:27Z</time>
      </trkpt>
      <trkpt lat="48.60155" lon="1.95862">
        <ele>124.4</ele>
        <time>2026-03-29T10:40:28Z</time>
      </trkpt>
      <trkpt lat="48.60159" lon="1.95862">
        <ele>124</ele>
        <time>2026-03-29T10:40:29Z</time>
      </trkpt>
      <trkpt lat="48.60163" lon="1.95862">
        <ele>123.6</ele>
        <time>2026-03-29T10:40:30Z</time>
      </trkpt>
      <trkpt lat="48.60167" lon="1.95864">
        <ele>123.6</ele>
        <time>2026-03-29T10:40:31Z</time>
      </trkpt>
      <trkpt lat="48.60172" lon="1.95864">
        <ele>123.6</ele>
        <time>2026-03-29T10:40:32Z</time>
      </trkpt>
      <trkpt lat="48.60176" lon="1.95863">
        <ele>123.6</ele>
        <time>2026-03-29T10:40:33Z</time>
      </trkpt>
      <trkpt lat="48.6018" lon="1.95863">
        <ele>123.2</ele>
        <time>2026-03-29T10:40:34Z</time>
      </trkpt>
      <trkpt lat="48.60185" lon="1.95862">
        <ele>123.2</ele>
        <time>2026-03-29T10:40:35Z</time>
      </trkpt>
      <trkpt lat="48.60189" lon="1.95861">
        <ele>123.2</ele>
        <time>2026-03-29T10:40:36Z</time>
      </trkpt>
      <trkpt lat="48.60193" lon="1.95861">
        <ele>123.2</ele>
        <time>2026-03-29T10:40:37Z</time>
      </trkpt>
      <trkpt lat="48.60197" lon="1.9586">
        <ele>123</ele>
        <time>2026-03-29T10:40:38Z</time>
      </trkpt>
      <trkpt lat="48.60201" lon="1.95859">
        <ele>123</ele>
        <time>2026-03-29T10:40:39Z</time>
      </trkpt>
      <trkpt lat="48.60204" lon="1.95859">
        <ele>123</ele>
        <time>2026-03-29T10:40:40Z</time>
      </trkpt>
      <trkpt lat="48.60208" lon="1.95858">
        <ele>123</ele>
        <time>2026-03-29T10:40:41Z</time>
      </trkpt>
      <trkpt lat="48.60212" lon="1.95858">
        <ele>122.6</ele>
        <time>2026-03-29T10:40:42Z</time>
      </trkpt>
      <trkpt lat="48.60216" lon="1.95857">
        <ele>122.6</ele>
        <time>2026-03-29T10:40:43Z</time>
      </trkpt>
      <trkpt lat="48.60218" lon="1.95856">
        <ele>122.6</ele>
        <time>2026-03-29T10:40:44Z</time>
      </trkpt>
      <trkpt lat="48.60222" lon="1.95852">
        <ele>122.6</ele>
        <time>2026-03-29T10:40:45Z</time>
      </trkpt>
      <trkpt lat="48.60225" lon="1.95847">
        <ele>121.6</ele>
        <time>2026-03-29T10:40:46Z</time>
      </trkpt>
      <trkpt lat="48.60227" lon="1.95842">
        <ele>121.6</ele>
        <time>2026-03-29T10:40:47Z</time>
      </trkpt>
      <trkpt lat="48.60231" lon="1.95836">
        <ele>121.6</ele>
        <time>2026-03-29T10:40:48Z</time>
      </trkpt>
      <trkpt lat="48.60235" lon="1.9583">
        <ele>121.6</ele>
        <time>2026-03-29T10:40:49Z</time>
      </trkpt>
      <trkpt lat="48.60238" lon="1.95824">
        <ele>121.2</ele>
        <time>2026-03-29T10:40:50Z</time>
      </trkpt>
      <trkpt lat="48.60242" lon="1.95819">
        <ele>121.2</ele>
        <time>2026-03-29T10:40:51Z</time>
      </trkpt>
      <trkpt lat="48.60246" lon="1.95812">
        <ele>121.2</ele>
        <time>2026-03-29T10:40:52Z</time>
      </trkpt>
      <trkpt lat="48.60249" lon="1.95807">
        <ele>120.2</ele>
        <time>2026-03-29T10:40:53Z</time>
      </trkpt>
      <trkpt lat="48.60252" lon="1.95803">
        <ele>120.4</ele>
        <time>2026-03-29T10:40:54Z</time>
      </trkpt>
      <trkpt lat="48.60255" lon="1.95799">
        <ele>120.4</ele>
        <time>2026-03-29T10:40:55Z</time>
      </trkpt>
      <trkpt lat="48.60258" lon="1.95798">
        <ele>120.4</ele>
        <time>2026-03-29T10:40:56Z</time>
      </trkpt>
      <trkpt lat="48.6026" lon="1.958">
        <ele>120.4</ele>
        <time>2026-03-29T10:40:57Z</time>
      </trkpt>
      <trkpt lat="48.60264" lon="1.958">
        <ele>120.4</ele>
        <time>2026-03-29T10:40:58Z</time>
      </trkpt>
      <trkpt lat="48.60267" lon="1.958">
        <ele>120.4</ele>
        <time>2026-03-29T10:40:59Z</time>
      </trkpt>
      <trkpt lat="48.6027" lon="1.95801">
        <ele>120.4</ele>
        <time>2026-03-29T10:41:00Z</time>
      </trkpt>
      <trkpt lat="48.60273" lon="1.95802">
        <ele>120</ele>
        <time>2026-03-29T10:41:01Z</time>
      </trkpt>
      <trkpt lat="48.60275" lon="1.95804">
        <ele>120.2</ele>
        <time>2026-03-29T10:41:02Z</time>
      </trkpt>
      <trkpt lat="48.60278" lon="1.95808">
        <ele>120.2</ele>
        <time>2026-03-29T10:41:03Z</time>
      </trkpt>
      <trkpt lat="48.60281" lon="1.95811">
        <ele>120.2</ele>
        <time>2026-03-29T10:41:04Z</time>
      </trkpt>
      <trkpt lat="48.60284" lon="1.95815">
        <ele>119.6</ele>
        <time>2026-03-29T10:41:05Z</time>
      </trkpt>
      <trkpt lat="48.60286" lon="1.95817">
        <ele>119.6</ele>
        <time>2026-03-29T10:41:06Z</time>
      </trkpt>
      <trkpt lat="48.60289" lon="1.95818">
        <ele>119.6</ele>
        <time>2026-03-29T10:41:07Z</time>
      </trkpt>
      <trkpt lat="48.60292" lon="1.95819">
        <ele>119.6</ele>
        <time>2026-03-29T10:41:08Z</time>
      </trkpt>
      <trkpt lat="48.60296" lon="1.95821">
        <ele>119.6</ele>
        <time>2026-03-29T10:41:09Z</time>
      </trkpt>
      <trkpt lat="48.60299" lon="1.95822">
        <ele>119</ele>
        <time>2026-03-29T10:41:10Z</time>
      </trkpt>
      <trkpt lat="48.60303" lon="1.95822">
        <ele>119</ele>
        <time>2026-03-29T10:41:11Z</time>
      </trkpt>
      <trkpt lat="48.60306" lon="1.95822">
        <ele>119</ele>
        <time>2026-03-29T10:41:12Z</time>
      </trkpt>
      <trkpt lat="48.60308" lon="1.95824">
        <ele>118.8</ele>
        <time>2026-03-29T10:41:13Z</time>
      </trkpt>
      <trkpt lat="48.60309" lon="1.95826">
        <ele>119</ele>
        <time>2026-03-29T10:41:14Z</time>
      </trkpt>
      <trkpt lat="48.60309" lon="1.95828">
        <ele>119</ele>
        <time>2026-03-29T10:41:15Z</time>
      </trkpt>
      <trkpt lat="48.6031" lon="1.95831">
        <ele>119</ele>
        <time>2026-03-29T10:41:16Z</time>
      </trkpt>
      <trkpt lat="48.60312" lon="1.95833">
        <ele>119</ele>
        <time>2026-03-29T10:41:17Z</time>
      </trkpt>
      <trkpt lat="48.60314" lon="1.95834">
        <ele>119.4</ele>
        <time>2026-03-29T10:41:18Z</time>
      </trkpt>
      <trkpt lat="48.60317" lon="1.95837">
        <ele>119.4</ele>
        <time>2026-03-29T10:41:19Z</time>
      </trkpt>
      <trkpt lat="48.6032" lon="1.95839">
        <ele>119.4</ele>
        <time>2026-03-29T10:41:20Z</time>
      </trkpt>
      <trkpt lat="48.60324" lon="1.9584">
        <ele>119.4</ele>
        <time>2026-03-29T10:41:21Z</time>
      </trkpt>
      <trkpt lat="48.60327" lon="1.9584">
        <ele>119.2</ele>
        <time>2026-03-29T10:41:22Z</time>
      </trkpt>
      <trkpt lat="48.6033" lon="1.95839">
        <ele>119.2</ele>
        <time>2026-03-29T10:41:23Z</time>
      </trkpt>
      <trkpt lat="48.60333" lon="1.95839">
        <ele>119.2</ele>
        <time>2026-03-29T10:41:24Z</time>
      </trkpt>
      <trkpt lat="48.60337" lon="1.95841">
        <ele>119.2</ele>
        <time>2026-03-29T10:41:25Z</time>
      </trkpt>
      <trkpt lat="48.60342" lon="1.95843">
        <ele>119</ele>
        <time>2026-03-29T10:41:26Z</time>
      </trkpt>
      <trkpt lat="48.60345" lon="1.95846">
        <ele>119</ele>
        <time>2026-03-29T10:41:27Z</time>
      </trkpt>
      <trkpt lat="48.60348" lon="1.95846">
        <ele>119</ele>
        <time>2026-03-29T10:41:28Z</time>
      </trkpt>
      <trkpt lat="48.60351" lon="1.95846">
        <ele>119</ele>
        <time>2026-03-29T10:41:29Z</time>
      </trkpt>
      <trkpt lat="48.60356" lon="1.95847">
        <ele>119</ele>
        <time>2026-03-29T10:41:30Z</time>
      </trkpt>
      <trkpt lat="48.60359" lon="1.95849">
        <ele>119</ele>
        <time>2026-03-29T10:41:31Z</time>
      </trkpt>
      <trkpt lat="48.60362" lon="1.95849">
        <ele>119</ele>
        <time>2026-03-29T10:41:32Z</time>
      </trkpt>
      <trkpt lat="48.60365" lon="1.95849">
        <ele>119</ele>
        <time>2026-03-29T10:41:33Z</time>
      </trkpt>
      <trkpt lat="48.60368" lon="1.95849">
        <ele>119</ele>
        <time>2026-03-29T10:41:34Z</time>
      </trkpt>
      <trkpt lat="48.60373" lon="1.9585">
        <ele>119</ele>
        <time>2026-03-29T10:41:35Z</time>
      </trkpt>
      <trkpt lat="48.60376" lon="1.95851">
        <ele>119</ele>
        <time>2026-03-29T10:41:36Z</time>
      </trkpt>
      <trkpt lat="48.60378" lon="1.95853">
        <ele>118.8</ele>
        <time>2026-03-29T10:41:37Z</time>
      </trkpt>
      <trkpt lat="48.60381" lon="1.95854">
        <ele>118.4</ele>
        <time>2026-03-29T10:41:38Z</time>
      </trkpt>
      <trkpt lat="48.60384" lon="1.95855">
        <ele>118.4</ele>
        <time>2026-03-29T10:41:39Z</time>
      </trkpt>
      <trkpt lat="48.60388" lon="1.95856">
        <ele>118.4</ele>
        <time>2026-03-29T10:41:40Z</time>
      </trkpt>
      <trkpt lat="48.60391" lon="1.95856">
        <ele>118.4</ele>
        <time>2026-03-29T10:41:41Z</time>
      </trkpt>
      <trkpt lat="48.60395" lon="1.95858">
        <ele>118.4</ele>
        <time>2026-03-29T10:41:42Z</time>
      </trkpt>
      <trkpt lat="48.60398" lon="1.95858">
        <ele>118.4</ele>
        <time>2026-03-29T10:41:43Z</time>
      </trkpt>
      <trkpt lat="48.60402" lon="1.95859">
        <ele>118.4</ele>
        <time>2026-03-29T10:41:44Z</time>
      </trkpt>
      <trkpt lat="48.60406" lon="1.9586">
        <ele>118.4</ele>
        <time>2026-03-29T10:41:45Z</time>
      </trkpt>
      <trkpt lat="48.6041" lon="1.9586">
        <ele>117.6</ele>
        <time>2026-03-29T10:41:46Z</time>
      </trkpt>
      <trkpt lat="48.60414" lon="1.95861">
        <ele>117.6</ele>
        <time>2026-03-29T10:41:47Z</time>
      </trkpt>
      <trkpt lat="48.60416" lon="1.9586">
        <ele>117.6</ele>
        <time>2026-03-29T10:41:48Z</time>
      </trkpt>
      <trkpt lat="48.60421" lon="1.95862">
        <ele>118.4</ele>
        <time>2026-03-29T10:41:49Z</time>
      </trkpt>
      <trkpt lat="48.60426" lon="1.95863">
        <ele>117.8</ele>
        <time>2026-03-29T10:41:50Z</time>
      </trkpt>
      <trkpt lat="48.6043" lon="1.95864">
        <ele>117.8</ele>
        <time>2026-03-29T10:41:51Z</time>
      </trkpt>
      <trkpt lat="48.60434" lon="1.95865">
        <ele>117.8</ele>
        <time>2026-03-29T10:41:52Z</time>
      </trkpt>
      <trkpt lat="48.60439" lon="1.95867">
        <ele>118</ele>
        <time>2026-03-29T10:41:53Z</time>
      </trkpt>
      <trkpt lat="48.60443" lon="1.95869">
        <ele>117.8</ele>
        <time>2026-03-29T10:41:54Z</time>
      </trkpt>
      <trkpt lat="48.60448" lon="1.9587">
        <ele>117.8</ele>
        <time>2026-03-29T10:41:55Z</time>
      </trkpt>
      <trkpt lat="48.6045" lon="1.95872">
        <ele>117.8</ele>
        <time>2026-03-29T10:41:56Z</time>
      </trkpt>
      <trkpt lat="48.60454" lon="1.95874">
        <ele>117.8</ele>
        <time>2026-03-29T10:41:57Z</time>
      </trkpt>
      <trkpt lat="48.60458" lon="1.95876">
        <ele>117.8</ele>
        <time>2026-03-29T10:41:58Z</time>
      </trkpt>
      <trkpt lat="48.60462" lon="1.95878">
        <ele>117.8</ele>
        <time>2026-03-29T10:41:59Z</time>
      </trkpt>
      <trkpt lat="48.60465" lon="1.95879">
        <ele>117.8</ele>
        <time>2026-03-29T10:42:00Z</time>
      </trkpt>
      <trkpt lat="48.60469" lon="1.95881">
        <ele>117.8</ele>
        <time>2026-03-29T10:42:01Z</time>
      </trkpt>
      <trkpt lat="48.60471" lon="1.95883">
        <ele>117.8</ele>
        <time>2026-03-29T10:42:02Z</time>
      </trkpt>
      <trkpt lat="48.60475" lon="1.95885">
        <ele>117.8</ele>
        <time>2026-03-29T10:42:03Z</time>
      </trkpt>
      <trkpt lat="48.60479" lon="1.95887">
        <ele>117.8</ele>
        <time>2026-03-29T10:42:04Z</time>
      </trkpt>
      <trkpt lat="48.60482" lon="1.95888">
        <ele>117.8</ele>
        <time>2026-03-29T10:42:05Z</time>
      </trkpt>
      <trkpt lat="48.60486" lon="1.95892">
        <ele>118</ele>
        <time>2026-03-29T10:42:06Z</time>
      </trkpt>
      <trkpt lat="48.6049" lon="1.95896">
        <ele>118</ele>
        <time>2026-03-29T10:42:07Z</time>
      </trkpt>
      <trkpt lat="48.60493" lon="1.959">
        <ele>118</ele>
        <time>2026-03-29T10:42:08Z</time>
      </trkpt>
      <trkpt lat="48.60496" lon="1.95903">
        <ele>117.4</ele>
        <time>2026-03-29T10:42:09Z</time>
      </trkpt>
      <trkpt lat="48.605" lon="1.95906">
        <ele>117.8</ele>
        <time>2026-03-29T10:42:10Z</time>
      </trkpt>
      <trkpt lat="48.60502" lon="1.95909">
        <ele>117.8</ele>
        <time>2026-03-29T10:42:11Z</time>
      </trkpt>
      <trkpt lat="48.60506" lon="1.95911">
        <ele>117.8</ele>
        <time>2026-03-29T10:42:12Z</time>
      </trkpt>
      <trkpt lat="48.60511" lon="1.95914">
        <ele>117.8</ele>
        <time>2026-03-29T10:42:13Z</time>
      </trkpt>
      <trkpt lat="48.60515" lon="1.95917">
        <ele>117.4</ele>
        <time>2026-03-29T10:42:14Z</time>
      </trkpt>
      <trkpt lat="48.60518" lon="1.9592">
        <ele>117.4</ele>
        <time>2026-03-29T10:42:15Z</time>
      </trkpt>
      <trkpt lat="48.60521" lon="1.95923">
        <ele>117.4</ele>
        <time>2026-03-29T10:42:16Z</time>
      </trkpt>
      <trkpt lat="48.60524" lon="1.95926">
        <ele>117.4</ele>
        <time>2026-03-29T10:42:17Z</time>
      </trkpt>
      <trkpt lat="48.60527" lon="1.95928">
        <ele>117.8</ele>
        <time>2026-03-29T10:42:18Z</time>
      </trkpt>
      <trkpt lat="48.6053" lon="1.95931">
        <ele>117.8</ele>
        <time>2026-03-29T10:42:19Z</time>
      </trkpt>
      <trkpt lat="48.60533" lon="1.95932">
        <ele>117.8</ele>
        <time>2026-03-29T10:42:20Z</time>
      </trkpt>
      <trkpt lat="48.60536" lon="1.95934">
        <ele>117.8</ele>
        <time>2026-03-29T10:42:21Z</time>
      </trkpt>
      <trkpt lat="48.60538" lon="1.95936">
        <ele>117.8</ele>
        <time>2026-03-29T10:42:22Z</time>
      </trkpt>
      <trkpt lat="48.60541" lon="1.95939">
        <ele>117.8</ele>
        <time>2026-03-29T10:42:23Z</time>
      </trkpt>
      <trkpt lat="48.60546" lon="1.95942">
        <ele>117.8</ele>
        <time>2026-03-29T10:42:24Z</time>
      </trkpt>
      <trkpt lat="48.60549" lon="1.95947">
        <ele>117.8</ele>
        <time>2026-03-29T10:42:25Z</time>
      </trkpt>
      <trkpt lat="48.60553" lon="1.95951">
        <ele>116.6</ele>
        <time>2026-03-29T10:42:26Z</time>
      </trkpt>
      <trkpt lat="48.60555" lon="1.95954">
        <ele>116.6</ele>
        <time>2026-03-29T10:42:27Z</time>
      </trkpt>
      <trkpt lat="48.60559" lon="1.95957">
        <ele>116.6</ele>
        <time>2026-03-29T10:42:28Z</time>
      </trkpt>
      <trkpt lat="48.60561" lon="1.95959">
        <ele>117</ele>
        <time>2026-03-29T10:42:29Z</time>
      </trkpt>
      <trkpt lat="48.60564" lon="1.95963">
        <ele>116.8</ele>
        <time>2026-03-29T10:42:30Z</time>
      </trkpt>
      <trkpt lat="48.60567" lon="1.95965">
        <ele>116.8</ele>
        <time>2026-03-29T10:42:31Z</time>
      </trkpt>
      <trkpt lat="48.60571" lon="1.95969">
        <ele>116.8</ele>
        <time>2026-03-29T10:42:32Z</time>
      </trkpt>
      <trkpt lat="48.60573" lon="1.95971">
        <ele>116.8</ele>
        <time>2026-03-29T10:42:33Z</time>
      </trkpt>
      <trkpt lat="48.60576" lon="1.95974">
        <ele>117.2</ele>
        <time>2026-03-29T10:42:34Z</time>
      </trkpt>
      <trkpt lat="48.60579" lon="1.95977">
        <ele>117.2</ele>
        <time>2026-03-29T10:42:35Z</time>
      </trkpt>
      <trkpt lat="48.60581" lon="1.95979">
        <ele>117.2</ele>
        <time>2026-03-29T10:42:36Z</time>
      </trkpt>
      <trkpt lat="48.60582" lon="1.9598">
        <ele>117.2</ele>
        <time>2026-03-29T10:42:37Z</time>
      </trkpt>
      <trkpt lat="48.60585" lon="1.95983">
        <ele>117.6</ele>
        <time>2026-03-29T10:42:38Z</time>
      </trkpt>
      <trkpt lat="48.60588" lon="1.95985">
        <ele>117.6</ele>
        <time>2026-03-29T10:42:39Z</time>
      </trkpt>
      <trkpt lat="48.60592" lon="1.95988">
        <ele>117.6</ele>
        <time>2026-03-29T10:42:40Z</time>
      </trkpt>
      <trkpt lat="48.60595" lon="1.9599">
        <ele>117.6</ele>
        <time>2026-03-29T10:42:41Z</time>
      </trkpt>
      <trkpt lat="48.60599" lon="1.95993">
        <ele>118.6</ele>
        <time>2026-03-29T10:42:42Z</time>
      </trkpt>
      <trkpt lat="48.60601" lon="1.95994">
        <ele>118.6</ele>
        <time>2026-03-29T10:42:43Z</time>
      </trkpt>
      <trkpt lat="48.60603" lon="1.95994">
        <ele>118.6</ele>
        <time>2026-03-29T10:42:44Z</time>
      </trkpt>
      <trkpt lat="48.60607" lon="1.95996">
        <ele>118.6</ele>
        <time>2026-03-29T10:42:45Z</time>
      </trkpt>
      <trkpt lat="48.6061" lon="1.95995">
        <ele>117.8</ele>
        <time>2026-03-29T10:42:46Z</time>
      </trkpt>
      <trkpt lat="48.60614" lon="1.95993">
        <ele>117.8</ele>
        <time>2026-03-29T10:42:47Z</time>
      </trkpt>
      <trkpt lat="48.60618" lon="1.95991">
        <ele>117.8</ele>
        <time>2026-03-29T10:42:48Z</time>
      </trkpt>
      <trkpt lat="48.60622" lon="1.95988">
        <ele>116.8</ele>
        <time>2026-03-29T10:42:49Z</time>
      </trkpt>
      <trkpt lat="48.60627" lon="1.95988">
        <ele>116.4</ele>
        <time>2026-03-29T10:42:50Z</time>
      </trkpt>
      <trkpt lat="48.60631" lon="1.95986">
        <ele>116.4</ele>
        <time>2026-03-29T10:42:51Z</time>
      </trkpt>
      <trkpt lat="48.60637" lon="1.95984">
        <ele>116.4</ele>
        <time>2026-03-29T10:42:52Z</time>
      </trkpt>
      <trkpt lat="48.60641" lon="1.95981">
        <ele>116.4</ele>
        <time>2026-03-29T10:42:53Z</time>
      </trkpt>
      <trkpt lat="48.60644" lon="1.95975">
        <ele>116</ele>
        <time>2026-03-29T10:42:54Z</time>
      </trkpt>
      <trkpt lat="48.60646" lon="1.9597">
        <ele>116</ele>
        <time>2026-03-29T10:42:55Z</time>
      </trkpt>
      <trkpt lat="48.60649" lon="1.95965">
        <ele>116</ele>
        <time>2026-03-29T10:42:56Z</time>
      </trkpt>
      <trkpt lat="48.60651" lon="1.95958">
        <ele>115.2</ele>
        <time>2026-03-29T10:42:57Z</time>
      </trkpt>
      <trkpt lat="48.60651" lon="1.95952">
        <ele>114.4</ele>
        <time>2026-03-29T10:42:58Z</time>
      </trkpt>
      <trkpt lat="48.60652" lon="1.95947">
        <ele>114.4</ele>
        <time>2026-03-29T10:42:59Z</time>
      </trkpt>
      <trkpt lat="48.60652" lon="1.95942">
        <ele>114.4</ele>
        <time>2026-03-29T10:43:00Z</time>
      </trkpt>
      <trkpt lat="48.60652" lon="1.95939">
        <ele>114.8</ele>
        <time>2026-03-29T10:43:01Z</time>
      </trkpt>
      <trkpt lat="48.60651" lon="1.95936">
        <ele>114.8</ele>
        <time>2026-03-29T10:43:02Z</time>
      </trkpt>
      <trkpt lat="48.6065" lon="1.95933">
        <ele>114.8</ele>
        <time>2026-03-29T10:43:03Z</time>
      </trkpt>
      <trkpt lat="48.6065" lon="1.95931">
        <ele>114.8</ele>
        <time>2026-03-29T10:43:04Z</time>
      </trkpt>
      <trkpt lat="48.60651" lon="1.95928">
        <ele>115.2</ele>
        <time>2026-03-29T10:43:05Z</time>
      </trkpt>
      <trkpt lat="48.60652" lon="1.95924">
        <ele>115</ele>
        <time>2026-03-29T10:43:06Z</time>
      </trkpt>
      <trkpt lat="48.60653" lon="1.95922">
        <ele>115</ele>
        <time>2026-03-29T10:43:07Z</time>
      </trkpt>
      <trkpt lat="48.60655" lon="1.95919">
        <ele>115</ele>
        <time>2026-03-29T10:43:08Z</time>
      </trkpt>
      <trkpt lat="48.60657" lon="1.95916">
        <ele>115.2</ele>
        <time>2026-03-29T10:43:09Z</time>
      </trkpt>
      <trkpt lat="48.60658" lon="1.95914">
        <ele>115.6</ele>
        <time>2026-03-29T10:43:10Z</time>
      </trkpt>
      <trkpt lat="48.6066" lon="1.95911">
        <ele>115.6</ele>
        <time>2026-03-29T10:43:11Z</time>
      </trkpt>
      <trkpt lat="48.60662" lon="1.95909">
        <ele>115.6</ele>
        <time>2026-03-29T10:43:12Z</time>
      </trkpt>
      <trkpt lat="48.60664" lon="1.95905">
        <ele>115.6</ele>
        <time>2026-03-29T10:43:13Z</time>
      </trkpt>
      <trkpt lat="48.60667" lon="1.95901">
        <ele>115.4</ele>
        <time>2026-03-29T10:43:14Z</time>
      </trkpt>
      <trkpt lat="48.60668" lon="1.95898">
        <ele>115.4</ele>
        <time>2026-03-29T10:43:15Z</time>
      </trkpt>
      <trkpt lat="48.6067" lon="1.95894">
        <ele>115.4</ele>
        <time>2026-03-29T10:43:16Z</time>
      </trkpt>
      <trkpt lat="48.60672" lon="1.95889">
        <ele>115.4</ele>
        <time>2026-03-29T10:43:17Z</time>
      </trkpt>
      <trkpt lat="48.60674" lon="1.95886">
        <ele>115</ele>
        <time>2026-03-29T10:43:18Z</time>
      </trkpt>
      <trkpt lat="48.60675" lon="1.95882">
        <ele>115</ele>
        <time>2026-03-29T10:43:19Z</time>
      </trkpt>
      <trkpt lat="48.60677" lon="1.95877">
        <ele>115</ele>
        <time>2026-03-29T10:43:20Z</time>
      </trkpt>
      <trkpt lat="48.60678" lon="1.95873">
        <ele>115.6</ele>
        <time>2026-03-29T10:43:21Z</time>
      </trkpt>
      <trkpt lat="48.60679" lon="1.9587">
        <ele>115.6</ele>
        <time>2026-03-29T10:43:22Z</time>
      </trkpt>
      <trkpt lat="48.6068" lon="1.95866">
        <ele>115.6</ele>
        <time>2026-03-29T10:43:23Z</time>
      </trkpt>
      <trkpt lat="48.60681" lon="1.95861">
        <ele>115.6</ele>
        <time>2026-03-29T10:43:24Z</time>
      </trkpt>
      <trkpt lat="48.60682" lon="1.95856">
        <ele>116</ele>
        <time>2026-03-29T10:43:25Z</time>
      </trkpt>
      <trkpt lat="48.60683" lon="1.95852">
        <ele>115.8</ele>
        <time>2026-03-29T10:43:26Z</time>
      </trkpt>
      <trkpt lat="48.60683" lon="1.95848">
        <ele>115.8</ele>
        <time>2026-03-29T10:43:27Z</time>
      </trkpt>
      <trkpt lat="48.60683" lon="1.95843">
        <ele>115.8</ele>
        <time>2026-03-29T10:43:28Z</time>
      </trkpt>
      <trkpt lat="48.60683" lon="1.9584">
        <ele>116.8</ele>
        <time>2026-03-29T10:43:29Z</time>
      </trkpt>
      <trkpt lat="48.60683" lon="1.95835">
        <ele>116.6</ele>
        <time>2026-03-29T10:43:30Z</time>
      </trkpt>
      <trkpt lat="48.60684" lon="1.95831">
        <ele>116.6</ele>
        <time>2026-03-29T10:43:31Z</time>
      </trkpt>
      <trkpt lat="48.60684" lon="1.95826">
        <ele>116.6</ele>
        <time>2026-03-29T10:43:32Z</time>
      </trkpt>
      <trkpt lat="48.60686" lon="1.95819">
        <ele>116</ele>
        <time>2026-03-29T10:43:33Z</time>
      </trkpt>
      <trkpt lat="48.60687" lon="1.95813">
        <ele>115.6</ele>
        <time>2026-03-29T10:43:34Z</time>
      </trkpt>
      <trkpt lat="48.60689" lon="1.95808">
        <ele>115.6</ele>
        <time>2026-03-29T10:43:35Z</time>
      </trkpt>
      <trkpt lat="48.6069" lon="1.95803">
        <ele>115.6</ele>
        <time>2026-03-29T10:43:36Z</time>
      </trkpt>
      <trkpt lat="48.60692" lon="1.95797">
        <ele>115.6</ele>
        <time>2026-03-29T10:43:37Z</time>
      </trkpt>
      <trkpt lat="48.60694" lon="1.95792">
        <ele>115.6</ele>
        <time>2026-03-29T10:43:38Z</time>
      </trkpt>
      <trkpt lat="48.60694" lon="1.95787">
        <ele>115.6</ele>
        <time>2026-03-29T10:43:39Z</time>
      </trkpt>
      <trkpt lat="48.60693" lon="1.95781">
        <ele>115.6</ele>
        <time>2026-03-29T10:43:40Z</time>
      </trkpt>
      <trkpt lat="48.60692" lon="1.95777">
        <ele>115.8</ele>
        <time>2026-03-29T10:43:41Z</time>
      </trkpt>
      <trkpt lat="48.6069" lon="1.95772">
        <ele>116</ele>
        <time>2026-03-29T10:43:42Z</time>
      </trkpt>
      <trkpt lat="48.60688" lon="1.95767">
        <ele>116</ele>
        <time>2026-03-29T10:43:43Z</time>
      </trkpt>
      <trkpt lat="48.60687" lon="1.95761">
        <ele>116</ele>
        <time>2026-03-29T10:43:44Z</time>
      </trkpt>
      <trkpt lat="48.60686" lon="1.95756">
        <ele>116</ele>
        <time>2026-03-29T10:43:45Z</time>
      </trkpt>
      <trkpt lat="48.60685" lon="1.95751">
        <ele>116.6</ele>
        <time>2026-03-29T10:43:46Z</time>
      </trkpt>
      <trkpt lat="48.60684" lon="1.95746">
        <ele>116.6</ele>
        <time>2026-03-29T10:43:47Z</time>
      </trkpt>
      <trkpt lat="48.60685" lon="1.95741">
        <ele>116.6</ele>
        <time>2026-03-29T10:43:48Z</time>
      </trkpt>
      <trkpt lat="48.60685" lon="1.95737">
        <ele>116.6</ele>
        <time>2026-03-29T10:43:49Z</time>
      </trkpt>
      <trkpt lat="48.60684" lon="1.95732">
        <ele>116</ele>
        <time>2026-03-29T10:43:50Z</time>
      </trkpt>
      <trkpt lat="48.60685" lon="1.95728">
        <ele>116</ele>
        <time>2026-03-29T10:43:51Z</time>
      </trkpt>
      <trkpt lat="48.60685" lon="1.95722">
        <ele>116</ele>
        <time>2026-03-29T10:43:52Z</time>
      </trkpt>
      <trkpt lat="48.60685" lon="1.95716">
        <ele>116</ele>
        <time>2026-03-29T10:43:53Z</time>
      </trkpt>
      <trkpt lat="48.60685" lon="1.9571">
        <ele>115.8</ele>
        <time>2026-03-29T10:43:54Z</time>
      </trkpt>
      <trkpt lat="48.60685" lon="1.95705">
        <ele>115.8</ele>
        <time>2026-03-29T10:43:55Z</time>
      </trkpt>
      <trkpt lat="48.60686" lon="1.95699">
        <ele>115.8</ele>
        <time>2026-03-29T10:43:56Z</time>
      </trkpt>
      <trkpt lat="48.60686" lon="1.95693">
        <ele>115.8</ele>
        <time>2026-03-29T10:43:57Z</time>
      </trkpt>
      <trkpt lat="48.60685" lon="1.95688">
        <ele>115.8</ele>
        <time>2026-03-29T10:43:58Z</time>
      </trkpt>
      <trkpt lat="48.60684" lon="1.95684">
        <ele>115.8</ele>
        <time>2026-03-29T10:43:59Z</time>
      </trkpt>
      <trkpt lat="48.60681" lon="1.9568">
        <ele>115.8</ele>
        <time>2026-03-29T10:44:00Z</time>
      </trkpt>
      <trkpt lat="48.60679" lon="1.95678">
        <ele>115.8</ele>
        <time>2026-03-29T10:44:01Z</time>
      </trkpt>
      <trkpt lat="48.60678" lon="1.95676">
        <ele>116</ele>
        <time>2026-03-29T10:44:02Z</time>
      </trkpt>
      <trkpt lat="48.60675" lon="1.95675">
        <ele>116</ele>
        <time>2026-03-29T10:44:03Z</time>
      </trkpt>
      <trkpt lat="48.60673" lon="1.95673">
        <ele>116</ele>
        <time>2026-03-29T10:44:04Z</time>
      </trkpt>
      <trkpt lat="48.60671" lon="1.95671">
        <ele>117</ele>
        <time>2026-03-29T10:44:05Z</time>
      </trkpt>
      <trkpt lat="48.60669" lon="1.9567">
        <ele>116.4</ele>
        <time>2026-03-29T10:44:06Z</time>
      </trkpt>
      <trkpt lat="48.60666" lon="1.95669">
        <ele>116.4</ele>
        <time>2026-03-29T10:44:07Z</time>
      </trkpt>
      <trkpt lat="48.60664" lon="1.95668">
        <ele>116.4</ele>
        <time>2026-03-29T10:44:08Z</time>
      </trkpt>
      <trkpt lat="48.60662" lon="1.95666">
        <ele>117.4</ele>
        <time>2026-03-29T10:44:09Z</time>
      </trkpt>
      <trkpt lat="48.60661" lon="1.95664">
        <ele>117.2</ele>
        <time>2026-03-29T10:44:10Z</time>
      </trkpt>
      <trkpt lat="48.6066" lon="1.95662">
        <ele>117.2</ele>
        <time>2026-03-29T10:44:11Z</time>
      </trkpt>
      <trkpt lat="48.60658" lon="1.9566">
        <ele>117.2</ele>
        <time>2026-03-29T10:44:12Z</time>
      </trkpt>
      <trkpt lat="48.60656" lon="1.95659">
        <ele>117.2</ele>
        <time>2026-03-29T10:44:13Z</time>
      </trkpt>
      <trkpt lat="48.60654" lon="1.95658">
        <ele>117.6</ele>
        <time>2026-03-29T10:44:14Z</time>
      </trkpt>
      <trkpt lat="48.60651" lon="1.95656">
        <ele>117.6</ele>
        <time>2026-03-29T10:44:15Z</time>
      </trkpt>
      <trkpt lat="48.60649" lon="1.95654">
        <ele>117.6</ele>
        <time>2026-03-29T10:44:16Z</time>
      </trkpt>
      <trkpt lat="48.60647" lon="1.9565">
        <ele>117.6</ele>
        <time>2026-03-29T10:44:17Z</time>
      </trkpt>
      <trkpt lat="48.60645" lon="1.95646">
        <ele>117.2</ele>
        <time>2026-03-29T10:44:18Z</time>
      </trkpt>
      <trkpt lat="48.60643" lon="1.95642">
        <ele>117.2</ele>
        <time>2026-03-29T10:44:19Z</time>
      </trkpt>
      <trkpt lat="48.60641" lon="1.95639">
        <ele>117.2</ele>
        <time>2026-03-29T10:44:20Z</time>
      </trkpt>
      <trkpt lat="48.60639" lon="1.95635">
        <ele>117.2</ele>
        <time>2026-03-29T10:44:21Z</time>
      </trkpt>
      <trkpt lat="48.60635" lon="1.95631">
        <ele>117.6</ele>
        <time>2026-03-29T10:44:22Z</time>
      </trkpt>
      <trkpt lat="48.60632" lon="1.95627">
        <ele>117.6</ele>
        <time>2026-03-29T10:44:23Z</time>
      </trkpt>
      <trkpt lat="48.60629" lon="1.95624">
        <ele>117.6</ele>
        <time>2026-03-29T10:44:24Z</time>
      </trkpt>
      <trkpt lat="48.60626" lon="1.9562">
        <ele>118</ele>
        <time>2026-03-29T10:44:25Z</time>
      </trkpt>
      <trkpt lat="48.60625" lon="1.95617">
        <ele>118.2</ele>
        <time>2026-03-29T10:44:26Z</time>
      </trkpt>
      <trkpt lat="48.60624" lon="1.95614">
        <ele>118.2</ele>
        <time>2026-03-29T10:44:27Z</time>
      </trkpt>
      <trkpt lat="48.60623" lon="1.95611">
        <ele>118.2</ele>
        <time>2026-03-29T10:44:28Z</time>
      </trkpt>
      <trkpt lat="48.60621" lon="1.95608">
        <ele>118.2</ele>
        <time>2026-03-29T10:44:29Z</time>
      </trkpt>
      <trkpt lat="48.60619" lon="1.95604">
        <ele>118</ele>
        <time>2026-03-29T10:44:30Z</time>
      </trkpt>
      <trkpt lat="48.60616" lon="1.95599">
        <ele>118</ele>
        <time>2026-03-29T10:44:31Z</time>
      </trkpt>
      <trkpt lat="48.60616" lon="1.95595">
        <ele>118</ele>
        <time>2026-03-29T10:44:32Z</time>
      </trkpt>
      <trkpt lat="48.60616" lon="1.95591">
        <ele>118</ele>
        <time>2026-03-29T10:44:33Z</time>
      </trkpt>
      <trkpt lat="48.60617" lon="1.95586">
        <ele>117.8</ele>
        <time>2026-03-29T10:44:34Z</time>
      </trkpt>
      <trkpt lat="48.60616" lon="1.95581">
        <ele>117.8</ele>
        <time>2026-03-29T10:44:35Z</time>
      </trkpt>
      <trkpt lat="48.60616" lon="1.95578">
        <ele>117.8</ele>
        <time>2026-03-29T10:44:36Z</time>
      </trkpt>
      <trkpt lat="48.60615" lon="1.95572">
        <ele>117.8</ele>
        <time>2026-03-29T10:44:37Z</time>
      </trkpt>
      <trkpt lat="48.60615" lon="1.95571">
        <ele>117.8</ele>
        <time>2026-03-29T10:44:38Z</time>
      </trkpt>
      <trkpt lat="48.60613" lon="1.95565">
        <ele>117.8</ele>
        <time>2026-03-29T10:44:39Z</time>
      </trkpt>
      <trkpt lat="48.60613" lon="1.95559">
        <ele>117.8</ele>
        <time>2026-03-29T10:44:40Z</time>
      </trkpt>
      <trkpt lat="48.60613" lon="1.95555">
        <ele>117.8</ele>
        <time>2026-03-29T10:44:41Z</time>
      </trkpt>
      <trkpt lat="48.60612" lon="1.95551">
        <ele>118</ele>
        <time>2026-03-29T10:44:42Z</time>
      </trkpt>
      <trkpt lat="48.60611" lon="1.95546">
        <ele>118</ele>
        <time>2026-03-29T10:44:43Z</time>
      </trkpt>
      <trkpt lat="48.6061" lon="1.9554">
        <ele>118</ele>
        <time>2026-03-29T10:44:44Z</time>
      </trkpt>
      <trkpt lat="48.60609" lon="1.95537">
        <ele>117.6</ele>
        <time>2026-03-29T10:44:45Z</time>
      </trkpt>
      <trkpt lat="48.60609" lon="1.95531">
        <ele>117.8</ele>
        <time>2026-03-29T10:44:46Z</time>
      </trkpt>
      <trkpt lat="48.60608" lon="1.95526">
        <ele>117.8</ele>
        <time>2026-03-29T10:44:47Z</time>
      </trkpt>
      <trkpt lat="48.60607" lon="1.95523">
        <ele>117.8</ele>
        <time>2026-03-29T10:44:48Z</time>
      </trkpt>
      <trkpt lat="48.60606" lon="1.95517">
        <ele>117.8</ele>
        <time>2026-03-29T10:44:49Z</time>
      </trkpt>
      <trkpt lat="48.60606" lon="1.95512">
        <ele>118.4</ele>
        <time>2026-03-29T10:44:50Z</time>
      </trkpt>
      <trkpt lat="48.60605" lon="1.95507">
        <ele>118.4</ele>
        <time>2026-03-29T10:44:51Z</time>
      </trkpt>
      <trkpt lat="48.60604" lon="1.95501">
        <ele>118.4</ele>
        <time>2026-03-29T10:44:52Z</time>
      </trkpt>
      <trkpt lat="48.60603" lon="1.95497">
        <ele>118.4</ele>
        <time>2026-03-29T10:44:53Z</time>
      </trkpt>
      <trkpt lat="48.60601" lon="1.95492">
        <ele>118.4</ele>
        <time>2026-03-29T10:44:54Z</time>
      </trkpt>
      <trkpt lat="48.60601" lon="1.95488">
        <ele>118.4</ele>
        <time>2026-03-29T10:44:55Z</time>
      </trkpt>
      <trkpt lat="48.606" lon="1.95483">
        <ele>118.4</ele>
        <time>2026-03-29T10:44:56Z</time>
      </trkpt>
      <trkpt lat="48.606" lon="1.95479">
        <ele>118.8</ele>
        <time>2026-03-29T10:44:57Z</time>
      </trkpt>
      <trkpt lat="48.60599" lon="1.95474">
        <ele>118.8</ele>
        <time>2026-03-29T10:44:58Z</time>
      </trkpt>
      <trkpt lat="48.60598" lon="1.95469">
        <ele>118.8</ele>
        <time>2026-03-29T10:44:59Z</time>
      </trkpt>
      <trkpt lat="48.60596" lon="1.95462">
        <ele>118.8</ele>
        <time>2026-03-29T10:45:00Z</time>
      </trkpt>
      <trkpt lat="48.60594" lon="1.95457">
        <ele>118.8</ele>
        <time>2026-03-29T10:45:01Z</time>
      </trkpt>
      <trkpt lat="48.60593" lon="1.95451">
        <ele>120</ele>
        <time>2026-03-29T10:45:02Z</time>
      </trkpt>
      <trkpt lat="48.60592" lon="1.95446">
        <ele>120</ele>
        <time>2026-03-29T10:45:03Z</time>
      </trkpt>
      <trkpt lat="48.60592" lon="1.95441">
        <ele>120</ele>
        <time>2026-03-29T10:45:04Z</time>
      </trkpt>
      <trkpt lat="48.60592" lon="1.95435">
        <ele>119.6</ele>
        <time>2026-03-29T10:45:05Z</time>
      </trkpt>
      <trkpt lat="48.60591" lon="1.9543">
        <ele>119.2</ele>
        <time>2026-03-29T10:45:06Z</time>
      </trkpt>
      <trkpt lat="48.6059" lon="1.95426">
        <ele>119.2</ele>
        <time>2026-03-29T10:45:07Z</time>
      </trkpt>
      <trkpt lat="48.6059" lon="1.9542">
        <ele>119.2</ele>
        <time>2026-03-29T10:45:08Z</time>
      </trkpt>
      <trkpt lat="48.60588" lon="1.95416">
        <ele>119.2</ele>
        <time>2026-03-29T10:45:09Z</time>
      </trkpt>
      <trkpt lat="48.60587" lon="1.95411">
        <ele>119</ele>
        <time>2026-03-29T10:45:10Z</time>
      </trkpt>
      <trkpt lat="48.60587" lon="1.95407">
        <ele>119</ele>
        <time>2026-03-29T10:45:11Z</time>
      </trkpt>
      <trkpt lat="48.60588" lon="1.95403">
        <ele>119</ele>
        <time>2026-03-29T10:45:12Z</time>
      </trkpt>
      <trkpt lat="48.60588" lon="1.95399">
        <ele>119</ele>
        <time>2026-03-29T10:45:13Z</time>
      </trkpt>
      <trkpt lat="48.60587" lon="1.95392">
        <ele>119</ele>
        <time>2026-03-29T10:45:14Z</time>
      </trkpt>
      <trkpt lat="48.60587" lon="1.95388">
        <ele>119</ele>
        <time>2026-03-29T10:45:15Z</time>
      </trkpt>
      <trkpt lat="48.60586" lon="1.95384">
        <ele>119</ele>
        <time>2026-03-29T10:45:16Z</time>
      </trkpt>
      <trkpt lat="48.60584" lon="1.95378">
        <ele>119</ele>
        <time>2026-03-29T10:45:17Z</time>
      </trkpt>
      <trkpt lat="48.60583" lon="1.95374">
        <ele>119</ele>
        <time>2026-03-29T10:45:18Z</time>
      </trkpt>
      <trkpt lat="48.60582" lon="1.9537">
        <ele>119</ele>
        <time>2026-03-29T10:45:19Z</time>
      </trkpt>
      <trkpt lat="48.60581" lon="1.95366">
        <ele>119</ele>
        <time>2026-03-29T10:45:20Z</time>
      </trkpt>
      <trkpt lat="48.60581" lon="1.95361">
        <ele>119.6</ele>
        <time>2026-03-29T10:45:21Z</time>
      </trkpt>
      <trkpt lat="48.6058" lon="1.95357">
        <ele>119.6</ele>
        <time>2026-03-29T10:45:22Z</time>
      </trkpt>
      <trkpt lat="48.60579" lon="1.95351">
        <ele>119.6</ele>
        <time>2026-03-29T10:45:23Z</time>
      </trkpt>
      <trkpt lat="48.60578" lon="1.95346">
        <ele>119.6</ele>
        <time>2026-03-29T10:45:24Z</time>
      </trkpt>
      <trkpt lat="48.60577" lon="1.95341">
        <ele>119.6</ele>
        <time>2026-03-29T10:45:25Z</time>
      </trkpt>
      <trkpt lat="48.60577" lon="1.95337">
        <ele>119.8</ele>
        <time>2026-03-29T10:45:26Z</time>
      </trkpt>
      <trkpt lat="48.60577" lon="1.95332">
        <ele>119.8</ele>
        <time>2026-03-29T10:45:27Z</time>
      </trkpt>
      <trkpt lat="48.60577" lon="1.95327">
        <ele>119.8</ele>
        <time>2026-03-29T10:45:28Z</time>
      </trkpt>
      <trkpt lat="48.60576" lon="1.9532">
        <ele>119.8</ele>
        <time>2026-03-29T10:45:29Z</time>
      </trkpt>
      <trkpt lat="48.60576" lon="1.95314">
        <ele>119.2</ele>
        <time>2026-03-29T10:45:30Z</time>
      </trkpt>
      <trkpt lat="48.60576" lon="1.95309">
        <ele>119.2</ele>
        <time>2026-03-29T10:45:31Z</time>
      </trkpt>
      <trkpt lat="48.60575" lon="1.95304">
        <ele>119.2</ele>
        <time>2026-03-29T10:45:32Z</time>
      </trkpt>
      <trkpt lat="48.60575" lon="1.95299">
        <ele>120</ele>
        <time>2026-03-29T10:45:33Z</time>
      </trkpt>
      <trkpt lat="48.60574" lon="1.95295">
        <ele>120.2</ele>
        <time>2026-03-29T10:45:34Z</time>
      </trkpt>
      <trkpt lat="48.60574" lon="1.95292">
        <ele>120.2</ele>
        <time>2026-03-29T10:45:35Z</time>
      </trkpt>
      <trkpt lat="48.60574" lon="1.95285">
        <ele>120.2</ele>
        <time>2026-03-29T10:45:36Z</time>
      </trkpt>
      <trkpt lat="48.60573" lon="1.95282">
        <ele>120.2</ele>
        <time>2026-03-29T10:45:37Z</time>
      </trkpt>
      <trkpt lat="48.60573" lon="1.95278">
        <ele>120.8</ele>
        <time>2026-03-29T10:45:38Z</time>
      </trkpt>
      <trkpt lat="48.60573" lon="1.95274">
        <ele>120.8</ele>
        <time>2026-03-29T10:45:39Z</time>
      </trkpt>
      <trkpt lat="48.60573" lon="1.95269">
        <ele>120.8</ele>
        <time>2026-03-29T10:45:40Z</time>
      </trkpt>
      <trkpt lat="48.60573" lon="1.95265">
        <ele>120.8</ele>
        <time>2026-03-29T10:45:41Z</time>
      </trkpt>
      <trkpt lat="48.60573" lon="1.95262">
        <ele>121</ele>
        <time>2026-03-29T10:45:42Z</time>
      </trkpt>
      <trkpt lat="48.60572" lon="1.95257">
        <ele>121</ele>
        <time>2026-03-29T10:45:43Z</time>
      </trkpt>
      <trkpt lat="48.60572" lon="1.95254">
        <ele>121</ele>
        <time>2026-03-29T10:45:44Z</time>
      </trkpt>
      <trkpt lat="48.60572" lon="1.9525">
        <ele>121</ele>
        <time>2026-03-29T10:45:45Z</time>
      </trkpt>
      <trkpt lat="48.60572" lon="1.95245">
        <ele>121</ele>
        <time>2026-03-29T10:45:46Z</time>
      </trkpt>
      <trkpt lat="48.60571" lon="1.95241">
        <ele>121</ele>
        <time>2026-03-29T10:45:47Z</time>
      </trkpt>
      <trkpt lat="48.60571" lon="1.95237">
        <ele>121</ele>
        <time>2026-03-29T10:45:48Z</time>
      </trkpt>
      <trkpt lat="48.6057" lon="1.95233">
        <ele>120.8</ele>
        <time>2026-03-29T10:45:49Z</time>
      </trkpt>
      <trkpt lat="48.6057" lon="1.95229">
        <ele>121</ele>
        <time>2026-03-29T10:45:50Z</time>
      </trkpt>
      <trkpt lat="48.6057" lon="1.95225">
        <ele>121</ele>
        <time>2026-03-29T10:45:51Z</time>
      </trkpt>
      <trkpt lat="48.6057" lon="1.95221">
        <ele>121</ele>
        <time>2026-03-29T10:45:52Z</time>
      </trkpt>
      <trkpt lat="48.60571" lon="1.95217">
        <ele>121.2</ele>
        <time>2026-03-29T10:45:53Z</time>
      </trkpt>
      <trkpt lat="48.60573" lon="1.95213">
        <ele>121.4</ele>
        <time>2026-03-29T10:45:54Z</time>
      </trkpt>
      <trkpt lat="48.60575" lon="1.95209">
        <ele>121.4</ele>
        <time>2026-03-29T10:45:55Z</time>
      </trkpt>
      <trkpt lat="48.60576" lon="1.95205">
        <ele>121.4</ele>
        <time>2026-03-29T10:45:56Z</time>
      </trkpt>
      <trkpt lat="48.60576" lon="1.95201">
        <ele>121</ele>
        <time>2026-03-29T10:45:57Z</time>
      </trkpt>
      <trkpt lat="48.60577" lon="1.95198">
        <ele>121.2</ele>
        <time>2026-03-29T10:45:58Z</time>
      </trkpt>
      <trkpt lat="48.60579" lon="1.95192">
        <ele>121.2</ele>
        <time>2026-03-29T10:45:59Z</time>
      </trkpt>
      <trkpt lat="48.6058" lon="1.95188">
        <ele>121.2</ele>
        <time>2026-03-29T10:46:00Z</time>
      </trkpt>
      <trkpt lat="48.60581" lon="1.95184">
        <ele>121.2</ele>
        <time>2026-03-29T10:46:01Z</time>
      </trkpt>
      <trkpt lat="48.60581" lon="1.9518">
        <ele>121.6</ele>
        <time>2026-03-29T10:46:02Z</time>
      </trkpt>
      <trkpt lat="48.60583" lon="1.95175">
        <ele>121.6</ele>
        <time>2026-03-29T10:46:03Z</time>
      </trkpt>
      <trkpt lat="48.60585" lon="1.95172">
        <ele>121.6</ele>
        <time>2026-03-29T10:46:04Z</time>
      </trkpt>
      <trkpt lat="48.60586" lon="1.95169">
        <ele>121.6</ele>
        <time>2026-03-29T10:46:05Z</time>
      </trkpt>
      <trkpt lat="48.60587" lon="1.95165">
        <ele>121.8</ele>
        <time>2026-03-29T10:46:06Z</time>
      </trkpt>
      <trkpt lat="48.60588" lon="1.95162">
        <ele>121.8</ele>
        <time>2026-03-29T10:46:07Z</time>
      </trkpt>
      <trkpt lat="48.60591" lon="1.95156">
        <ele>121.8</ele>
        <time>2026-03-29T10:46:08Z</time>
      </trkpt>
      <trkpt lat="48.60594" lon="1.9515">
        <ele>121.6</ele>
        <time>2026-03-29T10:46:09Z</time>
      </trkpt>
      <trkpt lat="48.60597" lon="1.95144">
        <ele>121.4</ele>
        <time>2026-03-29T10:46:10Z</time>
      </trkpt>
      <trkpt lat="48.60599" lon="1.9514">
        <ele>121.4</ele>
        <time>2026-03-29T10:46:11Z</time>
      </trkpt>
      <trkpt lat="48.606" lon="1.95136">
        <ele>121.4</ele>
        <time>2026-03-29T10:46:12Z</time>
      </trkpt>
      <trkpt lat="48.60601" lon="1.95131">
        <ele>121.2</ele>
        <time>2026-03-29T10:46:13Z</time>
      </trkpt>
      <trkpt lat="48.60603" lon="1.95126">
        <ele>121.2</ele>
        <time>2026-03-29T10:46:14Z</time>
      </trkpt>
      <trkpt lat="48.60606" lon="1.95121">
        <ele>121.2</ele>
        <time>2026-03-29T10:46:15Z</time>
      </trkpt>
      <trkpt lat="48.60608" lon="1.95116">
        <ele>121.2</ele>
        <time>2026-03-29T10:46:16Z</time>
      </trkpt>
      <trkpt lat="48.60611" lon="1.9511">
        <ele>120.6</ele>
        <time>2026-03-29T10:46:17Z</time>
      </trkpt>
      <trkpt lat="48.60612" lon="1.95105">
        <ele>120.6</ele>
        <time>2026-03-29T10:46:18Z</time>
      </trkpt>
      <trkpt lat="48.60614" lon="1.95101">
        <ele>120.6</ele>
        <time>2026-03-29T10:46:19Z</time>
      </trkpt>
      <trkpt lat="48.60616" lon="1.95095">
        <ele>120.6</ele>
        <time>2026-03-29T10:46:20Z</time>
      </trkpt>
      <trkpt lat="48.60618" lon="1.95091">
        <ele>121</ele>
        <time>2026-03-29T10:46:21Z</time>
      </trkpt>
      <trkpt lat="48.60621" lon="1.95085">
        <ele>121</ele>
        <time>2026-03-29T10:46:22Z</time>
      </trkpt>
      <trkpt lat="48.60623" lon="1.95081">
        <ele>121</ele>
        <time>2026-03-29T10:46:23Z</time>
      </trkpt>
      <trkpt lat="48.60624" lon="1.95076">
        <ele>121</ele>
        <time>2026-03-29T10:46:24Z</time>
      </trkpt>
      <trkpt lat="48.60626" lon="1.95071">
        <ele>121</ele>
        <time>2026-03-29T10:46:25Z</time>
      </trkpt>
      <trkpt lat="48.60629" lon="1.95066">
        <ele>121</ele>
        <time>2026-03-29T10:46:26Z</time>
      </trkpt>
      <trkpt lat="48.60631" lon="1.9506">
        <ele>121</ele>
        <time>2026-03-29T10:46:27Z</time>
      </trkpt>
      <trkpt lat="48.60634" lon="1.95055">
        <ele>121</ele>
        <time>2026-03-29T10:46:28Z</time>
      </trkpt>
      <trkpt lat="48.60635" lon="1.95051">
        <ele>121</ele>
        <time>2026-03-29T10:46:29Z</time>
      </trkpt>
      <trkpt lat="48.60638" lon="1.95045">
        <ele>121.2</ele>
        <time>2026-03-29T10:46:30Z</time>
      </trkpt>
      <trkpt lat="48.60641" lon="1.95039">
        <ele>121.2</ele>
        <time>2026-03-29T10:46:31Z</time>
      </trkpt>
      <trkpt lat="48.60643" lon="1.95033">
        <ele>121.2</ele>
        <time>2026-03-29T10:46:32Z</time>
      </trkpt>
      <trkpt lat="48.60646" lon="1.95028">
        <ele>120.6</ele>
        <time>2026-03-29T10:46:33Z</time>
      </trkpt>
      <trkpt lat="48.60648" lon="1.95022">
        <ele>120.8</ele>
        <time>2026-03-29T10:46:34Z</time>
      </trkpt>
      <trkpt lat="48.60651" lon="1.95016">
        <ele>120.8</ele>
        <time>2026-03-29T10:46:35Z</time>
      </trkpt>
      <trkpt lat="48.60654" lon="1.9501">
        <ele>120.8</ele>
        <time>2026-03-29T10:46:36Z</time>
      </trkpt>
      <trkpt lat="48.60655" lon="1.95004">
        <ele>120.8</ele>
        <time>2026-03-29T10:46:37Z</time>
      </trkpt>
      <trkpt lat="48.60657" lon="1.94997">
        <ele>120.8</ele>
        <time>2026-03-29T10:46:38Z</time>
      </trkpt>
      <trkpt lat="48.60659" lon="1.94994">
        <ele>120.8</ele>
        <time>2026-03-29T10:46:39Z</time>
      </trkpt>
      <trkpt lat="48.60662" lon="1.94989">
        <ele>120.8</ele>
        <time>2026-03-29T10:46:40Z</time>
      </trkpt>
      <trkpt lat="48.60664" lon="1.94985">
        <ele>120.8</ele>
        <time>2026-03-29T10:46:41Z</time>
      </trkpt>
      <trkpt lat="48.60666" lon="1.94978">
        <ele>121.6</ele>
        <time>2026-03-29T10:46:42Z</time>
      </trkpt>
      <trkpt lat="48.60668" lon="1.94974">
        <ele>121.6</ele>
        <time>2026-03-29T10:46:43Z</time>
      </trkpt>
      <trkpt lat="48.60669" lon="1.94969">
        <ele>121.6</ele>
        <time>2026-03-29T10:46:44Z</time>
      </trkpt>
      <trkpt lat="48.6067" lon="1.94964">
        <ele>121.6</ele>
        <time>2026-03-29T10:46:45Z</time>
      </trkpt>
      <trkpt lat="48.60672" lon="1.9496">
        <ele>121</ele>
        <time>2026-03-29T10:46:46Z</time>
      </trkpt>
      <trkpt lat="48.60675" lon="1.94956">
        <ele>121</ele>
        <time>2026-03-29T10:46:47Z</time>
      </trkpt>
      <trkpt lat="48.60677" lon="1.94952">
        <ele>121</ele>
        <time>2026-03-29T10:46:48Z</time>
      </trkpt>
      <trkpt lat="48.60679" lon="1.94948">
        <ele>121.6</ele>
        <time>2026-03-29T10:46:49Z</time>
      </trkpt>
      <trkpt lat="48.60682" lon="1.94943">
        <ele>121.6</ele>
        <time>2026-03-29T10:46:50Z</time>
      </trkpt>
      <trkpt lat="48.60685" lon="1.9494">
        <ele>121.6</ele>
        <time>2026-03-29T10:46:51Z</time>
      </trkpt>
      <trkpt lat="48.60688" lon="1.94935">
        <ele>121.6</ele>
        <time>2026-03-29T10:46:52Z</time>
      </trkpt>
      <trkpt lat="48.60691" lon="1.94931">
        <ele>121.6</ele>
        <time>2026-03-29T10:46:53Z</time>
      </trkpt>
      <trkpt lat="48.60694" lon="1.94925">
        <ele>121.4</ele>
        <time>2026-03-29T10:46:54Z</time>
      </trkpt>
      <trkpt lat="48.60696" lon="1.94921">
        <ele>121.4</ele>
        <time>2026-03-29T10:46:55Z</time>
      </trkpt>
      <trkpt lat="48.60699" lon="1.94915">
        <ele>121.4</ele>
        <time>2026-03-29T10:46:56Z</time>
      </trkpt>
      <trkpt lat="48.60701" lon="1.9491">
        <ele>121.6</ele>
        <time>2026-03-29T10:46:57Z</time>
      </trkpt>
      <trkpt lat="48.60703" lon="1.94905">
        <ele>121.6</ele>
        <time>2026-03-29T10:46:58Z</time>
      </trkpt>
      <trkpt lat="48.60705" lon="1.94901">
        <ele>121.6</ele>
        <time>2026-03-29T10:46:59Z</time>
      </trkpt>
      <trkpt lat="48.60708" lon="1.94895">
        <ele>121.6</ele>
        <time>2026-03-29T10:47:00Z</time>
      </trkpt>
      <trkpt lat="48.6071" lon="1.94891">
        <ele>122</ele>
        <time>2026-03-29T10:47:01Z</time>
      </trkpt>
      <trkpt lat="48.60712" lon="1.94886">
        <ele>122</ele>
        <time>2026-03-29T10:47:02Z</time>
      </trkpt>
      <trkpt lat="48.60714" lon="1.94883">
        <ele>122</ele>
        <time>2026-03-29T10:47:03Z</time>
      </trkpt>
      <trkpt lat="48.60716" lon="1.9488">
        <ele>122</ele>
        <time>2026-03-29T10:47:04Z</time>
      </trkpt>
      <trkpt lat="48.60719" lon="1.94876">
        <ele>121.8</ele>
        <time>2026-03-29T10:47:05Z</time>
      </trkpt>
      <trkpt lat="48.60721" lon="1.94874">
        <ele>122</ele>
        <time>2026-03-29T10:47:06Z</time>
      </trkpt>
      <trkpt lat="48.60723" lon="1.9487">
        <ele>122</ele>
        <time>2026-03-29T10:47:07Z</time>
      </trkpt>
      <trkpt lat="48.60725" lon="1.94865">
        <ele>122</ele>
        <time>2026-03-29T10:47:08Z</time>
      </trkpt>
      <trkpt lat="48.60727" lon="1.9486">
        <ele>122</ele>
        <time>2026-03-29T10:47:09Z</time>
      </trkpt>
      <trkpt lat="48.60729" lon="1.94856">
        <ele>122.4</ele>
        <time>2026-03-29T10:47:10Z</time>
      </trkpt>
      <trkpt lat="48.6073" lon="1.94851">
        <ele>122.4</ele>
        <time>2026-03-29T10:47:11Z</time>
      </trkpt>
      <trkpt lat="48.60733" lon="1.94847">
        <ele>122.4</ele>
        <time>2026-03-29T10:47:12Z</time>
      </trkpt>
      <trkpt lat="48.60735" lon="1.94843">
        <ele>122</ele>
        <time>2026-03-29T10:47:13Z</time>
      </trkpt>
      <trkpt lat="48.60737" lon="1.94837">
        <ele>122</ele>
        <time>2026-03-29T10:47:14Z</time>
      </trkpt>
      <trkpt lat="48.6074" lon="1.94832">
        <ele>122</ele>
        <time>2026-03-29T10:47:15Z</time>
      </trkpt>
      <trkpt lat="48.60742" lon="1.94827">
        <ele>122</ele>
        <time>2026-03-29T10:47:16Z</time>
      </trkpt>
      <trkpt lat="48.60745" lon="1.94821">
        <ele>122</ele>
        <time>2026-03-29T10:47:17Z</time>
      </trkpt>
      <trkpt lat="48.60747" lon="1.94815">
        <ele>122</ele>
        <time>2026-03-29T10:47:18Z</time>
      </trkpt>
      <trkpt lat="48.60749" lon="1.9481">
        <ele>122</ele>
        <time>2026-03-29T10:47:19Z</time>
      </trkpt>
      <trkpt lat="48.60752" lon="1.94805">
        <ele>122</ele>
        <time>2026-03-29T10:47:20Z</time>
      </trkpt>
      <trkpt lat="48.60754" lon="1.94801">
        <ele>122</ele>
        <time>2026-03-29T10:47:21Z</time>
      </trkpt>
      <trkpt lat="48.60756" lon="1.94796">
        <ele>122</ele>
        <time>2026-03-29T10:47:22Z</time>
      </trkpt>
      <trkpt lat="48.60758" lon="1.94792">
        <ele>122</ele>
        <time>2026-03-29T10:47:23Z</time>
      </trkpt>
      <trkpt lat="48.60761" lon="1.94788">
        <ele>122</ele>
        <time>2026-03-29T10:47:24Z</time>
      </trkpt>
      <trkpt lat="48.60762" lon="1.94784">
        <ele>122</ele>
        <time>2026-03-29T10:47:25Z</time>
      </trkpt>
      <trkpt lat="48.60765" lon="1.94778">
        <ele>122</ele>
        <time>2026-03-29T10:47:26Z</time>
      </trkpt>
      <trkpt lat="48.60766" lon="1.94773">
        <ele>122</ele>
        <time>2026-03-29T10:47:27Z</time>
      </trkpt>
      <trkpt lat="48.60768" lon="1.9477">
        <ele>122</ele>
        <time>2026-03-29T10:47:28Z</time>
      </trkpt>
      <trkpt lat="48.6077" lon="1.94765">
        <ele>122.6</ele>
        <time>2026-03-29T10:47:29Z</time>
      </trkpt>
      <trkpt lat="48.60773" lon="1.94762">
        <ele>122.2</ele>
        <time>2026-03-29T10:47:30Z</time>
      </trkpt>
      <trkpt lat="48.60774" lon="1.94757">
        <ele>122.2</ele>
        <time>2026-03-29T10:47:31Z</time>
      </trkpt>
      <trkpt lat="48.60776" lon="1.94753">
        <ele>122.2</ele>
        <time>2026-03-29T10:47:32Z</time>
      </trkpt>
      <trkpt lat="48.60778" lon="1.94749">
        <ele>122.2</ele>
        <time>2026-03-29T10:47:33Z</time>
      </trkpt>
      <trkpt lat="48.6078" lon="1.94745">
        <ele>122.6</ele>
        <time>2026-03-29T10:47:34Z</time>
      </trkpt>
      <trkpt lat="48.60782" lon="1.9474">
        <ele>122.6</ele>
        <time>2026-03-29T10:47:35Z</time>
      </trkpt>
      <trkpt lat="48.60784" lon="1.94735">
        <ele>122.6</ele>
        <time>2026-03-29T10:47:36Z</time>
      </trkpt>
      <trkpt lat="48.60786" lon="1.9473">
        <ele>122.6</ele>
        <time>2026-03-29T10:47:37Z</time>
      </trkpt>
      <trkpt lat="48.60787" lon="1.94726">
        <ele>122.8</ele>
        <time>2026-03-29T10:47:38Z</time>
      </trkpt>
      <trkpt lat="48.6079" lon="1.94721">
        <ele>122.8</ele>
        <time>2026-03-29T10:47:39Z</time>
      </trkpt>
      <trkpt lat="48.60792" lon="1.94716">
        <ele>122.8</ele>
        <time>2026-03-29T10:47:40Z</time>
      </trkpt>
      <trkpt lat="48.60794" lon="1.94712">
        <ele>122.8</ele>
        <time>2026-03-29T10:47:41Z</time>
      </trkpt>
      <trkpt lat="48.60796" lon="1.94708">
        <ele>122.8</ele>
        <time>2026-03-29T10:47:42Z</time>
      </trkpt>
      <trkpt lat="48.60798" lon="1.94702">
        <ele>122.8</ele>
        <time>2026-03-29T10:47:43Z</time>
      </trkpt>
      <trkpt lat="48.60801" lon="1.94697">
        <ele>122.8</ele>
        <time>2026-03-29T10:47:44Z</time>
      </trkpt>
      <trkpt lat="48.60803" lon="1.94692">
        <ele>123.4</ele>
        <time>2026-03-29T10:47:45Z</time>
      </trkpt>
      <trkpt lat="48.60804" lon="1.94688">
        <ele>123</ele>
        <time>2026-03-29T10:47:46Z</time>
      </trkpt>
      <trkpt lat="48.60807" lon="1.94684">
        <ele>123</ele>
        <time>2026-03-29T10:47:47Z</time>
      </trkpt>
      <trkpt lat="48.60809" lon="1.9468">
        <ele>123</ele>
        <time>2026-03-29T10:47:48Z</time>
      </trkpt>
      <trkpt lat="48.60811" lon="1.94675">
        <ele>123.4</ele>
        <time>2026-03-29T10:47:49Z</time>
      </trkpt>
      <trkpt lat="48.60813" lon="1.9467">
        <ele>123.6</ele>
        <time>2026-03-29T10:47:50Z</time>
      </trkpt>
      <trkpt lat="48.60816" lon="1.94665">
        <ele>123.6</ele>
        <time>2026-03-29T10:47:51Z</time>
      </trkpt>
      <trkpt lat="48.60819" lon="1.94661">
        <ele>123.6</ele>
        <time>2026-03-29T10:47:52Z</time>
      </trkpt>
      <trkpt lat="48.60821" lon="1.94656">
        <ele>123.6</ele>
        <time>2026-03-29T10:47:53Z</time>
      </trkpt>
      <trkpt lat="48.60822" lon="1.94653">
        <ele>124</ele>
        <time>2026-03-29T10:47:54Z</time>
      </trkpt>
      <trkpt lat="48.60824" lon="1.94647">
        <ele>124</ele>
        <time>2026-03-29T10:47:55Z</time>
      </trkpt>
      <trkpt lat="48.60826" lon="1.94642">
        <ele>124</ele>
        <time>2026-03-29T10:47:56Z</time>
      </trkpt>
      <trkpt lat="48.60828" lon="1.94637">
        <ele>124</ele>
        <time>2026-03-29T10:47:57Z</time>
      </trkpt>
      <trkpt lat="48.6083" lon="1.94632">
        <ele>124.4</ele>
        <time>2026-03-29T10:47:58Z</time>
      </trkpt>
      <trkpt lat="48.60833" lon="1.94627">
        <ele>124.4</ele>
        <time>2026-03-29T10:47:59Z</time>
      </trkpt>
      <trkpt lat="48.60835" lon="1.94623">
        <ele>124.4</ele>
        <time>2026-03-29T10:48:00Z</time>
      </trkpt>
      <trkpt lat="48.60837" lon="1.94619">
        <ele>124.4</ele>
        <time>2026-03-29T10:48:01Z</time>
      </trkpt>
      <trkpt lat="48.60839" lon="1.94616">
        <ele>124.4</ele>
        <time>2026-03-29T10:48:02Z</time>
      </trkpt>
      <trkpt lat="48.60841" lon="1.94612">
        <ele>124.4</ele>
        <time>2026-03-29T10:48:03Z</time>
      </trkpt>
      <trkpt lat="48.60843" lon="1.94608">
        <ele>124.4</ele>
        <time>2026-03-29T10:48:04Z</time>
      </trkpt>
      <trkpt lat="48.60845" lon="1.94604">
        <ele>124.8</ele>
        <time>2026-03-29T10:48:05Z</time>
      </trkpt>
      <trkpt lat="48.60847" lon="1.94601">
        <ele>124.6</ele>
        <time>2026-03-29T10:48:06Z</time>
      </trkpt>
      <trkpt lat="48.60848" lon="1.94599">
        <ele>124.6</ele>
        <time>2026-03-29T10:48:07Z</time>
      </trkpt>
      <trkpt lat="48.6085" lon="1.94596">
        <ele>124.6</ele>
        <time>2026-03-29T10:48:08Z</time>
      </trkpt>
      <trkpt lat="48.60852" lon="1.94592">
        <ele>125</ele>
        <time>2026-03-29T10:48:09Z</time>
      </trkpt>
      <trkpt lat="48.60853" lon="1.94589">
        <ele>125.2</ele>
        <time>2026-03-29T10:48:10Z</time>
      </trkpt>
      <trkpt lat="48.60856" lon="1.94584">
        <ele>125.2</ele>
        <time>2026-03-29T10:48:11Z</time>
      </trkpt>
      <trkpt lat="48.60858" lon="1.94581">
        <ele>125.2</ele>
        <time>2026-03-29T10:48:12Z</time>
      </trkpt>
      <trkpt lat="48.60859" lon="1.94577">
        <ele>125.2</ele>
        <time>2026-03-29T10:48:13Z</time>
      </trkpt>
      <trkpt lat="48.60861" lon="1.94575">
        <ele>124.8</ele>
        <time>2026-03-29T10:48:14Z</time>
      </trkpt>
      <trkpt lat="48.60863" lon="1.9457">
        <ele>124.8</ele>
        <time>2026-03-29T10:48:15Z</time>
      </trkpt>
      <trkpt lat="48.60865" lon="1.94566">
        <ele>124.8</ele>
        <time>2026-03-29T10:48:16Z</time>
      </trkpt>
      <trkpt lat="48.60867" lon="1.94562">
        <ele>124.8</ele>
        <time>2026-03-29T10:48:17Z</time>
      </trkpt>
      <trkpt lat="48.60869" lon="1.94557">
        <ele>125.2</ele>
        <time>2026-03-29T10:48:18Z</time>
      </trkpt>
      <trkpt lat="48.60871" lon="1.94552">
        <ele>125.2</ele>
        <time>2026-03-29T10:48:19Z</time>
      </trkpt>
      <trkpt lat="48.60873" lon="1.94547">
        <ele>125.2</ele>
        <time>2026-03-29T10:48:20Z</time>
      </trkpt>
      <trkpt lat="48.60875" lon="1.94543">
        <ele>125.2</ele>
        <time>2026-03-29T10:48:21Z</time>
      </trkpt>
      <trkpt lat="48.60877" lon="1.94538">
        <ele>125.8</ele>
        <time>2026-03-29T10:48:22Z</time>
      </trkpt>
      <trkpt lat="48.6088" lon="1.94534">
        <ele>125.8</ele>
        <time>2026-03-29T10:48:23Z</time>
      </trkpt>
      <trkpt lat="48.60882" lon="1.9453">
        <ele>125.8</ele>
        <time>2026-03-29T10:48:24Z</time>
      </trkpt>
      <trkpt lat="48.60884" lon="1.94526">
        <ele>125.4</ele>
        <time>2026-03-29T10:48:25Z</time>
      </trkpt>
      <trkpt lat="48.60887" lon="1.9452">
        <ele>125.6</ele>
        <time>2026-03-29T10:48:26Z</time>
      </trkpt>
      <trkpt lat="48.60889" lon="1.94515">
        <ele>125.6</ele>
        <time>2026-03-29T10:48:27Z</time>
      </trkpt>
      <trkpt lat="48.60891" lon="1.94511">
        <ele>125.6</ele>
        <time>2026-03-29T10:48:28Z</time>
      </trkpt>
      <trkpt lat="48.60894" lon="1.94505">
        <ele>125.6</ele>
        <time>2026-03-29T10:48:29Z</time>
      </trkpt>
      <trkpt lat="48.60897" lon="1.945">
        <ele>125.4</ele>
        <time>2026-03-29T10:48:30Z</time>
      </trkpt>
      <trkpt lat="48.609" lon="1.94494">
        <ele>125.4</ele>
        <time>2026-03-29T10:48:31Z</time>
      </trkpt>
      <trkpt lat="48.60903" lon="1.94489">
        <ele>125.4</ele>
        <time>2026-03-29T10:48:32Z</time>
      </trkpt>
      <trkpt lat="48.60905" lon="1.94484">
        <ele>125.4</ele>
        <time>2026-03-29T10:48:33Z</time>
      </trkpt>
      <trkpt lat="48.60907" lon="1.9448">
        <ele>124.8</ele>
        <time>2026-03-29T10:48:34Z</time>
      </trkpt>
      <trkpt lat="48.60909" lon="1.94475">
        <ele>124.8</ele>
        <time>2026-03-29T10:48:35Z</time>
      </trkpt>
      <trkpt lat="48.60911" lon="1.94471">
        <ele>124.8</ele>
        <time>2026-03-29T10:48:36Z</time>
      </trkpt>
      <trkpt lat="48.60913" lon="1.94468">
        <ele>125.4</ele>
        <time>2026-03-29T10:48:37Z</time>
      </trkpt>
      <trkpt lat="48.60915" lon="1.94464">
        <ele>125.8</ele>
        <time>2026-03-29T10:48:38Z</time>
      </trkpt>
      <trkpt lat="48.60916" lon="1.9446">
        <ele>125.8</ele>
        <time>2026-03-29T10:48:39Z</time>
      </trkpt>
      <trkpt lat="48.60919" lon="1.94456">
        <ele>125.8</ele>
        <time>2026-03-29T10:48:40Z</time>
      </trkpt>
      <trkpt lat="48.60921" lon="1.94451">
        <ele>125.6</ele>
        <time>2026-03-29T10:48:41Z</time>
      </trkpt>
      <trkpt lat="48.60921" lon="1.94446">
        <ele>125.2</ele>
        <time>2026-03-29T10:48:42Z</time>
      </trkpt>
      <trkpt lat="48.60921" lon="1.94441">
        <ele>125.2</ele>
        <time>2026-03-29T10:48:43Z</time>
      </trkpt>
      <trkpt lat="48.60919" lon="1.94437">
        <ele>125.2</ele>
        <time>2026-03-29T10:48:44Z</time>
      </trkpt>
      <trkpt lat="48.60917" lon="1.94435">
        <ele>125.2</ele>
        <time>2026-03-29T10:48:45Z</time>
      </trkpt>
      <trkpt lat="48.60915" lon="1.94432">
        <ele>125.8</ele>
        <time>2026-03-29T10:48:46Z</time>
      </trkpt>
      <trkpt lat="48.60913" lon="1.9443">
        <ele>125.8</ele>
        <time>2026-03-29T10:48:47Z</time>
      </trkpt>
      <trkpt lat="48.60911" lon="1.94428">
        <ele>125.8</ele>
        <time>2026-03-29T10:48:48Z</time>
      </trkpt>
      <trkpt lat="48.6091" lon="1.94426">
        <ele>126.6</ele>
        <time>2026-03-29T10:48:49Z</time>
      </trkpt>
      <trkpt lat="48.60908" lon="1.94424">
        <ele>127</ele>
        <time>2026-03-29T10:48:50Z</time>
      </trkpt>
      <trkpt lat="48.60907" lon="1.94421">
        <ele>127</ele>
        <time>2026-03-29T10:48:51Z</time>
      </trkpt>
      <trkpt lat="48.60904" lon="1.94418">
        <ele>127</ele>
        <time>2026-03-29T10:48:52Z</time>
      </trkpt>
      <trkpt lat="48.60902" lon="1.94415">
        <ele>127</ele>
        <time>2026-03-29T10:48:53Z</time>
      </trkpt>
      <trkpt lat="48.609" lon="1.94412">
        <ele>127.2</ele>
        <time>2026-03-29T10:48:54Z</time>
      </trkpt>
      <trkpt lat="48.60898" lon="1.94408">
        <ele>127.2</ele>
        <time>2026-03-29T10:48:55Z</time>
      </trkpt>
      <trkpt lat="48.60896" lon="1.94405">
        <ele>127.2</ele>
        <time>2026-03-29T10:48:56Z</time>
      </trkpt>
      <trkpt lat="48.60893" lon="1.94401">
        <ele>127.2</ele>
        <time>2026-03-29T10:48:57Z</time>
      </trkpt>
      <trkpt lat="48.60891" lon="1.94396">
        <ele>126.6</ele>
        <time>2026-03-29T10:48:58Z</time>
      </trkpt>
      <trkpt lat="48.60888" lon="1.94393">
        <ele>126.6</ele>
        <time>2026-03-29T10:48:59Z</time>
      </trkpt>
      <trkpt lat="48.60885" lon="1.94389">
        <ele>126.6</ele>
        <time>2026-03-29T10:49:00Z</time>
      </trkpt>
      <trkpt lat="48.60883" lon="1.94386">
        <ele>126.6</ele>
        <time>2026-03-29T10:49:01Z</time>
      </trkpt>
      <trkpt lat="48.6088" lon="1.94382">
        <ele>127</ele>
        <time>2026-03-29T10:49:02Z</time>
      </trkpt>
      <trkpt lat="48.60878" lon="1.94378">
        <ele>127</ele>
        <time>2026-03-29T10:49:03Z</time>
      </trkpt>
      <trkpt lat="48.60875" lon="1.94375">
        <ele>127</ele>
        <time>2026-03-29T10:49:04Z</time>
      </trkpt>
      <trkpt lat="48.60872" lon="1.94372">
        <ele>127</ele>
        <time>2026-03-29T10:49:05Z</time>
      </trkpt>
      <trkpt lat="48.60871" lon="1.94369">
        <ele>127.8</ele>
        <time>2026-03-29T10:49:06Z</time>
      </trkpt>
      <trkpt lat="48.60868" lon="1.94366">
        <ele>127.8</ele>
        <time>2026-03-29T10:49:07Z</time>
      </trkpt>
      <trkpt lat="48.60866" lon="1.94363">
        <ele>127.8</ele>
        <time>2026-03-29T10:49:08Z</time>
      </trkpt>
      <trkpt lat="48.60865" lon="1.94361">
        <ele>127.8</ele>
        <time>2026-03-29T10:49:09Z</time>
      </trkpt>
      <trkpt lat="48.60862" lon="1.94358">
        <ele>127.8</ele>
        <time>2026-03-29T10:49:10Z</time>
      </trkpt>
      <trkpt lat="48.60859" lon="1.94355">
        <ele>127.8</ele>
        <time>2026-03-29T10:49:11Z</time>
      </trkpt>
      <trkpt lat="48.60857" lon="1.94352">
        <ele>127.8</ele>
        <time>2026-03-29T10:49:12Z</time>
      </trkpt>
      <trkpt lat="48.60855" lon="1.94349">
        <ele>127.8</ele>
        <time>2026-03-29T10:49:13Z</time>
      </trkpt>
      <trkpt lat="48.60853" lon="1.94347">
        <ele>128.4</ele>
        <time>2026-03-29T10:49:14Z</time>
      </trkpt>
      <trkpt lat="48.6085" lon="1.94344">
        <ele>128.4</ele>
        <time>2026-03-29T10:49:15Z</time>
      </trkpt>
      <trkpt lat="48.60847" lon="1.9434">
        <ele>128.4</ele>
        <time>2026-03-29T10:49:16Z</time>
      </trkpt>
      <trkpt lat="48.60845" lon="1.94337">
        <ele>128.4</ele>
        <time>2026-03-29T10:49:17Z</time>
      </trkpt>
      <trkpt lat="48.60842" lon="1.94334">
        <ele>128.2</ele>
        <time>2026-03-29T10:49:18Z</time>
      </trkpt>
      <trkpt lat="48.60839" lon="1.9433">
        <ele>128.2</ele>
        <time>2026-03-29T10:49:19Z</time>
      </trkpt>
      <trkpt lat="48.60836" lon="1.94327">
        <ele>128.2</ele>
        <time>2026-03-29T10:49:20Z</time>
      </trkpt>
      <trkpt lat="48.60833" lon="1.94323">
        <ele>127.2</ele>
        <time>2026-03-29T10:49:21Z</time>
      </trkpt>
      <trkpt lat="48.6083" lon="1.9432">
        <ele>127.6</ele>
        <time>2026-03-29T10:49:22Z</time>
      </trkpt>
      <trkpt lat="48.60828" lon="1.94316">
        <ele>127.6</ele>
        <time>2026-03-29T10:49:23Z</time>
      </trkpt>
      <trkpt lat="48.60826" lon="1.94313">
        <ele>127.6</ele>
        <time>2026-03-29T10:49:24Z</time>
      </trkpt>
      <trkpt lat="48.60823" lon="1.94309">
        <ele>128.6</ele>
        <time>2026-03-29T10:49:25Z</time>
      </trkpt>
      <trkpt lat="48.6082" lon="1.94306">
        <ele>128.6</ele>
        <time>2026-03-29T10:49:26Z</time>
      </trkpt>
      <trkpt lat="48.60818" lon="1.94304">
        <ele>128.6</ele>
        <time>2026-03-29T10:49:27Z</time>
      </trkpt>
      <trkpt lat="48.60815" lon="1.943">
        <ele>128.6</ele>
        <time>2026-03-29T10:49:28Z</time>
      </trkpt>
      <trkpt lat="48.60813" lon="1.94297">
        <ele>128.6</ele>
        <time>2026-03-29T10:49:29Z</time>
      </trkpt>
      <trkpt lat="48.6081" lon="1.94294">
        <ele>128.2</ele>
        <time>2026-03-29T10:49:30Z</time>
      </trkpt>
      <trkpt lat="48.60808" lon="1.94292">
        <ele>128.2</ele>
        <time>2026-03-29T10:49:31Z</time>
      </trkpt>
      <trkpt lat="48.60805" lon="1.9429">
        <ele>128.2</ele>
        <time>2026-03-29T10:49:32Z</time>
      </trkpt>
      <trkpt lat="48.60803" lon="1.94287">
        <ele>129</ele>
        <time>2026-03-29T10:49:33Z</time>
      </trkpt>
      <trkpt lat="48.608" lon="1.94284">
        <ele>129.4</ele>
        <time>2026-03-29T10:49:34Z</time>
      </trkpt>
      <trkpt lat="48.60798" lon="1.94281">
        <ele>129.4</ele>
        <time>2026-03-29T10:49:35Z</time>
      </trkpt>
      <trkpt lat="48.60796" lon="1.94278">
        <ele>129.4</ele>
        <time>2026-03-29T10:49:36Z</time>
      </trkpt>
      <trkpt lat="48.60793" lon="1.94276">
        <ele>129</ele>
        <time>2026-03-29T10:49:37Z</time>
      </trkpt>
      <trkpt lat="48.60791" lon="1.94273">
        <ele>129.6</ele>
        <time>2026-03-29T10:49:38Z</time>
      </trkpt>
      <trkpt lat="48.60788" lon="1.9427">
        <ele>129.6</ele>
        <time>2026-03-29T10:49:39Z</time>
      </trkpt>
      <trkpt lat="48.60785" lon="1.94267">
        <ele>129.6</ele>
        <time>2026-03-29T10:49:40Z</time>
      </trkpt>
      <trkpt lat="48.60782" lon="1.94264">
        <ele>129.6</ele>
        <time>2026-03-29T10:49:41Z</time>
      </trkpt>
      <trkpt lat="48.60779" lon="1.94261">
        <ele>129</ele>
        <time>2026-03-29T10:49:42Z</time>
      </trkpt>
      <trkpt lat="48.60776" lon="1.94258">
        <ele>129</ele>
        <time>2026-03-29T10:49:43Z</time>
      </trkpt>
      <trkpt lat="48.60773" lon="1.94256">
        <ele>129</ele>
        <time>2026-03-29T10:49:44Z</time>
      </trkpt>
      <trkpt lat="48.6077" lon="1.94253">
        <ele>129</ele>
        <time>2026-03-29T10:49:45Z</time>
      </trkpt>
      <trkpt lat="48.60767" lon="1.9425">
        <ele>129</ele>
        <time>2026-03-29T10:49:46Z</time>
      </trkpt>
      <trkpt lat="48.60763" lon="1.94246">
        <ele>129</ele>
        <time>2026-03-29T10:49:47Z</time>
      </trkpt>
      <trkpt lat="48.60759" lon="1.94242">
        <ele>129</ele>
        <time>2026-03-29T10:49:48Z</time>
      </trkpt>
      <trkpt lat="48.60755" lon="1.94239">
        <ele>128.4</ele>
        <time>2026-03-29T10:49:49Z</time>
      </trkpt>
      <trkpt lat="48.60752" lon="1.94235">
        <ele>128.2</ele>
        <time>2026-03-29T10:49:50Z</time>
      </trkpt>
      <trkpt lat="48.60749" lon="1.94231">
        <ele>128.2</ele>
        <time>2026-03-29T10:49:51Z</time>
      </trkpt>
      <trkpt lat="48.60747" lon="1.94228">
        <ele>128.2</ele>
        <time>2026-03-29T10:49:52Z</time>
      </trkpt>
      <trkpt lat="48.60744" lon="1.94224">
        <ele>128.2</ele>
        <time>2026-03-29T10:49:53Z</time>
      </trkpt>
      <trkpt lat="48.60742" lon="1.94221">
        <ele>128.4</ele>
        <time>2026-03-29T10:49:54Z</time>
      </trkpt>
      <trkpt lat="48.60739" lon="1.94217">
        <ele>128.4</ele>
        <time>2026-03-29T10:49:55Z</time>
      </trkpt>
      <trkpt lat="48.60736" lon="1.94214">
        <ele>128.4</ele>
        <time>2026-03-29T10:49:56Z</time>
      </trkpt>
      <trkpt lat="48.60732" lon="1.9421">
        <ele>128.4</ele>
        <time>2026-03-29T10:49:57Z</time>
      </trkpt>
      <trkpt lat="48.6073" lon="1.94208">
        <ele>128.6</ele>
        <time>2026-03-29T10:49:58Z</time>
      </trkpt>
      <trkpt lat="48.60727" lon="1.94204">
        <ele>128.6</ele>
        <time>2026-03-29T10:49:59Z</time>
      </trkpt>
      <trkpt lat="48.60724" lon="1.94201">
        <ele>128.6</ele>
        <time>2026-03-29T10:50:00Z</time>
      </trkpt>
      <trkpt lat="48.60721" lon="1.94197">
        <ele>128.6</ele>
        <time>2026-03-29T10:50:01Z</time>
      </trkpt>
      <trkpt lat="48.60719" lon="1.94194">
        <ele>128.6</ele>
        <time>2026-03-29T10:50:02Z</time>
      </trkpt>
      <trkpt lat="48.60716" lon="1.94191">
        <ele>128.6</ele>
        <time>2026-03-29T10:50:03Z</time>
      </trkpt>
      <trkpt lat="48.60714" lon="1.94188">
        <ele>128.6</ele>
        <time>2026-03-29T10:50:04Z</time>
      </trkpt>
      <trkpt lat="48.60711" lon="1.94185">
        <ele>128.6</ele>
        <time>2026-03-29T10:50:05Z</time>
      </trkpt>
      <trkpt lat="48.60709" lon="1.94182">
        <ele>128.4</ele>
        <time>2026-03-29T10:50:06Z</time>
      </trkpt>
      <trkpt lat="48.60705" lon="1.94178">
        <ele>128.4</ele>
        <time>2026-03-29T10:50:07Z</time>
      </trkpt>
      <trkpt lat="48.60702" lon="1.94173">
        <ele>128.4</ele>
        <time>2026-03-29T10:50:08Z</time>
      </trkpt>
      <trkpt lat="48.60698" lon="1.94167">
        <ele>127.8</ele>
        <time>2026-03-29T10:50:09Z</time>
      </trkpt>
      <trkpt lat="48.60696" lon="1.9416">
        <ele>127.6</ele>
        <time>2026-03-29T10:50:10Z</time>
      </trkpt>
      <trkpt lat="48.60696" lon="1.94154">
        <ele>127.6</ele>
        <time>2026-03-29T10:50:11Z</time>
      </trkpt>
      <trkpt lat="48.60697" lon="1.94149">
        <ele>127.6</ele>
        <time>2026-03-29T10:50:12Z</time>
      </trkpt>
      <trkpt lat="48.60699" lon="1.94145">
        <ele>128.4</ele>
        <time>2026-03-29T10:50:13Z</time>
      </trkpt>
      <trkpt lat="48.60701" lon="1.94142">
        <ele>128.2</ele>
        <time>2026-03-29T10:50:14Z</time>
      </trkpt>
      <trkpt lat="48.60703" lon="1.94139">
        <ele>128.2</ele>
        <time>2026-03-29T10:50:15Z</time>
      </trkpt>
      <trkpt lat="48.60705" lon="1.94134">
        <ele>128.2</ele>
        <time>2026-03-29T10:50:16Z</time>
      </trkpt>
      <trkpt lat="48.60706" lon="1.94131">
        <ele>128.2</ele>
        <time>2026-03-29T10:50:17Z</time>
      </trkpt>
      <trkpt lat="48.60708" lon="1.94126">
        <ele>127.6</ele>
        <time>2026-03-29T10:50:18Z</time>
      </trkpt>
      <trkpt lat="48.60709" lon="1.94121">
        <ele>127.6</ele>
        <time>2026-03-29T10:50:19Z</time>
      </trkpt>
      <trkpt lat="48.60711" lon="1.94116">
        <ele>127.6</ele>
        <time>2026-03-29T10:50:20Z</time>
      </trkpt>
      <trkpt lat="48.60713" lon="1.94112">
        <ele>127.6</ele>
        <time>2026-03-29T10:50:21Z</time>
      </trkpt>
      <trkpt lat="48.60716" lon="1.94108">
        <ele>128</ele>
        <time>2026-03-29T10:50:22Z</time>
      </trkpt>
      <trkpt lat="48.60718" lon="1.94104">
        <ele>128</ele>
        <time>2026-03-29T10:50:23Z</time>
      </trkpt>
      <trkpt lat="48.6072" lon="1.94102">
        <ele>128</ele>
        <time>2026-03-29T10:50:24Z</time>
      </trkpt>
      <trkpt lat="48.60722" lon="1.94099">
        <ele>128</ele>
        <time>2026-03-29T10:50:25Z</time>
      </trkpt>
      <trkpt lat="48.60723" lon="1.94096">
        <ele>128.4</ele>
        <time>2026-03-29T10:50:26Z</time>
      </trkpt>
      <trkpt lat="48.60725" lon="1.94093">
        <ele>128.4</ele>
        <time>2026-03-29T10:50:27Z</time>
      </trkpt>
      <trkpt lat="48.60727" lon="1.9409">
        <ele>128.4</ele>
        <time>2026-03-29T10:50:28Z</time>
      </trkpt>
      <trkpt lat="48.60729" lon="1.94087">
        <ele>128.4</ele>
        <time>2026-03-29T10:50:29Z</time>
      </trkpt>
      <trkpt lat="48.60731" lon="1.94084">
        <ele>128.6</ele>
        <time>2026-03-29T10:50:30Z</time>
      </trkpt>
      <trkpt lat="48.60733" lon="1.94081">
        <ele>128.6</ele>
        <time>2026-03-29T10:50:31Z</time>
      </trkpt>
      <trkpt lat="48.60736" lon="1.94078">
        <ele>128.6</ele>
        <time>2026-03-29T10:50:32Z</time>
      </trkpt>
      <trkpt lat="48.60739" lon="1.94075">
        <ele>127.6</ele>
        <time>2026-03-29T10:50:33Z</time>
      </trkpt>
      <trkpt lat="48.60741" lon="1.94071">
        <ele>127.4</ele>
        <time>2026-03-29T10:50:34Z</time>
      </trkpt>
      <trkpt lat="48.60744" lon="1.94069">
        <ele>127.4</ele>
        <time>2026-03-29T10:50:35Z</time>
      </trkpt>
      <trkpt lat="48.60747" lon="1.94066">
        <ele>127.4</ele>
        <time>2026-03-29T10:50:36Z</time>
      </trkpt>
      <trkpt lat="48.60749" lon="1.94063">
        <ele>127.8</ele>
        <time>2026-03-29T10:50:37Z</time>
      </trkpt>
      <trkpt lat="48.60752" lon="1.94061">
        <ele>127.4</ele>
        <time>2026-03-29T10:50:38Z</time>
      </trkpt>
      <trkpt lat="48.60754" lon="1.94058">
        <ele>127.4</ele>
        <time>2026-03-29T10:50:39Z</time>
      </trkpt>
      <trkpt lat="48.60757" lon="1.94054">
        <ele>127.4</ele>
        <time>2026-03-29T10:50:40Z</time>
      </trkpt>
      <trkpt lat="48.60759" lon="1.94052">
        <ele>128</ele>
        <time>2026-03-29T10:50:41Z</time>
      </trkpt>
      <trkpt lat="48.60761" lon="1.94048">
        <ele>127.8</ele>
        <time>2026-03-29T10:50:42Z</time>
      </trkpt>
      <trkpt lat="48.60764" lon="1.94044">
        <ele>127.8</ele>
        <time>2026-03-29T10:50:43Z</time>
      </trkpt>
      <trkpt lat="48.60766" lon="1.94039">
        <ele>127.8</ele>
        <time>2026-03-29T10:50:44Z</time>
      </trkpt>
      <trkpt lat="48.60769" lon="1.94035">
        <ele>128</ele>
        <time>2026-03-29T10:50:45Z</time>
      </trkpt>
      <trkpt lat="48.60771" lon="1.9403">
        <ele>127.8</ele>
        <time>2026-03-29T10:50:46Z</time>
      </trkpt>
      <trkpt lat="48.60773" lon="1.94025">
        <ele>127.8</ele>
        <time>2026-03-29T10:50:47Z</time>
      </trkpt>
      <trkpt lat="48.60776" lon="1.9402">
        <ele>127.8</ele>
        <time>2026-03-29T10:50:48Z</time>
      </trkpt>
      <trkpt lat="48.60778" lon="1.94016">
        <ele>127.8</ele>
        <time>2026-03-29T10:50:49Z</time>
      </trkpt>
      <trkpt lat="48.60781" lon="1.94012">
        <ele>127.8</ele>
        <time>2026-03-29T10:50:50Z</time>
      </trkpt>
      <trkpt lat="48.60783" lon="1.94008">
        <ele>127.8</ele>
        <time>2026-03-29T10:50:51Z</time>
      </trkpt>
      <trkpt lat="48.60785" lon="1.94003">
        <ele>127.8</ele>
        <time>2026-03-29T10:50:52Z</time>
      </trkpt>
      <trkpt lat="48.60787" lon="1.93999">
        <ele>127.8</ele>
        <time>2026-03-29T10:50:53Z</time>
      </trkpt>
      <trkpt lat="48.60789" lon="1.93994">
        <ele>127.8</ele>
        <time>2026-03-29T10:50:54Z</time>
      </trkpt>
      <trkpt lat="48.60791" lon="1.93989">
        <ele>127.8</ele>
        <time>2026-03-29T10:50:55Z</time>
      </trkpt>
      <trkpt lat="48.60793" lon="1.93985">
        <ele>127.8</ele>
        <time>2026-03-29T10:50:56Z</time>
      </trkpt>
      <trkpt lat="48.60795" lon="1.93982">
        <ele>127.8</ele>
        <time>2026-03-29T10:50:57Z</time>
      </trkpt>
      <trkpt lat="48.60798" lon="1.93979">
        <ele>128.6</ele>
        <time>2026-03-29T10:50:58Z</time>
      </trkpt>
      <trkpt lat="48.60802" lon="1.93979">
        <ele>128.6</ele>
        <time>2026-03-29T10:50:59Z</time>
      </trkpt>
      <trkpt lat="48.60805" lon="1.9398">
        <ele>128.6</ele>
        <time>2026-03-29T10:51:00Z</time>
      </trkpt>
      <trkpt lat="48.60808" lon="1.93981">
        <ele>127.8</ele>
        <time>2026-03-29T10:51:01Z</time>
      </trkpt>
      <trkpt lat="48.60811" lon="1.93983">
        <ele>127.8</ele>
        <time>2026-03-29T10:51:02Z</time>
      </trkpt>
      <trkpt lat="48.60814" lon="1.93984">
        <ele>127.8</ele>
        <time>2026-03-29T10:51:03Z</time>
      </trkpt>
      <trkpt lat="48.60818" lon="1.93985">
        <ele>127.8</ele>
        <time>2026-03-29T10:51:04Z</time>
      </trkpt>
      <trkpt lat="48.60821" lon="1.93985">
        <ele>127.8</ele>
        <time>2026-03-29T10:51:05Z</time>
      </trkpt>
      <trkpt lat="48.60825" lon="1.93985">
        <ele>127.8</ele>
        <time>2026-03-29T10:51:06Z</time>
      </trkpt>
      <trkpt lat="48.60828" lon="1.93986">
        <ele>127.8</ele>
        <time>2026-03-29T10:51:07Z</time>
      </trkpt>
      <trkpt lat="48.60831" lon="1.93988">
        <ele>127.8</ele>
        <time>2026-03-29T10:51:08Z</time>
      </trkpt>
      <trkpt lat="48.60834" lon="1.93989">
        <ele>127.8</ele>
        <time>2026-03-29T10:51:09Z</time>
      </trkpt>
      <trkpt lat="48.60837" lon="1.93991">
        <ele>127.4</ele>
        <time>2026-03-29T10:51:10Z</time>
      </trkpt>
      <trkpt lat="48.6084" lon="1.93994">
        <ele>127.4</ele>
        <time>2026-03-29T10:51:11Z</time>
      </trkpt>
      <trkpt lat="48.60843" lon="1.93997">
        <ele>127.4</ele>
        <time>2026-03-29T10:51:12Z</time>
      </trkpt>
      <trkpt lat="48.60846" lon="1.94">
        <ele>128</ele>
        <time>2026-03-29T10:51:13Z</time>
      </trkpt>
      <trkpt lat="48.60849" lon="1.94003">
        <ele>128</ele>
        <time>2026-03-29T10:51:14Z</time>
      </trkpt>
      <trkpt lat="48.60851" lon="1.94005">
        <ele>128</ele>
        <time>2026-03-29T10:51:15Z</time>
      </trkpt>
      <trkpt lat="48.60854" lon="1.94008">
        <ele>128</ele>
        <time>2026-03-29T10:51:16Z</time>
      </trkpt>
      <trkpt lat="48.60856" lon="1.94011">
        <ele>128</ele>
        <time>2026-03-29T10:51:17Z</time>
      </trkpt>
      <trkpt lat="48.60858" lon="1.94012">
        <ele>128.8</ele>
        <time>2026-03-29T10:51:18Z</time>
      </trkpt>
      <trkpt lat="48.6086" lon="1.94014">
        <ele>128.8</ele>
        <time>2026-03-29T10:51:19Z</time>
      </trkpt>
      <trkpt lat="48.60861" lon="1.94016">
        <ele>128.8</ele>
        <time>2026-03-29T10:51:20Z</time>
      </trkpt>
      <trkpt lat="48.60864" lon="1.94019">
        <ele>128.4</ele>
        <time>2026-03-29T10:51:21Z</time>
      </trkpt>
      <trkpt lat="48.60867" lon="1.94021">
        <ele>128.6</ele>
        <time>2026-03-29T10:51:22Z</time>
      </trkpt>
      <trkpt lat="48.60869" lon="1.94024">
        <ele>128.6</ele>
        <time>2026-03-29T10:51:23Z</time>
      </trkpt>
      <trkpt lat="48.60871" lon="1.94027">
        <ele>128.6</ele>
        <time>2026-03-29T10:51:24Z</time>
      </trkpt>
      <trkpt lat="48.60874" lon="1.9403">
        <ele>128.6</ele>
        <time>2026-03-29T10:51:25Z</time>
      </trkpt>
      <trkpt lat="48.60877" lon="1.94033">
        <ele>127.8</ele>
        <time>2026-03-29T10:51:26Z</time>
      </trkpt>
      <trkpt lat="48.6088" lon="1.94036">
        <ele>127.8</ele>
        <time>2026-03-29T10:51:27Z</time>
      </trkpt>
      <trkpt lat="48.60883" lon="1.94039">
        <ele>127.8</ele>
        <time>2026-03-29T10:51:28Z</time>
      </trkpt>
      <trkpt lat="48.60885" lon="1.94042">
        <ele>128.6</ele>
        <time>2026-03-29T10:51:29Z</time>
      </trkpt>
      <trkpt lat="48.60887" lon="1.94044">
        <ele>128.8</ele>
        <time>2026-03-29T10:51:30Z</time>
      </trkpt>
      <trkpt lat="48.60889" lon="1.94045">
        <ele>128.8</ele>
        <time>2026-03-29T10:51:31Z</time>
      </trkpt>
      <trkpt lat="48.6089" lon="1.94047">
        <ele>128.8</ele>
        <time>2026-03-29T10:51:32Z</time>
      </trkpt>
      <trkpt lat="48.60892" lon="1.94049">
        <ele>129.6</ele>
        <time>2026-03-29T10:51:33Z</time>
      </trkpt>
      <trkpt lat="48.60893" lon="1.94049">
        <ele>129.8</ele>
        <time>2026-03-29T10:51:34Z</time>
      </trkpt>
      <trkpt lat="48.60894" lon="1.94051">
        <ele>129.8</ele>
        <time>2026-03-29T10:51:35Z</time>
      </trkpt>
      <trkpt lat="48.60896" lon="1.94053">
        <ele>129.8</ele>
        <time>2026-03-29T10:51:36Z</time>
      </trkpt>
      <trkpt lat="48.60897" lon="1.94055">
        <ele>130.8</ele>
        <time>2026-03-29T10:51:37Z</time>
      </trkpt>
      <trkpt lat="48.60898" lon="1.94057">
        <ele>131.2</ele>
        <time>2026-03-29T10:51:38Z</time>
      </trkpt>
      <trkpt lat="48.609" lon="1.94058">
        <ele>131.2</ele>
        <time>2026-03-29T10:51:39Z</time>
      </trkpt>
      <trkpt lat="48.60902" lon="1.9406">
        <ele>131.2</ele>
        <time>2026-03-29T10:51:40Z</time>
      </trkpt>
      <trkpt lat="48.60903" lon="1.94062">
        <ele>131.2</ele>
        <time>2026-03-29T10:51:41Z</time>
      </trkpt>
      <trkpt lat="48.60905" lon="1.94064">
        <ele>131.2</ele>
        <time>2026-03-29T10:51:42Z</time>
      </trkpt>
      <trkpt lat="48.60907" lon="1.94065">
        <ele>131.2</ele>
        <time>2026-03-29T10:51:43Z</time>
      </trkpt>
      <trkpt lat="48.60909" lon="1.94067">
        <ele>131.2</ele>
        <time>2026-03-29T10:51:44Z</time>
      </trkpt>
      <trkpt lat="48.60911" lon="1.94069">
        <ele>131.2</ele>
        <time>2026-03-29T10:51:45Z</time>
      </trkpt>
      <trkpt lat="48.60914" lon="1.94072">
        <ele>129.6</ele>
        <time>2026-03-29T10:51:46Z</time>
      </trkpt>
      <trkpt lat="48.60918" lon="1.94076">
        <ele>129.6</ele>
        <time>2026-03-29T10:51:47Z</time>
      </trkpt>
      <trkpt lat="48.60922" lon="1.9408">
        <ele>129.6</ele>
        <time>2026-03-29T10:51:48Z</time>
      </trkpt>
      <trkpt lat="48.60927" lon="1.94086">
        <ele>129</ele>
        <time>2026-03-29T10:51:49Z</time>
      </trkpt>
      <trkpt lat="48.60931" lon="1.94091">
        <ele>129.2</ele>
        <time>2026-03-29T10:51:50Z</time>
      </trkpt>
      <trkpt lat="48.60935" lon="1.94095">
        <ele>129.2</ele>
        <time>2026-03-29T10:51:51Z</time>
      </trkpt>
      <trkpt lat="48.60938" lon="1.94098">
        <ele>129.2</ele>
        <time>2026-03-29T10:51:52Z</time>
      </trkpt>
      <trkpt lat="48.60941" lon="1.94101">
        <ele>128.2</ele>
        <time>2026-03-29T10:51:53Z</time>
      </trkpt>
      <trkpt lat="48.60945" lon="1.94104">
        <ele>128</ele>
        <time>2026-03-29T10:51:54Z</time>
      </trkpt>
      <trkpt lat="48.60949" lon="1.94108">
        <ele>128</ele>
        <time>2026-03-29T10:51:55Z</time>
      </trkpt>
      <trkpt lat="48.60954" lon="1.94112">
        <ele>128</ele>
        <time>2026-03-29T10:51:56Z</time>
      </trkpt>
      <trkpt lat="48.60958" lon="1.94116">
        <ele>127.2</ele>
        <time>2026-03-29T10:51:57Z</time>
      </trkpt>
      <trkpt lat="48.60962" lon="1.9412">
        <ele>127.8</ele>
        <time>2026-03-29T10:51:58Z</time>
      </trkpt>
      <trkpt lat="48.60965" lon="1.94124">
        <ele>127.8</ele>
        <time>2026-03-29T10:51:59Z</time>
      </trkpt>
      <trkpt lat="48.60968" lon="1.94127">
        <ele>127.8</ele>
        <time>2026-03-29T10:52:00Z</time>
      </trkpt>
      <trkpt lat="48.60971" lon="1.94129">
        <ele>127.8</ele>
        <time>2026-03-29T10:52:01Z</time>
      </trkpt>
      <trkpt lat="48.60973" lon="1.94132">
        <ele>127.8</ele>
        <time>2026-03-29T10:52:02Z</time>
      </trkpt>
      <trkpt lat="48.60975" lon="1.94134">
        <ele>127.8</ele>
        <time>2026-03-29T10:52:03Z</time>
      </trkpt>
      <trkpt lat="48.60977" lon="1.94136">
        <ele>127.8</ele>
        <time>2026-03-29T10:52:04Z</time>
      </trkpt>
      <trkpt lat="48.60979" lon="1.94139">
        <ele>128</ele>
        <time>2026-03-29T10:52:05Z</time>
      </trkpt>
      <trkpt lat="48.60982" lon="1.94141">
        <ele>128.4</ele>
        <time>2026-03-29T10:52:06Z</time>
      </trkpt>
      <trkpt lat="48.60984" lon="1.94143">
        <ele>128.4</ele>
        <time>2026-03-29T10:52:07Z</time>
      </trkpt>
      <trkpt lat="48.60986" lon="1.94146">
        <ele>128.4</ele>
        <time>2026-03-29T10:52:08Z</time>
      </trkpt>
      <trkpt lat="48.60988" lon="1.94148">
        <ele>128.8</ele>
        <time>2026-03-29T10:52:09Z</time>
      </trkpt>
      <trkpt lat="48.6099" lon="1.94151">
        <ele>129</ele>
        <time>2026-03-29T10:52:10Z</time>
      </trkpt>
      <trkpt lat="48.60992" lon="1.94153">
        <ele>129</ele>
        <time>2026-03-29T10:52:11Z</time>
      </trkpt>
      <trkpt lat="48.60994" lon="1.94156">
        <ele>129</ele>
        <time>2026-03-29T10:52:12Z</time>
      </trkpt>
      <trkpt lat="48.60996" lon="1.94158">
        <ele>129</ele>
        <time>2026-03-29T10:52:13Z</time>
      </trkpt>
      <trkpt lat="48.60998" lon="1.9416">
        <ele>129.4</ele>
        <time>2026-03-29T10:52:14Z</time>
      </trkpt>
      <trkpt lat="48.61" lon="1.94162">
        <ele>129.4</ele>
        <time>2026-03-29T10:52:15Z</time>
      </trkpt>
      <trkpt lat="48.61002" lon="1.94165">
        <ele>129.4</ele>
        <time>2026-03-29T10:52:16Z</time>
      </trkpt>
      <trkpt lat="48.61005" lon="1.94167">
        <ele>129.4</ele>
        <time>2026-03-29T10:52:17Z</time>
      </trkpt>
      <trkpt lat="48.61007" lon="1.9417">
        <ele>129</ele>
        <time>2026-03-29T10:52:18Z</time>
      </trkpt>
      <trkpt lat="48.61009" lon="1.94173">
        <ele>129</ele>
        <time>2026-03-29T10:52:19Z</time>
      </trkpt>
      <trkpt lat="48.61012" lon="1.94175">
        <ele>129</ele>
        <time>2026-03-29T10:52:20Z</time>
      </trkpt>
      <trkpt lat="48.61014" lon="1.94178">
        <ele>129</ele>
        <time>2026-03-29T10:52:21Z</time>
      </trkpt>
      <trkpt lat="48.61017" lon="1.94181">
        <ele>129</ele>
        <time>2026-03-29T10:52:22Z</time>
      </trkpt>
      <trkpt lat="48.6102" lon="1.94183">
        <ele>129</ele>
        <time>2026-03-29T10:52:23Z</time>
      </trkpt>
      <trkpt lat="48.61022" lon="1.94186">
        <ele>129</ele>
        <time>2026-03-29T10:52:24Z</time>
      </trkpt>
      <trkpt lat="48.61025" lon="1.94188">
        <ele>128.6</ele>
        <time>2026-03-29T10:52:25Z</time>
      </trkpt>
      <trkpt lat="48.61027" lon="1.94191">
        <ele>128</ele>
        <time>2026-03-29T10:52:26Z</time>
      </trkpt>
      <trkpt lat="48.6103" lon="1.94193">
        <ele>128</ele>
        <time>2026-03-29T10:52:27Z</time>
      </trkpt>
      <trkpt lat="48.61032" lon="1.94195">
        <ele>128</ele>
        <time>2026-03-29T10:52:28Z</time>
      </trkpt>
      <trkpt lat="48.61035" lon="1.94196">
        <ele>128.6</ele>
        <time>2026-03-29T10:52:29Z</time>
      </trkpt>
      <trkpt lat="48.61038" lon="1.94197">
        <ele>128.6</ele>
        <time>2026-03-29T10:52:30Z</time>
      </trkpt>
      <trkpt lat="48.61039" lon="1.94195">
        <ele>128.6</ele>
        <time>2026-03-29T10:52:31Z</time>
      </trkpt>
      <trkpt lat="48.61041" lon="1.94193">
        <ele>128.6</ele>
        <time>2026-03-29T10:52:32Z</time>
      </trkpt>
      <trkpt lat="48.61042" lon="1.94191">
        <ele>128.6</ele>
        <time>2026-03-29T10:52:33Z</time>
      </trkpt>
      <trkpt lat="48.61044" lon="1.9419">
        <ele>128.8</ele>
        <time>2026-03-29T10:52:34Z</time>
      </trkpt>
      <trkpt lat="48.61045" lon="1.94187">
        <ele>128.8</ele>
        <time>2026-03-29T10:52:35Z</time>
      </trkpt>
      <trkpt lat="48.61047" lon="1.94185">
        <ele>128.8</ele>
        <time>2026-03-29T10:52:36Z</time>
      </trkpt>
      <trkpt lat="48.61048" lon="1.94183">
        <ele>128.8</ele>
        <time>2026-03-29T10:52:37Z</time>
      </trkpt>
      <trkpt lat="48.6105" lon="1.9418">
        <ele>129</ele>
        <time>2026-03-29T10:52:38Z</time>
      </trkpt>
      <trkpt lat="48.61051" lon="1.94177">
        <ele>129</ele>
        <time>2026-03-29T10:52:39Z</time>
      </trkpt>
      <trkpt lat="48.61052" lon="1.94175">
        <ele>129</ele>
        <time>2026-03-29T10:52:40Z</time>
      </trkpt>
      <trkpt lat="48.61053" lon="1.94172">
        <ele>129</ele>
        <time>2026-03-29T10:52:41Z</time>
      </trkpt>
      <trkpt lat="48.61055" lon="1.94169">
        <ele>129</ele>
        <time>2026-03-29T10:52:42Z</time>
      </trkpt>
      <trkpt lat="48.61057" lon="1.94166">
        <ele>129</ele>
        <time>2026-03-29T10:52:43Z</time>
      </trkpt>
      <trkpt lat="48.61059" lon="1.94162">
        <ele>129</ele>
        <time>2026-03-29T10:52:44Z</time>
      </trkpt>
      <trkpt lat="48.61061" lon="1.94157">
        <ele>129</ele>
        <time>2026-03-29T10:52:45Z</time>
      </trkpt>
      <trkpt lat="48.61063" lon="1.94152">
        <ele>129.4</ele>
        <time>2026-03-29T10:52:46Z</time>
      </trkpt>
      <trkpt lat="48.61065" lon="1.94147">
        <ele>129.4</ele>
        <time>2026-03-29T10:52:47Z</time>
      </trkpt>
      <trkpt lat="48.61068" lon="1.94144">
        <ele>129.4</ele>
        <time>2026-03-29T10:52:48Z</time>
      </trkpt>
      <trkpt lat="48.61069" lon="1.9414">
        <ele>129.4</ele>
        <time>2026-03-29T10:52:49Z</time>
      </trkpt>
      <trkpt lat="48.61071" lon="1.94136">
        <ele>129.2</ele>
        <time>2026-03-29T10:52:50Z</time>
      </trkpt>
      <trkpt lat="48.61072" lon="1.94133">
        <ele>129.2</ele>
        <time>2026-03-29T10:52:51Z</time>
      </trkpt>
      <trkpt lat="48.61074" lon="1.94129">
        <ele>129.2</ele>
        <time>2026-03-29T10:52:52Z</time>
      </trkpt>
      <trkpt lat="48.61077" lon="1.94124">
        <ele>129</ele>
        <time>2026-03-29T10:52:53Z</time>
      </trkpt>
      <trkpt lat="48.61078" lon="1.94121">
        <ele>128.6</ele>
        <time>2026-03-29T10:52:54Z</time>
      </trkpt>
      <trkpt lat="48.6108" lon="1.94119">
        <ele>128.6</ele>
        <time>2026-03-29T10:52:55Z</time>
      </trkpt>
      <trkpt lat="48.61083" lon="1.94115">
        <ele>128.6</ele>
        <time>2026-03-29T10:52:56Z</time>
      </trkpt>
      <trkpt lat="48.61086" lon="1.9411">
        <ele>129</ele>
        <time>2026-03-29T10:52:57Z</time>
      </trkpt>
      <trkpt lat="48.61088" lon="1.94105">
        <ele>129.4</ele>
        <time>2026-03-29T10:52:58Z</time>
      </trkpt>
      <trkpt lat="48.61089" lon="1.94101">
        <ele>129.4</ele>
        <time>2026-03-29T10:52:59Z</time>
      </trkpt>
      <trkpt lat="48.61091" lon="1.94097">
        <ele>129.4</ele>
        <time>2026-03-29T10:53:00Z</time>
      </trkpt>
      <trkpt lat="48.61093" lon="1.94094">
        <ele>129.4</ele>
        <time>2026-03-29T10:53:01Z</time>
      </trkpt>
      <trkpt lat="48.61094" lon="1.94091">
        <ele>129.6</ele>
        <time>2026-03-29T10:53:02Z</time>
      </trkpt>
      <trkpt lat="48.61096" lon="1.94088">
        <ele>129.6</ele>
        <time>2026-03-29T10:53:03Z</time>
      </trkpt>
      <trkpt lat="48.61096" lon="1.94084">
        <ele>129.6</ele>
        <time>2026-03-29T10:53:04Z</time>
      </trkpt>
      <trkpt lat="48.61096" lon="1.9408">
        <ele>129.6</ele>
        <time>2026-03-29T10:53:05Z</time>
      </trkpt>
      <trkpt lat="48.61095" lon="1.94076">
        <ele>130.2</ele>
        <time>2026-03-29T10:53:06Z</time>
      </trkpt>
      <trkpt lat="48.61094" lon="1.94071">
        <ele>130.2</ele>
        <time>2026-03-29T10:53:07Z</time>
      </trkpt>
      <trkpt lat="48.61093" lon="1.94068">
        <ele>130.2</ele>
        <time>2026-03-29T10:53:08Z</time>
      </trkpt>
      <trkpt lat="48.61093" lon="1.94064">
        <ele>130</ele>
        <time>2026-03-29T10:53:09Z</time>
      </trkpt>
      <trkpt lat="48.61093" lon="1.9406">
        <ele>130</ele>
        <time>2026-03-29T10:53:10Z</time>
      </trkpt>
      <trkpt lat="48.61092" lon="1.94058">
        <ele>130</ele>
        <time>2026-03-29T10:53:11Z</time>
      </trkpt>
      <trkpt lat="48.6109" lon="1.94055">
        <ele>130</ele>
        <time>2026-03-29T10:53:12Z</time>
      </trkpt>
      <trkpt lat="48.61088" lon="1.94052">
        <ele>130.2</ele>
        <time>2026-03-29T10:53:13Z</time>
      </trkpt>
      <trkpt lat="48.61088" lon="1.94048">
        <ele>129.6</ele>
        <time>2026-03-29T10:53:14Z</time>
      </trkpt>
      <trkpt lat="48.61087" lon="1.94045">
        <ele>129.6</ele>
        <time>2026-03-29T10:53:15Z</time>
      </trkpt>
      <trkpt lat="48.61085" lon="1.94042">
        <ele>129.6</ele>
        <time>2026-03-29T10:53:16Z</time>
      </trkpt>
      <trkpt lat="48.61084" lon="1.94039">
        <ele>129.2</ele>
        <time>2026-03-29T10:53:17Z</time>
      </trkpt>
      <trkpt lat="48.61082" lon="1.94036">
        <ele>129.6</ele>
        <time>2026-03-29T10:53:18Z</time>
      </trkpt>
      <trkpt lat="48.6108" lon="1.94034">
        <ele>129.6</ele>
        <time>2026-03-29T10:53:19Z</time>
      </trkpt>
      <trkpt lat="48.61078" lon="1.94031">
        <ele>129.6</ele>
        <time>2026-03-29T10:53:20Z</time>
      </trkpt>
      <trkpt lat="48.61077" lon="1.94027">
        <ele>129.6</ele>
        <time>2026-03-29T10:53:21Z</time>
      </trkpt>
      <trkpt lat="48.61075" lon="1.94024">
        <ele>130</ele>
        <time>2026-03-29T10:53:22Z</time>
      </trkpt>
      <trkpt lat="48.61073" lon="1.9402">
        <ele>130</ele>
        <time>2026-03-29T10:53:23Z</time>
      </trkpt>
      <trkpt lat="48.61072" lon="1.94017">
        <ele>130</ele>
        <time>2026-03-29T10:53:24Z</time>
      </trkpt>
      <trkpt lat="48.61071" lon="1.94014">
        <ele>129.6</ele>
        <time>2026-03-29T10:53:25Z</time>
      </trkpt>
      <trkpt lat="48.61071" lon="1.94011">
        <ele>129.2</ele>
        <time>2026-03-29T10:53:26Z</time>
      </trkpt>
      <trkpt lat="48.6107" lon="1.94009">
        <ele>129.2</ele>
        <time>2026-03-29T10:53:27Z</time>
      </trkpt>
      <trkpt lat="48.61069" lon="1.94005">
        <ele>129.2</ele>
        <time>2026-03-29T10:53:28Z</time>
      </trkpt>
      <trkpt lat="48.61068" lon="1.94002">
        <ele>129.2</ele>
        <time>2026-03-29T10:53:29Z</time>
      </trkpt>
      <trkpt lat="48.61066" lon="1.93998">
        <ele>129</ele>
        <time>2026-03-29T10:53:30Z</time>
      </trkpt>
      <trkpt lat="48.61065" lon="1.93995">
        <ele>129</ele>
        <time>2026-03-29T10:53:31Z</time>
      </trkpt>
      <trkpt lat="48.61063" lon="1.93991">
        <ele>129</ele>
        <time>2026-03-29T10:53:32Z</time>
      </trkpt>
      <trkpt lat="48.61061" lon="1.93988">
        <ele>129</ele>
        <time>2026-03-29T10:53:33Z</time>
      </trkpt>
      <trkpt lat="48.61059" lon="1.93987">
        <ele>129.4</ele>
        <time>2026-03-29T10:53:34Z</time>
      </trkpt>
      <trkpt lat="48.61058" lon="1.93984">
        <ele>129.4</ele>
        <time>2026-03-29T10:53:35Z</time>
      </trkpt>
      <trkpt lat="48.61057" lon="1.93982">
        <ele>129.4</ele>
        <time>2026-03-29T10:53:36Z</time>
      </trkpt>
      <trkpt lat="48.61057" lon="1.93979">
        <ele>128.6</ele>
        <time>2026-03-29T10:53:37Z</time>
      </trkpt>
      <trkpt lat="48.61057" lon="1.93975">
        <ele>128.4</ele>
        <time>2026-03-29T10:53:38Z</time>
      </trkpt>
      <trkpt lat="48.61055" lon="1.93969">
        <ele>128.4</ele>
        <time>2026-03-29T10:53:39Z</time>
      </trkpt>
      <trkpt lat="48.61054" lon="1.93963">
        <ele>128.4</ele>
        <time>2026-03-29T10:53:40Z</time>
      </trkpt>
      <trkpt lat="48.61054" lon="1.93956">
        <ele>127.6</ele>
        <time>2026-03-29T10:53:41Z</time>
      </trkpt>
      <trkpt lat="48.61055" lon="1.9395">
        <ele>127.8</ele>
        <time>2026-03-29T10:53:42Z</time>
      </trkpt>
      <trkpt lat="48.61057" lon="1.93944">
        <ele>127.8</ele>
        <time>2026-03-29T10:53:43Z</time>
      </trkpt>
      <trkpt lat="48.61058" lon="1.9394">
        <ele>127.8</ele>
        <time>2026-03-29T10:53:44Z</time>
      </trkpt>
      <trkpt lat="48.61058" lon="1.93938">
        <ele>127.8</ele>
        <time>2026-03-29T10:53:45Z</time>
      </trkpt>
      <trkpt lat="48.61057" lon="1.93934">
        <ele>127.6</ele>
        <time>2026-03-29T10:53:46Z</time>
      </trkpt>
      <trkpt lat="48.61055" lon="1.9393">
        <ele>127.6</ele>
        <time>2026-03-29T10:53:47Z</time>
      </trkpt>
      <trkpt lat="48.61055" lon="1.93924">
        <ele>127.6</ele>
        <time>2026-03-29T10:53:48Z</time>
      </trkpt>
      <trkpt lat="48.61056" lon="1.9392">
        <ele>127</ele>
        <time>2026-03-29T10:53:49Z</time>
      </trkpt>
      <trkpt lat="48.61056" lon="1.93916">
        <ele>126.8</ele>
        <time>2026-03-29T10:53:50Z</time>
      </trkpt>
      <trkpt lat="48.61056" lon="1.93911">
        <ele>126.8</ele>
        <time>2026-03-29T10:53:51Z</time>
      </trkpt>
      <trkpt lat="48.61055" lon="1.93905">
        <ele>126.8</ele>
        <time>2026-03-29T10:53:52Z</time>
      </trkpt>
      <trkpt lat="48.61053" lon="1.939">
        <ele>126.8</ele>
        <time>2026-03-29T10:53:53Z</time>
      </trkpt>
      <trkpt lat="48.61051" lon="1.93896">
        <ele>127.8</ele>
        <time>2026-03-29T10:53:54Z</time>
      </trkpt>
      <trkpt lat="48.6105" lon="1.93893">
        <ele>127.8</ele>
        <time>2026-03-29T10:53:55Z</time>
      </trkpt>
      <trkpt lat="48.61049" lon="1.93891">
        <ele>127.8</ele>
        <time>2026-03-29T10:53:56Z</time>
      </trkpt>
      <trkpt lat="48.61048" lon="1.93889">
        <ele>127.8</ele>
        <time>2026-03-29T10:53:57Z</time>
      </trkpt>
      <trkpt lat="48.61047" lon="1.93888">
        <ele>128.6</ele>
        <time>2026-03-29T10:53:58Z</time>
      </trkpt>
      <trkpt lat="48.61047" lon="1.93886">
        <ele>128.6</ele>
        <time>2026-03-29T10:53:59Z</time>
      </trkpt>
      <trkpt lat="48.61046" lon="1.93884">
        <ele>128.6</ele>
        <time>2026-03-29T10:54:00Z</time>
      </trkpt>
      <trkpt lat="48.61046" lon="1.93882">
        <ele>128.6</ele>
        <time>2026-03-29T10:54:01Z</time>
      </trkpt>
      <trkpt lat="48.61047" lon="1.93879">
        <ele>129</ele>
        <time>2026-03-29T10:54:02Z</time>
      </trkpt>
      <trkpt lat="48.61047" lon="1.93876">
        <ele>129</ele>
        <time>2026-03-29T10:54:03Z</time>
      </trkpt>
      <trkpt lat="48.61047" lon="1.93874">
        <ele>129</ele>
        <time>2026-03-29T10:54:04Z</time>
      </trkpt>
      <trkpt lat="48.61046" lon="1.93871">
        <ele>129.8</ele>
        <time>2026-03-29T10:54:05Z</time>
      </trkpt>
      <trkpt lat="48.61045" lon="1.93868">
        <ele>130</ele>
        <time>2026-03-29T10:54:06Z</time>
      </trkpt>
      <trkpt lat="48.61045" lon="1.93864">
        <ele>130</ele>
        <time>2026-03-29T10:54:07Z</time>
      </trkpt>
      <trkpt lat="48.61043" lon="1.9386">
        <ele>130</ele>
        <time>2026-03-29T10:54:08Z</time>
      </trkpt>
      <trkpt lat="48.61042" lon="1.93857">
        <ele>130</ele>
        <time>2026-03-29T10:54:09Z</time>
      </trkpt>
      <trkpt lat="48.61042" lon="1.93855">
        <ele>130.4</ele>
        <time>2026-03-29T10:54:10Z</time>
      </trkpt>
      <trkpt lat="48.61042" lon="1.93852">
        <ele>130.4</ele>
        <time>2026-03-29T10:54:11Z</time>
      </trkpt>
      <trkpt lat="48.61042" lon="1.93849">
        <ele>130.4</ele>
        <time>2026-03-29T10:54:12Z</time>
      </trkpt>
      <trkpt lat="48.61041" lon="1.93847">
        <ele>130.4</ele>
        <time>2026-03-29T10:54:13Z</time>
      </trkpt>
      <trkpt lat="48.61041" lon="1.93845">
        <ele>130.8</ele>
        <time>2026-03-29T10:54:14Z</time>
      </trkpt>
      <trkpt lat="48.6104" lon="1.93842">
        <ele>130.8</ele>
        <time>2026-03-29T10:54:15Z</time>
      </trkpt>
      <trkpt lat="48.6104" lon="1.93838">
        <ele>130.8</ele>
        <time>2026-03-29T10:54:16Z</time>
      </trkpt>
      <trkpt lat="48.61041" lon="1.93836">
        <ele>130.8</ele>
        <time>2026-03-29T10:54:17Z</time>
      </trkpt>
      <trkpt lat="48.61041" lon="1.93832">
        <ele>131.2</ele>
        <time>2026-03-29T10:54:18Z</time>
      </trkpt>
      <trkpt lat="48.61042" lon="1.93829">
        <ele>131.2</ele>
        <time>2026-03-29T10:54:19Z</time>
      </trkpt>
      <trkpt lat="48.61043" lon="1.93825">
        <ele>131.2</ele>
        <time>2026-03-29T10:54:20Z</time>
      </trkpt>
      <trkpt lat="48.61042" lon="1.93821">
        <ele>131.2</ele>
        <time>2026-03-29T10:54:21Z</time>
      </trkpt>
      <trkpt lat="48.61042" lon="1.93816">
        <ele>131</ele>
        <time>2026-03-29T10:54:22Z</time>
      </trkpt>
      <trkpt lat="48.6104" lon="1.93813">
        <ele>131</ele>
        <time>2026-03-29T10:54:23Z</time>
      </trkpt>
      <trkpt lat="48.61039" lon="1.9381">
        <ele>131</ele>
        <time>2026-03-29T10:54:24Z</time>
      </trkpt>
      <trkpt lat="48.61037" lon="1.93807">
        <ele>130</ele>
        <time>2026-03-29T10:54:25Z</time>
      </trkpt>
      <trkpt lat="48.61036" lon="1.93803">
        <ele>129</ele>
        <time>2026-03-29T10:54:26Z</time>
      </trkpt>
      <trkpt lat="48.61034" lon="1.93799">
        <ele>129</ele>
        <time>2026-03-29T10:54:27Z</time>
      </trkpt>
      <trkpt lat="48.61034" lon="1.93794">
        <ele>129</ele>
        <time>2026-03-29T10:54:28Z</time>
      </trkpt>
      <trkpt lat="48.61034" lon="1.93788">
        <ele>128</ele>
        <time>2026-03-29T10:54:29Z</time>
      </trkpt>
      <trkpt lat="48.61036" lon="1.93782">
        <ele>128</ele>
        <time>2026-03-29T10:54:30Z</time>
      </trkpt>
      <trkpt lat="48.61036" lon="1.93776">
        <ele>128</ele>
        <time>2026-03-29T10:54:31Z</time>
      </trkpt>
      <trkpt lat="48.61035" lon="1.93771">
        <ele>128</ele>
        <time>2026-03-29T10:54:32Z</time>
      </trkpt>
      <trkpt lat="48.61035" lon="1.93765">
        <ele>128.6</ele>
        <time>2026-03-29T10:54:33Z</time>
      </trkpt>
      <trkpt lat="48.61035" lon="1.93762">
        <ele>128.4</ele>
        <time>2026-03-29T10:54:34Z</time>
      </trkpt>
      <trkpt lat="48.61034" lon="1.93758">
        <ele>128.4</ele>
        <time>2026-03-29T10:54:35Z</time>
      </trkpt>
      <trkpt lat="48.61034" lon="1.93755">
        <ele>128.4</ele>
        <time>2026-03-29T10:54:36Z</time>
      </trkpt>
      <trkpt lat="48.61033" lon="1.93752">
        <ele>129.4</ele>
        <time>2026-03-29T10:54:37Z</time>
      </trkpt>
      <trkpt lat="48.61033" lon="1.93749">
        <ele>129.8</ele>
        <time>2026-03-29T10:54:38Z</time>
      </trkpt>
      <trkpt lat="48.61033" lon="1.93746">
        <ele>129.8</ele>
        <time>2026-03-29T10:54:39Z</time>
      </trkpt>
      <trkpt lat="48.61032" lon="1.93743">
        <ele>129.8</ele>
        <time>2026-03-29T10:54:40Z</time>
      </trkpt>
      <trkpt lat="48.61031" lon="1.93739">
        <ele>129.8</ele>
        <time>2026-03-29T10:54:41Z</time>
      </trkpt>
      <trkpt lat="48.61031" lon="1.93735">
        <ele>129.4</ele>
        <time>2026-03-29T10:54:42Z</time>
      </trkpt>
      <trkpt lat="48.61031" lon="1.93731">
        <ele>129.4</ele>
        <time>2026-03-29T10:54:43Z</time>
      </trkpt>
      <trkpt lat="48.61031" lon="1.93728">
        <ele>129.4</ele>
        <time>2026-03-29T10:54:44Z</time>
      </trkpt>
      <trkpt lat="48.61031" lon="1.93725">
        <ele>130.4</ele>
        <time>2026-03-29T10:54:45Z</time>
      </trkpt>
      <trkpt lat="48.61031" lon="1.93721">
        <ele>130.4</ele>
        <time>2026-03-29T10:54:46Z</time>
      </trkpt>
      <trkpt lat="48.61032" lon="1.93717">
        <ele>130.4</ele>
        <time>2026-03-29T10:54:47Z</time>
      </trkpt>
      <trkpt lat="48.61031" lon="1.93713">
        <ele>130.4</ele>
        <time>2026-03-29T10:54:48Z</time>
      </trkpt>
      <trkpt lat="48.61032" lon="1.93709">
        <ele>130.4</ele>
        <time>2026-03-29T10:54:49Z</time>
      </trkpt>
      <trkpt lat="48.61032" lon="1.93705">
        <ele>130</ele>
        <time>2026-03-29T10:54:50Z</time>
      </trkpt>
      <trkpt lat="48.61032" lon="1.937">
        <ele>130</ele>
        <time>2026-03-29T10:54:51Z</time>
      </trkpt>
      <trkpt lat="48.61032" lon="1.93696">
        <ele>130</ele>
        <time>2026-03-29T10:54:52Z</time>
      </trkpt>
      <trkpt lat="48.61033" lon="1.93691">
        <ele>130</ele>
        <time>2026-03-29T10:54:53Z</time>
      </trkpt>
      <trkpt lat="48.61034" lon="1.93687">
        <ele>130.4</ele>
        <time>2026-03-29T10:54:54Z</time>
      </trkpt>
      <trkpt lat="48.61035" lon="1.93684">
        <ele>130.4</ele>
        <time>2026-03-29T10:54:55Z</time>
      </trkpt>
      <trkpt lat="48.61035" lon="1.93682">
        <ele>130.4</ele>
        <time>2026-03-29T10:54:56Z</time>
      </trkpt>
      <trkpt lat="48.61036" lon="1.93679">
        <ele>130.4</ele>
        <time>2026-03-29T10:54:57Z</time>
      </trkpt>
      <trkpt lat="48.61036" lon="1.93675">
        <ele>130.4</ele>
        <time>2026-03-29T10:54:58Z</time>
      </trkpt>
      <trkpt lat="48.61037" lon="1.93669">
        <ele>130.4</ele>
        <time>2026-03-29T10:54:59Z</time>
      </trkpt>
      <trkpt lat="48.61038" lon="1.93665">
        <ele>130.4</ele>
        <time>2026-03-29T10:55:00Z</time>
      </trkpt>
      <trkpt lat="48.6104" lon="1.93659">
        <ele>130</ele>
        <time>2026-03-29T10:55:01Z</time>
      </trkpt>
      <trkpt lat="48.61042" lon="1.93653">
        <ele>130</ele>
        <time>2026-03-29T10:55:02Z</time>
      </trkpt>
      <trkpt lat="48.61043" lon="1.93648">
        <ele>130</ele>
        <time>2026-03-29T10:55:03Z</time>
      </trkpt>
      <trkpt lat="48.61044" lon="1.93643">
        <ele>130</ele>
        <time>2026-03-29T10:55:04Z</time>
      </trkpt>
      <trkpt lat="48.61046" lon="1.93637">
        <ele>129</ele>
        <time>2026-03-29T10:55:05Z</time>
      </trkpt>
      <trkpt lat="48.61048" lon="1.9363">
        <ele>128.2</ele>
        <time>2026-03-29T10:55:06Z</time>
      </trkpt>
      <trkpt lat="48.6105" lon="1.93624">
        <ele>128.2</ele>
        <time>2026-03-29T10:55:07Z</time>
      </trkpt>
      <trkpt lat="48.61051" lon="1.93618">
        <ele>128.2</ele>
        <time>2026-03-29T10:55:08Z</time>
      </trkpt>
      <trkpt lat="48.61052" lon="1.93614">
        <ele>128.6</ele>
        <time>2026-03-29T10:55:09Z</time>
      </trkpt>
      <trkpt lat="48.61052" lon="1.93611">
        <ele>129.4</ele>
        <time>2026-03-29T10:55:10Z</time>
      </trkpt>
      <trkpt lat="48.61053" lon="1.93608">
        <ele>129.4</ele>
        <time>2026-03-29T10:55:11Z</time>
      </trkpt>
      <trkpt lat="48.61054" lon="1.93605">
        <ele>129.4</ele>
        <time>2026-03-29T10:55:12Z</time>
      </trkpt>
      <trkpt lat="48.61054" lon="1.93603">
        <ele>130</ele>
        <time>2026-03-29T10:55:13Z</time>
      </trkpt>
      <trkpt lat="48.61054" lon="1.936">
        <ele>130.6</ele>
        <time>2026-03-29T10:55:14Z</time>
      </trkpt>
      <trkpt lat="48.61055" lon="1.93598">
        <ele>130.6</ele>
        <time>2026-03-29T10:55:15Z</time>
      </trkpt>
      <trkpt lat="48.61055" lon="1.93596">
        <ele>130.6</ele>
        <time>2026-03-29T10:55:16Z</time>
      </trkpt>
      <trkpt lat="48.61056" lon="1.93594">
        <ele>130.6</ele>
        <time>2026-03-29T10:55:17Z</time>
      </trkpt>
      <trkpt lat="48.61056" lon="1.93591">
        <ele>131</ele>
        <time>2026-03-29T10:55:18Z</time>
      </trkpt>
      <trkpt lat="48.61057" lon="1.93587">
        <ele>131</ele>
        <time>2026-03-29T10:55:19Z</time>
      </trkpt>
      <trkpt lat="48.61057" lon="1.93584">
        <ele>131</ele>
        <time>2026-03-29T10:55:20Z</time>
      </trkpt>
      <trkpt lat="48.61056" lon="1.9358">
        <ele>131</ele>
        <time>2026-03-29T10:55:21Z</time>
      </trkpt>
      <trkpt lat="48.61055" lon="1.93578">
        <ele>131</ele>
        <time>2026-03-29T10:55:22Z</time>
      </trkpt>
      <trkpt lat="48.61054" lon="1.93575">
        <ele>131</ele>
        <time>2026-03-29T10:55:23Z</time>
      </trkpt>
      <trkpt lat="48.61052" lon="1.93573">
        <ele>131</ele>
        <time>2026-03-29T10:55:24Z</time>
      </trkpt>
      <trkpt lat="48.61051" lon="1.9357">
        <ele>131.4</ele>
        <time>2026-03-29T10:55:25Z</time>
      </trkpt>
      <trkpt lat="48.61049" lon="1.93567">
        <ele>131.4</ele>
        <time>2026-03-29T10:55:26Z</time>
      </trkpt>
      <trkpt lat="48.61048" lon="1.93565">
        <ele>131.4</ele>
        <time>2026-03-29T10:55:27Z</time>
      </trkpt>
      <trkpt lat="48.61046" lon="1.93562">
        <ele>131.4</ele>
        <time>2026-03-29T10:55:28Z</time>
      </trkpt>
      <trkpt lat="48.61045" lon="1.9356">
        <ele>131.4</ele>
        <time>2026-03-29T10:55:29Z</time>
      </trkpt>
      <trkpt lat="48.61044" lon="1.93558">
        <ele>131.4</ele>
        <time>2026-03-29T10:55:30Z</time>
      </trkpt>
      <trkpt lat="48.61042" lon="1.93556">
        <ele>131.4</ele>
        <time>2026-03-29T10:55:31Z</time>
      </trkpt>
      <trkpt lat="48.61041" lon="1.93553">
        <ele>131.4</ele>
        <time>2026-03-29T10:55:32Z</time>
      </trkpt>
      <trkpt lat="48.6104" lon="1.9355">
        <ele>131.4</ele>
        <time>2026-03-29T10:55:33Z</time>
      </trkpt>
      <trkpt lat="48.61038" lon="1.93548">
        <ele>131.8</ele>
        <time>2026-03-29T10:55:34Z</time>
      </trkpt>
      <trkpt lat="48.61037" lon="1.93545">
        <ele>131.8</ele>
        <time>2026-03-29T10:55:35Z</time>
      </trkpt>
      <trkpt lat="48.61035" lon="1.93542">
        <ele>131.8</ele>
        <time>2026-03-29T10:55:36Z</time>
      </trkpt>
      <trkpt lat="48.61033" lon="1.9354">
        <ele>131.8</ele>
        <time>2026-03-29T10:55:37Z</time>
      </trkpt>
      <trkpt lat="48.61032" lon="1.93537">
        <ele>132.4</ele>
        <time>2026-03-29T10:55:38Z</time>
      </trkpt>
      <trkpt lat="48.61031" lon="1.93534">
        <ele>132.4</ele>
        <time>2026-03-29T10:55:39Z</time>
      </trkpt>
      <trkpt lat="48.61029" lon="1.93532">
        <ele>132.4</ele>
        <time>2026-03-29T10:55:40Z</time>
      </trkpt>
      <trkpt lat="48.61027" lon="1.9353">
        <ele>132.4</ele>
        <time>2026-03-29T10:55:41Z</time>
      </trkpt>
      <trkpt lat="48.61025" lon="1.93528">
        <ele>132.4</ele>
        <time>2026-03-29T10:55:42Z</time>
      </trkpt>
      <trkpt lat="48.61024" lon="1.93525">
        <ele>132.4</ele>
        <time>2026-03-29T10:55:43Z</time>
      </trkpt>
      <trkpt lat="48.61022" lon="1.93523">
        <ele>132.4</ele>
        <time>2026-03-29T10:55:44Z</time>
      </trkpt>
      <trkpt lat="48.61021" lon="1.93521">
        <ele>133.2</ele>
        <time>2026-03-29T10:55:45Z</time>
      </trkpt>
      <trkpt lat="48.6102" lon="1.93519">
        <ele>133.2</ele>
        <time>2026-03-29T10:55:46Z</time>
      </trkpt>
      <trkpt lat="48.61018" lon="1.93516">
        <ele>133.2</ele>
        <time>2026-03-29T10:55:47Z</time>
      </trkpt>
      <trkpt lat="48.61017" lon="1.93514">
        <ele>133.2</ele>
        <time>2026-03-29T10:55:48Z</time>
      </trkpt>
      <trkpt lat="48.61016" lon="1.93512">
        <ele>134</ele>
        <time>2026-03-29T10:55:49Z</time>
      </trkpt>
      <trkpt lat="48.61014" lon="1.93509">
        <ele>133.2</ele>
        <time>2026-03-29T10:55:50Z</time>
      </trkpt>
      <trkpt lat="48.61012" lon="1.93507">
        <ele>133.2</ele>
        <time>2026-03-29T10:55:51Z</time>
      </trkpt>
      <trkpt lat="48.61011" lon="1.93504">
        <ele>133.2</ele>
        <time>2026-03-29T10:55:52Z</time>
      </trkpt>
      <trkpt lat="48.61009" lon="1.93502">
        <ele>133.8</ele>
        <time>2026-03-29T10:55:53Z</time>
      </trkpt>
      <trkpt lat="48.61007" lon="1.935">
        <ele>134</ele>
        <time>2026-03-29T10:55:54Z</time>
      </trkpt>
      <trkpt lat="48.61005" lon="1.93498">
        <ele>134</ele>
        <time>2026-03-29T10:55:55Z</time>
      </trkpt>
      <trkpt lat="48.61003" lon="1.93495">
        <ele>134</ele>
        <time>2026-03-29T10:55:56Z</time>
      </trkpt>
      <trkpt lat="48.61002" lon="1.93493">
        <ele>134.8</ele>
        <time>2026-03-29T10:55:57Z</time>
      </trkpt>
      <trkpt lat="48.61" lon="1.93491">
        <ele>134.6</ele>
        <time>2026-03-29T10:55:58Z</time>
      </trkpt>
      <trkpt lat="48.60998" lon="1.93489">
        <ele>134.6</ele>
        <time>2026-03-29T10:55:59Z</time>
      </trkpt>
      <trkpt lat="48.60997" lon="1.93486">
        <ele>134.6</ele>
        <time>2026-03-29T10:56:00Z</time>
      </trkpt>
      <trkpt lat="48.60995" lon="1.93484">
        <ele>135.2</ele>
        <time>2026-03-29T10:56:01Z</time>
      </trkpt>
      <trkpt lat="48.60993" lon="1.93481">
        <ele>134.8</ele>
        <time>2026-03-29T10:56:02Z</time>
      </trkpt>
      <trkpt lat="48.60992" lon="1.93479">
        <ele>134.8</ele>
        <time>2026-03-29T10:56:03Z</time>
      </trkpt>
      <trkpt lat="48.6099" lon="1.93476">
        <ele>134.8</ele>
        <time>2026-03-29T10:56:04Z</time>
      </trkpt>
      <trkpt lat="48.60988" lon="1.93473">
        <ele>135.2</ele>
        <time>2026-03-29T10:56:05Z</time>
      </trkpt>
      <trkpt lat="48.60986" lon="1.93471">
        <ele>135</ele>
        <time>2026-03-29T10:56:06Z</time>
      </trkpt>
      <trkpt lat="48.60984" lon="1.93468">
        <ele>135</ele>
        <time>2026-03-29T10:56:07Z</time>
      </trkpt>
      <trkpt lat="48.60982" lon="1.93465">
        <ele>135</ele>
        <time>2026-03-29T10:56:08Z</time>
      </trkpt>
      <trkpt lat="48.60981" lon="1.93463">
        <ele>135</ele>
        <time>2026-03-29T10:56:09Z</time>
      </trkpt>
      <trkpt lat="48.60979" lon="1.9346">
        <ele>134.8</ele>
        <time>2026-03-29T10:56:10Z</time>
      </trkpt>
      <trkpt lat="48.60977" lon="1.93458">
        <ele>134.8</ele>
        <time>2026-03-29T10:56:11Z</time>
      </trkpt>
      <trkpt lat="48.60976" lon="1.93455">
        <ele>134.8</ele>
        <time>2026-03-29T10:56:12Z</time>
      </trkpt>
      <trkpt lat="48.60974" lon="1.93453">
        <ele>135.2</ele>
        <time>2026-03-29T10:56:13Z</time>
      </trkpt>
      <trkpt lat="48.60972" lon="1.9345">
        <ele>134.8</ele>
        <time>2026-03-29T10:56:14Z</time>
      </trkpt>
      <trkpt lat="48.6097" lon="1.93447">
        <ele>134.8</ele>
        <time>2026-03-29T10:56:15Z</time>
      </trkpt>
      <trkpt lat="48.60968" lon="1.93445">
        <ele>134.8</ele>
        <time>2026-03-29T10:56:16Z</time>
      </trkpt>
      <trkpt lat="48.60966" lon="1.93442">
        <ele>135.4</ele>
        <time>2026-03-29T10:56:17Z</time>
      </trkpt>
      <trkpt lat="48.60965" lon="1.93439">
        <ele>135.6</ele>
        <time>2026-03-29T10:56:18Z</time>
      </trkpt>
      <trkpt lat="48.60962" lon="1.93437">
        <ele>135.6</ele>
        <time>2026-03-29T10:56:19Z</time>
      </trkpt>
      <trkpt lat="48.60961" lon="1.93435">
        <ele>135.6</ele>
        <time>2026-03-29T10:56:20Z</time>
      </trkpt>
      <trkpt lat="48.6096" lon="1.93432">
        <ele>135.6</ele>
        <time>2026-03-29T10:56:21Z</time>
      </trkpt>
      <trkpt lat="48.60959" lon="1.9343">
        <ele>136.2</ele>
        <time>2026-03-29T10:56:22Z</time>
      </trkpt>
      <trkpt lat="48.60958" lon="1.93427">
        <ele>136.2</ele>
        <time>2026-03-29T10:56:23Z</time>
      </trkpt>
      <trkpt lat="48.60957" lon="1.93426">
        <ele>136.2</ele>
        <time>2026-03-29T10:56:24Z</time>
      </trkpt>
      <trkpt lat="48.60956" lon="1.93423">
        <ele>136.4</ele>
        <time>2026-03-29T10:56:25Z</time>
      </trkpt>
      <trkpt lat="48.60955" lon="1.93421">
        <ele>136.8</ele>
        <time>2026-03-29T10:56:26Z</time>
      </trkpt>
      <trkpt lat="48.60954" lon="1.93418">
        <ele>136.8</ele>
        <time>2026-03-29T10:56:27Z</time>
      </trkpt>
      <trkpt lat="48.60954" lon="1.93415">
        <ele>136.8</ele>
        <time>2026-03-29T10:56:28Z</time>
      </trkpt>
      <trkpt lat="48.60955" lon="1.93412">
        <ele>136.8</ele>
        <time>2026-03-29T10:56:29Z</time>
      </trkpt>
      <trkpt lat="48.60956" lon="1.93411">
        <ele>137.4</ele>
        <time>2026-03-29T10:56:30Z</time>
      </trkpt>
      <trkpt lat="48.60958" lon="1.9341">
        <ele>137.4</ele>
        <time>2026-03-29T10:56:31Z</time>
      </trkpt>
      <trkpt lat="48.60958" lon="1.9341">
        <ele>137.4</ele>
        <time>2026-03-29T10:56:32Z</time>
      </trkpt>
      <trkpt lat="48.6096" lon="1.93408">
        <ele>137.8</ele>
        <time>2026-03-29T10:56:33Z</time>
      </trkpt>
      <trkpt lat="48.60961" lon="1.93406">
        <ele>137.4</ele>
        <time>2026-03-29T10:56:34Z</time>
      </trkpt>
      <trkpt lat="48.60963" lon="1.93405">
        <ele>137.4</ele>
        <time>2026-03-29T10:56:35Z</time>
      </trkpt>
      <trkpt lat="48.60965" lon="1.93404">
        <ele>137.4</ele>
        <time>2026-03-29T10:56:36Z</time>
      </trkpt>
      <trkpt lat="48.60966" lon="1.93403">
        <ele>138.2</ele>
        <time>2026-03-29T10:56:37Z</time>
      </trkpt>
      <trkpt lat="48.60968" lon="1.93402">
        <ele>138.4</ele>
        <time>2026-03-29T10:56:38Z</time>
      </trkpt>
      <trkpt lat="48.60969" lon="1.93401">
        <ele>138.4</ele>
        <time>2026-03-29T10:56:39Z</time>
      </trkpt>
      <trkpt lat="48.6097" lon="1.934">
        <ele>138.4</ele>
        <time>2026-03-29T10:56:40Z</time>
      </trkpt>
      <trkpt lat="48.60972" lon="1.93399">
        <ele>138.4</ele>
        <time>2026-03-29T10:56:41Z</time>
      </trkpt>
      <trkpt lat="48.60974" lon="1.93398">
        <ele>139</ele>
        <time>2026-03-29T10:56:42Z</time>
      </trkpt>
      <trkpt lat="48.60975" lon="1.93397">
        <ele>139</ele>
        <time>2026-03-29T10:56:43Z</time>
      </trkpt>
      <trkpt lat="48.60977" lon="1.93396">
        <ele>139</ele>
        <time>2026-03-29T10:56:44Z</time>
      </trkpt>
      <trkpt lat="48.60978" lon="1.93395">
        <ele>139</ele>
        <time>2026-03-29T10:56:45Z</time>
      </trkpt>
      <trkpt lat="48.6098" lon="1.93394">
        <ele>139</ele>
        <time>2026-03-29T10:56:46Z</time>
      </trkpt>
      <trkpt lat="48.60981" lon="1.93393">
        <ele>139</ele>
        <time>2026-03-29T10:56:47Z</time>
      </trkpt>
      <trkpt lat="48.60983" lon="1.93393">
        <ele>139</ele>
        <time>2026-03-29T10:56:48Z</time>
      </trkpt>
      <trkpt lat="48.60984" lon="1.93391">
        <ele>139</ele>
        <time>2026-03-29T10:56:49Z</time>
      </trkpt>
      <trkpt lat="48.60986" lon="1.9339">
        <ele>139.2</ele>
        <time>2026-03-29T10:56:50Z</time>
      </trkpt>
      <trkpt lat="48.60987" lon="1.9339">
        <ele>139.2</ele>
        <time>2026-03-29T10:56:51Z</time>
      </trkpt>
      <trkpt lat="48.60988" lon="1.93389">
        <ele>139.2</ele>
        <time>2026-03-29T10:56:52Z</time>
      </trkpt>
      <trkpt lat="48.6099" lon="1.93388">
        <ele>139.8</ele>
        <time>2026-03-29T10:56:53Z</time>
      </trkpt>
      <trkpt lat="48.60991" lon="1.93387">
        <ele>139.8</ele>
        <time>2026-03-29T10:56:54Z</time>
      </trkpt>
      <trkpt lat="48.60993" lon="1.93386">
        <ele>139.8</ele>
        <time>2026-03-29T10:56:55Z</time>
      </trkpt>
      <trkpt lat="48.60995" lon="1.93385">
        <ele>139.8</ele>
        <time>2026-03-29T10:56:56Z</time>
      </trkpt>
      <trkpt lat="48.60996" lon="1.93383">
        <ele>140.4</ele>
        <time>2026-03-29T10:56:57Z</time>
      </trkpt>
      <trkpt lat="48.60997" lon="1.93383">
        <ele>140.4</ele>
        <time>2026-03-29T10:56:58Z</time>
      </trkpt>
      <trkpt lat="48.60999" lon="1.93382">
        <ele>140.4</ele>
        <time>2026-03-29T10:56:59Z</time>
      </trkpt>
      <trkpt lat="48.61" lon="1.9338">
        <ele>140.4</ele>
        <time>2026-03-29T10:57:00Z</time>
      </trkpt>
      <trkpt lat="48.61002" lon="1.93379">
        <ele>140.4</ele>
        <time>2026-03-29T10:57:01Z</time>
      </trkpt>
      <trkpt lat="48.61004" lon="1.93377">
        <ele>141</ele>
        <time>2026-03-29T10:57:02Z</time>
      </trkpt>
      <trkpt lat="48.61006" lon="1.93375">
        <ele>141</ele>
        <time>2026-03-29T10:57:03Z</time>
      </trkpt>
      <trkpt lat="48.61008" lon="1.93374">
        <ele>141</ele>
        <time>2026-03-29T10:57:04Z</time>
      </trkpt>
      <trkpt lat="48.6101" lon="1.93373">
        <ele>141.4</ele>
        <time>2026-03-29T10:57:05Z</time>
      </trkpt>
      <trkpt lat="48.61011" lon="1.93372">
        <ele>141.6</ele>
        <time>2026-03-29T10:57:06Z</time>
      </trkpt>
      <trkpt lat="48.61013" lon="1.93371">
        <ele>141.6</ele>
        <time>2026-03-29T10:57:07Z</time>
      </trkpt>
      <trkpt lat="48.61014" lon="1.9337">
        <ele>141.6</ele>
        <time>2026-03-29T10:57:08Z</time>
      </trkpt>
      <trkpt lat="48.61016" lon="1.93368">
        <ele>142.2</ele>
        <time>2026-03-29T10:57:09Z</time>
      </trkpt>
      <trkpt lat="48.61018" lon="1.93368">
        <ele>142.6</ele>
        <time>2026-03-29T10:57:10Z</time>
      </trkpt>
      <trkpt lat="48.61019" lon="1.93367">
        <ele>142.6</ele>
        <time>2026-03-29T10:57:11Z</time>
      </trkpt>
      <trkpt lat="48.61021" lon="1.93366">
        <ele>142.6</ele>
        <time>2026-03-29T10:57:12Z</time>
      </trkpt>
      <trkpt lat="48.61022" lon="1.93365">
        <ele>143.2</ele>
        <time>2026-03-29T10:57:13Z</time>
      </trkpt>
      <trkpt lat="48.61023" lon="1.93365">
        <ele>143.8</ele>
        <time>2026-03-29T10:57:14Z</time>
      </trkpt>
      <trkpt lat="48.61025" lon="1.93364">
        <ele>143.8</ele>
        <time>2026-03-29T10:57:15Z</time>
      </trkpt>
      <trkpt lat="48.61026" lon="1.93364">
        <ele>143.8</ele>
        <time>2026-03-29T10:57:16Z</time>
      </trkpt>
      <trkpt lat="48.61027" lon="1.93363">
        <ele>144.6</ele>
        <time>2026-03-29T10:57:17Z</time>
      </trkpt>
      <trkpt lat="48.61029" lon="1.93363">
        <ele>144.8</ele>
        <time>2026-03-29T10:57:18Z</time>
      </trkpt>
      <trkpt lat="48.61029" lon="1.93363">
        <ele>144.8</ele>
        <time>2026-03-29T10:57:19Z</time>
      </trkpt>
      <trkpt lat="48.6103" lon="1.93362">
        <ele>144.8</ele>
        <time>2026-03-29T10:57:20Z</time>
      </trkpt>
      <trkpt lat="48.61032" lon="1.93361">
        <ele>145.8</ele>
        <time>2026-03-29T10:57:21Z</time>
      </trkpt>
      <trkpt lat="48.61033" lon="1.93361">
        <ele>146.4</ele>
        <time>2026-03-29T10:57:22Z</time>
      </trkpt>
      <trkpt lat="48.61034" lon="1.93361">
        <ele>146.4</ele>
        <time>2026-03-29T10:57:23Z</time>
      </trkpt>
      <trkpt lat="48.61036" lon="1.9336">
        <ele>146.4</ele>
        <time>2026-03-29T10:57:24Z</time>
      </trkpt>
      <trkpt lat="48.61038" lon="1.93359">
        <ele>146.8</ele>
        <time>2026-03-29T10:57:25Z</time>
      </trkpt>
      <trkpt lat="48.61039" lon="1.93359">
        <ele>147</ele>
        <time>2026-03-29T10:57:26Z</time>
      </trkpt>
      <trkpt lat="48.61041" lon="1.93358">
        <ele>147</ele>
        <time>2026-03-29T10:57:27Z</time>
      </trkpt>
      <trkpt lat="48.61042" lon="1.93356">
        <ele>147</ele>
        <time>2026-03-29T10:57:28Z</time>
      </trkpt>
      <trkpt lat="48.61043" lon="1.93355">
        <ele>147.8</ele>
        <time>2026-03-29T10:57:29Z</time>
      </trkpt>
      <trkpt lat="48.61045" lon="1.93354">
        <ele>148</ele>
        <time>2026-03-29T10:57:30Z</time>
      </trkpt>
      <trkpt lat="48.61046" lon="1.93353">
        <ele>148</ele>
        <time>2026-03-29T10:57:31Z</time>
      </trkpt>
      <trkpt lat="48.61047" lon="1.93352">
        <ele>148</ele>
        <time>2026-03-29T10:57:32Z</time>
      </trkpt>
      <trkpt lat="48.61049" lon="1.93351">
        <ele>148.6</ele>
        <time>2026-03-29T10:57:33Z</time>
      </trkpt>
      <trkpt lat="48.6105" lon="1.93349">
        <ele>148.8</ele>
        <time>2026-03-29T10:57:34Z</time>
      </trkpt>
      <trkpt lat="48.61052" lon="1.93348">
        <ele>148.8</ele>
        <time>2026-03-29T10:57:35Z</time>
      </trkpt>
      <trkpt lat="48.61053" lon="1.93347">
        <ele>148.8</ele>
        <time>2026-03-29T10:57:36Z</time>
      </trkpt>
      <trkpt lat="48.61055" lon="1.93346">
        <ele>148.8</ele>
        <time>2026-03-29T10:57:37Z</time>
      </trkpt>
      <trkpt lat="48.61057" lon="1.93345">
        <ele>149.2</ele>
        <time>2026-03-29T10:57:38Z</time>
      </trkpt>
      <trkpt lat="48.61058" lon="1.93345">
        <ele>149.2</ele>
        <time>2026-03-29T10:57:39Z</time>
      </trkpt>
      <trkpt lat="48.6106" lon="1.93343">
        <ele>149.2</ele>
        <time>2026-03-29T10:57:40Z</time>
      </trkpt>
      <trkpt lat="48.61062" lon="1.93343">
        <ele>149.6</ele>
        <time>2026-03-29T10:57:41Z</time>
      </trkpt>
      <trkpt lat="48.61064" lon="1.93342">
        <ele>149.8</ele>
        <time>2026-03-29T10:57:42Z</time>
      </trkpt>
      <trkpt lat="48.61066" lon="1.93341">
        <ele>149.8</ele>
        <time>2026-03-29T10:57:43Z</time>
      </trkpt>
      <trkpt lat="48.61067" lon="1.93339">
        <ele>149.8</ele>
        <time>2026-03-29T10:57:44Z</time>
      </trkpt>
      <trkpt lat="48.61069" lon="1.93337">
        <ele>149.8</ele>
        <time>2026-03-29T10:57:45Z</time>
      </trkpt>
      <trkpt lat="48.6107" lon="1.93335">
        <ele>149</ele>
        <time>2026-03-29T10:57:46Z</time>
      </trkpt>
      <trkpt lat="48.61073" lon="1.93334">
        <ele>149</ele>
        <time>2026-03-29T10:57:47Z</time>
      </trkpt>
      <trkpt lat="48.61076" lon="1.93333">
        <ele>149</ele>
        <time>2026-03-29T10:57:48Z</time>
      </trkpt>
      <trkpt lat="48.61081" lon="1.93333">
        <ele>148</ele>
        <time>2026-03-29T10:57:49Z</time>
      </trkpt>
      <trkpt lat="48.61085" lon="1.93331">
        <ele>145.6</ele>
        <time>2026-03-29T10:57:50Z</time>
      </trkpt>
      <trkpt lat="48.61091" lon="1.93328">
        <ele>145.6</ele>
        <time>2026-03-29T10:57:51Z</time>
      </trkpt>
      <trkpt lat="48.61097" lon="1.93324">
        <ele>145.6</ele>
        <time>2026-03-29T10:57:52Z</time>
      </trkpt>
      <trkpt lat="48.61104" lon="1.9332">
        <ele>145.6</ele>
        <time>2026-03-29T10:57:53Z</time>
      </trkpt>
      <trkpt lat="48.6111" lon="1.93317">
        <ele>142.6</ele>
        <time>2026-03-29T10:57:54Z</time>
      </trkpt>
      <trkpt lat="48.61117" lon="1.93314">
        <ele>142.6</ele>
        <time>2026-03-29T10:57:55Z</time>
      </trkpt>
      <trkpt lat="48.61125" lon="1.93312">
        <ele>142.6</ele>
        <time>2026-03-29T10:57:56Z</time>
      </trkpt>
      <trkpt lat="48.61132" lon="1.93308">
        <ele>141.8</ele>
        <time>2026-03-29T10:57:57Z</time>
      </trkpt>
      <trkpt lat="48.61138" lon="1.93307">
        <ele>141.2</ele>
        <time>2026-03-29T10:57:58Z</time>
      </trkpt>
      <trkpt lat="48.61144" lon="1.93306">
        <ele>141.2</ele>
        <time>2026-03-29T10:57:59Z</time>
      </trkpt>
      <trkpt lat="48.6115" lon="1.93303">
        <ele>141.2</ele>
        <time>2026-03-29T10:58:00Z</time>
      </trkpt>
      <trkpt lat="48.61154" lon="1.93301">
        <ele>142.2</ele>
        <time>2026-03-29T10:58:01Z</time>
      </trkpt>
      <trkpt lat="48.61157" lon="1.933">
        <ele>142.8</ele>
        <time>2026-03-29T10:58:02Z</time>
      </trkpt>
      <trkpt lat="48.61159" lon="1.933">
        <ele>142.8</ele>
        <time>2026-03-29T10:58:03Z</time>
      </trkpt>
      <trkpt lat="48.61161" lon="1.93298">
        <ele>142.8</ele>
        <time>2026-03-29T10:58:04Z</time>
      </trkpt>
      <trkpt lat="48.61164" lon="1.93298">
        <ele>143.2</ele>
        <time>2026-03-29T10:58:05Z</time>
      </trkpt>
      <trkpt lat="48.61167" lon="1.93296">
        <ele>143.4</ele>
        <time>2026-03-29T10:58:06Z</time>
      </trkpt>
      <trkpt lat="48.61169" lon="1.93296">
        <ele>143.4</ele>
        <time>2026-03-29T10:58:07Z</time>
      </trkpt>
      <trkpt lat="48.61172" lon="1.93294">
        <ele>143.4</ele>
        <time>2026-03-29T10:58:08Z</time>
      </trkpt>
      <trkpt lat="48.61175" lon="1.93293">
        <ele>143.4</ele>
        <time>2026-03-29T10:58:09Z</time>
      </trkpt>
      <trkpt lat="48.61178" lon="1.93293">
        <ele>142.6</ele>
        <time>2026-03-29T10:58:10Z</time>
      </trkpt>
      <trkpt lat="48.61182" lon="1.93291">
        <ele>142.6</ele>
        <time>2026-03-29T10:58:11Z</time>
      </trkpt>
      <trkpt lat="48.61186" lon="1.93289">
        <ele>142.6</ele>
        <time>2026-03-29T10:58:12Z</time>
      </trkpt>
      <trkpt lat="48.61191" lon="1.9329">
        <ele>142</ele>
        <time>2026-03-29T10:58:13Z</time>
      </trkpt>
      <trkpt lat="48.61195" lon="1.93291">
        <ele>142.4</ele>
        <time>2026-03-29T10:58:14Z</time>
      </trkpt>
      <trkpt lat="48.61199" lon="1.93292">
        <ele>142.4</ele>
        <time>2026-03-29T10:58:15Z</time>
      </trkpt>
      <trkpt lat="48.61202" lon="1.93293">
        <ele>142.4</ele>
        <time>2026-03-29T10:58:16Z</time>
      </trkpt>
      <trkpt lat="48.61204" lon="1.93294">
        <ele>143.2</ele>
        <time>2026-03-29T10:58:17Z</time>
      </trkpt>
      <trkpt lat="48.61206" lon="1.93295">
        <ele>144</ele>
        <time>2026-03-29T10:58:18Z</time>
      </trkpt>
      <trkpt lat="48.61208" lon="1.93297">
        <ele>144</ele>
        <time>2026-03-29T10:58:19Z</time>
      </trkpt>
      <trkpt lat="48.6121" lon="1.93299">
        <ele>144</ele>
        <time>2026-03-29T10:58:20Z</time>
      </trkpt>
      <trkpt lat="48.61212" lon="1.93301">
        <ele>144</ele>
        <time>2026-03-29T10:58:21Z</time>
      </trkpt>
      <trkpt lat="48.61214" lon="1.93302">
        <ele>145.6</ele>
        <time>2026-03-29T10:58:22Z</time>
      </trkpt>
      <trkpt lat="48.61215" lon="1.93304">
        <ele>145.6</ele>
        <time>2026-03-29T10:58:23Z</time>
      </trkpt>
      <trkpt lat="48.61217" lon="1.93306">
        <ele>145.6</ele>
        <time>2026-03-29T10:58:24Z</time>
      </trkpt>
      <trkpt lat="48.61219" lon="1.93307">
        <ele>146.4</ele>
        <time>2026-03-29T10:58:25Z</time>
      </trkpt>
      <trkpt lat="48.61221" lon="1.93308">
        <ele>146.8</ele>
        <time>2026-03-29T10:58:26Z</time>
      </trkpt>
      <trkpt lat="48.61223" lon="1.93309">
        <ele>146.8</ele>
        <time>2026-03-29T10:58:27Z</time>
      </trkpt>
      <trkpt lat="48.61224" lon="1.93311">
        <ele>146.8</ele>
        <time>2026-03-29T10:58:28Z</time>
      </trkpt>
      <trkpt lat="48.61225" lon="1.93312">
        <ele>146.8</ele>
        <time>2026-03-29T10:58:29Z</time>
      </trkpt>
      <trkpt lat="48.61227" lon="1.93314">
        <ele>147</ele>
        <time>2026-03-29T10:58:30Z</time>
      </trkpt>
      <trkpt lat="48.61228" lon="1.93316">
        <ele>147</ele>
        <time>2026-03-29T10:58:31Z</time>
      </trkpt>
      <trkpt lat="48.61231" lon="1.93318">
        <ele>147</ele>
        <time>2026-03-29T10:58:32Z</time>
      </trkpt>
      <trkpt lat="48.61233" lon="1.9332">
        <ele>147</ele>
        <time>2026-03-29T10:58:33Z</time>
      </trkpt>
      <trkpt lat="48.61235" lon="1.93322">
        <ele>147.4</ele>
        <time>2026-03-29T10:58:34Z</time>
      </trkpt>
      <trkpt lat="48.61237" lon="1.93324">
        <ele>147.4</ele>
        <time>2026-03-29T10:58:35Z</time>
      </trkpt>
      <trkpt lat="48.61239" lon="1.93326">
        <ele>147.4</ele>
        <time>2026-03-29T10:58:36Z</time>
      </trkpt>
      <trkpt lat="48.61241" lon="1.93329">
        <ele>147.4</ele>
        <time>2026-03-29T10:58:37Z</time>
      </trkpt>
      <trkpt lat="48.61243" lon="1.93331">
        <ele>147.8</ele>
        <time>2026-03-29T10:58:38Z</time>
      </trkpt>
      <trkpt lat="48.61245" lon="1.93333">
        <ele>147.8</ele>
        <time>2026-03-29T10:58:39Z</time>
      </trkpt>
      <trkpt lat="48.61248" lon="1.93336">
        <ele>147.8</ele>
        <time>2026-03-29T10:58:40Z</time>
      </trkpt>
      <trkpt lat="48.61251" lon="1.93338">
        <ele>147</ele>
        <time>2026-03-29T10:58:41Z</time>
      </trkpt>
      <trkpt lat="48.61254" lon="1.93341">
        <ele>147.2</ele>
        <time>2026-03-29T10:58:42Z</time>
      </trkpt>
      <trkpt lat="48.61256" lon="1.93343">
        <ele>147.2</ele>
        <time>2026-03-29T10:58:43Z</time>
      </trkpt>
      <trkpt lat="48.61258" lon="1.93345">
        <ele>147.2</ele>
        <time>2026-03-29T10:58:44Z</time>
      </trkpt>
      <trkpt lat="48.61261" lon="1.93348">
        <ele>146.8</ele>
        <time>2026-03-29T10:58:45Z</time>
      </trkpt>
      <trkpt lat="48.61265" lon="1.93352">
        <ele>146.8</ele>
        <time>2026-03-29T10:58:46Z</time>
      </trkpt>
      <trkpt lat="48.61268" lon="1.93356">
        <ele>146.8</ele>
        <time>2026-03-29T10:58:47Z</time>
      </trkpt>
      <trkpt lat="48.61272" lon="1.9336">
        <ele>146.8</ele>
        <time>2026-03-29T10:58:48Z</time>
      </trkpt>
      <trkpt lat="48.61276" lon="1.93364">
        <ele>146.4</ele>
        <time>2026-03-29T10:58:49Z</time>
      </trkpt>
      <trkpt lat="48.6128" lon="1.93368">
        <ele>146</ele>
        <time>2026-03-29T10:58:50Z</time>
      </trkpt>
      <trkpt lat="48.61283" lon="1.93372">
        <ele>146</ele>
        <time>2026-03-29T10:58:51Z</time>
      </trkpt>
      <trkpt lat="48.61286" lon="1.93376">
        <ele>146</ele>
        <time>2026-03-29T10:58:52Z</time>
      </trkpt>
      <trkpt lat="48.61289" lon="1.93377">
        <ele>146</ele>
        <time>2026-03-29T10:58:53Z</time>
      </trkpt>
      <trkpt lat="48.61291" lon="1.93377">
        <ele>146.6</ele>
        <time>2026-03-29T10:58:54Z</time>
      </trkpt>
      <trkpt lat="48.61292" lon="1.93376">
        <ele>146.6</ele>
        <time>2026-03-29T10:58:55Z</time>
      </trkpt>
      <trkpt lat="48.61293" lon="1.93374">
        <ele>146.6</ele>
        <time>2026-03-29T10:58:56Z</time>
      </trkpt>
      <trkpt lat="48.61294" lon="1.93372">
        <ele>146.6</ele>
        <time>2026-03-29T10:58:57Z</time>
      </trkpt>
      <trkpt lat="48.61295" lon="1.9337">
        <ele>146.8</ele>
        <time>2026-03-29T10:58:58Z</time>
      </trkpt>
      <trkpt lat="48.61295" lon="1.93367">
        <ele>146.8</ele>
        <time>2026-03-29T10:58:59Z</time>
      </trkpt>
      <trkpt lat="48.61296" lon="1.93366">
        <ele>146.8</ele>
        <time>2026-03-29T10:59:00Z</time>
      </trkpt>
      <trkpt lat="48.61297" lon="1.93364">
        <ele>147</ele>
        <time>2026-03-29T10:59:01Z</time>
      </trkpt>
      <trkpt lat="48.61297" lon="1.93362">
        <ele>146.6</ele>
        <time>2026-03-29T10:59:02Z</time>
      </trkpt>
      <trkpt lat="48.61298" lon="1.9336">
        <ele>146.6</ele>
        <time>2026-03-29T10:59:03Z</time>
      </trkpt>
      <trkpt lat="48.61299" lon="1.93357">
        <ele>146.6</ele>
        <time>2026-03-29T10:59:04Z</time>
      </trkpt>
      <trkpt lat="48.61301" lon="1.93355">
        <ele>147</ele>
        <time>2026-03-29T10:59:05Z</time>
      </trkpt>
      <trkpt lat="48.61302" lon="1.93355">
        <ele>147.4</ele>
        <time>2026-03-29T10:59:06Z</time>
      </trkpt>
      <trkpt lat="48.61304" lon="1.93353">
        <ele>147.4</ele>
        <time>2026-03-29T10:59:07Z</time>
      </trkpt>
      <trkpt lat="48.61305" lon="1.93352">
        <ele>147.4</ele>
        <time>2026-03-29T10:59:08Z</time>
      </trkpt>
      <trkpt lat="48.61306" lon="1.93351">
        <ele>148.4</ele>
        <time>2026-03-29T10:59:09Z</time>
      </trkpt>
      <trkpt lat="48.61308" lon="1.9335">
        <ele>148.6</ele>
        <time>2026-03-29T10:59:10Z</time>
      </trkpt>
      <trkpt lat="48.61309" lon="1.93349">
        <ele>148.6</ele>
        <time>2026-03-29T10:59:11Z</time>
      </trkpt>
      <trkpt lat="48.6131" lon="1.93347">
        <ele>148.6</ele>
        <time>2026-03-29T10:59:12Z</time>
      </trkpt>
      <trkpt lat="48.61311" lon="1.93345">
        <ele>148.4</ele>
        <time>2026-03-29T10:59:13Z</time>
      </trkpt>
      <trkpt lat="48.61312" lon="1.93343">
        <ele>148.6</ele>
        <time>2026-03-29T10:59:14Z</time>
      </trkpt>
      <trkpt lat="48.61313" lon="1.9334">
        <ele>148.6</ele>
        <time>2026-03-29T10:59:15Z</time>
      </trkpt>
      <trkpt lat="48.61313" lon="1.93338">
        <ele>148.6</ele>
        <time>2026-03-29T10:59:16Z</time>
      </trkpt>
      <trkpt lat="48.61314" lon="1.93336">
        <ele>148.6</ele>
        <time>2026-03-29T10:59:17Z</time>
      </trkpt>
      <trkpt lat="48.61314" lon="1.93334">
        <ele>149.2</ele>
        <time>2026-03-29T10:59:18Z</time>
      </trkpt>
      <trkpt lat="48.61315" lon="1.93332">
        <ele>149.2</ele>
        <time>2026-03-29T10:59:19Z</time>
      </trkpt>
      <trkpt lat="48.61316" lon="1.9333">
        <ele>149.2</ele>
        <time>2026-03-29T10:59:20Z</time>
      </trkpt>
      <trkpt lat="48.61316" lon="1.93328">
        <ele>149.2</ele>
        <time>2026-03-29T10:59:21Z</time>
      </trkpt>
      <trkpt lat="48.61317" lon="1.93326">
        <ele>149.8</ele>
        <time>2026-03-29T10:59:22Z</time>
      </trkpt>
      <trkpt lat="48.61318" lon="1.93324">
        <ele>149.8</ele>
        <time>2026-03-29T10:59:23Z</time>
      </trkpt>
      <trkpt lat="48.61319" lon="1.93321">
        <ele>149.8</ele>
        <time>2026-03-29T10:59:24Z</time>
      </trkpt>
      <trkpt lat="48.61319" lon="1.93319">
        <ele>149.8</ele>
        <time>2026-03-29T10:59:25Z</time>
      </trkpt>
      <trkpt lat="48.6132" lon="1.93317">
        <ele>150.2</ele>
        <time>2026-03-29T10:59:26Z</time>
      </trkpt>
      <trkpt lat="48.6132" lon="1.93315">
        <ele>150.2</ele>
        <time>2026-03-29T10:59:27Z</time>
      </trkpt>
      <trkpt lat="48.61321" lon="1.93313">
        <ele>150.2</ele>
        <time>2026-03-29T10:59:28Z</time>
      </trkpt>
      <trkpt lat="48.61322" lon="1.93311">
        <ele>150.8</ele>
        <time>2026-03-29T10:59:29Z</time>
      </trkpt>
      <trkpt lat="48.61322" lon="1.93308">
        <ele>151.2</ele>
        <time>2026-03-29T10:59:30Z</time>
      </trkpt>
      <trkpt lat="48.61323" lon="1.93307">
        <ele>151.2</ele>
        <time>2026-03-29T10:59:31Z</time>
      </trkpt>
      <trkpt lat="48.61324" lon="1.93305">
        <ele>151.2</ele>
        <time>2026-03-29T10:59:32Z</time>
      </trkpt>
      <trkpt lat="48.61325" lon="1.93302">
        <ele>151.2</ele>
        <time>2026-03-29T10:59:33Z</time>
      </trkpt>
      <trkpt lat="48.61325" lon="1.933">
        <ele>151.6</ele>
        <time>2026-03-29T10:59:34Z</time>
      </trkpt>
      <trkpt lat="48.61326" lon="1.93299">
        <ele>151.6</ele>
        <time>2026-03-29T10:59:35Z</time>
      </trkpt>
      <trkpt lat="48.61326" lon="1.93297">
        <ele>151.6</ele>
        <time>2026-03-29T10:59:36Z</time>
      </trkpt>
      <trkpt lat="48.61327" lon="1.93295">
        <ele>151.6</ele>
        <time>2026-03-29T10:59:37Z</time>
      </trkpt>
      <trkpt lat="48.61327" lon="1.93293">
        <ele>152.4</ele>
        <time>2026-03-29T10:59:38Z</time>
      </trkpt>
      <trkpt lat="48.61328" lon="1.93292">
        <ele>152.4</ele>
        <time>2026-03-29T10:59:39Z</time>
      </trkpt>
      <trkpt lat="48.61328" lon="1.9329">
        <ele>152.4</ele>
        <time>2026-03-29T10:59:40Z</time>
      </trkpt>
      <trkpt lat="48.61329" lon="1.93288">
        <ele>153</ele>
        <time>2026-03-29T10:59:41Z</time>
      </trkpt>
      <trkpt lat="48.61329" lon="1.93285">
        <ele>152.8</ele>
        <time>2026-03-29T10:59:42Z</time>
      </trkpt>
      <trkpt lat="48.61329" lon="1.93283">
        <ele>152.8</ele>
        <time>2026-03-29T10:59:43Z</time>
      </trkpt>
      <trkpt lat="48.6133" lon="1.93281">
        <ele>152.8</ele>
        <time>2026-03-29T10:59:44Z</time>
      </trkpt>
      <trkpt lat="48.61331" lon="1.93279">
        <ele>153.2</ele>
        <time>2026-03-29T10:59:45Z</time>
      </trkpt>
      <trkpt lat="48.61331" lon="1.93277">
        <ele>153</ele>
        <time>2026-03-29T10:59:46Z</time>
      </trkpt>
      <trkpt lat="48.61332" lon="1.93274">
        <ele>153</ele>
        <time>2026-03-29T10:59:47Z</time>
      </trkpt>
      <trkpt lat="48.61333" lon="1.93272">
        <ele>153</ele>
        <time>2026-03-29T10:59:48Z</time>
      </trkpt>
      <trkpt lat="48.61333" lon="1.9327">
        <ele>153.8</ele>
        <time>2026-03-29T10:59:49Z</time>
      </trkpt>
      <trkpt lat="48.61334" lon="1.93268">
        <ele>154</ele>
        <time>2026-03-29T10:59:50Z</time>
      </trkpt>
      <trkpt lat="48.61334" lon="1.93266">
        <ele>154</ele>
        <time>2026-03-29T10:59:51Z</time>
      </trkpt>
      <trkpt lat="48.61334" lon="1.93264">
        <ele>154</ele>
        <time>2026-03-29T10:59:52Z</time>
      </trkpt>
      <trkpt lat="48.61335" lon="1.93262">
        <ele>154.6</ele>
        <time>2026-03-29T10:59:53Z</time>
      </trkpt>
      <trkpt lat="48.61335" lon="1.9326">
        <ele>155.2</ele>
        <time>2026-03-29T10:59:54Z</time>
      </trkpt>
      <trkpt lat="48.61336" lon="1.93258">
        <ele>155.2</ele>
        <time>2026-03-29T10:59:55Z</time>
      </trkpt>
      <trkpt lat="48.61336" lon="1.93257">
        <ele>155.2</ele>
        <time>2026-03-29T10:59:56Z</time>
      </trkpt>
      <trkpt lat="48.61336" lon="1.93255">
        <ele>155.2</ele>
        <time>2026-03-29T10:59:57Z</time>
      </trkpt>
      <trkpt lat="48.61337" lon="1.93253">
        <ele>155</ele>
        <time>2026-03-29T10:59:58Z</time>
      </trkpt>
      <trkpt lat="48.61338" lon="1.93251">
        <ele>155</ele>
        <time>2026-03-29T10:59:59Z</time>
      </trkpt>
      <trkpt lat="48.61338" lon="1.93249">
        <ele>155</ele>
        <time>2026-03-29T11:00:00Z</time>
      </trkpt>
      <trkpt lat="48.61339" lon="1.93247">
        <ele>156</ele>
        <time>2026-03-29T11:00:01Z</time>
      </trkpt>
      <trkpt lat="48.6134" lon="1.93244">
        <ele>156</ele>
        <time>2026-03-29T11:00:02Z</time>
      </trkpt>
      <trkpt lat="48.6134" lon="1.93242">
        <ele>156</ele>
        <time>2026-03-29T11:00:03Z</time>
      </trkpt>
      <trkpt lat="48.61341" lon="1.9324">
        <ele>156</ele>
        <time>2026-03-29T11:00:04Z</time>
      </trkpt>
      <trkpt lat="48.61342" lon="1.93239">
        <ele>156.8</ele>
        <time>2026-03-29T11:00:05Z</time>
      </trkpt>
      <trkpt lat="48.61343" lon="1.93238">
        <ele>157.2</ele>
        <time>2026-03-29T11:00:06Z</time>
      </trkpt>
      <trkpt lat="48.61344" lon="1.93236">
        <ele>157.2</ele>
        <time>2026-03-29T11:00:07Z</time>
      </trkpt>
      <trkpt lat="48.61345" lon="1.93234">
        <ele>157.2</ele>
        <time>2026-03-29T11:00:08Z</time>
      </trkpt>
      <trkpt lat="48.61346" lon="1.93233">
        <ele>157.8</ele>
        <time>2026-03-29T11:00:09Z</time>
      </trkpt>
      <trkpt lat="48.61347" lon="1.93231">
        <ele>157.6</ele>
        <time>2026-03-29T11:00:10Z</time>
      </trkpt>
      <trkpt lat="48.61347" lon="1.9323">
        <ele>157.6</ele>
        <time>2026-03-29T11:00:11Z</time>
      </trkpt>
      <trkpt lat="48.61348" lon="1.93229">
        <ele>157.6</ele>
        <time>2026-03-29T11:00:12Z</time>
      </trkpt>
      <trkpt lat="48.61349" lon="1.93228">
        <ele>158.6</ele>
        <time>2026-03-29T11:00:13Z</time>
      </trkpt>
      <trkpt lat="48.61351" lon="1.93226">
        <ele>158.8</ele>
        <time>2026-03-29T11:00:14Z</time>
      </trkpt>
      <trkpt lat="48.61352" lon="1.93225">
        <ele>158.8</ele>
        <time>2026-03-29T11:00:15Z</time>
      </trkpt>
      <trkpt lat="48.61353" lon="1.93223">
        <ele>158.8</ele>
        <time>2026-03-29T11:00:16Z</time>
      </trkpt>
      <trkpt lat="48.61354" lon="1.93221">
        <ele>159.6</ele>
        <time>2026-03-29T11:00:17Z</time>
      </trkpt>
      <trkpt lat="48.61354" lon="1.93219">
        <ele>159.2</ele>
        <time>2026-03-29T11:00:18Z</time>
      </trkpt>
      <trkpt lat="48.61356" lon="1.93217">
        <ele>159.2</ele>
        <time>2026-03-29T11:00:19Z</time>
      </trkpt>
      <trkpt lat="48.61357" lon="1.93215">
        <ele>159.2</ele>
        <time>2026-03-29T11:00:20Z</time>
      </trkpt>
      <trkpt lat="48.61358" lon="1.93214">
        <ele>159.6</ele>
        <time>2026-03-29T11:00:21Z</time>
      </trkpt>
      <trkpt lat="48.61359" lon="1.93213">
        <ele>159.2</ele>
        <time>2026-03-29T11:00:22Z</time>
      </trkpt>
      <trkpt lat="48.6136" lon="1.93212">
        <ele>159.2</ele>
        <time>2026-03-29T11:00:23Z</time>
      </trkpt>
      <trkpt lat="48.61361" lon="1.9321">
        <ele>159.2</ele>
        <time>2026-03-29T11:00:24Z</time>
      </trkpt>
      <trkpt lat="48.61362" lon="1.93209">
        <ele>160.2</ele>
        <time>2026-03-29T11:00:25Z</time>
      </trkpt>
      <trkpt lat="48.61363" lon="1.93207">
        <ele>161</ele>
        <time>2026-03-29T11:00:26Z</time>
      </trkpt>
      <trkpt lat="48.61364" lon="1.93206">
        <ele>161</ele>
        <time>2026-03-29T11:00:27Z</time>
      </trkpt>
      <trkpt lat="48.61365" lon="1.93204">
        <ele>161</ele>
        <time>2026-03-29T11:00:28Z</time>
      </trkpt>
      <trkpt lat="48.61366" lon="1.93203">
        <ele>161</ele>
        <time>2026-03-29T11:00:29Z</time>
      </trkpt>
      <trkpt lat="48.61367" lon="1.93202">
        <ele>161.4</ele>
        <time>2026-03-29T11:00:30Z</time>
      </trkpt>
      <trkpt lat="48.61367" lon="1.932">
        <ele>161.4</ele>
        <time>2026-03-29T11:00:31Z</time>
      </trkpt>
      <trkpt lat="48.61369" lon="1.93199">
        <ele>161.4</ele>
        <time>2026-03-29T11:00:32Z</time>
      </trkpt>
      <trkpt lat="48.6137" lon="1.93197">
        <ele>161.4</ele>
        <time>2026-03-29T11:00:33Z</time>
      </trkpt>
      <trkpt lat="48.61371" lon="1.93195">
        <ele>161.8</ele>
        <time>2026-03-29T11:00:34Z</time>
      </trkpt>
      <trkpt lat="48.61371" lon="1.93193">
        <ele>161.8</ele>
        <time>2026-03-29T11:00:35Z</time>
      </trkpt>
      <trkpt lat="48.61372" lon="1.9319">
        <ele>161.8</ele>
        <time>2026-03-29T11:00:36Z</time>
      </trkpt>
      <trkpt lat="48.61372" lon="1.93188">
        <ele>162.6</ele>
        <time>2026-03-29T11:00:37Z</time>
      </trkpt>
      <trkpt lat="48.61372" lon="1.93186">
        <ele>162.6</ele>
        <time>2026-03-29T11:00:38Z</time>
      </trkpt>
      <trkpt lat="48.61373" lon="1.93183">
        <ele>162.6</ele>
        <time>2026-03-29T11:00:39Z</time>
      </trkpt>
      <trkpt lat="48.61374" lon="1.93181">
        <ele>162.6</ele>
        <time>2026-03-29T11:00:40Z</time>
      </trkpt>
      <trkpt lat="48.61374" lon="1.93179">
        <ele>163.6</ele>
        <time>2026-03-29T11:00:41Z</time>
      </trkpt>
      <trkpt lat="48.61375" lon="1.93177">
        <ele>163.8</ele>
        <time>2026-03-29T11:00:42Z</time>
      </trkpt>
      <trkpt lat="48.61375" lon="1.93175">
        <ele>163.8</ele>
        <time>2026-03-29T11:00:43Z</time>
      </trkpt>
      <trkpt lat="48.61376" lon="1.93173">
        <ele>163.8</ele>
        <time>2026-03-29T11:00:44Z</time>
      </trkpt>
      <trkpt lat="48.61377" lon="1.93171">
        <ele>163.8</ele>
        <time>2026-03-29T11:00:45Z</time>
      </trkpt>
      <trkpt lat="48.61378" lon="1.93169">
        <ele>164</ele>
        <time>2026-03-29T11:00:46Z</time>
      </trkpt>
      <trkpt lat="48.61379" lon="1.93168">
        <ele>164</ele>
        <time>2026-03-29T11:00:47Z</time>
      </trkpt>
      <trkpt lat="48.6138" lon="1.93167">
        <ele>164</ele>
        <time>2026-03-29T11:00:48Z</time>
      </trkpt>
      <trkpt lat="48.61382" lon="1.93166">
        <ele>164.4</ele>
        <time>2026-03-29T11:00:49Z</time>
      </trkpt>
      <trkpt lat="48.61383" lon="1.93165">
        <ele>165.2</ele>
        <time>2026-03-29T11:00:50Z</time>
      </trkpt>
      <trkpt lat="48.61384" lon="1.93163">
        <ele>165.2</ele>
        <time>2026-03-29T11:00:51Z</time>
      </trkpt>
      <trkpt lat="48.61385" lon="1.93162">
        <ele>165.2</ele>
        <time>2026-03-29T11:00:52Z</time>
      </trkpt>
      <trkpt lat="48.61386" lon="1.93161">
        <ele>165.2</ele>
        <time>2026-03-29T11:00:53Z</time>
      </trkpt>
      <trkpt lat="48.61386" lon="1.9316">
        <ele>166</ele>
        <time>2026-03-29T11:00:54Z</time>
      </trkpt>
      <trkpt lat="48.61387" lon="1.93159">
        <ele>166</ele>
        <time>2026-03-29T11:00:55Z</time>
      </trkpt>
      <trkpt lat="48.61389" lon="1.93158">
        <ele>166</ele>
        <time>2026-03-29T11:00:56Z</time>
      </trkpt>
      <trkpt lat="48.6139" lon="1.93156">
        <ele>166</ele>
        <time>2026-03-29T11:00:57Z</time>
      </trkpt>
      <trkpt lat="48.61391" lon="1.93154">
        <ele>166.4</ele>
        <time>2026-03-29T11:00:58Z</time>
      </trkpt>
      <trkpt lat="48.61392" lon="1.93154">
        <ele>166.4</ele>
        <time>2026-03-29T11:00:59Z</time>
      </trkpt>
      <trkpt lat="48.61393" lon="1.93153">
        <ele>166.4</ele>
        <time>2026-03-29T11:01:00Z</time>
      </trkpt>
      <trkpt lat="48.61395" lon="1.93152">
        <ele>166.4</ele>
        <time>2026-03-29T11:01:01Z</time>
      </trkpt>
      <trkpt lat="48.61396" lon="1.9315">
        <ele>167.4</ele>
        <time>2026-03-29T11:01:02Z</time>
      </trkpt>
      <trkpt lat="48.61397" lon="1.93148">
        <ele>167.4</ele>
        <time>2026-03-29T11:01:03Z</time>
      </trkpt>
      <trkpt lat="48.61398" lon="1.93147">
        <ele>167.4</ele>
        <time>2026-03-29T11:01:04Z</time>
      </trkpt>
      <trkpt lat="48.61399" lon="1.93146">
        <ele>167.4</ele>
        <time>2026-03-29T11:01:05Z</time>
      </trkpt>
      <trkpt lat="48.614" lon="1.93144">
        <ele>168.4</ele>
        <time>2026-03-29T11:01:06Z</time>
      </trkpt>
      <trkpt lat="48.61401" lon="1.93144">
        <ele>168.4</ele>
        <time>2026-03-29T11:01:07Z</time>
      </trkpt>
      <trkpt lat="48.61401" lon="1.93143">
        <ele>168.4</ele>
        <time>2026-03-29T11:01:08Z</time>
      </trkpt>
      <trkpt lat="48.61402" lon="1.93142">
        <ele>168.4</ele>
        <time>2026-03-29T11:01:09Z</time>
      </trkpt>
      <trkpt lat="48.61403" lon="1.93141">
        <ele>168.4</ele>
        <time>2026-03-29T11:01:10Z</time>
      </trkpt>
      <trkpt lat="48.61404" lon="1.9314">
        <ele>168.4</ele>
        <time>2026-03-29T11:01:11Z</time>
      </trkpt>
      <trkpt lat="48.61404" lon="1.9314">
        <ele>168.4</ele>
        <time>2026-03-29T11:01:12Z</time>
      </trkpt>
      <trkpt lat="48.61404" lon="1.9314">
        <ele>168.4</ele>
        <time>2026-03-29T11:01:13Z</time>
      </trkpt>
      <trkpt lat="48.61469" lon="1.93072">
        <ele>181.6</ele>
        <time>2026-03-29T11:02:17Z</time>
      </trkpt>
      <trkpt lat="48.61471" lon="1.93071">
        <ele>181.8</ele>
        <time>2026-03-29T11:02:18Z</time>
      </trkpt>
      <trkpt lat="48.61472" lon="1.9307">
        <ele>181.8</ele>
        <time>2026-03-29T11:02:19Z</time>
      </trkpt>
      <trkpt lat="48.61473" lon="1.93069">
        <ele>181.8</ele>
        <time>2026-03-29T11:02:20Z</time>
      </trkpt>
      <trkpt lat="48.61474" lon="1.93069">
        <ele>182.2</ele>
        <time>2026-03-29T11:02:21Z</time>
      </trkpt>
      <trkpt lat="48.61476" lon="1.93067">
        <ele>182.2</ele>
        <time>2026-03-29T11:02:22Z</time>
      </trkpt>
      <trkpt lat="48.61478" lon="1.93065">
        <ele>182.2</ele>
        <time>2026-03-29T11:02:23Z</time>
      </trkpt>
      <trkpt lat="48.61479" lon="1.93065">
        <ele>182.2</ele>
        <time>2026-03-29T11:02:24Z</time>
      </trkpt>
      <trkpt lat="48.61482" lon="1.93063">
        <ele>182.2</ele>
        <time>2026-03-29T11:02:25Z</time>
      </trkpt>
      <trkpt lat="48.61484" lon="1.93061">
        <ele>182.2</ele>
        <time>2026-03-29T11:02:26Z</time>
      </trkpt>
      <trkpt lat="48.61486" lon="1.93059">
        <ele>182.2</ele>
        <time>2026-03-29T11:02:27Z</time>
      </trkpt>
      <trkpt lat="48.61489" lon="1.93057">
        <ele>182.2</ele>
        <time>2026-03-29T11:02:28Z</time>
      </trkpt>
      <trkpt lat="48.61491" lon="1.93055">
        <ele>182.6</ele>
        <time>2026-03-29T11:02:29Z</time>
      </trkpt>
      <trkpt lat="48.61493" lon="1.93054">
        <ele>182.4</ele>
        <time>2026-03-29T11:02:30Z</time>
      </trkpt>
      <trkpt lat="48.61495" lon="1.93052">
        <ele>182.4</ele>
        <time>2026-03-29T11:02:31Z</time>
      </trkpt>
      <trkpt lat="48.61497" lon="1.9305">
        <ele>182.4</ele>
        <time>2026-03-29T11:02:32Z</time>
      </trkpt>
      <trkpt lat="48.61499" lon="1.93048">
        <ele>183</ele>
        <time>2026-03-29T11:02:33Z</time>
      </trkpt>
      <trkpt lat="48.61502" lon="1.93047">
        <ele>182.8</ele>
        <time>2026-03-29T11:02:34Z</time>
      </trkpt>
      <trkpt lat="48.61504" lon="1.93045">
        <ele>182.8</ele>
        <time>2026-03-29T11:02:35Z</time>
      </trkpt>
      <trkpt lat="48.61506" lon="1.93044">
        <ele>182.8</ele>
        <time>2026-03-29T11:02:36Z</time>
      </trkpt>
      <trkpt lat="48.61508" lon="1.93042">
        <ele>183.2</ele>
        <time>2026-03-29T11:02:37Z</time>
      </trkpt>
      <trkpt lat="48.6151" lon="1.93041">
        <ele>183.2</ele>
        <time>2026-03-29T11:02:38Z</time>
      </trkpt>
      <trkpt lat="48.61512" lon="1.93039">
        <ele>183.2</ele>
        <time>2026-03-29T11:02:39Z</time>
      </trkpt>
      <trkpt lat="48.61514" lon="1.93038">
        <ele>183.2</ele>
        <time>2026-03-29T11:02:40Z</time>
      </trkpt>
      <trkpt lat="48.61516" lon="1.93036">
        <ele>183.2</ele>
        <time>2026-03-29T11:02:41Z</time>
      </trkpt>
      <trkpt lat="48.61519" lon="1.93034">
        <ele>182.6</ele>
        <time>2026-03-29T11:02:42Z</time>
      </trkpt>
      <trkpt lat="48.61521" lon="1.93032">
        <ele>182.6</ele>
        <time>2026-03-29T11:02:43Z</time>
      </trkpt>
      <trkpt lat="48.61523" lon="1.9303">
        <ele>182.6</ele>
        <time>2026-03-29T11:02:44Z</time>
      </trkpt>
      <trkpt lat="48.61526" lon="1.93028">
        <ele>182.6</ele>
        <time>2026-03-29T11:02:45Z</time>
      </trkpt>
      <trkpt lat="48.61528" lon="1.93025">
        <ele>183</ele>
        <time>2026-03-29T11:02:46Z</time>
      </trkpt>
      <trkpt lat="48.6153" lon="1.93024">
        <ele>183</ele>
        <time>2026-03-29T11:02:47Z</time>
      </trkpt>
      <trkpt lat="48.61533" lon="1.93022">
        <ele>183</ele>
        <time>2026-03-29T11:02:48Z</time>
      </trkpt>
      <trkpt lat="48.61536" lon="1.93021">
        <ele>183</ele>
        <time>2026-03-29T11:02:49Z</time>
      </trkpt>
      <trkpt lat="48.61538" lon="1.93019">
        <ele>183.4</ele>
        <time>2026-03-29T11:02:50Z</time>
      </trkpt>
      <trkpt lat="48.61541" lon="1.93017">
        <ele>183.4</ele>
        <time>2026-03-29T11:02:51Z</time>
      </trkpt>
      <trkpt lat="48.61543" lon="1.93015">
        <ele>183.4</ele>
        <time>2026-03-29T11:02:52Z</time>
      </trkpt>
      <trkpt lat="48.61546" lon="1.93013">
        <ele>183.4</ele>
        <time>2026-03-29T11:02:53Z</time>
      </trkpt>
      <trkpt lat="48.61549" lon="1.93011">
        <ele>183.8</ele>
        <time>2026-03-29T11:02:54Z</time>
      </trkpt>
      <trkpt lat="48.61551" lon="1.93009">
        <ele>183.8</ele>
        <time>2026-03-29T11:02:55Z</time>
      </trkpt>
      <trkpt lat="48.61554" lon="1.93008">
        <ele>183.8</ele>
        <time>2026-03-29T11:02:56Z</time>
      </trkpt>
      <trkpt lat="48.61556" lon="1.93006">
        <ele>183.8</ele>
        <time>2026-03-29T11:02:57Z</time>
      </trkpt>
      <trkpt lat="48.61558" lon="1.93004">
        <ele>184</ele>
        <time>2026-03-29T11:02:58Z</time>
      </trkpt>
      <trkpt lat="48.61561" lon="1.93002">
        <ele>184</ele>
        <time>2026-03-29T11:02:59Z</time>
      </trkpt>
      <trkpt lat="48.61564" lon="1.93">
        <ele>184</ele>
        <time>2026-03-29T11:03:00Z</time>
      </trkpt>
      <trkpt lat="48.61567" lon="1.92997">
        <ele>184</ele>
        <time>2026-03-29T11:03:01Z</time>
      </trkpt>
      <trkpt lat="48.61569" lon="1.92995">
        <ele>184.2</ele>
        <time>2026-03-29T11:03:02Z</time>
      </trkpt>
      <trkpt lat="48.61572" lon="1.92993">
        <ele>184.2</ele>
        <time>2026-03-29T11:03:03Z</time>
      </trkpt>
      <trkpt lat="48.61575" lon="1.92991">
        <ele>184.2</ele>
        <time>2026-03-29T11:03:04Z</time>
      </trkpt>
      <trkpt lat="48.61577" lon="1.92989">
        <ele>184.2</ele>
        <time>2026-03-29T11:03:05Z</time>
      </trkpt>
      <trkpt lat="48.6158" lon="1.92987">
        <ele>184.2</ele>
        <time>2026-03-29T11:03:06Z</time>
      </trkpt>
      <trkpt lat="48.61583" lon="1.92986">
        <ele>184.2</ele>
        <time>2026-03-29T11:03:07Z</time>
      </trkpt>
      <trkpt lat="48.61586" lon="1.92984">
        <ele>184.2</ele>
        <time>2026-03-29T11:03:08Z</time>
      </trkpt>
      <trkpt lat="48.61588" lon="1.92983">
        <ele>184.2</ele>
        <time>2026-03-29T11:03:09Z</time>
      </trkpt>
      <trkpt lat="48.61591" lon="1.92981">
        <ele>184.2</ele>
        <time>2026-03-29T11:03:10Z</time>
      </trkpt>
      <trkpt lat="48.61593" lon="1.92979">
        <ele>184.2</ele>
        <time>2026-03-29T11:03:11Z</time>
      </trkpt>
      <trkpt lat="48.61596" lon="1.92976">
        <ele>184.2</ele>
        <time>2026-03-29T11:03:12Z</time>
      </trkpt>
      <trkpt lat="48.61599" lon="1.92974">
        <ele>184.2</ele>
        <time>2026-03-29T11:03:13Z</time>
      </trkpt>
      <trkpt lat="48.61602" lon="1.92972">
        <ele>184.8</ele>
        <time>2026-03-29T11:03:14Z</time>
      </trkpt>
      <trkpt lat="48.61604" lon="1.9297">
        <ele>184.8</ele>
        <time>2026-03-29T11:03:15Z</time>
      </trkpt>
      <trkpt lat="48.61607" lon="1.92968">
        <ele>184.8</ele>
        <time>2026-03-29T11:03:16Z</time>
      </trkpt>
      <trkpt lat="48.61609" lon="1.92966">
        <ele>184.8</ele>
        <time>2026-03-29T11:03:17Z</time>
      </trkpt>
      <trkpt lat="48.61612" lon="1.92964">
        <ele>184.4</ele>
        <time>2026-03-29T11:03:18Z</time>
      </trkpt>
      <trkpt lat="48.61615" lon="1.92962">
        <ele>184.4</ele>
        <time>2026-03-29T11:03:19Z</time>
      </trkpt>
      <trkpt lat="48.61618" lon="1.9296">
        <ele>184.4</ele>
        <time>2026-03-29T11:03:20Z</time>
      </trkpt>
      <trkpt lat="48.6162" lon="1.92958">
        <ele>184.4</ele>
        <time>2026-03-29T11:03:21Z</time>
      </trkpt>
      <trkpt lat="48.61623" lon="1.92956">
        <ele>184.6</ele>
        <time>2026-03-29T11:03:22Z</time>
      </trkpt>
      <trkpt lat="48.61626" lon="1.92955">
        <ele>184.6</ele>
        <time>2026-03-29T11:03:23Z</time>
      </trkpt>
      <trkpt lat="48.61629" lon="1.92953">
        <ele>184.6</ele>
        <time>2026-03-29T11:03:24Z</time>
      </trkpt>
      <trkpt lat="48.61631" lon="1.92952">
        <ele>184.6</ele>
        <time>2026-03-29T11:03:25Z</time>
      </trkpt>
      <trkpt lat="48.61634" lon="1.92952">
        <ele>184.2</ele>
        <time>2026-03-29T11:03:26Z</time>
      </trkpt>
      <trkpt lat="48.61637" lon="1.92951">
        <ele>184.2</ele>
        <time>2026-03-29T11:03:27Z</time>
      </trkpt>
      <trkpt lat="48.61639" lon="1.92949">
        <ele>184.2</ele>
        <time>2026-03-29T11:03:28Z</time>
      </trkpt>
      <trkpt lat="48.6164" lon="1.92948">
        <ele>184.6</ele>
        <time>2026-03-29T11:03:29Z</time>
      </trkpt>
      <trkpt lat="48.61641" lon="1.92946">
        <ele>184.6</ele>
        <time>2026-03-29T11:03:30Z</time>
      </trkpt>
      <trkpt lat="48.61641" lon="1.92944">
        <ele>184.6</ele>
        <time>2026-03-29T11:03:31Z</time>
      </trkpt>
      <trkpt lat="48.61641" lon="1.92944">
        <ele>184.6</ele>
        <time>2026-03-29T11:03:32Z</time>
      </trkpt>
      <trkpt lat="48.61641" lon="1.92943">
        <ele>184.6</ele>
        <time>2026-03-29T11:03:33Z</time>
      </trkpt>
      <trkpt lat="48.61641" lon="1.92943">
        <ele>184.6</ele>
        <time>2026-03-29T11:03:34Z</time>
      </trkpt>
      <trkpt lat="48.61657" lon="1.92931">
        <ele>184.8</ele>
        <time>2026-03-29T11:05:24Z</time>
      </trkpt>
      <trkpt lat="48.6166" lon="1.92929">
        <ele>185</ele>
        <time>2026-03-29T11:05:25Z</time>
      </trkpt>
      <trkpt lat="48.61662" lon="1.92927">
        <ele>185</ele>
        <time>2026-03-29T11:05:26Z</time>
      </trkpt>
      <trkpt lat="48.61664" lon="1.92924">
        <ele>185</ele>
        <time>2026-03-29T11:05:27Z</time>
      </trkpt>
      <trkpt lat="48.61666" lon="1.9292">
        <ele>185</ele>
        <time>2026-03-29T11:05:28Z</time>
      </trkpt>
      <trkpt lat="48.61668" lon="1.92915">
        <ele>184.8</ele>
        <time>2026-03-29T11:05:29Z</time>
      </trkpt>
      <trkpt lat="48.61671" lon="1.92911">
        <ele>185</ele>
        <time>2026-03-29T11:05:30Z</time>
      </trkpt>
      <trkpt lat="48.61673" lon="1.92907">
        <ele>185</ele>
        <time>2026-03-29T11:05:31Z</time>
      </trkpt>
      <trkpt lat="48.61675" lon="1.92902">
        <ele>185</ele>
        <time>2026-03-29T11:05:32Z</time>
      </trkpt>
      <trkpt lat="48.61678" lon="1.92897">
        <ele>185</ele>
        <time>2026-03-29T11:05:33Z</time>
      </trkpt>
      <trkpt lat="48.6168" lon="1.92893">
        <ele>184.8</ele>
        <time>2026-03-29T11:05:34Z</time>
      </trkpt>
      <trkpt lat="48.61683" lon="1.92889">
        <ele>184.8</ele>
        <time>2026-03-29T11:05:35Z</time>
      </trkpt>
      <trkpt lat="48.61686" lon="1.92885">
        <ele>184.8</ele>
        <time>2026-03-29T11:05:36Z</time>
      </trkpt>
      <trkpt lat="48.61688" lon="1.92881">
        <ele>185</ele>
        <time>2026-03-29T11:05:37Z</time>
      </trkpt>
      <trkpt lat="48.6169" lon="1.92876">
        <ele>185</ele>
        <time>2026-03-29T11:05:38Z</time>
      </trkpt>
      <trkpt lat="48.61693" lon="1.92871">
        <ele>185</ele>
        <time>2026-03-29T11:05:39Z</time>
      </trkpt>
      <trkpt lat="48.61695" lon="1.92865">
        <ele>185</ele>
        <time>2026-03-29T11:05:40Z</time>
      </trkpt>
      <trkpt lat="48.61697" lon="1.9286">
        <ele>185.2</ele>
        <time>2026-03-29T11:05:41Z</time>
      </trkpt>
      <trkpt lat="48.61699" lon="1.92855">
        <ele>185</ele>
        <time>2026-03-29T11:05:42Z</time>
      </trkpt>
      <trkpt lat="48.61701" lon="1.92849">
        <ele>185</ele>
        <time>2026-03-29T11:05:43Z</time>
      </trkpt>
      <trkpt lat="48.61703" lon="1.92843">
        <ele>185</ele>
        <time>2026-03-29T11:05:44Z</time>
      </trkpt>
      <trkpt lat="48.61704" lon="1.92837">
        <ele>185.2</ele>
        <time>2026-03-29T11:05:45Z</time>
      </trkpt>
      <trkpt lat="48.61706" lon="1.92831">
        <ele>185.4</ele>
        <time>2026-03-29T11:05:46Z</time>
      </trkpt>
      <trkpt lat="48.61707" lon="1.92825">
        <ele>185.4</ele>
        <time>2026-03-29T11:05:47Z</time>
      </trkpt>
      <trkpt lat="48.61708" lon="1.9282">
        <ele>185.4</ele>
        <time>2026-03-29T11:05:48Z</time>
      </trkpt>
      <trkpt lat="48.61709" lon="1.92814">
        <ele>185</ele>
        <time>2026-03-29T11:05:49Z</time>
      </trkpt>
      <trkpt lat="48.61709" lon="1.92808">
        <ele>185.2</ele>
        <time>2026-03-29T11:05:50Z</time>
      </trkpt>
      <trkpt lat="48.6171" lon="1.92801">
        <ele>185.2</ele>
        <time>2026-03-29T11:05:51Z</time>
      </trkpt>
      <trkpt lat="48.6171" lon="1.92794">
        <ele>185.2</ele>
        <time>2026-03-29T11:05:52Z</time>
      </trkpt>
      <trkpt lat="48.61709" lon="1.92787">
        <ele>185.2</ele>
        <time>2026-03-29T11:05:53Z</time>
      </trkpt>
      <trkpt lat="48.61709" lon="1.9278">
        <ele>184.8</ele>
        <time>2026-03-29T11:05:54Z</time>
      </trkpt>
      <trkpt lat="48.61708" lon="1.92773">
        <ele>184.8</ele>
        <time>2026-03-29T11:05:55Z</time>
      </trkpt>
      <trkpt lat="48.61708" lon="1.92766">
        <ele>184.8</ele>
        <time>2026-03-29T11:05:56Z</time>
      </trkpt>
      <trkpt lat="48.61707" lon="1.92759">
        <ele>184.8</ele>
        <time>2026-03-29T11:05:57Z</time>
      </trkpt>
      <trkpt lat="48.61707" lon="1.92752">
        <ele>185</ele>
        <time>2026-03-29T11:05:58Z</time>
      </trkpt>
      <trkpt lat="48.61706" lon="1.92745">
        <ele>185</ele>
        <time>2026-03-29T11:05:59Z</time>
      </trkpt>
      <trkpt lat="48.61705" lon="1.92738">
        <ele>185</ele>
        <time>2026-03-29T11:06:00Z</time>
      </trkpt>
      <trkpt lat="48.61704" lon="1.92731">
        <ele>184.6</ele>
        <time>2026-03-29T11:06:01Z</time>
      </trkpt>
      <trkpt lat="48.61704" lon="1.92724">
        <ele>184.2</ele>
        <time>2026-03-29T11:06:02Z</time>
      </trkpt>
      <trkpt lat="48.61703" lon="1.92717">
        <ele>184.2</ele>
        <time>2026-03-29T11:06:03Z</time>
      </trkpt>
      <trkpt lat="48.61703" lon="1.9271">
        <ele>184.2</ele>
        <time>2026-03-29T11:06:04Z</time>
      </trkpt>
      <trkpt lat="48.61702" lon="1.92703">
        <ele>184.2</ele>
        <time>2026-03-29T11:06:05Z</time>
      </trkpt>
      <trkpt lat="48.61701" lon="1.92696">
        <ele>184.2</ele>
        <time>2026-03-29T11:06:06Z</time>
      </trkpt>
      <trkpt lat="48.61701" lon="1.92689">
        <ele>184.2</ele>
        <time>2026-03-29T11:06:07Z</time>
      </trkpt>
      <trkpt lat="48.617" lon="1.92682">
        <ele>184.2</ele>
        <time>2026-03-29T11:06:08Z</time>
      </trkpt>
      <trkpt lat="48.61699" lon="1.92675">
        <ele>184.2</ele>
        <time>2026-03-29T11:06:09Z</time>
      </trkpt>
      <trkpt lat="48.61698" lon="1.92668">
        <ele>184.4</ele>
        <time>2026-03-29T11:06:10Z</time>
      </trkpt>
      <trkpt lat="48.61698" lon="1.9266">
        <ele>184.4</ele>
        <time>2026-03-29T11:06:11Z</time>
      </trkpt>
      <trkpt lat="48.61697" lon="1.92653">
        <ele>184.4</ele>
        <time>2026-03-29T11:06:12Z</time>
      </trkpt>
      <trkpt lat="48.61697" lon="1.92646">
        <ele>184.2</ele>
        <time>2026-03-29T11:06:13Z</time>
      </trkpt>
      <trkpt lat="48.61696" lon="1.92639">
        <ele>184.2</ele>
        <time>2026-03-29T11:06:14Z</time>
      </trkpt>
      <trkpt lat="48.61696" lon="1.92632">
        <ele>184.2</ele>
        <time>2026-03-29T11:06:15Z</time>
      </trkpt>
      <trkpt lat="48.61695" lon="1.92625">
        <ele>184.2</ele>
        <time>2026-03-29T11:06:16Z</time>
      </trkpt>
      <trkpt lat="48.61694" lon="1.92617">
        <ele>183.8</ele>
        <time>2026-03-29T11:06:17Z</time>
      </trkpt>
      <trkpt lat="48.61694" lon="1.9261">
        <ele>184.2</ele>
        <time>2026-03-29T11:06:18Z</time>
      </trkpt>
      <trkpt lat="48.61693" lon="1.92603">
        <ele>184.2</ele>
        <time>2026-03-29T11:06:19Z</time>
      </trkpt>
      <trkpt lat="48.61693" lon="1.92595">
        <ele>184.2</ele>
        <time>2026-03-29T11:06:20Z</time>
      </trkpt>
      <trkpt lat="48.61692" lon="1.92588">
        <ele>184</ele>
        <time>2026-03-29T11:06:21Z</time>
      </trkpt>
      <trkpt lat="48.61691" lon="1.9258">
        <ele>183.6</ele>
        <time>2026-03-29T11:06:22Z</time>
      </trkpt>
      <trkpt lat="48.61691" lon="1.92573">
        <ele>183.6</ele>
        <time>2026-03-29T11:06:23Z</time>
      </trkpt>
      <trkpt lat="48.6169" lon="1.92566">
        <ele>183.6</ele>
        <time>2026-03-29T11:06:24Z</time>
      </trkpt>
      <trkpt lat="48.6169" lon="1.92559">
        <ele>183.8</ele>
        <time>2026-03-29T11:06:25Z</time>
      </trkpt>
      <trkpt lat="48.61689" lon="1.92551">
        <ele>183.6</ele>
        <time>2026-03-29T11:06:26Z</time>
      </trkpt>
      <trkpt lat="48.61689" lon="1.92544">
        <ele>183.6</ele>
        <time>2026-03-29T11:06:27Z</time>
      </trkpt>
      <trkpt lat="48.61688" lon="1.92536">
        <ele>183.6</ele>
        <time>2026-03-29T11:06:28Z</time>
      </trkpt>
      <trkpt lat="48.61688" lon="1.92529">
        <ele>183.6</ele>
        <time>2026-03-29T11:06:29Z</time>
      </trkpt>
      <trkpt lat="48.61687" lon="1.92522">
        <ele>183.8</ele>
        <time>2026-03-29T11:06:30Z</time>
      </trkpt>
      <trkpt lat="48.61687" lon="1.92514">
        <ele>183.8</ele>
        <time>2026-03-29T11:06:31Z</time>
      </trkpt>
      <trkpt lat="48.61686" lon="1.92507">
        <ele>183.8</ele>
        <time>2026-03-29T11:06:32Z</time>
      </trkpt>
      <trkpt lat="48.61686" lon="1.92501">
        <ele>184.2</ele>
        <time>2026-03-29T11:06:33Z</time>
      </trkpt>
      <trkpt lat="48.61685" lon="1.92495">
        <ele>184.2</ele>
        <time>2026-03-29T11:06:34Z</time>
      </trkpt>
      <trkpt lat="48.61684" lon="1.92488">
        <ele>184.2</ele>
        <time>2026-03-29T11:06:35Z</time>
      </trkpt>
      <trkpt lat="48.61684" lon="1.92481">
        <ele>184.2</ele>
        <time>2026-03-29T11:06:36Z</time>
      </trkpt>
      <trkpt lat="48.61684" lon="1.92474">
        <ele>184</ele>
        <time>2026-03-29T11:06:37Z</time>
      </trkpt>
      <trkpt lat="48.61684" lon="1.92469">
        <ele>184.2</ele>
        <time>2026-03-29T11:06:38Z</time>
      </trkpt>
      <trkpt lat="48.61684" lon="1.92462">
        <ele>184.2</ele>
        <time>2026-03-29T11:06:39Z</time>
      </trkpt>
      <trkpt lat="48.61684" lon="1.92455">
        <ele>184.2</ele>
        <time>2026-03-29T11:06:40Z</time>
      </trkpt>
      <trkpt lat="48.61684" lon="1.92448">
        <ele>184.2</ele>
        <time>2026-03-29T11:06:41Z</time>
      </trkpt>
      <trkpt lat="48.61685" lon="1.92443">
        <ele>183.8</ele>
        <time>2026-03-29T11:06:42Z</time>
      </trkpt>
      <trkpt lat="48.61686" lon="1.92437">
        <ele>183.8</ele>
        <time>2026-03-29T11:06:43Z</time>
      </trkpt>
      <trkpt lat="48.61686" lon="1.9243">
        <ele>183.8</ele>
        <time>2026-03-29T11:06:44Z</time>
      </trkpt>
      <trkpt lat="48.61687" lon="1.92425">
        <ele>184.2</ele>
        <time>2026-03-29T11:06:45Z</time>
      </trkpt>
      <trkpt lat="48.61688" lon="1.92419">
        <ele>184.2</ele>
        <time>2026-03-29T11:06:46Z</time>
      </trkpt>
      <trkpt lat="48.61689" lon="1.92412">
        <ele>184.2</ele>
        <time>2026-03-29T11:06:47Z</time>
      </trkpt>
      <trkpt lat="48.6169" lon="1.92405">
        <ele>184.2</ele>
        <time>2026-03-29T11:06:48Z</time>
      </trkpt>
      <trkpt lat="48.61691" lon="1.92399">
        <ele>184.2</ele>
        <time>2026-03-29T11:06:49Z</time>
      </trkpt>
      <trkpt lat="48.61692" lon="1.92391">
        <ele>184.2</ele>
        <time>2026-03-29T11:06:50Z</time>
      </trkpt>
      <trkpt lat="48.61693" lon="1.92385">
        <ele>184.2</ele>
        <time>2026-03-29T11:06:51Z</time>
      </trkpt>
      <trkpt lat="48.61694" lon="1.92377">
        <ele>184.2</ele>
        <time>2026-03-29T11:06:52Z</time>
      </trkpt>
      <trkpt lat="48.61695" lon="1.9237">
        <ele>184.2</ele>
        <time>2026-03-29T11:06:53Z</time>
      </trkpt>
      <trkpt lat="48.61695" lon="1.92363">
        <ele>184.2</ele>
        <time>2026-03-29T11:06:54Z</time>
      </trkpt>
      <trkpt lat="48.61696" lon="1.92357">
        <ele>184.2</ele>
        <time>2026-03-29T11:06:55Z</time>
      </trkpt>
      <trkpt lat="48.61696" lon="1.9235">
        <ele>184.2</ele>
        <time>2026-03-29T11:06:56Z</time>
      </trkpt>
      <trkpt lat="48.61697" lon="1.92342">
        <ele>184.2</ele>
        <time>2026-03-29T11:06:57Z</time>
      </trkpt>
      <trkpt lat="48.61697" lon="1.92334">
        <ele>184</ele>
        <time>2026-03-29T11:06:58Z</time>
      </trkpt>
      <trkpt lat="48.61698" lon="1.92327">
        <ele>184</ele>
        <time>2026-03-29T11:06:59Z</time>
      </trkpt>
      <trkpt lat="48.61698" lon="1.92319">
        <ele>184</ele>
        <time>2026-03-29T11:07:00Z</time>
      </trkpt>
      <trkpt lat="48.61699" lon="1.92312">
        <ele>184.2</ele>
        <time>2026-03-29T11:07:01Z</time>
      </trkpt>
      <trkpt lat="48.617" lon="1.92304">
        <ele>183.8</ele>
        <time>2026-03-29T11:07:02Z</time>
      </trkpt>
      <trkpt lat="48.617" lon="1.92296">
        <ele>183.8</ele>
        <time>2026-03-29T11:07:03Z</time>
      </trkpt>
      <trkpt lat="48.61701" lon="1.92289">
        <ele>183.8</ele>
        <time>2026-03-29T11:07:04Z</time>
      </trkpt>
      <trkpt lat="48.61702" lon="1.92281">
        <ele>183.8</ele>
        <time>2026-03-29T11:07:05Z</time>
      </trkpt>
      <trkpt lat="48.61703" lon="1.92273">
        <ele>184</ele>
        <time>2026-03-29T11:07:06Z</time>
      </trkpt>
      <trkpt lat="48.61703" lon="1.92265">
        <ele>184</ele>
        <time>2026-03-29T11:07:07Z</time>
      </trkpt>
      <trkpt lat="48.61704" lon="1.92257">
        <ele>184</ele>
        <time>2026-03-29T11:07:08Z</time>
      </trkpt>
      <trkpt lat="48.61704" lon="1.9225">
        <ele>184</ele>
        <time>2026-03-29T11:07:09Z</time>
      </trkpt>
      <trkpt lat="48.61705" lon="1.92242">
        <ele>184.2</ele>
        <time>2026-03-29T11:07:10Z</time>
      </trkpt>
      <trkpt lat="48.61706" lon="1.92235">
        <ele>184.2</ele>
        <time>2026-03-29T11:07:11Z</time>
      </trkpt>
      <trkpt lat="48.61706" lon="1.92227">
        <ele>184.2</ele>
        <time>2026-03-29T11:07:12Z</time>
      </trkpt>
      <trkpt lat="48.61708" lon="1.9222">
        <ele>184.2</ele>
        <time>2026-03-29T11:07:13Z</time>
      </trkpt>
      <trkpt lat="48.61709" lon="1.92213">
        <ele>184</ele>
        <time>2026-03-29T11:07:14Z</time>
      </trkpt>
      <trkpt lat="48.6171" lon="1.92205">
        <ele>184</ele>
        <time>2026-03-29T11:07:15Z</time>
      </trkpt>
      <trkpt lat="48.61711" lon="1.92199">
        <ele>184</ele>
        <time>2026-03-29T11:07:16Z</time>
      </trkpt>
      <trkpt lat="48.61712" lon="1.92192">
        <ele>184</ele>
        <time>2026-03-29T11:07:17Z</time>
      </trkpt>
      <trkpt lat="48.61713" lon="1.92185">
        <ele>183.8</ele>
        <time>2026-03-29T11:07:18Z</time>
      </trkpt>
      <trkpt lat="48.61715" lon="1.92178">
        <ele>183.8</ele>
        <time>2026-03-29T11:07:19Z</time>
      </trkpt>
      <trkpt lat="48.61716" lon="1.92171">
        <ele>183.8</ele>
        <time>2026-03-29T11:07:20Z</time>
      </trkpt>
      <trkpt lat="48.61717" lon="1.92165">
        <ele>183.8</ele>
        <time>2026-03-29T11:07:21Z</time>
      </trkpt>
      <trkpt lat="48.61718" lon="1.92158">
        <ele>184.6</ele>
        <time>2026-03-29T11:07:22Z</time>
      </trkpt>
      <trkpt lat="48.6172" lon="1.92152">
        <ele>184.6</ele>
        <time>2026-03-29T11:07:23Z</time>
      </trkpt>
      <trkpt lat="48.61721" lon="1.92145">
        <ele>184.6</ele>
        <time>2026-03-29T11:07:24Z</time>
      </trkpt>
      <trkpt lat="48.61722" lon="1.92137">
        <ele>184</ele>
        <time>2026-03-29T11:07:25Z</time>
      </trkpt>
      <trkpt lat="48.61724" lon="1.9213">
        <ele>183.2</ele>
        <time>2026-03-29T11:07:26Z</time>
      </trkpt>
      <trkpt lat="48.61725" lon="1.92123">
        <ele>183.2</ele>
        <time>2026-03-29T11:07:27Z</time>
      </trkpt>
      <trkpt lat="48.61726" lon="1.92116">
        <ele>183.2</ele>
        <time>2026-03-29T11:07:28Z</time>
      </trkpt>
      <trkpt lat="48.61727" lon="1.9211">
        <ele>183.8</ele>
        <time>2026-03-29T11:07:29Z</time>
      </trkpt>
      <trkpt lat="48.61729" lon="1.92103">
        <ele>183.8</ele>
        <time>2026-03-29T11:07:30Z</time>
      </trkpt>
      <trkpt lat="48.61729" lon="1.92097">
        <ele>183.8</ele>
        <time>2026-03-29T11:07:31Z</time>
      </trkpt>
      <trkpt lat="48.61731" lon="1.9209">
        <ele>183.8</ele>
        <time>2026-03-29T11:07:32Z</time>
      </trkpt>
      <trkpt lat="48.61732" lon="1.92083">
        <ele>183.8</ele>
        <time>2026-03-29T11:07:33Z</time>
      </trkpt>
      <trkpt lat="48.61734" lon="1.92076">
        <ele>183.8</ele>
        <time>2026-03-29T11:07:34Z</time>
      </trkpt>
      <trkpt lat="48.61735" lon="1.92069">
        <ele>183.8</ele>
        <time>2026-03-29T11:07:35Z</time>
      </trkpt>
      <trkpt lat="48.61737" lon="1.92063">
        <ele>183.8</ele>
        <time>2026-03-29T11:07:36Z</time>
      </trkpt>
      <trkpt lat="48.61738" lon="1.92057">
        <ele>184</ele>
        <time>2026-03-29T11:07:37Z</time>
      </trkpt>
      <trkpt lat="48.61738" lon="1.9205">
        <ele>183.8</ele>
        <time>2026-03-29T11:07:38Z</time>
      </trkpt>
      <trkpt lat="48.61739" lon="1.92042">
        <ele>183.8</ele>
        <time>2026-03-29T11:07:39Z</time>
      </trkpt>
      <trkpt lat="48.61739" lon="1.92035">
        <ele>183.8</ele>
        <time>2026-03-29T11:07:40Z</time>
      </trkpt>
      <trkpt lat="48.61739" lon="1.92028">
        <ele>184.2</ele>
        <time>2026-03-29T11:07:41Z</time>
      </trkpt>
      <trkpt lat="48.6174" lon="1.9202">
        <ele>184.2</ele>
        <time>2026-03-29T11:07:42Z</time>
      </trkpt>
      <trkpt lat="48.61741" lon="1.92013">
        <ele>184.2</ele>
        <time>2026-03-29T11:07:43Z</time>
      </trkpt>
      <trkpt lat="48.61741" lon="1.92006">
        <ele>184.2</ele>
        <time>2026-03-29T11:07:44Z</time>
      </trkpt>
      <trkpt lat="48.61743" lon="1.91999">
        <ele>184.2</ele>
        <time>2026-03-29T11:07:45Z</time>
      </trkpt>
      <trkpt lat="48.61744" lon="1.91992">
        <ele>183.8</ele>
        <time>2026-03-29T11:07:46Z</time>
      </trkpt>
      <trkpt lat="48.61744" lon="1.91985">
        <ele>183.8</ele>
        <time>2026-03-29T11:07:47Z</time>
      </trkpt>
      <trkpt lat="48.61745" lon="1.91977">
        <ele>183.8</ele>
        <time>2026-03-29T11:07:48Z</time>
      </trkpt>
      <trkpt lat="48.61745" lon="1.9197">
        <ele>184.4</ele>
        <time>2026-03-29T11:07:49Z</time>
      </trkpt>
      <trkpt lat="48.61746" lon="1.91962">
        <ele>184.2</ele>
        <time>2026-03-29T11:07:50Z</time>
      </trkpt>
      <trkpt lat="48.61746" lon="1.91954">
        <ele>184.2</ele>
        <time>2026-03-29T11:07:51Z</time>
      </trkpt>
      <trkpt lat="48.61747" lon="1.91947">
        <ele>184.2</ele>
        <time>2026-03-29T11:07:52Z</time>
      </trkpt>
      <trkpt lat="48.61747" lon="1.91939">
        <ele>184.2</ele>
        <time>2026-03-29T11:07:53Z</time>
      </trkpt>
      <trkpt lat="48.61747" lon="1.91931">
        <ele>184.4</ele>
        <time>2026-03-29T11:07:54Z</time>
      </trkpt>
      <trkpt lat="48.61747" lon="1.91924">
        <ele>184.4</ele>
        <time>2026-03-29T11:07:55Z</time>
      </trkpt>
      <trkpt lat="48.61748" lon="1.91916">
        <ele>184.4</ele>
        <time>2026-03-29T11:07:56Z</time>
      </trkpt>
      <trkpt lat="48.61749" lon="1.91909">
        <ele>184.4</ele>
        <time>2026-03-29T11:07:57Z</time>
      </trkpt>
      <trkpt lat="48.61749" lon="1.91902">
        <ele>184.2</ele>
        <time>2026-03-29T11:07:58Z</time>
      </trkpt>
      <trkpt lat="48.6175" lon="1.91894">
        <ele>184.2</ele>
        <time>2026-03-29T11:07:59Z</time>
      </trkpt>
      <trkpt lat="48.61751" lon="1.91887">
        <ele>184.2</ele>
        <time>2026-03-29T11:08:00Z</time>
      </trkpt>
      <trkpt lat="48.61751" lon="1.9188">
        <ele>184.2</ele>
        <time>2026-03-29T11:08:01Z</time>
      </trkpt>
      <trkpt lat="48.61752" lon="1.91873">
        <ele>184.6</ele>
        <time>2026-03-29T11:08:02Z</time>
      </trkpt>
      <trkpt lat="48.61753" lon="1.91865">
        <ele>184.6</ele>
        <time>2026-03-29T11:08:03Z</time>
      </trkpt>
      <trkpt lat="48.61754" lon="1.91858">
        <ele>184.6</ele>
        <time>2026-03-29T11:08:04Z</time>
      </trkpt>
      <trkpt lat="48.61755" lon="1.91851">
        <ele>184.6</ele>
        <time>2026-03-29T11:08:05Z</time>
      </trkpt>
      <trkpt lat="48.61756" lon="1.91845">
        <ele>184.4</ele>
        <time>2026-03-29T11:08:06Z</time>
      </trkpt>
      <trkpt lat="48.61756" lon="1.91838">
        <ele>184.4</ele>
        <time>2026-03-29T11:08:07Z</time>
      </trkpt>
      <trkpt lat="48.61756" lon="1.91831">
        <ele>184.4</ele>
        <time>2026-03-29T11:08:08Z</time>
      </trkpt>
      <trkpt lat="48.61757" lon="1.91824">
        <ele>184.4</ele>
        <time>2026-03-29T11:08:09Z</time>
      </trkpt>
      <trkpt lat="48.61758" lon="1.91817">
        <ele>184.8</ele>
        <time>2026-03-29T11:08:10Z</time>
      </trkpt>
      <trkpt lat="48.61758" lon="1.9181">
        <ele>184.8</ele>
        <time>2026-03-29T11:08:11Z</time>
      </trkpt>
      <trkpt lat="48.61758" lon="1.91803">
        <ele>184.8</ele>
        <time>2026-03-29T11:08:12Z</time>
      </trkpt>
      <trkpt lat="48.61758" lon="1.91795">
        <ele>184.8</ele>
        <time>2026-03-29T11:08:13Z</time>
      </trkpt>
      <trkpt lat="48.61757" lon="1.91788">
        <ele>185</ele>
        <time>2026-03-29T11:08:14Z</time>
      </trkpt>
      <trkpt lat="48.61758" lon="1.91781">
        <ele>185</ele>
        <time>2026-03-29T11:08:15Z</time>
      </trkpt>
      <trkpt lat="48.61758" lon="1.91774">
        <ele>185</ele>
        <time>2026-03-29T11:08:16Z</time>
      </trkpt>
      <trkpt lat="48.61758" lon="1.91766">
        <ele>184.8</ele>
        <time>2026-03-29T11:08:17Z</time>
      </trkpt>
      <trkpt lat="48.61758" lon="1.91758">
        <ele>184.8</ele>
        <time>2026-03-29T11:08:18Z</time>
      </trkpt>
      <trkpt lat="48.61757" lon="1.9175">
        <ele>184.8</ele>
        <time>2026-03-29T11:08:19Z</time>
      </trkpt>
      <trkpt lat="48.61757" lon="1.91743">
        <ele>184.8</ele>
        <time>2026-03-29T11:08:20Z</time>
      </trkpt>
      <trkpt lat="48.61757" lon="1.91736">
        <ele>185</ele>
        <time>2026-03-29T11:08:21Z</time>
      </trkpt>
      <trkpt lat="48.61757" lon="1.91729">
        <ele>184.6</ele>
        <time>2026-03-29T11:08:22Z</time>
      </trkpt>
      <trkpt lat="48.61758" lon="1.91722">
        <ele>184.6</ele>
        <time>2026-03-29T11:08:23Z</time>
      </trkpt>
      <trkpt lat="48.61757" lon="1.91715">
        <ele>184.6</ele>
        <time>2026-03-29T11:08:24Z</time>
      </trkpt>
      <trkpt lat="48.61757" lon="1.91707">
        <ele>185</ele>
        <time>2026-03-29T11:08:25Z</time>
      </trkpt>
      <trkpt lat="48.61757" lon="1.917">
        <ele>185.2</ele>
        <time>2026-03-29T11:08:26Z</time>
      </trkpt>
      <trkpt lat="48.61756" lon="1.91693">
        <ele>185.2</ele>
        <time>2026-03-29T11:08:27Z</time>
      </trkpt>
      <trkpt lat="48.61756" lon="1.91685">
        <ele>185.2</ele>
        <time>2026-03-29T11:08:28Z</time>
      </trkpt>
      <trkpt lat="48.61756" lon="1.91678">
        <ele>185.2</ele>
        <time>2026-03-29T11:08:29Z</time>
      </trkpt>
      <trkpt lat="48.61756" lon="1.91671">
        <ele>185</ele>
        <time>2026-03-29T11:08:30Z</time>
      </trkpt>
      <trkpt lat="48.61756" lon="1.91663">
        <ele>185</ele>
        <time>2026-03-29T11:08:31Z</time>
      </trkpt>
      <trkpt lat="48.61756" lon="1.91656">
        <ele>185</ele>
        <time>2026-03-29T11:08:32Z</time>
      </trkpt>
      <trkpt lat="48.61756" lon="1.91648">
        <ele>184.4</ele>
        <time>2026-03-29T11:08:33Z</time>
      </trkpt>
      <trkpt lat="48.61756" lon="1.91641">
        <ele>184.6</ele>
        <time>2026-03-29T11:08:34Z</time>
      </trkpt>
      <trkpt lat="48.61757" lon="1.91634">
        <ele>184.6</ele>
        <time>2026-03-29T11:08:35Z</time>
      </trkpt>
      <trkpt lat="48.61757" lon="1.91627">
        <ele>184.6</ele>
        <time>2026-03-29T11:08:36Z</time>
      </trkpt>
      <trkpt lat="48.61758" lon="1.9162">
        <ele>184.6</ele>
        <time>2026-03-29T11:08:37Z</time>
      </trkpt>
      <trkpt lat="48.61758" lon="1.91612">
        <ele>184.4</ele>
        <time>2026-03-29T11:08:38Z</time>
      </trkpt>
      <trkpt lat="48.61759" lon="1.91605">
        <ele>184.4</ele>
        <time>2026-03-29T11:08:39Z</time>
      </trkpt>
      <trkpt lat="48.6176" lon="1.91599">
        <ele>184.4</ele>
        <time>2026-03-29T11:08:40Z</time>
      </trkpt>
      <trkpt lat="48.61761" lon="1.91591">
        <ele>184.4</ele>
        <time>2026-03-29T11:08:41Z</time>
      </trkpt>
      <trkpt lat="48.61762" lon="1.91584">
        <ele>184</ele>
        <time>2026-03-29T11:08:42Z</time>
      </trkpt>
      <trkpt lat="48.61763" lon="1.91577">
        <ele>184</ele>
        <time>2026-03-29T11:08:43Z</time>
      </trkpt>
      <trkpt lat="48.61764" lon="1.91569">
        <ele>184</ele>
        <time>2026-03-29T11:08:44Z</time>
      </trkpt>
      <trkpt lat="48.61766" lon="1.91562">
        <ele>184.2</ele>
        <time>2026-03-29T11:08:45Z</time>
      </trkpt>
      <trkpt lat="48.61767" lon="1.91556">
        <ele>184.2</ele>
        <time>2026-03-29T11:08:46Z</time>
      </trkpt>
      <trkpt lat="48.61769" lon="1.91549">
        <ele>184.2</ele>
        <time>2026-03-29T11:08:47Z</time>
      </trkpt>
      <trkpt lat="48.6177" lon="1.91542">
        <ele>184.2</ele>
        <time>2026-03-29T11:08:48Z</time>
      </trkpt>
      <trkpt lat="48.61771" lon="1.91536">
        <ele>184.2</ele>
        <time>2026-03-29T11:08:49Z</time>
      </trkpt>
      <trkpt lat="48.61771" lon="1.91531">
        <ele>183.4</ele>
        <time>2026-03-29T11:08:50Z</time>
      </trkpt>
      <trkpt lat="48.6177" lon="1.91527">
        <ele>183.4</ele>
        <time>2026-03-29T11:08:51Z</time>
      </trkpt>
      <trkpt lat="48.61768" lon="1.91523">
        <ele>183.4</ele>
        <time>2026-03-29T11:08:52Z</time>
      </trkpt>
      <trkpt lat="48.61765" lon="1.91519">
        <ele>183.4</ele>
        <time>2026-03-29T11:08:53Z</time>
      </trkpt>
      <trkpt lat="48.61764" lon="1.91516">
        <ele>183.2</ele>
        <time>2026-03-29T11:08:54Z</time>
      </trkpt>
      <trkpt lat="48.61761" lon="1.91513">
        <ele>183.2</ele>
        <time>2026-03-29T11:08:55Z</time>
      </trkpt>
      <trkpt lat="48.61759" lon="1.91509">
        <ele>183.2</ele>
        <time>2026-03-29T11:08:56Z</time>
      </trkpt>
      <trkpt lat="48.61756" lon="1.91505">
        <ele>183.2</ele>
        <time>2026-03-29T11:08:57Z</time>
      </trkpt>
      <trkpt lat="48.61752" lon="1.91501">
        <ele>183</ele>
        <time>2026-03-29T11:08:58Z</time>
      </trkpt>
      <trkpt lat="48.6175" lon="1.91497">
        <ele>183</ele>
        <time>2026-03-29T11:08:59Z</time>
      </trkpt>
      <trkpt lat="48.61747" lon="1.91493">
        <ele>183</ele>
        <time>2026-03-29T11:09:00Z</time>
      </trkpt>
      <trkpt lat="48.61744" lon="1.91487">
        <ele>182.2</ele>
        <time>2026-03-29T11:09:01Z</time>
      </trkpt>
      <trkpt lat="48.61741" lon="1.91484">
        <ele>181.6</ele>
        <time>2026-03-29T11:09:02Z</time>
      </trkpt>
      <trkpt lat="48.61736" lon="1.91481">
        <ele>181.6</ele>
        <time>2026-03-29T11:09:03Z</time>
      </trkpt>
      <trkpt lat="48.61732" lon="1.9148">
        <ele>181.6</ele>
        <time>2026-03-29T11:09:04Z</time>
      </trkpt>
      <trkpt lat="48.61728" lon="1.91479">
        <ele>181.6</ele>
        <time>2026-03-29T11:09:05Z</time>
      </trkpt>
      <trkpt lat="48.61724" lon="1.91478">
        <ele>181.2</ele>
        <time>2026-03-29T11:09:06Z</time>
      </trkpt>
      <trkpt lat="48.6172" lon="1.91477">
        <ele>181.2</ele>
        <time>2026-03-29T11:09:07Z</time>
      </trkpt>
      <trkpt lat="48.61716" lon="1.91476">
        <ele>181.2</ele>
        <time>2026-03-29T11:09:08Z</time>
      </trkpt>
      <trkpt lat="48.61711" lon="1.91475">
        <ele>181.6</ele>
        <time>2026-03-29T11:09:09Z</time>
      </trkpt>
      <trkpt lat="48.61707" lon="1.91475">
        <ele>181</ele>
        <time>2026-03-29T11:09:10Z</time>
      </trkpt>
      <trkpt lat="48.61704" lon="1.91474">
        <ele>181</ele>
        <time>2026-03-29T11:09:11Z</time>
      </trkpt>
      <trkpt lat="48.617" lon="1.91474">
        <ele>181</ele>
        <time>2026-03-29T11:09:12Z</time>
      </trkpt>
      <trkpt lat="48.61696" lon="1.91474">
        <ele>181</ele>
        <time>2026-03-29T11:09:13Z</time>
      </trkpt>
      <trkpt lat="48.61692" lon="1.91473">
        <ele>179</ele>
        <time>2026-03-29T11:09:14Z</time>
      </trkpt>
      <trkpt lat="48.61687" lon="1.91472">
        <ele>179</ele>
        <time>2026-03-29T11:09:15Z</time>
      </trkpt>
      <trkpt lat="48.61681" lon="1.9147">
        <ele>179</ele>
        <time>2026-03-29T11:09:16Z</time>
      </trkpt>
      <trkpt lat="48.61675" lon="1.91468">
        <ele>178</ele>
        <time>2026-03-29T11:09:17Z</time>
      </trkpt>
      <trkpt lat="48.61668" lon="1.91467">
        <ele>176.2</ele>
        <time>2026-03-29T11:09:18Z</time>
      </trkpt>
      <trkpt lat="48.6166" lon="1.91466">
        <ele>176.2</ele>
        <time>2026-03-29T11:09:19Z</time>
      </trkpt>
      <trkpt lat="48.61654" lon="1.91466">
        <ele>176.2</ele>
        <time>2026-03-29T11:09:20Z</time>
      </trkpt>
      <trkpt lat="48.61648" lon="1.91465">
        <ele>177.2</ele>
        <time>2026-03-29T11:09:21Z</time>
      </trkpt>
      <trkpt lat="48.61644" lon="1.91465">
        <ele>178.6</ele>
        <time>2026-03-29T11:09:22Z</time>
      </trkpt>
      <trkpt lat="48.61641" lon="1.91464">
        <ele>178.6</ele>
        <time>2026-03-29T11:09:23Z</time>
      </trkpt>
      <trkpt lat="48.61639" lon="1.91465">
        <ele>178.6</ele>
        <time>2026-03-29T11:09:24Z</time>
      </trkpt>
      <trkpt lat="48.61637" lon="1.91464">
        <ele>179.4</ele>
        <time>2026-03-29T11:09:25Z</time>
      </trkpt>
      <trkpt lat="48.61636" lon="1.91464">
        <ele>179.6</ele>
        <time>2026-03-29T11:09:26Z</time>
      </trkpt>
      <trkpt lat="48.61634" lon="1.91463">
        <ele>179.6</ele>
        <time>2026-03-29T11:09:27Z</time>
      </trkpt>
      <trkpt lat="48.61633" lon="1.91463">
        <ele>179.6</ele>
        <time>2026-03-29T11:09:28Z</time>
      </trkpt>
      <trkpt lat="48.61631" lon="1.91463">
        <ele>179.6</ele>
        <time>2026-03-29T11:09:29Z</time>
      </trkpt>
      <trkpt lat="48.61629" lon="1.91463">
        <ele>180.8</ele>
        <time>2026-03-29T11:09:30Z</time>
      </trkpt>
      <trkpt lat="48.61628" lon="1.91463">
        <ele>180.8</ele>
        <time>2026-03-29T11:09:31Z</time>
      </trkpt>
      <trkpt lat="48.61625" lon="1.91462">
        <ele>180.8</ele>
        <time>2026-03-29T11:09:32Z</time>
      </trkpt>
      <trkpt lat="48.61624" lon="1.91462">
        <ele>180.8</ele>
        <time>2026-03-29T11:09:33Z</time>
      </trkpt>
      <trkpt lat="48.61623" lon="1.91462">
        <ele>181.6</ele>
        <time>2026-03-29T11:09:34Z</time>
      </trkpt>
      <trkpt lat="48.61621" lon="1.91462">
        <ele>181.6</ele>
        <time>2026-03-29T11:09:35Z</time>
      </trkpt>
      <trkpt lat="48.6162" lon="1.91462">
        <ele>181.6</ele>
        <time>2026-03-29T11:09:36Z</time>
      </trkpt>
      <trkpt lat="48.61618" lon="1.91461">
        <ele>181.6</ele>
        <time>2026-03-29T11:09:37Z</time>
      </trkpt>
      <trkpt lat="48.61616" lon="1.91461">
        <ele>182.2</ele>
        <time>2026-03-29T11:09:38Z</time>
      </trkpt>
      <trkpt lat="48.61614" lon="1.91461">
        <ele>182.2</ele>
        <time>2026-03-29T11:09:39Z</time>
      </trkpt>
      <trkpt lat="48.61612" lon="1.91461">
        <ele>182.2</ele>
        <time>2026-03-29T11:09:40Z</time>
      </trkpt>
      <trkpt lat="48.6161" lon="1.91461">
        <ele>182.2</ele>
        <time>2026-03-29T11:09:41Z</time>
      </trkpt>
      <trkpt lat="48.61608" lon="1.91461">
        <ele>182.6</ele>
        <time>2026-03-29T11:09:42Z</time>
      </trkpt>
      <trkpt lat="48.61606" lon="1.9146">
        <ele>182.6</ele>
        <time>2026-03-29T11:09:43Z</time>
      </trkpt>
      <trkpt lat="48.61604" lon="1.9146">
        <ele>182.6</ele>
        <time>2026-03-29T11:09:44Z</time>
      </trkpt>
      <trkpt lat="48.61601" lon="1.9146">
        <ele>182.8</ele>
        <time>2026-03-29T11:09:45Z</time>
      </trkpt>
      <trkpt lat="48.616" lon="1.91459">
        <ele>182.8</ele>
        <time>2026-03-29T11:09:46Z</time>
      </trkpt>
      <trkpt lat="48.61598" lon="1.91459">
        <ele>182.8</ele>
        <time>2026-03-29T11:09:47Z</time>
      </trkpt>
      <trkpt lat="48.61596" lon="1.91459">
        <ele>182.8</ele>
        <time>2026-03-29T11:09:48Z</time>
      </trkpt>
      <trkpt lat="48.61593" lon="1.91458">
        <ele>182</ele>
        <time>2026-03-29T11:09:49Z</time>
      </trkpt>
      <trkpt lat="48.6159" lon="1.91458">
        <ele>181.8</ele>
        <time>2026-03-29T11:09:50Z</time>
      </trkpt>
      <trkpt lat="48.61587" lon="1.91459">
        <ele>181.8</ele>
        <time>2026-03-29T11:09:51Z</time>
      </trkpt>
      <trkpt lat="48.61582" lon="1.91458">
        <ele>181.8</ele>
        <time>2026-03-29T11:09:52Z</time>
      </trkpt>
      <trkpt lat="48.61577" lon="1.91457">
        <ele>181.8</ele>
        <time>2026-03-29T11:09:53Z</time>
      </trkpt>
      <trkpt lat="48.61572" lon="1.91457">
        <ele>179.2</ele>
        <time>2026-03-29T11:09:54Z</time>
      </trkpt>
      <trkpt lat="48.61569" lon="1.91457">
        <ele>179.2</ele>
        <time>2026-03-29T11:09:55Z</time>
      </trkpt>
      <trkpt lat="48.61566" lon="1.91457">
        <ele>179.2</ele>
        <time>2026-03-29T11:09:56Z</time>
      </trkpt>
      <trkpt lat="48.61564" lon="1.91459">
        <ele>178.2</ele>
        <time>2026-03-29T11:09:57Z</time>
      </trkpt>
      <trkpt lat="48.61562" lon="1.91461">
        <ele>178.2</ele>
        <time>2026-03-29T11:09:58Z</time>
      </trkpt>
      <trkpt lat="48.61562" lon="1.91463">
        <ele>178.2</ele>
        <time>2026-03-29T11:09:59Z</time>
      </trkpt>
      <trkpt lat="48.61562" lon="1.91466">
        <ele>178.2</ele>
        <time>2026-03-29T11:10:00Z</time>
      </trkpt>
      <trkpt lat="48.61561" lon="1.91468">
        <ele>178.2</ele>
        <time>2026-03-29T11:10:01Z</time>
      </trkpt>
      <trkpt lat="48.61562" lon="1.9147">
        <ele>179</ele>
        <time>2026-03-29T11:10:02Z</time>
      </trkpt>
      <trkpt lat="48.61562" lon="1.91473">
        <ele>179</ele>
        <time>2026-03-29T11:10:03Z</time>
      </trkpt>
      <trkpt lat="48.61562" lon="1.91475">
        <ele>179</ele>
        <time>2026-03-29T11:10:04Z</time>
      </trkpt>
      <trkpt lat="48.61562" lon="1.91477">
        <ele>179</ele>
        <time>2026-03-29T11:10:05Z</time>
      </trkpt>
      <trkpt lat="48.61562" lon="1.91479">
        <ele>179.2</ele>
        <time>2026-03-29T11:10:06Z</time>
      </trkpt>
      <trkpt lat="48.61562" lon="1.91481">
        <ele>179.2</ele>
        <time>2026-03-29T11:10:07Z</time>
      </trkpt>
      <trkpt lat="48.61562" lon="1.91483">
        <ele>179.2</ele>
        <time>2026-03-29T11:10:08Z</time>
      </trkpt>
      <trkpt lat="48.61563" lon="1.91486">
        <ele>179.6</ele>
        <time>2026-03-29T11:10:09Z</time>
      </trkpt>
      <trkpt lat="48.61563" lon="1.91488">
        <ele>179.6</ele>
        <time>2026-03-29T11:10:10Z</time>
      </trkpt>
      <trkpt lat="48.61563" lon="1.91491">
        <ele>179.6</ele>
        <time>2026-03-29T11:10:11Z</time>
      </trkpt>
      <trkpt lat="48.61563" lon="1.91493">
        <ele>179.6</ele>
        <time>2026-03-29T11:10:12Z</time>
      </trkpt>
      <trkpt lat="48.61563" lon="1.91496">
        <ele>179.6</ele>
        <time>2026-03-29T11:10:13Z</time>
      </trkpt>
      <trkpt lat="48.61564" lon="1.91499">
        <ele>179.6</ele>
        <time>2026-03-29T11:10:14Z</time>
      </trkpt>
      <trkpt lat="48.61564" lon="1.91501">
        <ele>179.6</ele>
        <time>2026-03-29T11:10:15Z</time>
      </trkpt>
      <trkpt lat="48.61565" lon="1.91505">
        <ele>179.6</ele>
        <time>2026-03-29T11:10:16Z</time>
      </trkpt>
      <trkpt lat="48.61565" lon="1.91508">
        <ele>179.6</ele>
        <time>2026-03-29T11:10:17Z</time>
      </trkpt>
      <trkpt lat="48.61566" lon="1.91511">
        <ele>179.4</ele>
        <time>2026-03-29T11:10:18Z</time>
      </trkpt>
      <trkpt lat="48.61565" lon="1.91514">
        <ele>179.4</ele>
        <time>2026-03-29T11:10:19Z</time>
      </trkpt>
      <trkpt lat="48.61566" lon="1.91517">
        <ele>179.4</ele>
        <time>2026-03-29T11:10:20Z</time>
      </trkpt>
      <trkpt lat="48.61566" lon="1.91521">
        <ele>180</ele>
        <time>2026-03-29T11:10:21Z</time>
      </trkpt>
      <trkpt lat="48.61567" lon="1.91524">
        <ele>180.4</ele>
        <time>2026-03-29T11:10:22Z</time>
      </trkpt>
      <trkpt lat="48.61566" lon="1.91528">
        <ele>180.4</ele>
        <time>2026-03-29T11:10:23Z</time>
      </trkpt>
      <trkpt lat="48.61566" lon="1.91531">
        <ele>180.4</ele>
        <time>2026-03-29T11:10:24Z</time>
      </trkpt>
      <trkpt lat="48.61566" lon="1.91534">
        <ele>180.4</ele>
        <time>2026-03-29T11:10:25Z</time>
      </trkpt>
      <trkpt lat="48.61566" lon="1.91537">
        <ele>181.8</ele>
        <time>2026-03-29T11:10:26Z</time>
      </trkpt>
      <trkpt lat="48.61566" lon="1.91541">
        <ele>181.8</ele>
        <time>2026-03-29T11:10:27Z</time>
      </trkpt>
      <trkpt lat="48.61566" lon="1.91543">
        <ele>181.8</ele>
        <time>2026-03-29T11:10:28Z</time>
      </trkpt>
      <trkpt lat="48.61566" lon="1.91547">
        <ele>181.2</ele>
        <time>2026-03-29T11:10:29Z</time>
      </trkpt>
      <trkpt lat="48.61566" lon="1.91551">
        <ele>181</ele>
        <time>2026-03-29T11:10:30Z</time>
      </trkpt>
      <trkpt lat="48.61566" lon="1.91554">
        <ele>181</ele>
        <time>2026-03-29T11:10:31Z</time>
      </trkpt>
      <trkpt lat="48.61565" lon="1.91559">
        <ele>181</ele>
        <time>2026-03-29T11:10:32Z</time>
      </trkpt>
      <trkpt lat="48.61565" lon="1.91563">
        <ele>181</ele>
        <time>2026-03-29T11:10:33Z</time>
      </trkpt>
      <trkpt lat="48.61565" lon="1.91568">
        <ele>181</ele>
        <time>2026-03-29T11:10:34Z</time>
      </trkpt>
      <trkpt lat="48.61564" lon="1.91573">
        <ele>181</ele>
        <time>2026-03-29T11:10:35Z</time>
      </trkpt>
      <trkpt lat="48.61564" lon="1.91576">
        <ele>181</ele>
        <time>2026-03-29T11:10:36Z</time>
      </trkpt>
      <trkpt lat="48.61563" lon="1.91579">
        <ele>181</ele>
        <time>2026-03-29T11:10:37Z</time>
      </trkpt>
      <trkpt lat="48.61562" lon="1.91582">
        <ele>181.6</ele>
        <time>2026-03-29T11:10:38Z</time>
      </trkpt>
      <trkpt lat="48.61561" lon="1.91585">
        <ele>181.6</ele>
        <time>2026-03-29T11:10:39Z</time>
      </trkpt>
      <trkpt lat="48.6156" lon="1.91587">
        <ele>181.6</ele>
        <time>2026-03-29T11:10:40Z</time>
      </trkpt>
      <trkpt lat="48.61558" lon="1.9159">
        <ele>180.6</ele>
        <time>2026-03-29T11:10:41Z</time>
      </trkpt>
      <trkpt lat="48.61557" lon="1.91593">
        <ele>179.8</ele>
        <time>2026-03-29T11:10:42Z</time>
      </trkpt>
      <trkpt lat="48.61557" lon="1.91594">
        <ele>179.8</ele>
        <time>2026-03-29T11:10:43Z</time>
      </trkpt>
      <trkpt lat="48.61556" lon="1.91595">
        <ele>179.8</ele>
        <time>2026-03-29T11:10:44Z</time>
      </trkpt>
      <trkpt lat="48.61556" lon="1.91595">
        <ele>179.8</ele>
        <time>2026-03-29T11:10:45Z</time>
      </trkpt>
      <trkpt lat="48.61492" lon="1.91614">
        <ele>159.8</ele>
        <time>2026-03-29T11:12:15Z</time>
      </trkpt>
      <trkpt lat="48.61488" lon="1.91615">
        <ele>159.8</ele>
        <time>2026-03-29T11:12:16Z</time>
      </trkpt>
      <trkpt lat="48.61485" lon="1.91616">
        <ele>159.8</ele>
        <time>2026-03-29T11:12:17Z</time>
      </trkpt>
      <trkpt lat="48.61483" lon="1.91616">
        <ele>160.4</ele>
        <time>2026-03-29T11:12:18Z</time>
      </trkpt>
      <trkpt lat="48.61482" lon="1.91616">
        <ele>160.4</ele>
        <time>2026-03-29T11:12:19Z</time>
      </trkpt>
      <trkpt lat="48.6148" lon="1.91616">
        <ele>160.4</ele>
        <time>2026-03-29T11:12:20Z</time>
      </trkpt>
      <trkpt lat="48.61478" lon="1.91615">
        <ele>160.4</ele>
        <time>2026-03-29T11:12:21Z</time>
      </trkpt>
      <trkpt lat="48.61476" lon="1.91615">
        <ele>160</ele>
        <time>2026-03-29T11:12:22Z</time>
      </trkpt>
      <trkpt lat="48.61473" lon="1.91614">
        <ele>160</ele>
        <time>2026-03-29T11:12:23Z</time>
      </trkpt>
      <trkpt lat="48.6147" lon="1.91613">
        <ele>160</ele>
        <time>2026-03-29T11:12:24Z</time>
      </trkpt>
      <trkpt lat="48.61466" lon="1.91613">
        <ele>159</ele>
        <time>2026-03-29T11:12:25Z</time>
      </trkpt>
      <trkpt lat="48.61461" lon="1.91612">
        <ele>157.2</ele>
        <time>2026-03-29T11:12:26Z</time>
      </trkpt>
      <trkpt lat="48.61456" lon="1.91611">
        <ele>157.2</ele>
        <time>2026-03-29T11:12:27Z</time>
      </trkpt>
      <trkpt lat="48.61451" lon="1.91609">
        <ele>157.2</ele>
        <time>2026-03-29T11:12:28Z</time>
      </trkpt>
      <trkpt lat="48.61445" lon="1.91608">
        <ele>156.2</ele>
        <time>2026-03-29T11:12:29Z</time>
      </trkpt>
      <trkpt lat="48.6144" lon="1.91607">
        <ele>154</ele>
        <time>2026-03-29T11:12:30Z</time>
      </trkpt>
      <trkpt lat="48.61436" lon="1.91606">
        <ele>154</ele>
        <time>2026-03-29T11:12:31Z</time>
      </trkpt>
      <trkpt lat="48.61431" lon="1.91605">
        <ele>154</ele>
        <time>2026-03-29T11:12:32Z</time>
      </trkpt>
      <trkpt lat="48.61427" lon="1.91604">
        <ele>154</ele>
        <time>2026-03-29T11:12:33Z</time>
      </trkpt>
      <trkpt lat="48.61423" lon="1.91603">
        <ele>151</ele>
        <time>2026-03-29T11:12:34Z</time>
      </trkpt>
      <trkpt lat="48.6142" lon="1.91604">
        <ele>151</ele>
        <time>2026-03-29T11:12:35Z</time>
      </trkpt>
      <trkpt lat="48.61418" lon="1.91607">
        <ele>151</ele>
        <time>2026-03-29T11:12:36Z</time>
      </trkpt>
      <trkpt lat="48.61417" lon="1.91609">
        <ele>150.6</ele>
        <time>2026-03-29T11:12:37Z</time>
      </trkpt>
      <trkpt lat="48.61416" lon="1.91613">
        <ele>150.2</ele>
        <time>2026-03-29T11:12:38Z</time>
      </trkpt>
      <trkpt lat="48.61415" lon="1.91617">
        <ele>150.2</ele>
        <time>2026-03-29T11:12:39Z</time>
      </trkpt>
      <trkpt lat="48.61412" lon="1.91622">
        <ele>150.2</ele>
        <time>2026-03-29T11:12:40Z</time>
      </trkpt>
      <trkpt lat="48.6141" lon="1.91625">
        <ele>150</ele>
        <time>2026-03-29T11:12:41Z</time>
      </trkpt>
      <trkpt lat="48.61408" lon="1.91627">
        <ele>150.2</ele>
        <time>2026-03-29T11:12:42Z</time>
      </trkpt>
      <trkpt lat="48.61405" lon="1.91628">
        <ele>150.2</ele>
        <time>2026-03-29T11:12:43Z</time>
      </trkpt>
      <trkpt lat="48.61403" lon="1.91631">
        <ele>150.2</ele>
        <time>2026-03-29T11:12:44Z</time>
      </trkpt>
      <trkpt lat="48.61401" lon="1.91633">
        <ele>150.2</ele>
        <time>2026-03-29T11:12:45Z</time>
      </trkpt>
      <trkpt lat="48.61398" lon="1.91635">
        <ele>150.6</ele>
        <time>2026-03-29T11:12:46Z</time>
      </trkpt>
      <trkpt lat="48.61396" lon="1.91638">
        <ele>150.6</ele>
        <time>2026-03-29T11:12:47Z</time>
      </trkpt>
      <trkpt lat="48.61393" lon="1.9164">
        <ele>150.6</ele>
        <time>2026-03-29T11:12:48Z</time>
      </trkpt>
      <trkpt lat="48.61391" lon="1.91642">
        <ele>150.6</ele>
        <time>2026-03-29T11:12:49Z</time>
      </trkpt>
      <trkpt lat="48.61389" lon="1.91644">
        <ele>150.4</ele>
        <time>2026-03-29T11:12:50Z</time>
      </trkpt>
      <trkpt lat="48.61387" lon="1.91646">
        <ele>150.4</ele>
        <time>2026-03-29T11:12:51Z</time>
      </trkpt>
      <trkpt lat="48.61385" lon="1.91648">
        <ele>150.4</ele>
        <time>2026-03-29T11:12:52Z</time>
      </trkpt>
      <trkpt lat="48.61384" lon="1.9165">
        <ele>150.4</ele>
        <time>2026-03-29T11:12:53Z</time>
      </trkpt>
      <trkpt lat="48.61382" lon="1.91651">
        <ele>151</ele>
        <time>2026-03-29T11:12:54Z</time>
      </trkpt>
      <trkpt lat="48.6138" lon="1.91653">
        <ele>151</ele>
        <time>2026-03-29T11:12:55Z</time>
      </trkpt>
      <trkpt lat="48.61379" lon="1.91655">
        <ele>151</ele>
        <time>2026-03-29T11:12:56Z</time>
      </trkpt>
      <trkpt lat="48.61377" lon="1.91656">
        <ele>151</ele>
        <time>2026-03-29T11:12:57Z</time>
      </trkpt>
      <trkpt lat="48.61375" lon="1.91658">
        <ele>151.6</ele>
        <time>2026-03-29T11:12:58Z</time>
      </trkpt>
      <trkpt lat="48.61374" lon="1.91659">
        <ele>151.6</ele>
        <time>2026-03-29T11:12:59Z</time>
      </trkpt>
      <trkpt lat="48.61372" lon="1.91661">
        <ele>151.6</ele>
        <time>2026-03-29T11:13:00Z</time>
      </trkpt>
      <trkpt lat="48.6137" lon="1.91661">
        <ele>151.6</ele>
        <time>2026-03-29T11:13:01Z</time>
      </trkpt>
      <trkpt lat="48.61369" lon="1.91663">
        <ele>153</ele>
        <time>2026-03-29T11:13:02Z</time>
      </trkpt>
      <trkpt lat="48.61367" lon="1.91665">
        <ele>153</ele>
        <time>2026-03-29T11:13:03Z</time>
      </trkpt>
      <trkpt lat="48.61366" lon="1.91667">
        <ele>153</ele>
        <time>2026-03-29T11:13:04Z</time>
      </trkpt>
      <trkpt lat="48.61365" lon="1.91668">
        <ele>154</ele>
        <time>2026-03-29T11:13:05Z</time>
      </trkpt>
      <trkpt lat="48.61363" lon="1.9167">
        <ele>154.8</ele>
        <time>2026-03-29T11:13:06Z</time>
      </trkpt>
      <trkpt lat="48.61361" lon="1.91672">
        <ele>154.8</ele>
        <time>2026-03-29T11:13:07Z</time>
      </trkpt>
      <trkpt lat="48.6136" lon="1.91675">
        <ele>154.8</ele>
        <time>2026-03-29T11:13:08Z</time>
      </trkpt>
      <trkpt lat="48.61359" lon="1.91677">
        <ele>154.8</ele>
        <time>2026-03-29T11:13:09Z</time>
      </trkpt>
      <trkpt lat="48.61358" lon="1.91678">
        <ele>155.2</ele>
        <time>2026-03-29T11:13:10Z</time>
      </trkpt>
      <trkpt lat="48.61356" lon="1.9168">
        <ele>155.2</ele>
        <time>2026-03-29T11:13:11Z</time>
      </trkpt>
      <trkpt lat="48.61355" lon="1.91682">
        <ele>155.2</ele>
        <time>2026-03-29T11:13:12Z</time>
      </trkpt>
      <trkpt lat="48.61354" lon="1.91683">
        <ele>155.6</ele>
        <time>2026-03-29T11:13:13Z</time>
      </trkpt>
      <trkpt lat="48.61353" lon="1.91685">
        <ele>155.6</ele>
        <time>2026-03-29T11:13:14Z</time>
      </trkpt>
      <trkpt lat="48.61352" lon="1.91687">
        <ele>155.6</ele>
        <time>2026-03-29T11:13:15Z</time>
      </trkpt>
      <trkpt lat="48.6135" lon="1.91689">
        <ele>155.6</ele>
        <time>2026-03-29T11:13:16Z</time>
      </trkpt>
      <trkpt lat="48.61348" lon="1.91692">
        <ele>156.4</ele>
        <time>2026-03-29T11:13:17Z</time>
      </trkpt>
      <trkpt lat="48.61347" lon="1.91694">
        <ele>156.2</ele>
        <time>2026-03-29T11:13:18Z</time>
      </trkpt>
      <trkpt lat="48.61346" lon="1.91696">
        <ele>156.2</ele>
        <time>2026-03-29T11:13:19Z</time>
      </trkpt>
      <trkpt lat="48.61344" lon="1.91699">
        <ele>156.2</ele>
        <time>2026-03-29T11:13:20Z</time>
      </trkpt>
      <trkpt lat="48.61343" lon="1.91701">
        <ele>156.2</ele>
        <time>2026-03-29T11:13:21Z</time>
      </trkpt>
      <trkpt lat="48.61341" lon="1.91703">
        <ele>156.6</ele>
        <time>2026-03-29T11:13:22Z</time>
      </trkpt>
      <trkpt lat="48.6134" lon="1.91704">
        <ele>156.6</ele>
        <time>2026-03-29T11:13:23Z</time>
      </trkpt>
      <trkpt lat="48.61338" lon="1.91707">
        <ele>156.6</ele>
        <time>2026-03-29T11:13:24Z</time>
      </trkpt>
      <trkpt lat="48.61336" lon="1.91709">
        <ele>156.6</ele>
        <time>2026-03-29T11:13:25Z</time>
      </trkpt>
      <trkpt lat="48.61334" lon="1.91712">
        <ele>157.8</ele>
        <time>2026-03-29T11:13:26Z</time>
      </trkpt>
      <trkpt lat="48.61334" lon="1.91714">
        <ele>157.8</ele>
        <time>2026-03-29T11:13:27Z</time>
      </trkpt>
      <trkpt lat="48.61333" lon="1.91717">
        <ele>157.8</ele>
        <time>2026-03-29T11:13:28Z</time>
      </trkpt>
      <trkpt lat="48.61332" lon="1.91719">
        <ele>157.8</ele>
        <time>2026-03-29T11:13:29Z</time>
      </trkpt>
      <trkpt lat="48.61331" lon="1.91721">
        <ele>158.2</ele>
        <time>2026-03-29T11:13:30Z</time>
      </trkpt>
      <trkpt lat="48.6133" lon="1.91724">
        <ele>158.2</ele>
        <time>2026-03-29T11:13:31Z</time>
      </trkpt>
      <trkpt lat="48.6133" lon="1.91726">
        <ele>158.2</ele>
        <time>2026-03-29T11:13:32Z</time>
      </trkpt>
      <trkpt lat="48.61328" lon="1.91728">
        <ele>158.6</ele>
        <time>2026-03-29T11:13:33Z</time>
      </trkpt>
      <trkpt lat="48.61328" lon="1.91731">
        <ele>158.6</ele>
        <time>2026-03-29T11:13:34Z</time>
      </trkpt>
      <trkpt lat="48.61327" lon="1.91733">
        <ele>158.6</ele>
        <time>2026-03-29T11:13:35Z</time>
      </trkpt>
      <trkpt lat="48.61326" lon="1.91735">
        <ele>158.6</ele>
        <time>2026-03-29T11:13:36Z</time>
      </trkpt>
      <trkpt lat="48.61326" lon="1.91737">
        <ele>159.4</ele>
        <time>2026-03-29T11:13:37Z</time>
      </trkpt>
      <trkpt lat="48.61325" lon="1.91739">
        <ele>159.2</ele>
        <time>2026-03-29T11:13:38Z</time>
      </trkpt>
      <trkpt lat="48.61324" lon="1.91742">
        <ele>159.2</ele>
        <time>2026-03-29T11:13:39Z</time>
      </trkpt>
      <trkpt lat="48.61324" lon="1.91745">
        <ele>159.2</ele>
        <time>2026-03-29T11:13:40Z</time>
      </trkpt>
      <trkpt lat="48.61324" lon="1.91748">
        <ele>159.8</ele>
        <time>2026-03-29T11:13:41Z</time>
      </trkpt>
      <trkpt lat="48.61323" lon="1.91751">
        <ele>160.2</ele>
        <time>2026-03-29T11:13:42Z</time>
      </trkpt>
      <trkpt lat="48.61322" lon="1.91754">
        <ele>160.2</ele>
        <time>2026-03-29T11:13:43Z</time>
      </trkpt>
      <trkpt lat="48.61321" lon="1.91757">
        <ele>160.2</ele>
        <time>2026-03-29T11:13:44Z</time>
      </trkpt>
      <trkpt lat="48.61321" lon="1.91759">
        <ele>160.8</ele>
        <time>2026-03-29T11:13:45Z</time>
      </trkpt>
      <trkpt lat="48.6132" lon="1.91761">
        <ele>161.2</ele>
        <time>2026-03-29T11:13:46Z</time>
      </trkpt>
      <trkpt lat="48.6132" lon="1.91764">
        <ele>161.2</ele>
        <time>2026-03-29T11:13:47Z</time>
      </trkpt>
      <trkpt lat="48.61319" lon="1.91768">
        <ele>161.2</ele>
        <time>2026-03-29T11:13:48Z</time>
      </trkpt>
      <trkpt lat="48.61318" lon="1.91771">
        <ele>161.2</ele>
        <time>2026-03-29T11:13:49Z</time>
      </trkpt>
      <trkpt lat="48.61317" lon="1.91774">
        <ele>161.6</ele>
        <time>2026-03-29T11:13:50Z</time>
      </trkpt>
      <trkpt lat="48.61316" lon="1.91777">
        <ele>161.6</ele>
        <time>2026-03-29T11:13:51Z</time>
      </trkpt>
      <trkpt lat="48.61315" lon="1.91779">
        <ele>161.6</ele>
        <time>2026-03-29T11:13:52Z</time>
      </trkpt>
      <trkpt lat="48.61314" lon="1.91782">
        <ele>161.8</ele>
        <time>2026-03-29T11:13:53Z</time>
      </trkpt>
      <trkpt lat="48.61314" lon="1.91784">
        <ele>161.8</ele>
        <time>2026-03-29T11:13:54Z</time>
      </trkpt>
      <trkpt lat="48.61313" lon="1.91787">
        <ele>161.8</ele>
        <time>2026-03-29T11:13:55Z</time>
      </trkpt>
      <trkpt lat="48.61313" lon="1.9179">
        <ele>161.8</ele>
        <time>2026-03-29T11:13:56Z</time>
      </trkpt>
      <trkpt lat="48.61312" lon="1.91793">
        <ele>161.8</ele>
        <time>2026-03-29T11:13:57Z</time>
      </trkpt>
      <trkpt lat="48.61312" lon="1.91795">
        <ele>162.6</ele>
        <time>2026-03-29T11:13:58Z</time>
      </trkpt>
      <trkpt lat="48.61312" lon="1.91797">
        <ele>162.6</ele>
        <time>2026-03-29T11:13:59Z</time>
      </trkpt>
      <trkpt lat="48.61311" lon="1.918">
        <ele>162.6</ele>
        <time>2026-03-29T11:14:00Z</time>
      </trkpt>
      <trkpt lat="48.61311" lon="1.91803">
        <ele>162.6</ele>
        <time>2026-03-29T11:14:01Z</time>
      </trkpt>
      <trkpt lat="48.6131" lon="1.91806">
        <ele>162.8</ele>
        <time>2026-03-29T11:14:02Z</time>
      </trkpt>
      <trkpt lat="48.6131" lon="1.91809">
        <ele>162.8</ele>
        <time>2026-03-29T11:14:03Z</time>
      </trkpt>
      <trkpt lat="48.61309" lon="1.91812">
        <ele>162.8</ele>
        <time>2026-03-29T11:14:04Z</time>
      </trkpt>
      <trkpt lat="48.61308" lon="1.91814">
        <ele>163</ele>
        <time>2026-03-29T11:14:05Z</time>
      </trkpt>
      <trkpt lat="48.61308" lon="1.91818">
        <ele>163</ele>
        <time>2026-03-29T11:14:06Z</time>
      </trkpt>
      <trkpt lat="48.61307" lon="1.91821">
        <ele>163</ele>
        <time>2026-03-29T11:14:07Z</time>
      </trkpt>
      <trkpt lat="48.61306" lon="1.91823">
        <ele>163</ele>
        <time>2026-03-29T11:14:08Z</time>
      </trkpt>
      <trkpt lat="48.61306" lon="1.91826">
        <ele>163</ele>
        <time>2026-03-29T11:14:09Z</time>
      </trkpt>
      <trkpt lat="48.61305" lon="1.91829">
        <ele>163.4</ele>
        <time>2026-03-29T11:14:10Z</time>
      </trkpt>
      <trkpt lat="48.61305" lon="1.91832">
        <ele>163.4</ele>
        <time>2026-03-29T11:14:11Z</time>
      </trkpt>
      <trkpt lat="48.61304" lon="1.91834">
        <ele>163.4</ele>
        <time>2026-03-29T11:14:12Z</time>
      </trkpt>
      <trkpt lat="48.61303" lon="1.91837">
        <ele>163.4</ele>
        <time>2026-03-29T11:14:13Z</time>
      </trkpt>
      <trkpt lat="48.61302" lon="1.9184">
        <ele>163.6</ele>
        <time>2026-03-29T11:14:14Z</time>
      </trkpt>
      <trkpt lat="48.61302" lon="1.91842">
        <ele>163.6</ele>
        <time>2026-03-29T11:14:15Z</time>
      </trkpt>
      <trkpt lat="48.61301" lon="1.91844">
        <ele>163.6</ele>
        <time>2026-03-29T11:14:16Z</time>
      </trkpt>
      <trkpt lat="48.613" lon="1.91847">
        <ele>163.6</ele>
        <time>2026-03-29T11:14:17Z</time>
      </trkpt>
      <trkpt lat="48.61299" lon="1.9185">
        <ele>164</ele>
        <time>2026-03-29T11:14:18Z</time>
      </trkpt>
      <trkpt lat="48.61298" lon="1.91853">
        <ele>164</ele>
        <time>2026-03-29T11:14:19Z</time>
      </trkpt>
      <trkpt lat="48.61297" lon="1.91856">
        <ele>164</ele>
        <time>2026-03-29T11:14:20Z</time>
      </trkpt>
      <trkpt lat="48.61296" lon="1.91859">
        <ele>164.4</ele>
        <time>2026-03-29T11:14:21Z</time>
      </trkpt>
      <trkpt lat="48.61294" lon="1.91862">
        <ele>164.4</ele>
        <time>2026-03-29T11:14:22Z</time>
      </trkpt>
      <trkpt lat="48.61293" lon="1.91865">
        <ele>164.4</ele>
        <time>2026-03-29T11:14:23Z</time>
      </trkpt>
      <trkpt lat="48.61292" lon="1.91868">
        <ele>164.4</ele>
        <time>2026-03-29T11:14:24Z</time>
      </trkpt>
      <trkpt lat="48.61291" lon="1.91871">
        <ele>164.4</ele>
        <time>2026-03-29T11:14:25Z</time>
      </trkpt>
      <trkpt lat="48.61289" lon="1.91875">
        <ele>163.8</ele>
        <time>2026-03-29T11:14:26Z</time>
      </trkpt>
      <trkpt lat="48.61287" lon="1.91879">
        <ele>163.8</ele>
        <time>2026-03-29T11:14:27Z</time>
      </trkpt>
      <trkpt lat="48.61286" lon="1.91882">
        <ele>163.8</ele>
        <time>2026-03-29T11:14:28Z</time>
      </trkpt>
      <trkpt lat="48.61285" lon="1.91885">
        <ele>163.8</ele>
        <time>2026-03-29T11:14:29Z</time>
      </trkpt>
      <trkpt lat="48.61282" lon="1.9189">
        <ele>164</ele>
        <time>2026-03-29T11:14:30Z</time>
      </trkpt>
      <trkpt lat="48.61281" lon="1.91895">
        <ele>164</ele>
        <time>2026-03-29T11:14:31Z</time>
      </trkpt>
      <trkpt lat="48.61278" lon="1.91899">
        <ele>164</ele>
        <time>2026-03-29T11:14:32Z</time>
      </trkpt>
      <trkpt lat="48.61277" lon="1.91903">
        <ele>164</ele>
        <time>2026-03-29T11:14:33Z</time>
      </trkpt>
      <trkpt lat="48.61276" lon="1.91907">
        <ele>164.6</ele>
        <time>2026-03-29T11:14:34Z</time>
      </trkpt>
      <trkpt lat="48.61275" lon="1.9191">
        <ele>164.6</ele>
        <time>2026-03-29T11:14:35Z</time>
      </trkpt>
      <trkpt lat="48.61273" lon="1.91913">
        <ele>164.6</ele>
        <time>2026-03-29T11:14:36Z</time>
      </trkpt>
      <trkpt lat="48.61272" lon="1.91916">
        <ele>164.6</ele>
        <time>2026-03-29T11:14:37Z</time>
      </trkpt>
      <trkpt lat="48.61271" lon="1.91919">
        <ele>164.4</ele>
        <time>2026-03-29T11:14:38Z</time>
      </trkpt>
      <trkpt lat="48.61269" lon="1.91923">
        <ele>164.4</ele>
        <time>2026-03-29T11:14:39Z</time>
      </trkpt>
      <trkpt lat="48.61267" lon="1.91926">
        <ele>164.4</ele>
        <time>2026-03-29T11:14:40Z</time>
      </trkpt>
      <trkpt lat="48.61266" lon="1.9193">
        <ele>164.4</ele>
        <time>2026-03-29T11:14:41Z</time>
      </trkpt>
      <trkpt lat="48.61264" lon="1.91933">
        <ele>164.6</ele>
        <time>2026-03-29T11:14:42Z</time>
      </trkpt>
      <trkpt lat="48.61262" lon="1.91935">
        <ele>164.6</ele>
        <time>2026-03-29T11:14:43Z</time>
      </trkpt>
      <trkpt lat="48.61261" lon="1.91937">
        <ele>164.6</ele>
        <time>2026-03-29T11:14:44Z</time>
      </trkpt>
      <trkpt lat="48.61259" lon="1.91941">
        <ele>164.6</ele>
        <time>2026-03-29T11:14:45Z</time>
      </trkpt>
      <trkpt lat="48.61257" lon="1.91945">
        <ele>164.2</ele>
        <time>2026-03-29T11:14:46Z</time>
      </trkpt>
      <trkpt lat="48.61255" lon="1.9195">
        <ele>164.2</ele>
        <time>2026-03-29T11:14:47Z</time>
      </trkpt>
      <trkpt lat="48.61253" lon="1.91955">
        <ele>164.2</ele>
        <time>2026-03-29T11:14:48Z</time>
      </trkpt>
      <trkpt lat="48.61252" lon="1.91959">
        <ele>164.2</ele>
        <time>2026-03-29T11:14:49Z</time>
      </trkpt>
      <trkpt lat="48.61249" lon="1.91965">
        <ele>163.2</ele>
        <time>2026-03-29T11:14:50Z</time>
      </trkpt>
      <trkpt lat="48.61246" lon="1.9197">
        <ele>163.2</ele>
        <time>2026-03-29T11:14:51Z</time>
      </trkpt>
      <trkpt lat="48.61243" lon="1.91975">
        <ele>163.2</ele>
        <time>2026-03-29T11:14:52Z</time>
      </trkpt>
      <trkpt lat="48.6124" lon="1.91982">
        <ele>163.2</ele>
        <time>2026-03-29T11:14:53Z</time>
      </trkpt>
      <trkpt lat="48.61237" lon="1.91989">
        <ele>161.6</ele>
        <time>2026-03-29T11:14:54Z</time>
      </trkpt>
      <trkpt lat="48.61234" lon="1.91997">
        <ele>161.6</ele>
        <time>2026-03-29T11:14:55Z</time>
      </trkpt>
      <trkpt lat="48.6123" lon="1.92004">
        <ele>161.6</ele>
        <time>2026-03-29T11:14:56Z</time>
      </trkpt>
      <trkpt lat="48.61227" lon="1.92009">
        <ele>160.6</ele>
        <time>2026-03-29T11:14:57Z</time>
      </trkpt>
      <trkpt lat="48.61225" lon="1.92014">
        <ele>159.2</ele>
        <time>2026-03-29T11:14:58Z</time>
      </trkpt>
      <trkpt lat="48.61222" lon="1.92018">
        <ele>159.2</ele>
        <time>2026-03-29T11:14:59Z</time>
      </trkpt>
      <trkpt lat="48.6122" lon="1.9202">
        <ele>159.2</ele>
        <time>2026-03-29T11:15:00Z</time>
      </trkpt>
      <trkpt lat="48.61217" lon="1.92021">
        <ele>158.8</ele>
        <time>2026-03-29T11:15:01Z</time>
      </trkpt>
      <trkpt lat="48.61213" lon="1.92023">
        <ele>158.2</ele>
        <time>2026-03-29T11:15:02Z</time>
      </trkpt>
      <trkpt lat="48.6121" lon="1.92022">
        <ele>158.2</ele>
        <time>2026-03-29T11:15:03Z</time>
      </trkpt>
      <trkpt lat="48.61206" lon="1.92023">
        <ele>158.2</ele>
        <time>2026-03-29T11:15:04Z</time>
      </trkpt>
      <trkpt lat="48.61202" lon="1.92024">
        <ele>158.2</ele>
        <time>2026-03-29T11:15:05Z</time>
      </trkpt>
      <trkpt lat="48.61197" lon="1.92025">
        <ele>156.8</ele>
        <time>2026-03-29T11:15:06Z</time>
      </trkpt>
      <trkpt lat="48.61192" lon="1.92025">
        <ele>156.8</ele>
        <time>2026-03-29T11:15:07Z</time>
      </trkpt>
      <trkpt lat="48.61187" lon="1.92025">
        <ele>156.8</ele>
        <time>2026-03-29T11:15:08Z</time>
      </trkpt>
      <trkpt lat="48.61182" lon="1.92025">
        <ele>156.2</ele>
        <time>2026-03-29T11:15:09Z</time>
      </trkpt>
      <trkpt lat="48.61176" lon="1.92025">
        <ele>155.4</ele>
        <time>2026-03-29T11:15:10Z</time>
      </trkpt>
      <trkpt lat="48.61171" lon="1.92025">
        <ele>155.4</ele>
        <time>2026-03-29T11:15:11Z</time>
      </trkpt>
      <trkpt lat="48.61164" lon="1.92024">
        <ele>155.4</ele>
        <time>2026-03-29T11:15:12Z</time>
      </trkpt>
      <trkpt lat="48.61158" lon="1.92023">
        <ele>154.4</ele>
        <time>2026-03-29T11:15:13Z</time>
      </trkpt>
      <trkpt lat="48.61152" lon="1.92021">
        <ele>153.6</ele>
        <time>2026-03-29T11:15:14Z</time>
      </trkpt>
      <trkpt lat="48.61148" lon="1.92018">
        <ele>153.6</ele>
        <time>2026-03-29T11:15:15Z</time>
      </trkpt>
      <trkpt lat="48.61142" lon="1.92016">
        <ele>153.6</ele>
        <time>2026-03-29T11:15:16Z</time>
      </trkpt>
      <trkpt lat="48.61137" lon="1.92013">
        <ele>152.8</ele>
        <time>2026-03-29T11:15:17Z</time>
      </trkpt>
      <trkpt lat="48.61132" lon="1.92011">
        <ele>152.2</ele>
        <time>2026-03-29T11:15:18Z</time>
      </trkpt>
      <trkpt lat="48.61127" lon="1.92009">
        <ele>152.2</ele>
        <time>2026-03-29T11:15:19Z</time>
      </trkpt>
      <trkpt lat="48.61121" lon="1.92006">
        <ele>152.2</ele>
        <time>2026-03-29T11:15:20Z</time>
      </trkpt>
      <trkpt lat="48.61116" lon="1.92002">
        <ele>151.2</ele>
        <time>2026-03-29T11:15:21Z</time>
      </trkpt>
      <trkpt lat="48.6111" lon="1.92">
        <ele>150.6</ele>
        <time>2026-03-29T11:15:22Z</time>
      </trkpt>
      <trkpt lat="48.61105" lon="1.91997">
        <ele>150.6</ele>
        <time>2026-03-29T11:15:23Z</time>
      </trkpt>
      <trkpt lat="48.611" lon="1.91994">
        <ele>150.6</ele>
        <time>2026-03-29T11:15:24Z</time>
      </trkpt>
      <trkpt lat="48.61094" lon="1.91992">
        <ele>150.6</ele>
        <time>2026-03-29T11:15:25Z</time>
      </trkpt>
      <trkpt lat="48.61088" lon="1.91989">
        <ele>149</ele>
        <time>2026-03-29T11:15:26Z</time>
      </trkpt>
      <trkpt lat="48.61083" lon="1.91986">
        <ele>149</ele>
        <time>2026-03-29T11:15:27Z</time>
      </trkpt>
      <trkpt lat="48.61078" lon="1.91981">
        <ele>149</ele>
        <time>2026-03-29T11:15:28Z</time>
      </trkpt>
      <trkpt lat="48.61071" lon="1.91979">
        <ele>148</ele>
        <time>2026-03-29T11:15:29Z</time>
      </trkpt>
      <trkpt lat="48.61066" lon="1.91975">
        <ele>148</ele>
        <time>2026-03-29T11:15:30Z</time>
      </trkpt>
      <trkpt lat="48.61062" lon="1.91972">
        <ele>148</ele>
        <time>2026-03-29T11:15:31Z</time>
      </trkpt>
      <trkpt lat="48.61055" lon="1.91968">
        <ele>148</ele>
        <time>2026-03-29T11:15:32Z</time>
      </trkpt>
      <trkpt lat="48.61048" lon="1.91964">
        <ele>147</ele>
        <time>2026-03-29T11:15:33Z</time>
      </trkpt>
      <trkpt lat="48.61044" lon="1.91961">
        <ele>146</ele>
        <time>2026-03-29T11:15:34Z</time>
      </trkpt>
      <trkpt lat="48.61039" lon="1.91958">
        <ele>146</ele>
        <time>2026-03-29T11:15:35Z</time>
      </trkpt>
      <trkpt lat="48.61033" lon="1.91955">
        <ele>146</ele>
        <time>2026-03-29T11:15:36Z</time>
      </trkpt>
      <trkpt lat="48.61027" lon="1.91952">
        <ele>145.2</ele>
        <time>2026-03-29T11:15:37Z</time>
      </trkpt>
      <trkpt lat="48.61022" lon="1.91948">
        <ele>145.6</ele>
        <time>2026-03-29T11:15:38Z</time>
      </trkpt>
      <trkpt lat="48.61016" lon="1.91945">
        <ele>145.6</ele>
        <time>2026-03-29T11:15:39Z</time>
      </trkpt>
      <trkpt lat="48.61011" lon="1.91943">
        <ele>145.6</ele>
        <time>2026-03-29T11:15:40Z</time>
      </trkpt>
      <trkpt lat="48.61006" lon="1.91941">
        <ele>144.6</ele>
        <time>2026-03-29T11:15:41Z</time>
      </trkpt>
      <trkpt lat="48.61001" lon="1.91938">
        <ele>144</ele>
        <time>2026-03-29T11:15:42Z</time>
      </trkpt>
      <trkpt lat="48.60995" lon="1.91934">
        <ele>144</ele>
        <time>2026-03-29T11:15:43Z</time>
      </trkpt>
      <trkpt lat="48.6099" lon="1.9193">
        <ele>144</ele>
        <time>2026-03-29T11:15:44Z</time>
      </trkpt>
      <trkpt lat="48.60985" lon="1.91926">
        <ele>144</ele>
        <time>2026-03-29T11:15:45Z</time>
      </trkpt>
      <trkpt lat="48.60979" lon="1.9192">
        <ele>143.4</ele>
        <time>2026-03-29T11:15:46Z</time>
      </trkpt>
      <trkpt lat="48.60975" lon="1.91915">
        <ele>143.4</ele>
        <time>2026-03-29T11:15:47Z</time>
      </trkpt>
      <trkpt lat="48.60972" lon="1.91911">
        <ele>143.4</ele>
        <time>2026-03-29T11:15:48Z</time>
      </trkpt>
      <trkpt lat="48.60968" lon="1.91908">
        <ele>143</ele>
        <time>2026-03-29T11:15:49Z</time>
      </trkpt>
      <trkpt lat="48.60963" lon="1.91905">
        <ele>142.4</ele>
        <time>2026-03-29T11:15:50Z</time>
      </trkpt>
      <trkpt lat="48.60961" lon="1.91904">
        <ele>142.4</ele>
        <time>2026-03-29T11:15:51Z</time>
      </trkpt>
      <trkpt lat="48.60958" lon="1.91904">
        <ele>142.4</ele>
        <time>2026-03-29T11:15:52Z</time>
      </trkpt>
      <trkpt lat="48.60955" lon="1.91903">
        <ele>142.2</ele>
        <time>2026-03-29T11:15:53Z</time>
      </trkpt>
      <trkpt lat="48.60952" lon="1.91903">
        <ele>142.2</ele>
        <time>2026-03-29T11:15:54Z</time>
      </trkpt>
      <trkpt lat="48.60949" lon="1.91902">
        <ele>142.2</ele>
        <time>2026-03-29T11:15:55Z</time>
      </trkpt>
      <trkpt lat="48.60947" lon="1.91899">
        <ele>142.2</ele>
        <time>2026-03-29T11:15:56Z</time>
      </trkpt>
      <trkpt lat="48.60946" lon="1.91896">
        <ele>142.4</ele>
        <time>2026-03-29T11:15:57Z</time>
      </trkpt>
      <trkpt lat="48.60946" lon="1.91893">
        <ele>142</ele>
        <time>2026-03-29T11:15:58Z</time>
      </trkpt>
      <trkpt lat="48.60944" lon="1.91889">
        <ele>142</ele>
        <time>2026-03-29T11:15:59Z</time>
      </trkpt>
      <trkpt lat="48.60942" lon="1.91886">
        <ele>142</ele>
        <time>2026-03-29T11:16:00Z</time>
      </trkpt>
      <trkpt lat="48.6094" lon="1.91882">
        <ele>142</ele>
        <time>2026-03-29T11:16:01Z</time>
      </trkpt>
      <trkpt lat="48.60938" lon="1.91877">
        <ele>141</ele>
        <time>2026-03-29T11:16:02Z</time>
      </trkpt>
      <trkpt lat="48.60937" lon="1.91873">
        <ele>141</ele>
        <time>2026-03-29T11:16:03Z</time>
      </trkpt>
      <trkpt lat="48.60934" lon="1.91869">
        <ele>141</ele>
        <time>2026-03-29T11:16:04Z</time>
      </trkpt>
      <trkpt lat="48.60932" lon="1.91865">
        <ele>140</ele>
        <time>2026-03-29T11:16:05Z</time>
      </trkpt>
      <trkpt lat="48.60928" lon="1.9186">
        <ele>139.8</ele>
        <time>2026-03-29T11:16:06Z</time>
      </trkpt>
      <trkpt lat="48.60925" lon="1.91856">
        <ele>139.8</ele>
        <time>2026-03-29T11:16:07Z</time>
      </trkpt>
      <trkpt lat="48.60922" lon="1.91851">
        <ele>139.8</ele>
        <time>2026-03-29T11:16:08Z</time>
      </trkpt>
      <trkpt lat="48.6092" lon="1.91849">
        <ele>138.8</ele>
        <time>2026-03-29T11:16:09Z</time>
      </trkpt>
      <trkpt lat="48.60919" lon="1.91847">
        <ele>138.4</ele>
        <time>2026-03-29T11:16:10Z</time>
      </trkpt>
      <trkpt lat="48.60917" lon="1.91844">
        <ele>138.4</ele>
        <time>2026-03-29T11:16:11Z</time>
      </trkpt>
      <trkpt lat="48.60915" lon="1.91842">
        <ele>138.4</ele>
        <time>2026-03-29T11:16:12Z</time>
      </trkpt>
      <trkpt lat="48.60912" lon="1.9184">
        <ele>138.4</ele>
        <time>2026-03-29T11:16:13Z</time>
      </trkpt>
      <trkpt lat="48.60909" lon="1.91837">
        <ele>137.8</ele>
        <time>2026-03-29T11:16:14Z</time>
      </trkpt>
      <trkpt lat="48.60906" lon="1.91832">
        <ele>137.8</ele>
        <time>2026-03-29T11:16:15Z</time>
      </trkpt>
      <trkpt lat="48.60903" lon="1.91827">
        <ele>137.8</ele>
        <time>2026-03-29T11:16:16Z</time>
      </trkpt>
      <trkpt lat="48.60899" lon="1.91821">
        <ele>136.8</ele>
        <time>2026-03-29T11:16:17Z</time>
      </trkpt>
      <trkpt lat="48.60894" lon="1.91815">
        <ele>136.8</ele>
        <time>2026-03-29T11:16:18Z</time>
      </trkpt>
      <trkpt lat="48.6089" lon="1.91809">
        <ele>136.8</ele>
        <time>2026-03-29T11:16:19Z</time>
      </trkpt>
      <trkpt lat="48.60886" lon="1.91803">
        <ele>136.8</ele>
        <time>2026-03-29T11:16:20Z</time>
      </trkpt>
      <trkpt lat="48.60881" lon="1.91796">
        <ele>136.8</ele>
        <time>2026-03-29T11:16:21Z</time>
      </trkpt>
      <trkpt lat="48.60877" lon="1.9179">
        <ele>136.2</ele>
        <time>2026-03-29T11:16:22Z</time>
      </trkpt>
      <trkpt lat="48.60872" lon="1.91784">
        <ele>136.2</ele>
        <time>2026-03-29T11:16:23Z</time>
      </trkpt>
      <trkpt lat="48.60867" lon="1.91778">
        <ele>136.2</ele>
        <time>2026-03-29T11:16:24Z</time>
      </trkpt>
      <trkpt lat="48.60863" lon="1.91772">
        <ele>135.8</ele>
        <time>2026-03-29T11:16:25Z</time>
      </trkpt>
      <trkpt lat="48.60859" lon="1.91766">
        <ele>135</ele>
        <time>2026-03-29T11:16:26Z</time>
      </trkpt>
      <trkpt lat="48.60855" lon="1.91759">
        <ele>135</ele>
        <time>2026-03-29T11:16:27Z</time>
      </trkpt>
      <trkpt lat="48.60852" lon="1.91752">
        <ele>135</ele>
        <time>2026-03-29T11:16:28Z</time>
      </trkpt>
      <trkpt lat="48.60848" lon="1.91745">
        <ele>135.2</ele>
        <time>2026-03-29T11:16:29Z</time>
      </trkpt>
      <trkpt lat="48.60845" lon="1.91738">
        <ele>135</ele>
        <time>2026-03-29T11:16:30Z</time>
      </trkpt>
      <trkpt lat="48.60841" lon="1.91731">
        <ele>135</ele>
        <time>2026-03-29T11:16:31Z</time>
      </trkpt>
      <trkpt lat="48.60837" lon="1.91724">
        <ele>135</ele>
        <time>2026-03-29T11:16:32Z</time>
      </trkpt>
      <trkpt lat="48.60834" lon="1.91719">
        <ele>135</ele>
        <time>2026-03-29T11:16:33Z</time>
      </trkpt>
      <trkpt lat="48.6083" lon="1.91714">
        <ele>134.6</ele>
        <time>2026-03-29T11:16:34Z</time>
      </trkpt>
      <trkpt lat="48.60827" lon="1.91709">
        <ele>134.6</ele>
        <time>2026-03-29T11:16:35Z</time>
      </trkpt>
      <trkpt lat="48.60823" lon="1.91704">
        <ele>134.6</ele>
        <time>2026-03-29T11:16:36Z</time>
      </trkpt>
      <trkpt lat="48.6082" lon="1.91699">
        <ele>134.6</ele>
        <time>2026-03-29T11:16:37Z</time>
      </trkpt>
      <trkpt lat="48.60817" lon="1.91694">
        <ele>134.6</ele>
        <time>2026-03-29T11:16:38Z</time>
      </trkpt>
      <trkpt lat="48.60815" lon="1.9169">
        <ele>134.6</ele>
        <time>2026-03-29T11:16:39Z</time>
      </trkpt>
      <trkpt lat="48.60812" lon="1.91686">
        <ele>134.6</ele>
        <time>2026-03-29T11:16:40Z</time>
      </trkpt>
      <trkpt lat="48.60809" lon="1.91685">
        <ele>134.6</ele>
        <time>2026-03-29T11:16:41Z</time>
      </trkpt>
      <trkpt lat="48.60805" lon="1.91686">
        <ele>134.2</ele>
        <time>2026-03-29T11:16:42Z</time>
      </trkpt>
      <trkpt lat="48.60802" lon="1.91689">
        <ele>134.2</ele>
        <time>2026-03-29T11:16:43Z</time>
      </trkpt>
      <trkpt lat="48.60799" lon="1.91694">
        <ele>134.2</ele>
        <time>2026-03-29T11:16:44Z</time>
      </trkpt>
      <trkpt lat="48.60796" lon="1.91697">
        <ele>133.8</ele>
        <time>2026-03-29T11:16:45Z</time>
      </trkpt>
      <trkpt lat="48.60794" lon="1.91701">
        <ele>133.8</ele>
        <time>2026-03-29T11:16:46Z</time>
      </trkpt>
      <trkpt lat="48.60791" lon="1.91705">
        <ele>133.8</ele>
        <time>2026-03-29T11:16:47Z</time>
      </trkpt>
      <trkpt lat="48.60788" lon="1.9171">
        <ele>133.8</ele>
        <time>2026-03-29T11:16:48Z</time>
      </trkpt>
      <trkpt lat="48.60786" lon="1.91715">
        <ele>133.8</ele>
        <time>2026-03-29T11:16:49Z</time>
      </trkpt>
      <trkpt lat="48.60783" lon="1.91719">
        <ele>133.2</ele>
        <time>2026-03-29T11:16:50Z</time>
      </trkpt>
      <trkpt lat="48.6078" lon="1.91725">
        <ele>133.2</ele>
        <time>2026-03-29T11:16:51Z</time>
      </trkpt>
      <trkpt lat="48.60777" lon="1.91729">
        <ele>133.2</ele>
        <time>2026-03-29T11:16:52Z</time>
      </trkpt>
      <trkpt lat="48.60774" lon="1.91733">
        <ele>133.2</ele>
        <time>2026-03-29T11:16:53Z</time>
      </trkpt>
      <trkpt lat="48.60771" lon="1.91737">
        <ele>133.2</ele>
        <time>2026-03-29T11:16:54Z</time>
      </trkpt>
      <trkpt lat="48.60768" lon="1.91742">
        <ele>133.2</ele>
        <time>2026-03-29T11:16:55Z</time>
      </trkpt>
      <trkpt lat="48.60764" lon="1.91746">
        <ele>133.2</ele>
        <time>2026-03-29T11:16:56Z</time>
      </trkpt>
      <trkpt lat="48.60761" lon="1.9175">
        <ele>132.6</ele>
        <time>2026-03-29T11:16:57Z</time>
      </trkpt>
      <trkpt lat="48.60758" lon="1.91753">
        <ele>132.8</ele>
        <time>2026-03-29T11:16:58Z</time>
      </trkpt>
      <trkpt lat="48.60755" lon="1.91757">
        <ele>132.8</ele>
        <time>2026-03-29T11:16:59Z</time>
      </trkpt>
      <trkpt lat="48.60752" lon="1.9176">
        <ele>132.8</ele>
        <time>2026-03-29T11:17:00Z</time>
      </trkpt>
      <trkpt lat="48.60747" lon="1.91763">
        <ele>132.8</ele>
        <time>2026-03-29T11:17:01Z</time>
      </trkpt>
      <trkpt lat="48.60744" lon="1.91764">
        <ele>132.4</ele>
        <time>2026-03-29T11:17:02Z</time>
      </trkpt>
      <trkpt lat="48.6074" lon="1.91765">
        <ele>132.4</ele>
        <time>2026-03-29T11:17:03Z</time>
      </trkpt>
      <trkpt lat="48.60737" lon="1.91768">
        <ele>132.4</ele>
        <time>2026-03-29T11:17:04Z</time>
      </trkpt>
      <trkpt lat="48.60734" lon="1.91769">
        <ele>132.4</ele>
        <time>2026-03-29T11:17:05Z</time>
      </trkpt>
      <trkpt lat="48.60729" lon="1.91771">
        <ele>132.8</ele>
        <time>2026-03-29T11:17:06Z</time>
      </trkpt>
      <trkpt lat="48.60725" lon="1.91773">
        <ele>132.8</ele>
        <time>2026-03-29T11:17:07Z</time>
      </trkpt>
      <trkpt lat="48.60721" lon="1.91773">
        <ele>132.8</ele>
        <time>2026-03-29T11:17:08Z</time>
      </trkpt>
      <trkpt lat="48.60718" lon="1.91773">
        <ele>132.6</ele>
        <time>2026-03-29T11:17:09Z</time>
      </trkpt>
      <trkpt lat="48.60714" lon="1.91772">
        <ele>132.2</ele>
        <time>2026-03-29T11:17:10Z</time>
      </trkpt>
      <trkpt lat="48.6071" lon="1.9177">
        <ele>132.2</ele>
        <time>2026-03-29T11:17:11Z</time>
      </trkpt>
      <trkpt lat="48.60707" lon="1.91768">
        <ele>132.2</ele>
        <time>2026-03-29T11:17:12Z</time>
      </trkpt>
      <trkpt lat="48.60705" lon="1.91768">
        <ele>132.2</ele>
        <time>2026-03-29T11:17:13Z</time>
      </trkpt>
      <trkpt lat="48.60703" lon="1.91766">
        <ele>132.4</ele>
        <time>2026-03-29T11:17:14Z</time>
      </trkpt>
      <trkpt lat="48.60699" lon="1.91765">
        <ele>132.4</ele>
        <time>2026-03-29T11:17:15Z</time>
      </trkpt>
      <trkpt lat="48.60694" lon="1.91764">
        <ele>132.4</ele>
        <time>2026-03-29T11:17:16Z</time>
      </trkpt>
      <trkpt lat="48.60691" lon="1.91763">
        <ele>132</ele>
        <time>2026-03-29T11:17:17Z</time>
      </trkpt>
      <trkpt lat="48.60687" lon="1.91762">
        <ele>132.6</ele>
        <time>2026-03-29T11:17:18Z</time>
      </trkpt>
      <trkpt lat="48.60684" lon="1.91761">
        <ele>132.6</ele>
        <time>2026-03-29T11:17:19Z</time>
      </trkpt>
      <trkpt lat="48.6068" lon="1.9176">
        <ele>132.6</ele>
        <time>2026-03-29T11:17:20Z</time>
      </trkpt>
      <trkpt lat="48.60677" lon="1.91759">
        <ele>132.6</ele>
        <time>2026-03-29T11:17:21Z</time>
      </trkpt>
      <trkpt lat="48.60674" lon="1.91759">
        <ele>132.2</ele>
        <time>2026-03-29T11:17:22Z</time>
      </trkpt>
      <trkpt lat="48.60671" lon="1.9176">
        <ele>132.2</ele>
        <time>2026-03-29T11:17:23Z</time>
      </trkpt>
      <trkpt lat="48.60667" lon="1.9176">
        <ele>132.2</ele>
        <time>2026-03-29T11:17:24Z</time>
      </trkpt>
      <trkpt lat="48.60663" lon="1.9176">
        <ele>132.4</ele>
        <time>2026-03-29T11:17:25Z</time>
      </trkpt>
      <trkpt lat="48.60658" lon="1.9176">
        <ele>132.2</ele>
        <time>2026-03-29T11:17:26Z</time>
      </trkpt>
      <trkpt lat="48.60654" lon="1.91761">
        <ele>132.2</ele>
        <time>2026-03-29T11:17:27Z</time>
      </trkpt>
      <trkpt lat="48.60649" lon="1.9176">
        <ele>132.2</ele>
        <time>2026-03-29T11:17:28Z</time>
      </trkpt>
      <trkpt lat="48.60643" lon="1.91759">
        <ele>131.8</ele>
        <time>2026-03-29T11:17:29Z</time>
      </trkpt>
      <trkpt lat="48.60639" lon="1.91757">
        <ele>132.8</ele>
        <time>2026-03-29T11:17:30Z</time>
      </trkpt>
      <trkpt lat="48.60635" lon="1.91755">
        <ele>132.8</ele>
        <time>2026-03-29T11:17:31Z</time>
      </trkpt>
      <trkpt lat="48.60632" lon="1.91753">
        <ele>132.8</ele>
        <time>2026-03-29T11:17:32Z</time>
      </trkpt>
      <trkpt lat="48.60629" lon="1.91751">
        <ele>132.6</ele>
        <time>2026-03-29T11:17:33Z</time>
      </trkpt>
      <trkpt lat="48.60625" lon="1.91748">
        <ele>132.8</ele>
        <time>2026-03-29T11:17:34Z</time>
      </trkpt>
      <trkpt lat="48.60622" lon="1.91745">
        <ele>132.8</ele>
        <time>2026-03-29T11:17:35Z</time>
      </trkpt>
      <trkpt lat="48.6062" lon="1.91742">
        <ele>132.8</ele>
        <time>2026-03-29T11:17:36Z</time>
      </trkpt>
      <trkpt lat="48.60618" lon="1.91737">
        <ele>132.4</ele>
        <time>2026-03-29T11:17:37Z</time>
      </trkpt>
      <trkpt lat="48.60615" lon="1.91734">
        <ele>132.2</ele>
        <time>2026-03-29T11:17:38Z</time>
      </trkpt>
      <trkpt lat="48.60613" lon="1.91731">
        <ele>132.2</ele>
        <time>2026-03-29T11:17:39Z</time>
      </trkpt>
      <trkpt lat="48.60611" lon="1.91728">
        <ele>132.2</ele>
        <time>2026-03-29T11:17:40Z</time>
      </trkpt>
      <trkpt lat="48.60609" lon="1.91725">
        <ele>132.8</ele>
        <time>2026-03-29T11:17:41Z</time>
      </trkpt>
      <trkpt lat="48.60607" lon="1.91722">
        <ele>132.8</ele>
        <time>2026-03-29T11:17:42Z</time>
      </trkpt>
      <trkpt lat="48.60606" lon="1.9172">
        <ele>132.8</ele>
        <time>2026-03-29T11:17:43Z</time>
      </trkpt>
      <trkpt lat="48.60604" lon="1.91716">
        <ele>132.8</ele>
        <time>2026-03-29T11:17:44Z</time>
      </trkpt>
      <trkpt lat="48.60602" lon="1.91713">
        <ele>133.4</ele>
        <time>2026-03-29T11:17:45Z</time>
      </trkpt>
      <trkpt lat="48.60599" lon="1.9171">
        <ele>133.4</ele>
        <time>2026-03-29T11:17:46Z</time>
      </trkpt>
      <trkpt lat="48.60597" lon="1.91707">
        <ele>133.4</ele>
        <time>2026-03-29T11:17:47Z</time>
      </trkpt>
      <trkpt lat="48.60594" lon="1.91704">
        <ele>133.4</ele>
        <time>2026-03-29T11:17:48Z</time>
      </trkpt>
      <trkpt lat="48.60592" lon="1.917">
        <ele>133.6</ele>
        <time>2026-03-29T11:17:49Z</time>
      </trkpt>
      <trkpt lat="48.60589" lon="1.91696">
        <ele>133.6</ele>
        <time>2026-03-29T11:17:50Z</time>
      </trkpt>
      <trkpt lat="48.60587" lon="1.91692">
        <ele>133.6</ele>
        <time>2026-03-29T11:17:51Z</time>
      </trkpt>
      <trkpt lat="48.60584" lon="1.91688">
        <ele>133.6</ele>
        <time>2026-03-29T11:17:52Z</time>
      </trkpt>
      <trkpt lat="48.60582" lon="1.91685">
        <ele>133.6</ele>
        <time>2026-03-29T11:17:53Z</time>
      </trkpt>
      <trkpt lat="48.6058" lon="1.91682">
        <ele>133.8</ele>
        <time>2026-03-29T11:17:54Z</time>
      </trkpt>
      <trkpt lat="48.60578" lon="1.91679">
        <ele>133.8</ele>
        <time>2026-03-29T11:17:55Z</time>
      </trkpt>
      <trkpt lat="48.60576" lon="1.91676">
        <ele>133.8</ele>
        <time>2026-03-29T11:17:56Z</time>
      </trkpt>
      <trkpt lat="48.60573" lon="1.91673">
        <ele>133.4</ele>
        <time>2026-03-29T11:17:57Z</time>
      </trkpt>
      <trkpt lat="48.6057" lon="1.9167">
        <ele>133</ele>
        <time>2026-03-29T11:17:58Z</time>
      </trkpt>
      <trkpt lat="48.60567" lon="1.91669">
        <ele>133</ele>
        <time>2026-03-29T11:17:59Z</time>
      </trkpt>
      <trkpt lat="48.60564" lon="1.91667">
        <ele>133</ele>
        <time>2026-03-29T11:18:00Z</time>
      </trkpt>
      <trkpt lat="48.60561" lon="1.91666">
        <ele>133</ele>
        <time>2026-03-29T11:18:01Z</time>
      </trkpt>
      <trkpt lat="48.60558" lon="1.91665">
        <ele>132.8</ele>
        <time>2026-03-29T11:18:02Z</time>
      </trkpt>
      <trkpt lat="48.60556" lon="1.91664">
        <ele>132.8</ele>
        <time>2026-03-29T11:18:03Z</time>
      </trkpt>
      <trkpt lat="48.60553" lon="1.91662">
        <ele>132.8</ele>
        <time>2026-03-29T11:18:04Z</time>
      </trkpt>
      <trkpt lat="48.60549" lon="1.91661">
        <ele>133.4</ele>
        <time>2026-03-29T11:18:05Z</time>
      </trkpt>
      <trkpt lat="48.60547" lon="1.91659">
        <ele>133.2</ele>
        <time>2026-03-29T11:18:06Z</time>
      </trkpt>
      <trkpt lat="48.60544" lon="1.91658">
        <ele>133.2</ele>
        <time>2026-03-29T11:18:07Z</time>
      </trkpt>
      <trkpt lat="48.6054" lon="1.91656">
        <ele>133.2</ele>
        <time>2026-03-29T11:18:08Z</time>
      </trkpt>
      <trkpt lat="48.60537" lon="1.91655">
        <ele>133.8</ele>
        <time>2026-03-29T11:18:09Z</time>
      </trkpt>
      <trkpt lat="48.60534" lon="1.91654">
        <ele>133.8</ele>
        <time>2026-03-29T11:18:10Z</time>
      </trkpt>
      <trkpt lat="48.6053" lon="1.91652">
        <ele>133.8</ele>
        <time>2026-03-29T11:18:11Z</time>
      </trkpt>
      <trkpt lat="48.60527" lon="1.9165">
        <ele>133.8</ele>
        <time>2026-03-29T11:18:12Z</time>
      </trkpt>
      <trkpt lat="48.60524" lon="1.91647">
        <ele>133.6</ele>
        <time>2026-03-29T11:18:13Z</time>
      </trkpt>
      <trkpt lat="48.60521" lon="1.91645">
        <ele>133.2</ele>
        <time>2026-03-29T11:18:14Z</time>
      </trkpt>
      <trkpt lat="48.60518" lon="1.91643">
        <ele>133.2</ele>
        <time>2026-03-29T11:18:15Z</time>
      </trkpt>
      <trkpt lat="48.60514" lon="1.91641">
        <ele>133.2</ele>
        <time>2026-03-29T11:18:16Z</time>
      </trkpt>
      <trkpt lat="48.6051" lon="1.91639">
        <ele>134.2</ele>
        <time>2026-03-29T11:18:17Z</time>
      </trkpt>
      <trkpt lat="48.60508" lon="1.91639">
        <ele>134.2</ele>
        <time>2026-03-29T11:18:18Z</time>
      </trkpt>
      <trkpt lat="48.60504" lon="1.91638">
        <ele>134.2</ele>
        <time>2026-03-29T11:18:19Z</time>
      </trkpt>
      <trkpt lat="48.605" lon="1.91637">
        <ele>134.2</ele>
        <time>2026-03-29T11:18:20Z</time>
      </trkpt>
      <trkpt lat="48.60497" lon="1.91637">
        <ele>134.2</ele>
        <time>2026-03-29T11:18:21Z</time>
      </trkpt>
      <trkpt lat="48.60493" lon="1.91636">
        <ele>133.8</ele>
        <time>2026-03-29T11:18:22Z</time>
      </trkpt>
      <trkpt lat="48.60489" lon="1.91635">
        <ele>133.8</ele>
        <time>2026-03-29T11:18:23Z</time>
      </trkpt>
      <trkpt lat="48.60485" lon="1.91634">
        <ele>133.8</ele>
        <time>2026-03-29T11:18:24Z</time>
      </trkpt>
      <trkpt lat="48.60481" lon="1.91635">
        <ele>133.8</ele>
        <time>2026-03-29T11:18:25Z</time>
      </trkpt>
      <trkpt lat="48.60477" lon="1.91635">
        <ele>133.6</ele>
        <time>2026-03-29T11:18:26Z</time>
      </trkpt>
      <trkpt lat="48.60473" lon="1.91636">
        <ele>133.6</ele>
        <time>2026-03-29T11:18:27Z</time>
      </trkpt>
      <trkpt lat="48.60469" lon="1.91636">
        <ele>133.6</ele>
        <time>2026-03-29T11:18:28Z</time>
      </trkpt>
      <trkpt lat="48.60466" lon="1.91637">
        <ele>133.6</ele>
        <time>2026-03-29T11:18:29Z</time>
      </trkpt>
      <trkpt lat="48.60463" lon="1.91636">
        <ele>133.4</ele>
        <time>2026-03-29T11:18:30Z</time>
      </trkpt>
      <trkpt lat="48.6046" lon="1.91636">
        <ele>133.4</ele>
        <time>2026-03-29T11:18:31Z</time>
      </trkpt>
      <trkpt lat="48.60457" lon="1.91635">
        <ele>133.4</ele>
        <time>2026-03-29T11:18:32Z</time>
      </trkpt>
      <trkpt lat="48.60454" lon="1.91634">
        <ele>133.4</ele>
        <time>2026-03-29T11:18:33Z</time>
      </trkpt>
      <trkpt lat="48.60452" lon="1.91631">
        <ele>133.8</ele>
        <time>2026-03-29T11:18:34Z</time>
      </trkpt>
      <trkpt lat="48.60449" lon="1.91628">
        <ele>133.8</ele>
        <time>2026-03-29T11:18:35Z</time>
      </trkpt>
      <trkpt lat="48.60447" lon="1.91625">
        <ele>133.8</ele>
        <time>2026-03-29T11:18:36Z</time>
      </trkpt>
      <trkpt lat="48.60443" lon="1.91622">
        <ele>133.2</ele>
        <time>2026-03-29T11:18:37Z</time>
      </trkpt>
      <trkpt lat="48.6044" lon="1.91619">
        <ele>133.2</ele>
        <time>2026-03-29T11:18:38Z</time>
      </trkpt>
      <trkpt lat="48.60437" lon="1.91616">
        <ele>133.2</ele>
        <time>2026-03-29T11:18:39Z</time>
      </trkpt>
      <trkpt lat="48.60434" lon="1.91614">
        <ele>133.2</ele>
        <time>2026-03-29T11:18:40Z</time>
      </trkpt>
      <trkpt lat="48.60431" lon="1.91611">
        <ele>133.2</ele>
        <time>2026-03-29T11:18:41Z</time>
      </trkpt>
      <trkpt lat="48.60429" lon="1.91609">
        <ele>133.6</ele>
        <time>2026-03-29T11:18:42Z</time>
      </trkpt>
      <trkpt lat="48.60426" lon="1.91607">
        <ele>133.6</ele>
        <time>2026-03-29T11:18:43Z</time>
      </trkpt>
      <trkpt lat="48.60424" lon="1.91605">
        <ele>133.6</ele>
        <time>2026-03-29T11:18:44Z</time>
      </trkpt>
      <trkpt lat="48.60421" lon="1.91603">
        <ele>133.6</ele>
        <time>2026-03-29T11:18:45Z</time>
      </trkpt>
      <trkpt lat="48.60418" lon="1.916">
        <ele>134.2</ele>
        <time>2026-03-29T11:18:46Z</time>
      </trkpt>
      <trkpt lat="48.60415" lon="1.91597">
        <ele>134.2</ele>
        <time>2026-03-29T11:18:47Z</time>
      </trkpt>
      <trkpt lat="48.60412" lon="1.91594">
        <ele>134.2</ele>
        <time>2026-03-29T11:18:48Z</time>
      </trkpt>
      <trkpt lat="48.60409" lon="1.91593">
        <ele>133.6</ele>
        <time>2026-03-29T11:18:49Z</time>
      </trkpt>
      <trkpt lat="48.60406" lon="1.9159">
        <ele>133.6</ele>
        <time>2026-03-29T11:18:50Z</time>
      </trkpt>
      <trkpt lat="48.60403" lon="1.91587">
        <ele>133.6</ele>
        <time>2026-03-29T11:18:51Z</time>
      </trkpt>
      <trkpt lat="48.60401" lon="1.91585">
        <ele>133.6</ele>
        <time>2026-03-29T11:18:52Z</time>
      </trkpt>
      <trkpt lat="48.60398" lon="1.91582">
        <ele>133.8</ele>
        <time>2026-03-29T11:18:53Z</time>
      </trkpt>
      <trkpt lat="48.60395" lon="1.91579">
        <ele>133.8</ele>
        <time>2026-03-29T11:18:54Z</time>
      </trkpt>
      <trkpt lat="48.60394" lon="1.91577">
        <ele>133.8</ele>
        <time>2026-03-29T11:18:55Z</time>
      </trkpt>
      <trkpt lat="48.60391" lon="1.91575">
        <ele>133.8</ele>
        <time>2026-03-29T11:18:56Z</time>
      </trkpt>
      <trkpt lat="48.60388" lon="1.91572">
        <ele>133.8</ele>
        <time>2026-03-29T11:18:57Z</time>
      </trkpt>
      <trkpt lat="48.60386" lon="1.9157">
        <ele>133.8</ele>
        <time>2026-03-29T11:18:58Z</time>
      </trkpt>
      <trkpt lat="48.60384" lon="1.91567">
        <ele>133.8</ele>
        <time>2026-03-29T11:18:59Z</time>
      </trkpt>
      <trkpt lat="48.60381" lon="1.91565">
        <ele>133.8</ele>
        <time>2026-03-29T11:19:00Z</time>
      </trkpt>
      <trkpt lat="48.60379" lon="1.91563">
        <ele>133.8</ele>
        <time>2026-03-29T11:19:01Z</time>
      </trkpt>
      <trkpt lat="48.60378" lon="1.91562">
        <ele>133.6</ele>
        <time>2026-03-29T11:19:02Z</time>
      </trkpt>
      <trkpt lat="48.60377" lon="1.91561">
        <ele>133.6</ele>
        <time>2026-03-29T11:19:03Z</time>
      </trkpt>
      <trkpt lat="48.60376" lon="1.91561">
        <ele>133.6</ele>
        <time>2026-03-29T11:19:04Z</time>
      </trkpt>
      <trkpt lat="48.60374" lon="1.9156">
        <ele>133.6</ele>
        <time>2026-03-29T11:19:05Z</time>
      </trkpt>
      <trkpt lat="48.60373" lon="1.9156">
        <ele>133</ele>
        <time>2026-03-29T11:19:06Z</time>
      </trkpt>
      <trkpt lat="48.60372" lon="1.91558">
        <ele>133</ele>
        <time>2026-03-29T11:19:07Z</time>
      </trkpt>
      <trkpt lat="48.6037" lon="1.91555">
        <ele>133</ele>
        <time>2026-03-29T11:19:08Z</time>
      </trkpt>
      <trkpt lat="48.60369" lon="1.91554">
        <ele>133.2</ele>
        <time>2026-03-29T11:19:09Z</time>
      </trkpt>
      <trkpt lat="48.60367" lon="1.91552">
        <ele>133.2</ele>
        <time>2026-03-29T11:19:10Z</time>
      </trkpt>
      <trkpt lat="48.60365" lon="1.91549">
        <ele>133.2</ele>
        <time>2026-03-29T11:19:11Z</time>
      </trkpt>
      <trkpt lat="48.60362" lon="1.91546">
        <ele>133.2</ele>
        <time>2026-03-29T11:19:12Z</time>
      </trkpt>
      <trkpt lat="48.60359" lon="1.91542">
        <ele>133.2</ele>
        <time>2026-03-29T11:19:13Z</time>
      </trkpt>
      <trkpt lat="48.60356" lon="1.9154">
        <ele>133.6</ele>
        <time>2026-03-29T11:19:14Z</time>
      </trkpt>
      <trkpt lat="48.60354" lon="1.91536">
        <ele>133.6</ele>
        <time>2026-03-29T11:19:15Z</time>
      </trkpt>
      <trkpt lat="48.60351" lon="1.91533">
        <ele>133.6</ele>
        <time>2026-03-29T11:19:16Z</time>
      </trkpt>
      <trkpt lat="48.60349" lon="1.91531">
        <ele>133.6</ele>
        <time>2026-03-29T11:19:17Z</time>
      </trkpt>
      <trkpt lat="48.60347" lon="1.91529">
        <ele>133.8</ele>
        <time>2026-03-29T11:19:18Z</time>
      </trkpt>
      <trkpt lat="48.60344" lon="1.91526">
        <ele>133.8</ele>
        <time>2026-03-29T11:19:19Z</time>
      </trkpt>
      <trkpt lat="48.60341" lon="1.91522">
        <ele>133.8</ele>
        <time>2026-03-29T11:19:20Z</time>
      </trkpt>
      <trkpt lat="48.60339" lon="1.91519">
        <ele>133.8</ele>
        <time>2026-03-29T11:19:21Z</time>
      </trkpt>
      <trkpt lat="48.60336" lon="1.91516">
        <ele>134.2</ele>
        <time>2026-03-29T11:19:22Z</time>
      </trkpt>
      <trkpt lat="48.60333" lon="1.91513">
        <ele>134.2</ele>
        <time>2026-03-29T11:19:23Z</time>
      </trkpt>
      <trkpt lat="48.60331" lon="1.91509">
        <ele>134.2</ele>
        <time>2026-03-29T11:19:24Z</time>
      </trkpt>
      <trkpt lat="48.60328" lon="1.91505">
        <ele>134</ele>
        <time>2026-03-29T11:19:25Z</time>
      </trkpt>
      <trkpt lat="48.60326" lon="1.91502">
        <ele>134</ele>
        <time>2026-03-29T11:19:26Z</time>
      </trkpt>
      <trkpt lat="48.60323" lon="1.91499">
        <ele>134</ele>
        <time>2026-03-29T11:19:27Z</time>
      </trkpt>
      <trkpt lat="48.60321" lon="1.91495">
        <ele>134</ele>
        <time>2026-03-29T11:19:28Z</time>
      </trkpt>
      <trkpt lat="48.60318" lon="1.91491">
        <ele>134.4</ele>
        <time>2026-03-29T11:19:29Z</time>
      </trkpt>
      <trkpt lat="48.60316" lon="1.91487">
        <ele>134.4</ele>
        <time>2026-03-29T11:19:30Z</time>
      </trkpt>
      <trkpt lat="48.60315" lon="1.91484">
        <ele>134.4</ele>
        <time>2026-03-29T11:19:31Z</time>
      </trkpt>
      <trkpt lat="48.60313" lon="1.9148">
        <ele>134.4</ele>
        <time>2026-03-29T11:19:32Z</time>
      </trkpt>
      <trkpt lat="48.6031" lon="1.91475">
        <ele>134.6</ele>
        <time>2026-03-29T11:19:33Z</time>
      </trkpt>
      <trkpt lat="48.60309" lon="1.91472">
        <ele>134.6</ele>
        <time>2026-03-29T11:19:34Z</time>
      </trkpt>
      <trkpt lat="48.60307" lon="1.91467">
        <ele>134.6</ele>
        <time>2026-03-29T11:19:35Z</time>
      </trkpt>
      <trkpt lat="48.60305" lon="1.91463">
        <ele>134.6</ele>
        <time>2026-03-29T11:19:36Z</time>
      </trkpt>
      <trkpt lat="48.60304" lon="1.91459">
        <ele>135.2</ele>
        <time>2026-03-29T11:19:37Z</time>
      </trkpt>
      <trkpt lat="48.60303" lon="1.91455">
        <ele>135.2</ele>
        <time>2026-03-29T11:19:38Z</time>
      </trkpt>
      <trkpt lat="48.60302" lon="1.91451">
        <ele>135.2</ele>
        <time>2026-03-29T11:19:39Z</time>
      </trkpt>
      <trkpt lat="48.603" lon="1.91447">
        <ele>135.2</ele>
        <time>2026-03-29T11:19:40Z</time>
      </trkpt>
      <trkpt lat="48.60299" lon="1.91442">
        <ele>135.4</ele>
        <time>2026-03-29T11:19:41Z</time>
      </trkpt>
      <trkpt lat="48.60296" lon="1.91438">
        <ele>135.2</ele>
        <time>2026-03-29T11:19:42Z</time>
      </trkpt>
      <trkpt lat="48.60294" lon="1.91433">
        <ele>135.2</ele>
        <time>2026-03-29T11:19:43Z</time>
      </trkpt>
      <trkpt lat="48.60292" lon="1.91429">
        <ele>135.2</ele>
        <time>2026-03-29T11:19:44Z</time>
      </trkpt>
      <trkpt lat="48.60289" lon="1.91424">
        <ele>135.2</ele>
        <time>2026-03-29T11:19:45Z</time>
      </trkpt>
      <trkpt lat="48.60287" lon="1.9142">
        <ele>135.2</ele>
        <time>2026-03-29T11:19:46Z</time>
      </trkpt>
      <trkpt lat="48.60284" lon="1.91415">
        <ele>135.2</ele>
        <time>2026-03-29T11:19:47Z</time>
      </trkpt>
      <trkpt lat="48.60282" lon="1.91411">
        <ele>135.2</ele>
        <time>2026-03-29T11:19:48Z</time>
      </trkpt>
      <trkpt lat="48.60281" lon="1.91407">
        <ele>135.6</ele>
        <time>2026-03-29T11:19:49Z</time>
      </trkpt>
      <trkpt lat="48.60278" lon="1.91403">
        <ele>135.8</ele>
        <time>2026-03-29T11:19:50Z</time>
      </trkpt>
      <trkpt lat="48.60276" lon="1.91398">
        <ele>135.8</ele>
        <time>2026-03-29T11:19:51Z</time>
      </trkpt>
      <trkpt lat="48.60274" lon="1.91394">
        <ele>135.8</ele>
        <time>2026-03-29T11:19:52Z</time>
      </trkpt>
      <trkpt lat="48.60271" lon="1.91391">
        <ele>136.4</ele>
        <time>2026-03-29T11:19:53Z</time>
      </trkpt>
      <trkpt lat="48.60269" lon="1.91387">
        <ele>136</ele>
        <time>2026-03-29T11:19:54Z</time>
      </trkpt>
      <trkpt lat="48.60268" lon="1.91383">
        <ele>136</ele>
        <time>2026-03-29T11:19:55Z</time>
      </trkpt>
      <trkpt lat="48.60267" lon="1.91378">
        <ele>136</ele>
        <time>2026-03-29T11:19:56Z</time>
      </trkpt>
      <trkpt lat="48.60265" lon="1.91374">
        <ele>136.6</ele>
        <time>2026-03-29T11:19:57Z</time>
      </trkpt>
      <trkpt lat="48.60264" lon="1.91371">
        <ele>136</ele>
        <time>2026-03-29T11:19:58Z</time>
      </trkpt>
      <trkpt lat="48.60262" lon="1.91367">
        <ele>136</ele>
        <time>2026-03-29T11:19:59Z</time>
      </trkpt>
      <trkpt lat="48.6026" lon="1.91362">
        <ele>136</ele>
        <time>2026-03-29T11:20:00Z</time>
      </trkpt>
      <trkpt lat="48.60258" lon="1.91358">
        <ele>136.6</ele>
        <time>2026-03-29T11:20:01Z</time>
      </trkpt>
      <trkpt lat="48.60255" lon="1.91354">
        <ele>136.6</ele>
        <time>2026-03-29T11:20:02Z</time>
      </trkpt>
      <trkpt lat="48.60253" lon="1.9135">
        <ele>136.6</ele>
        <time>2026-03-29T11:20:03Z</time>
      </trkpt>
      <trkpt lat="48.6025" lon="1.91346">
        <ele>136.6</ele>
        <time>2026-03-29T11:20:04Z</time>
      </trkpt>
      <trkpt lat="48.60248" lon="1.91343">
        <ele>136.6</ele>
        <time>2026-03-29T11:20:05Z</time>
      </trkpt>
      <trkpt lat="48.60245" lon="1.91339">
        <ele>136.6</ele>
        <time>2026-03-29T11:20:06Z</time>
      </trkpt>
      <trkpt lat="48.60243" lon="1.91335">
        <ele>136.6</ele>
        <time>2026-03-29T11:20:07Z</time>
      </trkpt>
      <trkpt lat="48.60241" lon="1.91332">
        <ele>136.6</ele>
        <time>2026-03-29T11:20:08Z</time>
      </trkpt>
      <trkpt lat="48.60239" lon="1.91329">
        <ele>136.6</ele>
        <time>2026-03-29T11:20:09Z</time>
      </trkpt>
      <trkpt lat="48.60236" lon="1.91326">
        <ele>137.2</ele>
        <time>2026-03-29T11:20:10Z</time>
      </trkpt>
      <trkpt lat="48.60234" lon="1.91322">
        <ele>137.2</ele>
        <time>2026-03-29T11:20:11Z</time>
      </trkpt>
      <trkpt lat="48.60232" lon="1.9132">
        <ele>137.2</ele>
        <time>2026-03-29T11:20:12Z</time>
      </trkpt>
      <trkpt lat="48.60229" lon="1.91316">
        <ele>137.2</ele>
        <time>2026-03-29T11:20:13Z</time>
      </trkpt>
      <trkpt lat="48.60227" lon="1.91313">
        <ele>137.2</ele>
        <time>2026-03-29T11:20:14Z</time>
      </trkpt>
      <trkpt lat="48.60225" lon="1.9131">
        <ele>137.2</ele>
        <time>2026-03-29T11:20:15Z</time>
      </trkpt>
      <trkpt lat="48.60223" lon="1.91307">
        <ele>137.2</ele>
        <time>2026-03-29T11:20:16Z</time>
      </trkpt>
      <trkpt lat="48.6022" lon="1.91304">
        <ele>137.2</ele>
        <time>2026-03-29T11:20:17Z</time>
      </trkpt>
      <trkpt lat="48.60217" lon="1.91301">
        <ele>137.4</ele>
        <time>2026-03-29T11:20:18Z</time>
      </trkpt>
      <trkpt lat="48.60215" lon="1.91299">
        <ele>137.4</ele>
        <time>2026-03-29T11:20:19Z</time>
      </trkpt>
      <trkpt lat="48.60213" lon="1.91298">
        <ele>137.4</ele>
        <time>2026-03-29T11:20:20Z</time>
      </trkpt>
      <trkpt lat="48.60211" lon="1.91295">
        <ele>137.4</ele>
        <time>2026-03-29T11:20:21Z</time>
      </trkpt>
      <trkpt lat="48.6021" lon="1.91292">
        <ele>137.4</ele>
        <time>2026-03-29T11:20:22Z</time>
      </trkpt>
      <trkpt lat="48.60208" lon="1.91289">
        <ele>137.4</ele>
        <time>2026-03-29T11:20:23Z</time>
      </trkpt>
      <trkpt lat="48.60206" lon="1.91285">
        <ele>137.4</ele>
        <time>2026-03-29T11:20:24Z</time>
      </trkpt>
      <trkpt lat="48.60204" lon="1.91281">
        <ele>138</ele>
        <time>2026-03-29T11:20:25Z</time>
      </trkpt>
      <trkpt lat="48.60202" lon="1.91277">
        <ele>138</ele>
        <time>2026-03-29T11:20:26Z</time>
      </trkpt>
      <trkpt lat="48.602" lon="1.91274">
        <ele>138</ele>
        <time>2026-03-29T11:20:27Z</time>
      </trkpt>
      <trkpt lat="48.60197" lon="1.91271">
        <ele>138</ele>
        <time>2026-03-29T11:20:28Z</time>
      </trkpt>
      <trkpt lat="48.60194" lon="1.91268">
        <ele>138</ele>
        <time>2026-03-29T11:20:29Z</time>
      </trkpt>
      <trkpt lat="48.60191" lon="1.91265">
        <ele>138</ele>
        <time>2026-03-29T11:20:30Z</time>
      </trkpt>
      <trkpt lat="48.60187" lon="1.91264">
        <ele>138</ele>
        <time>2026-03-29T11:20:31Z</time>
      </trkpt>
      <trkpt lat="48.60184" lon="1.91263">
        <ele>138</ele>
        <time>2026-03-29T11:20:32Z</time>
      </trkpt>
      <trkpt lat="48.60182" lon="1.91264">
        <ele>138</ele>
        <time>2026-03-29T11:20:33Z</time>
      </trkpt>
      <trkpt lat="48.6018" lon="1.91267">
        <ele>138.4</ele>
        <time>2026-03-29T11:20:34Z</time>
      </trkpt>
      <trkpt lat="48.60178" lon="1.91269">
        <ele>138.4</ele>
        <time>2026-03-29T11:20:35Z</time>
      </trkpt>
      <trkpt lat="48.60176" lon="1.91272">
        <ele>138.4</ele>
        <time>2026-03-29T11:20:36Z</time>
      </trkpt>
      <trkpt lat="48.60174" lon="1.91275">
        <ele>138.4</ele>
        <time>2026-03-29T11:20:37Z</time>
      </trkpt>
      <trkpt lat="48.60173" lon="1.91279">
        <ele>138.4</ele>
        <time>2026-03-29T11:20:38Z</time>
      </trkpt>
      <trkpt lat="48.60172" lon="1.91282">
        <ele>138.4</ele>
        <time>2026-03-29T11:20:39Z</time>
      </trkpt>
      <trkpt lat="48.6017" lon="1.91285">
        <ele>138.4</ele>
        <time>2026-03-29T11:20:40Z</time>
      </trkpt>
      <trkpt lat="48.60168" lon="1.9129">
        <ele>138.4</ele>
        <time>2026-03-29T11:20:41Z</time>
      </trkpt>
      <trkpt lat="48.60166" lon="1.91295">
        <ele>138.4</ele>
        <time>2026-03-29T11:20:42Z</time>
      </trkpt>
      <trkpt lat="48.60164" lon="1.913">
        <ele>138.4</ele>
        <time>2026-03-29T11:20:43Z</time>
      </trkpt>
      <trkpt lat="48.60162" lon="1.91304">
        <ele>138.4</ele>
        <time>2026-03-29T11:20:44Z</time>
      </trkpt>
      <trkpt lat="48.60161" lon="1.9131">
        <ele>138.4</ele>
        <time>2026-03-29T11:20:45Z</time>
      </trkpt>
      <trkpt lat="48.60159" lon="1.91314">
        <ele>138.8</ele>
        <time>2026-03-29T11:20:46Z</time>
      </trkpt>
      <trkpt lat="48.60157" lon="1.91319">
        <ele>138.8</ele>
        <time>2026-03-29T11:20:47Z</time>
      </trkpt>
      <trkpt lat="48.60155" lon="1.91323">
        <ele>138.8</ele>
        <time>2026-03-29T11:20:48Z</time>
      </trkpt>
      <trkpt lat="48.60153" lon="1.91327">
        <ele>138.8</ele>
        <time>2026-03-29T11:20:49Z</time>
      </trkpt>
      <trkpt lat="48.60152" lon="1.9133">
        <ele>139.4</ele>
        <time>2026-03-29T11:20:50Z</time>
      </trkpt>
      <trkpt lat="48.60149" lon="1.91334">
        <ele>139.4</ele>
        <time>2026-03-29T11:20:51Z</time>
      </trkpt>
      <trkpt lat="48.60148" lon="1.91339">
        <ele>139.4</ele>
        <time>2026-03-29T11:20:52Z</time>
      </trkpt>
      <trkpt lat="48.60146" lon="1.91342">
        <ele>139.4</ele>
        <time>2026-03-29T11:20:53Z</time>
      </trkpt>
      <trkpt lat="48.60144" lon="1.91347">
        <ele>139.6</ele>
        <time>2026-03-29T11:20:54Z</time>
      </trkpt>
      <trkpt lat="48.60142" lon="1.91352">
        <ele>139.6</ele>
        <time>2026-03-29T11:20:55Z</time>
      </trkpt>
      <trkpt lat="48.6014" lon="1.91356">
        <ele>139.6</ele>
        <time>2026-03-29T11:20:56Z</time>
      </trkpt>
      <trkpt lat="48.60138" lon="1.91359">
        <ele>139.6</ele>
        <time>2026-03-29T11:20:57Z</time>
      </trkpt>
      <trkpt lat="48.60136" lon="1.91363">
        <ele>139.2</ele>
        <time>2026-03-29T11:20:58Z</time>
      </trkpt>
      <trkpt lat="48.60134" lon="1.91368">
        <ele>139.2</ele>
        <time>2026-03-29T11:20:59Z</time>
      </trkpt>
      <trkpt lat="48.60132" lon="1.91372">
        <ele>139.2</ele>
        <time>2026-03-29T11:21:00Z</time>
      </trkpt>
      <trkpt lat="48.6013" lon="1.91377">
        <ele>139.2</ele>
        <time>2026-03-29T11:21:01Z</time>
      </trkpt>
      <trkpt lat="48.60127" lon="1.91381">
        <ele>139.8</ele>
        <time>2026-03-29T11:21:02Z</time>
      </trkpt>
      <trkpt lat="48.60124" lon="1.91386">
        <ele>139.8</ele>
        <time>2026-03-29T11:21:03Z</time>
      </trkpt>
      <trkpt lat="48.60122" lon="1.91391">
        <ele>139.8</ele>
        <time>2026-03-29T11:21:04Z</time>
      </trkpt>
      <trkpt lat="48.6012" lon="1.91395">
        <ele>139</ele>
        <time>2026-03-29T11:21:05Z</time>
      </trkpt>
      <trkpt lat="48.60118" lon="1.914">
        <ele>139</ele>
        <time>2026-03-29T11:21:06Z</time>
      </trkpt>
      <trkpt lat="48.60115" lon="1.91405">
        <ele>139</ele>
        <time>2026-03-29T11:21:07Z</time>
      </trkpt>
      <trkpt lat="48.60112" lon="1.91409">
        <ele>139</ele>
        <time>2026-03-29T11:21:08Z</time>
      </trkpt>
      <trkpt lat="48.6011" lon="1.91414">
        <ele>139</ele>
        <time>2026-03-29T11:21:09Z</time>
      </trkpt>
      <trkpt lat="48.60107" lon="1.91419">
        <ele>138.4</ele>
        <time>2026-03-29T11:21:10Z</time>
      </trkpt>
      <trkpt lat="48.60105" lon="1.91425">
        <ele>138.4</ele>
        <time>2026-03-29T11:21:11Z</time>
      </trkpt>
      <trkpt lat="48.60102" lon="1.9143">
        <ele>138.4</ele>
        <time>2026-03-29T11:21:12Z</time>
      </trkpt>
      <trkpt lat="48.60099" lon="1.91435">
        <ele>138.6</ele>
        <time>2026-03-29T11:21:13Z</time>
      </trkpt>
      <trkpt lat="48.60096" lon="1.9144">
        <ele>138.6</ele>
        <time>2026-03-29T11:21:14Z</time>
      </trkpt>
      <trkpt lat="48.60093" lon="1.91445">
        <ele>138.6</ele>
        <time>2026-03-29T11:21:15Z</time>
      </trkpt>
      <trkpt lat="48.6009" lon="1.91451">
        <ele>138.6</ele>
        <time>2026-03-29T11:21:16Z</time>
      </trkpt>
      <trkpt lat="48.60087" lon="1.91456">
        <ele>138.6</ele>
        <time>2026-03-29T11:21:17Z</time>
      </trkpt>
      <trkpt lat="48.60084" lon="1.91462">
        <ele>138</ele>
        <time>2026-03-29T11:21:18Z</time>
      </trkpt>
      <trkpt lat="48.60081" lon="1.91467">
        <ele>138</ele>
        <time>2026-03-29T11:21:19Z</time>
      </trkpt>
      <trkpt lat="48.60078" lon="1.91471">
        <ele>138</ele>
        <time>2026-03-29T11:21:20Z</time>
      </trkpt>
      <trkpt lat="48.60074" lon="1.91474">
        <ele>138</ele>
        <time>2026-03-29T11:21:21Z</time>
      </trkpt>
      <trkpt lat="48.6007" lon="1.91475">
        <ele>137.2</ele>
        <time>2026-03-29T11:21:22Z</time>
      </trkpt>
      <trkpt lat="48.60067" lon="1.91475">
        <ele>137.2</ele>
        <time>2026-03-29T11:21:23Z</time>
      </trkpt>
      <trkpt lat="48.60063" lon="1.91475">
        <ele>137.2</ele>
        <time>2026-03-29T11:21:24Z</time>
      </trkpt>
      <trkpt lat="48.6006" lon="1.91475">
        <ele>137.8</ele>
        <time>2026-03-29T11:21:25Z</time>
      </trkpt>
      <trkpt lat="48.60057" lon="1.91474">
        <ele>137.6</ele>
        <time>2026-03-29T11:21:26Z</time>
      </trkpt>
      <trkpt lat="48.60054" lon="1.91473">
        <ele>137.6</ele>
        <time>2026-03-29T11:21:27Z</time>
      </trkpt>
      <trkpt lat="48.60051" lon="1.91471">
        <ele>137.6</ele>
        <time>2026-03-29T11:21:28Z</time>
      </trkpt>
      <trkpt lat="48.60048" lon="1.9147">
        <ele>138.2</ele>
        <time>2026-03-29T11:21:29Z</time>
      </trkpt>
      <trkpt lat="48.60045" lon="1.91468">
        <ele>138.2</ele>
        <time>2026-03-29T11:21:30Z</time>
      </trkpt>
      <trkpt lat="48.60043" lon="1.91465">
        <ele>138.2</ele>
        <time>2026-03-29T11:21:31Z</time>
      </trkpt>
      <trkpt lat="48.6004" lon="1.91464">
        <ele>138.2</ele>
        <time>2026-03-29T11:21:32Z</time>
      </trkpt>
      <trkpt lat="48.60038" lon="1.91462">
        <ele>138.2</ele>
        <time>2026-03-29T11:21:33Z</time>
      </trkpt>
      <trkpt lat="48.60036" lon="1.91461">
        <ele>138.6</ele>
        <time>2026-03-29T11:21:34Z</time>
      </trkpt>
      <trkpt lat="48.60034" lon="1.91459">
        <ele>138.6</ele>
        <time>2026-03-29T11:21:35Z</time>
      </trkpt>
      <trkpt lat="48.60032" lon="1.91457">
        <ele>138.6</ele>
        <time>2026-03-29T11:21:36Z</time>
      </trkpt>
      <trkpt lat="48.6003" lon="1.91456">
        <ele>138.6</ele>
        <time>2026-03-29T11:21:37Z</time>
      </trkpt>
      <trkpt lat="48.60028" lon="1.91455">
        <ele>138.8</ele>
        <time>2026-03-29T11:21:38Z</time>
      </trkpt>
      <trkpt lat="48.60027" lon="1.91453">
        <ele>138.8</ele>
        <time>2026-03-29T11:21:39Z</time>
      </trkpt>
      <trkpt lat="48.60024" lon="1.9145">
        <ele>138.8</ele>
        <time>2026-03-29T11:21:40Z</time>
      </trkpt>
      <trkpt lat="48.60023" lon="1.91449">
        <ele>139.2</ele>
        <time>2026-03-29T11:21:41Z</time>
      </trkpt>
      <trkpt lat="48.60021" lon="1.91448">
        <ele>139</ele>
        <time>2026-03-29T11:21:42Z</time>
      </trkpt>
      <trkpt lat="48.60018" lon="1.91446">
        <ele>139</ele>
        <time>2026-03-29T11:21:43Z</time>
      </trkpt>
      <trkpt lat="48.60016" lon="1.91445">
        <ele>139</ele>
        <time>2026-03-29T11:21:44Z</time>
      </trkpt>
      <trkpt lat="48.60013" lon="1.91442">
        <ele>139.4</ele>
        <time>2026-03-29T11:21:45Z</time>
      </trkpt>
      <trkpt lat="48.60011" lon="1.9144">
        <ele>139.6</ele>
        <time>2026-03-29T11:21:46Z</time>
      </trkpt>
      <trkpt lat="48.60009" lon="1.91438">
        <ele>139.6</ele>
        <time>2026-03-29T11:21:47Z</time>
      </trkpt>
      <trkpt lat="48.60006" lon="1.91435">
        <ele>139.6</ele>
        <time>2026-03-29T11:21:48Z</time>
      </trkpt>
      <trkpt lat="48.60004" lon="1.91433">
        <ele>139.6</ele>
        <time>2026-03-29T11:21:49Z</time>
      </trkpt>
      <trkpt lat="48.60001" lon="1.91431">
        <ele>139.8</ele>
        <time>2026-03-29T11:21:50Z</time>
      </trkpt>
      <trkpt lat="48.59999" lon="1.91429">
        <ele>139.8</ele>
        <time>2026-03-29T11:21:51Z</time>
      </trkpt>
      <trkpt lat="48.59998" lon="1.91427">
        <ele>139.8</ele>
        <time>2026-03-29T11:21:52Z</time>
      </trkpt>
      <trkpt lat="48.59995" lon="1.91425">
        <ele>139.8</ele>
        <time>2026-03-29T11:21:53Z</time>
      </trkpt>
      <trkpt lat="48.59993" lon="1.91423">
        <ele>140.6</ele>
        <time>2026-03-29T11:21:54Z</time>
      </trkpt>
      <trkpt lat="48.59991" lon="1.91421">
        <ele>140.6</ele>
        <time>2026-03-29T11:21:55Z</time>
      </trkpt>
      <trkpt lat="48.59989" lon="1.91419">
        <ele>140.6</ele>
        <time>2026-03-29T11:21:56Z</time>
      </trkpt>
      <trkpt lat="48.59987" lon="1.91418">
        <ele>140.6</ele>
        <time>2026-03-29T11:21:57Z</time>
      </trkpt>
      <trkpt lat="48.59984" lon="1.91416">
        <ele>140.4</ele>
        <time>2026-03-29T11:21:58Z</time>
      </trkpt>
      <trkpt lat="48.59982" lon="1.91414">
        <ele>140.4</ele>
        <time>2026-03-29T11:21:59Z</time>
      </trkpt>
      <trkpt lat="48.5998" lon="1.91412">
        <ele>140.4</ele>
        <time>2026-03-29T11:22:00Z</time>
      </trkpt>
      <trkpt lat="48.59978" lon="1.91411">
        <ele>141</ele>
        <time>2026-03-29T11:22:01Z</time>
      </trkpt>
      <trkpt lat="48.59975" lon="1.91409">
        <ele>140.8</ele>
        <time>2026-03-29T11:22:02Z</time>
      </trkpt>
      <trkpt lat="48.59973" lon="1.91407">
        <ele>140.8</ele>
        <time>2026-03-29T11:22:03Z</time>
      </trkpt>
      <trkpt lat="48.59971" lon="1.91405">
        <ele>140.8</ele>
        <time>2026-03-29T11:22:04Z</time>
      </trkpt>
      <trkpt lat="48.59968" lon="1.91404">
        <ele>140.8</ele>
        <time>2026-03-29T11:22:05Z</time>
      </trkpt>
      <trkpt lat="48.59966" lon="1.91403">
        <ele>141.2</ele>
        <time>2026-03-29T11:22:06Z</time>
      </trkpt>
      <trkpt lat="48.59963" lon="1.91404">
        <ele>141.2</ele>
        <time>2026-03-29T11:22:07Z</time>
      </trkpt>
      <trkpt lat="48.59962" lon="1.91404">
        <ele>141.2</ele>
        <time>2026-03-29T11:22:08Z</time>
      </trkpt>
      <trkpt lat="48.5996" lon="1.91406">
        <ele>141.2</ele>
        <time>2026-03-29T11:22:09Z</time>
      </trkpt>
      <trkpt lat="48.59958" lon="1.91408">
        <ele>141.2</ele>
        <time>2026-03-29T11:22:10Z</time>
      </trkpt>
      <trkpt lat="48.59957" lon="1.9141">
        <ele>141.2</ele>
        <time>2026-03-29T11:22:11Z</time>
      </trkpt>
      <trkpt lat="48.59955" lon="1.91411">
        <ele>141.2</ele>
        <time>2026-03-29T11:22:12Z</time>
      </trkpt>
      <trkpt lat="48.59953" lon="1.91413">
        <ele>141.2</ele>
        <time>2026-03-29T11:22:13Z</time>
      </trkpt>
      <trkpt lat="48.59952" lon="1.91414">
        <ele>141.4</ele>
        <time>2026-03-29T11:22:14Z</time>
      </trkpt>
      <trkpt lat="48.5995" lon="1.91415">
        <ele>141.4</ele>
        <time>2026-03-29T11:22:15Z</time>
      </trkpt>
      <trkpt lat="48.59949" lon="1.91416">
        <ele>141.4</ele>
        <time>2026-03-29T11:22:16Z</time>
      </trkpt>
      <trkpt lat="48.59947" lon="1.91417">
        <ele>141.4</ele>
        <time>2026-03-29T11:22:17Z</time>
      </trkpt>
      <trkpt lat="48.59945" lon="1.91418">
        <ele>141.2</ele>
        <time>2026-03-29T11:22:18Z</time>
      </trkpt>
      <trkpt lat="48.59943" lon="1.91419">
        <ele>141.2</ele>
        <time>2026-03-29T11:22:19Z</time>
      </trkpt>
      <trkpt lat="48.5994" lon="1.91419">
        <ele>141.2</ele>
        <time>2026-03-29T11:22:20Z</time>
      </trkpt>
      <trkpt lat="48.59938" lon="1.91421">
        <ele>141.2</ele>
        <time>2026-03-29T11:22:21Z</time>
      </trkpt>
      <trkpt lat="48.59937" lon="1.91422">
        <ele>141.8</ele>
        <time>2026-03-29T11:22:22Z</time>
      </trkpt>
      <trkpt lat="48.59935" lon="1.91424">
        <ele>141.8</ele>
        <time>2026-03-29T11:22:23Z</time>
      </trkpt>
      <trkpt lat="48.59934" lon="1.91425">
        <ele>141.8</ele>
        <time>2026-03-29T11:22:24Z</time>
      </trkpt>
      <trkpt lat="48.59932" lon="1.91427">
        <ele>141.8</ele>
        <time>2026-03-29T11:22:25Z</time>
      </trkpt>
      <trkpt lat="48.5993" lon="1.91428">
        <ele>142.2</ele>
        <time>2026-03-29T11:22:26Z</time>
      </trkpt>
      <trkpt lat="48.59928" lon="1.9143">
        <ele>142.2</ele>
        <time>2026-03-29T11:22:27Z</time>
      </trkpt>
      <trkpt lat="48.59926" lon="1.91431">
        <ele>142.2</ele>
        <time>2026-03-29T11:22:28Z</time>
      </trkpt>
      <trkpt lat="48.59924" lon="1.91433">
        <ele>142.2</ele>
        <time>2026-03-29T11:22:29Z</time>
      </trkpt>
      <trkpt lat="48.59922" lon="1.91435">
        <ele>142.2</ele>
        <time>2026-03-29T11:22:30Z</time>
      </trkpt>
      <trkpt lat="48.5992" lon="1.91435">
        <ele>142.2</ele>
        <time>2026-03-29T11:22:31Z</time>
      </trkpt>
      <trkpt lat="48.59919" lon="1.91437">
        <ele>142.2</ele>
        <time>2026-03-29T11:22:32Z</time>
      </trkpt>
      <trkpt lat="48.59917" lon="1.91439">
        <ele>143.2</ele>
        <time>2026-03-29T11:22:33Z</time>
      </trkpt>
      <trkpt lat="48.59916" lon="1.9144">
        <ele>143.2</ele>
        <time>2026-03-29T11:22:34Z</time>
      </trkpt>
      <trkpt lat="48.59914" lon="1.91442">
        <ele>143.2</ele>
        <time>2026-03-29T11:22:35Z</time>
      </trkpt>
      <trkpt lat="48.59913" lon="1.91443">
        <ele>143.2</ele>
        <time>2026-03-29T11:22:36Z</time>
      </trkpt>
      <trkpt lat="48.59911" lon="1.91445">
        <ele>143.8</ele>
        <time>2026-03-29T11:22:37Z</time>
      </trkpt>
      <trkpt lat="48.59909" lon="1.91447">
        <ele>144.2</ele>
        <time>2026-03-29T11:22:38Z</time>
      </trkpt>
      <trkpt lat="48.59907" lon="1.91448">
        <ele>144.2</ele>
        <time>2026-03-29T11:22:39Z</time>
      </trkpt>
      <trkpt lat="48.59906" lon="1.91449">
        <ele>144.2</ele>
        <time>2026-03-29T11:22:40Z</time>
      </trkpt>
      <trkpt lat="48.59904" lon="1.9145">
        <ele>144</ele>
        <time>2026-03-29T11:22:41Z</time>
      </trkpt>
      <trkpt lat="48.59902" lon="1.91452">
        <ele>144</ele>
        <time>2026-03-29T11:22:42Z</time>
      </trkpt>
      <trkpt lat="48.599" lon="1.91453">
        <ele>144</ele>
        <time>2026-03-29T11:22:43Z</time>
      </trkpt>
      <trkpt lat="48.59898" lon="1.91454">
        <ele>144</ele>
        <time>2026-03-29T11:22:44Z</time>
      </trkpt>
      <trkpt lat="48.59896" lon="1.91455">
        <ele>144.6</ele>
        <time>2026-03-29T11:22:45Z</time>
      </trkpt>
      <trkpt lat="48.59894" lon="1.91456">
        <ele>144.8</ele>
        <time>2026-03-29T11:22:46Z</time>
      </trkpt>
      <trkpt lat="48.59891" lon="1.91456">
        <ele>144.8</ele>
        <time>2026-03-29T11:22:47Z</time>
      </trkpt>
      <trkpt lat="48.59889" lon="1.91457">
        <ele>144.8</ele>
        <time>2026-03-29T11:22:48Z</time>
      </trkpt>
      <trkpt lat="48.59887" lon="1.91457">
        <ele>144.8</ele>
        <time>2026-03-29T11:22:49Z</time>
      </trkpt>
      <trkpt lat="48.59885" lon="1.91458">
        <ele>145.2</ele>
        <time>2026-03-29T11:22:50Z</time>
      </trkpt>
      <trkpt lat="48.59883" lon="1.91459">
        <ele>145.2</ele>
        <time>2026-03-29T11:22:51Z</time>
      </trkpt>
      <trkpt lat="48.59881" lon="1.9146">
        <ele>145.2</ele>
        <time>2026-03-29T11:22:52Z</time>
      </trkpt>
      <trkpt lat="48.59878" lon="1.91461">
        <ele>145.6</ele>
        <time>2026-03-29T11:22:53Z</time>
      </trkpt>
      <trkpt lat="48.59876" lon="1.91462">
        <ele>145.6</ele>
        <time>2026-03-29T11:22:54Z</time>
      </trkpt>
      <trkpt lat="48.59874" lon="1.91463">
        <ele>145.6</ele>
        <time>2026-03-29T11:22:55Z</time>
      </trkpt>
      <trkpt lat="48.59872" lon="1.91464">
        <ele>145.6</ele>
        <time>2026-03-29T11:22:56Z</time>
      </trkpt>
      <trkpt lat="48.5987" lon="1.91466">
        <ele>145.6</ele>
        <time>2026-03-29T11:22:57Z</time>
      </trkpt>
      <trkpt lat="48.59868" lon="1.91467">
        <ele>146.2</ele>
        <time>2026-03-29T11:22:58Z</time>
      </trkpt>
      <trkpt lat="48.59866" lon="1.91469">
        <ele>146.2</ele>
        <time>2026-03-29T11:22:59Z</time>
      </trkpt>
      <trkpt lat="48.59864" lon="1.9147">
        <ele>146.2</ele>
        <time>2026-03-29T11:23:00Z</time>
      </trkpt>
      <trkpt lat="48.59862" lon="1.91471">
        <ele>146.2</ele>
        <time>2026-03-29T11:23:01Z</time>
      </trkpt>
      <trkpt lat="48.5986" lon="1.91473">
        <ele>146.4</ele>
        <time>2026-03-29T11:23:02Z</time>
      </trkpt>
      <trkpt lat="48.59858" lon="1.91474">
        <ele>146.4</ele>
        <time>2026-03-29T11:23:03Z</time>
      </trkpt>
      <trkpt lat="48.59856" lon="1.91476">
        <ele>146.4</ele>
        <time>2026-03-29T11:23:04Z</time>
      </trkpt>
      <trkpt lat="48.59854" lon="1.91478">
        <ele>147</ele>
        <time>2026-03-29T11:23:05Z</time>
      </trkpt>
      <trkpt lat="48.59852" lon="1.9148">
        <ele>147</ele>
        <time>2026-03-29T11:23:06Z</time>
      </trkpt>
      <trkpt lat="48.5985" lon="1.91482">
        <ele>147</ele>
        <time>2026-03-29T11:23:07Z</time>
      </trkpt>
      <trkpt lat="48.59847" lon="1.91484">
        <ele>147</ele>
        <time>2026-03-29T11:23:08Z</time>
      </trkpt>
      <trkpt lat="48.59845" lon="1.91486">
        <ele>147.8</ele>
        <time>2026-03-29T11:23:09Z</time>
      </trkpt>
      <trkpt lat="48.59842" lon="1.91488">
        <ele>147.6</ele>
        <time>2026-03-29T11:23:10Z</time>
      </trkpt>
      <trkpt lat="48.5984" lon="1.9149">
        <ele>147.6</ele>
        <time>2026-03-29T11:23:11Z</time>
      </trkpt>
      <trkpt lat="48.59838" lon="1.91492">
        <ele>147.6</ele>
        <time>2026-03-29T11:23:12Z</time>
      </trkpt>
      <trkpt lat="48.59835" lon="1.91494">
        <ele>147.6</ele>
        <time>2026-03-29T11:23:13Z</time>
      </trkpt>
      <trkpt lat="48.59832" lon="1.91495">
        <ele>147.6</ele>
        <time>2026-03-29T11:23:14Z</time>
      </trkpt>
      <trkpt lat="48.5983" lon="1.91497">
        <ele>147.6</ele>
        <time>2026-03-29T11:23:15Z</time>
      </trkpt>
      <trkpt lat="48.59827" lon="1.91499">
        <ele>147.6</ele>
        <time>2026-03-29T11:23:16Z</time>
      </trkpt>
      <trkpt lat="48.59825" lon="1.91501">
        <ele>148</ele>
        <time>2026-03-29T11:23:17Z</time>
      </trkpt>
      <trkpt lat="48.59823" lon="1.91503">
        <ele>148.4</ele>
        <time>2026-03-29T11:23:18Z</time>
      </trkpt>
      <trkpt lat="48.59821" lon="1.91504">
        <ele>148.4</ele>
        <time>2026-03-29T11:23:19Z</time>
      </trkpt>
      <trkpt lat="48.59818" lon="1.91506">
        <ele>148.4</ele>
        <time>2026-03-29T11:23:20Z</time>
      </trkpt>
      <trkpt lat="48.59816" lon="1.91507">
        <ele>148.4</ele>
        <time>2026-03-29T11:23:21Z</time>
      </trkpt>
      <trkpt lat="48.59813" lon="1.91509">
        <ele>148.8</ele>
        <time>2026-03-29T11:23:22Z</time>
      </trkpt>
      <trkpt lat="48.5981" lon="1.9151">
        <ele>148.8</ele>
        <time>2026-03-29T11:23:23Z</time>
      </trkpt>
      <trkpt lat="48.59808" lon="1.91512">
        <ele>148.8</ele>
        <time>2026-03-29T11:23:24Z</time>
      </trkpt>
      <trkpt lat="48.59805" lon="1.91514">
        <ele>149.2</ele>
        <time>2026-03-29T11:23:25Z</time>
      </trkpt>
      <trkpt lat="48.59802" lon="1.91515">
        <ele>149.2</ele>
        <time>2026-03-29T11:23:26Z</time>
      </trkpt>
      <trkpt lat="48.598" lon="1.91516">
        <ele>149.2</ele>
        <time>2026-03-29T11:23:27Z</time>
      </trkpt>
      <trkpt lat="48.59798" lon="1.91517">
        <ele>149.2</ele>
        <time>2026-03-29T11:23:28Z</time>
      </trkpt>
      <trkpt lat="48.59795" lon="1.91519">
        <ele>149.2</ele>
        <time>2026-03-29T11:23:29Z</time>
      </trkpt>
      <trkpt lat="48.59793" lon="1.91521">
        <ele>149.2</ele>
        <time>2026-03-29T11:23:30Z</time>
      </trkpt>
      <trkpt lat="48.59791" lon="1.91523">
        <ele>149.2</ele>
        <time>2026-03-29T11:23:31Z</time>
      </trkpt>
      <trkpt lat="48.59788" lon="1.91525">
        <ele>149.2</ele>
        <time>2026-03-29T11:23:32Z</time>
      </trkpt>
      <trkpt lat="48.59786" lon="1.91527">
        <ele>149.2</ele>
        <time>2026-03-29T11:23:33Z</time>
      </trkpt>
      <trkpt lat="48.59783" lon="1.91528">
        <ele>149.8</ele>
        <time>2026-03-29T11:23:34Z</time>
      </trkpt>
      <trkpt lat="48.5978" lon="1.9153">
        <ele>149.8</ele>
        <time>2026-03-29T11:23:35Z</time>
      </trkpt>
      <trkpt lat="48.59778" lon="1.91531">
        <ele>149.8</ele>
        <time>2026-03-29T11:23:36Z</time>
      </trkpt>
      <trkpt lat="48.59775" lon="1.91532">
        <ele>149.8</ele>
        <time>2026-03-29T11:23:37Z</time>
      </trkpt>
      <trkpt lat="48.59773" lon="1.91534">
        <ele>150.4</ele>
        <time>2026-03-29T11:23:38Z</time>
      </trkpt>
      <trkpt lat="48.59771" lon="1.91536">
        <ele>150.4</ele>
        <time>2026-03-29T11:23:39Z</time>
      </trkpt>
      <trkpt lat="48.59769" lon="1.91537">
        <ele>150.4</ele>
        <time>2026-03-29T11:23:40Z</time>
      </trkpt>
      <trkpt lat="48.59767" lon="1.91538">
        <ele>150.6</ele>
        <time>2026-03-29T11:23:41Z</time>
      </trkpt>
      <trkpt lat="48.59764" lon="1.91538">
        <ele>150.8</ele>
        <time>2026-03-29T11:23:42Z</time>
      </trkpt>
      <trkpt lat="48.59762" lon="1.91539">
        <ele>150.8</ele>
        <time>2026-03-29T11:23:43Z</time>
      </trkpt>
      <trkpt lat="48.5976" lon="1.9154">
        <ele>150.8</ele>
        <time>2026-03-29T11:23:44Z</time>
      </trkpt>
      <trkpt lat="48.59758" lon="1.91542">
        <ele>151.4</ele>
        <time>2026-03-29T11:23:45Z</time>
      </trkpt>
      <trkpt lat="48.59756" lon="1.91544">
        <ele>151.2</ele>
        <time>2026-03-29T11:23:46Z</time>
      </trkpt>
      <trkpt lat="48.59754" lon="1.91546">
        <ele>151.2</ele>
        <time>2026-03-29T11:23:47Z</time>
      </trkpt>
      <trkpt lat="48.59752" lon="1.91549">
        <ele>151.2</ele>
        <time>2026-03-29T11:23:48Z</time>
      </trkpt>
      <trkpt lat="48.59749" lon="1.91551">
        <ele>151.8</ele>
        <time>2026-03-29T11:23:49Z</time>
      </trkpt>
      <trkpt lat="48.59746" lon="1.91554">
        <ele>151.4</ele>
        <time>2026-03-29T11:23:50Z</time>
      </trkpt>
      <trkpt lat="48.59744" lon="1.91557">
        <ele>151.4</ele>
        <time>2026-03-29T11:23:51Z</time>
      </trkpt>
      <trkpt lat="48.59741" lon="1.91559">
        <ele>151.4</ele>
        <time>2026-03-29T11:23:52Z</time>
      </trkpt>
      <trkpt lat="48.59739" lon="1.91562">
        <ele>151.4</ele>
        <time>2026-03-29T11:23:53Z</time>
      </trkpt>
      <trkpt lat="48.59736" lon="1.91564">
        <ele>151.2</ele>
        <time>2026-03-29T11:23:54Z</time>
      </trkpt>
      <trkpt lat="48.59733" lon="1.91566">
        <ele>151.2</ele>
        <time>2026-03-29T11:23:55Z</time>
      </trkpt>
      <trkpt lat="48.5973" lon="1.91569">
        <ele>151.2</ele>
        <time>2026-03-29T11:23:56Z</time>
      </trkpt>
      <trkpt lat="48.59728" lon="1.91571">
        <ele>151.2</ele>
        <time>2026-03-29T11:23:57Z</time>
      </trkpt>
      <trkpt lat="48.59726" lon="1.91572">
        <ele>151.2</ele>
        <time>2026-03-29T11:23:58Z</time>
      </trkpt>
      <trkpt lat="48.59724" lon="1.91575">
        <ele>151.2</ele>
        <time>2026-03-29T11:23:59Z</time>
      </trkpt>
      <trkpt lat="48.59722" lon="1.91576">
        <ele>151.2</ele>
        <time>2026-03-29T11:24:00Z</time>
      </trkpt>
      <trkpt lat="48.5972" lon="1.91578">
        <ele>151.2</ele>
        <time>2026-03-29T11:24:01Z</time>
      </trkpt>
      <trkpt lat="48.59717" lon="1.91581">
        <ele>150.6</ele>
        <time>2026-03-29T11:24:02Z</time>
      </trkpt>
      <trkpt lat="48.59715" lon="1.91585">
        <ele>150.6</ele>
        <time>2026-03-29T11:24:03Z</time>
      </trkpt>
      <trkpt lat="48.59712" lon="1.91588">
        <ele>150.6</ele>
        <time>2026-03-29T11:24:04Z</time>
      </trkpt>
      <trkpt lat="48.59709" lon="1.91592">
        <ele>150.6</ele>
        <time>2026-03-29T11:24:05Z</time>
      </trkpt>
      <trkpt lat="48.59706" lon="1.91595">
        <ele>150.2</ele>
        <time>2026-03-29T11:24:06Z</time>
      </trkpt>
      <trkpt lat="48.59703" lon="1.91597">
        <ele>150.2</ele>
        <time>2026-03-29T11:24:07Z</time>
      </trkpt>
      <trkpt lat="48.59701" lon="1.91601">
        <ele>150.2</ele>
        <time>2026-03-29T11:24:08Z</time>
      </trkpt>
      <trkpt lat="48.597" lon="1.91604">
        <ele>151</ele>
        <time>2026-03-29T11:24:09Z</time>
      </trkpt>
      <trkpt lat="48.59698" lon="1.91606">
        <ele>151</ele>
        <time>2026-03-29T11:24:10Z</time>
      </trkpt>
      <trkpt lat="48.59696" lon="1.91608">
        <ele>151</ele>
        <time>2026-03-29T11:24:11Z</time>
      </trkpt>
      <trkpt lat="48.59694" lon="1.9161">
        <ele>151</ele>
        <time>2026-03-29T11:24:12Z</time>
      </trkpt>
      <trkpt lat="48.59692" lon="1.91613">
        <ele>150</ele>
        <time>2026-03-29T11:24:13Z</time>
      </trkpt>
      <trkpt lat="48.59688" lon="1.91616">
        <ele>150.2</ele>
        <time>2026-03-29T11:24:14Z</time>
      </trkpt>
      <trkpt lat="48.59685" lon="1.91618">
        <ele>150.2</ele>
        <time>2026-03-29T11:24:15Z</time>
      </trkpt>
      <trkpt lat="48.59683" lon="1.91621">
        <ele>150.2</ele>
        <time>2026-03-29T11:24:16Z</time>
      </trkpt>
      <trkpt lat="48.5968" lon="1.91624">
        <ele>149.2</ele>
        <time>2026-03-29T11:24:17Z</time>
      </trkpt>
      <trkpt lat="48.59677" lon="1.91627">
        <ele>148.4</ele>
        <time>2026-03-29T11:24:18Z</time>
      </trkpt>
      <trkpt lat="48.59675" lon="1.9163">
        <ele>148.4</ele>
        <time>2026-03-29T11:24:19Z</time>
      </trkpt>
      <trkpt lat="48.59672" lon="1.91633">
        <ele>148.4</ele>
        <time>2026-03-29T11:24:20Z</time>
      </trkpt>
      <trkpt lat="48.59669" lon="1.91636">
        <ele>148.4</ele>
        <time>2026-03-29T11:24:21Z</time>
      </trkpt>
      <trkpt lat="48.59666" lon="1.91638">
        <ele>148.4</ele>
        <time>2026-03-29T11:24:22Z</time>
      </trkpt>
      <trkpt lat="48.59663" lon="1.9164">
        <ele>148.4</ele>
        <time>2026-03-29T11:24:23Z</time>
      </trkpt>
      <trkpt lat="48.5966" lon="1.91644">
        <ele>148.4</ele>
        <time>2026-03-29T11:24:24Z</time>
      </trkpt>
      <trkpt lat="48.59658" lon="1.91646">
        <ele>148.4</ele>
        <time>2026-03-29T11:24:25Z</time>
      </trkpt>
      <trkpt lat="48.59655" lon="1.91648">
        <ele>148</ele>
        <time>2026-03-29T11:24:26Z</time>
      </trkpt>
      <trkpt lat="48.59654" lon="1.9165">
        <ele>148</ele>
        <time>2026-03-29T11:24:27Z</time>
      </trkpt>
      <trkpt lat="48.59652" lon="1.91653">
        <ele>148</ele>
        <time>2026-03-29T11:24:28Z</time>
      </trkpt>
      <trkpt lat="48.59649" lon="1.91657">
        <ele>148</ele>
        <time>2026-03-29T11:24:29Z</time>
      </trkpt>
      <trkpt lat="48.59647" lon="1.91659">
        <ele>148.4</ele>
        <time>2026-03-29T11:24:30Z</time>
      </trkpt>
      <trkpt lat="48.59645" lon="1.9166">
        <ele>148.4</ele>
        <time>2026-03-29T11:24:31Z</time>
      </trkpt>
      <trkpt lat="48.59644" lon="1.9166">
        <ele>148.4</ele>
        <time>2026-03-29T11:24:32Z</time>
      </trkpt>
      <trkpt lat="48.59642" lon="1.91661">
        <ele>147.4</ele>
        <time>2026-03-29T11:24:33Z</time>
      </trkpt>
      <trkpt lat="48.5964" lon="1.91663">
        <ele>147.2</ele>
        <time>2026-03-29T11:24:34Z</time>
      </trkpt>
      <trkpt lat="48.59637" lon="1.91667">
        <ele>147.2</ele>
        <time>2026-03-29T11:24:35Z</time>
      </trkpt>
      <trkpt lat="48.59633" lon="1.91672">
        <ele>147.2</ele>
        <time>2026-03-29T11:24:36Z</time>
      </trkpt>
      <trkpt lat="48.5963" lon="1.91676">
        <ele>147.2</ele>
        <time>2026-03-29T11:24:37Z</time>
      </trkpt>
      <trkpt lat="48.59627" lon="1.91678">
        <ele>147</ele>
        <time>2026-03-29T11:24:38Z</time>
      </trkpt>
      <trkpt lat="48.59625" lon="1.91679">
        <ele>147</ele>
        <time>2026-03-29T11:24:39Z</time>
      </trkpt>
      <trkpt lat="48.59624" lon="1.91682">
        <ele>147</ele>
        <time>2026-03-29T11:24:40Z</time>
      </trkpt>
      <trkpt lat="48.59621" lon="1.91684">
        <ele>147</ele>
        <time>2026-03-29T11:24:41Z</time>
      </trkpt>
      <trkpt lat="48.5962" lon="1.91685">
        <ele>147.2</ele>
        <time>2026-03-29T11:24:42Z</time>
      </trkpt>
      <trkpt lat="48.59619" lon="1.91687">
        <ele>147.2</ele>
        <time>2026-03-29T11:24:43Z</time>
      </trkpt>
      <trkpt lat="48.59618" lon="1.91689">
        <ele>147.2</ele>
        <time>2026-03-29T11:24:44Z</time>
      </trkpt>
      <trkpt lat="48.59617" lon="1.91693">
        <ele>147</ele>
        <time>2026-03-29T11:24:45Z</time>
      </trkpt>
      <trkpt lat="48.59614" lon="1.917">
        <ele>147.2</ele>
        <time>2026-03-29T11:24:46Z</time>
      </trkpt>
      <trkpt lat="48.59612" lon="1.91702">
        <ele>147.2</ele>
        <time>2026-03-29T11:24:47Z</time>
      </trkpt>
      <trkpt lat="48.5961" lon="1.91704">
        <ele>147.2</ele>
        <time>2026-03-29T11:24:48Z</time>
      </trkpt>
      <trkpt lat="48.59609" lon="1.91706">
        <ele>147.2</ele>
        <time>2026-03-29T11:24:49Z</time>
      </trkpt>
      <trkpt lat="48.59607" lon="1.91707">
        <ele>147.2</ele>
        <time>2026-03-29T11:24:50Z</time>
      </trkpt>
      <trkpt lat="48.59606" lon="1.91709">
        <ele>147.2</ele>
        <time>2026-03-29T11:24:51Z</time>
      </trkpt>
      <trkpt lat="48.59604" lon="1.91711">
        <ele>147.2</ele>
        <time>2026-03-29T11:24:52Z</time>
      </trkpt>
      <trkpt lat="48.59602" lon="1.91713">
        <ele>148.2</ele>
        <time>2026-03-29T11:24:53Z</time>
      </trkpt>
      <trkpt lat="48.59601" lon="1.91714">
        <ele>149</ele>
        <time>2026-03-29T11:24:54Z</time>
      </trkpt>
      <trkpt lat="48.59599" lon="1.91717">
        <ele>149</ele>
        <time>2026-03-29T11:24:55Z</time>
      </trkpt>
      <trkpt lat="48.59598" lon="1.91719">
        <ele>149</ele>
        <time>2026-03-29T11:24:56Z</time>
      </trkpt>
      <trkpt lat="48.59596" lon="1.91724">
        <ele>150</ele>
        <time>2026-03-29T11:24:57Z</time>
      </trkpt>
      <trkpt lat="48.59596" lon="1.91727">
        <ele>150.8</ele>
        <time>2026-03-29T11:24:58Z</time>
      </trkpt>
      <trkpt lat="48.59595" lon="1.91729">
        <ele>150.8</ele>
        <time>2026-03-29T11:24:59Z</time>
      </trkpt>
      <trkpt lat="48.59594" lon="1.91731">
        <ele>150.8</ele>
        <time>2026-03-29T11:25:00Z</time>
      </trkpt>
      <trkpt lat="48.59594" lon="1.91733">
        <ele>150.8</ele>
        <time>2026-03-29T11:25:01Z</time>
      </trkpt>
      <trkpt lat="48.59594" lon="1.91734">
        <ele>151.2</ele>
        <time>2026-03-29T11:25:02Z</time>
      </trkpt>
      <trkpt lat="48.59594" lon="1.91734">
        <ele>151.2</ele>
        <time>2026-03-29T11:25:03Z</time>
      </trkpt>
      <trkpt lat="48.59563" lon="1.91773">
        <ele>153.8</ele>
        <time>2026-03-29T11:25:34Z</time>
      </trkpt>
      <trkpt lat="48.59562" lon="1.91774">
        <ele>153.8</ele>
        <time>2026-03-29T11:25:35Z</time>
      </trkpt>
      <trkpt lat="48.5956" lon="1.91776">
        <ele>153.8</ele>
        <time>2026-03-29T11:25:36Z</time>
      </trkpt>
      <trkpt lat="48.59558" lon="1.9178">
        <ele>153.8</ele>
        <time>2026-03-29T11:25:37Z</time>
      </trkpt>
      <trkpt lat="48.59556" lon="1.91783">
        <ele>153.2</ele>
        <time>2026-03-29T11:25:38Z</time>
      </trkpt>
      <trkpt lat="48.59553" lon="1.91786">
        <ele>153.2</ele>
        <time>2026-03-29T11:25:39Z</time>
      </trkpt>
      <trkpt lat="48.5955" lon="1.91788">
        <ele>153.2</ele>
        <time>2026-03-29T11:25:40Z</time>
      </trkpt>
      <trkpt lat="48.59548" lon="1.91791">
        <ele>153.4</ele>
        <time>2026-03-29T11:25:41Z</time>
      </trkpt>
      <trkpt lat="48.59546" lon="1.91793">
        <ele>153.8</ele>
        <time>2026-03-29T11:25:42Z</time>
      </trkpt>
      <trkpt lat="48.59544" lon="1.91796">
        <ele>153.8</ele>
        <time>2026-03-29T11:25:43Z</time>
      </trkpt>
      <trkpt lat="48.59543" lon="1.91798">
        <ele>153.8</ele>
        <time>2026-03-29T11:25:44Z</time>
      </trkpt>
      <trkpt lat="48.59541" lon="1.918">
        <ele>153.6</ele>
        <time>2026-03-29T11:25:45Z</time>
      </trkpt>
      <trkpt lat="48.5954" lon="1.91801">
        <ele>153.6</ele>
        <time>2026-03-29T11:25:46Z</time>
      </trkpt>
      <trkpt lat="48.59539" lon="1.91803">
        <ele>153.6</ele>
        <time>2026-03-29T11:25:47Z</time>
      </trkpt>
      <trkpt lat="48.59537" lon="1.91805">
        <ele>153.6</ele>
        <time>2026-03-29T11:25:48Z</time>
      </trkpt>
      <trkpt lat="48.59535" lon="1.91809">
        <ele>154</ele>
        <time>2026-03-29T11:25:49Z</time>
      </trkpt>
      <trkpt lat="48.59533" lon="1.91811">
        <ele>154</ele>
        <time>2026-03-29T11:25:50Z</time>
      </trkpt>
      <trkpt lat="48.59531" lon="1.91813">
        <ele>154</ele>
        <time>2026-03-29T11:25:51Z</time>
      </trkpt>
      <trkpt lat="48.5953" lon="1.91815">
        <ele>154</ele>
        <time>2026-03-29T11:25:52Z</time>
      </trkpt>
      <trkpt lat="48.59528" lon="1.91818">
        <ele>154</ele>
        <time>2026-03-29T11:25:53Z</time>
      </trkpt>
      <trkpt lat="48.59526" lon="1.9182">
        <ele>154.8</ele>
        <time>2026-03-29T11:25:54Z</time>
      </trkpt>
      <trkpt lat="48.59525" lon="1.91821">
        <ele>154.8</ele>
        <time>2026-03-29T11:25:55Z</time>
      </trkpt>
      <trkpt lat="48.59523" lon="1.91823">
        <ele>154.8</ele>
        <time>2026-03-29T11:25:56Z</time>
      </trkpt>
      <trkpt lat="48.59521" lon="1.91824">
        <ele>154.6</ele>
        <time>2026-03-29T11:25:57Z</time>
      </trkpt>
      <trkpt lat="48.5952" lon="1.91826">
        <ele>155</ele>
        <time>2026-03-29T11:25:58Z</time>
      </trkpt>
      <trkpt lat="48.59518" lon="1.91828">
        <ele>155</ele>
        <time>2026-03-29T11:25:59Z</time>
      </trkpt>
      <trkpt lat="48.59516" lon="1.9183">
        <ele>155</ele>
        <time>2026-03-29T11:26:00Z</time>
      </trkpt>
      <trkpt lat="48.59515" lon="1.91832">
        <ele>155</ele>
        <time>2026-03-29T11:26:01Z</time>
      </trkpt>
      <trkpt lat="48.59513" lon="1.91834">
        <ele>155</ele>
        <time>2026-03-29T11:26:02Z</time>
      </trkpt>
      <trkpt lat="48.59513" lon="1.91836">
        <ele>155</ele>
        <time>2026-03-29T11:26:03Z</time>
      </trkpt>
      <trkpt lat="48.59512" lon="1.91837">
        <ele>155</ele>
        <time>2026-03-29T11:26:04Z</time>
      </trkpt>
      <trkpt lat="48.5951" lon="1.91838">
        <ele>155.4</ele>
        <time>2026-03-29T11:26:05Z</time>
      </trkpt>
      <trkpt lat="48.59509" lon="1.91839">
        <ele>155.8</ele>
        <time>2026-03-29T11:26:06Z</time>
      </trkpt>
      <trkpt lat="48.59507" lon="1.91841">
        <ele>155.8</ele>
        <time>2026-03-29T11:26:07Z</time>
      </trkpt>
      <trkpt lat="48.59506" lon="1.91843">
        <ele>155.8</ele>
        <time>2026-03-29T11:26:08Z</time>
      </trkpt>
      <trkpt lat="48.59504" lon="1.91846">
        <ele>156.8</ele>
        <time>2026-03-29T11:26:09Z</time>
      </trkpt>
      <trkpt lat="48.59503" lon="1.91847">
        <ele>157.4</ele>
        <time>2026-03-29T11:26:10Z</time>
      </trkpt>
      <trkpt lat="48.59501" lon="1.91849">
        <ele>157.4</ele>
        <time>2026-03-29T11:26:11Z</time>
      </trkpt>
      <trkpt lat="48.59499" lon="1.9185">
        <ele>157.4</ele>
        <time>2026-03-29T11:26:12Z</time>
      </trkpt>
      <trkpt lat="48.59497" lon="1.91852">
        <ele>157.4</ele>
        <time>2026-03-29T11:26:13Z</time>
      </trkpt>
      <trkpt lat="48.59496" lon="1.91854">
        <ele>157.8</ele>
        <time>2026-03-29T11:26:14Z</time>
      </trkpt>
      <trkpt lat="48.59494" lon="1.91857">
        <ele>157.8</ele>
        <time>2026-03-29T11:26:15Z</time>
      </trkpt>
      <trkpt lat="48.59492" lon="1.91858">
        <ele>157.8</ele>
        <time>2026-03-29T11:26:16Z</time>
      </trkpt>
      <trkpt lat="48.5949" lon="1.91859">
        <ele>158.8</ele>
        <time>2026-03-29T11:26:17Z</time>
      </trkpt>
      <trkpt lat="48.59488" lon="1.91859">
        <ele>159.2</ele>
        <time>2026-03-29T11:26:18Z</time>
      </trkpt>
      <trkpt lat="48.59486" lon="1.9186">
        <ele>159.2</ele>
        <time>2026-03-29T11:26:19Z</time>
      </trkpt>
      <trkpt lat="48.59484" lon="1.9186">
        <ele>159.2</ele>
        <time>2026-03-29T11:26:20Z</time>
      </trkpt>
      <trkpt lat="48.59483" lon="1.91861">
        <ele>159.2</ele>
        <time>2026-03-29T11:26:21Z</time>
      </trkpt>
      <trkpt lat="48.59481" lon="1.91862">
        <ele>159.8</ele>
        <time>2026-03-29T11:26:22Z</time>
      </trkpt>
      <trkpt lat="48.59479" lon="1.91863">
        <ele>159.8</ele>
        <time>2026-03-29T11:26:23Z</time>
      </trkpt>
      <trkpt lat="48.59477" lon="1.91865">
        <ele>159.8</ele>
        <time>2026-03-29T11:26:24Z</time>
      </trkpt>
      <trkpt lat="48.59475" lon="1.91866">
        <ele>159.8</ele>
        <time>2026-03-29T11:26:25Z</time>
      </trkpt>
      <trkpt lat="48.59473" lon="1.91868">
        <ele>160.2</ele>
        <time>2026-03-29T11:26:26Z</time>
      </trkpt>
      <trkpt lat="48.59472" lon="1.91868">
        <ele>160.2</ele>
        <time>2026-03-29T11:26:27Z</time>
      </trkpt>
      <trkpt lat="48.59469" lon="1.91869">
        <ele>160.2</ele>
        <time>2026-03-29T11:26:28Z</time>
      </trkpt>
      <trkpt lat="48.59466" lon="1.9187">
        <ele>159.2</ele>
        <time>2026-03-29T11:26:29Z</time>
      </trkpt>
      <trkpt lat="48.59462" lon="1.91871">
        <ele>159</ele>
        <time>2026-03-29T11:26:30Z</time>
      </trkpt>
      <trkpt lat="48.59457" lon="1.91871">
        <ele>159</ele>
        <time>2026-03-29T11:26:31Z</time>
      </trkpt>
      <trkpt lat="48.59452" lon="1.91873">
        <ele>159</ele>
        <time>2026-03-29T11:26:32Z</time>
      </trkpt>
      <trkpt lat="48.59448" lon="1.91873">
        <ele>158</ele>
        <time>2026-03-29T11:26:33Z</time>
      </trkpt>
      <trkpt lat="48.59443" lon="1.91875">
        <ele>157.6</ele>
        <time>2026-03-29T11:26:34Z</time>
      </trkpt>
      <trkpt lat="48.5944" lon="1.91877">
        <ele>157.6</ele>
        <time>2026-03-29T11:26:35Z</time>
      </trkpt>
      <trkpt lat="48.59435" lon="1.91878">
        <ele>157.6</ele>
        <time>2026-03-29T11:26:36Z</time>
      </trkpt>
      <trkpt lat="48.59432" lon="1.9188">
        <ele>157.6</ele>
        <time>2026-03-29T11:26:37Z</time>
      </trkpt>
      <trkpt lat="48.59428" lon="1.91881">
        <ele>157.4</ele>
        <time>2026-03-29T11:26:38Z</time>
      </trkpt>
      <trkpt lat="48.59423" lon="1.91883">
        <ele>157.4</ele>
        <time>2026-03-29T11:26:39Z</time>
      </trkpt>
      <trkpt lat="48.5942" lon="1.91884">
        <ele>157.4</ele>
        <time>2026-03-29T11:26:40Z</time>
      </trkpt>
      <trkpt lat="48.59417" lon="1.91885">
        <ele>157.4</ele>
        <time>2026-03-29T11:26:41Z</time>
      </trkpt>
      <trkpt lat="48.59414" lon="1.91886">
        <ele>157.2</ele>
        <time>2026-03-29T11:26:42Z</time>
      </trkpt>
      <trkpt lat="48.5941" lon="1.91888">
        <ele>157.2</ele>
        <time>2026-03-29T11:26:43Z</time>
      </trkpt>
      <trkpt lat="48.59406" lon="1.91889">
        <ele>157.2</ele>
        <time>2026-03-29T11:26:44Z</time>
      </trkpt>
      <trkpt lat="48.59402" lon="1.91892">
        <ele>157.2</ele>
        <time>2026-03-29T11:26:45Z</time>
      </trkpt>
      <trkpt lat="48.59399" lon="1.91893">
        <ele>157.2</ele>
        <time>2026-03-29T11:26:46Z</time>
      </trkpt>
      <trkpt lat="48.59396" lon="1.91894">
        <ele>157.2</ele>
        <time>2026-03-29T11:26:47Z</time>
      </trkpt>
      <trkpt lat="48.59393" lon="1.91896">
        <ele>157.2</ele>
        <time>2026-03-29T11:26:48Z</time>
      </trkpt>
      <trkpt lat="48.59389" lon="1.91897">
        <ele>157</ele>
        <time>2026-03-29T11:26:49Z</time>
      </trkpt>
      <trkpt lat="48.59386" lon="1.91897">
        <ele>157.4</ele>
        <time>2026-03-29T11:26:50Z</time>
      </trkpt>
      <trkpt lat="48.59382" lon="1.91898">
        <ele>157.4</ele>
        <time>2026-03-29T11:26:51Z</time>
      </trkpt>
      <trkpt lat="48.59379" lon="1.919">
        <ele>157.4</ele>
        <time>2026-03-29T11:26:52Z</time>
      </trkpt>
      <trkpt lat="48.59376" lon="1.91902">
        <ele>157.4</ele>
        <time>2026-03-29T11:26:53Z</time>
      </trkpt>
      <trkpt lat="48.59374" lon="1.91904">
        <ele>157.8</ele>
        <time>2026-03-29T11:26:54Z</time>
      </trkpt>
      <trkpt lat="48.59371" lon="1.91906">
        <ele>157.8</ele>
        <time>2026-03-29T11:26:55Z</time>
      </trkpt>
      <trkpt lat="48.59368" lon="1.91907">
        <ele>157.8</ele>
        <time>2026-03-29T11:26:56Z</time>
      </trkpt>
      <trkpt lat="48.59366" lon="1.91908">
        <ele>157.8</ele>
        <time>2026-03-29T11:26:57Z</time>
      </trkpt>
      <trkpt lat="48.59363" lon="1.91908">
        <ele>157.4</ele>
        <time>2026-03-29T11:26:58Z</time>
      </trkpt>
      <trkpt lat="48.5936" lon="1.91908">
        <ele>157.4</ele>
        <time>2026-03-29T11:26:59Z</time>
      </trkpt>
      <trkpt lat="48.59357" lon="1.91909">
        <ele>157.4</ele>
        <time>2026-03-29T11:27:00Z</time>
      </trkpt>
      <trkpt lat="48.59354" lon="1.9191">
        <ele>156.4</ele>
        <time>2026-03-29T11:27:01Z</time>
      </trkpt>
      <trkpt lat="48.59349" lon="1.91912">
        <ele>156.2</ele>
        <time>2026-03-29T11:27:02Z</time>
      </trkpt>
      <trkpt lat="48.59346" lon="1.91912">
        <ele>156.2</ele>
        <time>2026-03-29T11:27:03Z</time>
      </trkpt>
      <trkpt lat="48.59341" lon="1.91915">
        <ele>156.2</ele>
        <time>2026-03-29T11:27:04Z</time>
      </trkpt>
      <trkpt lat="48.59338" lon="1.91917">
        <ele>155.4</ele>
        <time>2026-03-29T11:27:05Z</time>
      </trkpt>
      <trkpt lat="48.59334" lon="1.91919">
        <ele>155.6</ele>
        <time>2026-03-29T11:27:06Z</time>
      </trkpt>
      <trkpt lat="48.59331" lon="1.91919">
        <ele>155.6</ele>
        <time>2026-03-29T11:27:07Z</time>
      </trkpt>
      <trkpt lat="48.59328" lon="1.91917">
        <ele>155.6</ele>
        <time>2026-03-29T11:27:08Z</time>
      </trkpt>
      <trkpt lat="48.59327" lon="1.91915">
        <ele>155.6</ele>
        <time>2026-03-29T11:27:09Z</time>
      </trkpt>
      <trkpt lat="48.59326" lon="1.91913">
        <ele>156</ele>
        <time>2026-03-29T11:27:10Z</time>
      </trkpt>
      <trkpt lat="48.59325" lon="1.9191">
        <ele>156</ele>
        <time>2026-03-29T11:27:11Z</time>
      </trkpt>
      <trkpt lat="48.59324" lon="1.91908">
        <ele>156</ele>
        <time>2026-03-29T11:27:12Z</time>
      </trkpt>
      <trkpt lat="48.59322" lon="1.91905">
        <ele>156</ele>
        <time>2026-03-29T11:27:13Z</time>
      </trkpt>
      <trkpt lat="48.5932" lon="1.91901">
        <ele>156.4</ele>
        <time>2026-03-29T11:27:14Z</time>
      </trkpt>
      <trkpt lat="48.59319" lon="1.91898">
        <ele>156.4</ele>
        <time>2026-03-29T11:27:15Z</time>
      </trkpt>
      <trkpt lat="48.59318" lon="1.91895">
        <ele>156.4</ele>
        <time>2026-03-29T11:27:16Z</time>
      </trkpt>
      <trkpt lat="48.59316" lon="1.91892">
        <ele>156.2</ele>
        <time>2026-03-29T11:27:17Z</time>
      </trkpt>
      <trkpt lat="48.59315" lon="1.91889">
        <ele>156.6</ele>
        <time>2026-03-29T11:27:18Z</time>
      </trkpt>
      <trkpt lat="48.59314" lon="1.91886">
        <ele>156.6</ele>
        <time>2026-03-29T11:27:19Z</time>
      </trkpt>
      <trkpt lat="48.59312" lon="1.91882">
        <ele>156.6</ele>
        <time>2026-03-29T11:27:20Z</time>
      </trkpt>
      <trkpt lat="48.59311" lon="1.91879">
        <ele>156.8</ele>
        <time>2026-03-29T11:27:21Z</time>
      </trkpt>
      <trkpt lat="48.59309" lon="1.91875">
        <ele>157</ele>
        <time>2026-03-29T11:27:22Z</time>
      </trkpt>
      <trkpt lat="48.59308" lon="1.91871">
        <ele>157</ele>
        <time>2026-03-29T11:27:23Z</time>
      </trkpt>
      <trkpt lat="48.59306" lon="1.91868">
        <ele>157</ele>
        <time>2026-03-29T11:27:24Z</time>
      </trkpt>
      <trkpt lat="48.59305" lon="1.91864">
        <ele>157.2</ele>
        <time>2026-03-29T11:27:25Z</time>
      </trkpt>
      <trkpt lat="48.59303" lon="1.9186">
        <ele>156.8</ele>
        <time>2026-03-29T11:27:26Z</time>
      </trkpt>
      <trkpt lat="48.59301" lon="1.91856">
        <ele>156.8</ele>
        <time>2026-03-29T11:27:27Z</time>
      </trkpt>
      <trkpt lat="48.593" lon="1.91852">
        <ele>156.8</ele>
        <time>2026-03-29T11:27:28Z</time>
      </trkpt>
      <trkpt lat="48.59299" lon="1.91849">
        <ele>157.4</ele>
        <time>2026-03-29T11:27:29Z</time>
      </trkpt>
      <trkpt lat="48.59298" lon="1.91846">
        <ele>157.6</ele>
        <time>2026-03-29T11:27:30Z</time>
      </trkpt>
      <trkpt lat="48.59296" lon="1.91843">
        <ele>157.6</ele>
        <time>2026-03-29T11:27:31Z</time>
      </trkpt>
      <trkpt lat="48.59295" lon="1.91839">
        <ele>157.6</ele>
        <time>2026-03-29T11:27:32Z</time>
      </trkpt>
      <trkpt lat="48.59294" lon="1.91836">
        <ele>158.6</ele>
        <time>2026-03-29T11:27:33Z</time>
      </trkpt>
      <trkpt lat="48.59292" lon="1.91833">
        <ele>158.8</ele>
        <time>2026-03-29T11:27:34Z</time>
      </trkpt>
      <trkpt lat="48.5929" lon="1.91829">
        <ele>158.8</ele>
        <time>2026-03-29T11:27:35Z</time>
      </trkpt>
      <trkpt lat="48.59289" lon="1.91826">
        <ele>158.8</ele>
        <time>2026-03-29T11:27:36Z</time>
      </trkpt>
      <trkpt lat="48.59289" lon="1.91823">
        <ele>158.8</ele>
        <time>2026-03-29T11:27:37Z</time>
      </trkpt>
      <trkpt lat="48.59287" lon="1.91819">
        <ele>159.4</ele>
        <time>2026-03-29T11:27:38Z</time>
      </trkpt>
      <trkpt lat="48.59287" lon="1.91814">
        <ele>159.4</ele>
        <time>2026-03-29T11:27:39Z</time>
      </trkpt>
      <trkpt lat="48.59286" lon="1.9181">
        <ele>159.4</ele>
        <time>2026-03-29T11:27:40Z</time>
      </trkpt>
      <trkpt lat="48.59284" lon="1.91805">
        <ele>159.4</ele>
        <time>2026-03-29T11:27:41Z</time>
      </trkpt>
      <trkpt lat="48.59283" lon="1.91802">
        <ele>159.6</ele>
        <time>2026-03-29T11:27:42Z</time>
      </trkpt>
      <trkpt lat="48.59282" lon="1.91798">
        <ele>159.6</ele>
        <time>2026-03-29T11:27:43Z</time>
      </trkpt>
      <trkpt lat="48.5928" lon="1.91793">
        <ele>159.6</ele>
        <time>2026-03-29T11:27:44Z</time>
      </trkpt>
      <trkpt lat="48.59279" lon="1.91789">
        <ele>160.4</ele>
        <time>2026-03-29T11:27:45Z</time>
      </trkpt>
      <trkpt lat="48.59278" lon="1.91785">
        <ele>160.8</ele>
        <time>2026-03-29T11:27:46Z</time>
      </trkpt>
      <trkpt lat="48.59278" lon="1.91782">
        <ele>160.8</ele>
        <time>2026-03-29T11:27:47Z</time>
      </trkpt>
      <trkpt lat="48.59277" lon="1.91778">
        <ele>160.8</ele>
        <time>2026-03-29T11:27:48Z</time>
      </trkpt>
      <trkpt lat="48.59276" lon="1.91774">
        <ele>160.8</ele>
        <time>2026-03-29T11:27:49Z</time>
      </trkpt>
      <trkpt lat="48.59274" lon="1.9177">
        <ele>160.8</ele>
        <time>2026-03-29T11:27:50Z</time>
      </trkpt>
      <trkpt lat="48.59273" lon="1.91766">
        <ele>160.8</ele>
        <time>2026-03-29T11:27:51Z</time>
      </trkpt>
      <trkpt lat="48.59271" lon="1.91761">
        <ele>160.8</ele>
        <time>2026-03-29T11:27:52Z</time>
      </trkpt>
      <trkpt lat="48.5927" lon="1.91757">
        <ele>160.8</ele>
        <time>2026-03-29T11:27:53Z</time>
      </trkpt>
      <trkpt lat="48.59269" lon="1.91752">
        <ele>161.2</ele>
        <time>2026-03-29T11:27:54Z</time>
      </trkpt>
      <trkpt lat="48.59268" lon="1.91747">
        <ele>161.2</ele>
        <time>2026-03-29T11:27:55Z</time>
      </trkpt>
      <trkpt lat="48.59266" lon="1.91743">
        <ele>161.2</ele>
        <time>2026-03-29T11:27:56Z</time>
      </trkpt>
      <trkpt lat="48.59265" lon="1.91739">
        <ele>161.2</ele>
        <time>2026-03-29T11:27:57Z</time>
      </trkpt>
      <trkpt lat="48.59264" lon="1.91735">
        <ele>161.6</ele>
        <time>2026-03-29T11:27:58Z</time>
      </trkpt>
      <trkpt lat="48.59262" lon="1.91733">
        <ele>161.6</ele>
        <time>2026-03-29T11:27:59Z</time>
      </trkpt>
      <trkpt lat="48.59261" lon="1.91728">
        <ele>161.6</ele>
        <time>2026-03-29T11:28:00Z</time>
      </trkpt>
      <trkpt lat="48.59259" lon="1.91724">
        <ele>161.6</ele>
        <time>2026-03-29T11:28:01Z</time>
      </trkpt>
      <trkpt lat="48.59257" lon="1.91718">
        <ele>161.6</ele>
        <time>2026-03-29T11:28:02Z</time>
      </trkpt>
      <trkpt lat="48.59256" lon="1.91713">
        <ele>161.6</ele>
        <time>2026-03-29T11:28:03Z</time>
      </trkpt>
      <trkpt lat="48.59254" lon="1.91708">
        <ele>161.6</ele>
        <time>2026-03-29T11:28:04Z</time>
      </trkpt>
      <trkpt lat="48.59252" lon="1.91703">
        <ele>161.6</ele>
        <time>2026-03-29T11:28:05Z</time>
      </trkpt>
      <trkpt lat="48.59251" lon="1.917">
        <ele>161.6</ele>
        <time>2026-03-29T11:28:06Z</time>
      </trkpt>
      <trkpt lat="48.5925" lon="1.91695">
        <ele>161.6</ele>
        <time>2026-03-29T11:28:07Z</time>
      </trkpt>
      <trkpt lat="48.59248" lon="1.91689">
        <ele>161.6</ele>
        <time>2026-03-29T11:28:08Z</time>
      </trkpt>
      <trkpt lat="48.59247" lon="1.91684">
        <ele>161.2</ele>
        <time>2026-03-29T11:28:09Z</time>
      </trkpt>
      <trkpt lat="48.59245" lon="1.91679">
        <ele>161</ele>
        <time>2026-03-29T11:28:10Z</time>
      </trkpt>
      <trkpt lat="48.59244" lon="1.91673">
        <ele>161</ele>
        <time>2026-03-29T11:28:11Z</time>
      </trkpt>
      <trkpt lat="48.59242" lon="1.9167">
        <ele>161</ele>
        <time>2026-03-29T11:28:12Z</time>
      </trkpt>
      <trkpt lat="48.5924" lon="1.91665">
        <ele>161</ele>
        <time>2026-03-29T11:28:13Z</time>
      </trkpt>
      <trkpt lat="48.59238" lon="1.91661">
        <ele>160.6</ele>
        <time>2026-03-29T11:28:14Z</time>
      </trkpt>
      <trkpt lat="48.59237" lon="1.91656">
        <ele>160.6</ele>
        <time>2026-03-29T11:28:15Z</time>
      </trkpt>
      <trkpt lat="48.59236" lon="1.91652">
        <ele>160.6</ele>
        <time>2026-03-29T11:28:16Z</time>
      </trkpt>
      <trkpt lat="48.59236" lon="1.91649">
        <ele>160.6</ele>
        <time>2026-03-29T11:28:17Z</time>
      </trkpt>
      <trkpt lat="48.59235" lon="1.91647">
        <ele>161.2</ele>
        <time>2026-03-29T11:28:18Z</time>
      </trkpt>
      <trkpt lat="48.59235" lon="1.91644">
        <ele>161.2</ele>
        <time>2026-03-29T11:28:19Z</time>
      </trkpt>
      <trkpt lat="48.59233" lon="1.9164">
        <ele>161.2</ele>
        <time>2026-03-29T11:28:20Z</time>
      </trkpt>
      <trkpt lat="48.59232" lon="1.91636">
        <ele>161.2</ele>
        <time>2026-03-29T11:28:21Z</time>
      </trkpt>
      <trkpt lat="48.5923" lon="1.91633">
        <ele>161.4</ele>
        <time>2026-03-29T11:28:22Z</time>
      </trkpt>
      <trkpt lat="48.59229" lon="1.9163">
        <ele>161.4</ele>
        <time>2026-03-29T11:28:23Z</time>
      </trkpt>
      <trkpt lat="48.59227" lon="1.91627">
        <ele>161.4</ele>
        <time>2026-03-29T11:28:24Z</time>
      </trkpt>
      <trkpt lat="48.59226" lon="1.91624">
        <ele>161.4</ele>
        <time>2026-03-29T11:28:25Z</time>
      </trkpt>
      <trkpt lat="48.59224" lon="1.9162">
        <ele>161.6</ele>
        <time>2026-03-29T11:28:26Z</time>
      </trkpt>
      <trkpt lat="48.59223" lon="1.91616">
        <ele>161.6</ele>
        <time>2026-03-29T11:28:27Z</time>
      </trkpt>
      <trkpt lat="48.59221" lon="1.91614">
        <ele>161.6</ele>
        <time>2026-03-29T11:28:28Z</time>
      </trkpt>
      <trkpt lat="48.5922" lon="1.91611">
        <ele>161.6</ele>
        <time>2026-03-29T11:28:29Z</time>
      </trkpt>
      <trkpt lat="48.59219" lon="1.91607">
        <ele>161.6</ele>
        <time>2026-03-29T11:28:30Z</time>
      </trkpt>
      <trkpt lat="48.59217" lon="1.91603">
        <ele>161.6</ele>
        <time>2026-03-29T11:28:31Z</time>
      </trkpt>
      <trkpt lat="48.59216" lon="1.916">
        <ele>161.6</ele>
        <time>2026-03-29T11:28:32Z</time>
      </trkpt>
      <trkpt lat="48.59214" lon="1.91595">
        <ele>162.4</ele>
        <time>2026-03-29T11:28:33Z</time>
      </trkpt>
      <trkpt lat="48.59213" lon="1.9159">
        <ele>162.2</ele>
        <time>2026-03-29T11:28:34Z</time>
      </trkpt>
      <trkpt lat="48.59211" lon="1.91586">
        <ele>162.2</ele>
        <time>2026-03-29T11:28:35Z</time>
      </trkpt>
      <trkpt lat="48.5921" lon="1.91582">
        <ele>162.2</ele>
        <time>2026-03-29T11:28:36Z</time>
      </trkpt>
      <trkpt lat="48.59209" lon="1.91578">
        <ele>162.2</ele>
        <time>2026-03-29T11:28:37Z</time>
      </trkpt>
      <trkpt lat="48.59208" lon="1.91575">
        <ele>162.6</ele>
        <time>2026-03-29T11:28:38Z</time>
      </trkpt>
      <trkpt lat="48.59206" lon="1.91571">
        <ele>162.6</ele>
        <time>2026-03-29T11:28:39Z</time>
      </trkpt>
      <trkpt lat="48.59206" lon="1.91569">
        <ele>162.6</ele>
        <time>2026-03-29T11:28:40Z</time>
      </trkpt>
      <trkpt lat="48.59204" lon="1.91565">
        <ele>162.6</ele>
        <time>2026-03-29T11:28:41Z</time>
      </trkpt>
      <trkpt lat="48.59203" lon="1.91561">
        <ele>163.6</ele>
        <time>2026-03-29T11:28:42Z</time>
      </trkpt>
      <trkpt lat="48.59201" lon="1.91558">
        <ele>163.6</ele>
        <time>2026-03-29T11:28:43Z</time>
      </trkpt>
      <trkpt lat="48.59199" lon="1.91555">
        <ele>163.6</ele>
        <time>2026-03-29T11:28:44Z</time>
      </trkpt>
      <trkpt lat="48.59198" lon="1.91551">
        <ele>163.6</ele>
        <time>2026-03-29T11:28:45Z</time>
      </trkpt>
      <trkpt lat="48.59196" lon="1.91548">
        <ele>164</ele>
        <time>2026-03-29T11:28:46Z</time>
      </trkpt>
      <trkpt lat="48.59195" lon="1.91544">
        <ele>164</ele>
        <time>2026-03-29T11:28:47Z</time>
      </trkpt>
      <trkpt lat="48.59194" lon="1.9154">
        <ele>164</ele>
        <time>2026-03-29T11:28:48Z</time>
      </trkpt>
      <trkpt lat="48.59193" lon="1.91537">
        <ele>164</ele>
        <time>2026-03-29T11:28:49Z</time>
      </trkpt>
      <trkpt lat="48.59192" lon="1.91533">
        <ele>164.4</ele>
        <time>2026-03-29T11:28:50Z</time>
      </trkpt>
      <trkpt lat="48.59191" lon="1.91531">
        <ele>164.4</ele>
        <time>2026-03-29T11:28:51Z</time>
      </trkpt>
      <trkpt lat="48.59191" lon="1.91528">
        <ele>164.4</ele>
        <time>2026-03-29T11:28:52Z</time>
      </trkpt>
      <trkpt lat="48.5919" lon="1.91526">
        <ele>165</ele>
        <time>2026-03-29T11:28:53Z</time>
      </trkpt>
      <trkpt lat="48.59189" lon="1.91524">
        <ele>165.4</ele>
        <time>2026-03-29T11:28:54Z</time>
      </trkpt>
      <trkpt lat="48.59188" lon="1.91521">
        <ele>165.4</ele>
        <time>2026-03-29T11:28:55Z</time>
      </trkpt>
      <trkpt lat="48.59188" lon="1.91518">
        <ele>165.4</ele>
        <time>2026-03-29T11:28:56Z</time>
      </trkpt>
      <trkpt lat="48.59186" lon="1.91515">
        <ele>165.4</ele>
        <time>2026-03-29T11:28:57Z</time>
      </trkpt>
      <trkpt lat="48.59185" lon="1.91512">
        <ele>165.4</ele>
        <time>2026-03-29T11:28:58Z</time>
      </trkpt>
      <trkpt lat="48.59184" lon="1.91509">
        <ele>165.4</ele>
        <time>2026-03-29T11:28:59Z</time>
      </trkpt>
      <trkpt lat="48.59183" lon="1.91507">
        <ele>165.4</ele>
        <time>2026-03-29T11:29:00Z</time>
      </trkpt>
      <trkpt lat="48.59183" lon="1.91505">
        <ele>166</ele>
        <time>2026-03-29T11:29:01Z</time>
      </trkpt>
      <trkpt lat="48.59182" lon="1.91504">
        <ele>166.4</ele>
        <time>2026-03-29T11:29:02Z</time>
      </trkpt>
      <trkpt lat="48.59182" lon="1.91502">
        <ele>166.4</ele>
        <time>2026-03-29T11:29:03Z</time>
      </trkpt>
      <trkpt lat="48.59181" lon="1.91499">
        <ele>166.4</ele>
        <time>2026-03-29T11:29:04Z</time>
      </trkpt>
      <trkpt lat="48.5918" lon="1.91496">
        <ele>166.4</ele>
        <time>2026-03-29T11:29:05Z</time>
      </trkpt>
      <trkpt lat="48.59178" lon="1.91493">
        <ele>167.2</ele>
        <time>2026-03-29T11:29:06Z</time>
      </trkpt>
      <trkpt lat="48.59177" lon="1.91491">
        <ele>167.2</ele>
        <time>2026-03-29T11:29:07Z</time>
      </trkpt>
      <trkpt lat="48.59176" lon="1.91488">
        <ele>167.2</ele>
        <time>2026-03-29T11:29:08Z</time>
      </trkpt>
      <trkpt lat="48.59175" lon="1.91486">
        <ele>167.2</ele>
        <time>2026-03-29T11:29:09Z</time>
      </trkpt>
      <trkpt lat="48.59174" lon="1.91482">
        <ele>167.6</ele>
        <time>2026-03-29T11:29:10Z</time>
      </trkpt>
      <trkpt lat="48.59174" lon="1.91479">
        <ele>167.6</ele>
        <time>2026-03-29T11:29:11Z</time>
      </trkpt>
      <trkpt lat="48.59173" lon="1.91477">
        <ele>167.6</ele>
        <time>2026-03-29T11:29:12Z</time>
      </trkpt>
      <trkpt lat="48.59172" lon="1.91474">
        <ele>168.6</ele>
        <time>2026-03-29T11:29:13Z</time>
      </trkpt>
      <trkpt lat="48.5917" lon="1.91471">
        <ele>168.4</ele>
        <time>2026-03-29T11:29:14Z</time>
      </trkpt>
      <trkpt lat="48.59169" lon="1.91469">
        <ele>168.4</ele>
        <time>2026-03-29T11:29:15Z</time>
      </trkpt>
      <trkpt lat="48.59168" lon="1.91466">
        <ele>168.4</ele>
        <time>2026-03-29T11:29:16Z</time>
      </trkpt>
      <trkpt lat="48.59167" lon="1.91464">
        <ele>169.2</ele>
        <time>2026-03-29T11:29:17Z</time>
      </trkpt>
      <trkpt lat="48.59166" lon="1.91463">
        <ele>169.6</ele>
        <time>2026-03-29T11:29:18Z</time>
      </trkpt>
      <trkpt lat="48.59165" lon="1.9146">
        <ele>169.6</ele>
        <time>2026-03-29T11:29:19Z</time>
      </trkpt>
      <trkpt lat="48.59165" lon="1.91459">
        <ele>169.6</ele>
        <time>2026-03-29T11:29:20Z</time>
      </trkpt>
      <trkpt lat="48.59164" lon="1.91457">
        <ele>169.6</ele>
        <time>2026-03-29T11:29:21Z</time>
      </trkpt>
      <trkpt lat="48.59163" lon="1.91455">
        <ele>170.4</ele>
        <time>2026-03-29T11:29:22Z</time>
      </trkpt>
      <trkpt lat="48.59162" lon="1.91453">
        <ele>170.4</ele>
        <time>2026-03-29T11:29:23Z</time>
      </trkpt>
      <trkpt lat="48.59161" lon="1.91451">
        <ele>170.4</ele>
        <time>2026-03-29T11:29:24Z</time>
      </trkpt>
      <trkpt lat="48.5916" lon="1.91449">
        <ele>170.4</ele>
        <time>2026-03-29T11:29:25Z</time>
      </trkpt>
      <trkpt lat="48.59159" lon="1.91446">
        <ele>171.2</ele>
        <time>2026-03-29T11:29:26Z</time>
      </trkpt>
      <trkpt lat="48.59158" lon="1.91445">
        <ele>171.2</ele>
        <time>2026-03-29T11:29:27Z</time>
      </trkpt>
      <trkpt lat="48.59157" lon="1.91443">
        <ele>171.2</ele>
        <time>2026-03-29T11:29:28Z</time>
      </trkpt>
      <trkpt lat="48.59155" lon="1.91441">
        <ele>171.2</ele>
        <time>2026-03-29T11:29:29Z</time>
      </trkpt>
      <trkpt lat="48.59154" lon="1.91439">
        <ele>171.8</ele>
        <time>2026-03-29T11:29:30Z</time>
      </trkpt>
      <trkpt lat="48.59153" lon="1.91437">
        <ele>171.8</ele>
        <time>2026-03-29T11:29:31Z</time>
      </trkpt>
      <trkpt lat="48.59153" lon="1.91434">
        <ele>171.8</ele>
        <time>2026-03-29T11:29:32Z</time>
      </trkpt>
      <trkpt lat="48.59152" lon="1.91432">
        <ele>172.2</ele>
        <time>2026-03-29T11:29:33Z</time>
      </trkpt>
      <trkpt lat="48.59151" lon="1.91431">
        <ele>172.4</ele>
        <time>2026-03-29T11:29:34Z</time>
      </trkpt>
      <trkpt lat="48.5915" lon="1.91429">
        <ele>172.4</ele>
        <time>2026-03-29T11:29:35Z</time>
      </trkpt>
      <trkpt lat="48.59149" lon="1.91427">
        <ele>172.4</ele>
        <time>2026-03-29T11:29:36Z</time>
      </trkpt>
      <trkpt lat="48.59148" lon="1.91425">
        <ele>172.4</ele>
        <time>2026-03-29T11:29:37Z</time>
      </trkpt>
      <trkpt lat="48.59147" lon="1.91424">
        <ele>172.6</ele>
        <time>2026-03-29T11:29:38Z</time>
      </trkpt>
      <trkpt lat="48.59146" lon="1.91421">
        <ele>172.6</ele>
        <time>2026-03-29T11:29:39Z</time>
      </trkpt>
      <trkpt lat="48.59145" lon="1.9142">
        <ele>172.6</ele>
        <time>2026-03-29T11:29:40Z</time>
      </trkpt>
      <trkpt lat="48.59144" lon="1.91418">
        <ele>173.6</ele>
        <time>2026-03-29T11:29:41Z</time>
      </trkpt>
      <trkpt lat="48.59143" lon="1.91415">
        <ele>174</ele>
        <time>2026-03-29T11:29:42Z</time>
      </trkpt>
      <trkpt lat="48.59142" lon="1.91413">
        <ele>174</ele>
        <time>2026-03-29T11:29:43Z</time>
      </trkpt>
      <trkpt lat="48.59141" lon="1.91411">
        <ele>174</ele>
        <time>2026-03-29T11:29:44Z</time>
      </trkpt>
      <trkpt lat="48.59141" lon="1.9141">
        <ele>174</ele>
        <time>2026-03-29T11:29:45Z</time>
      </trkpt>
      <trkpt lat="48.5914" lon="1.91408">
        <ele>174.8</ele>
        <time>2026-03-29T11:29:46Z</time>
      </trkpt>
      <trkpt lat="48.5914" lon="1.91406">
        <ele>174.8</ele>
        <time>2026-03-29T11:29:47Z</time>
      </trkpt>
      <trkpt lat="48.59139" lon="1.91404">
        <ele>174.8</ele>
        <time>2026-03-29T11:29:48Z</time>
      </trkpt>
      <trkpt lat="48.59138" lon="1.91402">
        <ele>174.8</ele>
        <time>2026-03-29T11:29:49Z</time>
      </trkpt>
      <trkpt lat="48.59138" lon="1.91401">
        <ele>175</ele>
        <time>2026-03-29T11:29:50Z</time>
      </trkpt>
      <trkpt lat="48.59137" lon="1.91399">
        <ele>175</ele>
        <time>2026-03-29T11:29:51Z</time>
      </trkpt>
      <trkpt lat="48.59136" lon="1.91397">
        <ele>175</ele>
        <time>2026-03-29T11:29:52Z</time>
      </trkpt>
      <trkpt lat="48.59135" lon="1.91395">
        <ele>176</ele>
        <time>2026-03-29T11:29:53Z</time>
      </trkpt>
      <trkpt lat="48.59134" lon="1.91392">
        <ele>176.2</ele>
        <time>2026-03-29T11:29:54Z</time>
      </trkpt>
      <trkpt lat="48.59134" lon="1.9139">
        <ele>176.2</ele>
        <time>2026-03-29T11:29:55Z</time>
      </trkpt>
      <trkpt lat="48.59132" lon="1.91387">
        <ele>176.2</ele>
        <time>2026-03-29T11:29:56Z</time>
      </trkpt>
      <trkpt lat="48.59132" lon="1.91384">
        <ele>176.2</ele>
        <time>2026-03-29T11:29:57Z</time>
      </trkpt>
      <trkpt lat="48.59131" lon="1.91382">
        <ele>176.2</ele>
        <time>2026-03-29T11:29:58Z</time>
      </trkpt>
      <trkpt lat="48.5913" lon="1.9138">
        <ele>176.2</ele>
        <time>2026-03-29T11:29:59Z</time>
      </trkpt>
      <trkpt lat="48.5913" lon="1.91378">
        <ele>176.2</ele>
        <time>2026-03-29T11:30:00Z</time>
      </trkpt>
      <trkpt lat="48.59128" lon="1.91374">
        <ele>177</ele>
        <time>2026-03-29T11:30:01Z</time>
      </trkpt>
      <trkpt lat="48.59128" lon="1.91371">
        <ele>176.8</ele>
        <time>2026-03-29T11:30:02Z</time>
      </trkpt>
      <trkpt lat="48.59127" lon="1.91368">
        <ele>176.8</ele>
        <time>2026-03-29T11:30:03Z</time>
      </trkpt>
      <trkpt lat="48.59125" lon="1.91366">
        <ele>176.8</ele>
        <time>2026-03-29T11:30:04Z</time>
      </trkpt>
      <trkpt lat="48.59124" lon="1.91364">
        <ele>177.2</ele>
        <time>2026-03-29T11:30:05Z</time>
      </trkpt>
      <trkpt lat="48.59123" lon="1.91362">
        <ele>177.2</ele>
        <time>2026-03-29T11:30:06Z</time>
      </trkpt>
      <trkpt lat="48.59122" lon="1.91359">
        <ele>177.2</ele>
        <time>2026-03-29T11:30:07Z</time>
      </trkpt>
      <trkpt lat="48.59121" lon="1.91357">
        <ele>177.2</ele>
        <time>2026-03-29T11:30:08Z</time>
      </trkpt>
      <trkpt lat="48.59121" lon="1.91355">
        <ele>177</ele>
        <time>2026-03-29T11:30:09Z</time>
      </trkpt>
      <trkpt lat="48.5912" lon="1.91351">
        <ele>177</ele>
        <time>2026-03-29T11:30:10Z</time>
      </trkpt>
      <trkpt lat="48.59119" lon="1.91348">
        <ele>177</ele>
        <time>2026-03-29T11:30:11Z</time>
      </trkpt>
      <trkpt lat="48.59118" lon="1.91346">
        <ele>177</ele>
        <time>2026-03-29T11:30:12Z</time>
      </trkpt>
      <trkpt lat="48.59117" lon="1.91342">
        <ele>177</ele>
        <time>2026-03-29T11:30:13Z</time>
      </trkpt>
      <trkpt lat="48.59115" lon="1.91339">
        <ele>177.4</ele>
        <time>2026-03-29T11:30:14Z</time>
      </trkpt>
      <trkpt lat="48.59114" lon="1.91335">
        <ele>177.4</ele>
        <time>2026-03-29T11:30:15Z</time>
      </trkpt>
      <trkpt lat="48.59113" lon="1.91333">
        <ele>177.4</ele>
        <time>2026-03-29T11:30:16Z</time>
      </trkpt>
      <trkpt lat="48.59113" lon="1.9133">
        <ele>177.4</ele>
        <time>2026-03-29T11:30:17Z</time>
      </trkpt>
      <trkpt lat="48.59112" lon="1.91327">
        <ele>177.8</ele>
        <time>2026-03-29T11:30:18Z</time>
      </trkpt>
      <trkpt lat="48.59111" lon="1.91323">
        <ele>177.8</ele>
        <time>2026-03-29T11:30:19Z</time>
      </trkpt>
      <trkpt lat="48.5911" lon="1.9132">
        <ele>177.8</ele>
        <time>2026-03-29T11:30:20Z</time>
      </trkpt>
      <trkpt lat="48.59109" lon="1.91317">
        <ele>177.8</ele>
        <time>2026-03-29T11:30:21Z</time>
      </trkpt>
      <trkpt lat="48.59108" lon="1.91315">
        <ele>177.6</ele>
        <time>2026-03-29T11:30:22Z</time>
      </trkpt>
      <trkpt lat="48.59108" lon="1.91312">
        <ele>177.6</ele>
        <time>2026-03-29T11:30:23Z</time>
      </trkpt>
      <trkpt lat="48.59107" lon="1.9131">
        <ele>177.6</ele>
        <time>2026-03-29T11:30:24Z</time>
      </trkpt>
      <trkpt lat="48.59106" lon="1.91307">
        <ele>177.6</ele>
        <time>2026-03-29T11:30:25Z</time>
      </trkpt>
      <trkpt lat="48.59105" lon="1.91305">
        <ele>178</ele>
        <time>2026-03-29T11:30:26Z</time>
      </trkpt>
      <trkpt lat="48.59104" lon="1.91302">
        <ele>178</ele>
        <time>2026-03-29T11:30:27Z</time>
      </trkpt>
      <trkpt lat="48.59103" lon="1.91299">
        <ele>178</ele>
        <time>2026-03-29T11:30:28Z</time>
      </trkpt>
      <trkpt lat="48.59102" lon="1.91296">
        <ele>177.8</ele>
        <time>2026-03-29T11:30:29Z</time>
      </trkpt>
      <trkpt lat="48.59102" lon="1.91293">
        <ele>178</ele>
        <time>2026-03-29T11:30:30Z</time>
      </trkpt>
      <trkpt lat="48.59101" lon="1.91289">
        <ele>178</ele>
        <time>2026-03-29T11:30:31Z</time>
      </trkpt>
      <trkpt lat="48.591" lon="1.91285">
        <ele>178</ele>
        <time>2026-03-29T11:30:32Z</time>
      </trkpt>
      <trkpt lat="48.59099" lon="1.91282">
        <ele>177.8</ele>
        <time>2026-03-29T11:30:33Z</time>
      </trkpt>
      <trkpt lat="48.59097" lon="1.91279">
        <ele>177.8</ele>
        <time>2026-03-29T11:30:34Z</time>
      </trkpt>
      <trkpt lat="48.59096" lon="1.91275">
        <ele>177.8</ele>
        <time>2026-03-29T11:30:35Z</time>
      </trkpt>
      <trkpt lat="48.59096" lon="1.91273">
        <ele>177.8</ele>
        <time>2026-03-29T11:30:36Z</time>
      </trkpt>
      <trkpt lat="48.59095" lon="1.9127">
        <ele>177.8</ele>
        <time>2026-03-29T11:30:37Z</time>
      </trkpt>
      <trkpt lat="48.59095" lon="1.91269">
        <ele>177.8</ele>
        <time>2026-03-29T11:30:38Z</time>
      </trkpt>
      <trkpt lat="48.59094" lon="1.91267">
        <ele>177.8</ele>
        <time>2026-03-29T11:30:39Z</time>
      </trkpt>
      <trkpt lat="48.59094" lon="1.91265">
        <ele>177.8</ele>
        <time>2026-03-29T11:30:40Z</time>
      </trkpt>
      <trkpt lat="48.59093" lon="1.91263">
        <ele>177.8</ele>
        <time>2026-03-29T11:30:41Z</time>
      </trkpt>
      <trkpt lat="48.59092" lon="1.91261">
        <ele>177.8</ele>
        <time>2026-03-29T11:30:42Z</time>
      </trkpt>
      <trkpt lat="48.59092" lon="1.9126">
        <ele>177.8</ele>
        <time>2026-03-29T11:30:43Z</time>
      </trkpt>
      <trkpt lat="48.59091" lon="1.91257">
        <ele>177.8</ele>
        <time>2026-03-29T11:30:44Z</time>
      </trkpt>
      <trkpt lat="48.5909" lon="1.91254">
        <ele>177.8</ele>
        <time>2026-03-29T11:30:45Z</time>
      </trkpt>
      <trkpt lat="48.59089" lon="1.91251">
        <ele>177.2</ele>
        <time>2026-03-29T11:30:46Z</time>
      </trkpt>
      <trkpt lat="48.59088" lon="1.91248">
        <ele>177.2</ele>
        <time>2026-03-29T11:30:47Z</time>
      </trkpt>
      <trkpt lat="48.59087" lon="1.91246">
        <ele>177.2</ele>
        <time>2026-03-29T11:30:48Z</time>
      </trkpt>
      <trkpt lat="48.59087" lon="1.91246">
        <ele>177.6</ele>
        <time>2026-03-29T11:30:49Z</time>
      </trkpt>
      <trkpt lat="48.59087" lon="1.91246">
        <ele>177.8</ele>
        <time>2026-03-29T11:30:50Z</time>
      </trkpt>
      <trkpt lat="48.59086" lon="1.91244">
        <ele>177.8</ele>
        <time>2026-03-29T11:30:51Z</time>
      </trkpt>
      <trkpt lat="48.59085" lon="1.91243">
        <ele>177.8</ele>
        <time>2026-03-29T11:30:52Z</time>
      </trkpt>
      <trkpt lat="48.59084" lon="1.91241">
        <ele>177.8</ele>
        <time>2026-03-29T11:30:53Z</time>
      </trkpt>
      <trkpt lat="48.59083" lon="1.91238">
        <ele>178</ele>
        <time>2026-03-29T11:30:54Z</time>
      </trkpt>
      <trkpt lat="48.59082" lon="1.91235">
        <ele>178</ele>
        <time>2026-03-29T11:30:55Z</time>
      </trkpt>
      <trkpt lat="48.59081" lon="1.91233">
        <ele>178</ele>
        <time>2026-03-29T11:30:56Z</time>
      </trkpt>
      <trkpt lat="48.5908" lon="1.9123">
        <ele>177.6</ele>
        <time>2026-03-29T11:30:57Z</time>
      </trkpt>
      <trkpt lat="48.59079" lon="1.91227">
        <ele>178.2</ele>
        <time>2026-03-29T11:30:58Z</time>
      </trkpt>
      <trkpt lat="48.59078" lon="1.91224">
        <ele>178.2</ele>
        <time>2026-03-29T11:30:59Z</time>
      </trkpt>
      <trkpt lat="48.59077" lon="1.91221">
        <ele>178.2</ele>
        <time>2026-03-29T11:31:00Z</time>
      </trkpt>
      <trkpt lat="48.59076" lon="1.91218">
        <ele>178</ele>
        <time>2026-03-29T11:31:01Z</time>
      </trkpt>
      <trkpt lat="48.59075" lon="1.91216">
        <ele>177.8</ele>
        <time>2026-03-29T11:31:02Z</time>
      </trkpt>
      <trkpt lat="48.59075" lon="1.91214">
        <ele>177.8</ele>
        <time>2026-03-29T11:31:03Z</time>
      </trkpt>
      <trkpt lat="48.59074" lon="1.91211">
        <ele>177.8</ele>
        <time>2026-03-29T11:31:04Z</time>
      </trkpt>
      <trkpt lat="48.59073" lon="1.91209">
        <ele>177.8</ele>
        <time>2026-03-29T11:31:05Z</time>
      </trkpt>
      <trkpt lat="48.59073" lon="1.91208">
        <ele>177.4</ele>
        <time>2026-03-29T11:31:06Z</time>
      </trkpt>
      <trkpt lat="48.59073" lon="1.91208">
        <ele>177.4</ele>
        <time>2026-03-29T11:31:07Z</time>
      </trkpt>
      <trkpt lat="48.59069" lon="1.91189">
        <ele>177.8</ele>
        <time>2026-03-29T11:31:23Z</time>
      </trkpt>
      <trkpt lat="48.59068" lon="1.91186">
        <ele>177.8</ele>
        <time>2026-03-29T11:31:24Z</time>
      </trkpt>
      <trkpt lat="48.59067" lon="1.91184">
        <ele>177.4</ele>
        <time>2026-03-29T11:31:25Z</time>
      </trkpt>
      <trkpt lat="48.59067" lon="1.91181">
        <ele>177.6</ele>
        <time>2026-03-29T11:31:26Z</time>
      </trkpt>
      <trkpt lat="48.59066" lon="1.91179">
        <ele>177.6</ele>
        <time>2026-03-29T11:31:27Z</time>
      </trkpt>
      <trkpt lat="48.59065" lon="1.91176">
        <ele>177.6</ele>
        <time>2026-03-29T11:31:28Z</time>
      </trkpt>
      <trkpt lat="48.59064" lon="1.91173">
        <ele>177.6</ele>
        <time>2026-03-29T11:31:29Z</time>
      </trkpt>
      <trkpt lat="48.59064" lon="1.91171">
        <ele>177</ele>
        <time>2026-03-29T11:31:30Z</time>
      </trkpt>
      <trkpt lat="48.59064" lon="1.91169">
        <ele>177</ele>
        <time>2026-03-29T11:31:31Z</time>
      </trkpt>
      <trkpt lat="48.59063" lon="1.91167">
        <ele>177</ele>
        <time>2026-03-29T11:31:32Z</time>
      </trkpt>
      <trkpt lat="48.59063" lon="1.91164">
        <ele>177</ele>
        <time>2026-03-29T11:31:33Z</time>
      </trkpt>
      <trkpt lat="48.59064" lon="1.91161">
        <ele>177</ele>
        <time>2026-03-29T11:31:34Z</time>
      </trkpt>
      <trkpt lat="48.59064" lon="1.91158">
        <ele>177</ele>
        <time>2026-03-29T11:31:35Z</time>
      </trkpt>
      <trkpt lat="48.59064" lon="1.91157">
        <ele>177</ele>
        <time>2026-03-29T11:31:36Z</time>
      </trkpt>
      <trkpt lat="48.59063" lon="1.91155">
        <ele>177</ele>
        <time>2026-03-29T11:31:37Z</time>
      </trkpt>
      <trkpt lat="48.59062" lon="1.91153">
        <ele>177</ele>
        <time>2026-03-29T11:31:38Z</time>
      </trkpt>
      <trkpt lat="48.5906" lon="1.9115">
        <ele>177</ele>
        <time>2026-03-29T11:31:39Z</time>
      </trkpt>
      <trkpt lat="48.59059" lon="1.91147">
        <ele>177</ele>
        <time>2026-03-29T11:31:40Z</time>
      </trkpt>
      <trkpt lat="48.59057" lon="1.91144">
        <ele>177.2</ele>
        <time>2026-03-29T11:31:41Z</time>
      </trkpt>
      <trkpt lat="48.59055" lon="1.91139">
        <ele>176.8</ele>
        <time>2026-03-29T11:31:42Z</time>
      </trkpt>
      <trkpt lat="48.59054" lon="1.91134">
        <ele>176.8</ele>
        <time>2026-03-29T11:31:43Z</time>
      </trkpt>
      <trkpt lat="48.59052" lon="1.91128">
        <ele>176.8</ele>
        <time>2026-03-29T11:31:44Z</time>
      </trkpt>
      <trkpt lat="48.5905" lon="1.91122">
        <ele>176.8</ele>
        <time>2026-03-29T11:31:45Z</time>
      </trkpt>
      <trkpt lat="48.59048" lon="1.91115">
        <ele>176</ele>
        <time>2026-03-29T11:31:46Z</time>
      </trkpt>
      <trkpt lat="48.59046" lon="1.91108">
        <ele>176</ele>
        <time>2026-03-29T11:31:47Z</time>
      </trkpt>
      <trkpt lat="48.59044" lon="1.91102">
        <ele>176</ele>
        <time>2026-03-29T11:31:48Z</time>
      </trkpt>
      <trkpt lat="48.59042" lon="1.91095">
        <ele>176</ele>
        <time>2026-03-29T11:31:49Z</time>
      </trkpt>
      <trkpt lat="48.59041" lon="1.9109">
        <ele>176.4</ele>
        <time>2026-03-29T11:31:50Z</time>
      </trkpt>
      <trkpt lat="48.59039" lon="1.91084">
        <ele>176.4</ele>
        <time>2026-03-29T11:31:51Z</time>
      </trkpt>
      <trkpt lat="48.59037" lon="1.91079">
        <ele>176.4</ele>
        <time>2026-03-29T11:31:52Z</time>
      </trkpt>
      <trkpt lat="48.59034" lon="1.91072">
        <ele>176.4</ele>
        <time>2026-03-29T11:31:53Z</time>
      </trkpt>
      <trkpt lat="48.59031" lon="1.91065">
        <ele>175.4</ele>
        <time>2026-03-29T11:31:54Z</time>
      </trkpt>
      <trkpt lat="48.59028" lon="1.91058">
        <ele>175.4</ele>
        <time>2026-03-29T11:31:55Z</time>
      </trkpt>
      <trkpt lat="48.59026" lon="1.91051">
        <ele>175.4</ele>
        <time>2026-03-29T11:31:56Z</time>
      </trkpt>
      <trkpt lat="48.59023" lon="1.91044">
        <ele>175.4</ele>
        <time>2026-03-29T11:31:57Z</time>
      </trkpt>
      <trkpt lat="48.5902" lon="1.91036">
        <ele>175</ele>
        <time>2026-03-29T11:31:58Z</time>
      </trkpt>
      <trkpt lat="48.59018" lon="1.91028">
        <ele>175</ele>
        <time>2026-03-29T11:31:59Z</time>
      </trkpt>
      <trkpt lat="48.59015" lon="1.9102">
        <ele>175</ele>
        <time>2026-03-29T11:32:00Z</time>
      </trkpt>
      <trkpt lat="48.59012" lon="1.91014">
        <ele>175</ele>
        <time>2026-03-29T11:32:01Z</time>
      </trkpt>
      <trkpt lat="48.59009" lon="1.91007">
        <ele>175</ele>
        <time>2026-03-29T11:32:02Z</time>
      </trkpt>
      <trkpt lat="48.59005" lon="1.91001">
        <ele>175</ele>
        <time>2026-03-29T11:32:03Z</time>
      </trkpt>
      <trkpt lat="48.59" lon="1.90996">
        <ele>175</ele>
        <time>2026-03-29T11:32:04Z</time>
      </trkpt>
      <trkpt lat="48.58996" lon="1.9099">
        <ele>174.4</ele>
        <time>2026-03-29T11:32:05Z</time>
      </trkpt>
      <trkpt lat="48.58991" lon="1.90985">
        <ele>174.6</ele>
        <time>2026-03-29T11:32:06Z</time>
      </trkpt>
      <trkpt lat="48.58987" lon="1.90981">
        <ele>174.6</ele>
        <time>2026-03-29T11:32:07Z</time>
      </trkpt>
      <trkpt lat="48.58982" lon="1.90976">
        <ele>174.6</ele>
        <time>2026-03-29T11:32:08Z</time>
      </trkpt>
      <trkpt lat="48.58978" lon="1.90971">
        <ele>174.6</ele>
        <time>2026-03-29T11:32:09Z</time>
      </trkpt>
      <trkpt lat="48.58974" lon="1.90965">
        <ele>174</ele>
        <time>2026-03-29T11:32:10Z</time>
      </trkpt>
      <trkpt lat="48.5897" lon="1.90959">
        <ele>174</ele>
        <time>2026-03-29T11:32:11Z</time>
      </trkpt>
      <trkpt lat="48.58966" lon="1.90955">
        <ele>174</ele>
        <time>2026-03-29T11:32:12Z</time>
      </trkpt>
      <trkpt lat="48.58962" lon="1.90951">
        <ele>174</ele>
        <time>2026-03-29T11:32:13Z</time>
      </trkpt>
      <trkpt lat="48.58958" lon="1.90946">
        <ele>174</ele>
        <time>2026-03-29T11:32:14Z</time>
      </trkpt>
      <trkpt lat="48.58954" lon="1.90941">
        <ele>174</ele>
        <time>2026-03-29T11:32:15Z</time>
      </trkpt>
      <trkpt lat="48.5895" lon="1.90937">
        <ele>174</ele>
        <time>2026-03-29T11:32:16Z</time>
      </trkpt>
      <trkpt lat="48.58945" lon="1.90932">
        <ele>173.6</ele>
        <time>2026-03-29T11:32:17Z</time>
      </trkpt>
      <trkpt lat="48.58942" lon="1.90926">
        <ele>174</ele>
        <time>2026-03-29T11:32:18Z</time>
      </trkpt>
      <trkpt lat="48.58938" lon="1.90922">
        <ele>174</ele>
        <time>2026-03-29T11:32:19Z</time>
      </trkpt>
      <trkpt lat="48.58933" lon="1.90919">
        <ele>174</ele>
        <time>2026-03-29T11:32:20Z</time>
      </trkpt>
      <trkpt lat="48.58929" lon="1.90914">
        <ele>174.4</ele>
        <time>2026-03-29T11:32:21Z</time>
      </trkpt>
      <trkpt lat="48.58925" lon="1.90909">
        <ele>173.8</ele>
        <time>2026-03-29T11:32:22Z</time>
      </trkpt>
      <trkpt lat="48.58922" lon="1.90905">
        <ele>173.8</ele>
        <time>2026-03-29T11:32:23Z</time>
      </trkpt>
      <trkpt lat="48.58919" lon="1.909">
        <ele>173.8</ele>
        <time>2026-03-29T11:32:24Z</time>
      </trkpt>
      <trkpt lat="48.58915" lon="1.90896">
        <ele>173.8</ele>
        <time>2026-03-29T11:32:25Z</time>
      </trkpt>
      <trkpt lat="48.58911" lon="1.90893">
        <ele>173.8</ele>
        <time>2026-03-29T11:32:26Z</time>
      </trkpt>
      <trkpt lat="48.58907" lon="1.90888">
        <ele>173.8</ele>
        <time>2026-03-29T11:32:27Z</time>
      </trkpt>
      <trkpt lat="48.58904" lon="1.90884">
        <ele>173.8</ele>
        <time>2026-03-29T11:32:28Z</time>
      </trkpt>
      <trkpt lat="48.589" lon="1.90881">
        <ele>173.8</ele>
        <time>2026-03-29T11:32:29Z</time>
      </trkpt>
      <trkpt lat="48.58897" lon="1.90876">
        <ele>174.2</ele>
        <time>2026-03-29T11:32:30Z</time>
      </trkpt>
      <trkpt lat="48.58894" lon="1.90872">
        <ele>174.2</ele>
        <time>2026-03-29T11:32:31Z</time>
      </trkpt>
      <trkpt lat="48.58891" lon="1.90868">
        <ele>174.2</ele>
        <time>2026-03-29T11:32:32Z</time>
      </trkpt>
      <trkpt lat="48.58887" lon="1.90865">
        <ele>174.2</ele>
        <time>2026-03-29T11:32:33Z</time>
      </trkpt>
      <trkpt lat="48.58884" lon="1.90861">
        <ele>174.2</ele>
        <time>2026-03-29T11:32:34Z</time>
      </trkpt>
      <trkpt lat="48.5888" lon="1.90857">
        <ele>174.2</ele>
        <time>2026-03-29T11:32:35Z</time>
      </trkpt>
      <trkpt lat="48.58877" lon="1.90851">
        <ele>174.2</ele>
        <time>2026-03-29T11:32:36Z</time>
      </trkpt>
      <trkpt lat="48.58873" lon="1.90846">
        <ele>174.2</ele>
        <time>2026-03-29T11:32:37Z</time>
      </trkpt>
      <trkpt lat="48.58869" lon="1.90842">
        <ele>174.2</ele>
        <time>2026-03-29T11:32:38Z</time>
      </trkpt>
      <trkpt lat="48.58866" lon="1.90837">
        <ele>174.2</ele>
        <time>2026-03-29T11:32:39Z</time>
      </trkpt>
      <trkpt lat="48.58862" lon="1.90832">
        <ele>174.2</ele>
        <time>2026-03-29T11:32:40Z</time>
      </trkpt>
      <trkpt lat="48.58858" lon="1.90828">
        <ele>174.6</ele>
        <time>2026-03-29T11:32:41Z</time>
      </trkpt>
      <trkpt lat="48.58855" lon="1.90823">
        <ele>174.8</ele>
        <time>2026-03-29T11:32:42Z</time>
      </trkpt>
      <trkpt lat="48.58851" lon="1.90819">
        <ele>174.8</ele>
        <time>2026-03-29T11:32:43Z</time>
      </trkpt>
      <trkpt lat="48.58849" lon="1.90815">
        <ele>174.8</ele>
        <time>2026-03-29T11:32:44Z</time>
      </trkpt>
      <trkpt lat="48.58846" lon="1.90812">
        <ele>174.8</ele>
        <time>2026-03-29T11:32:45Z</time>
      </trkpt>
      <trkpt lat="48.58842" lon="1.90809">
        <ele>174.6</ele>
        <time>2026-03-29T11:32:46Z</time>
      </trkpt>
      <trkpt lat="48.58838" lon="1.90805">
        <ele>174.6</ele>
        <time>2026-03-29T11:32:47Z</time>
      </trkpt>
      <trkpt lat="48.58834" lon="1.90804">
        <ele>174.6</ele>
        <time>2026-03-29T11:32:48Z</time>
      </trkpt>
      <trkpt lat="48.5883" lon="1.90802">
        <ele>174.8</ele>
        <time>2026-03-29T11:32:49Z</time>
      </trkpt>
      <trkpt lat="48.58824" lon="1.90802">
        <ele>175</ele>
        <time>2026-03-29T11:32:50Z</time>
      </trkpt>
      <trkpt lat="48.5882" lon="1.90802">
        <ele>175</ele>
        <time>2026-03-29T11:32:51Z</time>
      </trkpt>
      <trkpt lat="48.58815" lon="1.90801">
        <ele>175</ele>
        <time>2026-03-29T11:32:52Z</time>
      </trkpt>
      <trkpt lat="48.58811" lon="1.90801">
        <ele>175</ele>
        <time>2026-03-29T11:32:53Z</time>
      </trkpt>
      <trkpt lat="48.58807" lon="1.90801">
        <ele>175.4</ele>
        <time>2026-03-29T11:32:54Z</time>
      </trkpt>
      <trkpt lat="48.58803" lon="1.90801">
        <ele>175.4</ele>
        <time>2026-03-29T11:32:55Z</time>
      </trkpt>
      <trkpt lat="48.58798" lon="1.90802">
        <ele>175.4</ele>
        <time>2026-03-29T11:32:56Z</time>
      </trkpt>
      <trkpt lat="48.58795" lon="1.90804">
        <ele>175.4</ele>
        <time>2026-03-29T11:32:57Z</time>
      </trkpt>
      <trkpt lat="48.5879" lon="1.90805">
        <ele>175.6</ele>
        <time>2026-03-29T11:32:58Z</time>
      </trkpt>
      <trkpt lat="48.58787" lon="1.90808">
        <ele>175.6</ele>
        <time>2026-03-29T11:32:59Z</time>
      </trkpt>
      <trkpt lat="48.58784" lon="1.90812">
        <ele>175.6</ele>
        <time>2026-03-29T11:33:00Z</time>
      </trkpt>
      <trkpt lat="48.58782" lon="1.90817">
        <ele>175.6</ele>
        <time>2026-03-29T11:33:01Z</time>
      </trkpt>
      <trkpt lat="48.58779" lon="1.90822">
        <ele>176</ele>
        <time>2026-03-29T11:33:02Z</time>
      </trkpt>
      <trkpt lat="48.58777" lon="1.90827">
        <ele>176</ele>
        <time>2026-03-29T11:33:03Z</time>
      </trkpt>
      <trkpt lat="48.58775" lon="1.90831">
        <ele>176</ele>
        <time>2026-03-29T11:33:04Z</time>
      </trkpt>
      <trkpt lat="48.58774" lon="1.90834">
        <ele>175.6</ele>
        <time>2026-03-29T11:33:05Z</time>
      </trkpt>
      <trkpt lat="48.58771" lon="1.9084">
        <ele>175.8</ele>
        <time>2026-03-29T11:33:06Z</time>
      </trkpt>
      <trkpt lat="48.58769" lon="1.90846">
        <ele>175.8</ele>
        <time>2026-03-29T11:33:07Z</time>
      </trkpt>
      <trkpt lat="48.58765" lon="1.90853">
        <ele>175.8</ele>
        <time>2026-03-29T11:33:08Z</time>
      </trkpt>
      <trkpt lat="48.58763" lon="1.90859">
        <ele>175.8</ele>
        <time>2026-03-29T11:33:09Z</time>
      </trkpt>
      <trkpt lat="48.5876" lon="1.90864">
        <ele>176.2</ele>
        <time>2026-03-29T11:33:10Z</time>
      </trkpt>
      <trkpt lat="48.58757" lon="1.9087">
        <ele>176.2</ele>
        <time>2026-03-29T11:33:11Z</time>
      </trkpt>
      <trkpt lat="48.58755" lon="1.90876">
        <ele>176.2</ele>
        <time>2026-03-29T11:33:12Z</time>
      </trkpt>
      <trkpt lat="48.58753" lon="1.90881">
        <ele>176.2</ele>
        <time>2026-03-29T11:33:13Z</time>
      </trkpt>
      <trkpt lat="48.58751" lon="1.90886">
        <ele>176</ele>
        <time>2026-03-29T11:33:14Z</time>
      </trkpt>
      <trkpt lat="48.58748" lon="1.90892">
        <ele>176</ele>
        <time>2026-03-29T11:33:15Z</time>
      </trkpt>
      <trkpt lat="48.58746" lon="1.90897">
        <ele>176</ele>
        <time>2026-03-29T11:33:16Z</time>
      </trkpt>
      <trkpt lat="48.58743" lon="1.90903">
        <ele>176</ele>
        <time>2026-03-29T11:33:17Z</time>
      </trkpt>
      <trkpt lat="48.5874" lon="1.90908">
        <ele>176</ele>
        <time>2026-03-29T11:33:18Z</time>
      </trkpt>
      <trkpt lat="48.58737" lon="1.90914">
        <ele>176</ele>
        <time>2026-03-29T11:33:19Z</time>
      </trkpt>
      <trkpt lat="48.58734" lon="1.90922">
        <ele>176</ele>
        <time>2026-03-29T11:33:20Z</time>
      </trkpt>
      <trkpt lat="48.58731" lon="1.90927">
        <ele>176</ele>
        <time>2026-03-29T11:33:21Z</time>
      </trkpt>
      <trkpt lat="48.58728" lon="1.90933">
        <ele>175.8</ele>
        <time>2026-03-29T11:33:22Z</time>
      </trkpt>
      <trkpt lat="48.58725" lon="1.90939">
        <ele>175.8</ele>
        <time>2026-03-29T11:33:23Z</time>
      </trkpt>
      <trkpt lat="48.58722" lon="1.90947">
        <ele>175.8</ele>
        <time>2026-03-29T11:33:24Z</time>
      </trkpt>
      <trkpt lat="48.58719" lon="1.90954">
        <ele>175</ele>
        <time>2026-03-29T11:33:25Z</time>
      </trkpt>
      <trkpt lat="48.58716" lon="1.90961">
        <ele>175.6</ele>
        <time>2026-03-29T11:33:26Z</time>
      </trkpt>
      <trkpt lat="48.58713" lon="1.90967">
        <ele>175.6</ele>
        <time>2026-03-29T11:33:27Z</time>
      </trkpt>
      <trkpt lat="48.5871" lon="1.90975">
        <ele>175.6</ele>
        <time>2026-03-29T11:33:28Z</time>
      </trkpt>
      <trkpt lat="48.58707" lon="1.90981">
        <ele>175.6</ele>
        <time>2026-03-29T11:33:29Z</time>
      </trkpt>
      <trkpt lat="48.58704" lon="1.90988">
        <ele>176</ele>
        <time>2026-03-29T11:33:30Z</time>
      </trkpt>
      <trkpt lat="48.58701" lon="1.90995">
        <ele>176</ele>
        <time>2026-03-29T11:33:31Z</time>
      </trkpt>
      <trkpt lat="48.58699" lon="1.91001">
        <ele>176</ele>
        <time>2026-03-29T11:33:32Z</time>
      </trkpt>
      <trkpt lat="48.58696" lon="1.91008">
        <ele>176</ele>
        <time>2026-03-29T11:33:33Z</time>
      </trkpt>
      <trkpt lat="48.58693" lon="1.91015">
        <ele>175.6</ele>
        <time>2026-03-29T11:33:34Z</time>
      </trkpt>
      <trkpt lat="48.58689" lon="1.91022">
        <ele>175.6</ele>
        <time>2026-03-29T11:33:35Z</time>
      </trkpt>
      <trkpt lat="48.58686" lon="1.91029">
        <ele>175.6</ele>
        <time>2026-03-29T11:33:36Z</time>
      </trkpt>
      <trkpt lat="48.58683" lon="1.91036">
        <ele>175.6</ele>
        <time>2026-03-29T11:33:37Z</time>
      </trkpt>
      <trkpt lat="48.58679" lon="1.91044">
        <ele>175.6</ele>
        <time>2026-03-29T11:33:38Z</time>
      </trkpt>
      <trkpt lat="48.58676" lon="1.91051">
        <ele>175.6</ele>
        <time>2026-03-29T11:33:39Z</time>
      </trkpt>
      <trkpt lat="48.58674" lon="1.91058">
        <ele>175.6</ele>
        <time>2026-03-29T11:33:40Z</time>
      </trkpt>
      <trkpt lat="48.58671" lon="1.91065">
        <ele>176</ele>
        <time>2026-03-29T11:33:41Z</time>
      </trkpt>
      <trkpt lat="48.58668" lon="1.91072">
        <ele>175.8</ele>
        <time>2026-03-29T11:33:42Z</time>
      </trkpt>
      <trkpt lat="48.58665" lon="1.9108">
        <ele>175.8</ele>
        <time>2026-03-29T11:33:43Z</time>
      </trkpt>
      <trkpt lat="48.58664" lon="1.91087">
        <ele>175.8</ele>
        <time>2026-03-29T11:33:44Z</time>
      </trkpt>
      <trkpt lat="48.58661" lon="1.91094">
        <ele>175.4</ele>
        <time>2026-03-29T11:33:45Z</time>
      </trkpt>
      <trkpt lat="48.58658" lon="1.91101">
        <ele>175.4</ele>
        <time>2026-03-29T11:33:46Z</time>
      </trkpt>
      <trkpt lat="48.58655" lon="1.91108">
        <ele>175.4</ele>
        <time>2026-03-29T11:33:47Z</time>
      </trkpt>
      <trkpt lat="48.58652" lon="1.91116">
        <ele>175.4</ele>
        <time>2026-03-29T11:33:48Z</time>
      </trkpt>
      <trkpt lat="48.58649" lon="1.91123">
        <ele>175.6</ele>
        <time>2026-03-29T11:33:49Z</time>
      </trkpt>
      <trkpt lat="48.58646" lon="1.91129">
        <ele>176</ele>
        <time>2026-03-29T11:33:50Z</time>
      </trkpt>
      <trkpt lat="48.58643" lon="1.91136">
        <ele>176</ele>
        <time>2026-03-29T11:33:51Z</time>
      </trkpt>
      <trkpt lat="48.5864" lon="1.91143">
        <ele>176</ele>
        <time>2026-03-29T11:33:52Z</time>
      </trkpt>
      <trkpt lat="48.58638" lon="1.9115">
        <ele>175.6</ele>
        <time>2026-03-29T11:33:53Z</time>
      </trkpt>
      <trkpt lat="48.58636" lon="1.91156">
        <ele>175.6</ele>
        <time>2026-03-29T11:33:54Z</time>
      </trkpt>
      <trkpt lat="48.58633" lon="1.91163">
        <ele>175.6</ele>
        <time>2026-03-29T11:33:55Z</time>
      </trkpt>
      <trkpt lat="48.58631" lon="1.91168">
        <ele>175.6</ele>
        <time>2026-03-29T11:33:56Z</time>
      </trkpt>
      <trkpt lat="48.58628" lon="1.91175">
        <ele>175.6</ele>
        <time>2026-03-29T11:33:57Z</time>
      </trkpt>
      <trkpt lat="48.58625" lon="1.91182">
        <ele>175.4</ele>
        <time>2026-03-29T11:33:58Z</time>
      </trkpt>
      <trkpt lat="48.58621" lon="1.9119">
        <ele>175.4</ele>
        <time>2026-03-29T11:33:59Z</time>
      </trkpt>
      <trkpt lat="48.58618" lon="1.91198">
        <ele>175.4</ele>
        <time>2026-03-29T11:34:00Z</time>
      </trkpt>
      <trkpt lat="48.58616" lon="1.91204">
        <ele>175.4</ele>
        <time>2026-03-29T11:34:01Z</time>
      </trkpt>
      <trkpt lat="48.58613" lon="1.91212">
        <ele>175</ele>
        <time>2026-03-29T11:34:02Z</time>
      </trkpt>
      <trkpt lat="48.5861" lon="1.91217">
        <ele>175</ele>
        <time>2026-03-29T11:34:03Z</time>
      </trkpt>
      <trkpt lat="48.58607" lon="1.91224">
        <ele>175</ele>
        <time>2026-03-29T11:34:04Z</time>
      </trkpt>
      <trkpt lat="48.58604" lon="1.91231">
        <ele>175.2</ele>
        <time>2026-03-29T11:34:05Z</time>
      </trkpt>
      <trkpt lat="48.58601" lon="1.91237">
        <ele>175.4</ele>
        <time>2026-03-29T11:34:06Z</time>
      </trkpt>
      <trkpt lat="48.58599" lon="1.91243">
        <ele>175.4</ele>
        <time>2026-03-29T11:34:07Z</time>
      </trkpt>
      <trkpt lat="48.58596" lon="1.91248">
        <ele>175.4</ele>
        <time>2026-03-29T11:34:08Z</time>
      </trkpt>
      <trkpt lat="48.58593" lon="1.91255">
        <ele>175.8</ele>
        <time>2026-03-29T11:34:09Z</time>
      </trkpt>
      <trkpt lat="48.5859" lon="1.91262">
        <ele>175.6</ele>
        <time>2026-03-29T11:34:10Z</time>
      </trkpt>
      <trkpt lat="48.58588" lon="1.91269">
        <ele>175.6</ele>
        <time>2026-03-29T11:34:11Z</time>
      </trkpt>
      <trkpt lat="48.58585" lon="1.91276">
        <ele>175.6</ele>
        <time>2026-03-29T11:34:12Z</time>
      </trkpt>
      <trkpt lat="48.58582" lon="1.91283">
        <ele>175.4</ele>
        <time>2026-03-29T11:34:13Z</time>
      </trkpt>
      <trkpt lat="48.58579" lon="1.91291">
        <ele>174.8</ele>
        <time>2026-03-29T11:34:14Z</time>
      </trkpt>
      <trkpt lat="48.58576" lon="1.91298">
        <ele>174.8</ele>
        <time>2026-03-29T11:34:15Z</time>
      </trkpt>
      <trkpt lat="48.58573" lon="1.91306">
        <ele>174.8</ele>
        <time>2026-03-29T11:34:16Z</time>
      </trkpt>
      <trkpt lat="48.5857" lon="1.91314">
        <ele>174.8</ele>
        <time>2026-03-29T11:34:17Z</time>
      </trkpt>
      <trkpt lat="48.58567" lon="1.9132">
        <ele>174.8</ele>
        <time>2026-03-29T11:34:18Z</time>
      </trkpt>
      <trkpt lat="48.58564" lon="1.91327">
        <ele>174.8</ele>
        <time>2026-03-29T11:34:19Z</time>
      </trkpt>
      <trkpt lat="48.58561" lon="1.91335">
        <ele>174.8</ele>
        <time>2026-03-29T11:34:20Z</time>
      </trkpt>
      <trkpt lat="48.58558" lon="1.91342">
        <ele>174.8</ele>
        <time>2026-03-29T11:34:21Z</time>
      </trkpt>
      <trkpt lat="48.58555" lon="1.9135">
        <ele>174.4</ele>
        <time>2026-03-29T11:34:22Z</time>
      </trkpt>
      <trkpt lat="48.58552" lon="1.91357">
        <ele>174.4</ele>
        <time>2026-03-29T11:34:23Z</time>
      </trkpt>
      <trkpt lat="48.5855" lon="1.91364">
        <ele>174.4</ele>
        <time>2026-03-29T11:34:24Z</time>
      </trkpt>
      <trkpt lat="48.58547" lon="1.91372">
        <ele>174.4</ele>
        <time>2026-03-29T11:34:25Z</time>
      </trkpt>
      <trkpt lat="48.58543" lon="1.9138">
        <ele>174.4</ele>
        <time>2026-03-29T11:34:26Z</time>
      </trkpt>
      <trkpt lat="48.5854" lon="1.91388">
        <ele>174.4</ele>
        <time>2026-03-29T11:34:27Z</time>
      </trkpt>
      <trkpt lat="48.58537" lon="1.91395">
        <ele>174.4</ele>
        <time>2026-03-29T11:34:28Z</time>
      </trkpt>
      <trkpt lat="48.58533" lon="1.91403">
        <ele>174.4</ele>
        <time>2026-03-29T11:34:29Z</time>
      </trkpt>
      <trkpt lat="48.58529" lon="1.9141">
        <ele>174.6</ele>
        <time>2026-03-29T11:34:30Z</time>
      </trkpt>
      <trkpt lat="48.58526" lon="1.91418">
        <ele>174.6</ele>
        <time>2026-03-29T11:34:31Z</time>
      </trkpt>
      <trkpt lat="48.58523" lon="1.91425">
        <ele>174.6</ele>
        <time>2026-03-29T11:34:32Z</time>
      </trkpt>
      <trkpt lat="48.5852" lon="1.91432">
        <ele>174.2</ele>
        <time>2026-03-29T11:34:33Z</time>
      </trkpt>
      <trkpt lat="48.58516" lon="1.91439">
        <ele>174.2</ele>
        <time>2026-03-29T11:34:34Z</time>
      </trkpt>
      <trkpt lat="48.58514" lon="1.91446">
        <ele>174.2</ele>
        <time>2026-03-29T11:34:35Z</time>
      </trkpt>
      <trkpt lat="48.58511" lon="1.91453">
        <ele>174.2</ele>
        <time>2026-03-29T11:34:36Z</time>
      </trkpt>
      <trkpt lat="48.58508" lon="1.9146">
        <ele>174.4</ele>
        <time>2026-03-29T11:34:37Z</time>
      </trkpt>
      <trkpt lat="48.58505" lon="1.91467">
        <ele>174.4</ele>
        <time>2026-03-29T11:34:38Z</time>
      </trkpt>
      <trkpt lat="48.58504" lon="1.91474">
        <ele>174.4</ele>
        <time>2026-03-29T11:34:39Z</time>
      </trkpt>
      <trkpt lat="48.58501" lon="1.9148">
        <ele>174.4</ele>
        <time>2026-03-29T11:34:40Z</time>
      </trkpt>
      <trkpt lat="48.58498" lon="1.91488">
        <ele>174.8</ele>
        <time>2026-03-29T11:34:41Z</time>
      </trkpt>
      <trkpt lat="48.58495" lon="1.91494">
        <ele>174.4</ele>
        <time>2026-03-29T11:34:42Z</time>
      </trkpt>
      <trkpt lat="48.58493" lon="1.915">
        <ele>174.4</ele>
        <time>2026-03-29T11:34:43Z</time>
      </trkpt>
      <trkpt lat="48.5849" lon="1.91507">
        <ele>174.4</ele>
        <time>2026-03-29T11:34:44Z</time>
      </trkpt>
      <trkpt lat="48.58487" lon="1.91513">
        <ele>175.4</ele>
        <time>2026-03-29T11:34:45Z</time>
      </trkpt>
      <trkpt lat="48.58485" lon="1.91519">
        <ele>175.2</ele>
        <time>2026-03-29T11:34:46Z</time>
      </trkpt>
      <trkpt lat="48.58482" lon="1.91525">
        <ele>175.2</ele>
        <time>2026-03-29T11:34:47Z</time>
      </trkpt>
      <trkpt lat="48.58479" lon="1.91532">
        <ele>175.2</ele>
        <time>2026-03-29T11:34:48Z</time>
      </trkpt>
      <trkpt lat="48.58476" lon="1.91539">
        <ele>175.2</ele>
        <time>2026-03-29T11:34:49Z</time>
      </trkpt>
      <trkpt lat="48.58473" lon="1.91546">
        <ele>175.6</ele>
        <time>2026-03-29T11:34:50Z</time>
      </trkpt>
      <trkpt lat="48.58471" lon="1.91552">
        <ele>175.6</ele>
        <time>2026-03-29T11:34:51Z</time>
      </trkpt>
      <trkpt lat="48.58468" lon="1.91558">
        <ele>175.6</ele>
        <time>2026-03-29T11:34:52Z</time>
      </trkpt>
      <trkpt lat="48.58465" lon="1.91564">
        <ele>175.6</ele>
        <time>2026-03-29T11:34:53Z</time>
      </trkpt>
      <trkpt lat="48.58463" lon="1.91571">
        <ele>175.8</ele>
        <time>2026-03-29T11:34:54Z</time>
      </trkpt>
      <trkpt lat="48.5846" lon="1.91577">
        <ele>175.8</ele>
        <time>2026-03-29T11:34:55Z</time>
      </trkpt>
      <trkpt lat="48.58457" lon="1.91583">
        <ele>175.8</ele>
        <time>2026-03-29T11:34:56Z</time>
      </trkpt>
      <trkpt lat="48.58454" lon="1.9159">
        <ele>176</ele>
        <time>2026-03-29T11:34:57Z</time>
      </trkpt>
      <trkpt lat="48.58451" lon="1.91597">
        <ele>175.6</ele>
        <time>2026-03-29T11:34:58Z</time>
      </trkpt>
      <trkpt lat="48.58448" lon="1.91603">
        <ele>175.6</ele>
        <time>2026-03-29T11:34:59Z</time>
      </trkpt>
      <trkpt lat="48.58445" lon="1.9161">
        <ele>175.6</ele>
        <time>2026-03-29T11:35:00Z</time>
      </trkpt>
      <trkpt lat="48.58443" lon="1.91616">
        <ele>175.6</ele>
        <time>2026-03-29T11:35:01Z</time>
      </trkpt>
      <trkpt lat="48.5844" lon="1.91623">
        <ele>176.2</ele>
        <time>2026-03-29T11:35:02Z</time>
      </trkpt>
      <trkpt lat="48.58435" lon="1.9163">
        <ele>176.2</ele>
        <time>2026-03-29T11:35:03Z</time>
      </trkpt>
      <trkpt lat="48.58432" lon="1.91637">
        <ele>176.2</ele>
        <time>2026-03-29T11:35:04Z</time>
      </trkpt>
      <trkpt lat="48.5843" lon="1.91645">
        <ele>176.4</ele>
        <time>2026-03-29T11:35:05Z</time>
      </trkpt>
      <trkpt lat="48.58426" lon="1.91652">
        <ele>176.6</ele>
        <time>2026-03-29T11:35:06Z</time>
      </trkpt>
      <trkpt lat="48.58424" lon="1.91659">
        <ele>176.6</ele>
        <time>2026-03-29T11:35:07Z</time>
      </trkpt>
      <trkpt lat="48.58421" lon="1.91666">
        <ele>176.6</ele>
        <time>2026-03-29T11:35:08Z</time>
      </trkpt>
      <trkpt lat="48.58418" lon="1.91673">
        <ele>176.4</ele>
        <time>2026-03-29T11:35:09Z</time>
      </trkpt>
      <trkpt lat="48.58415" lon="1.91681">
        <ele>176.2</ele>
        <time>2026-03-29T11:35:10Z</time>
      </trkpt>
      <trkpt lat="48.58412" lon="1.91688">
        <ele>176.2</ele>
        <time>2026-03-29T11:35:11Z</time>
      </trkpt>
      <trkpt lat="48.5841" lon="1.91695">
        <ele>176.2</ele>
        <time>2026-03-29T11:35:12Z</time>
      </trkpt>
      <trkpt lat="48.58407" lon="1.91702">
        <ele>176.4</ele>
        <time>2026-03-29T11:35:13Z</time>
      </trkpt>
      <trkpt lat="48.58404" lon="1.91708">
        <ele>176.4</ele>
        <time>2026-03-29T11:35:14Z</time>
      </trkpt>
      <trkpt lat="48.58401" lon="1.91715">
        <ele>176.4</ele>
        <time>2026-03-29T11:35:15Z</time>
      </trkpt>
      <trkpt lat="48.58398" lon="1.91722">
        <ele>176.4</ele>
        <time>2026-03-29T11:35:16Z</time>
      </trkpt>
      <trkpt lat="48.58396" lon="1.91728">
        <ele>176.4</ele>
        <time>2026-03-29T11:35:17Z</time>
      </trkpt>
      <trkpt lat="48.58392" lon="1.91736">
        <ele>176</ele>
        <time>2026-03-29T11:35:18Z</time>
      </trkpt>
      <trkpt lat="48.58389" lon="1.91744">
        <ele>176</ele>
        <time>2026-03-29T11:35:19Z</time>
      </trkpt>
      <trkpt lat="48.58386" lon="1.91753">
        <ele>176</ele>
        <time>2026-03-29T11:35:20Z</time>
      </trkpt>
      <trkpt lat="48.58383" lon="1.91761">
        <ele>176</ele>
        <time>2026-03-29T11:35:21Z</time>
      </trkpt>
      <trkpt lat="48.5838" lon="1.91769">
        <ele>176.4</ele>
        <time>2026-03-29T11:35:22Z</time>
      </trkpt>
      <trkpt lat="48.58377" lon="1.91776">
        <ele>176.4</ele>
        <time>2026-03-29T11:35:23Z</time>
      </trkpt>
      <trkpt lat="48.58374" lon="1.91783">
        <ele>176.4</ele>
        <time>2026-03-29T11:35:24Z</time>
      </trkpt>
      <trkpt lat="48.58371" lon="1.9179">
        <ele>176</ele>
        <time>2026-03-29T11:35:25Z</time>
      </trkpt>
      <trkpt lat="48.58368" lon="1.91797">
        <ele>176.2</ele>
        <time>2026-03-29T11:35:26Z</time>
      </trkpt>
      <trkpt lat="48.58366" lon="1.91804">
        <ele>176.2</ele>
        <time>2026-03-29T11:35:27Z</time>
      </trkpt>
      <trkpt lat="48.58363" lon="1.91812">
        <ele>176.2</ele>
        <time>2026-03-29T11:35:28Z</time>
      </trkpt>
      <trkpt lat="48.5836" lon="1.9182">
        <ele>175.8</ele>
        <time>2026-03-29T11:35:29Z</time>
      </trkpt>
      <trkpt lat="48.58357" lon="1.91827">
        <ele>176</ele>
        <time>2026-03-29T11:35:30Z</time>
      </trkpt>
      <trkpt lat="48.58354" lon="1.91834">
        <ele>176</ele>
        <time>2026-03-29T11:35:31Z</time>
      </trkpt>
      <trkpt lat="48.58351" lon="1.91841">
        <ele>176</ele>
        <time>2026-03-29T11:35:32Z</time>
      </trkpt>
      <trkpt lat="48.58348" lon="1.91847">
        <ele>175.8</ele>
        <time>2026-03-29T11:35:33Z</time>
      </trkpt>
      <trkpt lat="48.58345" lon="1.91854">
        <ele>175.6</ele>
        <time>2026-03-29T11:35:34Z</time>
      </trkpt>
      <trkpt lat="48.58342" lon="1.91861">
        <ele>175.6</ele>
        <time>2026-03-29T11:35:35Z</time>
      </trkpt>
      <trkpt lat="48.58339" lon="1.91869">
        <ele>175.6</ele>
        <time>2026-03-29T11:35:36Z</time>
      </trkpt>
      <trkpt lat="48.58336" lon="1.91877">
        <ele>175.4</ele>
        <time>2026-03-29T11:35:37Z</time>
      </trkpt>
      <trkpt lat="48.58333" lon="1.91885">
        <ele>176.6</ele>
        <time>2026-03-29T11:35:38Z</time>
      </trkpt>
      <trkpt lat="48.5833" lon="1.91892">
        <ele>176.6</ele>
        <time>2026-03-29T11:35:39Z</time>
      </trkpt>
      <trkpt lat="48.58328" lon="1.91897">
        <ele>176.6</ele>
        <time>2026-03-29T11:35:40Z</time>
      </trkpt>
      <trkpt lat="48.58325" lon="1.91903">
        <ele>175.6</ele>
        <time>2026-03-29T11:35:41Z</time>
      </trkpt>
      <trkpt lat="48.58321" lon="1.91908">
        <ele>174.6</ele>
        <time>2026-03-29T11:35:42Z</time>
      </trkpt>
      <trkpt lat="48.58318" lon="1.91913">
        <ele>174.6</ele>
        <time>2026-03-29T11:35:43Z</time>
      </trkpt>
      <trkpt lat="48.58314" lon="1.91918">
        <ele>174.6</ele>
        <time>2026-03-29T11:35:44Z</time>
      </trkpt>
      <trkpt lat="48.58309" lon="1.9192">
        <ele>174.6</ele>
        <time>2026-03-29T11:35:45Z</time>
      </trkpt>
      <trkpt lat="48.58304" lon="1.91919">
        <ele>174.6</ele>
        <time>2026-03-29T11:35:46Z</time>
      </trkpt>
      <trkpt lat="48.58299" lon="1.91917">
        <ele>174.6</ele>
        <time>2026-03-29T11:35:47Z</time>
      </trkpt>
      <trkpt lat="48.58295" lon="1.91916">
        <ele>174.6</ele>
        <time>2026-03-29T11:35:48Z</time>
      </trkpt>
      <trkpt lat="48.58291" lon="1.91913">
        <ele>174.6</ele>
        <time>2026-03-29T11:35:49Z</time>
      </trkpt>
      <trkpt lat="48.58286" lon="1.91909">
        <ele>174.8</ele>
        <time>2026-03-29T11:35:50Z</time>
      </trkpt>
      <trkpt lat="48.58283" lon="1.91906">
        <ele>174.8</ele>
        <time>2026-03-29T11:35:51Z</time>
      </trkpt>
      <trkpt lat="48.58278" lon="1.91902">
        <ele>174.8</ele>
        <time>2026-03-29T11:35:52Z</time>
      </trkpt>
      <trkpt lat="48.58274" lon="1.919">
        <ele>174.8</ele>
        <time>2026-03-29T11:35:53Z</time>
      </trkpt>
      <trkpt lat="48.5827" lon="1.91896">
        <ele>174.4</ele>
        <time>2026-03-29T11:35:54Z</time>
      </trkpt>
      <trkpt lat="48.58265" lon="1.91892">
        <ele>174.4</ele>
        <time>2026-03-29T11:35:55Z</time>
      </trkpt>
      <trkpt lat="48.58261" lon="1.91888">
        <ele>174.4</ele>
        <time>2026-03-29T11:35:56Z</time>
      </trkpt>
      <trkpt lat="48.58256" lon="1.91884">
        <ele>174</ele>
        <time>2026-03-29T11:35:57Z</time>
      </trkpt>
      <trkpt lat="48.58251" lon="1.91879">
        <ele>173.8</ele>
        <time>2026-03-29T11:35:58Z</time>
      </trkpt>
      <trkpt lat="48.58245" lon="1.91874">
        <ele>173.8</ele>
        <time>2026-03-29T11:35:59Z</time>
      </trkpt>
      <trkpt lat="48.5824" lon="1.91869">
        <ele>173.8</ele>
        <time>2026-03-29T11:36:00Z</time>
      </trkpt>
      <trkpt lat="48.58235" lon="1.91865">
        <ele>173.8</ele>
        <time>2026-03-29T11:36:01Z</time>
      </trkpt>
      <trkpt lat="48.58229" lon="1.91859">
        <ele>173</ele>
        <time>2026-03-29T11:36:02Z</time>
      </trkpt>
      <trkpt lat="48.58224" lon="1.91854">
        <ele>173</ele>
        <time>2026-03-29T11:36:03Z</time>
      </trkpt>
      <trkpt lat="48.58218" lon="1.91849">
        <ele>173</ele>
        <time>2026-03-29T11:36:04Z</time>
      </trkpt>
      <trkpt lat="48.58213" lon="1.91844">
        <ele>173</ele>
        <time>2026-03-29T11:36:05Z</time>
      </trkpt>
      <trkpt lat="48.58207" lon="1.91839">
        <ele>172.4</ele>
        <time>2026-03-29T11:36:06Z</time>
      </trkpt>
      <trkpt lat="48.58203" lon="1.91833">
        <ele>172.4</ele>
        <time>2026-03-29T11:36:07Z</time>
      </trkpt>
      <trkpt lat="48.58197" lon="1.91828">
        <ele>172.4</ele>
        <time>2026-03-29T11:36:08Z</time>
      </trkpt>
      <trkpt lat="48.5819" lon="1.91822">
        <ele>172.4</ele>
        <time>2026-03-29T11:36:09Z</time>
      </trkpt>
      <trkpt lat="48.58184" lon="1.91816">
        <ele>171.6</ele>
        <time>2026-03-29T11:36:10Z</time>
      </trkpt>
      <trkpt lat="48.58177" lon="1.91809">
        <ele>171.6</ele>
        <time>2026-03-29T11:36:11Z</time>
      </trkpt>
      <trkpt lat="48.5817" lon="1.91803">
        <ele>171.6</ele>
        <time>2026-03-29T11:36:12Z</time>
      </trkpt>
      <trkpt lat="48.58164" lon="1.91796">
        <ele>171.2</ele>
        <time>2026-03-29T11:36:13Z</time>
      </trkpt>
      <trkpt lat="48.58157" lon="1.9179">
        <ele>171.2</ele>
        <time>2026-03-29T11:36:14Z</time>
      </trkpt>
      <trkpt lat="48.58151" lon="1.91784">
        <ele>171.2</ele>
        <time>2026-03-29T11:36:15Z</time>
      </trkpt>
      <trkpt lat="48.58144" lon="1.91778">
        <ele>171.2</ele>
        <time>2026-03-29T11:36:16Z</time>
      </trkpt>
      <trkpt lat="48.58138" lon="1.91772">
        <ele>170.4</ele>
        <time>2026-03-29T11:36:17Z</time>
      </trkpt>
      <trkpt lat="48.58132" lon="1.91765">
        <ele>170.2</ele>
        <time>2026-03-29T11:36:18Z</time>
      </trkpt>
      <trkpt lat="48.58125" lon="1.9176">
        <ele>170.2</ele>
        <time>2026-03-29T11:36:19Z</time>
      </trkpt>
      <trkpt lat="48.58119" lon="1.91754">
        <ele>170.2</ele>
        <time>2026-03-29T11:36:20Z</time>
      </trkpt>
      <trkpt lat="48.58113" lon="1.91748">
        <ele>170.4</ele>
        <time>2026-03-29T11:36:21Z</time>
      </trkpt>
      <trkpt lat="48.58108" lon="1.91743">
        <ele>170.4</ele>
        <time>2026-03-29T11:36:22Z</time>
      </trkpt>
      <trkpt lat="48.58102" lon="1.91737">
        <ele>170.4</ele>
        <time>2026-03-29T11:36:23Z</time>
      </trkpt>
      <trkpt lat="48.58097" lon="1.91733">
        <ele>170.4</ele>
        <time>2026-03-29T11:36:24Z</time>
      </trkpt>
      <trkpt lat="48.58091" lon="1.91729">
        <ele>170.6</ele>
        <time>2026-03-29T11:36:25Z</time>
      </trkpt>
      <trkpt lat="48.58087" lon="1.91725">
        <ele>171.6</ele>
        <time>2026-03-29T11:36:26Z</time>
      </trkpt>
      <trkpt lat="48.58082" lon="1.91721">
        <ele>171.6</ele>
        <time>2026-03-29T11:36:27Z</time>
      </trkpt>
      <trkpt lat="48.58078" lon="1.91718">
        <ele>171.6</ele>
        <time>2026-03-29T11:36:28Z</time>
      </trkpt>
      <trkpt lat="48.58074" lon="1.91714">
        <ele>170.6</ele>
        <time>2026-03-29T11:36:29Z</time>
      </trkpt>
      <trkpt lat="48.58069" lon="1.91709">
        <ele>171</ele>
        <time>2026-03-29T11:36:30Z</time>
      </trkpt>
      <trkpt lat="48.58064" lon="1.91704">
        <ele>171</ele>
        <time>2026-03-29T11:36:31Z</time>
      </trkpt>
      <trkpt lat="48.58059" lon="1.91699">
        <ele>171</ele>
        <time>2026-03-29T11:36:32Z</time>
      </trkpt>
      <trkpt lat="48.58054" lon="1.91695">
        <ele>171</ele>
        <time>2026-03-29T11:36:33Z</time>
      </trkpt>
      <trkpt lat="48.5805" lon="1.91691">
        <ele>171.6</ele>
        <time>2026-03-29T11:36:34Z</time>
      </trkpt>
      <trkpt lat="48.58046" lon="1.91687">
        <ele>171.6</ele>
        <time>2026-03-29T11:36:35Z</time>
      </trkpt>
      <trkpt lat="48.58042" lon="1.91682">
        <ele>171.6</ele>
        <time>2026-03-29T11:36:36Z</time>
      </trkpt>
      <trkpt lat="48.58038" lon="1.91679">
        <ele>171.6</ele>
        <time>2026-03-29T11:36:37Z</time>
      </trkpt>
      <trkpt lat="48.58034" lon="1.91674">
        <ele>171.6</ele>
        <time>2026-03-29T11:36:38Z</time>
      </trkpt>
      <trkpt lat="48.58029" lon="1.9167">
        <ele>171.6</ele>
        <time>2026-03-29T11:36:39Z</time>
      </trkpt>
      <trkpt lat="48.58024" lon="1.91666">
        <ele>171.6</ele>
        <time>2026-03-29T11:36:40Z</time>
      </trkpt>
      <trkpt lat="48.58019" lon="1.91662">
        <ele>171.6</ele>
        <time>2026-03-29T11:36:41Z</time>
      </trkpt>
      <trkpt lat="48.58015" lon="1.91658">
        <ele>171.2</ele>
        <time>2026-03-29T11:36:42Z</time>
      </trkpt>
      <trkpt lat="48.5801" lon="1.91654">
        <ele>171.2</ele>
        <time>2026-03-29T11:36:43Z</time>
      </trkpt>
      <trkpt lat="48.58005" lon="1.91649">
        <ele>171.2</ele>
        <time>2026-03-29T11:36:44Z</time>
      </trkpt>
      <trkpt lat="48.58001" lon="1.91643">
        <ele>171.2</ele>
        <time>2026-03-29T11:36:45Z</time>
      </trkpt>
      <trkpt lat="48.57996" lon="1.91638">
        <ele>171.8</ele>
        <time>2026-03-29T11:36:46Z</time>
      </trkpt>
      <trkpt lat="48.57991" lon="1.91635">
        <ele>171.8</ele>
        <time>2026-03-29T11:36:47Z</time>
      </trkpt>
      <trkpt lat="48.57987" lon="1.9163">
        <ele>171.8</ele>
        <time>2026-03-29T11:36:48Z</time>
      </trkpt>
      <trkpt lat="48.57982" lon="1.91625">
        <ele>171.8</ele>
        <time>2026-03-29T11:36:49Z</time>
      </trkpt>
      <trkpt lat="48.57977" lon="1.91621">
        <ele>172.2</ele>
        <time>2026-03-29T11:36:50Z</time>
      </trkpt>
      <trkpt lat="48.57972" lon="1.91617">
        <ele>172.2</ele>
        <time>2026-03-29T11:36:51Z</time>
      </trkpt>
      <trkpt lat="48.57968" lon="1.91612">
        <ele>172.2</ele>
        <time>2026-03-29T11:36:52Z</time>
      </trkpt>
      <trkpt lat="48.57964" lon="1.91607">
        <ele>171.8</ele>
        <time>2026-03-29T11:36:53Z</time>
      </trkpt>
      <trkpt lat="48.57959" lon="1.91602">
        <ele>170.6</ele>
        <time>2026-03-29T11:36:54Z</time>
      </trkpt>
      <trkpt lat="48.57953" lon="1.91598">
        <ele>170.6</ele>
        <time>2026-03-29T11:36:55Z</time>
      </trkpt>
      <trkpt lat="48.57949" lon="1.91593">
        <ele>170.6</ele>
        <time>2026-03-29T11:36:56Z</time>
      </trkpt>
      <trkpt lat="48.57944" lon="1.91588">
        <ele>170.8</ele>
        <time>2026-03-29T11:36:57Z</time>
      </trkpt>
      <trkpt lat="48.57939" lon="1.91583">
        <ele>171</ele>
        <time>2026-03-29T11:36:58Z</time>
      </trkpt>
      <trkpt lat="48.57935" lon="1.9158">
        <ele>171</ele>
        <time>2026-03-29T11:36:59Z</time>
      </trkpt>
      <trkpt lat="48.5793" lon="1.91575">
        <ele>171</ele>
        <time>2026-03-29T11:37:00Z</time>
      </trkpt>
      <trkpt lat="48.57926" lon="1.91569">
        <ele>170.6</ele>
        <time>2026-03-29T11:37:01Z</time>
      </trkpt>
      <trkpt lat="48.57921" lon="1.91564">
        <ele>170.4</ele>
        <time>2026-03-29T11:37:02Z</time>
      </trkpt>
      <trkpt lat="48.57917" lon="1.9156">
        <ele>170.4</ele>
        <time>2026-03-29T11:37:03Z</time>
      </trkpt>
      <trkpt lat="48.57913" lon="1.91556">
        <ele>170.4</ele>
        <time>2026-03-29T11:37:04Z</time>
      </trkpt>
      <trkpt lat="48.57908" lon="1.91551">
        <ele>170.4</ele>
        <time>2026-03-29T11:37:05Z</time>
      </trkpt>
      <trkpt lat="48.57904" lon="1.91547">
        <ele>170</ele>
        <time>2026-03-29T11:37:06Z</time>
      </trkpt>
      <trkpt lat="48.57901" lon="1.91544">
        <ele>170</ele>
        <time>2026-03-29T11:37:07Z</time>
      </trkpt>
      <trkpt lat="48.57896" lon="1.9154">
        <ele>170</ele>
        <time>2026-03-29T11:37:08Z</time>
      </trkpt>
      <trkpt lat="48.57892" lon="1.9154">
        <ele>169.2</ele>
        <time>2026-03-29T11:37:09Z</time>
      </trkpt>
      <trkpt lat="48.57887" lon="1.91542">
        <ele>168.8</ele>
        <time>2026-03-29T11:37:10Z</time>
      </trkpt>
      <trkpt lat="48.57882" lon="1.91546">
        <ele>168.8</ele>
        <time>2026-03-29T11:37:11Z</time>
      </trkpt>
      <trkpt lat="48.57877" lon="1.91549">
        <ele>168.8</ele>
        <time>2026-03-29T11:37:12Z</time>
      </trkpt>
      <trkpt lat="48.57873" lon="1.91552">
        <ele>168.8</ele>
        <time>2026-03-29T11:37:13Z</time>
      </trkpt>
      <trkpt lat="48.57867" lon="1.91556">
        <ele>168.2</ele>
        <time>2026-03-29T11:37:14Z</time>
      </trkpt>
      <trkpt lat="48.57863" lon="1.9156">
        <ele>168.2</ele>
        <time>2026-03-29T11:37:15Z</time>
      </trkpt>
      <trkpt lat="48.57858" lon="1.91565">
        <ele>168.2</ele>
        <time>2026-03-29T11:37:16Z</time>
      </trkpt>
      <trkpt lat="48.57853" lon="1.9157">
        <ele>167.8</ele>
        <time>2026-03-29T11:37:17Z</time>
      </trkpt>
      <trkpt lat="48.57848" lon="1.91575">
        <ele>167.4</ele>
        <time>2026-03-29T11:37:18Z</time>
      </trkpt>
      <trkpt lat="48.57843" lon="1.9158">
        <ele>167.4</ele>
        <time>2026-03-29T11:37:19Z</time>
      </trkpt>
      <trkpt lat="48.57839" lon="1.91585">
        <ele>167.4</ele>
        <time>2026-03-29T11:37:20Z</time>
      </trkpt>
      <trkpt lat="48.57834" lon="1.9159">
        <ele>167.4</ele>
        <time>2026-03-29T11:37:21Z</time>
      </trkpt>
      <trkpt lat="48.57829" lon="1.91596">
        <ele>166.4</ele>
        <time>2026-03-29T11:37:22Z</time>
      </trkpt>
      <trkpt lat="48.57824" lon="1.91601">
        <ele>166.4</ele>
        <time>2026-03-29T11:37:23Z</time>
      </trkpt>
      <trkpt lat="48.5782" lon="1.91607">
        <ele>166.4</ele>
        <time>2026-03-29T11:37:24Z</time>
      </trkpt>
      <trkpt lat="48.57816" lon="1.91612">
        <ele>166.4</ele>
        <time>2026-03-29T11:37:25Z</time>
      </trkpt>
      <trkpt lat="48.57811" lon="1.91618">
        <ele>166</ele>
        <time>2026-03-29T11:37:26Z</time>
      </trkpt>
      <trkpt lat="48.57807" lon="1.91624">
        <ele>166</ele>
        <time>2026-03-29T11:37:27Z</time>
      </trkpt>
      <trkpt lat="48.57802" lon="1.9163">
        <ele>166</ele>
        <time>2026-03-29T11:37:28Z</time>
      </trkpt>
      <trkpt lat="48.57798" lon="1.91635">
        <ele>165.2</ele>
        <time>2026-03-29T11:37:29Z</time>
      </trkpt>
      <trkpt lat="48.57794" lon="1.91642">
        <ele>164.4</ele>
        <time>2026-03-29T11:37:30Z</time>
      </trkpt>
      <trkpt lat="48.5779" lon="1.91648">
        <ele>164.4</ele>
        <time>2026-03-29T11:37:31Z</time>
      </trkpt>
      <trkpt lat="48.57786" lon="1.91653">
        <ele>164.4</ele>
        <time>2026-03-29T11:37:32Z</time>
      </trkpt>
      <trkpt lat="48.57783" lon="1.9166">
        <ele>164.4</ele>
        <time>2026-03-29T11:37:33Z</time>
      </trkpt>
      <trkpt lat="48.5778" lon="1.91668">
        <ele>163</ele>
        <time>2026-03-29T11:37:34Z</time>
      </trkpt>
      <trkpt lat="48.57777" lon="1.91676">
        <ele>163</ele>
        <time>2026-03-29T11:37:35Z</time>
      </trkpt>
      <trkpt lat="48.57773" lon="1.91683">
        <ele>163</ele>
        <time>2026-03-29T11:37:36Z</time>
      </trkpt>
      <trkpt lat="48.5777" lon="1.9169">
        <ele>163.8</ele>
        <time>2026-03-29T11:37:37Z</time>
      </trkpt>
      <trkpt lat="48.57767" lon="1.91697">
        <ele>164.4</ele>
        <time>2026-03-29T11:37:38Z</time>
      </trkpt>
      <trkpt lat="48.57765" lon="1.91703">
        <ele>164.4</ele>
        <time>2026-03-29T11:37:39Z</time>
      </trkpt>
      <trkpt lat="48.57763" lon="1.91711">
        <ele>164.4</ele>
        <time>2026-03-29T11:37:40Z</time>
      </trkpt>
      <trkpt lat="48.5776" lon="1.91717">
        <ele>163.4</ele>
        <time>2026-03-29T11:37:41Z</time>
      </trkpt>
      <trkpt lat="48.57758" lon="1.91725">
        <ele>162.6</ele>
        <time>2026-03-29T11:37:42Z</time>
      </trkpt>
      <trkpt lat="48.57757" lon="1.91731">
        <ele>162.6</ele>
        <time>2026-03-29T11:37:43Z</time>
      </trkpt>
      <trkpt lat="48.57755" lon="1.91737">
        <ele>162.6</ele>
        <time>2026-03-29T11:37:44Z</time>
      </trkpt>
      <trkpt lat="48.57752" lon="1.91741">
        <ele>162.6</ele>
        <time>2026-03-29T11:37:45Z</time>
      </trkpt>
      <trkpt lat="48.5775" lon="1.91743">
        <ele>161.4</ele>
        <time>2026-03-29T11:37:46Z</time>
      </trkpt>
      <trkpt lat="48.57746" lon="1.91744">
        <ele>161.4</ele>
        <time>2026-03-29T11:37:47Z</time>
      </trkpt>
      <trkpt lat="48.57743" lon="1.91745">
        <ele>161.4</ele>
        <time>2026-03-29T11:37:48Z</time>
      </trkpt>
      <trkpt lat="48.5774" lon="1.91747">
        <ele>161.4</ele>
        <time>2026-03-29T11:37:49Z</time>
      </trkpt>
      <trkpt lat="48.57738" lon="1.91749">
        <ele>160.8</ele>
        <time>2026-03-29T11:37:50Z</time>
      </trkpt>
      <trkpt lat="48.57737" lon="1.9175">
        <ele>160.8</ele>
        <time>2026-03-29T11:37:51Z</time>
      </trkpt>
      <trkpt lat="48.57736" lon="1.91751">
        <ele>160.8</ele>
        <time>2026-03-29T11:37:52Z</time>
      </trkpt>
      <trkpt lat="48.57735" lon="1.91751">
        <ele>160.6</ele>
        <time>2026-03-29T11:37:53Z</time>
      </trkpt>
      <trkpt lat="48.57734" lon="1.91753">
        <ele>160.4</ele>
        <time>2026-03-29T11:37:54Z</time>
      </trkpt>
      <trkpt lat="48.57723" lon="1.91756">
        <ele>161</ele>
        <time>2026-03-29T11:38:01Z</time>
      </trkpt>
      <trkpt lat="48.5772" lon="1.91754">
        <ele>160.4</ele>
        <time>2026-03-29T11:38:02Z</time>
      </trkpt>
      <trkpt lat="48.57717" lon="1.91752">
        <ele>160.4</ele>
        <time>2026-03-29T11:38:03Z</time>
      </trkpt>
      <trkpt lat="48.57714" lon="1.9175">
        <ele>160.4</ele>
        <time>2026-03-29T11:38:04Z</time>
      </trkpt>
      <trkpt lat="48.57713" lon="1.91746">
        <ele>159.8</ele>
        <time>2026-03-29T11:38:05Z</time>
      </trkpt>
      <trkpt lat="48.57713" lon="1.91742">
        <ele>159.8</ele>
        <time>2026-03-29T11:38:06Z</time>
      </trkpt>
      <trkpt lat="48.57714" lon="1.91738">
        <ele>159.8</ele>
        <time>2026-03-29T11:38:07Z</time>
      </trkpt>
      <trkpt lat="48.57715" lon="1.91734">
        <ele>159.8</ele>
        <time>2026-03-29T11:38:08Z</time>
      </trkpt>
      <trkpt lat="48.57716" lon="1.9173">
        <ele>159.8</ele>
        <time>2026-03-29T11:38:09Z</time>
      </trkpt>
      <trkpt lat="48.57717" lon="1.91725">
        <ele>159.2</ele>
        <time>2026-03-29T11:38:10Z</time>
      </trkpt>
      <trkpt lat="48.57719" lon="1.91721">
        <ele>159.2</ele>
        <time>2026-03-29T11:38:11Z</time>
      </trkpt>
      <trkpt lat="48.5772" lon="1.91716">
        <ele>159.2</ele>
        <time>2026-03-29T11:38:12Z</time>
      </trkpt>
      <trkpt lat="48.57722" lon="1.91711">
        <ele>160</ele>
        <time>2026-03-29T11:38:13Z</time>
      </trkpt>
      <trkpt lat="48.57723" lon="1.91707">
        <ele>160</ele>
        <time>2026-03-29T11:38:14Z</time>
      </trkpt>
      <trkpt lat="48.57724" lon="1.91702">
        <ele>160</ele>
        <time>2026-03-29T11:38:15Z</time>
      </trkpt>
      <trkpt lat="48.57725" lon="1.91696">
        <ele>160</ele>
        <time>2026-03-29T11:38:16Z</time>
      </trkpt>
      <trkpt lat="48.57727" lon="1.91691">
        <ele>160</ele>
        <time>2026-03-29T11:38:17Z</time>
      </trkpt>
      <trkpt lat="48.57728" lon="1.91685">
        <ele>160</ele>
        <time>2026-03-29T11:38:18Z</time>
      </trkpt>
      <trkpt lat="48.57729" lon="1.9168">
        <ele>160</ele>
        <time>2026-03-29T11:38:19Z</time>
      </trkpt>
      <trkpt lat="48.5773" lon="1.91674">
        <ele>160</ele>
        <time>2026-03-29T11:38:20Z</time>
      </trkpt>
      <trkpt lat="48.57731" lon="1.91668">
        <ele>160</ele>
        <time>2026-03-29T11:38:21Z</time>
      </trkpt>
      <trkpt lat="48.57732" lon="1.91663">
        <ele>160.2</ele>
        <time>2026-03-29T11:38:22Z</time>
      </trkpt>
      <trkpt lat="48.57733" lon="1.91657">
        <ele>160.2</ele>
        <time>2026-03-29T11:38:23Z</time>
      </trkpt>
      <trkpt lat="48.57735" lon="1.91651">
        <ele>160.2</ele>
        <time>2026-03-29T11:38:24Z</time>
      </trkpt>
      <trkpt lat="48.57736" lon="1.91646">
        <ele>160.6</ele>
        <time>2026-03-29T11:38:25Z</time>
      </trkpt>
      <trkpt lat="48.57738" lon="1.91641">
        <ele>160.6</ele>
        <time>2026-03-29T11:38:26Z</time>
      </trkpt>
      <trkpt lat="48.57738" lon="1.91634">
        <ele>160.6</ele>
        <time>2026-03-29T11:38:27Z</time>
      </trkpt>
      <trkpt lat="48.5774" lon="1.91629">
        <ele>160.6</ele>
        <time>2026-03-29T11:38:28Z</time>
      </trkpt>
      <trkpt lat="48.5774" lon="1.91623">
        <ele>161.6</ele>
        <time>2026-03-29T11:38:29Z</time>
      </trkpt>
      <trkpt lat="48.57742" lon="1.91618">
        <ele>161.6</ele>
        <time>2026-03-29T11:38:30Z</time>
      </trkpt>
      <trkpt lat="48.57743" lon="1.91613">
        <ele>161.6</ele>
        <time>2026-03-29T11:38:31Z</time>
      </trkpt>
      <trkpt lat="48.57743" lon="1.91608">
        <ele>161.6</ele>
        <time>2026-03-29T11:38:32Z</time>
      </trkpt>
      <trkpt lat="48.57743" lon="1.91603">
        <ele>161</ele>
        <time>2026-03-29T11:38:33Z</time>
      </trkpt>
      <trkpt lat="48.57744" lon="1.91598">
        <ele>161.2</ele>
        <time>2026-03-29T11:38:34Z</time>
      </trkpt>
      <trkpt lat="48.57745" lon="1.91593">
        <ele>161.2</ele>
        <time>2026-03-29T11:38:35Z</time>
      </trkpt>
      <trkpt lat="48.57746" lon="1.91588">
        <ele>161.2</ele>
        <time>2026-03-29T11:38:36Z</time>
      </trkpt>
      <trkpt lat="48.57747" lon="1.91582">
        <ele>162.2</ele>
        <time>2026-03-29T11:38:37Z</time>
      </trkpt>
      <trkpt lat="48.57748" lon="1.91577">
        <ele>161.8</ele>
        <time>2026-03-29T11:38:38Z</time>
      </trkpt>
      <trkpt lat="48.57749" lon="1.91572">
        <ele>161.8</ele>
        <time>2026-03-29T11:38:39Z</time>
      </trkpt>
      <trkpt lat="48.5775" lon="1.91566">
        <ele>161.8</ele>
        <time>2026-03-29T11:38:40Z</time>
      </trkpt>
      <trkpt lat="48.57751" lon="1.91561">
        <ele>161.8</ele>
        <time>2026-03-29T11:38:41Z</time>
      </trkpt>
      <trkpt lat="48.57753" lon="1.91557">
        <ele>162.2</ele>
        <time>2026-03-29T11:38:42Z</time>
      </trkpt>
      <trkpt lat="48.57754" lon="1.91552">
        <ele>162.2</ele>
        <time>2026-03-29T11:38:43Z</time>
      </trkpt>
      <trkpt lat="48.57755" lon="1.91547">
        <ele>162.2</ele>
        <time>2026-03-29T11:38:44Z</time>
      </trkpt>
      <trkpt lat="48.57756" lon="1.91542">
        <ele>162.2</ele>
        <time>2026-03-29T11:38:45Z</time>
      </trkpt>
      <trkpt lat="48.57757" lon="1.91537">
        <ele>162</ele>
        <time>2026-03-29T11:38:46Z</time>
      </trkpt>
      <trkpt lat="48.57758" lon="1.91532">
        <ele>162</ele>
        <time>2026-03-29T11:38:47Z</time>
      </trkpt>
      <trkpt lat="48.57759" lon="1.91527">
        <ele>162</ele>
        <time>2026-03-29T11:38:48Z</time>
      </trkpt>
      <trkpt lat="48.5776" lon="1.91522">
        <ele>162</ele>
        <time>2026-03-29T11:38:49Z</time>
      </trkpt>
      <trkpt lat="48.57761" lon="1.91518">
        <ele>162</ele>
        <time>2026-03-29T11:38:50Z</time>
      </trkpt>
      <trkpt lat="48.57762" lon="1.91513">
        <ele>162</ele>
        <time>2026-03-29T11:38:51Z</time>
      </trkpt>
      <trkpt lat="48.57763" lon="1.91508">
        <ele>162</ele>
        <time>2026-03-29T11:38:52Z</time>
      </trkpt>
      <trkpt lat="48.57765" lon="1.91502">
        <ele>162.2</ele>
        <time>2026-03-29T11:38:53Z</time>
      </trkpt>
      <trkpt lat="48.57766" lon="1.91497">
        <ele>162.2</ele>
        <time>2026-03-29T11:38:54Z</time>
      </trkpt>
      <trkpt lat="48.57767" lon="1.91492">
        <ele>162.2</ele>
        <time>2026-03-29T11:38:55Z</time>
      </trkpt>
      <trkpt lat="48.57768" lon="1.91487">
        <ele>162.2</ele>
        <time>2026-03-29T11:38:56Z</time>
      </trkpt>
      <trkpt lat="48.5777" lon="1.91482">
        <ele>162.4</ele>
        <time>2026-03-29T11:38:57Z</time>
      </trkpt>
      <trkpt lat="48.57771" lon="1.91476">
        <ele>162</ele>
        <time>2026-03-29T11:38:58Z</time>
      </trkpt>
      <trkpt lat="48.57772" lon="1.91471">
        <ele>162</ele>
        <time>2026-03-29T11:38:59Z</time>
      </trkpt>
      <trkpt lat="48.57773" lon="1.91466">
        <ele>162</ele>
        <time>2026-03-29T11:39:00Z</time>
      </trkpt>
      <trkpt lat="48.57775" lon="1.91461">
        <ele>162.2</ele>
        <time>2026-03-29T11:39:01Z</time>
      </trkpt>
      <trkpt lat="48.57776" lon="1.91455">
        <ele>163</ele>
        <time>2026-03-29T11:39:02Z</time>
      </trkpt>
      <trkpt lat="48.57777" lon="1.9145">
        <ele>163</ele>
        <time>2026-03-29T11:39:03Z</time>
      </trkpt>
      <trkpt lat="48.57779" lon="1.91445">
        <ele>163</ele>
        <time>2026-03-29T11:39:04Z</time>
      </trkpt>
      <trkpt lat="48.57781" lon="1.91441">
        <ele>163</ele>
        <time>2026-03-29T11:39:05Z</time>
      </trkpt>
      <trkpt lat="48.57782" lon="1.91436">
        <ele>162.6</ele>
        <time>2026-03-29T11:39:06Z</time>
      </trkpt>
      <trkpt lat="48.57783" lon="1.91431">
        <ele>162.6</ele>
        <time>2026-03-29T11:39:07Z</time>
      </trkpt>
      <trkpt lat="48.57782" lon="1.91425">
        <ele>162.6</ele>
        <time>2026-03-29T11:39:08Z</time>
      </trkpt>
      <trkpt lat="48.5778" lon="1.91421">
        <ele>162.6</ele>
        <time>2026-03-29T11:39:09Z</time>
      </trkpt>
      <trkpt lat="48.57776" lon="1.91419">
        <ele>163.6</ele>
        <time>2026-03-29T11:39:10Z</time>
      </trkpt>
      <trkpt lat="48.57773" lon="1.91416">
        <ele>163.6</ele>
        <time>2026-03-29T11:39:11Z</time>
      </trkpt>
      <trkpt lat="48.57769" lon="1.91415">
        <ele>163.6</ele>
        <time>2026-03-29T11:39:12Z</time>
      </trkpt>
      <trkpt lat="48.57766" lon="1.91413">
        <ele>162.6</ele>
        <time>2026-03-29T11:39:13Z</time>
      </trkpt>
      <trkpt lat="48.57762" lon="1.9141">
        <ele>163.4</ele>
        <time>2026-03-29T11:39:14Z</time>
      </trkpt>
      <trkpt lat="48.57759" lon="1.91408">
        <ele>163.4</ele>
        <time>2026-03-29T11:39:15Z</time>
      </trkpt>
      <trkpt lat="48.57755" lon="1.91406">
        <ele>163.4</ele>
        <time>2026-03-29T11:39:16Z</time>
      </trkpt>
      <trkpt lat="48.57752" lon="1.91404">
        <ele>163.4</ele>
        <time>2026-03-29T11:39:17Z</time>
      </trkpt>
      <trkpt lat="48.57749" lon="1.91402">
        <ele>163.2</ele>
        <time>2026-03-29T11:39:18Z</time>
      </trkpt>
      <trkpt lat="48.57746" lon="1.91401">
        <ele>163.2</ele>
        <time>2026-03-29T11:39:19Z</time>
      </trkpt>
      <trkpt lat="48.57742" lon="1.91399">
        <ele>163.2</ele>
        <time>2026-03-29T11:39:20Z</time>
      </trkpt>
      <trkpt lat="48.57739" lon="1.91397">
        <ele>164</ele>
        <time>2026-03-29T11:39:21Z</time>
      </trkpt>
      <trkpt lat="48.57736" lon="1.91395">
        <ele>164</ele>
        <time>2026-03-29T11:39:22Z</time>
      </trkpt>
      <trkpt lat="48.57733" lon="1.91394">
        <ele>164</ele>
        <time>2026-03-29T11:39:23Z</time>
      </trkpt>
      <trkpt lat="48.57729" lon="1.91392">
        <ele>164</ele>
        <time>2026-03-29T11:39:24Z</time>
      </trkpt>
      <trkpt lat="48.57726" lon="1.9139">
        <ele>164</ele>
        <time>2026-03-29T11:39:25Z</time>
      </trkpt>
      <trkpt lat="48.57723" lon="1.91388">
        <ele>164.2</ele>
        <time>2026-03-29T11:39:26Z</time>
      </trkpt>
      <trkpt lat="48.57719" lon="1.91387">
        <ele>164.2</ele>
        <time>2026-03-29T11:39:27Z</time>
      </trkpt>
      <trkpt lat="48.57716" lon="1.91385">
        <ele>164.2</ele>
        <time>2026-03-29T11:39:28Z</time>
      </trkpt>
      <trkpt lat="48.57712" lon="1.91383">
        <ele>164.2</ele>
        <time>2026-03-29T11:39:29Z</time>
      </trkpt>
      <trkpt lat="48.57709" lon="1.91381">
        <ele>164</ele>
        <time>2026-03-29T11:39:30Z</time>
      </trkpt>
      <trkpt lat="48.57705" lon="1.91379">
        <ele>164</ele>
        <time>2026-03-29T11:39:31Z</time>
      </trkpt>
      <trkpt lat="48.57702" lon="1.91377">
        <ele>164</ele>
        <time>2026-03-29T11:39:32Z</time>
      </trkpt>
      <trkpt lat="48.57699" lon="1.91375">
        <ele>164.8</ele>
        <time>2026-03-29T11:39:33Z</time>
      </trkpt>
      <trkpt lat="48.57695" lon="1.91373">
        <ele>164.6</ele>
        <time>2026-03-29T11:39:34Z</time>
      </trkpt>
      <trkpt lat="48.57692" lon="1.91372">
        <ele>164.6</ele>
        <time>2026-03-29T11:39:35Z</time>
      </trkpt>
      <trkpt lat="48.57689" lon="1.9137">
        <ele>164.6</ele>
        <time>2026-03-29T11:39:36Z</time>
      </trkpt>
      <trkpt lat="48.57685" lon="1.91367">
        <ele>165.2</ele>
        <time>2026-03-29T11:39:37Z</time>
      </trkpt>
      <trkpt lat="48.57682" lon="1.91366">
        <ele>165.8</ele>
        <time>2026-03-29T11:39:38Z</time>
      </trkpt>
      <trkpt lat="48.57679" lon="1.91364">
        <ele>165.8</ele>
        <time>2026-03-29T11:39:39Z</time>
      </trkpt>
      <trkpt lat="48.57675" lon="1.91362">
        <ele>165.8</ele>
        <time>2026-03-29T11:39:40Z</time>
      </trkpt>
      <trkpt lat="48.57672" lon="1.9136">
        <ele>165.8</ele>
        <time>2026-03-29T11:39:41Z</time>
      </trkpt>
      <trkpt lat="48.57669" lon="1.91358">
        <ele>166.4</ele>
        <time>2026-03-29T11:39:42Z</time>
      </trkpt>
      <trkpt lat="48.57665" lon="1.91357">
        <ele>166.4</ele>
        <time>2026-03-29T11:39:43Z</time>
      </trkpt>
      <trkpt lat="48.57662" lon="1.91355">
        <ele>166.4</ele>
        <time>2026-03-29T11:39:44Z</time>
      </trkpt>
      <trkpt lat="48.57659" lon="1.91353">
        <ele>166</ele>
        <time>2026-03-29T11:39:45Z</time>
      </trkpt>
      <trkpt lat="48.57655" lon="1.91351">
        <ele>166</ele>
        <time>2026-03-29T11:39:46Z</time>
      </trkpt>
      <trkpt lat="48.57652" lon="1.9135">
        <ele>166</ele>
        <time>2026-03-29T11:39:47Z</time>
      </trkpt>
      <trkpt lat="48.57649" lon="1.91348">
        <ele>166</ele>
        <time>2026-03-29T11:39:48Z</time>
      </trkpt>
      <trkpt lat="48.57645" lon="1.91346">
        <ele>166.6</ele>
        <time>2026-03-29T11:39:49Z</time>
      </trkpt>
      <trkpt lat="48.57642" lon="1.91345">
        <ele>166.4</ele>
        <time>2026-03-29T11:39:50Z</time>
      </trkpt>
      <trkpt lat="48.57638" lon="1.91344">
        <ele>166.4</ele>
        <time>2026-03-29T11:39:51Z</time>
      </trkpt>
      <trkpt lat="48.57635" lon="1.91343">
        <ele>166.4</ele>
        <time>2026-03-29T11:39:52Z</time>
      </trkpt>
      <trkpt lat="48.57632" lon="1.91341">
        <ele>166.4</ele>
        <time>2026-03-29T11:39:53Z</time>
      </trkpt>
      <trkpt lat="48.57628" lon="1.91339">
        <ele>166.6</ele>
        <time>2026-03-29T11:39:54Z</time>
      </trkpt>
      <trkpt lat="48.57625" lon="1.91336">
        <ele>166.6</ele>
        <time>2026-03-29T11:39:55Z</time>
      </trkpt>
      <trkpt lat="48.57622" lon="1.91334">
        <ele>166.6</ele>
        <time>2026-03-29T11:39:56Z</time>
      </trkpt>
      <trkpt lat="48.57619" lon="1.91332">
        <ele>166.6</ele>
        <time>2026-03-29T11:39:57Z</time>
      </trkpt>
      <trkpt lat="48.57615" lon="1.91331">
        <ele>167.2</ele>
        <time>2026-03-29T11:39:58Z</time>
      </trkpt>
      <trkpt lat="48.57612" lon="1.91329">
        <ele>167.2</ele>
        <time>2026-03-29T11:39:59Z</time>
      </trkpt>
      <trkpt lat="48.57609" lon="1.91327">
        <ele>167.2</ele>
        <time>2026-03-29T11:40:00Z</time>
      </trkpt>
      <trkpt lat="48.57605" lon="1.91325">
        <ele>167</ele>
        <time>2026-03-29T11:40:01Z</time>
      </trkpt>
      <trkpt lat="48.57602" lon="1.91324">
        <ele>167</ele>
        <time>2026-03-29T11:40:02Z</time>
      </trkpt>
      <trkpt lat="48.57598" lon="1.91322">
        <ele>167</ele>
        <time>2026-03-29T11:40:03Z</time>
      </trkpt>
      <trkpt lat="48.57594" lon="1.9132">
        <ele>167</ele>
        <time>2026-03-29T11:40:04Z</time>
      </trkpt>
      <trkpt lat="48.57591" lon="1.91318">
        <ele>167.4</ele>
        <time>2026-03-29T11:40:05Z</time>
      </trkpt>
      <trkpt lat="48.57587" lon="1.91316">
        <ele>167.6</ele>
        <time>2026-03-29T11:40:06Z</time>
      </trkpt>
      <trkpt lat="48.57583" lon="1.91315">
        <ele>167.6</ele>
        <time>2026-03-29T11:40:07Z</time>
      </trkpt>
      <trkpt lat="48.5758" lon="1.91314">
        <ele>167.6</ele>
        <time>2026-03-29T11:40:08Z</time>
      </trkpt>
      <trkpt lat="48.57576" lon="1.91312">
        <ele>167.6</ele>
        <time>2026-03-29T11:40:09Z</time>
      </trkpt>
      <trkpt lat="48.57572" lon="1.91311">
        <ele>167.6</ele>
        <time>2026-03-29T11:40:10Z</time>
      </trkpt>
      <trkpt lat="48.57569" lon="1.9131">
        <ele>167.6</ele>
        <time>2026-03-29T11:40:11Z</time>
      </trkpt>
      <trkpt lat="48.57565" lon="1.91308">
        <ele>167.6</ele>
        <time>2026-03-29T11:40:12Z</time>
      </trkpt>
      <trkpt lat="48.57561" lon="1.91307">
        <ele>167.6</ele>
        <time>2026-03-29T11:40:13Z</time>
      </trkpt>
      <trkpt lat="48.57557" lon="1.91306">
        <ele>167.6</ele>
        <time>2026-03-29T11:40:14Z</time>
      </trkpt>
      <trkpt lat="48.57553" lon="1.91305">
        <ele>167.6</ele>
        <time>2026-03-29T11:40:15Z</time>
      </trkpt>
      <trkpt lat="48.57549" lon="1.91304">
        <ele>167.6</ele>
        <time>2026-03-29T11:40:16Z</time>
      </trkpt>
      <trkpt lat="48.57546" lon="1.91303">
        <ele>167.6</ele>
        <time>2026-03-29T11:40:17Z</time>
      </trkpt>
      <trkpt lat="48.57542" lon="1.91301">
        <ele>167.8</ele>
        <time>2026-03-29T11:40:18Z</time>
      </trkpt>
      <trkpt lat="48.57538" lon="1.913">
        <ele>167.8</ele>
        <time>2026-03-29T11:40:19Z</time>
      </trkpt>
      <trkpt lat="48.57535" lon="1.91298">
        <ele>167.8</ele>
        <time>2026-03-29T11:40:20Z</time>
      </trkpt>
      <trkpt lat="48.57532" lon="1.91295">
        <ele>167.8</ele>
        <time>2026-03-29T11:40:21Z</time>
      </trkpt>
      <trkpt lat="48.57531" lon="1.9129">
        <ele>168.8</ele>
        <time>2026-03-29T11:40:22Z</time>
      </trkpt>
      <trkpt lat="48.57532" lon="1.91286">
        <ele>168.8</ele>
        <time>2026-03-29T11:40:23Z</time>
      </trkpt>
      <trkpt lat="48.57534" lon="1.91282">
        <ele>168.8</ele>
        <time>2026-03-29T11:40:24Z</time>
      </trkpt>
      <trkpt lat="48.57537" lon="1.91279">
        <ele>168.8</ele>
        <time>2026-03-29T11:40:25Z</time>
      </trkpt>
      <trkpt lat="48.5754" lon="1.91277">
        <ele>169.2</ele>
        <time>2026-03-29T11:40:26Z</time>
      </trkpt>
      <trkpt lat="48.57543" lon="1.91274">
        <ele>169.2</ele>
        <time>2026-03-29T11:40:27Z</time>
      </trkpt>
      <trkpt lat="48.57547" lon="1.91271">
        <ele>169.2</ele>
        <time>2026-03-29T11:40:28Z</time>
      </trkpt>
      <trkpt lat="48.5755" lon="1.91268">
        <ele>168.2</ele>
        <time>2026-03-29T11:40:29Z</time>
      </trkpt>
      <trkpt lat="48.57554" lon="1.91265">
        <ele>169</ele>
        <time>2026-03-29T11:40:30Z</time>
      </trkpt>
      <trkpt lat="48.57557" lon="1.91262">
        <ele>169</ele>
        <time>2026-03-29T11:40:31Z</time>
      </trkpt>
      <trkpt lat="48.5756" lon="1.91258">
        <ele>169</ele>
        <time>2026-03-29T11:40:32Z</time>
      </trkpt>
      <trkpt lat="48.57564" lon="1.91255">
        <ele>169</ele>
        <time>2026-03-29T11:40:33Z</time>
      </trkpt>
      <trkpt lat="48.57568" lon="1.91252">
        <ele>169</ele>
        <time>2026-03-29T11:40:34Z</time>
      </trkpt>
      <trkpt lat="48.57571" lon="1.91249">
        <ele>169</ele>
        <time>2026-03-29T11:40:35Z</time>
      </trkpt>
      <trkpt lat="48.57575" lon="1.91245">
        <ele>169</ele>
        <time>2026-03-29T11:40:36Z</time>
      </trkpt>
      <trkpt lat="48.57578" lon="1.91242">
        <ele>169</ele>
        <time>2026-03-29T11:40:37Z</time>
      </trkpt>
      <trkpt lat="48.57581" lon="1.91238">
        <ele>168.8</ele>
        <time>2026-03-29T11:40:38Z</time>
      </trkpt>
      <trkpt lat="48.57585" lon="1.91235">
        <ele>168.8</ele>
        <time>2026-03-29T11:40:39Z</time>
      </trkpt>
      <trkpt lat="48.57589" lon="1.91231">
        <ele>168.8</ele>
        <time>2026-03-29T11:40:40Z</time>
      </trkpt>
      <trkpt lat="48.57593" lon="1.91227">
        <ele>168.8</ele>
        <time>2026-03-29T11:40:41Z</time>
      </trkpt>
      <trkpt lat="48.57597" lon="1.91224">
        <ele>169.4</ele>
        <time>2026-03-29T11:40:42Z</time>
      </trkpt>
      <trkpt lat="48.576" lon="1.9122">
        <ele>169.4</ele>
        <time>2026-03-29T11:40:43Z</time>
      </trkpt>
      <trkpt lat="48.57604" lon="1.91217">
        <ele>169.4</ele>
        <time>2026-03-29T11:40:44Z</time>
      </trkpt>
      <trkpt lat="48.57608" lon="1.91213">
        <ele>169.2</ele>
        <time>2026-03-29T11:40:45Z</time>
      </trkpt>
      <trkpt lat="48.57612" lon="1.91209">
        <ele>169.2</ele>
        <time>2026-03-29T11:40:46Z</time>
      </trkpt>
      <trkpt lat="48.57615" lon="1.91205">
        <ele>169.2</ele>
        <time>2026-03-29T11:40:47Z</time>
      </trkpt>
      <trkpt lat="48.57619" lon="1.91201">
        <ele>169.2</ele>
        <time>2026-03-29T11:40:48Z</time>
      </trkpt>
      <trkpt lat="48.57623" lon="1.91197">
        <ele>168.8</ele>
        <time>2026-03-29T11:40:49Z</time>
      </trkpt>
      <trkpt lat="48.57626" lon="1.91193">
        <ele>168</ele>
        <time>2026-03-29T11:40:50Z</time>
      </trkpt>
      <trkpt lat="48.5763" lon="1.91189">
        <ele>168</ele>
        <time>2026-03-29T11:40:51Z</time>
      </trkpt>
      <trkpt lat="48.57634" lon="1.91185">
        <ele>168</ele>
        <time>2026-03-29T11:40:52Z</time>
      </trkpt>
      <trkpt lat="48.57637" lon="1.91181">
        <ele>169</ele>
        <time>2026-03-29T11:40:53Z</time>
      </trkpt>
      <trkpt lat="48.57641" lon="1.91176">
        <ele>169.2</ele>
        <time>2026-03-29T11:40:54Z</time>
      </trkpt>
      <trkpt lat="48.57644" lon="1.91172">
        <ele>169.2</ele>
        <time>2026-03-29T11:40:55Z</time>
      </trkpt>
      <trkpt lat="48.57648" lon="1.91168">
        <ele>169.2</ele>
        <time>2026-03-29T11:40:56Z</time>
      </trkpt>
      <trkpt lat="48.57651" lon="1.91164">
        <ele>168.8</ele>
        <time>2026-03-29T11:40:57Z</time>
      </trkpt>
      <trkpt lat="48.57655" lon="1.91159">
        <ele>169.2</ele>
        <time>2026-03-29T11:40:58Z</time>
      </trkpt>
      <trkpt lat="48.57658" lon="1.91155">
        <ele>169.2</ele>
        <time>2026-03-29T11:40:59Z</time>
      </trkpt>
      <trkpt lat="48.57662" lon="1.9115">
        <ele>169.2</ele>
        <time>2026-03-29T11:41:00Z</time>
      </trkpt>
      <trkpt lat="48.57664" lon="1.91144">
        <ele>169.2</ele>
        <time>2026-03-29T11:41:01Z</time>
      </trkpt>
      <trkpt lat="48.57667" lon="1.91139">
        <ele>168.6</ele>
        <time>2026-03-29T11:41:02Z</time>
      </trkpt>
      <trkpt lat="48.5767" lon="1.91134">
        <ele>168.6</ele>
        <time>2026-03-29T11:41:03Z</time>
      </trkpt>
      <trkpt lat="48.57674" lon="1.91129">
        <ele>168.6</ele>
        <time>2026-03-29T11:41:04Z</time>
      </trkpt>
      <trkpt lat="48.57676" lon="1.91123">
        <ele>168.6</ele>
        <time>2026-03-29T11:41:05Z</time>
      </trkpt>
      <trkpt lat="48.57679" lon="1.91118">
        <ele>168.6</ele>
        <time>2026-03-29T11:41:06Z</time>
      </trkpt>
      <trkpt lat="48.57682" lon="1.91112">
        <ele>168.6</ele>
        <time>2026-03-29T11:41:07Z</time>
      </trkpt>
      <trkpt lat="48.57685" lon="1.91106">
        <ele>168.6</ele>
        <time>2026-03-29T11:41:08Z</time>
      </trkpt>
      <trkpt lat="48.57688" lon="1.91101">
        <ele>168.2</ele>
        <time>2026-03-29T11:41:09Z</time>
      </trkpt>
      <trkpt lat="48.57691" lon="1.91095">
        <ele>168.4</ele>
        <time>2026-03-29T11:41:10Z</time>
      </trkpt>
      <trkpt lat="48.57694" lon="1.91089">
        <ele>168.4</ele>
        <time>2026-03-29T11:41:11Z</time>
      </trkpt>
      <trkpt lat="48.57697" lon="1.91084">
        <ele>168.4</ele>
        <time>2026-03-29T11:41:12Z</time>
      </trkpt>
      <trkpt lat="48.577" lon="1.91078">
        <ele>168.4</ele>
        <time>2026-03-29T11:41:13Z</time>
      </trkpt>
      <trkpt lat="48.57702" lon="1.91072">
        <ele>169</ele>
        <time>2026-03-29T11:41:14Z</time>
      </trkpt>
      <trkpt lat="48.57705" lon="1.91066">
        <ele>169</ele>
        <time>2026-03-29T11:41:15Z</time>
      </trkpt>
      <trkpt lat="48.57707" lon="1.91061">
        <ele>169</ele>
        <time>2026-03-29T11:41:16Z</time>
      </trkpt>
      <trkpt lat="48.5771" lon="1.91055">
        <ele>169</ele>
        <time>2026-03-29T11:41:17Z</time>
      </trkpt>
      <trkpt lat="48.57713" lon="1.91049">
        <ele>168.6</ele>
        <time>2026-03-29T11:41:18Z</time>
      </trkpt>
      <trkpt lat="48.57715" lon="1.91043">
        <ele>168.6</ele>
        <time>2026-03-29T11:41:19Z</time>
      </trkpt>
      <trkpt lat="48.57718" lon="1.91037">
        <ele>168.6</ele>
        <time>2026-03-29T11:41:20Z</time>
      </trkpt>
      <trkpt lat="48.57721" lon="1.91032">
        <ele>169</ele>
        <time>2026-03-29T11:41:21Z</time>
      </trkpt>
      <trkpt lat="48.57724" lon="1.91026">
        <ele>168.2</ele>
        <time>2026-03-29T11:41:22Z</time>
      </trkpt>
      <trkpt lat="48.57726" lon="1.9102">
        <ele>168.2</ele>
        <time>2026-03-29T11:41:23Z</time>
      </trkpt>
      <trkpt lat="48.57729" lon="1.91015">
        <ele>168.2</ele>
        <time>2026-03-29T11:41:24Z</time>
      </trkpt>
      <trkpt lat="48.57731" lon="1.91009">
        <ele>169.2</ele>
        <time>2026-03-29T11:41:25Z</time>
      </trkpt>
      <trkpt lat="48.57734" lon="1.91003">
        <ele>168.4</ele>
        <time>2026-03-29T11:41:26Z</time>
      </trkpt>
      <trkpt lat="48.57736" lon="1.90997">
        <ele>168.4</ele>
        <time>2026-03-29T11:41:27Z</time>
      </trkpt>
      <trkpt lat="48.57738" lon="1.90991">
        <ele>168.4</ele>
        <time>2026-03-29T11:41:28Z</time>
      </trkpt>
      <trkpt lat="48.57741" lon="1.90985">
        <ele>169.4</ele>
        <time>2026-03-29T11:41:29Z</time>
      </trkpt>
      <trkpt lat="48.57743" lon="1.90979">
        <ele>169</ele>
        <time>2026-03-29T11:41:30Z</time>
      </trkpt>
      <trkpt lat="48.57746" lon="1.90973">
        <ele>169</ele>
        <time>2026-03-29T11:41:31Z</time>
      </trkpt>
      <trkpt lat="48.57749" lon="1.90967">
        <ele>169</ele>
        <time>2026-03-29T11:41:32Z</time>
      </trkpt>
      <trkpt lat="48.57752" lon="1.90962">
        <ele>169</ele>
        <time>2026-03-29T11:41:33Z</time>
      </trkpt>
      <trkpt lat="48.57754" lon="1.90956">
        <ele>169</ele>
        <time>2026-03-29T11:41:34Z</time>
      </trkpt>
      <trkpt lat="48.57757" lon="1.9095">
        <ele>169</ele>
        <time>2026-03-29T11:41:35Z</time>
      </trkpt>
      <trkpt lat="48.57759" lon="1.90944">
        <ele>169</ele>
        <time>2026-03-29T11:41:36Z</time>
      </trkpt>
      <trkpt lat="48.57762" lon="1.90937">
        <ele>169</ele>
        <time>2026-03-29T11:41:37Z</time>
      </trkpt>
      <trkpt lat="48.57764" lon="1.90931">
        <ele>169.6</ele>
        <time>2026-03-29T11:41:38Z</time>
      </trkpt>
      <trkpt lat="48.57766" lon="1.90925">
        <ele>169.6</ele>
        <time>2026-03-29T11:41:39Z</time>
      </trkpt>
      <trkpt lat="48.57768" lon="1.90919">
        <ele>169.6</ele>
        <time>2026-03-29T11:41:40Z</time>
      </trkpt>
      <trkpt lat="48.5777" lon="1.90913">
        <ele>169.6</ele>
        <time>2026-03-29T11:41:41Z</time>
      </trkpt>
      <trkpt lat="48.57773" lon="1.90907">
        <ele>169.2</ele>
        <time>2026-03-29T11:41:42Z</time>
      </trkpt>
      <trkpt lat="48.57775" lon="1.90902">
        <ele>169.2</ele>
        <time>2026-03-29T11:41:43Z</time>
      </trkpt>
      <trkpt lat="48.57778" lon="1.90896">
        <ele>169.2</ele>
        <time>2026-03-29T11:41:44Z</time>
      </trkpt>
      <trkpt lat="48.57781" lon="1.9089">
        <ele>170</ele>
        <time>2026-03-29T11:41:45Z</time>
      </trkpt>
      <trkpt lat="48.57783" lon="1.90884">
        <ele>169.4</ele>
        <time>2026-03-29T11:41:46Z</time>
      </trkpt>
      <trkpt lat="48.57786" lon="1.90878">
        <ele>169.4</ele>
        <time>2026-03-29T11:41:47Z</time>
      </trkpt>
      <trkpt lat="48.57788" lon="1.90872">
        <ele>169.4</ele>
        <time>2026-03-29T11:41:48Z</time>
      </trkpt>
      <trkpt lat="48.57792" lon="1.90867">
        <ele>169.4</ele>
        <time>2026-03-29T11:41:49Z</time>
      </trkpt>
      <trkpt lat="48.57794" lon="1.90861">
        <ele>169.8</ele>
        <time>2026-03-29T11:41:50Z</time>
      </trkpt>
      <trkpt lat="48.57797" lon="1.90855">
        <ele>169.8</ele>
        <time>2026-03-29T11:41:51Z</time>
      </trkpt>
      <trkpt lat="48.57799" lon="1.90849">
        <ele>169.8</ele>
        <time>2026-03-29T11:41:52Z</time>
      </trkpt>
      <trkpt lat="48.57802" lon="1.90844">
        <ele>170</ele>
        <time>2026-03-29T11:41:53Z</time>
      </trkpt>
      <trkpt lat="48.57804" lon="1.90838">
        <ele>170</ele>
        <time>2026-03-29T11:41:54Z</time>
      </trkpt>
      <trkpt lat="48.57807" lon="1.90833">
        <ele>170</ele>
        <time>2026-03-29T11:41:55Z</time>
      </trkpt>
      <trkpt lat="48.57809" lon="1.90827">
        <ele>170</ele>
        <time>2026-03-29T11:41:56Z</time>
      </trkpt>
      <trkpt lat="48.57812" lon="1.90821">
        <ele>170</ele>
        <time>2026-03-29T11:41:57Z</time>
      </trkpt>
      <trkpt lat="48.57814" lon="1.90815">
        <ele>170.4</ele>
        <time>2026-03-29T11:41:58Z</time>
      </trkpt>
      <trkpt lat="48.57817" lon="1.90809">
        <ele>170.4</ele>
        <time>2026-03-29T11:41:59Z</time>
      </trkpt>
      <trkpt lat="48.57819" lon="1.90803">
        <ele>170.4</ele>
        <time>2026-03-29T11:42:00Z</time>
      </trkpt>
      <trkpt lat="48.57821" lon="1.90797">
        <ele>170.2</ele>
        <time>2026-03-29T11:42:01Z</time>
      </trkpt>
      <trkpt lat="48.57824" lon="1.90791">
        <ele>170.8</ele>
        <time>2026-03-29T11:42:02Z</time>
      </trkpt>
      <trkpt lat="48.57826" lon="1.90785">
        <ele>170.8</ele>
        <time>2026-03-29T11:42:03Z</time>
      </trkpt>
      <trkpt lat="48.57829" lon="1.90779">
        <ele>170.8</ele>
        <time>2026-03-29T11:42:04Z</time>
      </trkpt>
      <trkpt lat="48.57831" lon="1.90773">
        <ele>170.8</ele>
        <time>2026-03-29T11:42:05Z</time>
      </trkpt>
      <trkpt lat="48.57833" lon="1.90766">
        <ele>170.8</ele>
        <time>2026-03-29T11:42:06Z</time>
      </trkpt>
      <trkpt lat="48.57836" lon="1.9076">
        <ele>170.8</ele>
        <time>2026-03-29T11:42:07Z</time>
      </trkpt>
      <trkpt lat="48.57838" lon="1.90753">
        <ele>170.8</ele>
        <time>2026-03-29T11:42:08Z</time>
      </trkpt>
      <trkpt lat="48.5784" lon="1.90747">
        <ele>170.8</ele>
        <time>2026-03-29T11:42:09Z</time>
      </trkpt>
      <trkpt lat="48.57843" lon="1.90741">
        <ele>171</ele>
        <time>2026-03-29T11:42:10Z</time>
      </trkpt>
      <trkpt lat="48.57845" lon="1.90734">
        <ele>171</ele>
        <time>2026-03-29T11:42:11Z</time>
      </trkpt>
      <trkpt lat="48.57847" lon="1.90727">
        <ele>171</ele>
        <time>2026-03-29T11:42:12Z</time>
      </trkpt>
      <trkpt lat="48.57849" lon="1.90721">
        <ele>170.6</ele>
        <time>2026-03-29T11:42:13Z</time>
      </trkpt>
      <trkpt lat="48.57852" lon="1.90715">
        <ele>170.8</ele>
        <time>2026-03-29T11:42:14Z</time>
      </trkpt>
      <trkpt lat="48.57854" lon="1.90708">
        <ele>170.8</ele>
        <time>2026-03-29T11:42:15Z</time>
      </trkpt>
      <trkpt lat="48.57856" lon="1.90702">
        <ele>170.8</ele>
        <time>2026-03-29T11:42:16Z</time>
      </trkpt>
      <trkpt lat="48.57858" lon="1.90696">
        <ele>170.8</ele>
        <time>2026-03-29T11:42:17Z</time>
      </trkpt>
      <trkpt lat="48.5786" lon="1.90689">
        <ele>170.4</ele>
        <time>2026-03-29T11:42:18Z</time>
      </trkpt>
      <trkpt lat="48.57862" lon="1.90683">
        <ele>170.4</ele>
        <time>2026-03-29T11:42:19Z</time>
      </trkpt>
      <trkpt lat="48.57865" lon="1.90676">
        <ele>170.4</ele>
        <time>2026-03-29T11:42:20Z</time>
      </trkpt>
      <trkpt lat="48.57867" lon="1.9067">
        <ele>170.4</ele>
        <time>2026-03-29T11:42:21Z</time>
      </trkpt>
      <trkpt lat="48.57869" lon="1.90663">
        <ele>171.2</ele>
        <time>2026-03-29T11:42:22Z</time>
      </trkpt>
      <trkpt lat="48.57871" lon="1.90657">
        <ele>171.2</ele>
        <time>2026-03-29T11:42:23Z</time>
      </trkpt>
      <trkpt lat="48.57873" lon="1.9065">
        <ele>171.2</ele>
        <time>2026-03-29T11:42:24Z</time>
      </trkpt>
      <trkpt lat="48.57875" lon="1.90643">
        <ele>170.6</ele>
        <time>2026-03-29T11:42:25Z</time>
      </trkpt>
      <trkpt lat="48.57877" lon="1.90636">
        <ele>171</ele>
        <time>2026-03-29T11:42:26Z</time>
      </trkpt>
      <trkpt lat="48.57879" lon="1.90629">
        <ele>171</ele>
        <time>2026-03-29T11:42:27Z</time>
      </trkpt>
      <trkpt lat="48.57881" lon="1.90622">
        <ele>171</ele>
        <time>2026-03-29T11:42:28Z</time>
      </trkpt>
      <trkpt lat="48.57883" lon="1.90616">
        <ele>171.2</ele>
        <time>2026-03-29T11:42:29Z</time>
      </trkpt>
      <trkpt lat="48.57885" lon="1.90609">
        <ele>170.8</ele>
        <time>2026-03-29T11:42:30Z</time>
      </trkpt>
      <trkpt lat="48.57886" lon="1.90602">
        <ele>170.8</ele>
        <time>2026-03-29T11:42:31Z</time>
      </trkpt>
      <trkpt lat="48.57888" lon="1.90596">
        <ele>170.8</ele>
        <time>2026-03-29T11:42:32Z</time>
      </trkpt>
      <trkpt lat="48.5789" lon="1.90589">
        <ele>171.2</ele>
        <time>2026-03-29T11:42:33Z</time>
      </trkpt>
      <trkpt lat="48.57892" lon="1.90583">
        <ele>171.2</ele>
        <time>2026-03-29T11:42:34Z</time>
      </trkpt>
      <trkpt lat="48.57894" lon="1.90576">
        <ele>171.2</ele>
        <time>2026-03-29T11:42:35Z</time>
      </trkpt>
      <trkpt lat="48.57896" lon="1.9057">
        <ele>171.2</ele>
        <time>2026-03-29T11:42:36Z</time>
      </trkpt>
      <trkpt lat="48.57898" lon="1.90563">
        <ele>171.2</ele>
        <time>2026-03-29T11:42:37Z</time>
      </trkpt>
      <trkpt lat="48.579" lon="1.90557">
        <ele>171.2</ele>
        <time>2026-03-29T11:42:38Z</time>
      </trkpt>
      <trkpt lat="48.57902" lon="1.9055">
        <ele>171.2</ele>
        <time>2026-03-29T11:42:39Z</time>
      </trkpt>
      <trkpt lat="48.57904" lon="1.90544">
        <ele>171.2</ele>
        <time>2026-03-29T11:42:40Z</time>
      </trkpt>
      <trkpt lat="48.57906" lon="1.90537">
        <ele>171.2</ele>
        <time>2026-03-29T11:42:41Z</time>
      </trkpt>
      <trkpt lat="48.57908" lon="1.90531">
        <ele>171.8</ele>
        <time>2026-03-29T11:42:42Z</time>
      </trkpt>
      <trkpt lat="48.5791" lon="1.90524">
        <ele>171.8</ele>
        <time>2026-03-29T11:42:43Z</time>
      </trkpt>
      <trkpt lat="48.57912" lon="1.90517">
        <ele>171.8</ele>
        <time>2026-03-29T11:42:44Z</time>
      </trkpt>
      <trkpt lat="48.57914" lon="1.90511">
        <ele>171.2</ele>
        <time>2026-03-29T11:42:45Z</time>
      </trkpt>
      <trkpt lat="48.57916" lon="1.90504">
        <ele>171.8</ele>
        <time>2026-03-29T11:42:46Z</time>
      </trkpt>
      <trkpt lat="48.57919" lon="1.90497">
        <ele>171.8</ele>
        <time>2026-03-29T11:42:47Z</time>
      </trkpt>
      <trkpt lat="48.57921" lon="1.9049">
        <ele>171.8</ele>
        <time>2026-03-29T11:42:48Z</time>
      </trkpt>
      <trkpt lat="48.57923" lon="1.90484">
        <ele>171.6</ele>
        <time>2026-03-29T11:42:49Z</time>
      </trkpt>
      <trkpt lat="48.57925" lon="1.90477">
        <ele>171.6</ele>
        <time>2026-03-29T11:42:50Z</time>
      </trkpt>
      <trkpt lat="48.57927" lon="1.90471">
        <ele>171.6</ele>
        <time>2026-03-29T11:42:51Z</time>
      </trkpt>
      <trkpt lat="48.57929" lon="1.90464">
        <ele>171.6</ele>
        <time>2026-03-29T11:42:52Z</time>
      </trkpt>
      <trkpt lat="48.57931" lon="1.90457">
        <ele>171.6</ele>
        <time>2026-03-29T11:42:53Z</time>
      </trkpt>
      <trkpt lat="48.57933" lon="1.9045">
        <ele>171.2</ele>
        <time>2026-03-29T11:42:54Z</time>
      </trkpt>
      <trkpt lat="48.57935" lon="1.90444">
        <ele>171.2</ele>
        <time>2026-03-29T11:42:55Z</time>
      </trkpt>
      <trkpt lat="48.57937" lon="1.90437">
        <ele>171.2</ele>
        <time>2026-03-29T11:42:56Z</time>
      </trkpt>
      <trkpt lat="48.57939" lon="1.9043">
        <ele>171.2</ele>
        <time>2026-03-29T11:42:57Z</time>
      </trkpt>
      <trkpt lat="48.57942" lon="1.90423">
        <ele>171.6</ele>
        <time>2026-03-29T11:42:58Z</time>
      </trkpt>
      <trkpt lat="48.57944" lon="1.90416">
        <ele>171.6</ele>
        <time>2026-03-29T11:42:59Z</time>
      </trkpt>
      <trkpt lat="48.57946" lon="1.90409">
        <ele>171.6</ele>
        <time>2026-03-29T11:43:00Z</time>
      </trkpt>
      <trkpt lat="48.57948" lon="1.90402">
        <ele>171.6</ele>
        <time>2026-03-29T11:43:01Z</time>
      </trkpt>
      <trkpt lat="48.57949" lon="1.90395">
        <ele>171.4</ele>
        <time>2026-03-29T11:43:02Z</time>
      </trkpt>
      <trkpt lat="48.57951" lon="1.90388">
        <ele>171.4</ele>
        <time>2026-03-29T11:43:03Z</time>
      </trkpt>
      <trkpt lat="48.57953" lon="1.90382">
        <ele>171.4</ele>
        <time>2026-03-29T11:43:04Z</time>
      </trkpt>
      <trkpt lat="48.57955" lon="1.90375">
        <ele>172.2</ele>
        <time>2026-03-29T11:43:05Z</time>
      </trkpt>
      <trkpt lat="48.57957" lon="1.90369">
        <ele>172.2</ele>
        <time>2026-03-29T11:43:06Z</time>
      </trkpt>
      <trkpt lat="48.57959" lon="1.90363">
        <ele>172.2</ele>
        <time>2026-03-29T11:43:07Z</time>
      </trkpt>
      <trkpt lat="48.57962" lon="1.90357">
        <ele>172.2</ele>
        <time>2026-03-29T11:43:08Z</time>
      </trkpt>
      <trkpt lat="48.57964" lon="1.90351">
        <ele>172.2</ele>
        <time>2026-03-29T11:43:09Z</time>
      </trkpt>
      <trkpt lat="48.57966" lon="1.90345">
        <ele>172.2</ele>
        <time>2026-03-29T11:43:10Z</time>
      </trkpt>
      <trkpt lat="48.57967" lon="1.90339">
        <ele>172.2</ele>
        <time>2026-03-29T11:43:11Z</time>
      </trkpt>
      <trkpt lat="48.57969" lon="1.90333">
        <ele>172.2</ele>
        <time>2026-03-29T11:43:12Z</time>
      </trkpt>
      <trkpt lat="48.57971" lon="1.90328">
        <ele>172.2</ele>
        <time>2026-03-29T11:43:13Z</time>
      </trkpt>
      <trkpt lat="48.57973" lon="1.90323">
        <ele>172</ele>
        <time>2026-03-29T11:43:14Z</time>
      </trkpt>
      <trkpt lat="48.57975" lon="1.90318">
        <ele>172</ele>
        <time>2026-03-29T11:43:15Z</time>
      </trkpt>
      <trkpt lat="48.57977" lon="1.90313">
        <ele>172</ele>
        <time>2026-03-29T11:43:16Z</time>
      </trkpt>
      <trkpt lat="48.57979" lon="1.90307">
        <ele>172</ele>
        <time>2026-03-29T11:43:17Z</time>
      </trkpt>
      <trkpt lat="48.5798" lon="1.90301">
        <ele>172.2</ele>
        <time>2026-03-29T11:43:18Z</time>
      </trkpt>
      <trkpt lat="48.57981" lon="1.90295">
        <ele>172.2</ele>
        <time>2026-03-29T11:43:19Z</time>
      </trkpt>
      <trkpt lat="48.57983" lon="1.90289">
        <ele>172.2</ele>
        <time>2026-03-29T11:43:20Z</time>
      </trkpt>
      <trkpt lat="48.57985" lon="1.90284">
        <ele>172.2</ele>
        <time>2026-03-29T11:43:21Z</time>
      </trkpt>
      <trkpt lat="48.57986" lon="1.90277">
        <ele>172.2</ele>
        <time>2026-03-29T11:43:22Z</time>
      </trkpt>
      <trkpt lat="48.57988" lon="1.90271">
        <ele>172.2</ele>
        <time>2026-03-29T11:43:23Z</time>
      </trkpt>
      <trkpt lat="48.57989" lon="1.90265">
        <ele>172.2</ele>
        <time>2026-03-29T11:43:24Z</time>
      </trkpt>
      <trkpt lat="48.57991" lon="1.90259">
        <ele>172.2</ele>
        <time>2026-03-29T11:43:25Z</time>
      </trkpt>
      <trkpt lat="48.57994" lon="1.90254">
        <ele>172.2</ele>
        <time>2026-03-29T11:43:26Z</time>
      </trkpt>
      <trkpt lat="48.57996" lon="1.90249">
        <ele>172.2</ele>
        <time>2026-03-29T11:43:27Z</time>
      </trkpt>
      <trkpt lat="48.57998" lon="1.90243">
        <ele>172.2</ele>
        <time>2026-03-29T11:43:28Z</time>
      </trkpt>
      <trkpt lat="48.58" lon="1.90237">
        <ele>173</ele>
        <time>2026-03-29T11:43:29Z</time>
      </trkpt>
      <trkpt lat="48.58002" lon="1.9023">
        <ele>172.4</ele>
        <time>2026-03-29T11:43:30Z</time>
      </trkpt>
      <trkpt lat="48.58004" lon="1.90224">
        <ele>172.4</ele>
        <time>2026-03-29T11:43:31Z</time>
      </trkpt>
      <trkpt lat="48.58006" lon="1.90218">
        <ele>172.4</ele>
        <time>2026-03-29T11:43:32Z</time>
      </trkpt>
      <trkpt lat="48.58008" lon="1.90212">
        <ele>172.4</ele>
        <time>2026-03-29T11:43:33Z</time>
      </trkpt>
      <trkpt lat="48.5801" lon="1.90205">
        <ele>172.4</ele>
        <time>2026-03-29T11:43:34Z</time>
      </trkpt>
      <trkpt lat="48.58012" lon="1.90199">
        <ele>172.4</ele>
        <time>2026-03-29T11:43:35Z</time>
      </trkpt>
      <trkpt lat="48.58014" lon="1.90193">
        <ele>172.4</ele>
        <time>2026-03-29T11:43:36Z</time>
      </trkpt>
      <trkpt lat="48.58016" lon="1.90187">
        <ele>172.2</ele>
        <time>2026-03-29T11:43:37Z</time>
      </trkpt>
      <trkpt lat="48.58019" lon="1.90181">
        <ele>172</ele>
        <time>2026-03-29T11:43:38Z</time>
      </trkpt>
      <trkpt lat="48.58021" lon="1.90175">
        <ele>172</ele>
        <time>2026-03-29T11:43:39Z</time>
      </trkpt>
      <trkpt lat="48.58023" lon="1.90169">
        <ele>172</ele>
        <time>2026-03-29T11:43:40Z</time>
      </trkpt>
      <trkpt lat="48.58026" lon="1.90164">
        <ele>172</ele>
        <time>2026-03-29T11:43:41Z</time>
      </trkpt>
      <trkpt lat="48.58029" lon="1.90159">
        <ele>172.4</ele>
        <time>2026-03-29T11:43:42Z</time>
      </trkpt>
      <trkpt lat="48.58031" lon="1.90153">
        <ele>172.4</ele>
        <time>2026-03-29T11:43:43Z</time>
      </trkpt>
      <trkpt lat="48.58034" lon="1.90148">
        <ele>172.4</ele>
        <time>2026-03-29T11:43:44Z</time>
      </trkpt>
      <trkpt lat="48.58037" lon="1.90143">
        <ele>172.4</ele>
        <time>2026-03-29T11:43:45Z</time>
      </trkpt>
      <trkpt lat="48.5804" lon="1.90138">
        <ele>172.2</ele>
        <time>2026-03-29T11:43:46Z</time>
      </trkpt>
      <trkpt lat="48.58043" lon="1.90133">
        <ele>172.2</ele>
        <time>2026-03-29T11:43:47Z</time>
      </trkpt>
      <trkpt lat="48.58046" lon="1.90128">
        <ele>172.2</ele>
        <time>2026-03-29T11:43:48Z</time>
      </trkpt>
      <trkpt lat="48.5805" lon="1.90124">
        <ele>172.2</ele>
        <time>2026-03-29T11:43:49Z</time>
      </trkpt>
      <trkpt lat="48.58053" lon="1.90119">
        <ele>172.2</ele>
        <time>2026-03-29T11:43:50Z</time>
      </trkpt>
      <trkpt lat="48.58056" lon="1.90114">
        <ele>172.2</ele>
        <time>2026-03-29T11:43:51Z</time>
      </trkpt>
      <trkpt lat="48.5806" lon="1.9011">
        <ele>172.2</ele>
        <time>2026-03-29T11:43:52Z</time>
      </trkpt>
      <trkpt lat="48.58063" lon="1.90106">
        <ele>172.8</ele>
        <time>2026-03-29T11:43:53Z</time>
      </trkpt>
      <trkpt lat="48.58066" lon="1.90102">
        <ele>173.6</ele>
        <time>2026-03-29T11:43:54Z</time>
      </trkpt>
      <trkpt lat="48.5807" lon="1.90097">
        <ele>173.6</ele>
        <time>2026-03-29T11:43:55Z</time>
      </trkpt>
      <trkpt lat="48.58073" lon="1.90093">
        <ele>173.6</ele>
        <time>2026-03-29T11:43:56Z</time>
      </trkpt>
      <trkpt lat="48.58077" lon="1.90089">
        <ele>173.6</ele>
        <time>2026-03-29T11:43:57Z</time>
      </trkpt>
      <trkpt lat="48.58081" lon="1.90085">
        <ele>172.8</ele>
        <time>2026-03-29T11:43:58Z</time>
      </trkpt>
      <trkpt lat="48.58084" lon="1.90081">
        <ele>172.8</ele>
        <time>2026-03-29T11:43:59Z</time>
      </trkpt>
      <trkpt lat="48.58088" lon="1.90076">
        <ele>172.8</ele>
        <time>2026-03-29T11:44:00Z</time>
      </trkpt>
      <trkpt lat="48.58091" lon="1.90072">
        <ele>172.8</ele>
        <time>2026-03-29T11:44:01Z</time>
      </trkpt>
      <trkpt lat="48.58095" lon="1.90068">
        <ele>172.4</ele>
        <time>2026-03-29T11:44:02Z</time>
      </trkpt>
      <trkpt lat="48.58098" lon="1.90063">
        <ele>172.4</ele>
        <time>2026-03-29T11:44:03Z</time>
      </trkpt>
      <trkpt lat="48.58102" lon="1.90059">
        <ele>172.4</ele>
        <time>2026-03-29T11:44:04Z</time>
      </trkpt>
      <trkpt lat="48.58105" lon="1.90055">
        <ele>172.4</ele>
        <time>2026-03-29T11:44:05Z</time>
      </trkpt>
      <trkpt lat="48.58109" lon="1.9005">
        <ele>172.2</ele>
        <time>2026-03-29T11:44:06Z</time>
      </trkpt>
      <trkpt lat="48.58112" lon="1.90046">
        <ele>172.2</ele>
        <time>2026-03-29T11:44:07Z</time>
      </trkpt>
      <trkpt lat="48.58116" lon="1.90041">
        <ele>172.2</ele>
        <time>2026-03-29T11:44:08Z</time>
      </trkpt>
      <trkpt lat="48.58119" lon="1.90036">
        <ele>172.2</ele>
        <time>2026-03-29T11:44:09Z</time>
      </trkpt>
      <trkpt lat="48.58122" lon="1.90031">
        <ele>172.8</ele>
        <time>2026-03-29T11:44:10Z</time>
      </trkpt>
      <trkpt lat="48.58125" lon="1.90026">
        <ele>172.8</ele>
        <time>2026-03-29T11:44:11Z</time>
      </trkpt>
      <trkpt lat="48.58128" lon="1.90021">
        <ele>172.8</ele>
        <time>2026-03-29T11:44:12Z</time>
      </trkpt>
      <trkpt lat="48.58131" lon="1.90016">
        <ele>172.8</ele>
        <time>2026-03-29T11:44:13Z</time>
      </trkpt>
      <trkpt lat="48.58134" lon="1.9001">
        <ele>171.6</ele>
        <time>2026-03-29T11:44:14Z</time>
      </trkpt>
      <trkpt lat="48.58137" lon="1.90005">
        <ele>171.6</ele>
        <time>2026-03-29T11:44:15Z</time>
      </trkpt>
      <trkpt lat="48.58139" lon="1.9">
        <ele>171.6</ele>
        <time>2026-03-29T11:44:16Z</time>
      </trkpt>
      <trkpt lat="48.58142" lon="1.89994">
        <ele>171.2</ele>
        <time>2026-03-29T11:44:17Z</time>
      </trkpt>
      <trkpt lat="48.58145" lon="1.89989">
        <ele>171.6</ele>
        <time>2026-03-29T11:44:18Z</time>
      </trkpt>
      <trkpt lat="48.58148" lon="1.89983">
        <ele>171.6</ele>
        <time>2026-03-29T11:44:19Z</time>
      </trkpt>
      <trkpt lat="48.5815" lon="1.89978">
        <ele>171.6</ele>
        <time>2026-03-29T11:44:20Z</time>
      </trkpt>
      <trkpt lat="48.58153" lon="1.89972">
        <ele>171.4</ele>
        <time>2026-03-29T11:44:21Z</time>
      </trkpt>
      <trkpt lat="48.58156" lon="1.89967">
        <ele>171</ele>
        <time>2026-03-29T11:44:22Z</time>
      </trkpt>
      <trkpt lat="48.58158" lon="1.89961">
        <ele>171</ele>
        <time>2026-03-29T11:44:23Z</time>
      </trkpt>
      <trkpt lat="48.58161" lon="1.89955">
        <ele>171</ele>
        <time>2026-03-29T11:44:24Z</time>
      </trkpt>
      <trkpt lat="48.58164" lon="1.89949">
        <ele>171</ele>
        <time>2026-03-29T11:44:25Z</time>
      </trkpt>
      <trkpt lat="48.58166" lon="1.89943">
        <ele>169.8</ele>
        <time>2026-03-29T11:44:26Z</time>
      </trkpt>
      <trkpt lat="48.58169" lon="1.89937">
        <ele>169.8</ele>
        <time>2026-03-29T11:44:27Z</time>
      </trkpt>
      <trkpt lat="48.58171" lon="1.89931">
        <ele>169.8</ele>
        <time>2026-03-29T11:44:28Z</time>
      </trkpt>
      <trkpt lat="48.58174" lon="1.89925">
        <ele>170.4</ele>
        <time>2026-03-29T11:44:29Z</time>
      </trkpt>
      <trkpt lat="48.58176" lon="1.89919">
        <ele>169.2</ele>
        <time>2026-03-29T11:44:30Z</time>
      </trkpt>
      <trkpt lat="48.58179" lon="1.89913">
        <ele>169.2</ele>
        <time>2026-03-29T11:44:31Z</time>
      </trkpt>
      <trkpt lat="48.58181" lon="1.89907">
        <ele>169.2</ele>
        <time>2026-03-29T11:44:32Z</time>
      </trkpt>
      <trkpt lat="48.58184" lon="1.89901">
        <ele>170.2</ele>
        <time>2026-03-29T11:44:33Z</time>
      </trkpt>
      <trkpt lat="48.58187" lon="1.89896">
        <ele>170</ele>
        <time>2026-03-29T11:44:34Z</time>
      </trkpt>
      <trkpt lat="48.5819" lon="1.89891">
        <ele>170</ele>
        <time>2026-03-29T11:44:35Z</time>
      </trkpt>
      <trkpt lat="48.58193" lon="1.89886">
        <ele>170</ele>
        <time>2026-03-29T11:44:36Z</time>
      </trkpt>
      <trkpt lat="48.58197" lon="1.89881">
        <ele>170</ele>
        <time>2026-03-29T11:44:37Z</time>
      </trkpt>
      <trkpt lat="48.582" lon="1.89876">
        <ele>170.2</ele>
        <time>2026-03-29T11:44:38Z</time>
      </trkpt>
      <trkpt lat="48.58203" lon="1.89871">
        <ele>170.2</ele>
        <time>2026-03-29T11:44:39Z</time>
      </trkpt>
      <trkpt lat="48.58207" lon="1.89866">
        <ele>170.2</ele>
        <time>2026-03-29T11:44:40Z</time>
      </trkpt>
      <trkpt lat="48.5821" lon="1.89861">
        <ele>170.2</ele>
        <time>2026-03-29T11:44:41Z</time>
      </trkpt>
      <trkpt lat="48.58213" lon="1.89857">
        <ele>170.8</ele>
        <time>2026-03-29T11:44:42Z</time>
      </trkpt>
      <trkpt lat="48.58217" lon="1.89852">
        <ele>170.8</ele>
        <time>2026-03-29T11:44:43Z</time>
      </trkpt>
      <trkpt lat="48.58219" lon="1.89848">
        <ele>170.8</ele>
        <time>2026-03-29T11:44:44Z</time>
      </trkpt>
      <trkpt lat="48.58222" lon="1.89843">
        <ele>169.8</ele>
        <time>2026-03-29T11:44:45Z</time>
      </trkpt>
      <trkpt lat="48.58223" lon="1.89837">
        <ele>170.8</ele>
        <time>2026-03-29T11:44:46Z</time>
      </trkpt>
      <trkpt lat="48.58222" lon="1.89832">
        <ele>170.8</ele>
        <time>2026-03-29T11:44:47Z</time>
      </trkpt>
      <trkpt lat="48.58221" lon="1.89826">
        <ele>170.8</ele>
        <time>2026-03-29T11:44:48Z</time>
      </trkpt>
      <trkpt lat="48.58218" lon="1.89821">
        <ele>170</ele>
        <time>2026-03-29T11:44:49Z</time>
      </trkpt>
      <trkpt lat="48.58216" lon="1.89816">
        <ele>169.8</ele>
        <time>2026-03-29T11:44:50Z</time>
      </trkpt>
      <trkpt lat="48.58214" lon="1.8981">
        <ele>169.8</ele>
        <time>2026-03-29T11:44:51Z</time>
      </trkpt>
      <trkpt lat="48.58212" lon="1.89804">
        <ele>169.8</ele>
        <time>2026-03-29T11:44:52Z</time>
      </trkpt>
      <trkpt lat="48.5821" lon="1.89799">
        <ele>169.8</ele>
        <time>2026-03-29T11:44:53Z</time>
      </trkpt>
      <trkpt lat="48.58208" lon="1.89793">
        <ele>169</ele>
        <time>2026-03-29T11:44:54Z</time>
      </trkpt>
      <trkpt lat="48.58205" lon="1.89787">
        <ele>169</ele>
        <time>2026-03-29T11:44:55Z</time>
      </trkpt>
      <trkpt lat="48.58203" lon="1.89781">
        <ele>169</ele>
        <time>2026-03-29T11:44:56Z</time>
      </trkpt>
      <trkpt lat="48.582" lon="1.89775">
        <ele>169</ele>
        <time>2026-03-29T11:44:57Z</time>
      </trkpt>
      <trkpt lat="48.58198" lon="1.8977">
        <ele>168.2</ele>
        <time>2026-03-29T11:44:58Z</time>
      </trkpt>
      <trkpt lat="48.58195" lon="1.89765">
        <ele>168.2</ele>
        <time>2026-03-29T11:44:59Z</time>
      </trkpt>
      <trkpt lat="48.58193" lon="1.8976">
        <ele>168.2</ele>
        <time>2026-03-29T11:45:00Z</time>
      </trkpt>
      <trkpt lat="48.5819" lon="1.89756">
        <ele>168.2</ele>
        <time>2026-03-29T11:45:01Z</time>
      </trkpt>
      <trkpt lat="48.58188" lon="1.89753">
        <ele>168.2</ele>
        <time>2026-03-29T11:45:02Z</time>
      </trkpt>
      <trkpt lat="48.58186" lon="1.89749">
        <ele>168.2</ele>
        <time>2026-03-29T11:45:03Z</time>
      </trkpt>
      <trkpt lat="48.58184" lon="1.89745">
        <ele>168.2</ele>
        <time>2026-03-29T11:45:04Z</time>
      </trkpt>
      <trkpt lat="48.58183" lon="1.89741">
        <ele>168.2</ele>
        <time>2026-03-29T11:45:05Z</time>
      </trkpt>
      <trkpt lat="48.58181" lon="1.89737">
        <ele>168.2</ele>
        <time>2026-03-29T11:45:06Z</time>
      </trkpt>
      <trkpt lat="48.58179" lon="1.89734">
        <ele>168.2</ele>
        <time>2026-03-29T11:45:07Z</time>
      </trkpt>
      <trkpt lat="48.58176" lon="1.8973">
        <ele>168.2</ele>
        <time>2026-03-29T11:45:08Z</time>
      </trkpt>
      <trkpt lat="48.58174" lon="1.89725">
        <ele>168.2</ele>
        <time>2026-03-29T11:45:09Z</time>
      </trkpt>
      <trkpt lat="48.58171" lon="1.89719">
        <ele>167.8</ele>
        <time>2026-03-29T11:45:10Z</time>
      </trkpt>
      <trkpt lat="48.58168" lon="1.89714">
        <ele>167.8</ele>
        <time>2026-03-29T11:45:11Z</time>
      </trkpt>
      <trkpt lat="48.58166" lon="1.89709">
        <ele>167.8</ele>
        <time>2026-03-29T11:45:12Z</time>
      </trkpt>
      <trkpt lat="48.58166" lon="1.89702">
        <ele>167.8</ele>
        <time>2026-03-29T11:45:13Z</time>
      </trkpt>
      <trkpt lat="48.58167" lon="1.89696">
        <ele>168</ele>
        <time>2026-03-29T11:45:14Z</time>
      </trkpt>
      <trkpt lat="48.58168" lon="1.8969">
        <ele>168</ele>
        <time>2026-03-29T11:45:15Z</time>
      </trkpt>
      <trkpt lat="48.58171" lon="1.89684">
        <ele>168</ele>
        <time>2026-03-29T11:45:16Z</time>
      </trkpt>
      <trkpt lat="48.58174" lon="1.89679">
        <ele>168</ele>
        <time>2026-03-29T11:45:17Z</time>
      </trkpt>
      <trkpt lat="48.58176" lon="1.89674">
        <ele>168.2</ele>
        <time>2026-03-29T11:45:18Z</time>
      </trkpt>
      <trkpt lat="48.58179" lon="1.89669">
        <ele>168.2</ele>
        <time>2026-03-29T11:45:19Z</time>
      </trkpt>
      <trkpt lat="48.58182" lon="1.89664">
        <ele>168.2</ele>
        <time>2026-03-29T11:45:20Z</time>
      </trkpt>
      <trkpt lat="48.58186" lon="1.89659">
        <ele>168.4</ele>
        <time>2026-03-29T11:45:21Z</time>
      </trkpt>
      <trkpt lat="48.58189" lon="1.89655">
        <ele>168.6</ele>
        <time>2026-03-29T11:45:22Z</time>
      </trkpt>
      <trkpt lat="48.58192" lon="1.8965">
        <ele>168.6</ele>
        <time>2026-03-29T11:45:23Z</time>
      </trkpt>
      <trkpt lat="48.58195" lon="1.89645">
        <ele>168.6</ele>
        <time>2026-03-29T11:45:24Z</time>
      </trkpt>
      <trkpt lat="48.58199" lon="1.8964">
        <ele>168.6</ele>
        <time>2026-03-29T11:45:25Z</time>
      </trkpt>
      <trkpt lat="48.58202" lon="1.89635">
        <ele>168.2</ele>
        <time>2026-03-29T11:45:26Z</time>
      </trkpt>
      <trkpt lat="48.58204" lon="1.8963">
        <ele>168.2</ele>
        <time>2026-03-29T11:45:27Z</time>
      </trkpt>
      <trkpt lat="48.58205" lon="1.89623">
        <ele>168.2</ele>
        <time>2026-03-29T11:45:28Z</time>
      </trkpt>
      <trkpt lat="48.58204" lon="1.89617">
        <ele>168.8</ele>
        <time>2026-03-29T11:45:29Z</time>
      </trkpt>
      <trkpt lat="48.58202" lon="1.89611">
        <ele>168.8</ele>
        <time>2026-03-29T11:45:30Z</time>
      </trkpt>
      <trkpt lat="48.58199" lon="1.89606">
        <ele>168.8</ele>
        <time>2026-03-29T11:45:31Z</time>
      </trkpt>
      <trkpt lat="48.58196" lon="1.89601">
        <ele>168.8</ele>
        <time>2026-03-29T11:45:32Z</time>
      </trkpt>
      <trkpt lat="48.58193" lon="1.89596">
        <ele>168.8</ele>
        <time>2026-03-29T11:45:33Z</time>
      </trkpt>
      <trkpt lat="48.5819" lon="1.89591">
        <ele>168.8</ele>
        <time>2026-03-29T11:45:34Z</time>
      </trkpt>
      <trkpt lat="48.58187" lon="1.89585">
        <ele>168.8</ele>
        <time>2026-03-29T11:45:35Z</time>
      </trkpt>
      <trkpt lat="48.58184" lon="1.8958">
        <ele>168.8</ele>
        <time>2026-03-29T11:45:36Z</time>
      </trkpt>
      <trkpt lat="48.58181" lon="1.89574">
        <ele>168.2</ele>
        <time>2026-03-29T11:45:37Z</time>
      </trkpt>
      <trkpt lat="48.58178" lon="1.89569">
        <ele>168.4</ele>
        <time>2026-03-29T11:45:38Z</time>
      </trkpt>
      <trkpt lat="48.58175" lon="1.89564">
        <ele>168.4</ele>
        <time>2026-03-29T11:45:39Z</time>
      </trkpt>
      <trkpt lat="48.58173" lon="1.89558">
        <ele>168.4</ele>
        <time>2026-03-29T11:45:40Z</time>
      </trkpt>
      <trkpt lat="48.5817" lon="1.89552">
        <ele>168.4</ele>
        <time>2026-03-29T11:45:41Z</time>
      </trkpt>
      <trkpt lat="48.58167" lon="1.89547">
        <ele>168.8</ele>
        <time>2026-03-29T11:45:42Z</time>
      </trkpt>
      <trkpt lat="48.58164" lon="1.89542">
        <ele>168.8</ele>
        <time>2026-03-29T11:45:43Z</time>
      </trkpt>
      <trkpt lat="48.58161" lon="1.89537">
        <ele>168.8</ele>
        <time>2026-03-29T11:45:44Z</time>
      </trkpt>
      <trkpt lat="48.58158" lon="1.89532">
        <ele>168.8</ele>
        <time>2026-03-29T11:45:45Z</time>
      </trkpt>
      <trkpt lat="48.58155" lon="1.89527">
        <ele>168</ele>
        <time>2026-03-29T11:45:46Z</time>
      </trkpt>
      <trkpt lat="48.58152" lon="1.89522">
        <ele>168</ele>
        <time>2026-03-29T11:45:47Z</time>
      </trkpt>
      <trkpt lat="48.58148" lon="1.89516">
        <ele>168</ele>
        <time>2026-03-29T11:45:48Z</time>
      </trkpt>
      <trkpt lat="48.58145" lon="1.89511">
        <ele>168.8</ele>
        <time>2026-03-29T11:45:49Z</time>
      </trkpt>
      <trkpt lat="48.58142" lon="1.89505">
        <ele>168.8</ele>
        <time>2026-03-29T11:45:50Z</time>
      </trkpt>
      <trkpt lat="48.58139" lon="1.895">
        <ele>168.8</ele>
        <time>2026-03-29T11:45:51Z</time>
      </trkpt>
      <trkpt lat="48.58137" lon="1.89494">
        <ele>168.8</ele>
        <time>2026-03-29T11:45:52Z</time>
      </trkpt>
      <trkpt lat="48.58134" lon="1.89489">
        <ele>168.8</ele>
        <time>2026-03-29T11:45:53Z</time>
      </trkpt>
      <trkpt lat="48.58131" lon="1.89484">
        <ele>169</ele>
        <time>2026-03-29T11:45:54Z</time>
      </trkpt>
      <trkpt lat="48.58128" lon="1.89479">
        <ele>169</ele>
        <time>2026-03-29T11:45:55Z</time>
      </trkpt>
      <trkpt lat="48.58125" lon="1.89474">
        <ele>169</ele>
        <time>2026-03-29T11:45:56Z</time>
      </trkpt>
      <trkpt lat="48.58122" lon="1.89468">
        <ele>169</ele>
        <time>2026-03-29T11:45:57Z</time>
      </trkpt>
      <trkpt lat="48.58119" lon="1.89463">
        <ele>168.6</ele>
        <time>2026-03-29T11:45:58Z</time>
      </trkpt>
      <trkpt lat="48.58116" lon="1.89458">
        <ele>168.6</ele>
        <time>2026-03-29T11:45:59Z</time>
      </trkpt>
      <trkpt lat="48.58113" lon="1.89452">
        <ele>168.6</ele>
        <time>2026-03-29T11:46:00Z</time>
      </trkpt>
      <trkpt lat="48.5811" lon="1.89447">
        <ele>168.6</ele>
        <time>2026-03-29T11:46:01Z</time>
      </trkpt>
      <trkpt lat="48.58108" lon="1.89441">
        <ele>169.4</ele>
        <time>2026-03-29T11:46:02Z</time>
      </trkpt>
      <trkpt lat="48.58105" lon="1.89435">
        <ele>169.4</ele>
        <time>2026-03-29T11:46:03Z</time>
      </trkpt>
      <trkpt lat="48.58102" lon="1.89429">
        <ele>169.4</ele>
        <time>2026-03-29T11:46:04Z</time>
      </trkpt>
      <trkpt lat="48.58099" lon="1.89424">
        <ele>169.4</ele>
        <time>2026-03-29T11:46:05Z</time>
      </trkpt>
      <trkpt lat="48.58095" lon="1.89419">
        <ele>169.6</ele>
        <time>2026-03-29T11:46:06Z</time>
      </trkpt>
      <trkpt lat="48.58092" lon="1.89414">
        <ele>169.6</ele>
        <time>2026-03-29T11:46:07Z</time>
      </trkpt>
      <trkpt lat="48.58089" lon="1.89409">
        <ele>169.6</ele>
        <time>2026-03-29T11:46:08Z</time>
      </trkpt>
      <trkpt lat="48.58086" lon="1.89404">
        <ele>169.6</ele>
        <time>2026-03-29T11:46:09Z</time>
      </trkpt>
      <trkpt lat="48.58084" lon="1.89399">
        <ele>169.4</ele>
        <time>2026-03-29T11:46:10Z</time>
      </trkpt>
      <trkpt lat="48.58081" lon="1.89394">
        <ele>169.4</ele>
        <time>2026-03-29T11:46:11Z</time>
      </trkpt>
      <trkpt lat="48.58079" lon="1.8939">
        <ele>169.4</ele>
        <time>2026-03-29T11:46:12Z</time>
      </trkpt>
      <trkpt lat="48.58076" lon="1.89385">
        <ele>169.4</ele>
        <time>2026-03-29T11:46:13Z</time>
      </trkpt>
      <trkpt lat="48.58073" lon="1.89381">
        <ele>169.6</ele>
        <time>2026-03-29T11:46:14Z</time>
      </trkpt>
      <trkpt lat="48.58071" lon="1.89376">
        <ele>169.6</ele>
        <time>2026-03-29T11:46:15Z</time>
      </trkpt>
      <trkpt lat="48.58068" lon="1.89371">
        <ele>169.6</ele>
        <time>2026-03-29T11:46:16Z</time>
      </trkpt>
      <trkpt lat="48.58066" lon="1.89366">
        <ele>169.6</ele>
        <time>2026-03-29T11:46:17Z</time>
      </trkpt>
      <trkpt lat="48.58064" lon="1.89362">
        <ele>170.2</ele>
        <time>2026-03-29T11:46:18Z</time>
      </trkpt>
      <trkpt lat="48.58061" lon="1.89357">
        <ele>170.2</ele>
        <time>2026-03-29T11:46:19Z</time>
      </trkpt>
      <trkpt lat="48.58058" lon="1.89353">
        <ele>170.2</ele>
        <time>2026-03-29T11:46:20Z</time>
      </trkpt>
      <trkpt lat="48.58056" lon="1.89348">
        <ele>170.2</ele>
        <time>2026-03-29T11:46:21Z</time>
      </trkpt>
      <trkpt lat="48.58053" lon="1.89344">
        <ele>170.4</ele>
        <time>2026-03-29T11:46:22Z</time>
      </trkpt>
      <trkpt lat="48.5805" lon="1.8934">
        <ele>170.4</ele>
        <time>2026-03-29T11:46:23Z</time>
      </trkpt>
      <trkpt lat="48.58048" lon="1.89335">
        <ele>170.4</ele>
        <time>2026-03-29T11:46:24Z</time>
      </trkpt>
      <trkpt lat="48.58045" lon="1.8933">
        <ele>170.4</ele>
        <time>2026-03-29T11:46:25Z</time>
      </trkpt>
      <trkpt lat="48.58043" lon="1.89325">
        <ele>170</ele>
        <time>2026-03-29T11:46:26Z</time>
      </trkpt>
      <trkpt lat="48.5804" lon="1.89321">
        <ele>170</ele>
        <time>2026-03-29T11:46:27Z</time>
      </trkpt>
      <trkpt lat="48.58038" lon="1.89316">
        <ele>170</ele>
        <time>2026-03-29T11:46:28Z</time>
      </trkpt>
      <trkpt lat="48.58035" lon="1.89311">
        <ele>171</ele>
        <time>2026-03-29T11:46:29Z</time>
      </trkpt>
      <trkpt lat="48.58033" lon="1.89306">
        <ele>171</ele>
        <time>2026-03-29T11:46:30Z</time>
      </trkpt>
      <trkpt lat="48.5803" lon="1.89302">
        <ele>171</ele>
        <time>2026-03-29T11:46:31Z</time>
      </trkpt>
      <trkpt lat="48.58027" lon="1.89297">
        <ele>171</ele>
        <time>2026-03-29T11:46:32Z</time>
      </trkpt>
      <trkpt lat="48.58025" lon="1.89292">
        <ele>170</ele>
        <time>2026-03-29T11:46:33Z</time>
      </trkpt>
      <trkpt lat="48.58022" lon="1.89287">
        <ele>171</ele>
        <time>2026-03-29T11:46:34Z</time>
      </trkpt>
      <trkpt lat="48.58019" lon="1.89283">
        <ele>171</ele>
        <time>2026-03-29T11:46:35Z</time>
      </trkpt>
      <trkpt lat="48.58016" lon="1.89279">
        <ele>171</ele>
        <time>2026-03-29T11:46:36Z</time>
      </trkpt>
      <trkpt lat="48.58014" lon="1.89275">
        <ele>170.8</ele>
        <time>2026-03-29T11:46:37Z</time>
      </trkpt>
      <trkpt lat="48.58011" lon="1.8927">
        <ele>171.2</ele>
        <time>2026-03-29T11:46:38Z</time>
      </trkpt>
      <trkpt lat="48.58008" lon="1.89266">
        <ele>171.2</ele>
        <time>2026-03-29T11:46:39Z</time>
      </trkpt>
      <trkpt lat="48.58006" lon="1.89261">
        <ele>171.2</ele>
        <time>2026-03-29T11:46:40Z</time>
      </trkpt>
      <trkpt lat="48.58003" lon="1.89256">
        <ele>171.2</ele>
        <time>2026-03-29T11:46:41Z</time>
      </trkpt>
      <trkpt lat="48.58" lon="1.89252">
        <ele>171.8</ele>
        <time>2026-03-29T11:46:42Z</time>
      </trkpt>
      <trkpt lat="48.57998" lon="1.89247">
        <ele>171.8</ele>
        <time>2026-03-29T11:46:43Z</time>
      </trkpt>
      <trkpt lat="48.57995" lon="1.89242">
        <ele>171.8</ele>
        <time>2026-03-29T11:46:44Z</time>
      </trkpt>
      <trkpt lat="48.57993" lon="1.89238">
        <ele>171.8</ele>
        <time>2026-03-29T11:46:45Z</time>
      </trkpt>
      <trkpt lat="48.5799" lon="1.89233">
        <ele>171</ele>
        <time>2026-03-29T11:46:46Z</time>
      </trkpt>
      <trkpt lat="48.57987" lon="1.89228">
        <ele>171</ele>
        <time>2026-03-29T11:46:47Z</time>
      </trkpt>
      <trkpt lat="48.57984" lon="1.89223">
        <ele>171</ele>
        <time>2026-03-29T11:46:48Z</time>
      </trkpt>
      <trkpt lat="48.57982" lon="1.89218">
        <ele>171</ele>
        <time>2026-03-29T11:46:49Z</time>
      </trkpt>
      <trkpt lat="48.57979" lon="1.89213">
        <ele>171.2</ele>
        <time>2026-03-29T11:46:50Z</time>
      </trkpt>
      <trkpt lat="48.57976" lon="1.89209">
        <ele>171.2</ele>
        <time>2026-03-29T11:46:51Z</time>
      </trkpt>
      <trkpt lat="48.57973" lon="1.89204">
        <ele>171.2</ele>
        <time>2026-03-29T11:46:52Z</time>
      </trkpt>
      <trkpt lat="48.57971" lon="1.89199">
        <ele>171.6</ele>
        <time>2026-03-29T11:46:53Z</time>
      </trkpt>
      <trkpt lat="48.57968" lon="1.89194">
        <ele>171.6</ele>
        <time>2026-03-29T11:46:54Z</time>
      </trkpt>
      <trkpt lat="48.57965" lon="1.89189">
        <ele>171.6</ele>
        <time>2026-03-29T11:46:55Z</time>
      </trkpt>
      <trkpt lat="48.57963" lon="1.89184">
        <ele>171.6</ele>
        <time>2026-03-29T11:46:56Z</time>
      </trkpt>
      <trkpt lat="48.5796" lon="1.8918">
        <ele>171.6</ele>
        <time>2026-03-29T11:46:57Z</time>
      </trkpt>
      <trkpt lat="48.57958" lon="1.89175">
        <ele>172.4</ele>
        <time>2026-03-29T11:46:58Z</time>
      </trkpt>
      <trkpt lat="48.57955" lon="1.89171">
        <ele>172.4</ele>
        <time>2026-03-29T11:46:59Z</time>
      </trkpt>
      <trkpt lat="48.57952" lon="1.89166">
        <ele>172.4</ele>
        <time>2026-03-29T11:47:00Z</time>
      </trkpt>
      <trkpt lat="48.57949" lon="1.89162">
        <ele>172.2</ele>
        <time>2026-03-29T11:47:01Z</time>
      </trkpt>
      <trkpt lat="48.57946" lon="1.89158">
        <ele>172.4</ele>
        <time>2026-03-29T11:47:02Z</time>
      </trkpt>
      <trkpt lat="48.57944" lon="1.89153">
        <ele>172.4</ele>
        <time>2026-03-29T11:47:03Z</time>
      </trkpt>
      <trkpt lat="48.57942" lon="1.89147">
        <ele>172.4</ele>
        <time>2026-03-29T11:47:04Z</time>
      </trkpt>
      <trkpt lat="48.57939" lon="1.89143">
        <ele>172.4</ele>
        <time>2026-03-29T11:47:05Z</time>
      </trkpt>
      <trkpt lat="48.57937" lon="1.89138">
        <ele>172.2</ele>
        <time>2026-03-29T11:47:06Z</time>
      </trkpt>
      <trkpt lat="48.57934" lon="1.89134">
        <ele>172.2</ele>
        <time>2026-03-29T11:47:07Z</time>
      </trkpt>
      <trkpt lat="48.57931" lon="1.89129">
        <ele>172.2</ele>
        <time>2026-03-29T11:47:08Z</time>
      </trkpt>
      <trkpt lat="48.57929" lon="1.89125">
        <ele>172.6</ele>
        <time>2026-03-29T11:47:09Z</time>
      </trkpt>
      <trkpt lat="48.57926" lon="1.8912">
        <ele>172.4</ele>
        <time>2026-03-29T11:47:10Z</time>
      </trkpt>
      <trkpt lat="48.57924" lon="1.89115">
        <ele>172.4</ele>
        <time>2026-03-29T11:47:11Z</time>
      </trkpt>
      <trkpt lat="48.57921" lon="1.89111">
        <ele>172.4</ele>
        <time>2026-03-29T11:47:12Z</time>
      </trkpt>
      <trkpt lat="48.57918" lon="1.89106">
        <ele>172.4</ele>
        <time>2026-03-29T11:47:13Z</time>
      </trkpt>
      <trkpt lat="48.57916" lon="1.89102">
        <ele>173.2</ele>
        <time>2026-03-29T11:47:14Z</time>
      </trkpt>
      <trkpt lat="48.57913" lon="1.89097">
        <ele>173.2</ele>
        <time>2026-03-29T11:47:15Z</time>
      </trkpt>
      <trkpt lat="48.57911" lon="1.89092">
        <ele>173.2</ele>
        <time>2026-03-29T11:47:16Z</time>
      </trkpt>
      <trkpt lat="48.57908" lon="1.89088">
        <ele>173.2</ele>
        <time>2026-03-29T11:47:17Z</time>
      </trkpt>
      <trkpt lat="48.57905" lon="1.89083">
        <ele>173.8</ele>
        <time>2026-03-29T11:47:18Z</time>
      </trkpt>
      <trkpt lat="48.57903" lon="1.89079">
        <ele>173.8</ele>
        <time>2026-03-29T11:47:19Z</time>
      </trkpt>
      <trkpt lat="48.579" lon="1.89074">
        <ele>173.8</ele>
        <time>2026-03-29T11:47:20Z</time>
      </trkpt>
      <trkpt lat="48.57897" lon="1.8907">
        <ele>173.8</ele>
        <time>2026-03-29T11:47:21Z</time>
      </trkpt>
      <trkpt lat="48.57895" lon="1.89065">
        <ele>173.6</ele>
        <time>2026-03-29T11:47:22Z</time>
      </trkpt>
      <trkpt lat="48.57892" lon="1.89061">
        <ele>173.6</ele>
        <time>2026-03-29T11:47:23Z</time>
      </trkpt>
      <trkpt lat="48.5789" lon="1.89057">
        <ele>173.6</ele>
        <time>2026-03-29T11:47:24Z</time>
      </trkpt>
      <trkpt lat="48.57887" lon="1.89052">
        <ele>173.6</ele>
        <time>2026-03-29T11:47:25Z</time>
      </trkpt>
      <trkpt lat="48.57885" lon="1.89048">
        <ele>173.6</ele>
        <time>2026-03-29T11:47:26Z</time>
      </trkpt>
      <trkpt lat="48.57882" lon="1.89044">
        <ele>173.6</ele>
        <time>2026-03-29T11:47:27Z</time>
      </trkpt>
      <trkpt lat="48.5788" lon="1.89039">
        <ele>173.6</ele>
        <time>2026-03-29T11:47:28Z</time>
      </trkpt>
      <trkpt lat="48.57877" lon="1.89035">
        <ele>173.6</ele>
        <time>2026-03-29T11:47:29Z</time>
      </trkpt>
      <trkpt lat="48.57874" lon="1.8903">
        <ele>174</ele>
        <time>2026-03-29T11:47:30Z</time>
      </trkpt>
      <trkpt lat="48.57872" lon="1.89026">
        <ele>174</ele>
        <time>2026-03-29T11:47:31Z</time>
      </trkpt>
      <trkpt lat="48.5787" lon="1.89022">
        <ele>174</ele>
        <time>2026-03-29T11:47:32Z</time>
      </trkpt>
      <trkpt lat="48.57867" lon="1.89017">
        <ele>174</ele>
        <time>2026-03-29T11:47:33Z</time>
      </trkpt>
      <trkpt lat="48.57865" lon="1.89012">
        <ele>174.4</ele>
        <time>2026-03-29T11:47:34Z</time>
      </trkpt>
      <trkpt lat="48.57862" lon="1.89008">
        <ele>174.4</ele>
        <time>2026-03-29T11:47:35Z</time>
      </trkpt>
      <trkpt lat="48.57859" lon="1.89003">
        <ele>174.4</ele>
        <time>2026-03-29T11:47:36Z</time>
      </trkpt>
      <trkpt lat="48.57856" lon="1.88999">
        <ele>174.4</ele>
        <time>2026-03-29T11:47:37Z</time>
      </trkpt>
      <trkpt lat="48.57854" lon="1.88994">
        <ele>175.6</ele>
        <time>2026-03-29T11:47:38Z</time>
      </trkpt>
      <trkpt lat="48.57851" lon="1.88989">
        <ele>175.6</ele>
        <time>2026-03-29T11:47:39Z</time>
      </trkpt>
      <trkpt lat="48.57849" lon="1.88985">
        <ele>175.6</ele>
        <time>2026-03-29T11:47:40Z</time>
      </trkpt>
      <trkpt lat="48.57847" lon="1.8898">
        <ele>175</ele>
        <time>2026-03-29T11:47:41Z</time>
      </trkpt>
      <trkpt lat="48.57844" lon="1.88975">
        <ele>174.6</ele>
        <time>2026-03-29T11:47:42Z</time>
      </trkpt>
      <trkpt lat="48.57843" lon="1.8897">
        <ele>174.6</ele>
        <time>2026-03-29T11:47:43Z</time>
      </trkpt>
      <trkpt lat="48.57842" lon="1.88964">
        <ele>174.6</ele>
        <time>2026-03-29T11:47:44Z</time>
      </trkpt>
      <trkpt lat="48.57843" lon="1.88958">
        <ele>174.6</ele>
        <time>2026-03-29T11:47:45Z</time>
      </trkpt>
      <trkpt lat="48.57844" lon="1.88952">
        <ele>175</ele>
        <time>2026-03-29T11:47:46Z</time>
      </trkpt>
      <trkpt lat="48.57846" lon="1.88946">
        <ele>175</ele>
        <time>2026-03-29T11:47:47Z</time>
      </trkpt>
      <trkpt lat="48.57848" lon="1.88941">
        <ele>175</ele>
        <time>2026-03-29T11:47:48Z</time>
      </trkpt>
      <trkpt lat="48.5785" lon="1.88935">
        <ele>175</ele>
        <time>2026-03-29T11:47:49Z</time>
      </trkpt>
      <trkpt lat="48.57852" lon="1.88929">
        <ele>175</ele>
        <time>2026-03-29T11:47:50Z</time>
      </trkpt>
      <trkpt lat="48.57854" lon="1.88923">
        <ele>175</ele>
        <time>2026-03-29T11:47:51Z</time>
      </trkpt>
      <trkpt lat="48.57856" lon="1.88918">
        <ele>175</ele>
        <time>2026-03-29T11:47:52Z</time>
      </trkpt>
      <trkpt lat="48.57858" lon="1.88911">
        <ele>175</ele>
        <time>2026-03-29T11:47:53Z</time>
      </trkpt>
      <trkpt lat="48.57859" lon="1.88905">
        <ele>174.8</ele>
        <time>2026-03-29T11:47:54Z</time>
      </trkpt>
      <trkpt lat="48.5786" lon="1.88898">
        <ele>174.8</ele>
        <time>2026-03-29T11:47:55Z</time>
      </trkpt>
      <trkpt lat="48.5786" lon="1.88891">
        <ele>174.8</ele>
        <time>2026-03-29T11:47:56Z</time>
      </trkpt>
      <trkpt lat="48.5786" lon="1.88885">
        <ele>174.8</ele>
        <time>2026-03-29T11:47:57Z</time>
      </trkpt>
      <trkpt lat="48.5786" lon="1.88878">
        <ele>174.4</ele>
        <time>2026-03-29T11:47:58Z</time>
      </trkpt>
      <trkpt lat="48.5786" lon="1.88871">
        <ele>174.4</ele>
        <time>2026-03-29T11:47:59Z</time>
      </trkpt>
      <trkpt lat="48.57859" lon="1.88865">
        <ele>174.4</ele>
        <time>2026-03-29T11:48:00Z</time>
      </trkpt>
      <trkpt lat="48.57859" lon="1.88859">
        <ele>174.4</ele>
        <time>2026-03-29T11:48:01Z</time>
      </trkpt>
      <trkpt lat="48.57858" lon="1.88853">
        <ele>174.2</ele>
        <time>2026-03-29T11:48:02Z</time>
      </trkpt>
      <trkpt lat="48.57857" lon="1.88847">
        <ele>174.2</ele>
        <time>2026-03-29T11:48:03Z</time>
      </trkpt>
      <trkpt lat="48.57856" lon="1.88842">
        <ele>174.2</ele>
        <time>2026-03-29T11:48:04Z</time>
      </trkpt>
      <trkpt lat="48.57855" lon="1.88836">
        <ele>174.2</ele>
        <time>2026-03-29T11:48:05Z</time>
      </trkpt>
      <trkpt lat="48.57854" lon="1.88831">
        <ele>174</ele>
        <time>2026-03-29T11:48:06Z</time>
      </trkpt>
      <trkpt lat="48.57852" lon="1.88827">
        <ele>174</ele>
        <time>2026-03-29T11:48:07Z</time>
      </trkpt>
      <trkpt lat="48.57851" lon="1.88822">
        <ele>174</ele>
        <time>2026-03-29T11:48:08Z</time>
      </trkpt>
      <trkpt lat="48.57849" lon="1.88818">
        <ele>174</ele>
        <time>2026-03-29T11:48:09Z</time>
      </trkpt>
      <trkpt lat="48.57847" lon="1.88814">
        <ele>173.4</ele>
        <time>2026-03-29T11:48:10Z</time>
      </trkpt>
      <trkpt lat="48.57844" lon="1.8881">
        <ele>173.4</ele>
        <time>2026-03-29T11:48:11Z</time>
      </trkpt>
      <trkpt lat="48.57842" lon="1.88805">
        <ele>173.4</ele>
        <time>2026-03-29T11:48:12Z</time>
      </trkpt>
      <trkpt lat="48.5784" lon="1.888">
        <ele>173.4</ele>
        <time>2026-03-29T11:48:13Z</time>
      </trkpt>
      <trkpt lat="48.57839" lon="1.88796">
        <ele>173.8</ele>
        <time>2026-03-29T11:48:14Z</time>
      </trkpt>
      <trkpt lat="48.57837" lon="1.88791">
        <ele>173.8</ele>
        <time>2026-03-29T11:48:15Z</time>
      </trkpt>
      <trkpt lat="48.57835" lon="1.88786">
        <ele>173.8</ele>
        <time>2026-03-29T11:48:16Z</time>
      </trkpt>
      <trkpt lat="48.57833" lon="1.88782">
        <ele>173.8</ele>
        <time>2026-03-29T11:48:17Z</time>
      </trkpt>
      <trkpt lat="48.5783" lon="1.88777">
        <ele>173</ele>
        <time>2026-03-29T11:48:18Z</time>
      </trkpt>
      <trkpt lat="48.57828" lon="1.88772">
        <ele>173</ele>
        <time>2026-03-29T11:48:19Z</time>
      </trkpt>
      <trkpt lat="48.57825" lon="1.88766">
        <ele>173</ele>
        <time>2026-03-29T11:48:20Z</time>
      </trkpt>
      <trkpt lat="48.57823" lon="1.88761">
        <ele>173</ele>
        <time>2026-03-29T11:48:21Z</time>
      </trkpt>
      <trkpt lat="48.5782" lon="1.88756">
        <ele>173.2</ele>
        <time>2026-03-29T11:48:22Z</time>
      </trkpt>
      <trkpt lat="48.57816" lon="1.88751">
        <ele>173.2</ele>
        <time>2026-03-29T11:48:23Z</time>
      </trkpt>
      <trkpt lat="48.57812" lon="1.88746">
        <ele>173.2</ele>
        <time>2026-03-29T11:48:24Z</time>
      </trkpt>
      <trkpt lat="48.57808" lon="1.88741">
        <ele>172.2</ele>
        <time>2026-03-29T11:48:25Z</time>
      </trkpt>
      <trkpt lat="48.57803" lon="1.88736">
        <ele>171.6</ele>
        <time>2026-03-29T11:48:26Z</time>
      </trkpt>
      <trkpt lat="48.57799" lon="1.8873">
        <ele>171.6</ele>
        <time>2026-03-29T11:48:27Z</time>
      </trkpt>
      <trkpt lat="48.57795" lon="1.88724">
        <ele>171.6</ele>
        <time>2026-03-29T11:48:28Z</time>
      </trkpt>
      <trkpt lat="48.5779" lon="1.88718">
        <ele>171.2</ele>
        <time>2026-03-29T11:48:29Z</time>
      </trkpt>
      <trkpt lat="48.57785" lon="1.88711">
        <ele>170.4</ele>
        <time>2026-03-29T11:48:30Z</time>
      </trkpt>
      <trkpt lat="48.5778" lon="1.88705">
        <ele>170.4</ele>
        <time>2026-03-29T11:48:31Z</time>
      </trkpt>
      <trkpt lat="48.57774" lon="1.88698">
        <ele>170.4</ele>
        <time>2026-03-29T11:48:32Z</time>
      </trkpt>
      <trkpt lat="48.57769" lon="1.88693">
        <ele>169.8</ele>
        <time>2026-03-29T11:48:33Z</time>
      </trkpt>
      <trkpt lat="48.57762" lon="1.88687">
        <ele>169.4</ele>
        <time>2026-03-29T11:48:34Z</time>
      </trkpt>
      <trkpt lat="48.57756" lon="1.88682">
        <ele>169.4</ele>
        <time>2026-03-29T11:48:35Z</time>
      </trkpt>
      <trkpt lat="48.57749" lon="1.88677">
        <ele>169.4</ele>
        <time>2026-03-29T11:48:36Z</time>
      </trkpt>
      <trkpt lat="48.57743" lon="1.88671">
        <ele>169.4</ele>
        <time>2026-03-29T11:48:37Z</time>
      </trkpt>
      <trkpt lat="48.57736" lon="1.88664">
        <ele>167.4</ele>
        <time>2026-03-29T11:48:38Z</time>
      </trkpt>
      <trkpt lat="48.57729" lon="1.88658">
        <ele>167.4</ele>
        <time>2026-03-29T11:48:39Z</time>
      </trkpt>
      <trkpt lat="48.57721" lon="1.88652">
        <ele>167.4</ele>
        <time>2026-03-29T11:48:40Z</time>
      </trkpt>
      <trkpt lat="48.57713" lon="1.88645">
        <ele>167.4</ele>
        <time>2026-03-29T11:48:41Z</time>
      </trkpt>
      <trkpt lat="48.57705" lon="1.88638">
        <ele>164.8</ele>
        <time>2026-03-29T11:48:42Z</time>
      </trkpt>
      <trkpt lat="48.57696" lon="1.8863">
        <ele>164.8</ele>
        <time>2026-03-29T11:48:43Z</time>
      </trkpt>
      <trkpt lat="48.57688" lon="1.8862">
        <ele>164.8</ele>
        <time>2026-03-29T11:48:44Z</time>
      </trkpt>
      <trkpt lat="48.5768" lon="1.8861">
        <ele>163.8</ele>
        <time>2026-03-29T11:48:45Z</time>
      </trkpt>
      <trkpt lat="48.57672" lon="1.88599">
        <ele>161.6</ele>
        <time>2026-03-29T11:48:46Z</time>
      </trkpt>
      <trkpt lat="48.57665" lon="1.88588">
        <ele>161.6</ele>
        <time>2026-03-29T11:48:47Z</time>
      </trkpt>
      <trkpt lat="48.57658" lon="1.88575">
        <ele>161.6</ele>
        <time>2026-03-29T11:48:48Z</time>
      </trkpt>
      <trkpt lat="48.57651" lon="1.88563">
        <ele>160.6</ele>
        <time>2026-03-29T11:48:49Z</time>
      </trkpt>
      <trkpt lat="48.57645" lon="1.8855">
        <ele>159.8</ele>
        <time>2026-03-29T11:48:50Z</time>
      </trkpt>
      <trkpt lat="48.57638" lon="1.88538">
        <ele>159.8</ele>
        <time>2026-03-29T11:48:51Z</time>
      </trkpt>
      <trkpt lat="48.57631" lon="1.88525">
        <ele>159.8</ele>
        <time>2026-03-29T11:48:52Z</time>
      </trkpt>
      <trkpt lat="48.57625" lon="1.88512">
        <ele>158.8</ele>
        <time>2026-03-29T11:48:53Z</time>
      </trkpt>
      <trkpt lat="48.57618" lon="1.88499">
        <ele>156</ele>
        <time>2026-03-29T11:48:54Z</time>
      </trkpt>
      <trkpt lat="48.57611" lon="1.88485">
        <ele>156</ele>
        <time>2026-03-29T11:48:55Z</time>
      </trkpt>
      <trkpt lat="48.57605" lon="1.88472">
        <ele>156</ele>
        <time>2026-03-29T11:48:56Z</time>
      </trkpt>
      <trkpt lat="48.57598" lon="1.88459">
        <ele>155</ele>
        <time>2026-03-29T11:48:57Z</time>
      </trkpt>
      <trkpt lat="48.57592" lon="1.88445">
        <ele>151.6</ele>
        <time>2026-03-29T11:48:58Z</time>
      </trkpt>
      <trkpt lat="48.57587" lon="1.88431">
        <ele>151.6</ele>
        <time>2026-03-29T11:48:59Z</time>
      </trkpt>
      <trkpt lat="48.57583" lon="1.88416">
        <ele>151.6</ele>
        <time>2026-03-29T11:49:00Z</time>
      </trkpt>
      <trkpt lat="48.57579" lon="1.88403">
        <ele>150.6</ele>
        <time>2026-03-29T11:49:01Z</time>
      </trkpt>
      <trkpt lat="48.57576" lon="1.88391">
        <ele>148.8</ele>
        <time>2026-03-29T11:49:02Z</time>
      </trkpt>
      <trkpt lat="48.57574" lon="1.88382">
        <ele>148.8</ele>
        <time>2026-03-29T11:49:03Z</time>
      </trkpt>
      <trkpt lat="48.57571" lon="1.88374">
        <ele>148.8</ele>
        <time>2026-03-29T11:49:04Z</time>
      </trkpt>
      <trkpt lat="48.57569" lon="1.88365">
        <ele>147.8</ele>
        <time>2026-03-29T11:49:05Z</time>
      </trkpt>
      <trkpt lat="48.57567" lon="1.88356">
        <ele>146.2</ele>
        <time>2026-03-29T11:49:06Z</time>
      </trkpt>
      <trkpt lat="48.57565" lon="1.88347">
        <ele>146.2</ele>
        <time>2026-03-29T11:49:07Z</time>
      </trkpt>
      <trkpt lat="48.57563" lon="1.88339">
        <ele>146.2</ele>
        <time>2026-03-29T11:49:08Z</time>
      </trkpt>
      <trkpt lat="48.57561" lon="1.88331">
        <ele>146.2</ele>
        <time>2026-03-29T11:49:09Z</time>
      </trkpt>
      <trkpt lat="48.57559" lon="1.88322">
        <ele>146</ele>
        <time>2026-03-29T11:49:10Z</time>
      </trkpt>
      <trkpt lat="48.57556" lon="1.88312">
        <ele>146</ele>
        <time>2026-03-29T11:49:11Z</time>
      </trkpt>
      <trkpt lat="48.57554" lon="1.88304">
        <ele>146</ele>
        <time>2026-03-29T11:49:12Z</time>
      </trkpt>
      <trkpt lat="48.57552" lon="1.88295">
        <ele>145.2</ele>
        <time>2026-03-29T11:49:13Z</time>
      </trkpt>
      <trkpt lat="48.57549" lon="1.88286">
        <ele>144.8</ele>
        <time>2026-03-29T11:49:14Z</time>
      </trkpt>
      <trkpt lat="48.57547" lon="1.88276">
        <ele>144.8</ele>
        <time>2026-03-29T11:49:15Z</time>
      </trkpt>
      <trkpt lat="48.57545" lon="1.88267">
        <ele>144.8</ele>
        <time>2026-03-29T11:49:16Z</time>
      </trkpt>
      <trkpt lat="48.57543" lon="1.88258">
        <ele>144.2</ele>
        <time>2026-03-29T11:49:17Z</time>
      </trkpt>
      <trkpt lat="48.5754" lon="1.88249">
        <ele>143.8</ele>
        <time>2026-03-29T11:49:18Z</time>
      </trkpt>
      <trkpt lat="48.57538" lon="1.8824">
        <ele>143.8</ele>
        <time>2026-03-29T11:49:19Z</time>
      </trkpt>
      <trkpt lat="48.57536" lon="1.88231">
        <ele>143.8</ele>
        <time>2026-03-29T11:49:20Z</time>
      </trkpt>
      <trkpt lat="48.57534" lon="1.88222">
        <ele>143.8</ele>
        <time>2026-03-29T11:49:21Z</time>
      </trkpt>
      <trkpt lat="48.57531" lon="1.88214">
        <ele>143.6</ele>
        <time>2026-03-29T11:49:22Z</time>
      </trkpt>
      <trkpt lat="48.57529" lon="1.88205">
        <ele>143.6</ele>
        <time>2026-03-29T11:49:23Z</time>
      </trkpt>
      <trkpt lat="48.57527" lon="1.88196">
        <ele>143.6</ele>
        <time>2026-03-29T11:49:24Z</time>
      </trkpt>
      <trkpt lat="48.57524" lon="1.88187">
        <ele>143.6</ele>
        <time>2026-03-29T11:49:25Z</time>
      </trkpt>
      <trkpt lat="48.57522" lon="1.88179">
        <ele>143.6</ele>
        <time>2026-03-29T11:49:26Z</time>
      </trkpt>
      <trkpt lat="48.57519" lon="1.88174">
        <ele>143.6</ele>
        <time>2026-03-29T11:49:27Z</time>
      </trkpt>
      <trkpt lat="48.57516" lon="1.88171">
        <ele>143.6</ele>
        <time>2026-03-29T11:49:28Z</time>
      </trkpt>
      <trkpt lat="48.57514" lon="1.88171">
        <ele>143.2</ele>
        <time>2026-03-29T11:49:29Z</time>
      </trkpt>
      <trkpt lat="48.57512" lon="1.88172">
        <ele>143</ele>
        <time>2026-03-29T11:49:30Z</time>
      </trkpt>
      <trkpt lat="48.5751" lon="1.88174">
        <ele>143</ele>
        <time>2026-03-29T11:49:31Z</time>
      </trkpt>
      <trkpt lat="48.57508" lon="1.88176">
        <ele>143</ele>
        <time>2026-03-29T11:49:32Z</time>
      </trkpt>
      <trkpt lat="48.57506" lon="1.88179">
        <ele>143</ele>
        <time>2026-03-29T11:49:33Z</time>
      </trkpt>
      <trkpt lat="48.57504" lon="1.88182">
        <ele>143.2</ele>
        <time>2026-03-29T11:49:34Z</time>
      </trkpt>
      <trkpt lat="48.57502" lon="1.88186">
        <ele>143.2</ele>
        <time>2026-03-29T11:49:35Z</time>
      </trkpt>
      <trkpt lat="48.57499" lon="1.8819">
        <ele>143.2</ele>
        <time>2026-03-29T11:49:36Z</time>
      </trkpt>
      <trkpt lat="48.57496" lon="1.88193">
        <ele>142.8</ele>
        <time>2026-03-29T11:49:37Z</time>
      </trkpt>
      <trkpt lat="48.57492" lon="1.88197">
        <ele>142.6</ele>
        <time>2026-03-29T11:49:38Z</time>
      </trkpt>
      <trkpt lat="48.57489" lon="1.88202">
        <ele>142.6</ele>
        <time>2026-03-29T11:49:39Z</time>
      </trkpt>
      <trkpt lat="48.57485" lon="1.88205">
        <ele>142.6</ele>
        <time>2026-03-29T11:49:40Z</time>
      </trkpt>
      <trkpt lat="48.57481" lon="1.88209">
        <ele>142.6</ele>
        <time>2026-03-29T11:49:41Z</time>
      </trkpt>
      <trkpt lat="48.57478" lon="1.88212">
        <ele>143.2</ele>
        <time>2026-03-29T11:49:42Z</time>
      </trkpt>
      <trkpt lat="48.57474" lon="1.88213">
        <ele>143.2</ele>
        <time>2026-03-29T11:49:43Z</time>
      </trkpt>
      <trkpt lat="48.57471" lon="1.88216">
        <ele>143.2</ele>
        <time>2026-03-29T11:49:44Z</time>
      </trkpt>
      <trkpt lat="48.57469" lon="1.88219">
        <ele>143.2</ele>
        <time>2026-03-29T11:49:45Z</time>
      </trkpt>
      <trkpt lat="48.57466" lon="1.8822">
        <ele>143.2</ele>
        <time>2026-03-29T11:49:46Z</time>
      </trkpt>
      <trkpt lat="48.57463" lon="1.88221">
        <ele>143.2</ele>
        <time>2026-03-29T11:49:47Z</time>
      </trkpt>
      <trkpt lat="48.57461" lon="1.88221">
        <ele>143.2</ele>
        <time>2026-03-29T11:49:48Z</time>
      </trkpt>
      <trkpt lat="48.57458" lon="1.88221">
        <ele>143.2</ele>
        <time>2026-03-29T11:49:49Z</time>
      </trkpt>
      <trkpt lat="48.57455" lon="1.8822">
        <ele>143.2</ele>
        <time>2026-03-29T11:49:50Z</time>
      </trkpt>
      <trkpt lat="48.57453" lon="1.88218">
        <ele>143.2</ele>
        <time>2026-03-29T11:49:51Z</time>
      </trkpt>
      <trkpt lat="48.57451" lon="1.88216">
        <ele>143.2</ele>
        <time>2026-03-29T11:49:52Z</time>
      </trkpt>
      <trkpt lat="48.5745" lon="1.88213">
        <ele>143.2</ele>
        <time>2026-03-29T11:49:53Z</time>
      </trkpt>
      <trkpt lat="48.57449" lon="1.88211">
        <ele>143</ele>
        <time>2026-03-29T11:49:54Z</time>
      </trkpt>
      <trkpt lat="48.57448" lon="1.8821">
        <ele>143</ele>
        <time>2026-03-29T11:49:55Z</time>
      </trkpt>
      <trkpt lat="48.57448" lon="1.8821">
        <ele>143</ele>
        <time>2026-03-29T11:49:56Z</time>
      </trkpt>
      <trkpt lat="48.57448" lon="1.8821">
        <ele>143.4</ele>
        <time>2026-03-29T11:49:57Z</time>
      </trkpt>
      <trkpt lat="48.57448" lon="1.88209">
        <ele>143.6</ele>
        <time>2026-03-29T11:49:58Z</time>
      </trkpt>
      <trkpt lat="48.57446" lon="1.88208">
        <ele>143.6</ele>
        <time>2026-03-29T11:52:44Z</time>
      </trkpt>
      <trkpt lat="48.57444" lon="1.88207">
        <ele>143.6</ele>
        <time>2026-03-29T11:52:45Z</time>
      </trkpt>
      <trkpt lat="48.57442" lon="1.88206">
        <ele>143.6</ele>
        <time>2026-03-29T11:52:46Z</time>
      </trkpt>
      <trkpt lat="48.5744" lon="1.88204">
        <ele>143.6</ele>
        <time>2026-03-29T11:52:47Z</time>
      </trkpt>
      <trkpt lat="48.57438" lon="1.88201">
        <ele>143.6</ele>
        <time>2026-03-29T11:52:48Z</time>
      </trkpt>
      <trkpt lat="48.57436" lon="1.88198">
        <ele>143.6</ele>
        <time>2026-03-29T11:52:49Z</time>
      </trkpt>
      <trkpt lat="48.57434" lon="1.88195">
        <ele>143</ele>
        <time>2026-03-29T11:52:50Z</time>
      </trkpt>
      <trkpt lat="48.57432" lon="1.88192">
        <ele>143</ele>
        <time>2026-03-29T11:52:51Z</time>
      </trkpt>
      <trkpt lat="48.5743" lon="1.88189">
        <ele>143</ele>
        <time>2026-03-29T11:52:52Z</time>
      </trkpt>
      <trkpt lat="48.57427" lon="1.88186">
        <ele>143.6</ele>
        <time>2026-03-29T11:52:53Z</time>
      </trkpt>
      <trkpt lat="48.57426" lon="1.88184">
        <ele>143.4</ele>
        <time>2026-03-29T11:52:54Z</time>
      </trkpt>
      <trkpt lat="48.57424" lon="1.88182">
        <ele>143.4</ele>
        <time>2026-03-29T11:52:55Z</time>
      </trkpt>
      <trkpt lat="48.57424" lon="1.88179">
        <ele>143.4</ele>
        <time>2026-03-29T11:52:56Z</time>
      </trkpt>
      <trkpt lat="48.57423" lon="1.88176">
        <ele>143.8</ele>
        <time>2026-03-29T11:52:57Z</time>
      </trkpt>
      <trkpt lat="48.57422" lon="1.88172">
        <ele>143.8</ele>
        <time>2026-03-29T11:52:58Z</time>
      </trkpt>
      <trkpt lat="48.5742" lon="1.88167">
        <ele>143.8</ele>
        <time>2026-03-29T11:52:59Z</time>
      </trkpt>
      <trkpt lat="48.57419" lon="1.88162">
        <ele>143.8</ele>
        <time>2026-03-29T11:53:00Z</time>
      </trkpt>
      <trkpt lat="48.57418" lon="1.88156">
        <ele>143.8</ele>
        <time>2026-03-29T11:53:01Z</time>
      </trkpt>
      <trkpt lat="48.57417" lon="1.88149">
        <ele>143.2</ele>
        <time>2026-03-29T11:53:02Z</time>
      </trkpt>
      <trkpt lat="48.57415" lon="1.88143">
        <ele>143.2</ele>
        <time>2026-03-29T11:53:03Z</time>
      </trkpt>
      <trkpt lat="48.57414" lon="1.88136">
        <ele>143.2</ele>
        <time>2026-03-29T11:53:04Z</time>
      </trkpt>
      <trkpt lat="48.57412" lon="1.8813">
        <ele>143.2</ele>
        <time>2026-03-29T11:53:05Z</time>
      </trkpt>
      <trkpt lat="48.5741" lon="1.88124">
        <ele>143.6</ele>
        <time>2026-03-29T11:53:06Z</time>
      </trkpt>
      <trkpt lat="48.57408" lon="1.88119">
        <ele>143.6</ele>
        <time>2026-03-29T11:53:07Z</time>
      </trkpt>
      <trkpt lat="48.57407" lon="1.88113">
        <ele>143.6</ele>
        <time>2026-03-29T11:53:08Z</time>
      </trkpt>
      <trkpt lat="48.57408" lon="1.88108">
        <ele>143</ele>
        <time>2026-03-29T11:53:09Z</time>
      </trkpt>
      <trkpt lat="48.57408" lon="1.88102">
        <ele>143.2</ele>
        <time>2026-03-29T11:53:10Z</time>
      </trkpt>
      <trkpt lat="48.57408" lon="1.88096">
        <ele>143.2</ele>
        <time>2026-03-29T11:53:11Z</time>
      </trkpt>
      <trkpt lat="48.57408" lon="1.88092">
        <ele>143.2</ele>
        <time>2026-03-29T11:53:12Z</time>
      </trkpt>
      <trkpt lat="48.57409" lon="1.88087">
        <ele>143.2</ele>
        <time>2026-03-29T11:53:13Z</time>
      </trkpt>
      <trkpt lat="48.57412" lon="1.88084">
        <ele>143</ele>
        <time>2026-03-29T11:53:14Z</time>
      </trkpt>
      <trkpt lat="48.57415" lon="1.8808">
        <ele>143</ele>
        <time>2026-03-29T11:53:15Z</time>
      </trkpt>
      <trkpt lat="48.57418" lon="1.88079">
        <ele>143</ele>
        <time>2026-03-29T11:53:16Z</time>
      </trkpt>
      <trkpt lat="48.57422" lon="1.88081">
        <ele>142.4</ele>
        <time>2026-03-29T11:53:17Z</time>
      </trkpt>
      <trkpt lat="48.57426" lon="1.88083">
        <ele>142.8</ele>
        <time>2026-03-29T11:53:18Z</time>
      </trkpt>
      <trkpt lat="48.57429" lon="1.88086">
        <ele>142.8</ele>
        <time>2026-03-29T11:53:19Z</time>
      </trkpt>
      <trkpt lat="48.57433" lon="1.88089">
        <ele>142.8</ele>
        <time>2026-03-29T11:53:20Z</time>
      </trkpt>
      <trkpt lat="48.57436" lon="1.88091">
        <ele>143.2</ele>
        <time>2026-03-29T11:53:21Z</time>
      </trkpt>
      <trkpt lat="48.5744" lon="1.88094">
        <ele>143.2</ele>
        <time>2026-03-29T11:53:22Z</time>
      </trkpt>
      <trkpt lat="48.57443" lon="1.88098">
        <ele>143.2</ele>
        <time>2026-03-29T11:53:23Z</time>
      </trkpt>
      <trkpt lat="48.57447" lon="1.88101">
        <ele>143.2</ele>
        <time>2026-03-29T11:53:24Z</time>
      </trkpt>
      <trkpt lat="48.5745" lon="1.88105">
        <ele>143.2</ele>
        <time>2026-03-29T11:53:25Z</time>
      </trkpt>
      <trkpt lat="48.57453" lon="1.88108">
        <ele>144</ele>
        <time>2026-03-29T11:53:26Z</time>
      </trkpt>
      <trkpt lat="48.57456" lon="1.88112">
        <ele>144</ele>
        <time>2026-03-29T11:53:27Z</time>
      </trkpt>
      <trkpt lat="48.57459" lon="1.88116">
        <ele>144</ele>
        <time>2026-03-29T11:53:28Z</time>
      </trkpt>
      <trkpt lat="48.57463" lon="1.8812">
        <ele>145</ele>
        <time>2026-03-29T11:53:29Z</time>
      </trkpt>
      <trkpt lat="48.57466" lon="1.88124">
        <ele>143.6</ele>
        <time>2026-03-29T11:53:30Z</time>
      </trkpt>
      <trkpt lat="48.5747" lon="1.88128">
        <ele>143.6</ele>
        <time>2026-03-29T11:53:31Z</time>
      </trkpt>
      <trkpt lat="48.57474" lon="1.88132">
        <ele>143.6</ele>
        <time>2026-03-29T11:53:32Z</time>
      </trkpt>
      <trkpt lat="48.57477" lon="1.88135">
        <ele>143.6</ele>
        <time>2026-03-29T11:53:33Z</time>
      </trkpt>
      <trkpt lat="48.57481" lon="1.88138">
        <ele>143.6</ele>
        <time>2026-03-29T11:53:34Z</time>
      </trkpt>
      <trkpt lat="48.57486" lon="1.88141">
        <ele>143.6</ele>
        <time>2026-03-29T11:53:35Z</time>
      </trkpt>
      <trkpt lat="48.5749" lon="1.88144">
        <ele>143.6</ele>
        <time>2026-03-29T11:53:36Z</time>
      </trkpt>
      <trkpt lat="48.57494" lon="1.88147">
        <ele>143.6</ele>
        <time>2026-03-29T11:53:37Z</time>
      </trkpt>
      <trkpt lat="48.57497" lon="1.8815">
        <ele>144.2</ele>
        <time>2026-03-29T11:53:38Z</time>
      </trkpt>
      <trkpt lat="48.575" lon="1.88154">
        <ele>144.2</ele>
        <time>2026-03-29T11:53:39Z</time>
      </trkpt>
      <trkpt lat="48.57503" lon="1.88158">
        <ele>144.2</ele>
        <time>2026-03-29T11:53:40Z</time>
      </trkpt>
      <trkpt lat="48.57505" lon="1.88162">
        <ele>143.4</ele>
        <time>2026-03-29T11:53:41Z</time>
      </trkpt>
      <trkpt lat="48.57507" lon="1.88166">
        <ele>143</ele>
        <time>2026-03-29T11:53:42Z</time>
      </trkpt>
      <trkpt lat="48.5751" lon="1.88167">
        <ele>143</ele>
        <time>2026-03-29T11:53:43Z</time>
      </trkpt>
      <trkpt lat="48.57513" lon="1.88165">
        <ele>143</ele>
        <time>2026-03-29T11:53:44Z</time>
      </trkpt>
      <trkpt lat="48.57515" lon="1.88161">
        <ele>143</ele>
        <time>2026-03-29T11:53:45Z</time>
      </trkpt>
      <trkpt lat="48.57516" lon="1.88156">
        <ele>143</ele>
        <time>2026-03-29T11:53:46Z</time>
      </trkpt>
      <trkpt lat="48.57517" lon="1.8815">
        <ele>143</ele>
        <time>2026-03-29T11:53:47Z</time>
      </trkpt>
      <trkpt lat="48.57518" lon="1.88144">
        <ele>143</ele>
        <time>2026-03-29T11:53:48Z</time>
      </trkpt>
      <trkpt lat="48.57518" lon="1.88137">
        <ele>143.6</ele>
        <time>2026-03-29T11:53:49Z</time>
      </trkpt>
      <trkpt lat="48.57518" lon="1.8813">
        <ele>144</ele>
        <time>2026-03-29T11:53:50Z</time>
      </trkpt>
      <trkpt lat="48.57518" lon="1.88123">
        <ele>144</ele>
        <time>2026-03-29T11:53:51Z</time>
      </trkpt>
      <trkpt lat="48.57519" lon="1.88116">
        <ele>144</ele>
        <time>2026-03-29T11:53:52Z</time>
      </trkpt>
      <trkpt lat="48.57519" lon="1.88108">
        <ele>144</ele>
        <time>2026-03-29T11:53:53Z</time>
      </trkpt>
      <trkpt lat="48.57519" lon="1.88101">
        <ele>144</ele>
        <time>2026-03-29T11:53:54Z</time>
      </trkpt>
      <trkpt lat="48.57519" lon="1.88094">
        <ele>144</ele>
        <time>2026-03-29T11:53:55Z</time>
      </trkpt>
      <trkpt lat="48.57519" lon="1.88086">
        <ele>144</ele>
        <time>2026-03-29T11:53:56Z</time>
      </trkpt>
      <trkpt lat="48.57519" lon="1.88079">
        <ele>143</ele>
        <time>2026-03-29T11:53:57Z</time>
      </trkpt>
      <trkpt lat="48.57519" lon="1.88072">
        <ele>143.2</ele>
        <time>2026-03-29T11:53:58Z</time>
      </trkpt>
      <trkpt lat="48.57518" lon="1.88064">
        <ele>143.2</ele>
        <time>2026-03-29T11:53:59Z</time>
      </trkpt>
      <trkpt lat="48.57518" lon="1.88057">
        <ele>143.2</ele>
        <time>2026-03-29T11:54:00Z</time>
      </trkpt>
      <trkpt lat="48.57517" lon="1.8805">
        <ele>144</ele>
        <time>2026-03-29T11:54:01Z</time>
      </trkpt>
      <trkpt lat="48.57516" lon="1.88043">
        <ele>143.6</ele>
        <time>2026-03-29T11:54:02Z</time>
      </trkpt>
      <trkpt lat="48.57515" lon="1.88036">
        <ele>143.6</ele>
        <time>2026-03-29T11:54:03Z</time>
      </trkpt>
      <trkpt lat="48.57514" lon="1.88029">
        <ele>143.6</ele>
        <time>2026-03-29T11:54:04Z</time>
      </trkpt>
      <trkpt lat="48.57513" lon="1.88022">
        <ele>143.6</ele>
        <time>2026-03-29T11:54:05Z</time>
      </trkpt>
      <trkpt lat="48.57512" lon="1.88015">
        <ele>144.4</ele>
        <time>2026-03-29T11:54:06Z</time>
      </trkpt>
      <trkpt lat="48.5751" lon="1.88008">
        <ele>144.4</ele>
        <time>2026-03-29T11:54:07Z</time>
      </trkpt>
      <trkpt lat="48.57509" lon="1.88001">
        <ele>144.4</ele>
        <time>2026-03-29T11:54:08Z</time>
      </trkpt>
      <trkpt lat="48.57509" lon="1.87994">
        <ele>144.6</ele>
        <time>2026-03-29T11:54:09Z</time>
      </trkpt>
      <trkpt lat="48.57508" lon="1.87987">
        <ele>145</ele>
        <time>2026-03-29T11:54:10Z</time>
      </trkpt>
      <trkpt lat="48.57507" lon="1.8798">
        <ele>145</ele>
        <time>2026-03-29T11:54:11Z</time>
      </trkpt>
      <trkpt lat="48.57507" lon="1.87973">
        <ele>145</ele>
        <time>2026-03-29T11:54:12Z</time>
      </trkpt>
      <trkpt lat="48.57507" lon="1.87966">
        <ele>145</ele>
        <time>2026-03-29T11:54:13Z</time>
      </trkpt>
      <trkpt lat="48.57508" lon="1.87959">
        <ele>144.8</ele>
        <time>2026-03-29T11:54:14Z</time>
      </trkpt>
      <trkpt lat="48.57508" lon="1.87953">
        <ele>144.8</ele>
        <time>2026-03-29T11:54:15Z</time>
      </trkpt>
      <trkpt lat="48.57509" lon="1.87947">
        <ele>144.8</ele>
        <time>2026-03-29T11:54:16Z</time>
      </trkpt>
      <trkpt lat="48.5751" lon="1.87941">
        <ele>145.2</ele>
        <time>2026-03-29T11:54:17Z</time>
      </trkpt>
      <trkpt lat="48.57511" lon="1.87937">
        <ele>145.2</ele>
        <time>2026-03-29T11:54:18Z</time>
      </trkpt>
      <trkpt lat="48.57512" lon="1.87932">
        <ele>145.2</ele>
        <time>2026-03-29T11:54:19Z</time>
      </trkpt>
      <trkpt lat="48.57514" lon="1.87928">
        <ele>145.2</ele>
        <time>2026-03-29T11:54:20Z</time>
      </trkpt>
      <trkpt lat="48.57516" lon="1.87923">
        <ele>145.8</ele>
        <time>2026-03-29T11:54:21Z</time>
      </trkpt>
      <trkpt lat="48.57518" lon="1.87918">
        <ele>146</ele>
        <time>2026-03-29T11:54:22Z</time>
      </trkpt>
      <trkpt lat="48.57521" lon="1.87912">
        <ele>146</ele>
        <time>2026-03-29T11:54:23Z</time>
      </trkpt>
      <trkpt lat="48.57523" lon="1.87907">
        <ele>146</ele>
        <time>2026-03-29T11:54:24Z</time>
      </trkpt>
      <trkpt lat="48.57525" lon="1.87902">
        <ele>146</ele>
        <time>2026-03-29T11:54:25Z</time>
      </trkpt>
      <trkpt lat="48.57527" lon="1.87897">
        <ele>146.2</ele>
        <time>2026-03-29T11:54:26Z</time>
      </trkpt>
      <trkpt lat="48.5753" lon="1.87891">
        <ele>146.2</ele>
        <time>2026-03-29T11:54:27Z</time>
      </trkpt>
      <trkpt lat="48.57532" lon="1.87886">
        <ele>146.2</ele>
        <time>2026-03-29T11:54:28Z</time>
      </trkpt>
      <trkpt lat="48.57534" lon="1.87881">
        <ele>146.8</ele>
        <time>2026-03-29T11:54:29Z</time>
      </trkpt>
      <trkpt lat="48.57536" lon="1.87875">
        <ele>147.2</ele>
        <time>2026-03-29T11:54:30Z</time>
      </trkpt>
      <trkpt lat="48.57538" lon="1.8787">
        <ele>147.2</ele>
        <time>2026-03-29T11:54:31Z</time>
      </trkpt>
      <trkpt lat="48.57541" lon="1.87865">
        <ele>147.2</ele>
        <time>2026-03-29T11:54:32Z</time>
      </trkpt>
      <trkpt lat="48.57543" lon="1.8786">
        <ele>147.2</ele>
        <time>2026-03-29T11:54:33Z</time>
      </trkpt>
      <trkpt lat="48.57545" lon="1.87855">
        <ele>147.4</ele>
        <time>2026-03-29T11:54:34Z</time>
      </trkpt>
      <trkpt lat="48.57547" lon="1.8785">
        <ele>147.4</ele>
        <time>2026-03-29T11:54:35Z</time>
      </trkpt>
      <trkpt lat="48.5755" lon="1.87845">
        <ele>147.4</ele>
        <time>2026-03-29T11:54:36Z</time>
      </trkpt>
      <trkpt lat="48.57553" lon="1.87842">
        <ele>148.4</ele>
        <time>2026-03-29T11:54:37Z</time>
      </trkpt>
      <trkpt lat="48.57556" lon="1.87842">
        <ele>148.6</ele>
        <time>2026-03-29T11:54:38Z</time>
      </trkpt>
      <trkpt lat="48.5756" lon="1.87844">
        <ele>148.6</ele>
        <time>2026-03-29T11:54:39Z</time>
      </trkpt>
      <trkpt lat="48.57563" lon="1.87845">
        <ele>148.6</ele>
        <time>2026-03-29T11:54:40Z</time>
      </trkpt>
      <trkpt lat="48.57567" lon="1.87846">
        <ele>148.6</ele>
        <time>2026-03-29T11:54:41Z</time>
      </trkpt>
      <trkpt lat="48.5757" lon="1.87846">
        <ele>149</ele>
        <time>2026-03-29T11:54:42Z</time>
      </trkpt>
      <trkpt lat="48.57573" lon="1.87844">
        <ele>149</ele>
        <time>2026-03-29T11:54:43Z</time>
      </trkpt>
      <trkpt lat="48.57576" lon="1.87841">
        <ele>149</ele>
        <time>2026-03-29T11:54:44Z</time>
      </trkpt>
      <trkpt lat="48.57578" lon="1.87836">
        <ele>149.2</ele>
        <time>2026-03-29T11:54:45Z</time>
      </trkpt>
      <trkpt lat="48.5758" lon="1.87832">
        <ele>149.6</ele>
        <time>2026-03-29T11:54:46Z</time>
      </trkpt>
      <trkpt lat="48.57582" lon="1.87828">
        <ele>149.6</ele>
        <time>2026-03-29T11:54:47Z</time>
      </trkpt>
      <trkpt lat="48.57584" lon="1.87824">
        <ele>149.6</ele>
        <time>2026-03-29T11:54:48Z</time>
      </trkpt>
      <trkpt lat="48.57586" lon="1.8782">
        <ele>150.2</ele>
        <time>2026-03-29T11:54:49Z</time>
      </trkpt>
      <trkpt lat="48.57589" lon="1.87817">
        <ele>150.8</ele>
        <time>2026-03-29T11:54:50Z</time>
      </trkpt>
      <trkpt lat="48.57592" lon="1.87816">
        <ele>150.8</ele>
        <time>2026-03-29T11:54:51Z</time>
      </trkpt>
      <trkpt lat="48.57596" lon="1.87818">
        <ele>150.8</ele>
        <time>2026-03-29T11:54:52Z</time>
      </trkpt>
      <trkpt lat="48.57599" lon="1.87821">
        <ele>150.8</ele>
        <time>2026-03-29T11:54:53Z</time>
      </trkpt>
      <trkpt lat="48.57603" lon="1.87824">
        <ele>151.2</ele>
        <time>2026-03-29T11:54:54Z</time>
      </trkpt>
      <trkpt lat="48.57606" lon="1.87827">
        <ele>151.2</ele>
        <time>2026-03-29T11:54:55Z</time>
      </trkpt>
      <trkpt lat="48.5761" lon="1.8783">
        <ele>151.2</ele>
        <time>2026-03-29T11:54:56Z</time>
      </trkpt>
      <trkpt lat="48.57614" lon="1.87833">
        <ele>150.2</ele>
        <time>2026-03-29T11:54:57Z</time>
      </trkpt>
      <trkpt lat="48.57618" lon="1.87836">
        <ele>148.4</ele>
        <time>2026-03-29T11:54:58Z</time>
      </trkpt>
      <trkpt lat="48.57623" lon="1.87839">
        <ele>148.4</ele>
        <time>2026-03-29T11:54:59Z</time>
      </trkpt>
      <trkpt lat="48.57627" lon="1.87842">
        <ele>148.4</ele>
        <time>2026-03-29T11:55:00Z</time>
      </trkpt>
      <trkpt lat="48.57632" lon="1.87846">
        <ele>147.4</ele>
        <time>2026-03-29T11:55:01Z</time>
      </trkpt>
      <trkpt lat="48.57636" lon="1.8785">
        <ele>147.2</ele>
        <time>2026-03-29T11:55:02Z</time>
      </trkpt>
      <trkpt lat="48.5764" lon="1.87854">
        <ele>147.2</ele>
        <time>2026-03-29T11:55:03Z</time>
      </trkpt>
      <trkpt lat="48.57645" lon="1.87858">
        <ele>147.2</ele>
        <time>2026-03-29T11:55:04Z</time>
      </trkpt>
      <trkpt lat="48.5765" lon="1.8786">
        <ele>147.2</ele>
        <time>2026-03-29T11:55:05Z</time>
      </trkpt>
      <trkpt lat="48.57655" lon="1.87859">
        <ele>147.6</ele>
        <time>2026-03-29T11:55:06Z</time>
      </trkpt>
      <trkpt lat="48.57658" lon="1.87856">
        <ele>147.6</ele>
        <time>2026-03-29T11:55:07Z</time>
      </trkpt>
      <trkpt lat="48.57661" lon="1.87852">
        <ele>147.6</ele>
        <time>2026-03-29T11:55:08Z</time>
      </trkpt>
      <trkpt lat="48.57664" lon="1.87847">
        <ele>147.6</ele>
        <time>2026-03-29T11:55:09Z</time>
      </trkpt>
      <trkpt lat="48.57666" lon="1.87843">
        <ele>148</ele>
        <time>2026-03-29T11:55:10Z</time>
      </trkpt>
      <trkpt lat="48.57669" lon="1.87838">
        <ele>148</ele>
        <time>2026-03-29T11:55:11Z</time>
      </trkpt>
      <trkpt lat="48.57672" lon="1.87834">
        <ele>148</ele>
        <time>2026-03-29T11:55:12Z</time>
      </trkpt>
      <trkpt lat="48.57675" lon="1.87829">
        <ele>149</ele>
        <time>2026-03-29T11:55:13Z</time>
      </trkpt>
      <trkpt lat="48.57677" lon="1.87825">
        <ele>148.8</ele>
        <time>2026-03-29T11:55:14Z</time>
      </trkpt>
      <trkpt lat="48.5768" lon="1.8782">
        <ele>148.8</ele>
        <time>2026-03-29T11:55:15Z</time>
      </trkpt>
      <trkpt lat="48.57682" lon="1.87816">
        <ele>148.8</ele>
        <time>2026-03-29T11:55:16Z</time>
      </trkpt>
      <trkpt lat="48.57684" lon="1.87813">
        <ele>148.8</ele>
        <time>2026-03-29T11:55:17Z</time>
      </trkpt>
      <trkpt lat="48.57687" lon="1.87811">
        <ele>148.4</ele>
        <time>2026-03-29T11:55:18Z</time>
      </trkpt>
      <trkpt lat="48.5769" lon="1.87813">
        <ele>148.4</ele>
        <time>2026-03-29T11:55:19Z</time>
      </trkpt>
      <trkpt lat="48.57693" lon="1.87817">
        <ele>148.4</ele>
        <time>2026-03-29T11:55:20Z</time>
      </trkpt>
      <trkpt lat="48.57695" lon="1.87821">
        <ele>148.4</ele>
        <time>2026-03-29T11:55:21Z</time>
      </trkpt>
      <trkpt lat="48.57698" lon="1.87825">
        <ele>147.8</ele>
        <time>2026-03-29T11:55:22Z</time>
      </trkpt>
      <trkpt lat="48.57701" lon="1.8783">
        <ele>147.8</ele>
        <time>2026-03-29T11:55:23Z</time>
      </trkpt>
      <trkpt lat="48.57703" lon="1.87834">
        <ele>147.8</ele>
        <time>2026-03-29T11:55:24Z</time>
      </trkpt>
      <trkpt lat="48.57704" lon="1.87839">
        <ele>147.8</ele>
        <time>2026-03-29T11:55:25Z</time>
      </trkpt>
      <trkpt lat="48.57704" lon="1.87845">
        <ele>147.8</ele>
        <time>2026-03-29T11:55:26Z</time>
      </trkpt>
      <trkpt lat="48.57703" lon="1.87851">
        <ele>147.8</ele>
        <time>2026-03-29T11:55:27Z</time>
      </trkpt>
      <trkpt lat="48.57702" lon="1.87856">
        <ele>147.8</ele>
        <time>2026-03-29T11:55:28Z</time>
      </trkpt>
      <trkpt lat="48.57704" lon="1.87861">
        <ele>147.8</ele>
        <time>2026-03-29T11:55:29Z</time>
      </trkpt>
      <trkpt lat="48.57707" lon="1.87865">
        <ele>147.4</ele>
        <time>2026-03-29T11:55:30Z</time>
      </trkpt>
      <trkpt lat="48.5771" lon="1.87868">
        <ele>147.4</ele>
        <time>2026-03-29T11:55:31Z</time>
      </trkpt>
      <trkpt lat="48.57714" lon="1.87872">
        <ele>147.4</ele>
        <time>2026-03-29T11:55:32Z</time>
      </trkpt>
      <trkpt lat="48.57718" lon="1.87876">
        <ele>146.4</ele>
        <time>2026-03-29T11:55:33Z</time>
      </trkpt>
      <trkpt lat="48.57721" lon="1.8788">
        <ele>146.6</ele>
        <time>2026-03-29T11:55:34Z</time>
      </trkpt>
      <trkpt lat="48.57725" lon="1.87884">
        <ele>146.6</ele>
        <time>2026-03-29T11:55:35Z</time>
      </trkpt>
      <trkpt lat="48.57729" lon="1.87889">
        <ele>146.6</ele>
        <time>2026-03-29T11:55:36Z</time>
      </trkpt>
      <trkpt lat="48.57733" lon="1.87893">
        <ele>146.6</ele>
        <time>2026-03-29T11:55:37Z</time>
      </trkpt>
      <trkpt lat="48.57738" lon="1.87897">
        <ele>146</ele>
        <time>2026-03-29T11:55:38Z</time>
      </trkpt>
      <trkpt lat="48.57741" lon="1.87901">
        <ele>146</ele>
        <time>2026-03-29T11:55:39Z</time>
      </trkpt>
      <trkpt lat="48.57744" lon="1.87903">
        <ele>146</ele>
        <time>2026-03-29T11:55:40Z</time>
      </trkpt>
      <trkpt lat="48.57746" lon="1.87905">
        <ele>145</ele>
        <time>2026-03-29T11:55:41Z</time>
      </trkpt>
      <trkpt lat="48.57748" lon="1.87905">
        <ele>145.4</ele>
        <time>2026-03-29T11:55:42Z</time>
      </trkpt>
      <trkpt lat="48.5775" lon="1.87904">
        <ele>145.4</ele>
        <time>2026-03-29T11:55:43Z</time>
      </trkpt>
      <trkpt lat="48.57753" lon="1.87901">
        <ele>145.4</ele>
        <time>2026-03-29T11:55:44Z</time>
      </trkpt>
      <trkpt lat="48.57756" lon="1.87897">
        <ele>145.4</ele>
        <time>2026-03-29T11:55:45Z</time>
      </trkpt>
      <trkpt lat="48.57758" lon="1.87892">
        <ele>145.6</ele>
        <time>2026-03-29T11:55:46Z</time>
      </trkpt>
      <trkpt lat="48.57761" lon="1.87887">
        <ele>145.6</ele>
        <time>2026-03-29T11:55:47Z</time>
      </trkpt>
      <trkpt lat="48.57764" lon="1.87882">
        <ele>145.6</ele>
        <time>2026-03-29T11:55:48Z</time>
      </trkpt>
      <trkpt lat="48.57767" lon="1.87876">
        <ele>146</ele>
        <time>2026-03-29T11:55:49Z</time>
      </trkpt>
      <trkpt lat="48.5777" lon="1.87871">
        <ele>145.6</ele>
        <time>2026-03-29T11:55:50Z</time>
      </trkpt>
      <trkpt lat="48.57773" lon="1.87866">
        <ele>145.6</ele>
        <time>2026-03-29T11:55:51Z</time>
      </trkpt>
      <trkpt lat="48.57777" lon="1.87861">
        <ele>145.6</ele>
        <time>2026-03-29T11:55:52Z</time>
      </trkpt>
      <trkpt lat="48.5778" lon="1.87855">
        <ele>145.6</ele>
        <time>2026-03-29T11:55:53Z</time>
      </trkpt>
      <trkpt lat="48.57783" lon="1.87849">
        <ele>145.8</ele>
        <time>2026-03-29T11:55:54Z</time>
      </trkpt>
      <trkpt lat="48.57786" lon="1.87844">
        <ele>145.8</ele>
        <time>2026-03-29T11:55:55Z</time>
      </trkpt>
      <trkpt lat="48.5779" lon="1.87838">
        <ele>145.8</ele>
        <time>2026-03-29T11:55:56Z</time>
      </trkpt>
      <trkpt lat="48.57793" lon="1.87833">
        <ele>145.8</ele>
        <time>2026-03-29T11:55:57Z</time>
      </trkpt>
      <trkpt lat="48.57796" lon="1.87827">
        <ele>146.2</ele>
        <time>2026-03-29T11:55:58Z</time>
      </trkpt>
      <trkpt lat="48.578" lon="1.87821">
        <ele>146.2</ele>
        <time>2026-03-29T11:55:59Z</time>
      </trkpt>
      <trkpt lat="48.57803" lon="1.87816">
        <ele>146.2</ele>
        <time>2026-03-29T11:56:00Z</time>
      </trkpt>
      <trkpt lat="48.57806" lon="1.8781">
        <ele>146.2</ele>
        <time>2026-03-29T11:56:01Z</time>
      </trkpt>
      <trkpt lat="48.5781" lon="1.87805">
        <ele>146.6</ele>
        <time>2026-03-29T11:56:02Z</time>
      </trkpt>
      <trkpt lat="48.57813" lon="1.87799">
        <ele>146.6</ele>
        <time>2026-03-29T11:56:03Z</time>
      </trkpt>
      <trkpt lat="48.57817" lon="1.87794">
        <ele>146.6</ele>
        <time>2026-03-29T11:56:04Z</time>
      </trkpt>
      <trkpt lat="48.5782" lon="1.87789">
        <ele>146.6</ele>
        <time>2026-03-29T11:56:05Z</time>
      </trkpt>
      <trkpt lat="48.57823" lon="1.87783">
        <ele>146.4</ele>
        <time>2026-03-29T11:56:06Z</time>
      </trkpt>
      <trkpt lat="48.57826" lon="1.87778">
        <ele>146.4</ele>
        <time>2026-03-29T11:56:07Z</time>
      </trkpt>
      <trkpt lat="48.57827" lon="1.87774">
        <ele>146.4</ele>
        <time>2026-03-29T11:56:08Z</time>
      </trkpt>
      <trkpt lat="48.57829" lon="1.87771">
        <ele>146.4</ele>
        <time>2026-03-29T11:56:09Z</time>
      </trkpt>
      <trkpt lat="48.5783" lon="1.8777">
        <ele>145.6</ele>
        <time>2026-03-29T11:56:10Z</time>
      </trkpt>
      <trkpt lat="48.57831" lon="1.8777">
        <ele>145.6</ele>
        <time>2026-03-29T11:56:11Z</time>
      </trkpt>
      <trkpt lat="48.57833" lon="1.87768">
        <ele>145.6</ele>
        <time>2026-03-29T11:56:12Z</time>
      </trkpt>
      <trkpt lat="48.57835" lon="1.87765">
        <ele>146.2</ele>
        <time>2026-03-29T11:56:13Z</time>
      </trkpt>
      <trkpt lat="48.57837" lon="1.87762">
        <ele>146</ele>
        <time>2026-03-29T11:56:14Z</time>
      </trkpt>
      <trkpt lat="48.57839" lon="1.87758">
        <ele>146</ele>
        <time>2026-03-29T11:56:15Z</time>
      </trkpt>
      <trkpt lat="48.57842" lon="1.87753">
        <ele>146</ele>
        <time>2026-03-29T11:56:16Z</time>
      </trkpt>
      <trkpt lat="48.57845" lon="1.87748">
        <ele>146</ele>
        <time>2026-03-29T11:56:17Z</time>
      </trkpt>
      <trkpt lat="48.57847" lon="1.87743">
        <ele>145.8</ele>
        <time>2026-03-29T11:56:18Z</time>
      </trkpt>
      <trkpt lat="48.5785" lon="1.87737">
        <ele>145.8</ele>
        <time>2026-03-29T11:56:19Z</time>
      </trkpt>
      <trkpt lat="48.57853" lon="1.87732">
        <ele>145.8</ele>
        <time>2026-03-29T11:56:20Z</time>
      </trkpt>
      <trkpt lat="48.57857" lon="1.87728">
        <ele>145.8</ele>
        <time>2026-03-29T11:56:21Z</time>
      </trkpt>
      <trkpt lat="48.57861" lon="1.87724">
        <ele>145.6</ele>
        <time>2026-03-29T11:56:22Z</time>
      </trkpt>
      <trkpt lat="48.57865" lon="1.87722">
        <ele>145.6</ele>
        <time>2026-03-29T11:56:23Z</time>
      </trkpt>
      <trkpt lat="48.57868" lon="1.87721">
        <ele>145.6</ele>
        <time>2026-03-29T11:56:24Z</time>
      </trkpt>
      <trkpt lat="48.57869" lon="1.87718">
        <ele>145.6</ele>
        <time>2026-03-29T11:56:25Z</time>
      </trkpt>
      <trkpt lat="48.57869" lon="1.87716">
        <ele>145.4</ele>
        <time>2026-03-29T11:56:26Z</time>
      </trkpt>
      <trkpt lat="48.57868" lon="1.87714">
        <ele>145.4</ele>
        <time>2026-03-29T11:56:27Z</time>
      </trkpt>
      <trkpt lat="48.57866" lon="1.87715">
        <ele>145.4</ele>
        <time>2026-03-29T11:56:28Z</time>
      </trkpt>
      <trkpt lat="48.57864" lon="1.87717">
        <ele>145.4</ele>
        <time>2026-03-29T11:56:29Z</time>
      </trkpt>
      <trkpt lat="48.57862" lon="1.87718">
        <ele>146</ele>
        <time>2026-03-29T11:56:30Z</time>
      </trkpt>
      <trkpt lat="48.5786" lon="1.87722">
        <ele>146</ele>
        <time>2026-03-29T11:56:31Z</time>
      </trkpt>
      <trkpt lat="48.5786" lon="1.87726">
        <ele>146</ele>
        <time>2026-03-29T11:56:32Z</time>
      </trkpt>
      <trkpt lat="48.57861" lon="1.8773">
        <ele>145.6</ele>
        <time>2026-03-29T11:56:33Z</time>
      </trkpt>
      <trkpt lat="48.57864" lon="1.87733">
        <ele>145.4</ele>
        <time>2026-03-29T11:56:34Z</time>
      </trkpt>
      <trkpt lat="48.57867" lon="1.87737">
        <ele>145.4</ele>
        <time>2026-03-29T11:56:35Z</time>
      </trkpt>
      <trkpt lat="48.5787" lon="1.87741">
        <ele>145.4</ele>
        <time>2026-03-29T11:56:36Z</time>
      </trkpt>
      <trkpt lat="48.57873" lon="1.87746">
        <ele>145.4</ele>
        <time>2026-03-29T11:56:37Z</time>
      </trkpt>
      <trkpt lat="48.57875" lon="1.87751">
        <ele>145</ele>
        <time>2026-03-29T11:56:38Z</time>
      </trkpt>
      <trkpt lat="48.57879" lon="1.87755">
        <ele>145</ele>
        <time>2026-03-29T11:56:39Z</time>
      </trkpt>
      <trkpt lat="48.57882" lon="1.8776">
        <ele>145</ele>
        <time>2026-03-29T11:56:40Z</time>
      </trkpt>
      <trkpt lat="48.57885" lon="1.87765">
        <ele>145</ele>
        <time>2026-03-29T11:56:41Z</time>
      </trkpt>
      <trkpt lat="48.57888" lon="1.8777">
        <ele>144.8</ele>
        <time>2026-03-29T11:56:42Z</time>
      </trkpt>
      <trkpt lat="48.5789" lon="1.87777">
        <ele>144.8</ele>
        <time>2026-03-29T11:56:43Z</time>
      </trkpt>
      <trkpt lat="48.57893" lon="1.87782">
        <ele>144.8</ele>
        <time>2026-03-29T11:56:44Z</time>
      </trkpt>
      <trkpt lat="48.57896" lon="1.87788">
        <ele>144.8</ele>
        <time>2026-03-29T11:56:45Z</time>
      </trkpt>
      <trkpt lat="48.57898" lon="1.87794">
        <ele>145.2</ele>
        <time>2026-03-29T11:56:46Z</time>
      </trkpt>
      <trkpt lat="48.579" lon="1.878">
        <ele>145.2</ele>
        <time>2026-03-29T11:56:47Z</time>
      </trkpt>
      <trkpt lat="48.57903" lon="1.87805">
        <ele>145.2</ele>
        <time>2026-03-29T11:56:48Z</time>
      </trkpt>
      <trkpt lat="48.57906" lon="1.8781">
        <ele>145</ele>
        <time>2026-03-29T11:56:49Z</time>
      </trkpt>
      <trkpt lat="48.57909" lon="1.87814">
        <ele>145</ele>
        <time>2026-03-29T11:56:50Z</time>
      </trkpt>
      <trkpt lat="48.57913" lon="1.87816">
        <ele>145</ele>
        <time>2026-03-29T11:56:51Z</time>
      </trkpt>
      <trkpt lat="48.57916" lon="1.87815">
        <ele>145</ele>
        <time>2026-03-29T11:56:52Z</time>
      </trkpt>
      <trkpt lat="48.5792" lon="1.87815">
        <ele>145.6</ele>
        <time>2026-03-29T11:56:53Z</time>
      </trkpt>
      <trkpt lat="48.57924" lon="1.87814">
        <ele>145.8</ele>
        <time>2026-03-29T11:56:54Z</time>
      </trkpt>
      <trkpt lat="48.57928" lon="1.87814">
        <ele>145.8</ele>
        <time>2026-03-29T11:56:55Z</time>
      </trkpt>
      <trkpt lat="48.57932" lon="1.87816">
        <ele>145.8</ele>
        <time>2026-03-29T11:56:56Z</time>
      </trkpt>
      <trkpt lat="48.57934" lon="1.87818">
        <ele>145</ele>
        <time>2026-03-29T11:56:57Z</time>
      </trkpt>
      <trkpt lat="48.57935" lon="1.87821">
        <ele>145</ele>
        <time>2026-03-29T11:56:58Z</time>
      </trkpt>
      <trkpt lat="48.57936" lon="1.87823">
        <ele>145</ele>
        <time>2026-03-29T11:56:59Z</time>
      </trkpt>
      <trkpt lat="48.57936" lon="1.87825">
        <ele>145</ele>
        <time>2026-03-29T11:57:00Z</time>
      </trkpt>
      <trkpt lat="48.57937" lon="1.87827">
        <ele>145</ele>
        <time>2026-03-29T11:57:01Z</time>
      </trkpt>
      <trkpt lat="48.57937" lon="1.8783">
        <ele>145.6</ele>
        <time>2026-03-29T11:57:02Z</time>
      </trkpt>
      <trkpt lat="48.57936" lon="1.87832">
        <ele>145.6</ele>
        <time>2026-03-29T11:57:03Z</time>
      </trkpt>
      <trkpt lat="48.57933" lon="1.87835">
        <ele>145.6</ele>
        <time>2026-03-29T11:57:04Z</time>
      </trkpt>
      <trkpt lat="48.57931" lon="1.87838">
        <ele>145</ele>
        <time>2026-03-29T11:57:05Z</time>
      </trkpt>
      <trkpt lat="48.57928" lon="1.87842">
        <ele>144.2</ele>
        <time>2026-03-29T11:57:06Z</time>
      </trkpt>
      <trkpt lat="48.57924" lon="1.87845">
        <ele>144.2</ele>
        <time>2026-03-29T11:57:07Z</time>
      </trkpt>
      <trkpt lat="48.57921" lon="1.87849">
        <ele>144.2</ele>
        <time>2026-03-29T11:57:08Z</time>
      </trkpt>
      <trkpt lat="48.57917" lon="1.87853">
        <ele>144.6</ele>
        <time>2026-03-29T11:57:09Z</time>
      </trkpt>
      <trkpt lat="48.57914" lon="1.87858">
        <ele>144.6</ele>
        <time>2026-03-29T11:57:10Z</time>
      </trkpt>
      <trkpt lat="48.57911" lon="1.87862">
        <ele>144.6</ele>
        <time>2026-03-29T11:57:11Z</time>
      </trkpt>
      <trkpt lat="48.57908" lon="1.87867">
        <ele>144.6</ele>
        <time>2026-03-29T11:57:12Z</time>
      </trkpt>
      <trkpt lat="48.57905" lon="1.87872">
        <ele>144.2</ele>
        <time>2026-03-29T11:57:13Z</time>
      </trkpt>
      <trkpt lat="48.57905" lon="1.87878">
        <ele>144.2</ele>
        <time>2026-03-29T11:57:14Z</time>
      </trkpt>
      <trkpt lat="48.57904" lon="1.87884">
        <ele>144.2</ele>
        <time>2026-03-29T11:57:15Z</time>
      </trkpt>
      <trkpt lat="48.57904" lon="1.87889">
        <ele>144.2</ele>
        <time>2026-03-29T11:57:16Z</time>
      </trkpt>
      <trkpt lat="48.57903" lon="1.87892">
        <ele>144.2</ele>
        <time>2026-03-29T11:57:17Z</time>
      </trkpt>
      <trkpt lat="48.57902" lon="1.87897">
        <ele>143.6</ele>
        <time>2026-03-29T11:57:18Z</time>
      </trkpt>
      <trkpt lat="48.57902" lon="1.87901">
        <ele>143.6</ele>
        <time>2026-03-29T11:57:19Z</time>
      </trkpt>
      <trkpt lat="48.57902" lon="1.87905">
        <ele>143.6</ele>
        <time>2026-03-29T11:57:20Z</time>
      </trkpt>
      <trkpt lat="48.57901" lon="1.8791">
        <ele>143.6</ele>
        <time>2026-03-29T11:57:21Z</time>
      </trkpt>
      <trkpt lat="48.57901" lon="1.87914">
        <ele>144</ele>
        <time>2026-03-29T11:57:22Z</time>
      </trkpt>
      <trkpt lat="48.57901" lon="1.87918">
        <ele>144</ele>
        <time>2026-03-29T11:57:23Z</time>
      </trkpt>
      <trkpt lat="48.57901" lon="1.8792">
        <ele>144</ele>
        <time>2026-03-29T11:57:24Z</time>
      </trkpt>
      <trkpt lat="48.57901" lon="1.87923">
        <ele>145</ele>
        <time>2026-03-29T11:57:25Z</time>
      </trkpt>
      <trkpt lat="48.57901" lon="1.87925">
        <ele>144.6</ele>
        <time>2026-03-29T11:57:26Z</time>
      </trkpt>
      <trkpt lat="48.57902" lon="1.87928">
        <ele>144.6</ele>
        <time>2026-03-29T11:57:27Z</time>
      </trkpt>
      <trkpt lat="48.57903" lon="1.87931">
        <ele>144.6</ele>
        <time>2026-03-29T11:57:28Z</time>
      </trkpt>
      <trkpt lat="48.57903" lon="1.87934">
        <ele>144.6</ele>
        <time>2026-03-29T11:57:29Z</time>
      </trkpt>
      <trkpt lat="48.57904" lon="1.87937">
        <ele>145</ele>
        <time>2026-03-29T11:57:30Z</time>
      </trkpt>
      <trkpt lat="48.57905" lon="1.8794">
        <ele>145</ele>
        <time>2026-03-29T11:57:31Z</time>
      </trkpt>
      <trkpt lat="48.57905" lon="1.87943">
        <ele>145</ele>
        <time>2026-03-29T11:57:32Z</time>
      </trkpt>
      <trkpt lat="48.57906" lon="1.87946">
        <ele>146</ele>
        <time>2026-03-29T11:57:33Z</time>
      </trkpt>
      <trkpt lat="48.57907" lon="1.87949">
        <ele>146.2</ele>
        <time>2026-03-29T11:57:34Z</time>
      </trkpt>
      <trkpt lat="48.57908" lon="1.87952">
        <ele>146.2</ele>
        <time>2026-03-29T11:57:35Z</time>
      </trkpt>
      <trkpt lat="48.57909" lon="1.87954">
        <ele>146.2</ele>
        <time>2026-03-29T11:57:36Z</time>
      </trkpt>
      <trkpt lat="48.57909" lon="1.87956">
        <ele>146.8</ele>
        <time>2026-03-29T11:57:37Z</time>
      </trkpt>
      <trkpt lat="48.57909" lon="1.87959">
        <ele>147</ele>
        <time>2026-03-29T11:57:38Z</time>
      </trkpt>
      <trkpt lat="48.5791" lon="1.87961">
        <ele>147</ele>
        <time>2026-03-29T11:57:39Z</time>
      </trkpt>
      <trkpt lat="48.5791" lon="1.87965">
        <ele>147</ele>
        <time>2026-03-29T11:57:40Z</time>
      </trkpt>
      <trkpt lat="48.5791" lon="1.87967">
        <ele>147.8</ele>
        <time>2026-03-29T11:57:41Z</time>
      </trkpt>
      <trkpt lat="48.57911" lon="1.8797">
        <ele>148.4</ele>
        <time>2026-03-29T11:57:42Z</time>
      </trkpt>
      <trkpt lat="48.57911" lon="1.87974">
        <ele>148.4</ele>
        <time>2026-03-29T11:57:43Z</time>
      </trkpt>
      <trkpt lat="48.57912" lon="1.87978">
        <ele>148.4</ele>
        <time>2026-03-29T11:57:44Z</time>
      </trkpt>
      <trkpt lat="48.57913" lon="1.87982">
        <ele>148.4</ele>
        <time>2026-03-29T11:57:45Z</time>
      </trkpt>
      <trkpt lat="48.57913" lon="1.87985">
        <ele>148.8</ele>
        <time>2026-03-29T11:57:46Z</time>
      </trkpt>
      <trkpt lat="48.57914" lon="1.87988">
        <ele>148.8</ele>
        <time>2026-03-29T11:57:47Z</time>
      </trkpt>
      <trkpt lat="48.57914" lon="1.87991">
        <ele>148.8</ele>
        <time>2026-03-29T11:57:48Z</time>
      </trkpt>
      <trkpt lat="48.57915" lon="1.87994">
        <ele>148.8</ele>
        <time>2026-03-29T11:57:49Z</time>
      </trkpt>
      <trkpt lat="48.57915" lon="1.87997">
        <ele>149.8</ele>
        <time>2026-03-29T11:57:50Z</time>
      </trkpt>
      <trkpt lat="48.57916" lon="1.87999">
        <ele>149.8</ele>
        <time>2026-03-29T11:57:51Z</time>
      </trkpt>
      <trkpt lat="48.57917" lon="1.88002">
        <ele>149.8</ele>
        <time>2026-03-29T11:57:52Z</time>
      </trkpt>
      <trkpt lat="48.57918" lon="1.88006">
        <ele>149.8</ele>
        <time>2026-03-29T11:57:53Z</time>
      </trkpt>
      <trkpt lat="48.57918" lon="1.88009">
        <ele>149.8</ele>
        <time>2026-03-29T11:57:54Z</time>
      </trkpt>
      <trkpt lat="48.57919" lon="1.88012">
        <ele>149.8</ele>
        <time>2026-03-29T11:57:55Z</time>
      </trkpt>
      <trkpt lat="48.57919" lon="1.88015">
        <ele>149.8</ele>
        <time>2026-03-29T11:57:56Z</time>
      </trkpt>
      <trkpt lat="48.5792" lon="1.88018">
        <ele>150.6</ele>
        <time>2026-03-29T11:57:57Z</time>
      </trkpt>
      <trkpt lat="48.5792" lon="1.88021">
        <ele>151.2</ele>
        <time>2026-03-29T11:57:58Z</time>
      </trkpt>
      <trkpt lat="48.57921" lon="1.88024">
        <ele>151.2</ele>
        <time>2026-03-29T11:57:59Z</time>
      </trkpt>
      <trkpt lat="48.57922" lon="1.88027">
        <ele>151.2</ele>
        <time>2026-03-29T11:58:00Z</time>
      </trkpt>
      <trkpt lat="48.57923" lon="1.88031">
        <ele>151.2</ele>
        <time>2026-03-29T11:58:01Z</time>
      </trkpt>
      <trkpt lat="48.57923" lon="1.88034">
        <ele>151.4</ele>
        <time>2026-03-29T11:58:02Z</time>
      </trkpt>
      <trkpt lat="48.57924" lon="1.88037">
        <ele>151.4</ele>
        <time>2026-03-29T11:58:03Z</time>
      </trkpt>
      <trkpt lat="48.57924" lon="1.8804">
        <ele>151.4</ele>
        <time>2026-03-29T11:58:04Z</time>
      </trkpt>
      <trkpt lat="48.57925" lon="1.88044">
        <ele>151.4</ele>
        <time>2026-03-29T11:58:05Z</time>
      </trkpt>
      <trkpt lat="48.57926" lon="1.88047">
        <ele>151.8</ele>
        <time>2026-03-29T11:58:06Z</time>
      </trkpt>
      <trkpt lat="48.57927" lon="1.8805">
        <ele>151.8</ele>
        <time>2026-03-29T11:58:07Z</time>
      </trkpt>
      <trkpt lat="48.57928" lon="1.88054">
        <ele>151.8</ele>
        <time>2026-03-29T11:58:08Z</time>
      </trkpt>
      <trkpt lat="48.57929" lon="1.88057">
        <ele>151.8</ele>
        <time>2026-03-29T11:58:09Z</time>
      </trkpt>
      <trkpt lat="48.57929" lon="1.88061">
        <ele>152</ele>
        <time>2026-03-29T11:58:10Z</time>
      </trkpt>
      <trkpt lat="48.5793" lon="1.88064">
        <ele>152</ele>
        <time>2026-03-29T11:58:11Z</time>
      </trkpt>
      <trkpt lat="48.5793" lon="1.88068">
        <ele>152</ele>
        <time>2026-03-29T11:58:12Z</time>
      </trkpt>
      <trkpt lat="48.57931" lon="1.88071">
        <ele>152.6</ele>
        <time>2026-03-29T11:58:13Z</time>
      </trkpt>
      <trkpt lat="48.57931" lon="1.88075">
        <ele>152.4</ele>
        <time>2026-03-29T11:58:14Z</time>
      </trkpt>
      <trkpt lat="48.57931" lon="1.88078">
        <ele>152.4</ele>
        <time>2026-03-29T11:58:15Z</time>
      </trkpt>
      <trkpt lat="48.57932" lon="1.88081">
        <ele>152.4</ele>
        <time>2026-03-29T11:58:16Z</time>
      </trkpt>
      <trkpt lat="48.57933" lon="1.88084">
        <ele>152.4</ele>
        <time>2026-03-29T11:58:17Z</time>
      </trkpt>
      <trkpt lat="48.57933" lon="1.88088">
        <ele>153</ele>
        <time>2026-03-29T11:58:18Z</time>
      </trkpt>
      <trkpt lat="48.57934" lon="1.88091">
        <ele>153</ele>
        <time>2026-03-29T11:58:19Z</time>
      </trkpt>
      <trkpt lat="48.57934" lon="1.88094">
        <ele>153</ele>
        <time>2026-03-29T11:58:20Z</time>
      </trkpt>
      <trkpt lat="48.57934" lon="1.88097">
        <ele>153.4</ele>
        <time>2026-03-29T11:58:21Z</time>
      </trkpt>
      <trkpt lat="48.57934" lon="1.88101">
        <ele>153.6</ele>
        <time>2026-03-29T11:58:22Z</time>
      </trkpt>
      <trkpt lat="48.57935" lon="1.88104">
        <ele>153.6</ele>
        <time>2026-03-29T11:58:23Z</time>
      </trkpt>
      <trkpt lat="48.57935" lon="1.88106">
        <ele>153.6</ele>
        <time>2026-03-29T11:58:24Z</time>
      </trkpt>
      <trkpt lat="48.57935" lon="1.88109">
        <ele>154</ele>
        <time>2026-03-29T11:58:25Z</time>
      </trkpt>
      <trkpt lat="48.57935" lon="1.88112">
        <ele>154.4</ele>
        <time>2026-03-29T11:58:26Z</time>
      </trkpt>
      <trkpt lat="48.57935" lon="1.88116">
        <ele>154.4</ele>
        <time>2026-03-29T11:58:27Z</time>
      </trkpt>
      <trkpt lat="48.57935" lon="1.88118">
        <ele>154.4</ele>
        <time>2026-03-29T11:58:28Z</time>
      </trkpt>
      <trkpt lat="48.57935" lon="1.88121">
        <ele>154.6</ele>
        <time>2026-03-29T11:58:29Z</time>
      </trkpt>
      <trkpt lat="48.57935" lon="1.88124">
        <ele>155</ele>
        <time>2026-03-29T11:58:30Z</time>
      </trkpt>
      <trkpt lat="48.57935" lon="1.88127">
        <ele>155</ele>
        <time>2026-03-29T11:58:31Z</time>
      </trkpt>
      <trkpt lat="48.57936" lon="1.88129">
        <ele>155</ele>
        <time>2026-03-29T11:58:32Z</time>
      </trkpt>
      <trkpt lat="48.57936" lon="1.88131">
        <ele>155.6</ele>
        <time>2026-03-29T11:58:33Z</time>
      </trkpt>
      <trkpt lat="48.57936" lon="1.88134">
        <ele>156.2</ele>
        <time>2026-03-29T11:58:34Z</time>
      </trkpt>
      <trkpt lat="48.57936" lon="1.88137">
        <ele>156.2</ele>
        <time>2026-03-29T11:58:35Z</time>
      </trkpt>
      <trkpt lat="48.57936" lon="1.8814">
        <ele>156.2</ele>
        <time>2026-03-29T11:58:36Z</time>
      </trkpt>
      <trkpt lat="48.57936" lon="1.88143">
        <ele>156.2</ele>
        <time>2026-03-29T11:58:37Z</time>
      </trkpt>
      <trkpt lat="48.57936" lon="1.88146">
        <ele>157</ele>
        <time>2026-03-29T11:58:38Z</time>
      </trkpt>
      <trkpt lat="48.57937" lon="1.88149">
        <ele>157</ele>
        <time>2026-03-29T11:58:39Z</time>
      </trkpt>
      <trkpt lat="48.57937" lon="1.88152">
        <ele>157</ele>
        <time>2026-03-29T11:58:40Z</time>
      </trkpt>
      <trkpt lat="48.57937" lon="1.88154">
        <ele>157</ele>
        <time>2026-03-29T11:58:41Z</time>
      </trkpt>
      <trkpt lat="48.57938" lon="1.88157">
        <ele>157.2</ele>
        <time>2026-03-29T11:58:42Z</time>
      </trkpt>
      <trkpt lat="48.57938" lon="1.8816">
        <ele>157.2</ele>
        <time>2026-03-29T11:58:43Z</time>
      </trkpt>
      <trkpt lat="48.57938" lon="1.88163">
        <ele>157.2</ele>
        <time>2026-03-29T11:58:44Z</time>
      </trkpt>
      <trkpt lat="48.57938" lon="1.88165">
        <ele>157.6</ele>
        <time>2026-03-29T11:58:45Z</time>
      </trkpt>
      <trkpt lat="48.57939" lon="1.88167">
        <ele>157.8</ele>
        <time>2026-03-29T11:58:46Z</time>
      </trkpt>
      <trkpt lat="48.57939" lon="1.8817">
        <ele>157.8</ele>
        <time>2026-03-29T11:58:47Z</time>
      </trkpt>
      <trkpt lat="48.57939" lon="1.88171">
        <ele>157.8</ele>
        <time>2026-03-29T11:58:48Z</time>
      </trkpt>
      <trkpt lat="48.57939" lon="1.88174">
        <ele>158.6</ele>
        <time>2026-03-29T11:58:49Z</time>
      </trkpt>
      <trkpt lat="48.5794" lon="1.88176">
        <ele>158.4</ele>
        <time>2026-03-29T11:58:50Z</time>
      </trkpt>
      <trkpt lat="48.5794" lon="1.88178">
        <ele>158.4</ele>
        <time>2026-03-29T11:58:51Z</time>
      </trkpt>
      <trkpt lat="48.5794" lon="1.8818">
        <ele>158.4</ele>
        <time>2026-03-29T11:58:52Z</time>
      </trkpt>
      <trkpt lat="48.5794" lon="1.88183">
        <ele>158.6</ele>
        <time>2026-03-29T11:58:53Z</time>
      </trkpt>
      <trkpt lat="48.57941" lon="1.88185">
        <ele>158.8</ele>
        <time>2026-03-29T11:58:54Z</time>
      </trkpt>
      <trkpt lat="48.57942" lon="1.88188">
        <ele>158.8</ele>
        <time>2026-03-29T11:58:55Z</time>
      </trkpt>
      <trkpt lat="48.57943" lon="1.88192">
        <ele>158.8</ele>
        <time>2026-03-29T11:58:56Z</time>
      </trkpt>
      <trkpt lat="48.57945" lon="1.88195">
        <ele>159.4</ele>
        <time>2026-03-29T11:58:57Z</time>
      </trkpt>
      <trkpt lat="48.57945" lon="1.88197">
        <ele>159.4</ele>
        <time>2026-03-29T11:58:58Z</time>
      </trkpt>
      <trkpt lat="48.57946" lon="1.88199">
        <ele>159.4</ele>
        <time>2026-03-29T11:58:59Z</time>
      </trkpt>
      <trkpt lat="48.57948" lon="1.88202">
        <ele>159.4</ele>
        <time>2026-03-29T11:59:00Z</time>
      </trkpt>
      <trkpt lat="48.57949" lon="1.88205">
        <ele>159.6</ele>
        <time>2026-03-29T11:59:01Z</time>
      </trkpt>
      <trkpt lat="48.5795" lon="1.88207">
        <ele>160</ele>
        <time>2026-03-29T11:59:02Z</time>
      </trkpt>
      <trkpt lat="48.57951" lon="1.88209">
        <ele>160</ele>
        <time>2026-03-29T11:59:03Z</time>
      </trkpt>
      <trkpt lat="48.57951" lon="1.88211">
        <ele>160</ele>
        <time>2026-03-29T11:59:04Z</time>
      </trkpt>
      <trkpt lat="48.57952" lon="1.88213">
        <ele>160</ele>
        <time>2026-03-29T11:59:05Z</time>
      </trkpt>
      <trkpt lat="48.57953" lon="1.88215">
        <ele>161</ele>
        <time>2026-03-29T11:59:06Z</time>
      </trkpt>
      <trkpt lat="48.57955" lon="1.88217">
        <ele>161</ele>
        <time>2026-03-29T11:59:07Z</time>
      </trkpt>
      <trkpt lat="48.57956" lon="1.8822">
        <ele>161</ele>
        <time>2026-03-29T11:59:08Z</time>
      </trkpt>
      <trkpt lat="48.57957" lon="1.88222">
        <ele>162</ele>
        <time>2026-03-29T11:59:09Z</time>
      </trkpt>
      <trkpt lat="48.57958" lon="1.88224">
        <ele>163</ele>
        <time>2026-03-29T11:59:10Z</time>
      </trkpt>
      <trkpt lat="48.57959" lon="1.88226">
        <ele>163</ele>
        <time>2026-03-29T11:59:11Z</time>
      </trkpt>
      <trkpt lat="48.5796" lon="1.88229">
        <ele>163</ele>
        <time>2026-03-29T11:59:12Z</time>
      </trkpt>
      <trkpt lat="48.57961" lon="1.88231">
        <ele>163.2</ele>
        <time>2026-03-29T11:59:13Z</time>
      </trkpt>
      <trkpt lat="48.57962" lon="1.88234">
        <ele>163.8</ele>
        <time>2026-03-29T11:59:14Z</time>
      </trkpt>
      <trkpt lat="48.57962" lon="1.88236">
        <ele>163.8</ele>
        <time>2026-03-29T11:59:15Z</time>
      </trkpt>
      <trkpt lat="48.57962" lon="1.88238">
        <ele>163.8</ele>
        <time>2026-03-29T11:59:16Z</time>
      </trkpt>
      <trkpt lat="48.57963" lon="1.88242">
        <ele>164.8</ele>
        <time>2026-03-29T11:59:17Z</time>
      </trkpt>
      <trkpt lat="48.57963" lon="1.88244">
        <ele>165</ele>
        <time>2026-03-29T11:59:18Z</time>
      </trkpt>
      <trkpt lat="48.57964" lon="1.88247">
        <ele>165</ele>
        <time>2026-03-29T11:59:19Z</time>
      </trkpt>
      <trkpt lat="48.57965" lon="1.88249">
        <ele>165</ele>
        <time>2026-03-29T11:59:20Z</time>
      </trkpt>
      <trkpt lat="48.57966" lon="1.88252">
        <ele>165.6</ele>
        <time>2026-03-29T11:59:21Z</time>
      </trkpt>
      <trkpt lat="48.57965" lon="1.88253">
        <ele>165.8</ele>
        <time>2026-03-29T11:59:22Z</time>
      </trkpt>
      <trkpt lat="48.57966" lon="1.88256">
        <ele>165.8</ele>
        <time>2026-03-29T11:59:23Z</time>
      </trkpt>
      <trkpt lat="48.57966" lon="1.88258">
        <ele>165.8</ele>
        <time>2026-03-29T11:59:24Z</time>
      </trkpt>
      <trkpt lat="48.57967" lon="1.88261">
        <ele>166.8</ele>
        <time>2026-03-29T11:59:25Z</time>
      </trkpt>
      <trkpt lat="48.57967" lon="1.88263">
        <ele>166.8</ele>
        <time>2026-03-29T11:59:26Z</time>
      </trkpt>
      <trkpt lat="48.57967" lon="1.88266">
        <ele>166.8</ele>
        <time>2026-03-29T11:59:27Z</time>
      </trkpt>
      <trkpt lat="48.57968" lon="1.88269">
        <ele>166.8</ele>
        <time>2026-03-29T11:59:28Z</time>
      </trkpt>
      <trkpt lat="48.57968" lon="1.88271">
        <ele>167.8</ele>
        <time>2026-03-29T11:59:29Z</time>
      </trkpt>
      <trkpt lat="48.57968" lon="1.88274">
        <ele>168</ele>
        <time>2026-03-29T11:59:30Z</time>
      </trkpt>
      <trkpt lat="48.5797" lon="1.88276">
        <ele>168</ele>
        <time>2026-03-29T11:59:31Z</time>
      </trkpt>
      <trkpt lat="48.5797" lon="1.88279">
        <ele>168</ele>
        <time>2026-03-29T11:59:32Z</time>
      </trkpt>
      <trkpt lat="48.5797" lon="1.88281">
        <ele>168</ele>
        <time>2026-03-29T11:59:33Z</time>
      </trkpt>
      <trkpt lat="48.57971" lon="1.88284">
        <ele>168.4</ele>
        <time>2026-03-29T11:59:34Z</time>
      </trkpt>
      <trkpt lat="48.57971" lon="1.88286">
        <ele>168.4</ele>
        <time>2026-03-29T11:59:35Z</time>
      </trkpt>
      <trkpt lat="48.57971" lon="1.88288">
        <ele>168.4</ele>
        <time>2026-03-29T11:59:36Z</time>
      </trkpt>
      <trkpt lat="48.57971" lon="1.88291">
        <ele>168.8</ele>
        <time>2026-03-29T11:59:37Z</time>
      </trkpt>
      <trkpt lat="48.57972" lon="1.88294">
        <ele>168.2</ele>
        <time>2026-03-29T11:59:38Z</time>
      </trkpt>
      <trkpt lat="48.57972" lon="1.88297">
        <ele>168.2</ele>
        <time>2026-03-29T11:59:39Z</time>
      </trkpt>
      <trkpt lat="48.57973" lon="1.883">
        <ele>168.2</ele>
        <time>2026-03-29T11:59:40Z</time>
      </trkpt>
      <trkpt lat="48.57974" lon="1.88302">
        <ele>169</ele>
        <time>2026-03-29T11:59:41Z</time>
      </trkpt>
      <trkpt lat="48.57974" lon="1.88305">
        <ele>169.2</ele>
        <time>2026-03-29T11:59:42Z</time>
      </trkpt>
      <trkpt lat="48.57975" lon="1.88308">
        <ele>169.2</ele>
        <time>2026-03-29T11:59:43Z</time>
      </trkpt>
      <trkpt lat="48.57976" lon="1.88312">
        <ele>169.2</ele>
        <time>2026-03-29T11:59:44Z</time>
      </trkpt>
      <trkpt lat="48.57977" lon="1.88316">
        <ele>169.2</ele>
        <time>2026-03-29T11:59:45Z</time>
      </trkpt>
      <trkpt lat="48.57978" lon="1.8832">
        <ele>169.6</ele>
        <time>2026-03-29T11:59:46Z</time>
      </trkpt>
      <trkpt lat="48.57979" lon="1.88324">
        <ele>169.6</ele>
        <time>2026-03-29T11:59:47Z</time>
      </trkpt>
      <trkpt lat="48.57979" lon="1.88327">
        <ele>169.6</ele>
        <time>2026-03-29T11:59:48Z</time>
      </trkpt>
      <trkpt lat="48.5798" lon="1.8833">
        <ele>169.6</ele>
        <time>2026-03-29T11:59:49Z</time>
      </trkpt>
      <trkpt lat="48.57981" lon="1.88333">
        <ele>169.8</ele>
        <time>2026-03-29T11:59:50Z</time>
      </trkpt>
      <trkpt lat="48.57981" lon="1.88336">
        <ele>169.8</ele>
        <time>2026-03-29T11:59:51Z</time>
      </trkpt>
      <trkpt lat="48.57981" lon="1.8834">
        <ele>169.8</ele>
        <time>2026-03-29T11:59:52Z</time>
      </trkpt>
      <trkpt lat="48.57982" lon="1.88344">
        <ele>169.6</ele>
        <time>2026-03-29T11:59:53Z</time>
      </trkpt>
      <trkpt lat="48.57982" lon="1.88346">
        <ele>169.6</ele>
        <time>2026-03-29T11:59:54Z</time>
      </trkpt>
      <trkpt lat="48.57983" lon="1.8835">
        <ele>169.6</ele>
        <time>2026-03-29T11:59:55Z</time>
      </trkpt>
      <trkpt lat="48.57984" lon="1.88353">
        <ele>169.6</ele>
        <time>2026-03-29T11:59:56Z</time>
      </trkpt>
      <trkpt lat="48.57985" lon="1.88357">
        <ele>170</ele>
        <time>2026-03-29T11:59:57Z</time>
      </trkpt>
      <trkpt lat="48.57986" lon="1.8836">
        <ele>170</ele>
        <time>2026-03-29T11:59:58Z</time>
      </trkpt>
      <trkpt lat="48.57986" lon="1.88364">
        <ele>170</ele>
        <time>2026-03-29T11:59:59Z</time>
      </trkpt>
      <trkpt lat="48.57986" lon="1.88367">
        <ele>170</ele>
        <time>2026-03-29T12:00:00Z</time>
      </trkpt>
      <trkpt lat="48.57987" lon="1.8837">
        <ele>170</ele>
        <time>2026-03-29T12:00:01Z</time>
      </trkpt>
      <trkpt lat="48.57988" lon="1.88374">
        <ele>170</ele>
        <time>2026-03-29T12:00:02Z</time>
      </trkpt>
      <trkpt lat="48.57989" lon="1.88378">
        <ele>170</ele>
        <time>2026-03-29T12:00:03Z</time>
      </trkpt>
      <trkpt lat="48.57989" lon="1.88382">
        <ele>170</ele>
        <time>2026-03-29T12:00:04Z</time>
      </trkpt>
      <trkpt lat="48.5799" lon="1.88386">
        <ele>170</ele>
        <time>2026-03-29T12:00:05Z</time>
      </trkpt>
      <trkpt lat="48.57991" lon="1.88391">
        <ele>170.8</ele>
        <time>2026-03-29T12:00:06Z</time>
      </trkpt>
      <trkpt lat="48.57993" lon="1.88396">
        <ele>170.8</ele>
        <time>2026-03-29T12:00:07Z</time>
      </trkpt>
      <trkpt lat="48.57993" lon="1.88399">
        <ele>170.8</ele>
        <time>2026-03-29T12:00:08Z</time>
      </trkpt>
      <trkpt lat="48.57995" lon="1.88403">
        <ele>170</ele>
        <time>2026-03-29T12:00:09Z</time>
      </trkpt>
      <trkpt lat="48.57995" lon="1.88408">
        <ele>170.6</ele>
        <time>2026-03-29T12:00:10Z</time>
      </trkpt>
      <trkpt lat="48.57996" lon="1.88413">
        <ele>170.6</ele>
        <time>2026-03-29T12:00:11Z</time>
      </trkpt>
      <trkpt lat="48.57997" lon="1.88417">
        <ele>170.6</ele>
        <time>2026-03-29T12:00:12Z</time>
      </trkpt>
      <trkpt lat="48.57997" lon="1.88421">
        <ele>170.6</ele>
        <time>2026-03-29T12:00:13Z</time>
      </trkpt>
      <trkpt lat="48.57998" lon="1.88426">
        <ele>170.8</ele>
        <time>2026-03-29T12:00:14Z</time>
      </trkpt>
      <trkpt lat="48.57999" lon="1.88432">
        <ele>170.8</ele>
        <time>2026-03-29T12:00:15Z</time>
      </trkpt>
      <trkpt lat="48.57999" lon="1.88438">
        <ele>170.8</ele>
        <time>2026-03-29T12:00:16Z</time>
      </trkpt>
      <trkpt lat="48.58" lon="1.88443">
        <ele>170.8</ele>
        <time>2026-03-29T12:00:17Z</time>
      </trkpt>
      <trkpt lat="48.58001" lon="1.88448">
        <ele>171.6</ele>
        <time>2026-03-29T12:00:18Z</time>
      </trkpt>
      <trkpt lat="48.58003" lon="1.88454">
        <ele>171.6</ele>
        <time>2026-03-29T12:00:19Z</time>
      </trkpt>
      <trkpt lat="48.58004" lon="1.88459">
        <ele>171.6</ele>
        <time>2026-03-29T12:00:20Z</time>
      </trkpt>
      <trkpt lat="48.58005" lon="1.88463">
        <ele>171.2</ele>
        <time>2026-03-29T12:00:21Z</time>
      </trkpt>
      <trkpt lat="48.58006" lon="1.88467">
        <ele>171.4</ele>
        <time>2026-03-29T12:00:22Z</time>
      </trkpt>
      <trkpt lat="48.58007" lon="1.88473">
        <ele>171.4</ele>
        <time>2026-03-29T12:00:23Z</time>
      </trkpt>
      <trkpt lat="48.58008" lon="1.88477">
        <ele>171.4</ele>
        <time>2026-03-29T12:00:24Z</time>
      </trkpt>
      <trkpt lat="48.58009" lon="1.88481">
        <ele>171.2</ele>
        <time>2026-03-29T12:00:25Z</time>
      </trkpt>
      <trkpt lat="48.58011" lon="1.88487">
        <ele>171.2</ele>
        <time>2026-03-29T12:00:26Z</time>
      </trkpt>
      <trkpt lat="48.58013" lon="1.88493">
        <ele>171.2</ele>
        <time>2026-03-29T12:00:27Z</time>
      </trkpt>
      <trkpt lat="48.58014" lon="1.88498">
        <ele>171.2</ele>
        <time>2026-03-29T12:00:28Z</time>
      </trkpt>
      <trkpt lat="48.58015" lon="1.88503">
        <ele>171.6</ele>
        <time>2026-03-29T12:00:29Z</time>
      </trkpt>
      <trkpt lat="48.58015" lon="1.88508">
        <ele>171.6</ele>
        <time>2026-03-29T12:00:30Z</time>
      </trkpt>
      <trkpt lat="48.58017" lon="1.88513">
        <ele>171.6</ele>
        <time>2026-03-29T12:00:31Z</time>
      </trkpt>
      <trkpt lat="48.58018" lon="1.88519">
        <ele>171.6</ele>
        <time>2026-03-29T12:00:32Z</time>
      </trkpt>
      <trkpt lat="48.58018" lon="1.88522">
        <ele>171.6</ele>
        <time>2026-03-29T12:00:33Z</time>
      </trkpt>
      <trkpt lat="48.58018" lon="1.88527">
        <ele>171.6</ele>
        <time>2026-03-29T12:00:34Z</time>
      </trkpt>
      <trkpt lat="48.58019" lon="1.88531">
        <ele>171.6</ele>
        <time>2026-03-29T12:00:35Z</time>
      </trkpt>
      <trkpt lat="48.58022" lon="1.88535">
        <ele>171.6</ele>
        <time>2026-03-29T12:00:36Z</time>
      </trkpt>
      <trkpt lat="48.58024" lon="1.88537">
        <ele>171.6</ele>
        <time>2026-03-29T12:00:37Z</time>
      </trkpt>
      <trkpt lat="48.58028" lon="1.88536">
        <ele>171.2</ele>
        <time>2026-03-29T12:00:38Z</time>
      </trkpt>
      <trkpt lat="48.58031" lon="1.88535">
        <ele>171.2</ele>
        <time>2026-03-29T12:00:39Z</time>
      </trkpt>
      <trkpt lat="48.58035" lon="1.88533">
        <ele>171.2</ele>
        <time>2026-03-29T12:00:40Z</time>
      </trkpt>
      <trkpt lat="48.5804" lon="1.88532">
        <ele>171</ele>
        <time>2026-03-29T12:00:41Z</time>
      </trkpt>
      <trkpt lat="48.58044" lon="1.88529">
        <ele>171.2</ele>
        <time>2026-03-29T12:00:42Z</time>
      </trkpt>
      <trkpt lat="48.58048" lon="1.88527">
        <ele>171.2</ele>
        <time>2026-03-29T12:00:43Z</time>
      </trkpt>
      <trkpt lat="48.58053" lon="1.88524">
        <ele>171.2</ele>
        <time>2026-03-29T12:00:44Z</time>
      </trkpt>
      <trkpt lat="48.58057" lon="1.88522">
        <ele>171</ele>
        <time>2026-03-29T12:00:45Z</time>
      </trkpt>
      <trkpt lat="48.58062" lon="1.88518">
        <ele>171</ele>
        <time>2026-03-29T12:00:46Z</time>
      </trkpt>
      <trkpt lat="48.58066" lon="1.88515">
        <ele>171</ele>
        <time>2026-03-29T12:00:47Z</time>
      </trkpt>
      <trkpt lat="48.58071" lon="1.88512">
        <ele>171</ele>
        <time>2026-03-29T12:00:48Z</time>
      </trkpt>
      <trkpt lat="48.58075" lon="1.88508">
        <ele>171</ele>
        <time>2026-03-29T12:00:49Z</time>
      </trkpt>
      <trkpt lat="48.5808" lon="1.88505">
        <ele>170.8</ele>
        <time>2026-03-29T12:00:50Z</time>
      </trkpt>
      <trkpt lat="48.58085" lon="1.88501">
        <ele>170.8</ele>
        <time>2026-03-29T12:00:51Z</time>
      </trkpt>
      <trkpt lat="48.58089" lon="1.88497">
        <ele>170.8</ele>
        <time>2026-03-29T12:00:52Z</time>
      </trkpt>
      <trkpt lat="48.58094" lon="1.88493">
        <ele>171.6</ele>
        <time>2026-03-29T12:00:53Z</time>
      </trkpt>
      <trkpt lat="48.58098" lon="1.88489">
        <ele>171.2</ele>
        <time>2026-03-29T12:00:54Z</time>
      </trkpt>
      <trkpt lat="48.58103" lon="1.88486">
        <ele>171.2</ele>
        <time>2026-03-29T12:00:55Z</time>
      </trkpt>
      <trkpt lat="48.58107" lon="1.88482">
        <ele>171.2</ele>
        <time>2026-03-29T12:00:56Z</time>
      </trkpt>
      <trkpt lat="48.58112" lon="1.88479">
        <ele>171.2</ele>
        <time>2026-03-29T12:00:57Z</time>
      </trkpt>
      <trkpt lat="48.58117" lon="1.88475">
        <ele>171</ele>
        <time>2026-03-29T12:00:58Z</time>
      </trkpt>
      <trkpt lat="48.58121" lon="1.88471">
        <ele>171</ele>
        <time>2026-03-29T12:00:59Z</time>
      </trkpt>
      <trkpt lat="48.58126" lon="1.88467">
        <ele>171</ele>
        <time>2026-03-29T12:01:00Z</time>
      </trkpt>
      <trkpt lat="48.58131" lon="1.88464">
        <ele>171</ele>
        <time>2026-03-29T12:01:01Z</time>
      </trkpt>
      <trkpt lat="48.58135" lon="1.8846">
        <ele>171.6</ele>
        <time>2026-03-29T12:01:02Z</time>
      </trkpt>
      <trkpt lat="48.5814" lon="1.88458">
        <ele>171.6</ele>
        <time>2026-03-29T12:01:03Z</time>
      </trkpt>
      <trkpt lat="48.58145" lon="1.88455">
        <ele>171.6</ele>
        <time>2026-03-29T12:01:04Z</time>
      </trkpt>
      <trkpt lat="48.5815" lon="1.88453">
        <ele>171.6</ele>
        <time>2026-03-29T12:01:05Z</time>
      </trkpt>
      <trkpt lat="48.58155" lon="1.88452">
        <ele>171.2</ele>
        <time>2026-03-29T12:01:06Z</time>
      </trkpt>
      <trkpt lat="48.5816" lon="1.8845">
        <ele>171.2</ele>
        <time>2026-03-29T12:01:07Z</time>
      </trkpt>
      <trkpt lat="48.58166" lon="1.8845">
        <ele>171.2</ele>
        <time>2026-03-29T12:01:08Z</time>
      </trkpt>
      <trkpt lat="48.58171" lon="1.88449">
        <ele>171.2</ele>
        <time>2026-03-29T12:01:09Z</time>
      </trkpt>
      <trkpt lat="48.58177" lon="1.88449">
        <ele>171.6</ele>
        <time>2026-03-29T12:01:10Z</time>
      </trkpt>
      <trkpt lat="48.58182" lon="1.8845">
        <ele>171.6</ele>
        <time>2026-03-29T12:01:11Z</time>
      </trkpt>
      <trkpt lat="48.58188" lon="1.8845">
        <ele>171.6</ele>
        <time>2026-03-29T12:01:12Z</time>
      </trkpt>
      <trkpt lat="48.58194" lon="1.88451">
        <ele>171.6</ele>
        <time>2026-03-29T12:01:13Z</time>
      </trkpt>
      <trkpt lat="48.58199" lon="1.88452">
        <ele>171.4</ele>
        <time>2026-03-29T12:01:14Z</time>
      </trkpt>
      <trkpt lat="48.58205" lon="1.88453">
        <ele>171.4</ele>
        <time>2026-03-29T12:01:15Z</time>
      </trkpt>
      <trkpt lat="48.5821" lon="1.88454">
        <ele>171.4</ele>
        <time>2026-03-29T12:01:16Z</time>
      </trkpt>
      <trkpt lat="48.58216" lon="1.88455">
        <ele>171.6</ele>
        <time>2026-03-29T12:01:17Z</time>
      </trkpt>
      <trkpt lat="48.58222" lon="1.88457">
        <ele>171.6</ele>
        <time>2026-03-29T12:01:18Z</time>
      </trkpt>
      <trkpt lat="48.58228" lon="1.88458">
        <ele>171.6</ele>
        <time>2026-03-29T12:01:19Z</time>
      </trkpt>
      <trkpt lat="48.58233" lon="1.88459">
        <ele>171.6</ele>
        <time>2026-03-29T12:01:20Z</time>
      </trkpt>
      <trkpt lat="48.58239" lon="1.88461">
        <ele>171.2</ele>
        <time>2026-03-29T12:01:21Z</time>
      </trkpt>
      <trkpt lat="48.58245" lon="1.88462">
        <ele>171.2</ele>
        <time>2026-03-29T12:01:22Z</time>
      </trkpt>
      <trkpt lat="48.58251" lon="1.88464">
        <ele>171.2</ele>
        <time>2026-03-29T12:01:23Z</time>
      </trkpt>
      <trkpt lat="48.58256" lon="1.88465">
        <ele>171.2</ele>
        <time>2026-03-29T12:01:24Z</time>
      </trkpt>
      <trkpt lat="48.58262" lon="1.88467">
        <ele>171.2</ele>
        <time>2026-03-29T12:01:25Z</time>
      </trkpt>
      <trkpt lat="48.58267" lon="1.88469">
        <ele>171.2</ele>
        <time>2026-03-29T12:01:26Z</time>
      </trkpt>
      <trkpt lat="48.58272" lon="1.88469">
        <ele>171.2</ele>
        <time>2026-03-29T12:01:27Z</time>
      </trkpt>
      <trkpt lat="48.58277" lon="1.8847">
        <ele>171.2</ele>
        <time>2026-03-29T12:01:28Z</time>
      </trkpt>
      <trkpt lat="48.58282" lon="1.88469">
        <ele>171.2</ele>
        <time>2026-03-29T12:01:29Z</time>
      </trkpt>
      <trkpt lat="48.58287" lon="1.88466">
        <ele>172</ele>
        <time>2026-03-29T12:01:30Z</time>
      </trkpt>
      <trkpt lat="48.58291" lon="1.88461">
        <ele>172</ele>
        <time>2026-03-29T12:01:31Z</time>
      </trkpt>
      <trkpt lat="48.58295" lon="1.88456">
        <ele>172</ele>
        <time>2026-03-29T12:01:32Z</time>
      </trkpt>
      <trkpt lat="48.58299" lon="1.88451">
        <ele>171</ele>
        <time>2026-03-29T12:01:33Z</time>
      </trkpt>
      <trkpt lat="48.58303" lon="1.88446">
        <ele>171.8</ele>
        <time>2026-03-29T12:01:34Z</time>
      </trkpt>
      <trkpt lat="48.58307" lon="1.8844">
        <ele>171.8</ele>
        <time>2026-03-29T12:01:35Z</time>
      </trkpt>
      <trkpt lat="48.58311" lon="1.88435">
        <ele>171.8</ele>
        <time>2026-03-29T12:01:36Z</time>
      </trkpt>
      <trkpt lat="48.58315" lon="1.88429">
        <ele>171.8</ele>
        <time>2026-03-29T12:01:37Z</time>
      </trkpt>
      <trkpt lat="48.58319" lon="1.88424">
        <ele>171.6</ele>
        <time>2026-03-29T12:01:38Z</time>
      </trkpt>
      <trkpt lat="48.58323" lon="1.88418">
        <ele>171.6</ele>
        <time>2026-03-29T12:01:39Z</time>
      </trkpt>
      <trkpt lat="48.58326" lon="1.88414">
        <ele>171.6</ele>
        <time>2026-03-29T12:01:40Z</time>
      </trkpt>
      <trkpt lat="48.5833" lon="1.88409">
        <ele>171.6</ele>
        <time>2026-03-29T12:01:41Z</time>
      </trkpt>
      <trkpt lat="48.58334" lon="1.88403">
        <ele>170.8</ele>
        <time>2026-03-29T12:01:42Z</time>
      </trkpt>
      <trkpt lat="48.58338" lon="1.88398">
        <ele>170.8</ele>
        <time>2026-03-29T12:01:43Z</time>
      </trkpt>
      <trkpt lat="48.58342" lon="1.88393">
        <ele>170.8</ele>
        <time>2026-03-29T12:01:44Z</time>
      </trkpt>
      <trkpt lat="48.58346" lon="1.88387">
        <ele>170.4</ele>
        <time>2026-03-29T12:01:45Z</time>
      </trkpt>
      <trkpt lat="48.58349" lon="1.88382">
        <ele>170.4</ele>
        <time>2026-03-29T12:01:46Z</time>
      </trkpt>
      <trkpt lat="48.58353" lon="1.88376">
        <ele>170.4</ele>
        <time>2026-03-29T12:01:47Z</time>
      </trkpt>
      <trkpt lat="48.58357" lon="1.88371">
        <ele>170.4</ele>
        <time>2026-03-29T12:01:48Z</time>
      </trkpt>
      <trkpt lat="48.58362" lon="1.88366">
        <ele>170</ele>
        <time>2026-03-29T12:01:49Z</time>
      </trkpt>
      <trkpt lat="48.58367" lon="1.8836">
        <ele>169.6</ele>
        <time>2026-03-29T12:01:50Z</time>
      </trkpt>
      <trkpt lat="48.58371" lon="1.88354">
        <ele>169.6</ele>
        <time>2026-03-29T12:01:51Z</time>
      </trkpt>
      <trkpt lat="48.58377" lon="1.88348">
        <ele>169.6</ele>
        <time>2026-03-29T12:01:52Z</time>
      </trkpt>
      <trkpt lat="48.58382" lon="1.88342">
        <ele>169.6</ele>
        <time>2026-03-29T12:01:53Z</time>
      </trkpt>
      <trkpt lat="48.58387" lon="1.88336">
        <ele>168.8</ele>
        <time>2026-03-29T12:01:54Z</time>
      </trkpt>
      <trkpt lat="48.58392" lon="1.8833">
        <ele>168.8</ele>
        <time>2026-03-29T12:01:55Z</time>
      </trkpt>
      <trkpt lat="48.58398" lon="1.88325">
        <ele>168.8</ele>
        <time>2026-03-29T12:01:56Z</time>
      </trkpt>
      <trkpt lat="48.58403" lon="1.88319">
        <ele>168.8</ele>
        <time>2026-03-29T12:01:57Z</time>
      </trkpt>
      <trkpt lat="48.58408" lon="1.88313">
        <ele>168.6</ele>
        <time>2026-03-29T12:01:58Z</time>
      </trkpt>
      <trkpt lat="48.58413" lon="1.88307">
        <ele>168.6</ele>
        <time>2026-03-29T12:01:59Z</time>
      </trkpt>
      <trkpt lat="48.58418" lon="1.88301">
        <ele>168.6</ele>
        <time>2026-03-29T12:02:00Z</time>
      </trkpt>
      <trkpt lat="48.58424" lon="1.88295">
        <ele>168.6</ele>
        <time>2026-03-29T12:02:01Z</time>
      </trkpt>
      <trkpt lat="48.58429" lon="1.88289">
        <ele>167.4</ele>
        <time>2026-03-29T12:02:02Z</time>
      </trkpt>
      <trkpt lat="48.58434" lon="1.88283">
        <ele>167.4</ele>
        <time>2026-03-29T12:02:03Z</time>
      </trkpt>
      <trkpt lat="48.58439" lon="1.88277">
        <ele>167.4</ele>
        <time>2026-03-29T12:02:04Z</time>
      </trkpt>
      <trkpt lat="48.58444" lon="1.88271">
        <ele>167.4</ele>
        <time>2026-03-29T12:02:05Z</time>
      </trkpt>
      <trkpt lat="48.58449" lon="1.88265">
        <ele>166.8</ele>
        <time>2026-03-29T12:02:06Z</time>
      </trkpt>
      <trkpt lat="48.58454" lon="1.88259">
        <ele>166.8</ele>
        <time>2026-03-29T12:02:07Z</time>
      </trkpt>
      <trkpt lat="48.58459" lon="1.88253">
        <ele>166.8</ele>
        <time>2026-03-29T12:02:08Z</time>
      </trkpt>
      <trkpt lat="48.58465" lon="1.88247">
        <ele>166.8</ele>
        <time>2026-03-29T12:02:09Z</time>
      </trkpt>
      <trkpt lat="48.5847" lon="1.88241">
        <ele>165.4</ele>
        <time>2026-03-29T12:02:10Z</time>
      </trkpt>
      <trkpt lat="48.58475" lon="1.88236">
        <ele>165.4</ele>
        <time>2026-03-29T12:02:11Z</time>
      </trkpt>
      <trkpt lat="48.5848" lon="1.88231">
        <ele>165.4</ele>
        <time>2026-03-29T12:02:12Z</time>
      </trkpt>
      <trkpt lat="48.58485" lon="1.88229">
        <ele>165.4</ele>
        <time>2026-03-29T12:02:13Z</time>
      </trkpt>
      <trkpt lat="48.5849" lon="1.88232">
        <ele>164.4</ele>
        <time>2026-03-29T12:02:14Z</time>
      </trkpt>
      <trkpt lat="48.58493" lon="1.88237">
        <ele>164.4</ele>
        <time>2026-03-29T12:02:15Z</time>
      </trkpt>
      <trkpt lat="48.58498" lon="1.88244">
        <ele>164.4</ele>
        <time>2026-03-29T12:02:16Z</time>
      </trkpt>
      <trkpt lat="48.58502" lon="1.8825">
        <ele>164.4</ele>
        <time>2026-03-29T12:02:17Z</time>
      </trkpt>
      <trkpt lat="48.58506" lon="1.88258">
        <ele>163.2</ele>
        <time>2026-03-29T12:02:18Z</time>
      </trkpt>
      <trkpt lat="48.5851" lon="1.88265">
        <ele>163.2</ele>
        <time>2026-03-29T12:02:19Z</time>
      </trkpt>
      <trkpt lat="48.58514" lon="1.88272">
        <ele>163.2</ele>
        <time>2026-03-29T12:02:20Z</time>
      </trkpt>
      <trkpt lat="48.58519" lon="1.8828">
        <ele>163.2</ele>
        <time>2026-03-29T12:02:21Z</time>
      </trkpt>
      <trkpt lat="48.58523" lon="1.88287">
        <ele>163.4</ele>
        <time>2026-03-29T12:02:22Z</time>
      </trkpt>
      <trkpt lat="48.58528" lon="1.88295">
        <ele>163.4</ele>
        <time>2026-03-29T12:02:23Z</time>
      </trkpt>
      <trkpt lat="48.58532" lon="1.88302">
        <ele>163.4</ele>
        <time>2026-03-29T12:02:24Z</time>
      </trkpt>
      <trkpt lat="48.58537" lon="1.8831">
        <ele>163.4</ele>
        <time>2026-03-29T12:02:25Z</time>
      </trkpt>
      <trkpt lat="48.58541" lon="1.88317">
        <ele>162.2</ele>
        <time>2026-03-29T12:02:26Z</time>
      </trkpt>
      <trkpt lat="48.58545" lon="1.88325">
        <ele>162.2</ele>
        <time>2026-03-29T12:02:27Z</time>
      </trkpt>
      <trkpt lat="48.58548" lon="1.88332">
        <ele>162.2</ele>
        <time>2026-03-29T12:02:28Z</time>
      </trkpt>
      <trkpt lat="48.58552" lon="1.88339">
        <ele>162.2</ele>
        <time>2026-03-29T12:02:29Z</time>
      </trkpt>
      <trkpt lat="48.58556" lon="1.88347">
        <ele>161.2</ele>
        <time>2026-03-29T12:02:30Z</time>
      </trkpt>
      <trkpt lat="48.5856" lon="1.88354">
        <ele>161.2</ele>
        <time>2026-03-29T12:02:31Z</time>
      </trkpt>
      <trkpt lat="48.58564" lon="1.88362">
        <ele>161.2</ele>
        <time>2026-03-29T12:02:32Z</time>
      </trkpt>
      <trkpt lat="48.58568" lon="1.88368">
        <ele>161.2</ele>
        <time>2026-03-29T12:02:33Z</time>
      </trkpt>
      <trkpt lat="48.58572" lon="1.88373">
        <ele>161.2</ele>
        <time>2026-03-29T12:02:34Z</time>
      </trkpt>
      <trkpt lat="48.58576" lon="1.88373">
        <ele>161.2</ele>
        <time>2026-03-29T12:02:35Z</time>
      </trkpt>
      <trkpt lat="48.58581" lon="1.88371">
        <ele>161.2</ele>
        <time>2026-03-29T12:02:36Z</time>
      </trkpt>
      <trkpt lat="48.58585" lon="1.88366">
        <ele>160.2</ele>
        <time>2026-03-29T12:02:37Z</time>
      </trkpt>
      <trkpt lat="48.58589" lon="1.8836">
        <ele>159.8</ele>
        <time>2026-03-29T12:02:38Z</time>
      </trkpt>
      <trkpt lat="48.58594" lon="1.88354">
        <ele>159.8</ele>
        <time>2026-03-29T12:02:39Z</time>
      </trkpt>
      <trkpt lat="48.58599" lon="1.88347">
        <ele>159.8</ele>
        <time>2026-03-29T12:02:40Z</time>
      </trkpt>
      <trkpt lat="48.58604" lon="1.88339">
        <ele>158.8</ele>
        <time>2026-03-29T12:02:41Z</time>
      </trkpt>
      <trkpt lat="48.5861" lon="1.88331">
        <ele>158.2</ele>
        <time>2026-03-29T12:02:42Z</time>
      </trkpt>
      <trkpt lat="48.58616" lon="1.88323">
        <ele>158.2</ele>
        <time>2026-03-29T12:02:43Z</time>
      </trkpt>
      <trkpt lat="48.58622" lon="1.88315">
        <ele>158.2</ele>
        <time>2026-03-29T12:02:44Z</time>
      </trkpt>
      <trkpt lat="48.58629" lon="1.88307">
        <ele>158.2</ele>
        <time>2026-03-29T12:02:45Z</time>
      </trkpt>
      <trkpt lat="48.58635" lon="1.883">
        <ele>156.8</ele>
        <time>2026-03-29T12:02:46Z</time>
      </trkpt>
      <trkpt lat="48.58642" lon="1.88292">
        <ele>156.8</ele>
        <time>2026-03-29T12:02:47Z</time>
      </trkpt>
      <trkpt lat="48.58649" lon="1.88284">
        <ele>156.8</ele>
        <time>2026-03-29T12:02:48Z</time>
      </trkpt>
      <trkpt lat="48.58656" lon="1.88276">
        <ele>155.8</ele>
        <time>2026-03-29T12:02:49Z</time>
      </trkpt>
      <trkpt lat="48.58663" lon="1.88268">
        <ele>156.2</ele>
        <time>2026-03-29T12:02:50Z</time>
      </trkpt>
      <trkpt lat="48.58669" lon="1.88259">
        <ele>156.2</ele>
        <time>2026-03-29T12:02:51Z</time>
      </trkpt>
      <trkpt lat="48.58676" lon="1.88251">
        <ele>156.2</ele>
        <time>2026-03-29T12:02:52Z</time>
      </trkpt>
      <trkpt lat="48.58683" lon="1.88242">
        <ele>155.4</ele>
        <time>2026-03-29T12:02:53Z</time>
      </trkpt>
      <trkpt lat="48.5869" lon="1.88235">
        <ele>154.8</ele>
        <time>2026-03-29T12:02:54Z</time>
      </trkpt>
      <trkpt lat="48.58697" lon="1.88227">
        <ele>154.8</ele>
        <time>2026-03-29T12:02:55Z</time>
      </trkpt>
      <trkpt lat="48.58703" lon="1.88219">
        <ele>154.8</ele>
        <time>2026-03-29T12:02:56Z</time>
      </trkpt>
      <trkpt lat="48.5871" lon="1.88211">
        <ele>154.8</ele>
        <time>2026-03-29T12:02:57Z</time>
      </trkpt>
      <trkpt lat="48.58716" lon="1.88204">
        <ele>154.4</ele>
        <time>2026-03-29T12:02:58Z</time>
      </trkpt>
      <trkpt lat="48.58723" lon="1.88197">
        <ele>154.4</ele>
        <time>2026-03-29T12:02:59Z</time>
      </trkpt>
      <trkpt lat="48.58729" lon="1.8819">
        <ele>154.4</ele>
        <time>2026-03-29T12:03:00Z</time>
      </trkpt>
      <trkpt lat="48.58734" lon="1.88183">
        <ele>155.4</ele>
        <time>2026-03-29T12:03:01Z</time>
      </trkpt>
      <trkpt lat="48.5874" lon="1.88176">
        <ele>155.2</ele>
        <time>2026-03-29T12:03:02Z</time>
      </trkpt>
      <trkpt lat="48.58745" lon="1.8817">
        <ele>155.2</ele>
        <time>2026-03-29T12:03:03Z</time>
      </trkpt>
      <trkpt lat="48.58751" lon="1.88164">
        <ele>155.2</ele>
        <time>2026-03-29T12:03:04Z</time>
      </trkpt>
      <trkpt lat="48.58756" lon="1.88158">
        <ele>155.6</ele>
        <time>2026-03-29T12:03:05Z</time>
      </trkpt>
      <trkpt lat="48.5876" lon="1.88152">
        <ele>156</ele>
        <time>2026-03-29T12:03:06Z</time>
      </trkpt>
      <trkpt lat="48.58765" lon="1.88146">
        <ele>156</ele>
        <time>2026-03-29T12:03:07Z</time>
      </trkpt>
      <trkpt lat="48.58769" lon="1.88141">
        <ele>156</ele>
        <time>2026-03-29T12:03:08Z</time>
      </trkpt>
      <trkpt lat="48.58773" lon="1.88136">
        <ele>156</ele>
        <time>2026-03-29T12:03:09Z</time>
      </trkpt>
      <trkpt lat="48.58777" lon="1.88131">
        <ele>156.6</ele>
        <time>2026-03-29T12:03:10Z</time>
      </trkpt>
      <trkpt lat="48.58781" lon="1.88126">
        <ele>156.6</ele>
        <time>2026-03-29T12:03:11Z</time>
      </trkpt>
      <trkpt lat="48.58785" lon="1.88121">
        <ele>156.6</ele>
        <time>2026-03-29T12:03:12Z</time>
      </trkpt>
      <trkpt lat="48.58788" lon="1.88117">
        <ele>156.6</ele>
        <time>2026-03-29T12:03:13Z</time>
      </trkpt>
      <trkpt lat="48.58791" lon="1.88113">
        <ele>157</ele>
        <time>2026-03-29T12:03:14Z</time>
      </trkpt>
      <trkpt lat="48.58794" lon="1.88107">
        <ele>157</ele>
        <time>2026-03-29T12:03:15Z</time>
      </trkpt>
      <trkpt lat="48.58798" lon="1.88103">
        <ele>157</ele>
        <time>2026-03-29T12:03:16Z</time>
      </trkpt>
      <trkpt lat="48.58801" lon="1.88098">
        <ele>157</ele>
        <time>2026-03-29T12:03:17Z</time>
      </trkpt>
      <trkpt lat="48.58805" lon="1.88093">
        <ele>157.6</ele>
        <time>2026-03-29T12:03:18Z</time>
      </trkpt>
      <trkpt lat="48.58808" lon="1.88088">
        <ele>157.6</ele>
        <time>2026-03-29T12:03:19Z</time>
      </trkpt>
      <trkpt lat="48.58811" lon="1.88081">
        <ele>157.6</ele>
        <time>2026-03-29T12:03:20Z</time>
      </trkpt>
      <trkpt lat="48.58813" lon="1.88076">
        <ele>158.6</ele>
        <time>2026-03-29T12:03:21Z</time>
      </trkpt>
      <trkpt lat="48.58817" lon="1.8807">
        <ele>159.8</ele>
        <time>2026-03-29T12:03:22Z</time>
      </trkpt>
      <trkpt lat="48.5882" lon="1.88065">
        <ele>159.8</ele>
        <time>2026-03-29T12:03:23Z</time>
      </trkpt>
      <trkpt lat="48.58823" lon="1.8806">
        <ele>159.8</ele>
        <time>2026-03-29T12:03:24Z</time>
      </trkpt>
      <trkpt lat="48.58825" lon="1.88057">
        <ele>159.8</ele>
        <time>2026-03-29T12:03:25Z</time>
      </trkpt>
      <trkpt lat="48.58828" lon="1.88052">
        <ele>160.8</ele>
        <time>2026-03-29T12:03:26Z</time>
      </trkpt>
      <trkpt lat="48.58831" lon="1.88048">
        <ele>160.8</ele>
        <time>2026-03-29T12:03:27Z</time>
      </trkpt>
      <trkpt lat="48.58832" lon="1.88044">
        <ele>160.8</ele>
        <time>2026-03-29T12:03:28Z</time>
      </trkpt>
      <trkpt lat="48.58835" lon="1.88041">
        <ele>160.8</ele>
        <time>2026-03-29T12:03:29Z</time>
      </trkpt>
      <trkpt lat="48.58837" lon="1.88038">
        <ele>161.6</ele>
        <time>2026-03-29T12:03:30Z</time>
      </trkpt>
      <trkpt lat="48.58839" lon="1.88033">
        <ele>161.6</ele>
        <time>2026-03-29T12:03:31Z</time>
      </trkpt>
      <trkpt lat="48.58841" lon="1.8803">
        <ele>161.6</ele>
        <time>2026-03-29T12:03:32Z</time>
      </trkpt>
      <trkpt lat="48.58843" lon="1.88027">
        <ele>162.4</ele>
        <time>2026-03-29T12:03:33Z</time>
      </trkpt>
      <trkpt lat="48.58844" lon="1.88023">
        <ele>162.6</ele>
        <time>2026-03-29T12:03:34Z</time>
      </trkpt>
      <trkpt lat="48.58846" lon="1.88019">
        <ele>162.6</ele>
        <time>2026-03-29T12:03:35Z</time>
      </trkpt>
      <trkpt lat="48.58848" lon="1.88016">
        <ele>162.6</ele>
        <time>2026-03-29T12:03:36Z</time>
      </trkpt>
      <trkpt lat="48.5885" lon="1.88013">
        <ele>163.4</ele>
        <time>2026-03-29T12:03:37Z</time>
      </trkpt>
      <trkpt lat="48.58852" lon="1.8801">
        <ele>163.6</ele>
        <time>2026-03-29T12:03:38Z</time>
      </trkpt>
      <trkpt lat="48.58854" lon="1.88007">
        <ele>163.6</ele>
        <time>2026-03-29T12:03:39Z</time>
      </trkpt>
      <trkpt lat="48.58856" lon="1.88003">
        <ele>163.6</ele>
        <time>2026-03-29T12:03:40Z</time>
      </trkpt>
      <trkpt lat="48.58858" lon="1.88001">
        <ele>163.6</ele>
        <time>2026-03-29T12:03:41Z</time>
      </trkpt>
      <trkpt lat="48.5886" lon="1.87997">
        <ele>164.4</ele>
        <time>2026-03-29T12:03:42Z</time>
      </trkpt>
      <trkpt lat="48.58863" lon="1.87993">
        <ele>164.4</ele>
        <time>2026-03-29T12:03:43Z</time>
      </trkpt>
      <trkpt lat="48.58865" lon="1.87989">
        <ele>164.4</ele>
        <time>2026-03-29T12:03:44Z</time>
      </trkpt>
      <trkpt lat="48.58868" lon="1.87984">
        <ele>164.4</ele>
        <time>2026-03-29T12:03:45Z</time>
      </trkpt>
      <trkpt lat="48.58871" lon="1.8798">
        <ele>164.8</ele>
        <time>2026-03-29T12:03:46Z</time>
      </trkpt>
      <trkpt lat="48.58874" lon="1.87977">
        <ele>164.8</ele>
        <time>2026-03-29T12:03:47Z</time>
      </trkpt>
      <trkpt lat="48.58877" lon="1.87972">
        <ele>164.8</ele>
        <time>2026-03-29T12:03:48Z</time>
      </trkpt>
      <trkpt lat="48.58879" lon="1.87968">
        <ele>165.8</ele>
        <time>2026-03-29T12:03:49Z</time>
      </trkpt>
      <trkpt lat="48.58882" lon="1.87963">
        <ele>166.2</ele>
        <time>2026-03-29T12:03:50Z</time>
      </trkpt>
      <trkpt lat="48.58885" lon="1.87958">
        <ele>166.2</ele>
        <time>2026-03-29T12:03:51Z</time>
      </trkpt>
      <trkpt lat="48.58887" lon="1.87953">
        <ele>166.2</ele>
        <time>2026-03-29T12:03:52Z</time>
      </trkpt>
      <trkpt lat="48.58891" lon="1.87947">
        <ele>166.2</ele>
        <time>2026-03-29T12:03:53Z</time>
      </trkpt>
      <trkpt lat="48.58893" lon="1.87941">
        <ele>166.2</ele>
        <time>2026-03-29T12:03:54Z</time>
      </trkpt>
      <trkpt lat="48.58896" lon="1.87936">
        <ele>166.2</ele>
        <time>2026-03-29T12:03:55Z</time>
      </trkpt>
      <trkpt lat="48.589" lon="1.87931">
        <ele>166.2</ele>
        <time>2026-03-29T12:03:56Z</time>
      </trkpt>
      <trkpt lat="48.58903" lon="1.87926">
        <ele>166.8</ele>
        <time>2026-03-29T12:03:57Z</time>
      </trkpt>
      <trkpt lat="48.58907" lon="1.8792">
        <ele>166.8</ele>
        <time>2026-03-29T12:03:58Z</time>
      </trkpt>
      <trkpt lat="48.5891" lon="1.87914">
        <ele>166.8</ele>
        <time>2026-03-29T12:03:59Z</time>
      </trkpt>
      <trkpt lat="48.58913" lon="1.87908">
        <ele>166.8</ele>
        <time>2026-03-29T12:04:00Z</time>
      </trkpt>
      <trkpt lat="48.58916" lon="1.87902">
        <ele>167.4</ele>
        <time>2026-03-29T12:04:01Z</time>
      </trkpt>
      <trkpt lat="48.58919" lon="1.87896">
        <ele>167.4</ele>
        <time>2026-03-29T12:04:02Z</time>
      </trkpt>
      <trkpt lat="48.58921" lon="1.8789">
        <ele>167.4</ele>
        <time>2026-03-29T12:04:03Z</time>
      </trkpt>
      <trkpt lat="48.58924" lon="1.87884">
        <ele>167.4</ele>
        <time>2026-03-29T12:04:04Z</time>
      </trkpt>
      <trkpt lat="48.58926" lon="1.87879">
        <ele>168.4</ele>
        <time>2026-03-29T12:04:05Z</time>
      </trkpt>
      <trkpt lat="48.58928" lon="1.87872">
        <ele>168.8</ele>
        <time>2026-03-29T12:04:06Z</time>
      </trkpt>
      <trkpt lat="48.58929" lon="1.87866">
        <ele>168.8</ele>
        <time>2026-03-29T12:04:07Z</time>
      </trkpt>
      <trkpt lat="48.58931" lon="1.8786">
        <ele>168.8</ele>
        <time>2026-03-29T12:04:08Z</time>
      </trkpt>
      <trkpt lat="48.58933" lon="1.87853">
        <ele>168.8</ele>
        <time>2026-03-29T12:04:09Z</time>
      </trkpt>
      <trkpt lat="48.58934" lon="1.87847">
        <ele>169.2</ele>
        <time>2026-03-29T12:04:10Z</time>
      </trkpt>
      <trkpt lat="48.58935" lon="1.8784">
        <ele>169.2</ele>
        <time>2026-03-29T12:04:11Z</time>
      </trkpt>
      <trkpt lat="48.58936" lon="1.87834">
        <ele>169.2</ele>
        <time>2026-03-29T12:04:12Z</time>
      </trkpt>
      <trkpt lat="48.58937" lon="1.87828">
        <ele>168.8</ele>
        <time>2026-03-29T12:04:13Z</time>
      </trkpt>
      <trkpt lat="48.58938" lon="1.87821">
        <ele>169.6</ele>
        <time>2026-03-29T12:04:14Z</time>
      </trkpt>
      <trkpt lat="48.58938" lon="1.87815">
        <ele>169.6</ele>
        <time>2026-03-29T12:04:15Z</time>
      </trkpt>
      <trkpt lat="48.58939" lon="1.87809">
        <ele>169.6</ele>
        <time>2026-03-29T12:04:16Z</time>
      </trkpt>
      <trkpt lat="48.58939" lon="1.87802">
        <ele>169.6</ele>
        <time>2026-03-29T12:04:17Z</time>
      </trkpt>
      <trkpt lat="48.5894" lon="1.87796">
        <ele>170</ele>
        <time>2026-03-29T12:04:18Z</time>
      </trkpt>
      <trkpt lat="48.5894" lon="1.87789">
        <ele>170</ele>
        <time>2026-03-29T12:04:19Z</time>
      </trkpt>
      <trkpt lat="48.5894" lon="1.87783">
        <ele>170</ele>
        <time>2026-03-29T12:04:20Z</time>
      </trkpt>
      <trkpt lat="48.58941" lon="1.87776">
        <ele>170</ele>
        <time>2026-03-29T12:04:21Z</time>
      </trkpt>
      <trkpt lat="48.58941" lon="1.8777">
        <ele>170.2</ele>
        <time>2026-03-29T12:04:22Z</time>
      </trkpt>
      <trkpt lat="48.58941" lon="1.87763">
        <ele>170.2</ele>
        <time>2026-03-29T12:04:23Z</time>
      </trkpt>
      <trkpt lat="48.58941" lon="1.87757">
        <ele>170.2</ele>
        <time>2026-03-29T12:04:24Z</time>
      </trkpt>
      <trkpt lat="48.58941" lon="1.8775">
        <ele>170</ele>
        <time>2026-03-29T12:04:25Z</time>
      </trkpt>
      <trkpt lat="48.58942" lon="1.87744">
        <ele>170</ele>
        <time>2026-03-29T12:04:26Z</time>
      </trkpt>
      <trkpt lat="48.58942" lon="1.87737">
        <ele>170</ele>
        <time>2026-03-29T12:04:27Z</time>
      </trkpt>
      <trkpt lat="48.58943" lon="1.87731">
        <ele>170</ele>
        <time>2026-03-29T12:04:28Z</time>
      </trkpt>
      <trkpt lat="48.58943" lon="1.87724">
        <ele>170.6</ele>
        <time>2026-03-29T12:04:29Z</time>
      </trkpt>
      <trkpt lat="48.58944" lon="1.87717">
        <ele>170.6</ele>
        <time>2026-03-29T12:04:30Z</time>
      </trkpt>
      <trkpt lat="48.58944" lon="1.8771">
        <ele>170.6</ele>
        <time>2026-03-29T12:04:31Z</time>
      </trkpt>
      <trkpt lat="48.58945" lon="1.87703">
        <ele>170.6</ele>
        <time>2026-03-29T12:04:32Z</time>
      </trkpt>
      <trkpt lat="48.58946" lon="1.87695">
        <ele>170.6</ele>
        <time>2026-03-29T12:04:33Z</time>
      </trkpt>
      <trkpt lat="48.58947" lon="1.87688">
        <ele>171</ele>
        <time>2026-03-29T12:04:34Z</time>
      </trkpt>
      <trkpt lat="48.58948" lon="1.87681">
        <ele>171</ele>
        <time>2026-03-29T12:04:35Z</time>
      </trkpt>
      <trkpt lat="48.58949" lon="1.87674">
        <ele>171</ele>
        <time>2026-03-29T12:04:36Z</time>
      </trkpt>
      <trkpt lat="48.5895" lon="1.87666">
        <ele>172</ele>
        <time>2026-03-29T12:04:37Z</time>
      </trkpt>
      <trkpt lat="48.58951" lon="1.87659">
        <ele>172</ele>
        <time>2026-03-29T12:04:38Z</time>
      </trkpt>
      <trkpt lat="48.58953" lon="1.87653">
        <ele>172</ele>
        <time>2026-03-29T12:04:39Z</time>
      </trkpt>
      <trkpt lat="48.58955" lon="1.87646">
        <ele>172</ele>
        <time>2026-03-29T12:04:40Z</time>
      </trkpt>
      <trkpt lat="48.58957" lon="1.87639">
        <ele>172</ele>
        <time>2026-03-29T12:04:41Z</time>
      </trkpt>
      <trkpt lat="48.58959" lon="1.87632">
        <ele>171.8</ele>
        <time>2026-03-29T12:04:42Z</time>
      </trkpt>
      <trkpt lat="48.5896" lon="1.87625">
        <ele>171.8</ele>
        <time>2026-03-29T12:04:43Z</time>
      </trkpt>
      <trkpt lat="48.58962" lon="1.87618">
        <ele>171.8</ele>
        <time>2026-03-29T12:04:44Z</time>
      </trkpt>
      <trkpt lat="48.58965" lon="1.87612">
        <ele>171.8</ele>
        <time>2026-03-29T12:04:45Z</time>
      </trkpt>
      <trkpt lat="48.58967" lon="1.87605">
        <ele>172.4</ele>
        <time>2026-03-29T12:04:46Z</time>
      </trkpt>
      <trkpt lat="48.58969" lon="1.87598">
        <ele>172.4</ele>
        <time>2026-03-29T12:04:47Z</time>
      </trkpt>
      <trkpt lat="48.58971" lon="1.87591">
        <ele>172.4</ele>
        <time>2026-03-29T12:04:48Z</time>
      </trkpt>
      <trkpt lat="48.58974" lon="1.87585">
        <ele>172.4</ele>
        <time>2026-03-29T12:04:49Z</time>
      </trkpt>
      <trkpt lat="48.58976" lon="1.87578">
        <ele>172.4</ele>
        <time>2026-03-29T12:04:50Z</time>
      </trkpt>
      <trkpt lat="48.58978" lon="1.87572">
        <ele>172.4</ele>
        <time>2026-03-29T12:04:51Z</time>
      </trkpt>
      <trkpt lat="48.58981" lon="1.87565">
        <ele>172.4</ele>
        <time>2026-03-29T12:04:52Z</time>
      </trkpt>
      <trkpt lat="48.58983" lon="1.87559">
        <ele>172.4</ele>
        <time>2026-03-29T12:04:53Z</time>
      </trkpt>
      <trkpt lat="48.58986" lon="1.87552">
        <ele>172.8</ele>
        <time>2026-03-29T12:04:54Z</time>
      </trkpt>
      <trkpt lat="48.58988" lon="1.87546">
        <ele>172.8</ele>
        <time>2026-03-29T12:04:55Z</time>
      </trkpt>
      <trkpt lat="48.58991" lon="1.8754">
        <ele>172.8</ele>
        <time>2026-03-29T12:04:56Z</time>
      </trkpt>
      <trkpt lat="48.58994" lon="1.87533">
        <ele>172.8</ele>
        <time>2026-03-29T12:04:57Z</time>
      </trkpt>
      <trkpt lat="48.58997" lon="1.87527">
        <ele>172.8</ele>
        <time>2026-03-29T12:04:58Z</time>
      </trkpt>
      <trkpt lat="48.58999" lon="1.87521">
        <ele>172.8</ele>
        <time>2026-03-29T12:04:59Z</time>
      </trkpt>
      <trkpt lat="48.59002" lon="1.87515">
        <ele>172.8</ele>
        <time>2026-03-29T12:05:00Z</time>
      </trkpt>
      <trkpt lat="48.59005" lon="1.87508">
        <ele>172.8</ele>
        <time>2026-03-29T12:05:01Z</time>
      </trkpt>
      <trkpt lat="48.59008" lon="1.87502">
        <ele>172.8</ele>
        <time>2026-03-29T12:05:02Z</time>
      </trkpt>
      <trkpt lat="48.59011" lon="1.87496">
        <ele>172.8</ele>
        <time>2026-03-29T12:05:03Z</time>
      </trkpt>
      <trkpt lat="48.59014" lon="1.8749">
        <ele>172.8</ele>
        <time>2026-03-29T12:05:04Z</time>
      </trkpt>
      <trkpt lat="48.59017" lon="1.87484">
        <ele>172.8</ele>
        <time>2026-03-29T12:05:05Z</time>
      </trkpt>
      <trkpt lat="48.5902" lon="1.87478">
        <ele>172.8</ele>
        <time>2026-03-29T12:05:06Z</time>
      </trkpt>
      <trkpt lat="48.59023" lon="1.87472">
        <ele>172.8</ele>
        <time>2026-03-29T12:05:07Z</time>
      </trkpt>
      <trkpt lat="48.59026" lon="1.87467">
        <ele>172.8</ele>
        <time>2026-03-29T12:05:08Z</time>
      </trkpt>
      <trkpt lat="48.59029" lon="1.87461">
        <ele>173</ele>
        <time>2026-03-29T12:05:09Z</time>
      </trkpt>
      <trkpt lat="48.59032" lon="1.87454">
        <ele>173.2</ele>
        <time>2026-03-29T12:05:10Z</time>
      </trkpt>
      <trkpt lat="48.59036" lon="1.87448">
        <ele>173.2</ele>
        <time>2026-03-29T12:05:11Z</time>
      </trkpt>
      <trkpt lat="48.59039" lon="1.87443">
        <ele>173.2</ele>
        <time>2026-03-29T12:05:12Z</time>
      </trkpt>
      <trkpt lat="48.59042" lon="1.87437">
        <ele>173.2</ele>
        <time>2026-03-29T12:05:13Z</time>
      </trkpt>
      <trkpt lat="48.59045" lon="1.87431">
        <ele>173.4</ele>
        <time>2026-03-29T12:05:14Z</time>
      </trkpt>
      <trkpt lat="48.59049" lon="1.87426">
        <ele>173.4</ele>
        <time>2026-03-29T12:05:15Z</time>
      </trkpt>
      <trkpt lat="48.59052" lon="1.8742">
        <ele>173.4</ele>
        <time>2026-03-29T12:05:16Z</time>
      </trkpt>
      <trkpt lat="48.59056" lon="1.87415">
        <ele>173.2</ele>
        <time>2026-03-29T12:05:17Z</time>
      </trkpt>
      <trkpt lat="48.59059" lon="1.87409">
        <ele>173.8</ele>
        <time>2026-03-29T12:05:18Z</time>
      </trkpt>
      <trkpt lat="48.59062" lon="1.87403">
        <ele>173.8</ele>
        <time>2026-03-29T12:05:19Z</time>
      </trkpt>
      <trkpt lat="48.59066" lon="1.87397">
        <ele>173.8</ele>
        <time>2026-03-29T12:05:20Z</time>
      </trkpt>
      <trkpt lat="48.5907" lon="1.87392">
        <ele>173.4</ele>
        <time>2026-03-29T12:05:21Z</time>
      </trkpt>
      <trkpt lat="48.59073" lon="1.87386">
        <ele>173</ele>
        <time>2026-03-29T12:05:22Z</time>
      </trkpt>
      <trkpt lat="48.59076" lon="1.8738">
        <ele>173</ele>
        <time>2026-03-29T12:05:23Z</time>
      </trkpt>
      <trkpt lat="48.5908" lon="1.87374">
        <ele>173</ele>
        <time>2026-03-29T12:05:24Z</time>
      </trkpt>
      <trkpt lat="48.59083" lon="1.87369">
        <ele>173</ele>
        <time>2026-03-29T12:05:25Z</time>
      </trkpt>
      <trkpt lat="48.59087" lon="1.87363">
        <ele>172.8</ele>
        <time>2026-03-29T12:05:26Z</time>
      </trkpt>
      <trkpt lat="48.5909" lon="1.87357">
        <ele>172.8</ele>
        <time>2026-03-29T12:05:27Z</time>
      </trkpt>
      <trkpt lat="48.59094" lon="1.87351">
        <ele>172.8</ele>
        <time>2026-03-29T12:05:28Z</time>
      </trkpt>
      <trkpt lat="48.59097" lon="1.87345">
        <ele>172.8</ele>
        <time>2026-03-29T12:05:29Z</time>
      </trkpt>
      <trkpt lat="48.59101" lon="1.87339">
        <ele>172.6</ele>
        <time>2026-03-29T12:05:30Z</time>
      </trkpt>
      <trkpt lat="48.59105" lon="1.87333">
        <ele>172.6</ele>
        <time>2026-03-29T12:05:31Z</time>
      </trkpt>
      <trkpt lat="48.59108" lon="1.87327">
        <ele>172.6</ele>
        <time>2026-03-29T12:05:32Z</time>
      </trkpt>
      <trkpt lat="48.59112" lon="1.87321">
        <ele>172.6</ele>
        <time>2026-03-29T12:05:33Z</time>
      </trkpt>
      <trkpt lat="48.59116" lon="1.87314">
        <ele>172.4</ele>
        <time>2026-03-29T12:05:34Z</time>
      </trkpt>
      <trkpt lat="48.59119" lon="1.87308">
        <ele>172.4</ele>
        <time>2026-03-29T12:05:35Z</time>
      </trkpt>
      <trkpt lat="48.59123" lon="1.87302">
        <ele>172.4</ele>
        <time>2026-03-29T12:05:36Z</time>
      </trkpt>
      <trkpt lat="48.59127" lon="1.87297">
        <ele>172.4</ele>
        <time>2026-03-29T12:05:37Z</time>
      </trkpt>
      <trkpt lat="48.59131" lon="1.87291">
        <ele>172.6</ele>
        <time>2026-03-29T12:05:38Z</time>
      </trkpt>
      <trkpt lat="48.59135" lon="1.87285">
        <ele>172.6</ele>
        <time>2026-03-29T12:05:39Z</time>
      </trkpt>
      <trkpt lat="48.59139" lon="1.87279">
        <ele>172.6</ele>
        <time>2026-03-29T12:05:40Z</time>
      </trkpt>
      <trkpt lat="48.59143" lon="1.87273">
        <ele>172.6</ele>
        <time>2026-03-29T12:05:41Z</time>
      </trkpt>
      <trkpt lat="48.59147" lon="1.87267">
        <ele>172.2</ele>
        <time>2026-03-29T12:05:42Z</time>
      </trkpt>
      <trkpt lat="48.59151" lon="1.87261">
        <ele>172.2</ele>
        <time>2026-03-29T12:05:43Z</time>
      </trkpt>
      <trkpt lat="48.59156" lon="1.87256">
        <ele>172.2</ele>
        <time>2026-03-29T12:05:44Z</time>
      </trkpt>
      <trkpt lat="48.5916" lon="1.87251">
        <ele>172.2</ele>
        <time>2026-03-29T12:05:45Z</time>
      </trkpt>
      <trkpt lat="48.59165" lon="1.87246">
        <ele>172.2</ele>
        <time>2026-03-29T12:05:46Z</time>
      </trkpt>
      <trkpt lat="48.5917" lon="1.87241">
        <ele>172.2</ele>
        <time>2026-03-29T12:05:47Z</time>
      </trkpt>
      <trkpt lat="48.59174" lon="1.87236">
        <ele>172.2</ele>
        <time>2026-03-29T12:05:48Z</time>
      </trkpt>
      <trkpt lat="48.59179" lon="1.87231">
        <ele>172.2</ele>
        <time>2026-03-29T12:05:49Z</time>
      </trkpt>
      <trkpt lat="48.59184" lon="1.87227">
        <ele>171.2</ele>
        <time>2026-03-29T12:05:50Z</time>
      </trkpt>
      <trkpt lat="48.59189" lon="1.87222">
        <ele>171.2</ele>
        <time>2026-03-29T12:05:51Z</time>
      </trkpt>
      <trkpt lat="48.59194" lon="1.87218">
        <ele>171.2</ele>
        <time>2026-03-29T12:05:52Z</time>
      </trkpt>
      <trkpt lat="48.592" lon="1.87214">
        <ele>171.6</ele>
        <time>2026-03-29T12:05:53Z</time>
      </trkpt>
      <trkpt lat="48.59205" lon="1.87211">
        <ele>171.2</ele>
        <time>2026-03-29T12:05:54Z</time>
      </trkpt>
      <trkpt lat="48.5921" lon="1.87207">
        <ele>171.2</ele>
        <time>2026-03-29T12:05:55Z</time>
      </trkpt>
      <trkpt lat="48.59215" lon="1.87204">
        <ele>171.2</ele>
        <time>2026-03-29T12:05:56Z</time>
      </trkpt>
      <trkpt lat="48.59221" lon="1.87201">
        <ele>171.2</ele>
        <time>2026-03-29T12:05:57Z</time>
      </trkpt>
      <trkpt lat="48.59226" lon="1.87197">
        <ele>172</ele>
        <time>2026-03-29T12:05:58Z</time>
      </trkpt>
      <trkpt lat="48.59231" lon="1.87194">
        <ele>172</ele>
        <time>2026-03-29T12:05:59Z</time>
      </trkpt>
      <trkpt lat="48.59237" lon="1.87191">
        <ele>172</ele>
        <time>2026-03-29T12:06:00Z</time>
      </trkpt>
      <trkpt lat="48.59242" lon="1.87188">
        <ele>172</ele>
        <time>2026-03-29T12:06:01Z</time>
      </trkpt>
      <trkpt lat="48.59247" lon="1.87185">
        <ele>171.6</ele>
        <time>2026-03-29T12:06:02Z</time>
      </trkpt>
      <trkpt lat="48.59252" lon="1.87182">
        <ele>171.6</ele>
        <time>2026-03-29T12:06:03Z</time>
      </trkpt>
      <trkpt lat="48.59258" lon="1.87179">
        <ele>171.6</ele>
        <time>2026-03-29T12:06:04Z</time>
      </trkpt>
      <trkpt lat="48.59263" lon="1.87176">
        <ele>172.2</ele>
        <time>2026-03-29T12:06:05Z</time>
      </trkpt>
      <trkpt lat="48.59268" lon="1.87173">
        <ele>172.2</ele>
        <time>2026-03-29T12:06:06Z</time>
      </trkpt>
      <trkpt lat="48.59274" lon="1.8717">
        <ele>172.2</ele>
        <time>2026-03-29T12:06:07Z</time>
      </trkpt>
      <trkpt lat="48.59279" lon="1.87167">
        <ele>172.2</ele>
        <time>2026-03-29T12:06:08Z</time>
      </trkpt>
      <trkpt lat="48.59284" lon="1.87164">
        <ele>172.2</ele>
        <time>2026-03-29T12:06:09Z</time>
      </trkpt>
      <trkpt lat="48.59289" lon="1.8716">
        <ele>172.2</ele>
        <time>2026-03-29T12:06:10Z</time>
      </trkpt>
      <trkpt lat="48.59294" lon="1.87157">
        <ele>172.2</ele>
        <time>2026-03-29T12:06:11Z</time>
      </trkpt>
      <trkpt lat="48.59299" lon="1.87153">
        <ele>172.2</ele>
        <time>2026-03-29T12:06:12Z</time>
      </trkpt>
      <trkpt lat="48.59304" lon="1.87149">
        <ele>172.2</ele>
        <time>2026-03-29T12:06:13Z</time>
      </trkpt>
      <trkpt lat="48.59309" lon="1.87145">
        <ele>172.4</ele>
        <time>2026-03-29T12:06:14Z</time>
      </trkpt>
      <trkpt lat="48.59313" lon="1.8714">
        <ele>172.4</ele>
        <time>2026-03-29T12:06:15Z</time>
      </trkpt>
      <trkpt lat="48.59318" lon="1.87136">
        <ele>172.4</ele>
        <time>2026-03-29T12:06:16Z</time>
      </trkpt>
      <trkpt lat="48.59322" lon="1.87131">
        <ele>172.4</ele>
        <time>2026-03-29T12:06:17Z</time>
      </trkpt>
      <trkpt lat="48.59326" lon="1.87126">
        <ele>172.8</ele>
        <time>2026-03-29T12:06:18Z</time>
      </trkpt>
      <trkpt lat="48.59331" lon="1.8712">
        <ele>172.8</ele>
        <time>2026-03-29T12:06:19Z</time>
      </trkpt>
      <trkpt lat="48.59334" lon="1.87115">
        <ele>172.8</ele>
        <time>2026-03-29T12:06:20Z</time>
      </trkpt>
      <trkpt lat="48.59338" lon="1.87109">
        <ele>173.2</ele>
        <time>2026-03-29T12:06:21Z</time>
      </trkpt>
      <trkpt lat="48.59342" lon="1.87103">
        <ele>173.8</ele>
        <time>2026-03-29T12:06:22Z</time>
      </trkpt>
      <trkpt lat="48.59346" lon="1.87097">
        <ele>173.8</ele>
        <time>2026-03-29T12:06:23Z</time>
      </trkpt>
      <trkpt lat="48.59349" lon="1.8709">
        <ele>173.8</ele>
        <time>2026-03-29T12:06:24Z</time>
      </trkpt>
      <trkpt lat="48.59353" lon="1.87084">
        <ele>173.8</ele>
        <time>2026-03-29T12:06:25Z</time>
      </trkpt>
      <trkpt lat="48.59356" lon="1.87077">
        <ele>173.4</ele>
        <time>2026-03-29T12:06:26Z</time>
      </trkpt>
      <trkpt lat="48.59359" lon="1.8707">
        <ele>173.4</ele>
        <time>2026-03-29T12:06:27Z</time>
      </trkpt>
      <trkpt lat="48.59362" lon="1.87064">
        <ele>173.4</ele>
        <time>2026-03-29T12:06:28Z</time>
      </trkpt>
      <trkpt lat="48.59365" lon="1.87057">
        <ele>173.8</ele>
        <time>2026-03-29T12:06:29Z</time>
      </trkpt>
      <trkpt lat="48.59368" lon="1.8705">
        <ele>173.6</ele>
        <time>2026-03-29T12:06:30Z</time>
      </trkpt>
      <trkpt lat="48.59371" lon="1.87043">
        <ele>173.6</ele>
        <time>2026-03-29T12:06:31Z</time>
      </trkpt>
      <trkpt lat="48.59374" lon="1.87036">
        <ele>173.6</ele>
        <time>2026-03-29T12:06:32Z</time>
      </trkpt>
      <trkpt lat="48.59377" lon="1.87029">
        <ele>173.8</ele>
        <time>2026-03-29T12:06:33Z</time>
      </trkpt>
      <trkpt lat="48.59379" lon="1.87021">
        <ele>174</ele>
        <time>2026-03-29T12:06:34Z</time>
      </trkpt>
      <trkpt lat="48.59382" lon="1.87014">
        <ele>174</ele>
        <time>2026-03-29T12:06:35Z</time>
      </trkpt>
      <trkpt lat="48.59385" lon="1.87007">
        <ele>174</ele>
        <time>2026-03-29T12:06:36Z</time>
      </trkpt>
      <trkpt lat="48.59388" lon="1.87">
        <ele>174</ele>
        <time>2026-03-29T12:06:37Z</time>
      </trkpt>
      <trkpt lat="48.59391" lon="1.86992">
        <ele>174.2</ele>
        <time>2026-03-29T12:06:38Z</time>
      </trkpt>
      <trkpt lat="48.59395" lon="1.86985">
        <ele>174.2</ele>
        <time>2026-03-29T12:06:39Z</time>
      </trkpt>
      <trkpt lat="48.59398" lon="1.86979">
        <ele>174.2</ele>
        <time>2026-03-29T12:06:40Z</time>
      </trkpt>
      <trkpt lat="48.59402" lon="1.86972">
        <ele>174.2</ele>
        <time>2026-03-29T12:06:41Z</time>
      </trkpt>
      <trkpt lat="48.59405" lon="1.86966">
        <ele>174</ele>
        <time>2026-03-29T12:06:42Z</time>
      </trkpt>
      <trkpt lat="48.59409" lon="1.8696">
        <ele>174</ele>
        <time>2026-03-29T12:06:43Z</time>
      </trkpt>
      <trkpt lat="48.59413" lon="1.86954">
        <ele>174</ele>
        <time>2026-03-29T12:06:44Z</time>
      </trkpt>
      <trkpt lat="48.59417" lon="1.86948">
        <ele>174.4</ele>
        <time>2026-03-29T12:06:45Z</time>
      </trkpt>
      <trkpt lat="48.59421" lon="1.86941">
        <ele>174.6</ele>
        <time>2026-03-29T12:06:46Z</time>
      </trkpt>
      <trkpt lat="48.59424" lon="1.86935">
        <ele>174.6</ele>
        <time>2026-03-29T12:06:47Z</time>
      </trkpt>
      <trkpt lat="48.59428" lon="1.86929">
        <ele>174.6</ele>
        <time>2026-03-29T12:06:48Z</time>
      </trkpt>
      <trkpt lat="48.59431" lon="1.86922">
        <ele>174.6</ele>
        <time>2026-03-29T12:06:49Z</time>
      </trkpt>
      <trkpt lat="48.59434" lon="1.86916">
        <ele>175.2</ele>
        <time>2026-03-29T12:06:50Z</time>
      </trkpt>
      <trkpt lat="48.59438" lon="1.8691">
        <ele>175.2</ele>
        <time>2026-03-29T12:06:51Z</time>
      </trkpt>
      <trkpt lat="48.59443" lon="1.86906">
        <ele>175.2</ele>
        <time>2026-03-29T12:06:52Z</time>
      </trkpt>
      <trkpt lat="48.59448" lon="1.86903">
        <ele>174.8</ele>
        <time>2026-03-29T12:06:53Z</time>
      </trkpt>
      <trkpt lat="48.59454" lon="1.869">
        <ele>174.8</ele>
        <time>2026-03-29T12:06:54Z</time>
      </trkpt>
      <trkpt lat="48.59459" lon="1.86897">
        <ele>174.8</ele>
        <time>2026-03-29T12:06:55Z</time>
      </trkpt>
      <trkpt lat="48.59464" lon="1.86893">
        <ele>174.8</ele>
        <time>2026-03-29T12:06:56Z</time>
      </trkpt>
      <trkpt lat="48.59469" lon="1.8689">
        <ele>174.8</ele>
        <time>2026-03-29T12:06:57Z</time>
      </trkpt>
      <trkpt lat="48.59474" lon="1.86886">
        <ele>175.4</ele>
        <time>2026-03-29T12:06:58Z</time>
      </trkpt>
      <trkpt lat="48.59479" lon="1.86882">
        <ele>175.4</ele>
        <time>2026-03-29T12:06:59Z</time>
      </trkpt>
      <trkpt lat="48.59484" lon="1.86878">
        <ele>175.4</ele>
        <time>2026-03-29T12:07:00Z</time>
      </trkpt>
      <trkpt lat="48.59489" lon="1.86874">
        <ele>175.2</ele>
        <time>2026-03-29T12:07:01Z</time>
      </trkpt>
      <trkpt lat="48.59494" lon="1.86869">
        <ele>175.4</ele>
        <time>2026-03-29T12:07:02Z</time>
      </trkpt>
      <trkpt lat="48.59499" lon="1.86864">
        <ele>175.4</ele>
        <time>2026-03-29T12:07:03Z</time>
      </trkpt>
      <trkpt lat="48.59503" lon="1.86859">
        <ele>175.4</ele>
        <time>2026-03-29T12:07:04Z</time>
      </trkpt>
      <trkpt lat="48.59508" lon="1.86854">
        <ele>175.4</ele>
        <time>2026-03-29T12:07:05Z</time>
      </trkpt>
      <trkpt lat="48.59513" lon="1.86849">
        <ele>175</ele>
        <time>2026-03-29T12:07:06Z</time>
      </trkpt>
      <trkpt lat="48.59518" lon="1.86844">
        <ele>175</ele>
        <time>2026-03-29T12:07:07Z</time>
      </trkpt>
      <trkpt lat="48.59522" lon="1.86838">
        <ele>175</ele>
        <time>2026-03-29T12:07:08Z</time>
      </trkpt>
      <trkpt lat="48.59527" lon="1.86833">
        <ele>175.4</ele>
        <time>2026-03-29T12:07:09Z</time>
      </trkpt>
      <trkpt lat="48.59532" lon="1.86828">
        <ele>175.4</ele>
        <time>2026-03-29T12:07:10Z</time>
      </trkpt>
      <trkpt lat="48.59536" lon="1.86822">
        <ele>175.4</ele>
        <time>2026-03-29T12:07:11Z</time>
      </trkpt>
      <trkpt lat="48.59541" lon="1.86817">
        <ele>175.4</ele>
        <time>2026-03-29T12:07:12Z</time>
      </trkpt>
      <trkpt lat="48.59545" lon="1.86811">
        <ele>175.4</ele>
        <time>2026-03-29T12:07:13Z</time>
      </trkpt>
      <trkpt lat="48.5955" lon="1.86806">
        <ele>175.2</ele>
        <time>2026-03-29T12:07:14Z</time>
      </trkpt>
      <trkpt lat="48.59554" lon="1.868">
        <ele>175.2</ele>
        <time>2026-03-29T12:07:15Z</time>
      </trkpt>
      <trkpt lat="48.59559" lon="1.86794">
        <ele>175.2</ele>
        <time>2026-03-29T12:07:16Z</time>
      </trkpt>
      <trkpt lat="48.59563" lon="1.86789">
        <ele>175.2</ele>
        <time>2026-03-29T12:07:17Z</time>
      </trkpt>
      <trkpt lat="48.59567" lon="1.86783">
        <ele>175</ele>
        <time>2026-03-29T12:07:18Z</time>
      </trkpt>
      <trkpt lat="48.59572" lon="1.86776">
        <ele>175</ele>
        <time>2026-03-29T12:07:19Z</time>
      </trkpt>
      <trkpt lat="48.59576" lon="1.8677">
        <ele>175</ele>
        <time>2026-03-29T12:07:20Z</time>
      </trkpt>
      <trkpt lat="48.5958" lon="1.86763">
        <ele>175</ele>
        <time>2026-03-29T12:07:21Z</time>
      </trkpt>
      <trkpt lat="48.59585" lon="1.86757">
        <ele>174.4</ele>
        <time>2026-03-29T12:07:22Z</time>
      </trkpt>
      <trkpt lat="48.59589" lon="1.8675">
        <ele>174.4</ele>
        <time>2026-03-29T12:07:23Z</time>
      </trkpt>
      <trkpt lat="48.59593" lon="1.86743">
        <ele>174.4</ele>
        <time>2026-03-29T12:07:24Z</time>
      </trkpt>
      <trkpt lat="48.59597" lon="1.86736">
        <ele>174.4</ele>
        <time>2026-03-29T12:07:25Z</time>
      </trkpt>
      <trkpt lat="48.59602" lon="1.8673">
        <ele>174.2</ele>
        <time>2026-03-29T12:07:26Z</time>
      </trkpt>
      <trkpt lat="48.59606" lon="1.86723">
        <ele>174.2</ele>
        <time>2026-03-29T12:07:27Z</time>
      </trkpt>
      <trkpt lat="48.59611" lon="1.86716">
        <ele>174.2</ele>
        <time>2026-03-29T12:07:28Z</time>
      </trkpt>
      <trkpt lat="48.59615" lon="1.86709">
        <ele>174.2</ele>
        <time>2026-03-29T12:07:29Z</time>
      </trkpt>
      <trkpt lat="48.5962" lon="1.86701">
        <ele>173.8</ele>
        <time>2026-03-29T12:07:30Z</time>
      </trkpt>
      <trkpt lat="48.59624" lon="1.86694">
        <ele>173.8</ele>
        <time>2026-03-29T12:07:31Z</time>
      </trkpt>
      <trkpt lat="48.59629" lon="1.86687">
        <ele>173.8</ele>
        <time>2026-03-29T12:07:32Z</time>
      </trkpt>
      <trkpt lat="48.59634" lon="1.8668">
        <ele>173.8</ele>
        <time>2026-03-29T12:07:33Z</time>
      </trkpt>
      <trkpt lat="48.59638" lon="1.86673">
        <ele>173.6</ele>
        <time>2026-03-29T12:07:34Z</time>
      </trkpt>
      <trkpt lat="48.59643" lon="1.86665">
        <ele>173.6</ele>
        <time>2026-03-29T12:07:35Z</time>
      </trkpt>
      <trkpt lat="48.59648" lon="1.86658">
        <ele>173.6</ele>
        <time>2026-03-29T12:07:36Z</time>
      </trkpt>
      <trkpt lat="48.59652" lon="1.86651">
        <ele>172.6</ele>
        <time>2026-03-29T12:07:37Z</time>
      </trkpt>
      <trkpt lat="48.59657" lon="1.86644">
        <ele>172.8</ele>
        <time>2026-03-29T12:07:38Z</time>
      </trkpt>
      <trkpt lat="48.59662" lon="1.86636">
        <ele>172.8</ele>
        <time>2026-03-29T12:07:39Z</time>
      </trkpt>
      <trkpt lat="48.59666" lon="1.86629">
        <ele>172.8</ele>
        <time>2026-03-29T12:07:40Z</time>
      </trkpt>
      <trkpt lat="48.59671" lon="1.86621">
        <ele>172.8</ele>
        <time>2026-03-29T12:07:41Z</time>
      </trkpt>
      <trkpt lat="48.59676" lon="1.86614">
        <ele>172.8</ele>
        <time>2026-03-29T12:07:42Z</time>
      </trkpt>
      <trkpt lat="48.5968" lon="1.86607">
        <ele>172.8</ele>
        <time>2026-03-29T12:07:43Z</time>
      </trkpt>
      <trkpt lat="48.59685" lon="1.866">
        <ele>172.8</ele>
        <time>2026-03-29T12:07:44Z</time>
      </trkpt>
      <trkpt lat="48.5969" lon="1.86592">
        <ele>172.8</ele>
        <time>2026-03-29T12:07:45Z</time>
      </trkpt>
      <trkpt lat="48.59694" lon="1.86585">
        <ele>172.6</ele>
        <time>2026-03-29T12:07:46Z</time>
      </trkpt>
      <trkpt lat="48.59699" lon="1.86578">
        <ele>172.6</ele>
        <time>2026-03-29T12:07:47Z</time>
      </trkpt>
      <trkpt lat="48.59703" lon="1.86571">
        <ele>172.6</ele>
        <time>2026-03-29T12:07:48Z</time>
      </trkpt>
      <trkpt lat="48.59708" lon="1.86565">
        <ele>173.4</ele>
        <time>2026-03-29T12:07:49Z</time>
      </trkpt>
      <trkpt lat="48.59713" lon="1.86558">
        <ele>173.6</ele>
        <time>2026-03-29T12:07:50Z</time>
      </trkpt>
      <trkpt lat="48.59717" lon="1.86551">
        <ele>173.6</ele>
        <time>2026-03-29T12:07:51Z</time>
      </trkpt>
      <trkpt lat="48.59722" lon="1.86545">
        <ele>173.6</ele>
        <time>2026-03-29T12:07:52Z</time>
      </trkpt>
      <trkpt lat="48.59726" lon="1.86539">
        <ele>173.6</ele>
        <time>2026-03-29T12:07:53Z</time>
      </trkpt>
      <trkpt lat="48.59731" lon="1.86533">
        <ele>173.2</ele>
        <time>2026-03-29T12:07:54Z</time>
      </trkpt>
      <trkpt lat="48.59735" lon="1.86527">
        <ele>173.2</ele>
        <time>2026-03-29T12:07:55Z</time>
      </trkpt>
      <trkpt lat="48.5974" lon="1.86521">
        <ele>173.2</ele>
        <time>2026-03-29T12:07:56Z</time>
      </trkpt>
      <trkpt lat="48.59744" lon="1.86516">
        <ele>173.6</ele>
        <time>2026-03-29T12:07:57Z</time>
      </trkpt>
      <trkpt lat="48.59749" lon="1.8651">
        <ele>173.6</ele>
        <time>2026-03-29T12:07:58Z</time>
      </trkpt>
      <trkpt lat="48.59753" lon="1.86505">
        <ele>173.6</ele>
        <time>2026-03-29T12:07:59Z</time>
      </trkpt>
      <trkpt lat="48.59758" lon="1.86499">
        <ele>173.6</ele>
        <time>2026-03-29T12:08:00Z</time>
      </trkpt>
      <trkpt lat="48.59762" lon="1.86494">
        <ele>173.6</ele>
        <time>2026-03-29T12:08:01Z</time>
      </trkpt>
      <trkpt lat="48.59767" lon="1.86488">
        <ele>173.6</ele>
        <time>2026-03-29T12:08:02Z</time>
      </trkpt>
      <trkpt lat="48.59771" lon="1.86482">
        <ele>173.6</ele>
        <time>2026-03-29T12:08:03Z</time>
      </trkpt>
      <trkpt lat="48.59776" lon="1.86477">
        <ele>173.6</ele>
        <time>2026-03-29T12:08:04Z</time>
      </trkpt>
      <trkpt lat="48.59781" lon="1.86471">
        <ele>173.4</ele>
        <time>2026-03-29T12:08:05Z</time>
      </trkpt>
      <trkpt lat="48.59786" lon="1.86466">
        <ele>173.2</ele>
        <time>2026-03-29T12:08:06Z</time>
      </trkpt>
      <trkpt lat="48.59791" lon="1.8646">
        <ele>173.2</ele>
        <time>2026-03-29T12:08:07Z</time>
      </trkpt>
      <trkpt lat="48.59796" lon="1.86455">
        <ele>173.2</ele>
        <time>2026-03-29T12:08:08Z</time>
      </trkpt>
      <trkpt lat="48.59802" lon="1.86449">
        <ele>173.2</ele>
        <time>2026-03-29T12:08:09Z</time>
      </trkpt>
      <trkpt lat="48.59807" lon="1.86444">
        <ele>172.8</ele>
        <time>2026-03-29T12:08:10Z</time>
      </trkpt>
      <trkpt lat="48.59812" lon="1.86438">
        <ele>172.8</ele>
        <time>2026-03-29T12:08:11Z</time>
      </trkpt>
      <trkpt lat="48.59818" lon="1.86433">
        <ele>172.8</ele>
        <time>2026-03-29T12:08:12Z</time>
      </trkpt>
      <trkpt lat="48.59824" lon="1.86428">
        <ele>172.6</ele>
        <time>2026-03-29T12:08:13Z</time>
      </trkpt>
      <trkpt lat="48.5983" lon="1.86422">
        <ele>171.8</ele>
        <time>2026-03-29T12:08:14Z</time>
      </trkpt>
      <trkpt lat="48.59836" lon="1.86417">
        <ele>171.8</ele>
        <time>2026-03-29T12:08:15Z</time>
      </trkpt>
      <trkpt lat="48.59844" lon="1.86412">
        <ele>171.8</ele>
        <time>2026-03-29T12:08:16Z</time>
      </trkpt>
      <trkpt lat="48.5985" lon="1.86406">
        <ele>171.4</ele>
        <time>2026-03-29T12:08:17Z</time>
      </trkpt>
      <trkpt lat="48.59857" lon="1.86401">
        <ele>171</ele>
        <time>2026-03-29T12:08:18Z</time>
      </trkpt>
      <trkpt lat="48.59865" lon="1.86397">
        <ele>171</ele>
        <time>2026-03-29T12:08:19Z</time>
      </trkpt>
      <trkpt lat="48.59872" lon="1.86395">
        <ele>171</ele>
        <time>2026-03-29T12:08:20Z</time>
      </trkpt>
      <trkpt lat="48.59879" lon="1.86394">
        <ele>171</ele>
        <time>2026-03-29T12:08:21Z</time>
      </trkpt>
      <trkpt lat="48.59887" lon="1.86395">
        <ele>171</ele>
        <time>2026-03-29T12:08:22Z</time>
      </trkpt>
      <trkpt lat="48.59894" lon="1.86399">
        <ele>171</ele>
        <time>2026-03-29T12:08:23Z</time>
      </trkpt>
      <trkpt lat="48.599" lon="1.86405">
        <ele>171</ele>
        <time>2026-03-29T12:08:24Z</time>
      </trkpt>
      <trkpt lat="48.59905" lon="1.86412">
        <ele>171</ele>
        <time>2026-03-29T12:08:25Z</time>
      </trkpt>
      <trkpt lat="48.5991" lon="1.86421">
        <ele>170.6</ele>
        <time>2026-03-29T12:08:26Z</time>
      </trkpt>
      <trkpt lat="48.59914" lon="1.86428">
        <ele>170.6</ele>
        <time>2026-03-29T12:08:27Z</time>
      </trkpt>
      <trkpt lat="48.59919" lon="1.86436">
        <ele>170.6</ele>
        <time>2026-03-29T12:08:28Z</time>
      </trkpt>
      <trkpt lat="48.59924" lon="1.86443">
        <ele>170.6</ele>
        <time>2026-03-29T12:08:29Z</time>
      </trkpt>
      <trkpt lat="48.59929" lon="1.8645">
        <ele>170.8</ele>
        <time>2026-03-29T12:08:30Z</time>
      </trkpt>
      <trkpt lat="48.59933" lon="1.86457">
        <ele>170.8</ele>
        <time>2026-03-29T12:08:31Z</time>
      </trkpt>
      <trkpt lat="48.59938" lon="1.86463">
        <ele>170.8</ele>
        <time>2026-03-29T12:08:32Z</time>
      </trkpt>
      <trkpt lat="48.59942" lon="1.8647">
        <ele>170.8</ele>
        <time>2026-03-29T12:08:33Z</time>
      </trkpt>
      <trkpt lat="48.59947" lon="1.86475">
        <ele>171.2</ele>
        <time>2026-03-29T12:08:34Z</time>
      </trkpt>
      <trkpt lat="48.59952" lon="1.86481">
        <ele>171.2</ele>
        <time>2026-03-29T12:08:35Z</time>
      </trkpt>
      <trkpt lat="48.59957" lon="1.86485">
        <ele>171.2</ele>
        <time>2026-03-29T12:08:36Z</time>
      </trkpt>
      <trkpt lat="48.59963" lon="1.8649">
        <ele>171.2</ele>
        <time>2026-03-29T12:08:37Z</time>
      </trkpt>
      <trkpt lat="48.59968" lon="1.86493">
        <ele>171.2</ele>
        <time>2026-03-29T12:08:38Z</time>
      </trkpt>
      <trkpt lat="48.59974" lon="1.86496">
        <ele>171.2</ele>
        <time>2026-03-29T12:08:39Z</time>
      </trkpt>
      <trkpt lat="48.5998" lon="1.86498">
        <ele>171.2</ele>
        <time>2026-03-29T12:08:40Z</time>
      </trkpt>
      <trkpt lat="48.59986" lon="1.86499">
        <ele>171.6</ele>
        <time>2026-03-29T12:08:41Z</time>
      </trkpt>
      <trkpt lat="48.59992" lon="1.86501">
        <ele>171.6</ele>
        <time>2026-03-29T12:08:42Z</time>
      </trkpt>
      <trkpt lat="48.59998" lon="1.86502">
        <ele>171.6</ele>
        <time>2026-03-29T12:08:43Z</time>
      </trkpt>
      <trkpt lat="48.60003" lon="1.86503">
        <ele>171.6</ele>
        <time>2026-03-29T12:08:44Z</time>
      </trkpt>
      <trkpt lat="48.60009" lon="1.86505">
        <ele>172.2</ele>
        <time>2026-03-29T12:08:45Z</time>
      </trkpt>
      <trkpt lat="48.60015" lon="1.86507">
        <ele>172.2</ele>
        <time>2026-03-29T12:08:46Z</time>
      </trkpt>
      <trkpt lat="48.60021" lon="1.86509">
        <ele>172.2</ele>
        <time>2026-03-29T12:08:47Z</time>
      </trkpt>
      <trkpt lat="48.60027" lon="1.86512">
        <ele>172.2</ele>
        <time>2026-03-29T12:08:48Z</time>
      </trkpt>
      <trkpt lat="48.60032" lon="1.86515">
        <ele>172.4</ele>
        <time>2026-03-29T12:08:49Z</time>
      </trkpt>
      <trkpt lat="48.60038" lon="1.86518">
        <ele>172.8</ele>
        <time>2026-03-29T12:08:50Z</time>
      </trkpt>
      <trkpt lat="48.60043" lon="1.86522">
        <ele>172.8</ele>
        <time>2026-03-29T12:08:51Z</time>
      </trkpt>
      <trkpt lat="48.60049" lon="1.86526">
        <ele>172.8</ele>
        <time>2026-03-29T12:08:52Z</time>
      </trkpt>
      <trkpt lat="48.60055" lon="1.8653">
        <ele>172.8</ele>
        <time>2026-03-29T12:08:53Z</time>
      </trkpt>
      <trkpt lat="48.6006" lon="1.86535">
        <ele>173.8</ele>
        <time>2026-03-29T12:08:54Z</time>
      </trkpt>
      <trkpt lat="48.60065" lon="1.86539">
        <ele>173.8</ele>
        <time>2026-03-29T12:08:55Z</time>
      </trkpt>
      <trkpt lat="48.60071" lon="1.86543">
        <ele>173.8</ele>
        <time>2026-03-29T12:08:56Z</time>
      </trkpt>
      <trkpt lat="48.60077" lon="1.86547">
        <ele>173.8</ele>
        <time>2026-03-29T12:08:57Z</time>
      </trkpt>
      <trkpt lat="48.60082" lon="1.8655">
        <ele>175</ele>
        <time>2026-03-29T12:08:58Z</time>
      </trkpt>
      <trkpt lat="48.60088" lon="1.86552">
        <ele>175</ele>
        <time>2026-03-29T12:08:59Z</time>
      </trkpt>
      <trkpt lat="48.60094" lon="1.86554">
        <ele>175</ele>
        <time>2026-03-29T12:09:00Z</time>
      </trkpt>
      <trkpt lat="48.601" lon="1.86555">
        <ele>174.6</ele>
        <time>2026-03-29T12:09:01Z</time>
      </trkpt>
      <trkpt lat="48.60106" lon="1.86556">
        <ele>175.4</ele>
        <time>2026-03-29T12:09:02Z</time>
      </trkpt>
      <trkpt lat="48.60112" lon="1.86555">
        <ele>175.4</ele>
        <time>2026-03-29T12:09:03Z</time>
      </trkpt>
      <trkpt lat="48.60118" lon="1.86553">
        <ele>175.4</ele>
        <time>2026-03-29T12:09:04Z</time>
      </trkpt>
      <trkpt lat="48.60124" lon="1.8655">
        <ele>176</ele>
        <time>2026-03-29T12:09:05Z</time>
      </trkpt>
      <trkpt lat="48.60129" lon="1.86547">
        <ele>175.8</ele>
        <time>2026-03-29T12:09:06Z</time>
      </trkpt>
      <trkpt lat="48.60134" lon="1.86542">
        <ele>175.8</ele>
        <time>2026-03-29T12:09:07Z</time>
      </trkpt>
      <trkpt lat="48.60139" lon="1.86537">
        <ele>175.8</ele>
        <time>2026-03-29T12:09:08Z</time>
      </trkpt>
      <trkpt lat="48.60143" lon="1.86531">
        <ele>175.8</ele>
        <time>2026-03-29T12:09:09Z</time>
      </trkpt>
      <trkpt lat="48.60147" lon="1.86525">
        <ele>176</ele>
        <time>2026-03-29T12:09:10Z</time>
      </trkpt>
      <trkpt lat="48.60151" lon="1.86519">
        <ele>176</ele>
        <time>2026-03-29T12:09:11Z</time>
      </trkpt>
      <trkpt lat="48.60155" lon="1.86512">
        <ele>176</ele>
        <time>2026-03-29T12:09:12Z</time>
      </trkpt>
      <trkpt lat="48.60159" lon="1.86506">
        <ele>176</ele>
        <time>2026-03-29T12:09:13Z</time>
      </trkpt>
      <trkpt lat="48.60163" lon="1.865">
        <ele>176.4</ele>
        <time>2026-03-29T12:09:14Z</time>
      </trkpt>
      <trkpt lat="48.60167" lon="1.86494">
        <ele>176.4</ele>
        <time>2026-03-29T12:09:15Z</time>
      </trkpt>
      <trkpt lat="48.60171" lon="1.86488">
        <ele>176.4</ele>
        <time>2026-03-29T12:09:16Z</time>
      </trkpt>
      <trkpt lat="48.60174" lon="1.86482">
        <ele>176.4</ele>
        <time>2026-03-29T12:09:17Z</time>
      </trkpt>
      <trkpt lat="48.60178" lon="1.86476">
        <ele>176.2</ele>
        <time>2026-03-29T12:09:18Z</time>
      </trkpt>
      <trkpt lat="48.60182" lon="1.8647">
        <ele>176.2</ele>
        <time>2026-03-29T12:09:19Z</time>
      </trkpt>
      <trkpt lat="48.60185" lon="1.86465">
        <ele>176.2</ele>
        <time>2026-03-29T12:09:20Z</time>
      </trkpt>
      <trkpt lat="48.60189" lon="1.86459">
        <ele>176.2</ele>
        <time>2026-03-29T12:09:21Z</time>
      </trkpt>
      <trkpt lat="48.60193" lon="1.86453">
        <ele>177</ele>
        <time>2026-03-29T12:09:22Z</time>
      </trkpt>
      <trkpt lat="48.60197" lon="1.86448">
        <ele>177</ele>
        <time>2026-03-29T12:09:23Z</time>
      </trkpt>
      <trkpt lat="48.602" lon="1.86442">
        <ele>177</ele>
        <time>2026-03-29T12:09:24Z</time>
      </trkpt>
      <trkpt lat="48.60204" lon="1.86437">
        <ele>177</ele>
        <time>2026-03-29T12:09:25Z</time>
      </trkpt>
      <trkpt lat="48.60208" lon="1.86432">
        <ele>177</ele>
        <time>2026-03-29T12:09:26Z</time>
      </trkpt>
      <trkpt lat="48.60212" lon="1.86426">
        <ele>177</ele>
        <time>2026-03-29T12:09:27Z</time>
      </trkpt>
      <trkpt lat="48.60215" lon="1.86421">
        <ele>177</ele>
        <time>2026-03-29T12:09:28Z</time>
      </trkpt>
      <trkpt lat="48.60219" lon="1.86416">
        <ele>177</ele>
        <time>2026-03-29T12:09:29Z</time>
      </trkpt>
      <trkpt lat="48.60223" lon="1.8641">
        <ele>177</ele>
        <time>2026-03-29T12:09:30Z</time>
      </trkpt>
      <trkpt lat="48.60226" lon="1.86404">
        <ele>177</ele>
        <time>2026-03-29T12:09:31Z</time>
      </trkpt>
      <trkpt lat="48.6023" lon="1.86398">
        <ele>177</ele>
        <time>2026-03-29T12:09:32Z</time>
      </trkpt>
      <trkpt lat="48.60234" lon="1.86392">
        <ele>177</ele>
        <time>2026-03-29T12:09:33Z</time>
      </trkpt>
      <trkpt lat="48.60238" lon="1.86386">
        <ele>177.4</ele>
        <time>2026-03-29T12:09:34Z</time>
      </trkpt>
      <trkpt lat="48.60242" lon="1.8638">
        <ele>177.4</ele>
        <time>2026-03-29T12:09:35Z</time>
      </trkpt>
      <trkpt lat="48.60246" lon="1.86374">
        <ele>177.4</ele>
        <time>2026-03-29T12:09:36Z</time>
      </trkpt>
      <trkpt lat="48.6025" lon="1.86367">
        <ele>177.4</ele>
        <time>2026-03-29T12:09:37Z</time>
      </trkpt>
      <trkpt lat="48.60253" lon="1.86361">
        <ele>177.8</ele>
        <time>2026-03-29T12:09:38Z</time>
      </trkpt>
      <trkpt lat="48.60257" lon="1.86355">
        <ele>177.8</ele>
        <time>2026-03-29T12:09:39Z</time>
      </trkpt>
      <trkpt lat="48.60261" lon="1.86349">
        <ele>177.8</ele>
        <time>2026-03-29T12:09:40Z</time>
      </trkpt>
      <trkpt lat="48.60265" lon="1.86343">
        <ele>177</ele>
        <time>2026-03-29T12:09:41Z</time>
      </trkpt>
      <trkpt lat="48.60269" lon="1.86337">
        <ele>176</ele>
        <time>2026-03-29T12:09:42Z</time>
      </trkpt>
      <trkpt lat="48.60272" lon="1.86332">
        <ele>176</ele>
        <time>2026-03-29T12:09:43Z</time>
      </trkpt>
      <trkpt lat="48.60276" lon="1.86326">
        <ele>176</ele>
        <time>2026-03-29T12:09:44Z</time>
      </trkpt>
      <trkpt lat="48.6028" lon="1.86321">
        <ele>177</ele>
        <time>2026-03-29T12:09:45Z</time>
      </trkpt>
      <trkpt lat="48.60284" lon="1.86316">
        <ele>176.6</ele>
        <time>2026-03-29T12:09:46Z</time>
      </trkpt>
      <trkpt lat="48.60288" lon="1.8631">
        <ele>176.6</ele>
        <time>2026-03-29T12:09:47Z</time>
      </trkpt>
      <trkpt lat="48.60293" lon="1.86305">
        <ele>176.6</ele>
        <time>2026-03-29T12:09:48Z</time>
      </trkpt>
      <trkpt lat="48.60297" lon="1.863">
        <ele>177.6</ele>
        <time>2026-03-29T12:09:49Z</time>
      </trkpt>
      <trkpt lat="48.60302" lon="1.86295">
        <ele>177</ele>
        <time>2026-03-29T12:09:50Z</time>
      </trkpt>
      <trkpt lat="48.60306" lon="1.8629">
        <ele>177</ele>
        <time>2026-03-29T12:09:51Z</time>
      </trkpt>
      <trkpt lat="48.6031" lon="1.86285">
        <ele>177</ele>
        <time>2026-03-29T12:09:52Z</time>
      </trkpt>
      <trkpt lat="48.60315" lon="1.8628">
        <ele>177.4</ele>
        <time>2026-03-29T12:09:53Z</time>
      </trkpt>
      <trkpt lat="48.6032" lon="1.86275">
        <ele>177.8</ele>
        <time>2026-03-29T12:09:54Z</time>
      </trkpt>
      <trkpt lat="48.60324" lon="1.8627">
        <ele>177.8</ele>
        <time>2026-03-29T12:09:55Z</time>
      </trkpt>
      <trkpt lat="48.60328" lon="1.86265">
        <ele>177.8</ele>
        <time>2026-03-29T12:09:56Z</time>
      </trkpt>
      <trkpt lat="48.60333" lon="1.8626">
        <ele>177.8</ele>
        <time>2026-03-29T12:09:57Z</time>
      </trkpt>
      <trkpt lat="48.60337" lon="1.86256">
        <ele>177.8</ele>
        <time>2026-03-29T12:09:58Z</time>
      </trkpt>
      <trkpt lat="48.60341" lon="1.86251">
        <ele>177.8</ele>
        <time>2026-03-29T12:09:59Z</time>
      </trkpt>
      <trkpt lat="48.60346" lon="1.86246">
        <ele>177.8</ele>
        <time>2026-03-29T12:10:00Z</time>
      </trkpt>
      <trkpt lat="48.6035" lon="1.86242">
        <ele>177.8</ele>
        <time>2026-03-29T12:10:01Z</time>
      </trkpt>
      <trkpt lat="48.60354" lon="1.86238">
        <ele>177.8</ele>
        <time>2026-03-29T12:10:02Z</time>
      </trkpt>
      <trkpt lat="48.60358" lon="1.86233">
        <ele>177.8</ele>
        <time>2026-03-29T12:10:03Z</time>
      </trkpt>
      <trkpt lat="48.60362" lon="1.86229">
        <ele>177.8</ele>
        <time>2026-03-29T12:10:04Z</time>
      </trkpt>
      <trkpt lat="48.60366" lon="1.86224">
        <ele>177.8</ele>
        <time>2026-03-29T12:10:05Z</time>
      </trkpt>
      <trkpt lat="48.6037" lon="1.8622">
        <ele>178</ele>
        <time>2026-03-29T12:10:06Z</time>
      </trkpt>
      <trkpt lat="48.60374" lon="1.86215">
        <ele>178</ele>
        <time>2026-03-29T12:10:07Z</time>
      </trkpt>
      <trkpt lat="48.60379" lon="1.86211">
        <ele>178</ele>
        <time>2026-03-29T12:10:08Z</time>
      </trkpt>
      <trkpt lat="48.60383" lon="1.86206">
        <ele>178</ele>
        <time>2026-03-29T12:10:09Z</time>
      </trkpt>
      <trkpt lat="48.60387" lon="1.86202">
        <ele>177.6</ele>
        <time>2026-03-29T12:10:10Z</time>
      </trkpt>
      <trkpt lat="48.60391" lon="1.86197">
        <ele>177.6</ele>
        <time>2026-03-29T12:10:11Z</time>
      </trkpt>
      <trkpt lat="48.60395" lon="1.86192">
        <ele>177.6</ele>
        <time>2026-03-29T12:10:12Z</time>
      </trkpt>
      <trkpt lat="48.604" lon="1.86188">
        <ele>177.6</ele>
        <time>2026-03-29T12:10:13Z</time>
      </trkpt>
      <trkpt lat="48.60404" lon="1.86183">
        <ele>178</ele>
        <time>2026-03-29T12:10:14Z</time>
      </trkpt>
      <trkpt lat="48.60409" lon="1.86178">
        <ele>178</ele>
        <time>2026-03-29T12:10:15Z</time>
      </trkpt>
      <trkpt lat="48.60413" lon="1.86173">
        <ele>178</ele>
        <time>2026-03-29T12:10:16Z</time>
      </trkpt>
      <trkpt lat="48.60418" lon="1.86169">
        <ele>178</ele>
        <time>2026-03-29T12:10:17Z</time>
      </trkpt>
      <trkpt lat="48.60423" lon="1.86168">
        <ele>177.6</ele>
        <time>2026-03-29T12:10:18Z</time>
      </trkpt>
      <trkpt lat="48.60428" lon="1.86171">
        <ele>177.6</ele>
        <time>2026-03-29T12:10:19Z</time>
      </trkpt>
      <trkpt lat="48.60432" lon="1.86177">
        <ele>177.6</ele>
        <time>2026-03-29T12:10:20Z</time>
      </trkpt>
      <trkpt lat="48.60435" lon="1.86185">
        <ele>176.8</ele>
        <time>2026-03-29T12:10:21Z</time>
      </trkpt>
      <trkpt lat="48.60438" lon="1.86193">
        <ele>177.2</ele>
        <time>2026-03-29T12:10:22Z</time>
      </trkpt>
      <trkpt lat="48.6044" lon="1.86201">
        <ele>177.2</ele>
        <time>2026-03-29T12:10:23Z</time>
      </trkpt>
      <trkpt lat="48.60443" lon="1.86209">
        <ele>177.2</ele>
        <time>2026-03-29T12:10:24Z</time>
      </trkpt>
      <trkpt lat="48.60446" lon="1.86218">
        <ele>177.2</ele>
        <time>2026-03-29T12:10:25Z</time>
      </trkpt>
      <trkpt lat="48.60449" lon="1.86226">
        <ele>177.2</ele>
        <time>2026-03-29T12:10:26Z</time>
      </trkpt>
      <trkpt lat="48.60451" lon="1.86235">
        <ele>177.2</ele>
        <time>2026-03-29T12:10:27Z</time>
      </trkpt>
      <trkpt lat="48.60454" lon="1.86243">
        <ele>177.2</ele>
        <time>2026-03-29T12:10:28Z</time>
      </trkpt>
      <trkpt lat="48.60457" lon="1.86252">
        <ele>177.2</ele>
        <time>2026-03-29T12:10:29Z</time>
      </trkpt>
      <trkpt lat="48.6046" lon="1.86261">
        <ele>177</ele>
        <time>2026-03-29T12:10:30Z</time>
      </trkpt>
      <trkpt lat="48.60463" lon="1.8627">
        <ele>177</ele>
        <time>2026-03-29T12:10:31Z</time>
      </trkpt>
      <trkpt lat="48.60466" lon="1.86279">
        <ele>177</ele>
        <time>2026-03-29T12:10:32Z</time>
      </trkpt>
      <trkpt lat="48.60469" lon="1.86288">
        <ele>177</ele>
        <time>2026-03-29T12:10:33Z</time>
      </trkpt>
      <trkpt lat="48.60472" lon="1.86297">
        <ele>176.8</ele>
        <time>2026-03-29T12:10:34Z</time>
      </trkpt>
      <trkpt lat="48.60475" lon="1.86306">
        <ele>176.8</ele>
        <time>2026-03-29T12:10:35Z</time>
      </trkpt>
      <trkpt lat="48.60478" lon="1.86315">
        <ele>176.8</ele>
        <time>2026-03-29T12:10:36Z</time>
      </trkpt>
      <trkpt lat="48.60481" lon="1.86325">
        <ele>176.8</ele>
        <time>2026-03-29T12:10:37Z</time>
      </trkpt>
      <trkpt lat="48.60485" lon="1.86334">
        <ele>177</ele>
        <time>2026-03-29T12:10:38Z</time>
      </trkpt>
      <trkpt lat="48.60488" lon="1.86344">
        <ele>177</ele>
        <time>2026-03-29T12:10:39Z</time>
      </trkpt>
      <trkpt lat="48.60491" lon="1.86353">
        <ele>177</ele>
        <time>2026-03-29T12:10:40Z</time>
      </trkpt>
      <trkpt lat="48.60494" lon="1.86363">
        <ele>176</ele>
        <time>2026-03-29T12:10:41Z</time>
      </trkpt>
      <trkpt lat="48.60497" lon="1.86372">
        <ele>176</ele>
        <time>2026-03-29T12:10:42Z</time>
      </trkpt>
      <trkpt lat="48.605" lon="1.86382">
        <ele>176</ele>
        <time>2026-03-29T12:10:43Z</time>
      </trkpt>
      <trkpt lat="48.60504" lon="1.86392">
        <ele>176</ele>
        <time>2026-03-29T12:10:44Z</time>
      </trkpt>
      <trkpt lat="48.60507" lon="1.86401">
        <ele>176</ele>
        <time>2026-03-29T12:10:45Z</time>
      </trkpt>
      <trkpt lat="48.6051" lon="1.86411">
        <ele>176.2</ele>
        <time>2026-03-29T12:10:46Z</time>
      </trkpt>
      <trkpt lat="48.60514" lon="1.8642">
        <ele>176.2</ele>
        <time>2026-03-29T12:10:47Z</time>
      </trkpt>
      <trkpt lat="48.60517" lon="1.8643">
        <ele>176.2</ele>
        <time>2026-03-29T12:10:48Z</time>
      </trkpt>
      <trkpt lat="48.60521" lon="1.86439">
        <ele>176.2</ele>
        <time>2026-03-29T12:10:49Z</time>
      </trkpt>
      <trkpt lat="48.60524" lon="1.86449">
        <ele>176.2</ele>
        <time>2026-03-29T12:10:50Z</time>
      </trkpt>
      <trkpt lat="48.60528" lon="1.86458">
        <ele>176.2</ele>
        <time>2026-03-29T12:10:51Z</time>
      </trkpt>
      <trkpt lat="48.60531" lon="1.86467">
        <ele>176.2</ele>
        <time>2026-03-29T12:10:52Z</time>
      </trkpt>
      <trkpt lat="48.60534" lon="1.86477">
        <ele>175.6</ele>
        <time>2026-03-29T12:10:53Z</time>
      </trkpt>
      <trkpt lat="48.60538" lon="1.86486">
        <ele>175.8</ele>
        <time>2026-03-29T12:10:54Z</time>
      </trkpt>
      <trkpt lat="48.60542" lon="1.86494">
        <ele>175.8</ele>
        <time>2026-03-29T12:10:55Z</time>
      </trkpt>
      <trkpt lat="48.60546" lon="1.86503">
        <ele>175.8</ele>
        <time>2026-03-29T12:10:56Z</time>
      </trkpt>
      <trkpt lat="48.60551" lon="1.86511">
        <ele>176.8</ele>
        <time>2026-03-29T12:10:57Z</time>
      </trkpt>
      <trkpt lat="48.60556" lon="1.86517">
        <ele>176.4</ele>
        <time>2026-03-29T12:10:58Z</time>
      </trkpt>
      <trkpt lat="48.60562" lon="1.86523">
        <ele>176.4</ele>
        <time>2026-03-29T12:10:59Z</time>
      </trkpt>
      <trkpt lat="48.60568" lon="1.86528">
        <ele>176.4</ele>
        <time>2026-03-29T12:11:00Z</time>
      </trkpt>
      <trkpt lat="48.60574" lon="1.86533">
        <ele>176.4</ele>
        <time>2026-03-29T12:11:01Z</time>
      </trkpt>
      <trkpt lat="48.6058" lon="1.86538">
        <ele>176.4</ele>
        <time>2026-03-29T12:11:02Z</time>
      </trkpt>
      <trkpt lat="48.60585" lon="1.86542">
        <ele>176.4</ele>
        <time>2026-03-29T12:11:03Z</time>
      </trkpt>
      <trkpt lat="48.60591" lon="1.86547">
        <ele>176.4</ele>
        <time>2026-03-29T12:11:04Z</time>
      </trkpt>
      <trkpt lat="48.60597" lon="1.86551">
        <ele>176.4</ele>
        <time>2026-03-29T12:11:05Z</time>
      </trkpt>
      <trkpt lat="48.60603" lon="1.86555">
        <ele>176</ele>
        <time>2026-03-29T12:11:06Z</time>
      </trkpt>
      <trkpt lat="48.60608" lon="1.86559">
        <ele>176</ele>
        <time>2026-03-29T12:11:07Z</time>
      </trkpt>
      <trkpt lat="48.60614" lon="1.86562">
        <ele>176</ele>
        <time>2026-03-29T12:11:08Z</time>
      </trkpt>
      <trkpt lat="48.60619" lon="1.86566">
        <ele>176</ele>
        <time>2026-03-29T12:11:09Z</time>
      </trkpt>
      <trkpt lat="48.60625" lon="1.86569">
        <ele>176</ele>
        <time>2026-03-29T12:11:10Z</time>
      </trkpt>
      <trkpt lat="48.6063" lon="1.86573">
        <ele>176</ele>
        <time>2026-03-29T12:11:11Z</time>
      </trkpt>
      <trkpt lat="48.60636" lon="1.86576">
        <ele>176</ele>
        <time>2026-03-29T12:11:12Z</time>
      </trkpt>
      <trkpt lat="48.60641" lon="1.86579">
        <ele>176</ele>
        <time>2026-03-29T12:11:13Z</time>
      </trkpt>
      <trkpt lat="48.60647" lon="1.86583">
        <ele>176.4</ele>
        <time>2026-03-29T12:11:14Z</time>
      </trkpt>
      <trkpt lat="48.60653" lon="1.86586">
        <ele>176.4</ele>
        <time>2026-03-29T12:11:15Z</time>
      </trkpt>
      <trkpt lat="48.60659" lon="1.8659">
        <ele>176.4</ele>
        <time>2026-03-29T12:11:16Z</time>
      </trkpt>
      <trkpt lat="48.60665" lon="1.86593">
        <ele>177</ele>
        <time>2026-03-29T12:11:17Z</time>
      </trkpt>
      <trkpt lat="48.6067" lon="1.86596">
        <ele>177.6</ele>
        <time>2026-03-29T12:11:18Z</time>
      </trkpt>
      <trkpt lat="48.60676" lon="1.866">
        <ele>177.6</ele>
        <time>2026-03-29T12:11:19Z</time>
      </trkpt>
      <trkpt lat="48.60682" lon="1.86604">
        <ele>177.6</ele>
        <time>2026-03-29T12:11:20Z</time>
      </trkpt>
      <trkpt lat="48.60687" lon="1.86608">
        <ele>177.6</ele>
        <time>2026-03-29T12:11:21Z</time>
      </trkpt>
      <trkpt lat="48.60692" lon="1.86612">
        <ele>177.4</ele>
        <time>2026-03-29T12:11:22Z</time>
      </trkpt>
      <trkpt lat="48.60697" lon="1.86616">
        <ele>177.4</ele>
        <time>2026-03-29T12:11:23Z</time>
      </trkpt>
      <trkpt lat="48.60703" lon="1.86622">
        <ele>177.4</ele>
        <time>2026-03-29T12:11:24Z</time>
      </trkpt>
      <trkpt lat="48.60707" lon="1.86627">
        <ele>177.4</ele>
        <time>2026-03-29T12:11:25Z</time>
      </trkpt>
      <trkpt lat="48.60712" lon="1.86633">
        <ele>177.6</ele>
        <time>2026-03-29T12:11:26Z</time>
      </trkpt>
      <trkpt lat="48.60716" lon="1.8664">
        <ele>177.6</ele>
        <time>2026-03-29T12:11:27Z</time>
      </trkpt>
      <trkpt lat="48.6072" lon="1.86646">
        <ele>177.6</ele>
        <time>2026-03-29T12:11:28Z</time>
      </trkpt>
      <trkpt lat="48.60724" lon="1.86653">
        <ele>177.6</ele>
        <time>2026-03-29T12:11:29Z</time>
      </trkpt>
      <trkpt lat="48.60728" lon="1.8666">
        <ele>177.8</ele>
        <time>2026-03-29T12:11:30Z</time>
      </trkpt>
      <trkpt lat="48.60731" lon="1.86668">
        <ele>177.8</ele>
        <time>2026-03-29T12:11:31Z</time>
      </trkpt>
      <trkpt lat="48.60735" lon="1.86675">
        <ele>177.8</ele>
        <time>2026-03-29T12:11:32Z</time>
      </trkpt>
      <trkpt lat="48.60738" lon="1.86682">
        <ele>178.2</ele>
        <time>2026-03-29T12:11:33Z</time>
      </trkpt>
      <trkpt lat="48.60741" lon="1.8669">
        <ele>178.2</ele>
        <time>2026-03-29T12:11:34Z</time>
      </trkpt>
      <trkpt lat="48.60745" lon="1.86697">
        <ele>178.2</ele>
        <time>2026-03-29T12:11:35Z</time>
      </trkpt>
      <trkpt lat="48.60748" lon="1.86705">
        <ele>178.2</ele>
        <time>2026-03-29T12:11:36Z</time>
      </trkpt>
      <trkpt lat="48.60751" lon="1.86712">
        <ele>178.4</ele>
        <time>2026-03-29T12:11:37Z</time>
      </trkpt>
      <trkpt lat="48.60755" lon="1.8672">
        <ele>178.2</ele>
        <time>2026-03-29T12:11:38Z</time>
      </trkpt>
      <trkpt lat="48.60758" lon="1.86727">
        <ele>178.2</ele>
        <time>2026-03-29T12:11:39Z</time>
      </trkpt>
      <trkpt lat="48.60761" lon="1.86734">
        <ele>178.2</ele>
        <time>2026-03-29T12:11:40Z</time>
      </trkpt>
      <trkpt lat="48.60765" lon="1.86742">
        <ele>178.2</ele>
        <time>2026-03-29T12:11:41Z</time>
      </trkpt>
      <trkpt lat="48.60768" lon="1.86749">
        <ele>178.4</ele>
        <time>2026-03-29T12:11:42Z</time>
      </trkpt>
      <trkpt lat="48.60772" lon="1.86757">
        <ele>178.4</ele>
        <time>2026-03-29T12:11:43Z</time>
      </trkpt>
      <trkpt lat="48.60776" lon="1.86764">
        <ele>178.4</ele>
        <time>2026-03-29T12:11:44Z</time>
      </trkpt>
      <trkpt lat="48.6078" lon="1.86771">
        <ele>178.4</ele>
        <time>2026-03-29T12:11:45Z</time>
      </trkpt>
      <trkpt lat="48.60784" lon="1.86778">
        <ele>178.4</ele>
        <time>2026-03-29T12:11:46Z</time>
      </trkpt>
      <trkpt lat="48.60788" lon="1.86785">
        <ele>178.4</ele>
        <time>2026-03-29T12:11:47Z</time>
      </trkpt>
      <trkpt lat="48.60792" lon="1.86792">
        <ele>178.4</ele>
        <time>2026-03-29T12:11:48Z</time>
      </trkpt>
      <trkpt lat="48.60796" lon="1.86798">
        <ele>178.4</ele>
        <time>2026-03-29T12:11:49Z</time>
      </trkpt>
      <trkpt lat="48.608" lon="1.86805">
        <ele>177.8</ele>
        <time>2026-03-29T12:11:50Z</time>
      </trkpt>
      <trkpt lat="48.60805" lon="1.86812">
        <ele>177.8</ele>
        <time>2026-03-29T12:11:51Z</time>
      </trkpt>
      <trkpt lat="48.60809" lon="1.86819">
        <ele>177.8</ele>
        <time>2026-03-29T12:11:52Z</time>
      </trkpt>
      <trkpt lat="48.60813" lon="1.86826">
        <ele>178</ele>
        <time>2026-03-29T12:11:53Z</time>
      </trkpt>
      <trkpt lat="48.60818" lon="1.86833">
        <ele>177.4</ele>
        <time>2026-03-29T12:11:54Z</time>
      </trkpt>
      <trkpt lat="48.60823" lon="1.86841">
        <ele>177.4</ele>
        <time>2026-03-29T12:11:55Z</time>
      </trkpt>
      <trkpt lat="48.60827" lon="1.86848">
        <ele>177.4</ele>
        <time>2026-03-29T12:11:56Z</time>
      </trkpt>
      <trkpt lat="48.60832" lon="1.86855">
        <ele>177.4</ele>
        <time>2026-03-29T12:11:57Z</time>
      </trkpt>
      <trkpt lat="48.60837" lon="1.86863">
        <ele>176.8</ele>
        <time>2026-03-29T12:11:58Z</time>
      </trkpt>
      <trkpt lat="48.60842" lon="1.86871">
        <ele>176.8</ele>
        <time>2026-03-29T12:11:59Z</time>
      </trkpt>
      <trkpt lat="48.60847" lon="1.86879">
        <ele>176.8</ele>
        <time>2026-03-29T12:12:00Z</time>
      </trkpt>
      <trkpt lat="48.60853" lon="1.86886">
        <ele>176.4</ele>
        <time>2026-03-29T12:12:01Z</time>
      </trkpt>
      <trkpt lat="48.60858" lon="1.86894">
        <ele>176.4</ele>
        <time>2026-03-29T12:12:02Z</time>
      </trkpt>
      <trkpt lat="48.60864" lon="1.86902">
        <ele>176.4</ele>
        <time>2026-03-29T12:12:03Z</time>
      </trkpt>
      <trkpt lat="48.6087" lon="1.86909">
        <ele>176.4</ele>
        <time>2026-03-29T12:12:04Z</time>
      </trkpt>
      <trkpt lat="48.60876" lon="1.86916">
        <ele>176.4</ele>
        <time>2026-03-29T12:12:05Z</time>
      </trkpt>
      <trkpt lat="48.60882" lon="1.86923">
        <ele>176</ele>
        <time>2026-03-29T12:12:06Z</time>
      </trkpt>
      <trkpt lat="48.60888" lon="1.8693">
        <ele>176</ele>
        <time>2026-03-29T12:12:07Z</time>
      </trkpt>
      <trkpt lat="48.60894" lon="1.86936">
        <ele>176</ele>
        <time>2026-03-29T12:12:08Z</time>
      </trkpt>
      <trkpt lat="48.60901" lon="1.86943">
        <ele>175.8</ele>
        <time>2026-03-29T12:12:09Z</time>
      </trkpt>
      <trkpt lat="48.60908" lon="1.86948">
        <ele>175.4</ele>
        <time>2026-03-29T12:12:10Z</time>
      </trkpt>
      <trkpt lat="48.60914" lon="1.86954">
        <ele>175.4</ele>
        <time>2026-03-29T12:12:11Z</time>
      </trkpt>
      <trkpt lat="48.60921" lon="1.8696">
        <ele>175.4</ele>
        <time>2026-03-29T12:12:12Z</time>
      </trkpt>
      <trkpt lat="48.60928" lon="1.86965">
        <ele>175.4</ele>
        <time>2026-03-29T12:12:13Z</time>
      </trkpt>
      <trkpt lat="48.60934" lon="1.86971">
        <ele>174.8</ele>
        <time>2026-03-29T12:12:14Z</time>
      </trkpt>
      <trkpt lat="48.60941" lon="1.86976">
        <ele>174.8</ele>
        <time>2026-03-29T12:12:15Z</time>
      </trkpt>
      <trkpt lat="48.60947" lon="1.86982">
        <ele>174.8</ele>
        <time>2026-03-29T12:12:16Z</time>
      </trkpt>
      <trkpt lat="48.60954" lon="1.86987">
        <ele>174.4</ele>
        <time>2026-03-29T12:12:17Z</time>
      </trkpt>
      <trkpt lat="48.60961" lon="1.86992">
        <ele>174.4</ele>
        <time>2026-03-29T12:12:18Z</time>
      </trkpt>
      <trkpt lat="48.60968" lon="1.86997">
        <ele>174.4</ele>
        <time>2026-03-29T12:12:19Z</time>
      </trkpt>
      <trkpt lat="48.60975" lon="1.87002">
        <ele>174.4</ele>
        <time>2026-03-29T12:12:20Z</time>
      </trkpt>
      <trkpt lat="48.60982" lon="1.87006">
        <ele>174.4</ele>
        <time>2026-03-29T12:12:21Z</time>
      </trkpt>
      <trkpt lat="48.60988" lon="1.8701">
        <ele>174.8</ele>
        <time>2026-03-29T12:12:22Z</time>
      </trkpt>
      <trkpt lat="48.60995" lon="1.87015">
        <ele>174.8</ele>
        <time>2026-03-29T12:12:23Z</time>
      </trkpt>
      <trkpt lat="48.61002" lon="1.8702">
        <ele>174.8</ele>
        <time>2026-03-29T12:12:24Z</time>
      </trkpt>
      <trkpt lat="48.61009" lon="1.87024">
        <ele>174.4</ele>
        <time>2026-03-29T12:12:25Z</time>
      </trkpt>
      <trkpt lat="48.61017" lon="1.87028">
        <ele>174.4</ele>
        <time>2026-03-29T12:12:26Z</time>
      </trkpt>
      <trkpt lat="48.61024" lon="1.87031">
        <ele>174.4</ele>
        <time>2026-03-29T12:12:27Z</time>
      </trkpt>
      <trkpt lat="48.61032" lon="1.87035">
        <ele>174.4</ele>
        <time>2026-03-29T12:12:28Z</time>
      </trkpt>
      <trkpt lat="48.61039" lon="1.87039">
        <ele>174.4</ele>
        <time>2026-03-29T12:12:29Z</time>
      </trkpt>
      <trkpt lat="48.61046" lon="1.87043">
        <ele>175</ele>
        <time>2026-03-29T12:12:30Z</time>
      </trkpt>
      <trkpt lat="48.61053" lon="1.87048">
        <ele>175</ele>
        <time>2026-03-29T12:12:31Z</time>
      </trkpt>
      <trkpt lat="48.61059" lon="1.87052">
        <ele>175</ele>
        <time>2026-03-29T12:12:32Z</time>
      </trkpt>
      <trkpt lat="48.61066" lon="1.87057">
        <ele>175</ele>
        <time>2026-03-29T12:12:33Z</time>
      </trkpt>
      <trkpt lat="48.61072" lon="1.87062">
        <ele>175.4</ele>
        <time>2026-03-29T12:12:34Z</time>
      </trkpt>
      <trkpt lat="48.61078" lon="1.87068">
        <ele>175.4</ele>
        <time>2026-03-29T12:12:35Z</time>
      </trkpt>
      <trkpt lat="48.61083" lon="1.87074">
        <ele>175.4</ele>
        <time>2026-03-29T12:12:36Z</time>
      </trkpt>
      <trkpt lat="48.61089" lon="1.87081">
        <ele>175.4</ele>
        <time>2026-03-29T12:12:37Z</time>
      </trkpt>
      <trkpt lat="48.61094" lon="1.87088">
        <ele>174.4</ele>
        <time>2026-03-29T12:12:38Z</time>
      </trkpt>
      <trkpt lat="48.61099" lon="1.87096">
        <ele>174.4</ele>
        <time>2026-03-29T12:12:39Z</time>
      </trkpt>
      <trkpt lat="48.61104" lon="1.87103">
        <ele>174.4</ele>
        <time>2026-03-29T12:12:40Z</time>
      </trkpt>
      <trkpt lat="48.61108" lon="1.87111">
        <ele>174.4</ele>
        <time>2026-03-29T12:12:41Z</time>
      </trkpt>
      <trkpt lat="48.61112" lon="1.87119">
        <ele>174.8</ele>
        <time>2026-03-29T12:12:42Z</time>
      </trkpt>
      <trkpt lat="48.61117" lon="1.87127">
        <ele>174.8</ele>
        <time>2026-03-29T12:12:43Z</time>
      </trkpt>
      <trkpt lat="48.6112" lon="1.87136">
        <ele>174.8</ele>
        <time>2026-03-29T12:12:44Z</time>
      </trkpt>
      <trkpt lat="48.61124" lon="1.87144">
        <ele>174.8</ele>
        <time>2026-03-29T12:12:45Z</time>
      </trkpt>
      <trkpt lat="48.61127" lon="1.87152">
        <ele>175.4</ele>
        <time>2026-03-29T12:12:46Z</time>
      </trkpt>
      <trkpt lat="48.6113" lon="1.87159">
        <ele>175.4</ele>
        <time>2026-03-29T12:12:47Z</time>
      </trkpt>
      <trkpt lat="48.61134" lon="1.87166">
        <ele>175.4</ele>
        <time>2026-03-29T12:12:48Z</time>
      </trkpt>
      <trkpt lat="48.61137" lon="1.87174">
        <ele>175.4</ele>
        <time>2026-03-29T12:12:49Z</time>
      </trkpt>
      <trkpt lat="48.61141" lon="1.87182">
        <ele>175.4</ele>
        <time>2026-03-29T12:12:50Z</time>
      </trkpt>
      <trkpt lat="48.61144" lon="1.87189">
        <ele>175.4</ele>
        <time>2026-03-29T12:12:51Z</time>
      </trkpt>
      <trkpt lat="48.61147" lon="1.87196">
        <ele>175.4</ele>
        <time>2026-03-29T12:12:52Z</time>
      </trkpt>
      <trkpt lat="48.61151" lon="1.87204">
        <ele>176.2</ele>
        <time>2026-03-29T12:12:53Z</time>
      </trkpt>
      <trkpt lat="48.61154" lon="1.87211">
        <ele>176</ele>
        <time>2026-03-29T12:12:54Z</time>
      </trkpt>
      <trkpt lat="48.61157" lon="1.87219">
        <ele>176</ele>
        <time>2026-03-29T12:12:55Z</time>
      </trkpt>
      <trkpt lat="48.61161" lon="1.87226">
        <ele>176</ele>
        <time>2026-03-29T12:12:56Z</time>
      </trkpt>
      <trkpt lat="48.61165" lon="1.87233">
        <ele>176</ele>
        <time>2026-03-29T12:12:57Z</time>
      </trkpt>
      <trkpt lat="48.6117" lon="1.8724">
        <ele>176</ele>
        <time>2026-03-29T12:12:58Z</time>
      </trkpt>
      <trkpt lat="48.61174" lon="1.87247">
        <ele>176</ele>
        <time>2026-03-29T12:12:59Z</time>
      </trkpt>
      <trkpt lat="48.61179" lon="1.87254">
        <ele>176</ele>
        <time>2026-03-29T12:13:00Z</time>
      </trkpt>
      <trkpt lat="48.61183" lon="1.87261">
        <ele>175.6</ele>
        <time>2026-03-29T12:13:01Z</time>
      </trkpt>
      <trkpt lat="48.61188" lon="1.87268">
        <ele>175.6</ele>
        <time>2026-03-29T12:13:02Z</time>
      </trkpt>
      <trkpt lat="48.61192" lon="1.87275">
        <ele>175.6</ele>
        <time>2026-03-29T12:13:03Z</time>
      </trkpt>
      <trkpt lat="48.61197" lon="1.87282">
        <ele>175.6</ele>
        <time>2026-03-29T12:13:04Z</time>
      </trkpt>
      <trkpt lat="48.61202" lon="1.87289">
        <ele>175.6</ele>
        <time>2026-03-29T12:13:05Z</time>
      </trkpt>
      <trkpt lat="48.61206" lon="1.87296">
        <ele>175.4</ele>
        <time>2026-03-29T12:13:06Z</time>
      </trkpt>
      <trkpt lat="48.61211" lon="1.87303">
        <ele>175.4</ele>
        <time>2026-03-29T12:13:07Z</time>
      </trkpt>
      <trkpt lat="48.61216" lon="1.8731">
        <ele>175.4</ele>
        <time>2026-03-29T12:13:08Z</time>
      </trkpt>
      <trkpt lat="48.61221" lon="1.87317">
        <ele>175.2</ele>
        <time>2026-03-29T12:13:09Z</time>
      </trkpt>
      <trkpt lat="48.61226" lon="1.87324">
        <ele>175.2</ele>
        <time>2026-03-29T12:13:10Z</time>
      </trkpt>
      <trkpt lat="48.61231" lon="1.87331">
        <ele>175.2</ele>
        <time>2026-03-29T12:13:11Z</time>
      </trkpt>
      <trkpt lat="48.61236" lon="1.87338">
        <ele>175.2</ele>
        <time>2026-03-29T12:13:12Z</time>
      </trkpt>
      <trkpt lat="48.61241" lon="1.87345">
        <ele>175.2</ele>
        <time>2026-03-29T12:13:13Z</time>
      </trkpt>
      <trkpt lat="48.61247" lon="1.87352">
        <ele>175.2</ele>
        <time>2026-03-29T12:13:14Z</time>
      </trkpt>
      <trkpt lat="48.61252" lon="1.87359">
        <ele>175.2</ele>
        <time>2026-03-29T12:13:15Z</time>
      </trkpt>
      <trkpt lat="48.61257" lon="1.87366">
        <ele>175.2</ele>
        <time>2026-03-29T12:13:16Z</time>
      </trkpt>
      <trkpt lat="48.61262" lon="1.87372">
        <ele>175.2</ele>
        <time>2026-03-29T12:13:17Z</time>
      </trkpt>
      <trkpt lat="48.61267" lon="1.8738">
        <ele>175.2</ele>
        <time>2026-03-29T12:13:18Z</time>
      </trkpt>
      <trkpt lat="48.61272" lon="1.87387">
        <ele>175.2</ele>
        <time>2026-03-29T12:13:19Z</time>
      </trkpt>
      <trkpt lat="48.61277" lon="1.87394">
        <ele>175.2</ele>
        <time>2026-03-29T12:13:20Z</time>
      </trkpt>
      <trkpt lat="48.61283" lon="1.87401">
        <ele>175.2</ele>
        <time>2026-03-29T12:13:21Z</time>
      </trkpt>
      <trkpt lat="48.61288" lon="1.87408">
        <ele>175.6</ele>
        <time>2026-03-29T12:13:22Z</time>
      </trkpt>
      <trkpt lat="48.61293" lon="1.87415">
        <ele>175.6</ele>
        <time>2026-03-29T12:13:23Z</time>
      </trkpt>
      <trkpt lat="48.61298" lon="1.87422">
        <ele>175.6</ele>
        <time>2026-03-29T12:13:24Z</time>
      </trkpt>
      <trkpt lat="48.61303" lon="1.87429">
        <ele>175.6</ele>
        <time>2026-03-29T12:13:25Z</time>
      </trkpt>
      <trkpt lat="48.61308" lon="1.87435">
        <ele>175.8</ele>
        <time>2026-03-29T12:13:26Z</time>
      </trkpt>
      <trkpt lat="48.61312" lon="1.87442">
        <ele>175.8</ele>
        <time>2026-03-29T12:13:27Z</time>
      </trkpt>
      <trkpt lat="48.61317" lon="1.87448">
        <ele>175.8</ele>
        <time>2026-03-29T12:13:28Z</time>
      </trkpt>
      <trkpt lat="48.6132" lon="1.87454">
        <ele>175</ele>
        <time>2026-03-29T12:13:29Z</time>
      </trkpt>
      <trkpt lat="48.61324" lon="1.87461">
        <ele>175</ele>
        <time>2026-03-29T12:13:30Z</time>
      </trkpt>
      <trkpt lat="48.61329" lon="1.87467">
        <ele>175</ele>
        <time>2026-03-29T12:13:31Z</time>
      </trkpt>
      <trkpt lat="48.61333" lon="1.87472">
        <ele>175</ele>
        <time>2026-03-29T12:13:32Z</time>
      </trkpt>
      <trkpt lat="48.61336" lon="1.87478">
        <ele>175.8</ele>
        <time>2026-03-29T12:13:33Z</time>
      </trkpt>
      <trkpt lat="48.6134" lon="1.87483">
        <ele>175.4</ele>
        <time>2026-03-29T12:13:34Z</time>
      </trkpt>
      <trkpt lat="48.61344" lon="1.87488">
        <ele>175.4</ele>
        <time>2026-03-29T12:13:35Z</time>
      </trkpt>
      <trkpt lat="48.61347" lon="1.87493">
        <ele>175.4</ele>
        <time>2026-03-29T12:13:36Z</time>
      </trkpt>
      <trkpt lat="48.6135" lon="1.87498">
        <ele>175.6</ele>
        <time>2026-03-29T12:13:37Z</time>
      </trkpt>
      <trkpt lat="48.61354" lon="1.87501">
        <ele>175.8</ele>
        <time>2026-03-29T12:13:38Z</time>
      </trkpt>
      <trkpt lat="48.61358" lon="1.875">
        <ele>175.8</ele>
        <time>2026-03-29T12:13:39Z</time>
      </trkpt>
      <trkpt lat="48.61361" lon="1.87496">
        <ele>175.8</ele>
        <time>2026-03-29T12:13:40Z</time>
      </trkpt>
      <trkpt lat="48.61364" lon="1.87492">
        <ele>175.4</ele>
        <time>2026-03-29T12:13:41Z</time>
      </trkpt>
      <trkpt lat="48.61367" lon="1.87488">
        <ele>175.4</ele>
        <time>2026-03-29T12:13:42Z</time>
      </trkpt>
      <trkpt lat="48.61369" lon="1.87483">
        <ele>175.4</ele>
        <time>2026-03-29T12:13:43Z</time>
      </trkpt>
      <trkpt lat="48.61371" lon="1.87478">
        <ele>175.4</ele>
        <time>2026-03-29T12:13:44Z</time>
      </trkpt>
      <trkpt lat="48.61374" lon="1.87473">
        <ele>175.4</ele>
        <time>2026-03-29T12:13:45Z</time>
      </trkpt>
      <trkpt lat="48.61377" lon="1.87468">
        <ele>175.6</ele>
        <time>2026-03-29T12:13:46Z</time>
      </trkpt>
      <trkpt lat="48.6138" lon="1.87463">
        <ele>175.6</ele>
        <time>2026-03-29T12:13:47Z</time>
      </trkpt>
      <trkpt lat="48.61382" lon="1.87457">
        <ele>175.6</ele>
        <time>2026-03-29T12:13:48Z</time>
      </trkpt>
      <trkpt lat="48.61384" lon="1.87452">
        <ele>175</ele>
        <time>2026-03-29T12:13:49Z</time>
      </trkpt>
      <trkpt lat="48.61386" lon="1.87447">
        <ele>175</ele>
        <time>2026-03-29T12:13:50Z</time>
      </trkpt>
      <trkpt lat="48.61389" lon="1.87442">
        <ele>175</ele>
        <time>2026-03-29T12:13:51Z</time>
      </trkpt>
      <trkpt lat="48.61391" lon="1.87435">
        <ele>175</ele>
        <time>2026-03-29T12:13:52Z</time>
      </trkpt>
      <trkpt lat="48.61394" lon="1.87429">
        <ele>175</ele>
        <time>2026-03-29T12:13:53Z</time>
      </trkpt>
      <trkpt lat="48.61398" lon="1.87423">
        <ele>175.4</ele>
        <time>2026-03-29T12:13:54Z</time>
      </trkpt>
      <trkpt lat="48.61401" lon="1.87417">
        <ele>175.4</ele>
        <time>2026-03-29T12:13:55Z</time>
      </trkpt>
      <trkpt lat="48.61404" lon="1.87411">
        <ele>175.4</ele>
        <time>2026-03-29T12:13:56Z</time>
      </trkpt>
      <trkpt lat="48.61407" lon="1.87404">
        <ele>175.4</ele>
        <time>2026-03-29T12:13:57Z</time>
      </trkpt>
      <trkpt lat="48.61411" lon="1.87397">
        <ele>175.4</ele>
        <time>2026-03-29T12:13:58Z</time>
      </trkpt>
      <trkpt lat="48.61414" lon="1.87389">
        <ele>175.4</ele>
        <time>2026-03-29T12:13:59Z</time>
      </trkpt>
      <trkpt lat="48.61417" lon="1.87383">
        <ele>175.4</ele>
        <time>2026-03-29T12:14:00Z</time>
      </trkpt>
      <trkpt lat="48.6142" lon="1.87376">
        <ele>175.4</ele>
        <time>2026-03-29T12:14:01Z</time>
      </trkpt>
      <trkpt lat="48.61422" lon="1.87369">
        <ele>175.4</ele>
        <time>2026-03-29T12:14:02Z</time>
      </trkpt>
      <trkpt lat="48.61425" lon="1.87363">
        <ele>175.4</ele>
        <time>2026-03-29T12:14:03Z</time>
      </trkpt>
      <trkpt lat="48.61427" lon="1.87356">
        <ele>175.4</ele>
        <time>2026-03-29T12:14:04Z</time>
      </trkpt>
      <trkpt lat="48.61431" lon="1.87349">
        <ele>175.4</ele>
        <time>2026-03-29T12:14:05Z</time>
      </trkpt>
      <trkpt lat="48.61433" lon="1.87342">
        <ele>175.8</ele>
        <time>2026-03-29T12:14:06Z</time>
      </trkpt>
      <trkpt lat="48.61436" lon="1.87335">
        <ele>175.8</ele>
        <time>2026-03-29T12:14:07Z</time>
      </trkpt>
      <trkpt lat="48.61439" lon="1.87328">
        <ele>175.8</ele>
        <time>2026-03-29T12:14:08Z</time>
      </trkpt>
      <trkpt lat="48.61441" lon="1.87321">
        <ele>175.4</ele>
        <time>2026-03-29T12:14:09Z</time>
      </trkpt>
      <trkpt lat="48.61444" lon="1.87313">
        <ele>175.4</ele>
        <time>2026-03-29T12:14:10Z</time>
      </trkpt>
      <trkpt lat="48.61446" lon="1.87306">
        <ele>175.4</ele>
        <time>2026-03-29T12:14:11Z</time>
      </trkpt>
      <trkpt lat="48.6145" lon="1.87298">
        <ele>175.4</ele>
        <time>2026-03-29T12:14:12Z</time>
      </trkpt>
      <trkpt lat="48.61452" lon="1.87291">
        <ele>175.4</ele>
        <time>2026-03-29T12:14:13Z</time>
      </trkpt>
      <trkpt lat="48.61454" lon="1.87283">
        <ele>175.6</ele>
        <time>2026-03-29T12:14:14Z</time>
      </trkpt>
      <trkpt lat="48.61456" lon="1.87275">
        <ele>175.6</ele>
        <time>2026-03-29T12:14:15Z</time>
      </trkpt>
      <trkpt lat="48.61459" lon="1.87267">
        <ele>175.6</ele>
        <time>2026-03-29T12:14:16Z</time>
      </trkpt>
      <trkpt lat="48.61462" lon="1.8726">
        <ele>175.6</ele>
        <time>2026-03-29T12:14:17Z</time>
      </trkpt>
      <trkpt lat="48.61465" lon="1.87252">
        <ele>176</ele>
        <time>2026-03-29T12:14:18Z</time>
      </trkpt>
      <trkpt lat="48.61468" lon="1.87244">
        <ele>176</ele>
        <time>2026-03-29T12:14:19Z</time>
      </trkpt>
      <trkpt lat="48.61471" lon="1.87237">
        <ele>176</ele>
        <time>2026-03-29T12:14:20Z</time>
      </trkpt>
      <trkpt lat="48.61474" lon="1.87229">
        <ele>176</ele>
        <time>2026-03-29T12:14:21Z</time>
      </trkpt>
      <trkpt lat="48.61477" lon="1.87222">
        <ele>176.2</ele>
        <time>2026-03-29T12:14:22Z</time>
      </trkpt>
      <trkpt lat="48.61479" lon="1.87214">
        <ele>176.2</ele>
        <time>2026-03-29T12:14:23Z</time>
      </trkpt>
      <trkpt lat="48.61482" lon="1.87206">
        <ele>176.2</ele>
        <time>2026-03-29T12:14:24Z</time>
      </trkpt>
      <trkpt lat="48.61484" lon="1.87198">
        <ele>176.2</ele>
        <time>2026-03-29T12:14:25Z</time>
      </trkpt>
      <trkpt lat="48.61487" lon="1.87192">
        <ele>176</ele>
        <time>2026-03-29T12:14:26Z</time>
      </trkpt>
      <trkpt lat="48.6149" lon="1.87185">
        <ele>176</ele>
        <time>2026-03-29T12:14:27Z</time>
      </trkpt>
      <trkpt lat="48.61493" lon="1.87178">
        <ele>176</ele>
        <time>2026-03-29T12:14:28Z</time>
      </trkpt>
      <trkpt lat="48.61496" lon="1.8717">
        <ele>176.2</ele>
        <time>2026-03-29T12:14:29Z</time>
      </trkpt>
      <trkpt lat="48.61499" lon="1.87164">
        <ele>176.6</ele>
        <time>2026-03-29T12:14:30Z</time>
      </trkpt>
      <trkpt lat="48.61502" lon="1.87157">
        <ele>176.6</ele>
        <time>2026-03-29T12:14:31Z</time>
      </trkpt>
      <trkpt lat="48.61505" lon="1.8715">
        <ele>176.6</ele>
        <time>2026-03-29T12:14:32Z</time>
      </trkpt>
      <trkpt lat="48.61508" lon="1.87142">
        <ele>176</ele>
        <time>2026-03-29T12:14:33Z</time>
      </trkpt>
      <trkpt lat="48.61511" lon="1.87134">
        <ele>176</ele>
        <time>2026-03-29T12:14:34Z</time>
      </trkpt>
      <trkpt lat="48.61514" lon="1.87127">
        <ele>176</ele>
        <time>2026-03-29T12:14:35Z</time>
      </trkpt>
      <trkpt lat="48.61516" lon="1.87119">
        <ele>176</ele>
        <time>2026-03-29T12:14:36Z</time>
      </trkpt>
      <trkpt lat="48.61519" lon="1.87112">
        <ele>176.2</ele>
        <time>2026-03-29T12:14:37Z</time>
      </trkpt>
      <trkpt lat="48.61522" lon="1.87105">
        <ele>176.4</ele>
        <time>2026-03-29T12:14:38Z</time>
      </trkpt>
      <trkpt lat="48.61526" lon="1.87098">
        <ele>176.4</ele>
        <time>2026-03-29T12:14:39Z</time>
      </trkpt>
      <trkpt lat="48.61529" lon="1.87091">
        <ele>176.4</ele>
        <time>2026-03-29T12:14:40Z</time>
      </trkpt>
      <trkpt lat="48.61532" lon="1.87084">
        <ele>176.4</ele>
        <time>2026-03-29T12:14:41Z</time>
      </trkpt>
      <trkpt lat="48.61534" lon="1.87076">
        <ele>176.4</ele>
        <time>2026-03-29T12:14:42Z</time>
      </trkpt>
      <trkpt lat="48.61537" lon="1.87068">
        <ele>176.4</ele>
        <time>2026-03-29T12:14:43Z</time>
      </trkpt>
      <trkpt lat="48.6154" lon="1.87061">
        <ele>176.4</ele>
        <time>2026-03-29T12:14:44Z</time>
      </trkpt>
      <trkpt lat="48.61543" lon="1.87054">
        <ele>176.4</ele>
        <time>2026-03-29T12:14:45Z</time>
      </trkpt>
      <trkpt lat="48.61546" lon="1.87047">
        <ele>176.6</ele>
        <time>2026-03-29T12:14:46Z</time>
      </trkpt>
      <trkpt lat="48.61549" lon="1.8704">
        <ele>176.6</ele>
        <time>2026-03-29T12:14:47Z</time>
      </trkpt>
      <trkpt lat="48.61552" lon="1.87032">
        <ele>176.6</ele>
        <time>2026-03-29T12:14:48Z</time>
      </trkpt>
      <trkpt lat="48.61555" lon="1.87024">
        <ele>176.6</ele>
        <time>2026-03-29T12:14:49Z</time>
      </trkpt>
      <trkpt lat="48.61557" lon="1.87016">
        <ele>177</ele>
        <time>2026-03-29T12:14:50Z</time>
      </trkpt>
      <trkpt lat="48.6156" lon="1.87008">
        <ele>177</ele>
        <time>2026-03-29T12:14:51Z</time>
      </trkpt>
      <trkpt lat="48.61563" lon="1.87">
        <ele>177</ele>
        <time>2026-03-29T12:14:52Z</time>
      </trkpt>
      <trkpt lat="48.61566" lon="1.86993">
        <ele>177</ele>
        <time>2026-03-29T12:14:53Z</time>
      </trkpt>
      <trkpt lat="48.61568" lon="1.86986">
        <ele>177</ele>
        <time>2026-03-29T12:14:54Z</time>
      </trkpt>
      <trkpt lat="48.6157" lon="1.86979">
        <ele>177</ele>
        <time>2026-03-29T12:14:55Z</time>
      </trkpt>
      <trkpt lat="48.61573" lon="1.86971">
        <ele>177</ele>
        <time>2026-03-29T12:14:56Z</time>
      </trkpt>
      <trkpt lat="48.61576" lon="1.86965">
        <ele>177</ele>
        <time>2026-03-29T12:14:57Z</time>
      </trkpt>
      <trkpt lat="48.61579" lon="1.86958">
        <ele>177.2</ele>
        <time>2026-03-29T12:14:58Z</time>
      </trkpt>
      <trkpt lat="48.61582" lon="1.86951">
        <ele>177.2</ele>
        <time>2026-03-29T12:14:59Z</time>
      </trkpt>
      <trkpt lat="48.61585" lon="1.86943">
        <ele>177.2</ele>
        <time>2026-03-29T12:15:00Z</time>
      </trkpt>
      <trkpt lat="48.61587" lon="1.86935">
        <ele>177.2</ele>
        <time>2026-03-29T12:15:01Z</time>
      </trkpt>
      <trkpt lat="48.61591" lon="1.86929">
        <ele>177.4</ele>
        <time>2026-03-29T12:15:02Z</time>
      </trkpt>
      <trkpt lat="48.61594" lon="1.86922">
        <ele>177.4</ele>
        <time>2026-03-29T12:15:03Z</time>
      </trkpt>
      <trkpt lat="48.61597" lon="1.86913">
        <ele>177.4</ele>
        <time>2026-03-29T12:15:04Z</time>
      </trkpt>
      <trkpt lat="48.61599" lon="1.86905">
        <ele>177.4</ele>
        <time>2026-03-29T12:15:05Z</time>
      </trkpt>
      <trkpt lat="48.61602" lon="1.86897">
        <ele>177.8</ele>
        <time>2026-03-29T12:15:06Z</time>
      </trkpt>
      <trkpt lat="48.61605" lon="1.86889">
        <ele>177.8</ele>
        <time>2026-03-29T12:15:07Z</time>
      </trkpt>
      <trkpt lat="48.61608" lon="1.86882">
        <ele>177.8</ele>
        <time>2026-03-29T12:15:08Z</time>
      </trkpt>
      <trkpt lat="48.61611" lon="1.86874">
        <ele>177.2</ele>
        <time>2026-03-29T12:15:09Z</time>
      </trkpt>
      <trkpt lat="48.61614" lon="1.86866">
        <ele>176.8</ele>
        <time>2026-03-29T12:15:10Z</time>
      </trkpt>
      <trkpt lat="48.61618" lon="1.86859">
        <ele>176.8</ele>
        <time>2026-03-29T12:15:11Z</time>
      </trkpt>
      <trkpt lat="48.61621" lon="1.86851">
        <ele>176.8</ele>
        <time>2026-03-29T12:15:12Z</time>
      </trkpt>
      <trkpt lat="48.61625" lon="1.86843">
        <ele>176.8</ele>
        <time>2026-03-29T12:15:13Z</time>
      </trkpt>
      <trkpt lat="48.61628" lon="1.86835">
        <ele>177</ele>
        <time>2026-03-29T12:15:14Z</time>
      </trkpt>
      <trkpt lat="48.61631" lon="1.86827">
        <ele>177</ele>
        <time>2026-03-29T12:15:15Z</time>
      </trkpt>
      <trkpt lat="48.61633" lon="1.86819">
        <ele>177</ele>
        <time>2026-03-29T12:15:16Z</time>
      </trkpt>
      <trkpt lat="48.61636" lon="1.8681">
        <ele>177.4</ele>
        <time>2026-03-29T12:15:17Z</time>
      </trkpt>
      <trkpt lat="48.61639" lon="1.86802">
        <ele>176.8</ele>
        <time>2026-03-29T12:15:18Z</time>
      </trkpt>
      <trkpt lat="48.61643" lon="1.86795">
        <ele>176.8</ele>
        <time>2026-03-29T12:15:19Z</time>
      </trkpt>
      <trkpt lat="48.61645" lon="1.86787">
        <ele>176.8</ele>
        <time>2026-03-29T12:15:20Z</time>
      </trkpt>
      <trkpt lat="48.61648" lon="1.86779">
        <ele>176.8</ele>
        <time>2026-03-29T12:15:21Z</time>
      </trkpt>
      <trkpt lat="48.61651" lon="1.86771">
        <ele>176.8</ele>
        <time>2026-03-29T12:15:22Z</time>
      </trkpt>
      <trkpt lat="48.61654" lon="1.86764">
        <ele>176.8</ele>
        <time>2026-03-29T12:15:23Z</time>
      </trkpt>
      <trkpt lat="48.61657" lon="1.86757">
        <ele>176.8</ele>
        <time>2026-03-29T12:15:24Z</time>
      </trkpt>
      <trkpt lat="48.61661" lon="1.86748">
        <ele>177.4</ele>
        <time>2026-03-29T12:15:25Z</time>
      </trkpt>
      <trkpt lat="48.61664" lon="1.86741">
        <ele>177.2</ele>
        <time>2026-03-29T12:15:26Z</time>
      </trkpt>
      <trkpt lat="48.61668" lon="1.86733">
        <ele>177.2</ele>
        <time>2026-03-29T12:15:27Z</time>
      </trkpt>
      <trkpt lat="48.61671" lon="1.86725">
        <ele>177.2</ele>
        <time>2026-03-29T12:15:28Z</time>
      </trkpt>
      <trkpt lat="48.61675" lon="1.86717">
        <ele>177.2</ele>
        <time>2026-03-29T12:15:29Z</time>
      </trkpt>
      <trkpt lat="48.61678" lon="1.86709">
        <ele>177</ele>
        <time>2026-03-29T12:15:30Z</time>
      </trkpt>
      <trkpt lat="48.61682" lon="1.86702">
        <ele>177</ele>
        <time>2026-03-29T12:15:31Z</time>
      </trkpt>
      <trkpt lat="48.61685" lon="1.86695">
        <ele>177</ele>
        <time>2026-03-29T12:15:32Z</time>
      </trkpt>
      <trkpt lat="48.61688" lon="1.86687">
        <ele>177.8</ele>
        <time>2026-03-29T12:15:33Z</time>
      </trkpt>
      <trkpt lat="48.61692" lon="1.8668">
        <ele>177.2</ele>
        <time>2026-03-29T12:15:34Z</time>
      </trkpt>
      <trkpt lat="48.61695" lon="1.86673">
        <ele>177.2</ele>
        <time>2026-03-29T12:15:35Z</time>
      </trkpt>
      <trkpt lat="48.61698" lon="1.86665">
        <ele>177.2</ele>
        <time>2026-03-29T12:15:36Z</time>
      </trkpt>
      <trkpt lat="48.61702" lon="1.86658">
        <ele>177.2</ele>
        <time>2026-03-29T12:15:37Z</time>
      </trkpt>
      <trkpt lat="48.61705" lon="1.8665">
        <ele>177</ele>
        <time>2026-03-29T12:15:38Z</time>
      </trkpt>
      <trkpt lat="48.61707" lon="1.86643">
        <ele>177</ele>
        <time>2026-03-29T12:15:39Z</time>
      </trkpt>
      <trkpt lat="48.6171" lon="1.86635">
        <ele>177</ele>
        <time>2026-03-29T12:15:40Z</time>
      </trkpt>
      <trkpt lat="48.61714" lon="1.86627">
        <ele>177</ele>
        <time>2026-03-29T12:15:41Z</time>
      </trkpt>
      <trkpt lat="48.61716" lon="1.86619">
        <ele>177.4</ele>
        <time>2026-03-29T12:15:42Z</time>
      </trkpt>
      <trkpt lat="48.61719" lon="1.86612">
        <ele>177.4</ele>
        <time>2026-03-29T12:15:43Z</time>
      </trkpt>
      <trkpt lat="48.61722" lon="1.86605">
        <ele>177.4</ele>
        <time>2026-03-29T12:15:44Z</time>
      </trkpt>
      <trkpt lat="48.61725" lon="1.86597">
        <ele>177.4</ele>
        <time>2026-03-29T12:15:45Z</time>
      </trkpt>
      <trkpt lat="48.61728" lon="1.8659">
        <ele>177.8</ele>
        <time>2026-03-29T12:15:46Z</time>
      </trkpt>
      <trkpt lat="48.61731" lon="1.86582">
        <ele>177.8</ele>
        <time>2026-03-29T12:15:47Z</time>
      </trkpt>
      <trkpt lat="48.61734" lon="1.86574">
        <ele>177.8</ele>
        <time>2026-03-29T12:15:48Z</time>
      </trkpt>
      <trkpt lat="48.61737" lon="1.86567">
        <ele>177.4</ele>
        <time>2026-03-29T12:15:49Z</time>
      </trkpt>
      <trkpt lat="48.6174" lon="1.8656">
        <ele>177.8</ele>
        <time>2026-03-29T12:15:50Z</time>
      </trkpt>
      <trkpt lat="48.61743" lon="1.86553">
        <ele>177.8</ele>
        <time>2026-03-29T12:15:51Z</time>
      </trkpt>
      <trkpt lat="48.61746" lon="1.86546">
        <ele>177.8</ele>
        <time>2026-03-29T12:15:52Z</time>
      </trkpt>
      <trkpt lat="48.6175" lon="1.86539">
        <ele>177.8</ele>
        <time>2026-03-29T12:15:53Z</time>
      </trkpt>
      <trkpt lat="48.61753" lon="1.86531">
        <ele>177.6</ele>
        <time>2026-03-29T12:15:54Z</time>
      </trkpt>
      <trkpt lat="48.61756" lon="1.86524">
        <ele>177.6</ele>
        <time>2026-03-29T12:15:55Z</time>
      </trkpt>
      <trkpt lat="48.61759" lon="1.86516">
        <ele>177.6</ele>
        <time>2026-03-29T12:15:56Z</time>
      </trkpt>
      <trkpt lat="48.61762" lon="1.86509">
        <ele>177.6</ele>
        <time>2026-03-29T12:15:57Z</time>
      </trkpt>
      <trkpt lat="48.61765" lon="1.86501">
        <ele>177.2</ele>
        <time>2026-03-29T12:15:58Z</time>
      </trkpt>
      <trkpt lat="48.61768" lon="1.86494">
        <ele>177.2</ele>
        <time>2026-03-29T12:15:59Z</time>
      </trkpt>
      <trkpt lat="48.61771" lon="1.86486">
        <ele>177.2</ele>
        <time>2026-03-29T12:16:00Z</time>
      </trkpt>
      <trkpt lat="48.61774" lon="1.86478">
        <ele>177.4</ele>
        <time>2026-03-29T12:16:01Z</time>
      </trkpt>
      <trkpt lat="48.61777" lon="1.86469">
        <ele>177.4</ele>
        <time>2026-03-29T12:16:02Z</time>
      </trkpt>
      <trkpt lat="48.61781" lon="1.8646">
        <ele>177.4</ele>
        <time>2026-03-29T12:16:03Z</time>
      </trkpt>
      <trkpt lat="48.61784" lon="1.86452">
        <ele>177.4</ele>
        <time>2026-03-29T12:16:04Z</time>
      </trkpt>
      <trkpt lat="48.61788" lon="1.86444">
        <ele>177.4</ele>
        <time>2026-03-29T12:16:05Z</time>
      </trkpt>
      <trkpt lat="48.61791" lon="1.86436">
        <ele>177.4</ele>
        <time>2026-03-29T12:16:06Z</time>
      </trkpt>
      <trkpt lat="48.61795" lon="1.86429">
        <ele>177.4</ele>
        <time>2026-03-29T12:16:07Z</time>
      </trkpt>
      <trkpt lat="48.61798" lon="1.86421">
        <ele>177.4</ele>
        <time>2026-03-29T12:16:08Z</time>
      </trkpt>
      <trkpt lat="48.61801" lon="1.86413">
        <ele>176.6</ele>
        <time>2026-03-29T12:16:09Z</time>
      </trkpt>
      <trkpt lat="48.61805" lon="1.86406">
        <ele>177</ele>
        <time>2026-03-29T12:16:10Z</time>
      </trkpt>
      <trkpt lat="48.61808" lon="1.86398">
        <ele>177</ele>
        <time>2026-03-29T12:16:11Z</time>
      </trkpt>
      <trkpt lat="48.6181" lon="1.8639">
        <ele>177</ele>
        <time>2026-03-29T12:16:12Z</time>
      </trkpt>
      <trkpt lat="48.61814" lon="1.86384">
        <ele>177</ele>
        <time>2026-03-29T12:16:13Z</time>
      </trkpt>
      <trkpt lat="48.61817" lon="1.86376">
        <ele>177.2</ele>
        <time>2026-03-29T12:16:14Z</time>
      </trkpt>
      <trkpt lat="48.61821" lon="1.86368">
        <ele>177.2</ele>
        <time>2026-03-29T12:16:15Z</time>
      </trkpt>
      <trkpt lat="48.61824" lon="1.86361">
        <ele>177.2</ele>
        <time>2026-03-29T12:16:16Z</time>
      </trkpt>
      <trkpt lat="48.61827" lon="1.86353">
        <ele>177.2</ele>
        <time>2026-03-29T12:16:17Z</time>
      </trkpt>
      <trkpt lat="48.6183" lon="1.86345">
        <ele>177</ele>
        <time>2026-03-29T12:16:18Z</time>
      </trkpt>
      <trkpt lat="48.61833" lon="1.86337">
        <ele>177</ele>
        <time>2026-03-29T12:16:19Z</time>
      </trkpt>
      <trkpt lat="48.61836" lon="1.86329">
        <ele>177</ele>
        <time>2026-03-29T12:16:20Z</time>
      </trkpt>
      <trkpt lat="48.61839" lon="1.86321">
        <ele>177</ele>
        <time>2026-03-29T12:16:21Z</time>
      </trkpt>
      <trkpt lat="48.61841" lon="1.86313">
        <ele>177</ele>
        <time>2026-03-29T12:16:22Z</time>
      </trkpt>
      <trkpt lat="48.61845" lon="1.86306">
        <ele>177</ele>
        <time>2026-03-29T12:16:23Z</time>
      </trkpt>
      <trkpt lat="48.61847" lon="1.86299">
        <ele>177</ele>
        <time>2026-03-29T12:16:24Z</time>
      </trkpt>
      <trkpt lat="48.6185" lon="1.86292">
        <ele>177</ele>
        <time>2026-03-29T12:16:25Z</time>
      </trkpt>
      <trkpt lat="48.61852" lon="1.86286">
        <ele>176.6</ele>
        <time>2026-03-29T12:16:26Z</time>
      </trkpt>
      <trkpt lat="48.61855" lon="1.86278">
        <ele>176.6</ele>
        <time>2026-03-29T12:16:27Z</time>
      </trkpt>
      <trkpt lat="48.61858" lon="1.86271">
        <ele>176.6</ele>
        <time>2026-03-29T12:16:28Z</time>
      </trkpt>
      <trkpt lat="48.61861" lon="1.86264">
        <ele>177</ele>
        <time>2026-03-29T12:16:29Z</time>
      </trkpt>
      <trkpt lat="48.61864" lon="1.86257">
        <ele>177</ele>
        <time>2026-03-29T12:16:30Z</time>
      </trkpt>
      <trkpt lat="48.61867" lon="1.8625">
        <ele>177</ele>
        <time>2026-03-29T12:16:31Z</time>
      </trkpt>
      <trkpt lat="48.6187" lon="1.86242">
        <ele>177</ele>
        <time>2026-03-29T12:16:32Z</time>
      </trkpt>
      <trkpt lat="48.61873" lon="1.86234">
        <ele>177</ele>
        <time>2026-03-29T12:16:33Z</time>
      </trkpt>
      <trkpt lat="48.61876" lon="1.86226">
        <ele>176.6</ele>
        <time>2026-03-29T12:16:34Z</time>
      </trkpt>
      <trkpt lat="48.61878" lon="1.86218">
        <ele>176.6</ele>
        <time>2026-03-29T12:16:35Z</time>
      </trkpt>
      <trkpt lat="48.61882" lon="1.86211">
        <ele>176.6</ele>
        <time>2026-03-29T12:16:36Z</time>
      </trkpt>
      <trkpt lat="48.61884" lon="1.86205">
        <ele>177</ele>
        <time>2026-03-29T12:16:37Z</time>
      </trkpt>
      <trkpt lat="48.61887" lon="1.86198">
        <ele>176.8</ele>
        <time>2026-03-29T12:16:38Z</time>
      </trkpt>
      <trkpt lat="48.6189" lon="1.86191">
        <ele>176.8</ele>
        <time>2026-03-29T12:16:39Z</time>
      </trkpt>
      <trkpt lat="48.61892" lon="1.86185">
        <ele>176.8</ele>
        <time>2026-03-29T12:16:40Z</time>
      </trkpt>
      <trkpt lat="48.61895" lon="1.86179">
        <ele>176.6</ele>
        <time>2026-03-29T12:16:41Z</time>
      </trkpt>
      <trkpt lat="48.61897" lon="1.86173">
        <ele>177</ele>
        <time>2026-03-29T12:16:42Z</time>
      </trkpt>
      <trkpt lat="48.619" lon="1.86166">
        <ele>177</ele>
        <time>2026-03-29T12:16:43Z</time>
      </trkpt>
      <trkpt lat="48.61902" lon="1.8616">
        <ele>177</ele>
        <time>2026-03-29T12:16:44Z</time>
      </trkpt>
      <trkpt lat="48.61904" lon="1.86155">
        <ele>176</ele>
        <time>2026-03-29T12:16:45Z</time>
      </trkpt>
      <trkpt lat="48.61905" lon="1.86152">
        <ele>176.4</ele>
        <time>2026-03-29T12:16:46Z</time>
      </trkpt>
      <trkpt lat="48.61907" lon="1.86147">
        <ele>176.4</ele>
        <time>2026-03-29T12:16:47Z</time>
      </trkpt>
      <trkpt lat="48.61909" lon="1.86143">
        <ele>176.4</ele>
        <time>2026-03-29T12:16:48Z</time>
      </trkpt>
      <trkpt lat="48.61911" lon="1.86138">
        <ele>176.4</ele>
        <time>2026-03-29T12:16:49Z</time>
      </trkpt>
      <trkpt lat="48.61913" lon="1.86132">
        <ele>177</ele>
        <time>2026-03-29T12:16:50Z</time>
      </trkpt>
      <trkpt lat="48.61915" lon="1.86125">
        <ele>177</ele>
        <time>2026-03-29T12:16:51Z</time>
      </trkpt>
      <trkpt lat="48.61918" lon="1.86119">
        <ele>177</ele>
        <time>2026-03-29T12:16:52Z</time>
      </trkpt>
      <trkpt lat="48.61921" lon="1.86113">
        <ele>177</ele>
        <time>2026-03-29T12:16:53Z</time>
      </trkpt>
      <trkpt lat="48.61924" lon="1.86107">
        <ele>177.4</ele>
        <time>2026-03-29T12:16:54Z</time>
      </trkpt>
      <trkpt lat="48.61927" lon="1.86099">
        <ele>177.4</ele>
        <time>2026-03-29T12:16:55Z</time>
      </trkpt>
      <trkpt lat="48.6193" lon="1.86092">
        <ele>177.4</ele>
        <time>2026-03-29T12:16:56Z</time>
      </trkpt>
      <trkpt lat="48.61932" lon="1.86085">
        <ele>176.8</ele>
        <time>2026-03-29T12:16:57Z</time>
      </trkpt>
      <trkpt lat="48.61936" lon="1.86079">
        <ele>177</ele>
        <time>2026-03-29T12:16:58Z</time>
      </trkpt>
      <trkpt lat="48.61939" lon="1.86071">
        <ele>177</ele>
        <time>2026-03-29T12:16:59Z</time>
      </trkpt>
      <trkpt lat="48.61942" lon="1.86064">
        <ele>177</ele>
        <time>2026-03-29T12:17:00Z</time>
      </trkpt>
      <trkpt lat="48.61944" lon="1.86057">
        <ele>177</ele>
        <time>2026-03-29T12:17:01Z</time>
      </trkpt>
      <trkpt lat="48.61947" lon="1.8605">
        <ele>177</ele>
        <time>2026-03-29T12:17:02Z</time>
      </trkpt>
      <trkpt lat="48.6195" lon="1.86043">
        <ele>177</ele>
        <time>2026-03-29T12:17:03Z</time>
      </trkpt>
      <trkpt lat="48.61953" lon="1.86036">
        <ele>177</ele>
        <time>2026-03-29T12:17:04Z</time>
      </trkpt>
      <trkpt lat="48.61956" lon="1.86029">
        <ele>177</ele>
        <time>2026-03-29T12:17:05Z</time>
      </trkpt>
      <trkpt lat="48.61959" lon="1.86022">
        <ele>177.2</ele>
        <time>2026-03-29T12:17:06Z</time>
      </trkpt>
      <trkpt lat="48.61962" lon="1.86015">
        <ele>177.2</ele>
        <time>2026-03-29T12:17:07Z</time>
      </trkpt>
      <trkpt lat="48.61965" lon="1.86008">
        <ele>177.2</ele>
        <time>2026-03-29T12:17:08Z</time>
      </trkpt>
      <trkpt lat="48.61968" lon="1.86001">
        <ele>177.2</ele>
        <time>2026-03-29T12:17:09Z</time>
      </trkpt>
      <trkpt lat="48.61971" lon="1.85993">
        <ele>177.4</ele>
        <time>2026-03-29T12:17:10Z</time>
      </trkpt>
      <trkpt lat="48.61974" lon="1.85986">
        <ele>177.4</ele>
        <time>2026-03-29T12:17:11Z</time>
      </trkpt>
      <trkpt lat="48.61976" lon="1.85979">
        <ele>177.4</ele>
        <time>2026-03-29T12:17:12Z</time>
      </trkpt>
      <trkpt lat="48.61979" lon="1.85972">
        <ele>177.4</ele>
        <time>2026-03-29T12:17:13Z</time>
      </trkpt>
      <trkpt lat="48.61982" lon="1.85965">
        <ele>176.8</ele>
        <time>2026-03-29T12:17:14Z</time>
      </trkpt>
      <trkpt lat="48.61985" lon="1.85959">
        <ele>176.8</ele>
        <time>2026-03-29T12:17:15Z</time>
      </trkpt>
      <trkpt lat="48.61987" lon="1.85952">
        <ele>176.8</ele>
        <time>2026-03-29T12:17:16Z</time>
      </trkpt>
      <trkpt lat="48.6199" lon="1.85946">
        <ele>176.8</ele>
        <time>2026-03-29T12:17:17Z</time>
      </trkpt>
      <trkpt lat="48.61993" lon="1.85939">
        <ele>177.4</ele>
        <time>2026-03-29T12:17:18Z</time>
      </trkpt>
      <trkpt lat="48.61996" lon="1.85931">
        <ele>177.4</ele>
        <time>2026-03-29T12:17:19Z</time>
      </trkpt>
      <trkpt lat="48.61999" lon="1.85924">
        <ele>177.4</ele>
        <time>2026-03-29T12:17:20Z</time>
      </trkpt>
      <trkpt lat="48.62003" lon="1.85918">
        <ele>177.4</ele>
        <time>2026-03-29T12:17:21Z</time>
      </trkpt>
      <trkpt lat="48.62005" lon="1.85911">
        <ele>177.6</ele>
        <time>2026-03-29T12:17:22Z</time>
      </trkpt>
      <trkpt lat="48.62008" lon="1.85905">
        <ele>177.6</ele>
        <time>2026-03-29T12:17:23Z</time>
      </trkpt>
      <trkpt lat="48.62011" lon="1.85899">
        <ele>177.6</ele>
        <time>2026-03-29T12:17:24Z</time>
      </trkpt>
      <trkpt lat="48.62014" lon="1.85892">
        <ele>177.6</ele>
        <time>2026-03-29T12:17:25Z</time>
      </trkpt>
      <trkpt lat="48.62016" lon="1.85885">
        <ele>177.8</ele>
        <time>2026-03-29T12:17:26Z</time>
      </trkpt>
      <trkpt lat="48.62019" lon="1.85878">
        <ele>177.8</ele>
        <time>2026-03-29T12:17:27Z</time>
      </trkpt>
      <trkpt lat="48.62022" lon="1.85871">
        <ele>177.8</ele>
        <time>2026-03-29T12:17:28Z</time>
      </trkpt>
      <trkpt lat="48.62024" lon="1.85865">
        <ele>177.8</ele>
        <time>2026-03-29T12:17:29Z</time>
      </trkpt>
      <trkpt lat="48.62027" lon="1.85858">
        <ele>177.8</ele>
        <time>2026-03-29T12:17:30Z</time>
      </trkpt>
      <trkpt lat="48.6203" lon="1.85851">
        <ele>177.8</ele>
        <time>2026-03-29T12:17:31Z</time>
      </trkpt>
      <trkpt lat="48.62033" lon="1.85844">
        <ele>177.8</ele>
        <time>2026-03-29T12:17:32Z</time>
      </trkpt>
      <trkpt lat="48.62035" lon="1.85837">
        <ele>177.8</ele>
        <time>2026-03-29T12:17:33Z</time>
      </trkpt>
      <trkpt lat="48.62038" lon="1.8583">
        <ele>178</ele>
        <time>2026-03-29T12:17:34Z</time>
      </trkpt>
      <trkpt lat="48.62041" lon="1.85822">
        <ele>178</ele>
        <time>2026-03-29T12:17:35Z</time>
      </trkpt>
      <trkpt lat="48.62044" lon="1.85816">
        <ele>178</ele>
        <time>2026-03-29T12:17:36Z</time>
      </trkpt>
      <trkpt lat="48.62047" lon="1.85809">
        <ele>178.4</ele>
        <time>2026-03-29T12:17:37Z</time>
      </trkpt>
      <trkpt lat="48.62051" lon="1.85803">
        <ele>178.4</ele>
        <time>2026-03-29T12:17:38Z</time>
      </trkpt>
      <trkpt lat="48.62054" lon="1.85796">
        <ele>178.4</ele>
        <time>2026-03-29T12:17:39Z</time>
      </trkpt>
      <trkpt lat="48.62057" lon="1.85788">
        <ele>178.4</ele>
        <time>2026-03-29T12:17:40Z</time>
      </trkpt>
      <trkpt lat="48.6206" lon="1.85781">
        <ele>178.4</ele>
        <time>2026-03-29T12:17:41Z</time>
      </trkpt>
      <trkpt lat="48.62063" lon="1.85773">
        <ele>178.4</ele>
        <time>2026-03-29T12:17:42Z</time>
      </trkpt>
      <trkpt lat="48.62066" lon="1.85768">
        <ele>178.4</ele>
        <time>2026-03-29T12:17:43Z</time>
      </trkpt>
      <trkpt lat="48.62067" lon="1.85765">
        <ele>178.4</ele>
        <time>2026-03-29T12:17:44Z</time>
      </trkpt>
      <trkpt lat="48.62067" lon="1.85763">
        <ele>178.4</ele>
        <time>2026-03-29T12:17:45Z</time>
      </trkpt>
      <trkpt lat="48.62066" lon="1.85762">
        <ele>178.6</ele>
        <time>2026-03-29T12:17:46Z</time>
      </trkpt>
      <trkpt lat="48.62065" lon="1.85762">
        <ele>178.6</ele>
        <time>2026-03-29T12:17:47Z</time>
      </trkpt>
      <trkpt lat="48.62065" lon="1.85763">
        <ele>178.6</ele>
        <time>2026-03-29T12:17:48Z</time>
      </trkpt>
      <trkpt lat="48.62064" lon="1.85764">
        <ele>178.2</ele>
        <time>2026-03-29T12:17:49Z</time>
      </trkpt>
      <trkpt lat="48.62063" lon="1.85765">
        <ele>178</ele>
        <time>2026-03-29T12:17:50Z</time>
      </trkpt>
      <trkpt lat="48.62061" lon="1.85765">
        <ele>178</ele>
        <time>2026-03-29T12:17:51Z</time>
      </trkpt>
      <trkpt lat="48.62059" lon="1.85763">
        <ele>178</ele>
        <time>2026-03-29T12:17:52Z</time>
      </trkpt>
      <trkpt lat="48.62057" lon="1.8576">
        <ele>178.4</ele>
        <time>2026-03-29T12:17:53Z</time>
      </trkpt>
      <trkpt lat="48.62056" lon="1.85758">
        <ele>178.4</ele>
        <time>2026-03-29T12:17:54Z</time>
      </trkpt>
      <trkpt lat="48.62054" lon="1.85755">
        <ele>178.4</ele>
        <time>2026-03-29T12:17:55Z</time>
      </trkpt>
      <trkpt lat="48.62053" lon="1.85751">
        <ele>178.4</ele>
        <time>2026-03-29T12:17:56Z</time>
      </trkpt>
      <trkpt lat="48.62051" lon="1.85748">
        <ele>178.4</ele>
        <time>2026-03-29T12:17:57Z</time>
      </trkpt>
      <trkpt lat="48.62048" lon="1.85744">
        <ele>178.6</ele>
        <time>2026-03-29T12:17:58Z</time>
      </trkpt>
      <trkpt lat="48.62046" lon="1.85741">
        <ele>178.6</ele>
        <time>2026-03-29T12:17:59Z</time>
      </trkpt>
      <trkpt lat="48.62044" lon="1.85738">
        <ele>178.6</ele>
        <time>2026-03-29T12:18:00Z</time>
      </trkpt>
      <trkpt lat="48.62042" lon="1.85734">
        <ele>178.6</ele>
        <time>2026-03-29T12:18:01Z</time>
      </trkpt>
      <trkpt lat="48.6204" lon="1.8573">
        <ele>178.4</ele>
        <time>2026-03-29T12:18:02Z</time>
      </trkpt>
      <trkpt lat="48.62039" lon="1.85725">
        <ele>178.4</ele>
        <time>2026-03-29T12:18:03Z</time>
      </trkpt>
      <trkpt lat="48.62037" lon="1.85721">
        <ele>178.4</ele>
        <time>2026-03-29T12:18:04Z</time>
      </trkpt>
      <trkpt lat="48.62035" lon="1.85717">
        <ele>178.4</ele>
        <time>2026-03-29T12:18:05Z</time>
      </trkpt>
      <trkpt lat="48.62033" lon="1.85713">
        <ele>178.6</ele>
        <time>2026-03-29T12:18:06Z</time>
      </trkpt>
      <trkpt lat="48.62032" lon="1.8571">
        <ele>178.6</ele>
        <time>2026-03-29T12:18:07Z</time>
      </trkpt>
      <trkpt lat="48.6203" lon="1.85707">
        <ele>178.6</ele>
        <time>2026-03-29T12:18:08Z</time>
      </trkpt>
      <trkpt lat="48.62028" lon="1.85704">
        <ele>178.6</ele>
        <time>2026-03-29T12:18:09Z</time>
      </trkpt>
      <trkpt lat="48.62025" lon="1.85699">
        <ele>178.6</ele>
        <time>2026-03-29T12:18:10Z</time>
      </trkpt>
      <trkpt lat="48.62023" lon="1.85695">
        <ele>178.6</ele>
        <time>2026-03-29T12:18:11Z</time>
      </trkpt>
      <trkpt lat="48.62021" lon="1.8569">
        <ele>178.6</ele>
        <time>2026-03-29T12:18:12Z</time>
      </trkpt>
      <trkpt lat="48.62018" lon="1.85687">
        <ele>178.6</ele>
        <time>2026-03-29T12:18:13Z</time>
      </trkpt>
      <trkpt lat="48.62016" lon="1.85682">
        <ele>178.8</ele>
        <time>2026-03-29T12:18:14Z</time>
      </trkpt>
      <trkpt lat="48.62014" lon="1.85678">
        <ele>178.8</ele>
        <time>2026-03-29T12:18:15Z</time>
      </trkpt>
      <trkpt lat="48.62012" lon="1.85675">
        <ele>178.8</ele>
        <time>2026-03-29T12:18:16Z</time>
      </trkpt>
      <trkpt lat="48.62009" lon="1.85671">
        <ele>178.2</ele>
        <time>2026-03-29T12:18:17Z</time>
      </trkpt>
      <trkpt lat="48.62006" lon="1.85667">
        <ele>178.2</ele>
        <time>2026-03-29T12:18:18Z</time>
      </trkpt>
      <trkpt lat="48.62003" lon="1.85662">
        <ele>178.2</ele>
        <time>2026-03-29T12:18:19Z</time>
      </trkpt>
      <trkpt lat="48.62001" lon="1.85657">
        <ele>178.2</ele>
        <time>2026-03-29T12:18:20Z</time>
      </trkpt>
      <trkpt lat="48.61999" lon="1.85654">
        <ele>178.2</ele>
        <time>2026-03-29T12:18:21Z</time>
      </trkpt>
      <trkpt lat="48.61997" lon="1.8565">
        <ele>178</ele>
        <time>2026-03-29T12:18:22Z</time>
      </trkpt>
      <trkpt lat="48.61994" lon="1.85647">
        <ele>178</ele>
        <time>2026-03-29T12:18:23Z</time>
      </trkpt>
      <trkpt lat="48.61992" lon="1.85643">
        <ele>178</ele>
        <time>2026-03-29T12:18:24Z</time>
      </trkpt>
      <trkpt lat="48.6199" lon="1.85639">
        <ele>178</ele>
        <time>2026-03-29T12:18:25Z</time>
      </trkpt>
      <trkpt lat="48.61987" lon="1.85635">
        <ele>177.8</ele>
        <time>2026-03-29T12:18:26Z</time>
      </trkpt>
      <trkpt lat="48.61985" lon="1.85631">
        <ele>177.8</ele>
        <time>2026-03-29T12:18:27Z</time>
      </trkpt>
      <trkpt lat="48.61983" lon="1.85627">
        <ele>177.8</ele>
        <time>2026-03-29T12:18:28Z</time>
      </trkpt>
      <trkpt lat="48.6198" lon="1.85621">
        <ele>177.8</ele>
        <time>2026-03-29T12:18:29Z</time>
      </trkpt>
      <trkpt lat="48.61978" lon="1.85618">
        <ele>177.6</ele>
        <time>2026-03-29T12:18:30Z</time>
      </trkpt>
      <trkpt lat="48.61976" lon="1.85615">
        <ele>177.6</ele>
        <time>2026-03-29T12:18:31Z</time>
      </trkpt>
      <trkpt lat="48.61974" lon="1.85614">
        <ele>177.6</ele>
        <time>2026-03-29T12:18:32Z</time>
      </trkpt>
      <trkpt lat="48.61971" lon="1.85611">
        <ele>177.6</ele>
        <time>2026-03-29T12:18:33Z</time>
      </trkpt>
      <trkpt lat="48.61968" lon="1.85606">
        <ele>177.8</ele>
        <time>2026-03-29T12:18:34Z</time>
      </trkpt>
      <trkpt lat="48.61965" lon="1.85602">
        <ele>177.8</ele>
        <time>2026-03-29T12:18:35Z</time>
      </trkpt>
      <trkpt lat="48.61962" lon="1.856">
        <ele>177.8</ele>
        <time>2026-03-29T12:18:36Z</time>
      </trkpt>
      <trkpt lat="48.6196" lon="1.85595">
        <ele>177.8</ele>
        <time>2026-03-29T12:18:37Z</time>
      </trkpt>
      <trkpt lat="48.61958" lon="1.8559">
        <ele>178.2</ele>
        <time>2026-03-29T12:18:38Z</time>
      </trkpt>
      <trkpt lat="48.61955" lon="1.85585">
        <ele>178.2</ele>
        <time>2026-03-29T12:18:39Z</time>
      </trkpt>
      <trkpt lat="48.61952" lon="1.85579">
        <ele>178.2</ele>
        <time>2026-03-29T12:18:40Z</time>
      </trkpt>
      <trkpt lat="48.6195" lon="1.85575">
        <ele>178</ele>
        <time>2026-03-29T12:18:41Z</time>
      </trkpt>
      <trkpt lat="48.61948" lon="1.85571">
        <ele>177.8</ele>
        <time>2026-03-29T12:18:42Z</time>
      </trkpt>
      <trkpt lat="48.61945" lon="1.85567">
        <ele>177.8</ele>
        <time>2026-03-29T12:18:43Z</time>
      </trkpt>
      <trkpt lat="48.61941" lon="1.85564">
        <ele>177.8</ele>
        <time>2026-03-29T12:18:44Z</time>
      </trkpt>
      <trkpt lat="48.61937" lon="1.85559">
        <ele>177.8</ele>
        <time>2026-03-29T12:18:45Z</time>
      </trkpt>
      <trkpt lat="48.61934" lon="1.85554">
        <ele>178.4</ele>
        <time>2026-03-29T12:18:46Z</time>
      </trkpt>
      <trkpt lat="48.61932" lon="1.85549">
        <ele>178.4</ele>
        <time>2026-03-29T12:18:47Z</time>
      </trkpt>
      <trkpt lat="48.61928" lon="1.85544">
        <ele>178.4</ele>
        <time>2026-03-29T12:18:48Z</time>
      </trkpt>
      <trkpt lat="48.61924" lon="1.85539">
        <ele>178</ele>
        <time>2026-03-29T12:18:49Z</time>
      </trkpt>
      <trkpt lat="48.61921" lon="1.85535">
        <ele>177.4</ele>
        <time>2026-03-29T12:18:50Z</time>
      </trkpt>
      <trkpt lat="48.61917" lon="1.85531">
        <ele>177.4</ele>
        <time>2026-03-29T12:18:51Z</time>
      </trkpt>
      <trkpt lat="48.61914" lon="1.85527">
        <ele>177.4</ele>
        <time>2026-03-29T12:18:52Z</time>
      </trkpt>
      <trkpt lat="48.61912" lon="1.85522">
        <ele>177.4</ele>
        <time>2026-03-29T12:18:53Z</time>
      </trkpt>
      <trkpt lat="48.6191" lon="1.85516">
        <ele>177.4</ele>
        <time>2026-03-29T12:18:54Z</time>
      </trkpt>
      <trkpt lat="48.61907" lon="1.85512">
        <ele>177.4</ele>
        <time>2026-03-29T12:18:55Z</time>
      </trkpt>
      <trkpt lat="48.61904" lon="1.85508">
        <ele>177.4</ele>
        <time>2026-03-29T12:18:56Z</time>
      </trkpt>
      <trkpt lat="48.61902" lon="1.85506">
        <ele>177.4</ele>
        <time>2026-03-29T12:18:57Z</time>
      </trkpt>
      <trkpt lat="48.61899" lon="1.85502">
        <ele>177.4</ele>
        <time>2026-03-29T12:18:58Z</time>
      </trkpt>
      <trkpt lat="48.61896" lon="1.85497">
        <ele>177.4</ele>
        <time>2026-03-29T12:18:59Z</time>
      </trkpt>
      <trkpt lat="48.61893" lon="1.85492">
        <ele>177.4</ele>
        <time>2026-03-29T12:19:00Z</time>
      </trkpt>
      <trkpt lat="48.6189" lon="1.85487">
        <ele>177</ele>
        <time>2026-03-29T12:19:01Z</time>
      </trkpt>
      <trkpt lat="48.61888" lon="1.85482">
        <ele>177.4</ele>
        <time>2026-03-29T12:19:02Z</time>
      </trkpt>
      <trkpt lat="48.61885" lon="1.85477">
        <ele>177.4</ele>
        <time>2026-03-29T12:19:03Z</time>
      </trkpt>
      <trkpt lat="48.61882" lon="1.85472">
        <ele>177.4</ele>
        <time>2026-03-29T12:19:04Z</time>
      </trkpt>
      <trkpt lat="48.61879" lon="1.85469">
        <ele>177.4</ele>
        <time>2026-03-29T12:19:05Z</time>
      </trkpt>
      <trkpt lat="48.61875" lon="1.85464">
        <ele>177</ele>
        <time>2026-03-29T12:19:06Z</time>
      </trkpt>
      <trkpt lat="48.61872" lon="1.8546">
        <ele>177</ele>
        <time>2026-03-29T12:19:07Z</time>
      </trkpt>
      <trkpt lat="48.61869" lon="1.85456">
        <ele>177</ele>
        <time>2026-03-29T12:19:08Z</time>
      </trkpt>
      <trkpt lat="48.61866" lon="1.85451">
        <ele>177</ele>
        <time>2026-03-29T12:19:09Z</time>
      </trkpt>
      <trkpt lat="48.61862" lon="1.85445">
        <ele>176.8</ele>
        <time>2026-03-29T12:19:10Z</time>
      </trkpt>
      <trkpt lat="48.6186" lon="1.8544">
        <ele>176.8</ele>
        <time>2026-03-29T12:19:11Z</time>
      </trkpt>
      <trkpt lat="48.61857" lon="1.85434">
        <ele>176.8</ele>
        <time>2026-03-29T12:19:12Z</time>
      </trkpt>
      <trkpt lat="48.61854" lon="1.8543">
        <ele>176.8</ele>
        <time>2026-03-29T12:19:13Z</time>
      </trkpt>
      <trkpt lat="48.61851" lon="1.85426">
        <ele>176.8</ele>
        <time>2026-03-29T12:19:14Z</time>
      </trkpt>
      <trkpt lat="48.61848" lon="1.85421">
        <ele>176.8</ele>
        <time>2026-03-29T12:19:15Z</time>
      </trkpt>
      <trkpt lat="48.61845" lon="1.85417">
        <ele>176.8</ele>
        <time>2026-03-29T12:19:16Z</time>
      </trkpt>
      <trkpt lat="48.61842" lon="1.85412">
        <ele>176.8</ele>
        <time>2026-03-29T12:19:17Z</time>
      </trkpt>
      <trkpt lat="48.61839" lon="1.85408">
        <ele>176.4</ele>
        <time>2026-03-29T12:19:18Z</time>
      </trkpt>
      <trkpt lat="48.61836" lon="1.85403">
        <ele>176.4</ele>
        <time>2026-03-29T12:19:19Z</time>
      </trkpt>
      <trkpt lat="48.61832" lon="1.85397">
        <ele>176.4</ele>
        <time>2026-03-29T12:19:20Z</time>
      </trkpt>
      <trkpt lat="48.61828" lon="1.85393">
        <ele>177</ele>
        <time>2026-03-29T12:19:21Z</time>
      </trkpt>
      <trkpt lat="48.61826" lon="1.85389">
        <ele>177.4</ele>
        <time>2026-03-29T12:19:22Z</time>
      </trkpt>
      <trkpt lat="48.61823" lon="1.85384">
        <ele>177.4</ele>
        <time>2026-03-29T12:19:23Z</time>
      </trkpt>
      <trkpt lat="48.61821" lon="1.8538">
        <ele>177.4</ele>
        <time>2026-03-29T12:19:24Z</time>
      </trkpt>
      <trkpt lat="48.61819" lon="1.85376">
        <ele>176.8</ele>
        <time>2026-03-29T12:19:25Z</time>
      </trkpt>
      <trkpt lat="48.61817" lon="1.8537">
        <ele>176.6</ele>
        <time>2026-03-29T12:19:26Z</time>
      </trkpt>
      <trkpt lat="48.61817" lon="1.85365">
        <ele>176.6</ele>
        <time>2026-03-29T12:19:27Z</time>
      </trkpt>
      <trkpt lat="48.61819" lon="1.8536">
        <ele>176.6</ele>
        <time>2026-03-29T12:19:28Z</time>
      </trkpt>
      <trkpt lat="48.6182" lon="1.85356">
        <ele>177</ele>
        <time>2026-03-29T12:19:29Z</time>
      </trkpt>
      <trkpt lat="48.61823" lon="1.85351">
        <ele>177</ele>
        <time>2026-03-29T12:19:30Z</time>
      </trkpt>
      <trkpt lat="48.61825" lon="1.85344">
        <ele>177</ele>
        <time>2026-03-29T12:19:31Z</time>
      </trkpt>
      <trkpt lat="48.61827" lon="1.85337">
        <ele>177</ele>
        <time>2026-03-29T12:19:32Z</time>
      </trkpt>
      <trkpt lat="48.61828" lon="1.8533">
        <ele>177.4</ele>
        <time>2026-03-29T12:19:33Z</time>
      </trkpt>
      <trkpt lat="48.6183" lon="1.85323">
        <ele>177.6</ele>
        <time>2026-03-29T12:19:34Z</time>
      </trkpt>
      <trkpt lat="48.61832" lon="1.85318">
        <ele>177.6</ele>
        <time>2026-03-29T12:19:35Z</time>
      </trkpt>
      <trkpt lat="48.61834" lon="1.85311">
        <ele>177.6</ele>
        <time>2026-03-29T12:19:36Z</time>
      </trkpt>
      <trkpt lat="48.61836" lon="1.85305">
        <ele>177.8</ele>
        <time>2026-03-29T12:19:37Z</time>
      </trkpt>
      <trkpt lat="48.61838" lon="1.85299">
        <ele>178</ele>
        <time>2026-03-29T12:19:38Z</time>
      </trkpt>
      <trkpt lat="48.6184" lon="1.85294">
        <ele>178</ele>
        <time>2026-03-29T12:19:39Z</time>
      </trkpt>
      <trkpt lat="48.61842" lon="1.85287">
        <ele>178</ele>
        <time>2026-03-29T12:19:40Z</time>
      </trkpt>
      <trkpt lat="48.61845" lon="1.85282">
        <ele>177.8</ele>
        <time>2026-03-29T12:19:41Z</time>
      </trkpt>
      <trkpt lat="48.61847" lon="1.85277">
        <ele>178</ele>
        <time>2026-03-29T12:19:42Z</time>
      </trkpt>
      <trkpt lat="48.6185" lon="1.85271">
        <ele>178</ele>
        <time>2026-03-29T12:19:43Z</time>
      </trkpt>
      <trkpt lat="48.61852" lon="1.85265">
        <ele>178</ele>
        <time>2026-03-29T12:19:44Z</time>
      </trkpt>
      <trkpt lat="48.61854" lon="1.85259">
        <ele>177.8</ele>
        <time>2026-03-29T12:19:45Z</time>
      </trkpt>
      <trkpt lat="48.61856" lon="1.85251">
        <ele>177.8</ele>
        <time>2026-03-29T12:19:46Z</time>
      </trkpt>
      <trkpt lat="48.61858" lon="1.85244">
        <ele>177.8</ele>
        <time>2026-03-29T12:19:47Z</time>
      </trkpt>
      <trkpt lat="48.61861" lon="1.85238">
        <ele>177.8</ele>
        <time>2026-03-29T12:19:48Z</time>
      </trkpt>
      <trkpt lat="48.61864" lon="1.85232">
        <ele>178</ele>
        <time>2026-03-29T12:19:49Z</time>
      </trkpt>
      <trkpt lat="48.61866" lon="1.85225">
        <ele>178.4</ele>
        <time>2026-03-29T12:19:50Z</time>
      </trkpt>
      <trkpt lat="48.61868" lon="1.85219">
        <ele>178.4</ele>
        <time>2026-03-29T12:19:51Z</time>
      </trkpt>
      <trkpt lat="48.61871" lon="1.85212">
        <ele>178.4</ele>
        <time>2026-03-29T12:19:52Z</time>
      </trkpt>
      <trkpt lat="48.61873" lon="1.85206">
        <ele>178.4</ele>
        <time>2026-03-29T12:19:53Z</time>
      </trkpt>
      <trkpt lat="48.61875" lon="1.852">
        <ele>177.8</ele>
        <time>2026-03-29T12:19:54Z</time>
      </trkpt>
      <trkpt lat="48.61876" lon="1.85194">
        <ele>177.8</ele>
        <time>2026-03-29T12:19:55Z</time>
      </trkpt>
      <trkpt lat="48.61877" lon="1.85187">
        <ele>177.8</ele>
        <time>2026-03-29T12:19:56Z</time>
      </trkpt>
      <trkpt lat="48.61879" lon="1.85181">
        <ele>178.4</ele>
        <time>2026-03-29T12:19:57Z</time>
      </trkpt>
      <trkpt lat="48.61881" lon="1.85175">
        <ele>178.8</ele>
        <time>2026-03-29T12:19:58Z</time>
      </trkpt>
      <trkpt lat="48.61882" lon="1.85169">
        <ele>178.8</ele>
        <time>2026-03-29T12:19:59Z</time>
      </trkpt>
      <trkpt lat="48.61883" lon="1.85164">
        <ele>178.8</ele>
        <time>2026-03-29T12:20:00Z</time>
      </trkpt>
      <trkpt lat="48.61885" lon="1.85158">
        <ele>178.2</ele>
        <time>2026-03-29T12:20:01Z</time>
      </trkpt>
      <trkpt lat="48.61887" lon="1.85152">
        <ele>177.8</ele>
        <time>2026-03-29T12:20:02Z</time>
      </trkpt>
      <trkpt lat="48.61889" lon="1.85146">
        <ele>177.8</ele>
        <time>2026-03-29T12:20:03Z</time>
      </trkpt>
      <trkpt lat="48.61891" lon="1.85139">
        <ele>177.8</ele>
        <time>2026-03-29T12:20:04Z</time>
      </trkpt>
      <trkpt lat="48.61893" lon="1.85132">
        <ele>178.6</ele>
        <time>2026-03-29T12:20:05Z</time>
      </trkpt>
      <trkpt lat="48.61896" lon="1.85125">
        <ele>178.2</ele>
        <time>2026-03-29T12:20:06Z</time>
      </trkpt>
      <trkpt lat="48.61898" lon="1.85118">
        <ele>178.2</ele>
        <time>2026-03-29T12:20:07Z</time>
      </trkpt>
      <trkpt lat="48.61902" lon="1.85111">
        <ele>178.2</ele>
        <time>2026-03-29T12:20:08Z</time>
      </trkpt>
      <trkpt lat="48.61904" lon="1.85104">
        <ele>178.6</ele>
        <time>2026-03-29T12:20:09Z</time>
      </trkpt>
      <trkpt lat="48.61907" lon="1.85097">
        <ele>178.8</ele>
        <time>2026-03-29T12:20:10Z</time>
      </trkpt>
      <trkpt lat="48.6191" lon="1.85091">
        <ele>178.8</ele>
        <time>2026-03-29T12:20:11Z</time>
      </trkpt>
      <trkpt lat="48.61912" lon="1.85083">
        <ele>178.8</ele>
        <time>2026-03-29T12:20:12Z</time>
      </trkpt>
      <trkpt lat="48.61915" lon="1.85077">
        <ele>178.8</ele>
        <time>2026-03-29T12:20:13Z</time>
      </trkpt>
      <trkpt lat="48.61917" lon="1.8507">
        <ele>178.6</ele>
        <time>2026-03-29T12:20:14Z</time>
      </trkpt>
      <trkpt lat="48.6192" lon="1.85064">
        <ele>178.6</ele>
        <time>2026-03-29T12:20:15Z</time>
      </trkpt>
      <trkpt lat="48.61923" lon="1.85056">
        <ele>178.6</ele>
        <time>2026-03-29T12:20:16Z</time>
      </trkpt>
      <trkpt lat="48.61925" lon="1.85049">
        <ele>178.6</ele>
        <time>2026-03-29T12:20:17Z</time>
      </trkpt>
      <trkpt lat="48.61927" lon="1.85043">
        <ele>178.6</ele>
        <time>2026-03-29T12:20:18Z</time>
      </trkpt>
      <trkpt lat="48.6193" lon="1.85037">
        <ele>178.6</ele>
        <time>2026-03-29T12:20:19Z</time>
      </trkpt>
      <trkpt lat="48.61932" lon="1.8503">
        <ele>178.6</ele>
        <time>2026-03-29T12:20:20Z</time>
      </trkpt>
      <trkpt lat="48.61935" lon="1.85024">
        <ele>178.6</ele>
        <time>2026-03-29T12:20:21Z</time>
      </trkpt>
      <trkpt lat="48.61938" lon="1.85017">
        <ele>178</ele>
        <time>2026-03-29T12:20:22Z</time>
      </trkpt>
      <trkpt lat="48.61941" lon="1.85011">
        <ele>178</ele>
        <time>2026-03-29T12:20:23Z</time>
      </trkpt>
      <trkpt lat="48.61944" lon="1.85005">
        <ele>178</ele>
        <time>2026-03-29T12:20:24Z</time>
      </trkpt>
      <trkpt lat="48.61946" lon="1.84998">
        <ele>178.4</ele>
        <time>2026-03-29T12:20:25Z</time>
      </trkpt>
      <trkpt lat="48.61948" lon="1.84991">
        <ele>178.6</ele>
        <time>2026-03-29T12:20:26Z</time>
      </trkpt>
      <trkpt lat="48.61951" lon="1.84984">
        <ele>178.6</ele>
        <time>2026-03-29T12:20:27Z</time>
      </trkpt>
      <trkpt lat="48.61954" lon="1.84977">
        <ele>178.6</ele>
        <time>2026-03-29T12:20:28Z</time>
      </trkpt>
      <trkpt lat="48.61957" lon="1.8497">
        <ele>177.8</ele>
        <time>2026-03-29T12:20:29Z</time>
      </trkpt>
      <trkpt lat="48.6196" lon="1.84963">
        <ele>177.8</ele>
        <time>2026-03-29T12:20:30Z</time>
      </trkpt>
      <trkpt lat="48.61963" lon="1.84957">
        <ele>177.8</ele>
        <time>2026-03-29T12:20:31Z</time>
      </trkpt>
      <trkpt lat="48.61966" lon="1.8495">
        <ele>177.8</ele>
        <time>2026-03-29T12:20:32Z</time>
      </trkpt>
      <trkpt lat="48.61969" lon="1.84943">
        <ele>177.8</ele>
        <time>2026-03-29T12:20:33Z</time>
      </trkpt>
      <trkpt lat="48.61972" lon="1.84935">
        <ele>177.8</ele>
        <time>2026-03-29T12:20:34Z</time>
      </trkpt>
      <trkpt lat="48.61975" lon="1.84928">
        <ele>177.8</ele>
        <time>2026-03-29T12:20:35Z</time>
      </trkpt>
      <trkpt lat="48.61978" lon="1.8492">
        <ele>177.8</ele>
        <time>2026-03-29T12:20:36Z</time>
      </trkpt>
      <trkpt lat="48.61981" lon="1.84913">
        <ele>177.8</ele>
        <time>2026-03-29T12:20:37Z</time>
      </trkpt>
      <trkpt lat="48.61984" lon="1.84905">
        <ele>177.6</ele>
        <time>2026-03-29T12:20:38Z</time>
      </trkpt>
      <trkpt lat="48.61987" lon="1.84898">
        <ele>177.6</ele>
        <time>2026-03-29T12:20:39Z</time>
      </trkpt>
      <trkpt lat="48.6199" lon="1.8489">
        <ele>177.6</ele>
        <time>2026-03-29T12:20:40Z</time>
      </trkpt>
      <trkpt lat="48.61992" lon="1.84882">
        <ele>177</ele>
        <time>2026-03-29T12:20:41Z</time>
      </trkpt>
      <trkpt lat="48.61995" lon="1.84874">
        <ele>177</ele>
        <time>2026-03-29T12:20:42Z</time>
      </trkpt>
      <trkpt lat="48.61998" lon="1.84866">
        <ele>177</ele>
        <time>2026-03-29T12:20:43Z</time>
      </trkpt>
      <trkpt lat="48.62001" lon="1.84858">
        <ele>177</ele>
        <time>2026-03-29T12:20:44Z</time>
      </trkpt>
      <trkpt lat="48.62005" lon="1.84851">
        <ele>177</ele>
        <time>2026-03-29T12:20:45Z</time>
      </trkpt>
      <trkpt lat="48.62008" lon="1.84843">
        <ele>177.2</ele>
        <time>2026-03-29T12:20:46Z</time>
      </trkpt>
      <trkpt lat="48.62011" lon="1.84836">
        <ele>177.2</ele>
        <time>2026-03-29T12:20:47Z</time>
      </trkpt>
      <trkpt lat="48.62014" lon="1.84829">
        <ele>177.2</ele>
        <time>2026-03-29T12:20:48Z</time>
      </trkpt>
      <trkpt lat="48.62017" lon="1.84822">
        <ele>176.4</ele>
        <time>2026-03-29T12:20:49Z</time>
      </trkpt>
      <trkpt lat="48.6202" lon="1.84813">
        <ele>176.4</ele>
        <time>2026-03-29T12:20:50Z</time>
      </trkpt>
      <trkpt lat="48.62023" lon="1.84806">
        <ele>176.4</ele>
        <time>2026-03-29T12:20:51Z</time>
      </trkpt>
      <trkpt lat="48.62027" lon="1.84799">
        <ele>176.4</ele>
        <time>2026-03-29T12:20:52Z</time>
      </trkpt>
      <trkpt lat="48.6203" lon="1.84791">
        <ele>176.6</ele>
        <time>2026-03-29T12:20:53Z</time>
      </trkpt>
      <trkpt lat="48.62032" lon="1.84783">
        <ele>176.4</ele>
        <time>2026-03-29T12:20:54Z</time>
      </trkpt>
      <trkpt lat="48.62036" lon="1.84775">
        <ele>176.4</ele>
        <time>2026-03-29T12:20:55Z</time>
      </trkpt>
      <trkpt lat="48.62039" lon="1.84768">
        <ele>176.4</ele>
        <time>2026-03-29T12:20:56Z</time>
      </trkpt>
      <trkpt lat="48.62042" lon="1.84761">
        <ele>176.4</ele>
        <time>2026-03-29T12:20:57Z</time>
      </trkpt>
      <trkpt lat="48.62045" lon="1.84754">
        <ele>176</ele>
        <time>2026-03-29T12:20:58Z</time>
      </trkpt>
      <trkpt lat="48.62048" lon="1.84746">
        <ele>176</ele>
        <time>2026-03-29T12:20:59Z</time>
      </trkpt>
      <trkpt lat="48.62051" lon="1.84738">
        <ele>176</ele>
        <time>2026-03-29T12:21:00Z</time>
      </trkpt>
      <trkpt lat="48.62055" lon="1.84731">
        <ele>176</ele>
        <time>2026-03-29T12:21:01Z</time>
      </trkpt>
      <trkpt lat="48.62058" lon="1.84723">
        <ele>175.4</ele>
        <time>2026-03-29T12:21:02Z</time>
      </trkpt>
      <trkpt lat="48.62061" lon="1.84716">
        <ele>175.4</ele>
        <time>2026-03-29T12:21:03Z</time>
      </trkpt>
      <trkpt lat="48.62064" lon="1.84709">
        <ele>175.4</ele>
        <time>2026-03-29T12:21:04Z</time>
      </trkpt>
      <trkpt lat="48.62067" lon="1.84701">
        <ele>175.4</ele>
        <time>2026-03-29T12:21:05Z</time>
      </trkpt>
      <trkpt lat="48.62071" lon="1.84693">
        <ele>175</ele>
        <time>2026-03-29T12:21:06Z</time>
      </trkpt>
      <trkpt lat="48.62075" lon="1.84685">
        <ele>175</ele>
        <time>2026-03-29T12:21:07Z</time>
      </trkpt>
      <trkpt lat="48.62078" lon="1.84677">
        <ele>175</ele>
        <time>2026-03-29T12:21:08Z</time>
      </trkpt>
      <trkpt lat="48.62082" lon="1.8467">
        <ele>175</ele>
        <time>2026-03-29T12:21:09Z</time>
      </trkpt>
      <trkpt lat="48.62085" lon="1.84662">
        <ele>174.6</ele>
        <time>2026-03-29T12:21:10Z</time>
      </trkpt>
      <trkpt lat="48.62088" lon="1.84654">
        <ele>174.6</ele>
        <time>2026-03-29T12:21:11Z</time>
      </trkpt>
      <trkpt lat="48.62091" lon="1.84646">
        <ele>174.6</ele>
        <time>2026-03-29T12:21:12Z</time>
      </trkpt>
      <trkpt lat="48.62094" lon="1.84638">
        <ele>174.6</ele>
        <time>2026-03-29T12:21:13Z</time>
      </trkpt>
      <trkpt lat="48.62097" lon="1.8463">
        <ele>174.8</ele>
        <time>2026-03-29T12:21:14Z</time>
      </trkpt>
      <trkpt lat="48.621" lon="1.84622">
        <ele>174.8</ele>
        <time>2026-03-29T12:21:15Z</time>
      </trkpt>
      <trkpt lat="48.62103" lon="1.84614">
        <ele>174.8</ele>
        <time>2026-03-29T12:21:16Z</time>
      </trkpt>
      <trkpt lat="48.62106" lon="1.84606">
        <ele>174.8</ele>
        <time>2026-03-29T12:21:17Z</time>
      </trkpt>
      <trkpt lat="48.62109" lon="1.84598">
        <ele>174.4</ele>
        <time>2026-03-29T12:21:18Z</time>
      </trkpt>
      <trkpt lat="48.62113" lon="1.84589">
        <ele>174.4</ele>
        <time>2026-03-29T12:21:19Z</time>
      </trkpt>
      <trkpt lat="48.62116" lon="1.84581">
        <ele>174.4</ele>
        <time>2026-03-29T12:21:20Z</time>
      </trkpt>
      <trkpt lat="48.62119" lon="1.84573">
        <ele>174.4</ele>
        <time>2026-03-29T12:21:21Z</time>
      </trkpt>
      <trkpt lat="48.62123" lon="1.84564">
        <ele>174</ele>
        <time>2026-03-29T12:21:22Z</time>
      </trkpt>
      <trkpt lat="48.62126" lon="1.84556">
        <ele>174</ele>
        <time>2026-03-29T12:21:23Z</time>
      </trkpt>
      <trkpt lat="48.62129" lon="1.84548">
        <ele>174</ele>
        <time>2026-03-29T12:21:24Z</time>
      </trkpt>
      <trkpt lat="48.62132" lon="1.8454">
        <ele>175</ele>
        <time>2026-03-29T12:21:25Z</time>
      </trkpt>
      <trkpt lat="48.62136" lon="1.84532">
        <ele>174.4</ele>
        <time>2026-03-29T12:21:26Z</time>
      </trkpt>
      <trkpt lat="48.62139" lon="1.84524">
        <ele>174.4</ele>
        <time>2026-03-29T12:21:27Z</time>
      </trkpt>
      <trkpt lat="48.62141" lon="1.84516">
        <ele>174.4</ele>
        <time>2026-03-29T12:21:28Z</time>
      </trkpt>
      <trkpt lat="48.62144" lon="1.8451">
        <ele>174.4</ele>
        <time>2026-03-29T12:21:29Z</time>
      </trkpt>
      <trkpt lat="48.62147" lon="1.84503">
        <ele>174.6</ele>
        <time>2026-03-29T12:21:30Z</time>
      </trkpt>
      <trkpt lat="48.62149" lon="1.84497">
        <ele>174.6</ele>
        <time>2026-03-29T12:21:31Z</time>
      </trkpt>
      <trkpt lat="48.62151" lon="1.84492">
        <ele>174.6</ele>
        <time>2026-03-29T12:21:32Z</time>
      </trkpt>
      <trkpt lat="48.62153" lon="1.84486">
        <ele>173.8</ele>
        <time>2026-03-29T12:21:33Z</time>
      </trkpt>
      <trkpt lat="48.62154" lon="1.84479">
        <ele>174</ele>
        <time>2026-03-29T12:21:34Z</time>
      </trkpt>
      <trkpt lat="48.62156" lon="1.84473">
        <ele>174</ele>
        <time>2026-03-29T12:21:35Z</time>
      </trkpt>
      <trkpt lat="48.62158" lon="1.84469">
        <ele>174</ele>
        <time>2026-03-29T12:21:36Z</time>
      </trkpt>
      <trkpt lat="48.62162" lon="1.84468">
        <ele>174</ele>
        <time>2026-03-29T12:21:37Z</time>
      </trkpt>
      <trkpt lat="48.62165" lon="1.84469">
        <ele>173.8</ele>
        <time>2026-03-29T12:21:38Z</time>
      </trkpt>
      <trkpt lat="48.62168" lon="1.8447">
        <ele>173.8</ele>
        <time>2026-03-29T12:21:39Z</time>
      </trkpt>
      <trkpt lat="48.62172" lon="1.84472">
        <ele>173.8</ele>
        <time>2026-03-29T12:21:40Z</time>
      </trkpt>
      <trkpt lat="48.62175" lon="1.84474">
        <ele>173</ele>
        <time>2026-03-29T12:21:41Z</time>
      </trkpt>
      <trkpt lat="48.62179" lon="1.84475">
        <ele>173.4</ele>
        <time>2026-03-29T12:21:42Z</time>
      </trkpt>
      <trkpt lat="48.62183" lon="1.84475">
        <ele>173.4</ele>
        <time>2026-03-29T12:21:43Z</time>
      </trkpt>
      <trkpt lat="48.62187" lon="1.84475">
        <ele>173.4</ele>
        <time>2026-03-29T12:21:44Z</time>
      </trkpt>
      <trkpt lat="48.62191" lon="1.84474">
        <ele>173.4</ele>
        <time>2026-03-29T12:21:45Z</time>
      </trkpt>
      <trkpt lat="48.62195" lon="1.84473">
        <ele>172.8</ele>
        <time>2026-03-29T12:21:46Z</time>
      </trkpt>
      <trkpt lat="48.62198" lon="1.84471">
        <ele>172.8</ele>
        <time>2026-03-29T12:21:47Z</time>
      </trkpt>
      <trkpt lat="48.62202" lon="1.8447">
        <ele>172.8</ele>
        <time>2026-03-29T12:21:48Z</time>
      </trkpt>
      <trkpt lat="48.62205" lon="1.84469">
        <ele>173.4</ele>
        <time>2026-03-29T12:21:49Z</time>
      </trkpt>
      <trkpt lat="48.62208" lon="1.84466">
        <ele>173</ele>
        <time>2026-03-29T12:21:50Z</time>
      </trkpt>
      <trkpt lat="48.62212" lon="1.84465">
        <ele>173</ele>
        <time>2026-03-29T12:21:51Z</time>
      </trkpt>
      <trkpt lat="48.62215" lon="1.84462">
        <ele>173</ele>
        <time>2026-03-29T12:21:52Z</time>
      </trkpt>
      <trkpt lat="48.62219" lon="1.84459">
        <ele>173.6</ele>
        <time>2026-03-29T12:21:53Z</time>
      </trkpt>
      <trkpt lat="48.62223" lon="1.84457">
        <ele>173.6</ele>
        <time>2026-03-29T12:21:54Z</time>
      </trkpt>
      <trkpt lat="48.62227" lon="1.84453">
        <ele>173.6</ele>
        <time>2026-03-29T12:21:55Z</time>
      </trkpt>
      <trkpt lat="48.62231" lon="1.8445">
        <ele>173.6</ele>
        <time>2026-03-29T12:21:56Z</time>
      </trkpt>
      <trkpt lat="48.62235" lon="1.84447">
        <ele>173.6</ele>
        <time>2026-03-29T12:21:57Z</time>
      </trkpt>
      <trkpt lat="48.62238" lon="1.84442">
        <ele>172.4</ele>
        <time>2026-03-29T12:21:58Z</time>
      </trkpt>
      <trkpt lat="48.62241" lon="1.84438">
        <ele>172.4</ele>
        <time>2026-03-29T12:21:59Z</time>
      </trkpt>
      <trkpt lat="48.62245" lon="1.84434">
        <ele>172.4</ele>
        <time>2026-03-29T12:22:00Z</time>
      </trkpt>
      <trkpt lat="48.6225" lon="1.8443">
        <ele>173.4</ele>
        <time>2026-03-29T12:22:01Z</time>
      </trkpt>
      <trkpt lat="48.62254" lon="1.84428">
        <ele>173.2</ele>
        <time>2026-03-29T12:22:02Z</time>
      </trkpt>
      <trkpt lat="48.62258" lon="1.84423">
        <ele>173.2</ele>
        <time>2026-03-29T12:22:03Z</time>
      </trkpt>
      <trkpt lat="48.62262" lon="1.84419">
        <ele>173.2</ele>
        <time>2026-03-29T12:22:04Z</time>
      </trkpt>
      <trkpt lat="48.62266" lon="1.84414">
        <ele>173.2</ele>
        <time>2026-03-29T12:22:05Z</time>
      </trkpt>
      <trkpt lat="48.62271" lon="1.8441">
        <ele>172.2</ele>
        <time>2026-03-29T12:22:06Z</time>
      </trkpt>
      <trkpt lat="48.62275" lon="1.84407">
        <ele>172.2</ele>
        <time>2026-03-29T12:22:07Z</time>
      </trkpt>
      <trkpt lat="48.6228" lon="1.84403">
        <ele>172.2</ele>
        <time>2026-03-29T12:22:08Z</time>
      </trkpt>
      <trkpt lat="48.62285" lon="1.84398">
        <ele>172.2</ele>
        <time>2026-03-29T12:22:09Z</time>
      </trkpt>
      <trkpt lat="48.62291" lon="1.84395">
        <ele>170.2</ele>
        <time>2026-03-29T12:22:10Z</time>
      </trkpt>
      <trkpt lat="48.62296" lon="1.84392">
        <ele>170.2</ele>
        <time>2026-03-29T12:22:11Z</time>
      </trkpt>
      <trkpt lat="48.62301" lon="1.84391">
        <ele>170.2</ele>
        <time>2026-03-29T12:22:12Z</time>
      </trkpt>
      <trkpt lat="48.62306" lon="1.84389">
        <ele>170.2</ele>
        <time>2026-03-29T12:22:13Z</time>
      </trkpt>
      <trkpt lat="48.62311" lon="1.84388">
        <ele>170.2</ele>
        <time>2026-03-29T12:22:14Z</time>
      </trkpt>
      <trkpt lat="48.62317" lon="1.84386">
        <ele>170.2</ele>
        <time>2026-03-29T12:22:15Z</time>
      </trkpt>
      <trkpt lat="48.62321" lon="1.84384">
        <ele>170.2</ele>
        <time>2026-03-29T12:22:16Z</time>
      </trkpt>
      <trkpt lat="48.62326" lon="1.84383">
        <ele>169.2</ele>
        <time>2026-03-29T12:22:17Z</time>
      </trkpt>
      <trkpt lat="48.6233" lon="1.84381">
        <ele>168.6</ele>
        <time>2026-03-29T12:22:18Z</time>
      </trkpt>
      <trkpt lat="48.62333" lon="1.84379">
        <ele>168.6</ele>
        <time>2026-03-29T12:22:19Z</time>
      </trkpt>
      <trkpt lat="48.62338" lon="1.84378">
        <ele>168.6</ele>
        <time>2026-03-29T12:22:20Z</time>
      </trkpt>
      <trkpt lat="48.62341" lon="1.84376">
        <ele>168.6</ele>
        <time>2026-03-29T12:22:21Z</time>
      </trkpt>
      <trkpt lat="48.62344" lon="1.84375">
        <ele>169.4</ele>
        <time>2026-03-29T12:22:22Z</time>
      </trkpt>
      <trkpt lat="48.62346" lon="1.84376">
        <ele>169.4</ele>
        <time>2026-03-29T12:22:23Z</time>
      </trkpt>
      <trkpt lat="48.62349" lon="1.84379">
        <ele>169.4</ele>
        <time>2026-03-29T12:22:24Z</time>
      </trkpt>
      <trkpt lat="48.62351" lon="1.84379">
        <ele>169.4</ele>
        <time>2026-03-29T12:22:25Z</time>
      </trkpt>
      <trkpt lat="48.62354" lon="1.84378">
        <ele>169.8</ele>
        <time>2026-03-29T12:22:26Z</time>
      </trkpt>
      <trkpt lat="48.62357" lon="1.84377">
        <ele>169.8</ele>
        <time>2026-03-29T12:22:27Z</time>
      </trkpt>
      <trkpt lat="48.62359" lon="1.84376">
        <ele>169.8</ele>
        <time>2026-03-29T12:22:28Z</time>
      </trkpt>
      <trkpt lat="48.62362" lon="1.84375">
        <ele>169.8</ele>
        <time>2026-03-29T12:22:29Z</time>
      </trkpt>
      <trkpt lat="48.62366" lon="1.84374">
        <ele>170</ele>
        <time>2026-03-29T12:22:30Z</time>
      </trkpt>
      <trkpt lat="48.62369" lon="1.84375">
        <ele>170</ele>
        <time>2026-03-29T12:22:31Z</time>
      </trkpt>
      <trkpt lat="48.62373" lon="1.84376">
        <ele>170</ele>
        <time>2026-03-29T12:22:32Z</time>
      </trkpt>
      <trkpt lat="48.62376" lon="1.84376">
        <ele>171</ele>
        <time>2026-03-29T12:22:33Z</time>
      </trkpt>
      <trkpt lat="48.62379" lon="1.84375">
        <ele>171</ele>
        <time>2026-03-29T12:22:34Z</time>
      </trkpt>
      <trkpt lat="48.6238" lon="1.84375">
        <ele>171</ele>
        <time>2026-03-29T12:22:35Z</time>
      </trkpt>
      <trkpt lat="48.62383" lon="1.84373">
        <ele>171</ele>
        <time>2026-03-29T12:22:36Z</time>
      </trkpt>
      <trkpt lat="48.62386" lon="1.84373">
        <ele>171</ele>
        <time>2026-03-29T12:22:37Z</time>
      </trkpt>
      <trkpt lat="48.62389" lon="1.84372">
        <ele>171</ele>
        <time>2026-03-29T12:22:38Z</time>
      </trkpt>
      <trkpt lat="48.62392" lon="1.84368">
        <ele>171</ele>
        <time>2026-03-29T12:22:39Z</time>
      </trkpt>
      <trkpt lat="48.62395" lon="1.84366">
        <ele>171</ele>
        <time>2026-03-29T12:22:40Z</time>
      </trkpt>
      <trkpt lat="48.62399" lon="1.84366">
        <ele>171.2</ele>
        <time>2026-03-29T12:22:41Z</time>
      </trkpt>
      <trkpt lat="48.62402" lon="1.84366">
        <ele>171</ele>
        <time>2026-03-29T12:22:42Z</time>
      </trkpt>
      <trkpt lat="48.62406" lon="1.84365">
        <ele>171</ele>
        <time>2026-03-29T12:22:43Z</time>
      </trkpt>
      <trkpt lat="48.62409" lon="1.84364">
        <ele>171</ele>
        <time>2026-03-29T12:22:44Z</time>
      </trkpt>
      <trkpt lat="48.62412" lon="1.84364">
        <ele>171.4</ele>
        <time>2026-03-29T12:22:45Z</time>
      </trkpt>
      <trkpt lat="48.62416" lon="1.84364">
        <ele>171.2</ele>
        <time>2026-03-29T12:22:46Z</time>
      </trkpt>
      <trkpt lat="48.62419" lon="1.84364">
        <ele>171.2</ele>
        <time>2026-03-29T12:22:47Z</time>
      </trkpt>
      <trkpt lat="48.62422" lon="1.84364">
        <ele>171.2</ele>
        <time>2026-03-29T12:22:48Z</time>
      </trkpt>
      <trkpt lat="48.62425" lon="1.84363">
        <ele>172.2</ele>
        <time>2026-03-29T12:22:49Z</time>
      </trkpt>
      <trkpt lat="48.62429" lon="1.84363">
        <ele>171.6</ele>
        <time>2026-03-29T12:22:50Z</time>
      </trkpt>
      <trkpt lat="48.62433" lon="1.84361">
        <ele>171.6</ele>
        <time>2026-03-29T12:22:51Z</time>
      </trkpt>
      <trkpt lat="48.62437" lon="1.8436">
        <ele>171.6</ele>
        <time>2026-03-29T12:22:52Z</time>
      </trkpt>
      <trkpt lat="48.62439" lon="1.84358">
        <ele>171.6</ele>
        <time>2026-03-29T12:22:53Z</time>
      </trkpt>
      <trkpt lat="48.62442" lon="1.84355">
        <ele>171.8</ele>
        <time>2026-03-29T12:22:54Z</time>
      </trkpt>
      <trkpt lat="48.62445" lon="1.84352">
        <ele>171.8</ele>
        <time>2026-03-29T12:22:55Z</time>
      </trkpt>
      <trkpt lat="48.62449" lon="1.8435">
        <ele>171.8</ele>
        <time>2026-03-29T12:22:56Z</time>
      </trkpt>
      <trkpt lat="48.62452" lon="1.84348">
        <ele>171.2</ele>
        <time>2026-03-29T12:22:57Z</time>
      </trkpt>
      <trkpt lat="48.62456" lon="1.84347">
        <ele>171.8</ele>
        <time>2026-03-29T12:22:58Z</time>
      </trkpt>
      <trkpt lat="48.62459" lon="1.84345">
        <ele>171.8</ele>
        <time>2026-03-29T12:22:59Z</time>
      </trkpt>
      <trkpt lat="48.62462" lon="1.84342">
        <ele>171.8</ele>
        <time>2026-03-29T12:23:00Z</time>
      </trkpt>
      <trkpt lat="48.62466" lon="1.84341">
        <ele>171.8</ele>
        <time>2026-03-29T12:23:01Z</time>
      </trkpt>
      <trkpt lat="48.62469" lon="1.84341">
        <ele>171.2</ele>
        <time>2026-03-29T12:23:02Z</time>
      </trkpt>
      <trkpt lat="48.62473" lon="1.8434">
        <ele>171.2</ele>
        <time>2026-03-29T12:23:03Z</time>
      </trkpt>
      <trkpt lat="48.62476" lon="1.84339">
        <ele>171.2</ele>
        <time>2026-03-29T12:23:04Z</time>
      </trkpt>
      <trkpt lat="48.6248" lon="1.8434">
        <ele>172</ele>
        <time>2026-03-29T12:23:05Z</time>
      </trkpt>
      <trkpt lat="48.62484" lon="1.84341">
        <ele>170.8</ele>
        <time>2026-03-29T12:23:06Z</time>
      </trkpt>
      <trkpt lat="48.62487" lon="1.84345">
        <ele>170.8</ele>
        <time>2026-03-29T12:23:07Z</time>
      </trkpt>
      <trkpt lat="48.6249" lon="1.84348">
        <ele>170.8</ele>
        <time>2026-03-29T12:23:08Z</time>
      </trkpt>
      <trkpt lat="48.62494" lon="1.84351">
        <ele>171.2</ele>
        <time>2026-03-29T12:23:09Z</time>
      </trkpt>
      <trkpt lat="48.62498" lon="1.84354">
        <ele>171.2</ele>
        <time>2026-03-29T12:23:10Z</time>
      </trkpt>
      <trkpt lat="48.62501" lon="1.84356">
        <ele>171.2</ele>
        <time>2026-03-29T12:23:11Z</time>
      </trkpt>
      <trkpt lat="48.62505" lon="1.84359">
        <ele>171.2</ele>
        <time>2026-03-29T12:23:12Z</time>
      </trkpt>
      <trkpt lat="48.62508" lon="1.84362">
        <ele>172.2</ele>
        <time>2026-03-29T12:23:13Z</time>
      </trkpt>
      <trkpt lat="48.62511" lon="1.84363">
        <ele>171.6</ele>
        <time>2026-03-29T12:23:14Z</time>
      </trkpt>
      <trkpt lat="48.62514" lon="1.84364">
        <ele>171.6</ele>
        <time>2026-03-29T12:23:15Z</time>
      </trkpt>
      <trkpt lat="48.62517" lon="1.84368">
        <ele>171.6</ele>
        <time>2026-03-29T12:23:16Z</time>
      </trkpt>
      <trkpt lat="48.62521" lon="1.84371">
        <ele>172.2</ele>
        <time>2026-03-29T12:23:17Z</time>
      </trkpt>
      <trkpt lat="48.62525" lon="1.84372">
        <ele>171.4</ele>
        <time>2026-03-29T12:23:18Z</time>
      </trkpt>
      <trkpt lat="48.6253" lon="1.84372">
        <ele>171.4</ele>
        <time>2026-03-29T12:23:19Z</time>
      </trkpt>
      <trkpt lat="48.62534" lon="1.84372">
        <ele>171.4</ele>
        <time>2026-03-29T12:23:20Z</time>
      </trkpt>
      <trkpt lat="48.62538" lon="1.84372">
        <ele>171.4</ele>
        <time>2026-03-29T12:23:21Z</time>
      </trkpt>
      <trkpt lat="48.62542" lon="1.84373">
        <ele>171.6</ele>
        <time>2026-03-29T12:23:22Z</time>
      </trkpt>
      <trkpt lat="48.62545" lon="1.84374">
        <ele>171.6</ele>
        <time>2026-03-29T12:23:23Z</time>
      </trkpt>
      <trkpt lat="48.62548" lon="1.84374">
        <ele>171.6</ele>
        <time>2026-03-29T12:23:24Z</time>
      </trkpt>
      <trkpt lat="48.62551" lon="1.84373">
        <ele>171.6</ele>
        <time>2026-03-29T12:23:25Z</time>
      </trkpt>
      <trkpt lat="48.62555" lon="1.84372">
        <ele>171.8</ele>
        <time>2026-03-29T12:23:26Z</time>
      </trkpt>
      <trkpt lat="48.62559" lon="1.84372">
        <ele>171.8</ele>
        <time>2026-03-29T12:23:27Z</time>
      </trkpt>
      <trkpt lat="48.62564" lon="1.84373">
        <ele>171.8</ele>
        <time>2026-03-29T12:23:28Z</time>
      </trkpt>
      <trkpt lat="48.62568" lon="1.84372">
        <ele>171.6</ele>
        <time>2026-03-29T12:23:29Z</time>
      </trkpt>
      <trkpt lat="48.62572" lon="1.84372">
        <ele>171.6</ele>
        <time>2026-03-29T12:23:30Z</time>
      </trkpt>
      <trkpt lat="48.62576" lon="1.84372">
        <ele>171.6</ele>
        <time>2026-03-29T12:23:31Z</time>
      </trkpt>
      <trkpt lat="48.62581" lon="1.84371">
        <ele>171.6</ele>
        <time>2026-03-29T12:23:32Z</time>
      </trkpt>
      <trkpt lat="48.62585" lon="1.84372">
        <ele>171.6</ele>
        <time>2026-03-29T12:23:33Z</time>
      </trkpt>
      <trkpt lat="48.62589" lon="1.84373">
        <ele>171.6</ele>
        <time>2026-03-29T12:23:34Z</time>
      </trkpt>
      <trkpt lat="48.62593" lon="1.84374">
        <ele>171.6</ele>
        <time>2026-03-29T12:23:35Z</time>
      </trkpt>
      <trkpt lat="48.62597" lon="1.84375">
        <ele>171.6</ele>
        <time>2026-03-29T12:23:36Z</time>
      </trkpt>
      <trkpt lat="48.62602" lon="1.84375">
        <ele>171.6</ele>
        <time>2026-03-29T12:23:37Z</time>
      </trkpt>
      <trkpt lat="48.62607" lon="1.84373">
        <ele>171.8</ele>
        <time>2026-03-29T12:23:38Z</time>
      </trkpt>
      <trkpt lat="48.6261" lon="1.84369">
        <ele>171.8</ele>
        <time>2026-03-29T12:23:39Z</time>
      </trkpt>
      <trkpt lat="48.62613" lon="1.84364">
        <ele>171.8</ele>
        <time>2026-03-29T12:23:40Z</time>
      </trkpt>
      <trkpt lat="48.62616" lon="1.84358">
        <ele>170.8</ele>
        <time>2026-03-29T12:23:41Z</time>
      </trkpt>
      <trkpt lat="48.62619" lon="1.84352">
        <ele>170.4</ele>
        <time>2026-03-29T12:23:42Z</time>
      </trkpt>
      <trkpt lat="48.62622" lon="1.84345">
        <ele>170.4</ele>
        <time>2026-03-29T12:23:43Z</time>
      </trkpt>
      <trkpt lat="48.62624" lon="1.8434">
        <ele>170.4</ele>
        <time>2026-03-29T12:23:44Z</time>
      </trkpt>
      <trkpt lat="48.62627" lon="1.84335">
        <ele>170.2</ele>
        <time>2026-03-29T12:23:45Z</time>
      </trkpt>
      <trkpt lat="48.6263" lon="1.84329">
        <ele>170</ele>
        <time>2026-03-29T12:23:46Z</time>
      </trkpt>
      <trkpt lat="48.62633" lon="1.84324">
        <ele>170</ele>
        <time>2026-03-29T12:23:47Z</time>
      </trkpt>
      <trkpt lat="48.62636" lon="1.84318">
        <ele>170</ele>
        <time>2026-03-29T12:23:48Z</time>
      </trkpt>
      <trkpt lat="48.62639" lon="1.84312">
        <ele>169.8</ele>
        <time>2026-03-29T12:23:49Z</time>
      </trkpt>
      <trkpt lat="48.62641" lon="1.84306">
        <ele>169.6</ele>
        <time>2026-03-29T12:23:50Z</time>
      </trkpt>
      <trkpt lat="48.62644" lon="1.84299">
        <ele>169.6</ele>
        <time>2026-03-29T12:23:51Z</time>
      </trkpt>
      <trkpt lat="48.62646" lon="1.84293">
        <ele>169.6</ele>
        <time>2026-03-29T12:23:52Z</time>
      </trkpt>
      <trkpt lat="48.62649" lon="1.84287">
        <ele>169.8</ele>
        <time>2026-03-29T12:23:53Z</time>
      </trkpt>
      <trkpt lat="48.62651" lon="1.84281">
        <ele>169.8</ele>
        <time>2026-03-29T12:23:54Z</time>
      </trkpt>
      <trkpt lat="48.62654" lon="1.84275">
        <ele>169.8</ele>
        <time>2026-03-29T12:23:55Z</time>
      </trkpt>
      <trkpt lat="48.62656" lon="1.84269">
        <ele>169.8</ele>
        <time>2026-03-29T12:23:56Z</time>
      </trkpt>
      <trkpt lat="48.62658" lon="1.84263">
        <ele>169.8</ele>
        <time>2026-03-29T12:23:57Z</time>
      </trkpt>
      <trkpt lat="48.6266" lon="1.84256">
        <ele>170</ele>
        <time>2026-03-29T12:23:58Z</time>
      </trkpt>
      <trkpt lat="48.62662" lon="1.8425">
        <ele>170</ele>
        <time>2026-03-29T12:23:59Z</time>
      </trkpt>
      <trkpt lat="48.62664" lon="1.84243">
        <ele>170</ele>
        <time>2026-03-29T12:24:00Z</time>
      </trkpt>
      <trkpt lat="48.62666" lon="1.84237">
        <ele>170</ele>
        <time>2026-03-29T12:24:01Z</time>
      </trkpt>
      <trkpt lat="48.62668" lon="1.8423">
        <ele>169.6</ele>
        <time>2026-03-29T12:24:02Z</time>
      </trkpt>
      <trkpt lat="48.6267" lon="1.84223">
        <ele>169.6</ele>
        <time>2026-03-29T12:24:03Z</time>
      </trkpt>
      <trkpt lat="48.62672" lon="1.84217">
        <ele>169.6</ele>
        <time>2026-03-29T12:24:04Z</time>
      </trkpt>
      <trkpt lat="48.62674" lon="1.8421">
        <ele>169.6</ele>
        <time>2026-03-29T12:24:05Z</time>
      </trkpt>
      <trkpt lat="48.62676" lon="1.84203">
        <ele>170.2</ele>
        <time>2026-03-29T12:24:06Z</time>
      </trkpt>
      <trkpt lat="48.62678" lon="1.84197">
        <ele>170.2</ele>
        <time>2026-03-29T12:24:07Z</time>
      </trkpt>
      <trkpt lat="48.6268" lon="1.8419">
        <ele>170.2</ele>
        <time>2026-03-29T12:24:08Z</time>
      </trkpt>
      <trkpt lat="48.62682" lon="1.84184">
        <ele>170.2</ele>
        <time>2026-03-29T12:24:09Z</time>
      </trkpt>
      <trkpt lat="48.62684" lon="1.84178">
        <ele>169.8</ele>
        <time>2026-03-29T12:24:10Z</time>
      </trkpt>
      <trkpt lat="48.62686" lon="1.84172">
        <ele>169.8</ele>
        <time>2026-03-29T12:24:11Z</time>
      </trkpt>
      <trkpt lat="48.62688" lon="1.84166">
        <ele>169.8</ele>
        <time>2026-03-29T12:24:12Z</time>
      </trkpt>
      <trkpt lat="48.62691" lon="1.84162">
        <ele>170.2</ele>
        <time>2026-03-29T12:24:13Z</time>
      </trkpt>
      <trkpt lat="48.62694" lon="1.8416">
        <ele>169.6</ele>
        <time>2026-03-29T12:24:14Z</time>
      </trkpt>
      <trkpt lat="48.62696" lon="1.84162">
        <ele>169.6</ele>
        <time>2026-03-29T12:24:15Z</time>
      </trkpt>
      <trkpt lat="48.62698" lon="1.84164">
        <ele>169.6</ele>
        <time>2026-03-29T12:24:16Z</time>
      </trkpt>
      <trkpt lat="48.627" lon="1.84168">
        <ele>169.6</ele>
        <time>2026-03-29T12:24:17Z</time>
      </trkpt>
      <trkpt lat="48.62703" lon="1.84172">
        <ele>169.8</ele>
        <time>2026-03-29T12:24:18Z</time>
      </trkpt>
      <trkpt lat="48.62705" lon="1.84177">
        <ele>169.8</ele>
        <time>2026-03-29T12:24:19Z</time>
      </trkpt>
      <trkpt lat="48.62706" lon="1.84182">
        <ele>169.8</ele>
        <time>2026-03-29T12:24:20Z</time>
      </trkpt>
      <trkpt lat="48.62707" lon="1.84186">
        <ele>169.8</ele>
        <time>2026-03-29T12:24:21Z</time>
      </trkpt>
      <trkpt lat="48.62708" lon="1.8419">
        <ele>169.4</ele>
        <time>2026-03-29T12:24:22Z</time>
      </trkpt>
      <trkpt lat="48.6271" lon="1.84194">
        <ele>169.4</ele>
        <time>2026-03-29T12:24:23Z</time>
      </trkpt>
      <trkpt lat="48.62712" lon="1.84198">
        <ele>169.4</ele>
        <time>2026-03-29T12:24:24Z</time>
      </trkpt>
      <trkpt lat="48.62715" lon="1.84203">
        <ele>169.4</ele>
        <time>2026-03-29T12:24:25Z</time>
      </trkpt>
      <trkpt lat="48.62718" lon="1.84208">
        <ele>169</ele>
        <time>2026-03-29T12:24:26Z</time>
      </trkpt>
      <trkpt lat="48.62721" lon="1.84214">
        <ele>169</ele>
        <time>2026-03-29T12:24:27Z</time>
      </trkpt>
      <trkpt lat="48.62725" lon="1.8422">
        <ele>169</ele>
        <time>2026-03-29T12:24:28Z</time>
      </trkpt>
      <trkpt lat="48.62729" lon="1.84224">
        <ele>169</ele>
        <time>2026-03-29T12:24:29Z</time>
      </trkpt>
      <trkpt lat="48.62732" lon="1.84228">
        <ele>169.2</ele>
        <time>2026-03-29T12:24:30Z</time>
      </trkpt>
      <trkpt lat="48.62737" lon="1.84231">
        <ele>169.2</ele>
        <time>2026-03-29T12:24:31Z</time>
      </trkpt>
      <trkpt lat="48.62742" lon="1.84234">
        <ele>169.2</ele>
        <time>2026-03-29T12:24:32Z</time>
      </trkpt>
      <trkpt lat="48.62746" lon="1.84236">
        <ele>169.2</ele>
        <time>2026-03-29T12:24:33Z</time>
      </trkpt>
      <trkpt lat="48.6275" lon="1.84239">
        <ele>169.8</ele>
        <time>2026-03-29T12:24:34Z</time>
      </trkpt>
      <trkpt lat="48.62755" lon="1.84242">
        <ele>169.8</ele>
        <time>2026-03-29T12:24:35Z</time>
      </trkpt>
      <trkpt lat="48.62759" lon="1.84246">
        <ele>169.8</ele>
        <time>2026-03-29T12:24:36Z</time>
      </trkpt>
      <trkpt lat="48.62764" lon="1.84249">
        <ele>169.2</ele>
        <time>2026-03-29T12:24:37Z</time>
      </trkpt>
      <trkpt lat="48.62768" lon="1.84252">
        <ele>168.6</ele>
        <time>2026-03-29T12:24:38Z</time>
      </trkpt>
      <trkpt lat="48.62772" lon="1.84256">
        <ele>168.6</ele>
        <time>2026-03-29T12:24:39Z</time>
      </trkpt>
      <trkpt lat="48.62777" lon="1.84259">
        <ele>168.6</ele>
        <time>2026-03-29T12:24:40Z</time>
      </trkpt>
      <trkpt lat="48.62782" lon="1.84262">
        <ele>168.6</ele>
        <time>2026-03-29T12:24:41Z</time>
      </trkpt>
      <trkpt lat="48.62787" lon="1.84264">
        <ele>168.8</ele>
        <time>2026-03-29T12:24:42Z</time>
      </trkpt>
      <trkpt lat="48.62791" lon="1.84267">
        <ele>168.8</ele>
        <time>2026-03-29T12:24:43Z</time>
      </trkpt>
      <trkpt lat="48.62795" lon="1.84269">
        <ele>168.8</ele>
        <time>2026-03-29T12:24:44Z</time>
      </trkpt>
      <trkpt lat="48.628" lon="1.84271">
        <ele>168.8</ele>
        <time>2026-03-29T12:24:45Z</time>
      </trkpt>
      <trkpt lat="48.62804" lon="1.84274">
        <ele>168.2</ele>
        <time>2026-03-29T12:24:46Z</time>
      </trkpt>
      <trkpt lat="48.62807" lon="1.84277">
        <ele>168.2</ele>
        <time>2026-03-29T12:24:47Z</time>
      </trkpt>
      <trkpt lat="48.6281" lon="1.8428">
        <ele>168.2</ele>
        <time>2026-03-29T12:24:48Z</time>
      </trkpt>
      <trkpt lat="48.62814" lon="1.84284">
        <ele>169</ele>
        <time>2026-03-29T12:24:49Z</time>
      </trkpt>
      <trkpt lat="48.62818" lon="1.84289">
        <ele>168.8</ele>
        <time>2026-03-29T12:24:50Z</time>
      </trkpt>
      <trkpt lat="48.62822" lon="1.84293">
        <ele>168.8</ele>
        <time>2026-03-29T12:24:51Z</time>
      </trkpt>
      <trkpt lat="48.62826" lon="1.84294">
        <ele>168.8</ele>
        <time>2026-03-29T12:24:52Z</time>
      </trkpt>
      <trkpt lat="48.6283" lon="1.84295">
        <ele>168.8</ele>
        <time>2026-03-29T12:24:53Z</time>
      </trkpt>
      <trkpt lat="48.62835" lon="1.84296">
        <ele>169</ele>
        <time>2026-03-29T12:24:54Z</time>
      </trkpt>
      <trkpt lat="48.62839" lon="1.84296">
        <ele>169</ele>
        <time>2026-03-29T12:24:55Z</time>
      </trkpt>
      <trkpt lat="48.62843" lon="1.84297">
        <ele>169</ele>
        <time>2026-03-29T12:24:56Z</time>
      </trkpt>
      <trkpt lat="48.62848" lon="1.84297">
        <ele>169</ele>
        <time>2026-03-29T12:24:57Z</time>
      </trkpt>
      <trkpt lat="48.62852" lon="1.84295">
        <ele>169.4</ele>
        <time>2026-03-29T12:24:58Z</time>
      </trkpt>
      <trkpt lat="48.62856" lon="1.84294">
        <ele>169.4</ele>
        <time>2026-03-29T12:24:59Z</time>
      </trkpt>
      <trkpt lat="48.6286" lon="1.84292">
        <ele>169.4</ele>
        <time>2026-03-29T12:25:00Z</time>
      </trkpt>
      <trkpt lat="48.62863" lon="1.84288">
        <ele>169.4</ele>
        <time>2026-03-29T12:25:01Z</time>
      </trkpt>
      <trkpt lat="48.62867" lon="1.84287">
        <ele>169.2</ele>
        <time>2026-03-29T12:25:02Z</time>
      </trkpt>
      <trkpt lat="48.62871" lon="1.84285">
        <ele>169.2</ele>
        <time>2026-03-29T12:25:03Z</time>
      </trkpt>
      <trkpt lat="48.62875" lon="1.84284">
        <ele>169.2</ele>
        <time>2026-03-29T12:25:04Z</time>
      </trkpt>
      <trkpt lat="48.62878" lon="1.84282">
        <ele>169.4</ele>
        <time>2026-03-29T12:25:05Z</time>
      </trkpt>
      <trkpt lat="48.62882" lon="1.84279">
        <ele>169.4</ele>
        <time>2026-03-29T12:25:06Z</time>
      </trkpt>
      <trkpt lat="48.62886" lon="1.84276">
        <ele>169.4</ele>
        <time>2026-03-29T12:25:07Z</time>
      </trkpt>
      <trkpt lat="48.6289" lon="1.84273">
        <ele>169.4</ele>
        <time>2026-03-29T12:25:08Z</time>
      </trkpt>
      <trkpt lat="48.62894" lon="1.84271">
        <ele>169.2</ele>
        <time>2026-03-29T12:25:09Z</time>
      </trkpt>
      <trkpt lat="48.62898" lon="1.84269">
        <ele>169.2</ele>
        <time>2026-03-29T12:25:10Z</time>
      </trkpt>
      <trkpt lat="48.62902" lon="1.84266">
        <ele>169.2</ele>
        <time>2026-03-29T12:25:11Z</time>
      </trkpt>
      <trkpt lat="48.62905" lon="1.84264">
        <ele>169.2</ele>
        <time>2026-03-29T12:25:12Z</time>
      </trkpt>
      <trkpt lat="48.62908" lon="1.84261">
        <ele>168.6</ele>
        <time>2026-03-29T12:25:13Z</time>
      </trkpt>
      <trkpt lat="48.62912" lon="1.84259">
        <ele>168.6</ele>
        <time>2026-03-29T12:25:14Z</time>
      </trkpt>
      <trkpt lat="48.62916" lon="1.84257">
        <ele>168.6</ele>
        <time>2026-03-29T12:25:15Z</time>
      </trkpt>
      <trkpt lat="48.62918" lon="1.84253">
        <ele>168.6</ele>
        <time>2026-03-29T12:25:16Z</time>
      </trkpt>
      <trkpt lat="48.62922" lon="1.84251">
        <ele>168.6</ele>
        <time>2026-03-29T12:25:17Z</time>
      </trkpt>
      <trkpt lat="48.62926" lon="1.84249">
        <ele>168.6</ele>
        <time>2026-03-29T12:25:18Z</time>
      </trkpt>
      <trkpt lat="48.6293" lon="1.84247">
        <ele>168.6</ele>
        <time>2026-03-29T12:25:19Z</time>
      </trkpt>
      <trkpt lat="48.62933" lon="1.84244">
        <ele>168.6</ele>
        <time>2026-03-29T12:25:20Z</time>
      </trkpt>
      <trkpt lat="48.62937" lon="1.84241">
        <ele>169</ele>
        <time>2026-03-29T12:25:21Z</time>
      </trkpt>
      <trkpt lat="48.62941" lon="1.84238">
        <ele>169.4</ele>
        <time>2026-03-29T12:25:22Z</time>
      </trkpt>
      <trkpt lat="48.62944" lon="1.84236">
        <ele>169.4</ele>
        <time>2026-03-29T12:25:23Z</time>
      </trkpt>
      <trkpt lat="48.62948" lon="1.84234">
        <ele>169.4</ele>
        <time>2026-03-29T12:25:24Z</time>
      </trkpt>
      <trkpt lat="48.62951" lon="1.84231">
        <ele>168.6</ele>
        <time>2026-03-29T12:25:25Z</time>
      </trkpt>
      <trkpt lat="48.62955" lon="1.84229">
        <ele>169</ele>
        <time>2026-03-29T12:25:26Z</time>
      </trkpt>
      <trkpt lat="48.62959" lon="1.84228">
        <ele>169</ele>
        <time>2026-03-29T12:25:27Z</time>
      </trkpt>
      <trkpt lat="48.62963" lon="1.84227">
        <ele>169</ele>
        <time>2026-03-29T12:25:28Z</time>
      </trkpt>
      <trkpt lat="48.62967" lon="1.84226">
        <ele>169</ele>
        <time>2026-03-29T12:25:29Z</time>
      </trkpt>
      <trkpt lat="48.6297" lon="1.84223">
        <ele>169</ele>
        <time>2026-03-29T12:25:30Z</time>
      </trkpt>
      <trkpt lat="48.62974" lon="1.84221">
        <ele>169</ele>
        <time>2026-03-29T12:25:31Z</time>
      </trkpt>
      <trkpt lat="48.62978" lon="1.84219">
        <ele>169</ele>
        <time>2026-03-29T12:25:32Z</time>
      </trkpt>
      <trkpt lat="48.62981" lon="1.84217">
        <ele>169</ele>
        <time>2026-03-29T12:25:33Z</time>
      </trkpt>
      <trkpt lat="48.62985" lon="1.84215">
        <ele>169</ele>
        <time>2026-03-29T12:25:34Z</time>
      </trkpt>
      <trkpt lat="48.62989" lon="1.84212">
        <ele>169</ele>
        <time>2026-03-29T12:25:35Z</time>
      </trkpt>
      <trkpt lat="48.62993" lon="1.8421">
        <ele>169</ele>
        <time>2026-03-29T12:25:36Z</time>
      </trkpt>
      <trkpt lat="48.62997" lon="1.84207">
        <ele>168.6</ele>
        <time>2026-03-29T12:25:37Z</time>
      </trkpt>
      <trkpt lat="48.63" lon="1.84204">
        <ele>169</ele>
        <time>2026-03-29T12:25:38Z</time>
      </trkpt>
      <trkpt lat="48.63003" lon="1.842">
        <ele>169</ele>
        <time>2026-03-29T12:25:39Z</time>
      </trkpt>
      <trkpt lat="48.63007" lon="1.84196">
        <ele>169</ele>
        <time>2026-03-29T12:25:40Z</time>
      </trkpt>
      <trkpt lat="48.6301" lon="1.84193">
        <ele>169</ele>
        <time>2026-03-29T12:25:41Z</time>
      </trkpt>
      <trkpt lat="48.63013" lon="1.84189">
        <ele>169.2</ele>
        <time>2026-03-29T12:25:42Z</time>
      </trkpt>
      <trkpt lat="48.63016" lon="1.84185">
        <ele>169.2</ele>
        <time>2026-03-29T12:25:43Z</time>
      </trkpt>
      <trkpt lat="48.63018" lon="1.84181">
        <ele>169.2</ele>
        <time>2026-03-29T12:25:44Z</time>
      </trkpt>
      <trkpt lat="48.63021" lon="1.84178">
        <ele>169.2</ele>
        <time>2026-03-29T12:25:45Z</time>
      </trkpt>
      <trkpt lat="48.63023" lon="1.84175">
        <ele>169.8</ele>
        <time>2026-03-29T12:25:46Z</time>
      </trkpt>
      <trkpt lat="48.63027" lon="1.84171">
        <ele>169.8</ele>
        <time>2026-03-29T12:25:47Z</time>
      </trkpt>
      <trkpt lat="48.63029" lon="1.84169">
        <ele>169.8</ele>
        <time>2026-03-29T12:25:48Z</time>
      </trkpt>
      <trkpt lat="48.63031" lon="1.84168">
        <ele>169</ele>
        <time>2026-03-29T12:25:49Z</time>
      </trkpt>
      <trkpt lat="48.63032" lon="1.84168">
        <ele>169.2</ele>
        <time>2026-03-29T12:25:50Z</time>
      </trkpt>
      <trkpt lat="48.63034" lon="1.84168">
        <ele>169.2</ele>
        <time>2026-03-29T12:25:51Z</time>
      </trkpt>
      <trkpt lat="48.63036" lon="1.84167">
        <ele>169.2</ele>
        <time>2026-03-29T12:25:52Z</time>
      </trkpt>
      <trkpt lat="48.63038" lon="1.84166">
        <ele>169.2</ele>
        <time>2026-03-29T12:25:53Z</time>
      </trkpt>
      <trkpt lat="48.6304" lon="1.84164">
        <ele>169.6</ele>
        <time>2026-03-29T12:25:54Z</time>
      </trkpt>
      <trkpt lat="48.63042" lon="1.84162">
        <ele>169.6</ele>
        <time>2026-03-29T12:25:55Z</time>
      </trkpt>
      <trkpt lat="48.63043" lon="1.84161">
        <ele>169.6</ele>
        <time>2026-03-29T12:25:56Z</time>
      </trkpt>
      <trkpt lat="48.63045" lon="1.84159">
        <ele>169.6</ele>
        <time>2026-03-29T12:25:57Z</time>
      </trkpt>
      <trkpt lat="48.63047" lon="1.84157">
        <ele>169.6</ele>
        <time>2026-03-29T12:25:58Z</time>
      </trkpt>
      <trkpt lat="48.63048" lon="1.84156">
        <ele>169.6</ele>
        <time>2026-03-29T12:25:59Z</time>
      </trkpt>
      <trkpt lat="48.63049" lon="1.84155">
        <ele>169.6</ele>
        <time>2026-03-29T12:26:00Z</time>
      </trkpt>
      <trkpt lat="48.63051" lon="1.84154">
        <ele>169.6</ele>
        <time>2026-03-29T12:26:01Z</time>
      </trkpt>
      <trkpt lat="48.63054" lon="1.84153">
        <ele>170</ele>
        <time>2026-03-29T12:26:02Z</time>
      </trkpt>
      <trkpt lat="48.63057" lon="1.8415">
        <ele>170</ele>
        <time>2026-03-29T12:26:03Z</time>
      </trkpt>
      <trkpt lat="48.6306" lon="1.84149">
        <ele>170</ele>
        <time>2026-03-29T12:26:04Z</time>
      </trkpt>
      <trkpt lat="48.63063" lon="1.84149">
        <ele>170</ele>
        <time>2026-03-29T12:26:05Z</time>
      </trkpt>
      <trkpt lat="48.63065" lon="1.84148">
        <ele>170.8</ele>
        <time>2026-03-29T12:26:06Z</time>
      </trkpt>
      <trkpt lat="48.63068" lon="1.84145">
        <ele>170.8</ele>
        <time>2026-03-29T12:26:07Z</time>
      </trkpt>
      <trkpt lat="48.63071" lon="1.84143">
        <ele>170.8</ele>
        <time>2026-03-29T12:26:08Z</time>
      </trkpt>
      <trkpt lat="48.63074" lon="1.84141">
        <ele>170.8</ele>
        <time>2026-03-29T12:26:09Z</time>
      </trkpt>
      <trkpt lat="48.63076" lon="1.8414">
        <ele>171</ele>
        <time>2026-03-29T12:26:10Z</time>
      </trkpt>
      <trkpt lat="48.63079" lon="1.84137">
        <ele>171</ele>
        <time>2026-03-29T12:26:11Z</time>
      </trkpt>
      <trkpt lat="48.63081" lon="1.84133">
        <ele>171</ele>
        <time>2026-03-29T12:26:12Z</time>
      </trkpt>
      <trkpt lat="48.63083" lon="1.84131">
        <ele>171</ele>
        <time>2026-03-29T12:26:13Z</time>
      </trkpt>
      <trkpt lat="48.63085" lon="1.84129">
        <ele>171.4</ele>
        <time>2026-03-29T12:26:14Z</time>
      </trkpt>
      <trkpt lat="48.63087" lon="1.84127">
        <ele>171.4</ele>
        <time>2026-03-29T12:26:15Z</time>
      </trkpt>
      <trkpt lat="48.63088" lon="1.84124">
        <ele>171.4</ele>
        <time>2026-03-29T12:26:16Z</time>
      </trkpt>
      <trkpt lat="48.63089" lon="1.8412">
        <ele>171.4</ele>
        <time>2026-03-29T12:26:17Z</time>
      </trkpt>
      <trkpt lat="48.6309" lon="1.84117">
        <ele>171.6</ele>
        <time>2026-03-29T12:26:18Z</time>
      </trkpt>
      <trkpt lat="48.6309" lon="1.84114">
        <ele>171.6</ele>
        <time>2026-03-29T12:26:19Z</time>
      </trkpt>
      <trkpt lat="48.63091" lon="1.84111">
        <ele>171.6</ele>
        <time>2026-03-29T12:26:20Z</time>
      </trkpt>
      <trkpt lat="48.63092" lon="1.84108">
        <ele>171.4</ele>
        <time>2026-03-29T12:26:21Z</time>
      </trkpt>
      <trkpt lat="48.63094" lon="1.84105">
        <ele>170.8</ele>
        <time>2026-03-29T12:26:22Z</time>
      </trkpt>
      <trkpt lat="48.63095" lon="1.84102">
        <ele>170.8</ele>
        <time>2026-03-29T12:26:23Z</time>
      </trkpt>
      <trkpt lat="48.63098" lon="1.84099">
        <ele>170.8</ele>
        <time>2026-03-29T12:26:24Z</time>
      </trkpt>
      <trkpt lat="48.631" lon="1.84097">
        <ele>171.2</ele>
        <time>2026-03-29T12:26:25Z</time>
      </trkpt>
      <trkpt lat="48.63103" lon="1.84095">
        <ele>171.2</ele>
        <time>2026-03-29T12:26:26Z</time>
      </trkpt>
      <trkpt lat="48.63106" lon="1.84093">
        <ele>171.2</ele>
        <time>2026-03-29T12:26:27Z</time>
      </trkpt>
      <trkpt lat="48.63109" lon="1.84092">
        <ele>171.2</ele>
        <time>2026-03-29T12:26:28Z</time>
      </trkpt>
      <trkpt lat="48.63112" lon="1.84091">
        <ele>171.2</ele>
        <time>2026-03-29T12:26:29Z</time>
      </trkpt>
      <trkpt lat="48.63115" lon="1.84089">
        <ele>171.6</ele>
        <time>2026-03-29T12:26:30Z</time>
      </trkpt>
      <trkpt lat="48.63118" lon="1.84087">
        <ele>171.6</ele>
        <time>2026-03-29T12:26:31Z</time>
      </trkpt>
      <trkpt lat="48.63121" lon="1.84085">
        <ele>171.6</ele>
        <time>2026-03-29T12:26:32Z</time>
      </trkpt>
      <trkpt lat="48.63125" lon="1.84084">
        <ele>171.6</ele>
        <time>2026-03-29T12:26:33Z</time>
      </trkpt>
      <trkpt lat="48.63128" lon="1.84083">
        <ele>172.4</ele>
        <time>2026-03-29T12:26:34Z</time>
      </trkpt>
      <trkpt lat="48.63131" lon="1.84081">
        <ele>172.4</ele>
        <time>2026-03-29T12:26:35Z</time>
      </trkpt>
      <trkpt lat="48.63134" lon="1.84081">
        <ele>172.4</ele>
        <time>2026-03-29T12:26:36Z</time>
      </trkpt>
      <trkpt lat="48.63136" lon="1.84083">
        <ele>172.4</ele>
        <time>2026-03-29T12:26:37Z</time>
      </trkpt>
      <trkpt lat="48.63138" lon="1.84083">
        <ele>172.4</ele>
        <time>2026-03-29T12:26:38Z</time>
      </trkpt>
      <trkpt lat="48.6314" lon="1.8408">
        <ele>172.4</ele>
        <time>2026-03-29T12:26:39Z</time>
      </trkpt>
      <trkpt lat="48.63143" lon="1.84078">
        <ele>172.4</ele>
        <time>2026-03-29T12:26:40Z</time>
      </trkpt>
      <trkpt lat="48.63145" lon="1.84077">
        <ele>172.6</ele>
        <time>2026-03-29T12:26:41Z</time>
      </trkpt>
      <trkpt lat="48.63147" lon="1.84075">
        <ele>172.2</ele>
        <time>2026-03-29T12:26:42Z</time>
      </trkpt>
      <trkpt lat="48.6315" lon="1.84073">
        <ele>172.2</ele>
        <time>2026-03-29T12:26:43Z</time>
      </trkpt>
      <trkpt lat="48.63152" lon="1.8407">
        <ele>172.2</ele>
        <time>2026-03-29T12:26:44Z</time>
      </trkpt>
      <trkpt lat="48.63155" lon="1.84068">
        <ele>172.6</ele>
        <time>2026-03-29T12:26:45Z</time>
      </trkpt>
      <trkpt lat="48.63158" lon="1.84065">
        <ele>172.8</ele>
        <time>2026-03-29T12:26:46Z</time>
      </trkpt>
      <trkpt lat="48.63161" lon="1.84062">
        <ele>172.8</ele>
        <time>2026-03-29T12:26:47Z</time>
      </trkpt>
      <trkpt lat="48.63164" lon="1.84059">
        <ele>172.8</ele>
        <time>2026-03-29T12:26:48Z</time>
      </trkpt>
      <trkpt lat="48.63167" lon="1.84057">
        <ele>172.8</ele>
        <time>2026-03-29T12:26:49Z</time>
      </trkpt>
      <trkpt lat="48.6317" lon="1.84054">
        <ele>173</ele>
        <time>2026-03-29T12:26:50Z</time>
      </trkpt>
      <trkpt lat="48.63173" lon="1.84053">
        <ele>173</ele>
        <time>2026-03-29T12:26:51Z</time>
      </trkpt>
      <trkpt lat="48.63176" lon="1.84052">
        <ele>173</ele>
        <time>2026-03-29T12:26:52Z</time>
      </trkpt>
      <trkpt lat="48.6318" lon="1.84051">
        <ele>173</ele>
        <time>2026-03-29T12:26:53Z</time>
      </trkpt>
      <trkpt lat="48.63183" lon="1.8405">
        <ele>173</ele>
        <time>2026-03-29T12:26:54Z</time>
      </trkpt>
      <trkpt lat="48.63187" lon="1.84049">
        <ele>173</ele>
        <time>2026-03-29T12:26:55Z</time>
      </trkpt>
      <trkpt lat="48.63191" lon="1.84049">
        <ele>173</ele>
        <time>2026-03-29T12:26:56Z</time>
      </trkpt>
      <trkpt lat="48.63194" lon="1.84048">
        <ele>173.2</ele>
        <time>2026-03-29T12:26:57Z</time>
      </trkpt>
      <trkpt lat="48.63198" lon="1.84048">
        <ele>173.2</ele>
        <time>2026-03-29T12:26:58Z</time>
      </trkpt>
      <trkpt lat="48.63201" lon="1.84046">
        <ele>173.2</ele>
        <time>2026-03-29T12:26:59Z</time>
      </trkpt>
      <trkpt lat="48.63203" lon="1.84044">
        <ele>173.2</ele>
        <time>2026-03-29T12:27:00Z</time>
      </trkpt>
      <trkpt lat="48.63206" lon="1.84042">
        <ele>173.2</ele>
        <time>2026-03-29T12:27:01Z</time>
      </trkpt>
      <trkpt lat="48.63209" lon="1.8404">
        <ele>174</ele>
        <time>2026-03-29T12:27:02Z</time>
      </trkpt>
      <trkpt lat="48.63212" lon="1.84038">
        <ele>174</ele>
        <time>2026-03-29T12:27:03Z</time>
      </trkpt>
      <trkpt lat="48.63215" lon="1.84036">
        <ele>174</ele>
        <time>2026-03-29T12:27:04Z</time>
      </trkpt>
      <trkpt lat="48.63217" lon="1.84034">
        <ele>173.2</ele>
        <time>2026-03-29T12:27:05Z</time>
      </trkpt>
      <trkpt lat="48.6322" lon="1.84031">
        <ele>174</ele>
        <time>2026-03-29T12:27:06Z</time>
      </trkpt>
      <trkpt lat="48.63221" lon="1.84029">
        <ele>174</ele>
        <time>2026-03-29T12:27:07Z</time>
      </trkpt>
      <trkpt lat="48.63223" lon="1.84028">
        <ele>174</ele>
        <time>2026-03-29T12:27:08Z</time>
      </trkpt>
      <trkpt lat="48.63225" lon="1.84026">
        <ele>173.4</ele>
        <time>2026-03-29T12:27:09Z</time>
      </trkpt>
      <trkpt lat="48.63228" lon="1.84024">
        <ele>174</ele>
        <time>2026-03-29T12:27:10Z</time>
      </trkpt>
      <trkpt lat="48.6323" lon="1.84021">
        <ele>174</ele>
        <time>2026-03-29T12:27:11Z</time>
      </trkpt>
      <trkpt lat="48.63233" lon="1.84019">
        <ele>174</ele>
        <time>2026-03-29T12:27:12Z</time>
      </trkpt>
      <trkpt lat="48.63236" lon="1.84017">
        <ele>174</ele>
        <time>2026-03-29T12:27:13Z</time>
      </trkpt>
      <trkpt lat="48.63239" lon="1.84016">
        <ele>174.4</ele>
        <time>2026-03-29T12:27:14Z</time>
      </trkpt>
      <trkpt lat="48.63243" lon="1.84015">
        <ele>174.4</ele>
        <time>2026-03-29T12:27:15Z</time>
      </trkpt>
      <trkpt lat="48.63246" lon="1.84014">
        <ele>174.4</ele>
        <time>2026-03-29T12:27:16Z</time>
      </trkpt>
      <trkpt lat="48.63248" lon="1.84013">
        <ele>174.4</ele>
        <time>2026-03-29T12:27:17Z</time>
      </trkpt>
      <trkpt lat="48.63252" lon="1.84011">
        <ele>174.6</ele>
        <time>2026-03-29T12:27:18Z</time>
      </trkpt>
      <trkpt lat="48.63255" lon="1.8401">
        <ele>174.6</ele>
        <time>2026-03-29T12:27:19Z</time>
      </trkpt>
      <trkpt lat="48.63258" lon="1.84009">
        <ele>174.6</ele>
        <time>2026-03-29T12:27:20Z</time>
      </trkpt>
      <trkpt lat="48.63262" lon="1.84007">
        <ele>174.6</ele>
        <time>2026-03-29T12:27:21Z</time>
      </trkpt>
      <trkpt lat="48.63265" lon="1.84006">
        <ele>173.8</ele>
        <time>2026-03-29T12:27:22Z</time>
      </trkpt>
      <trkpt lat="48.63268" lon="1.84006">
        <ele>173.8</ele>
        <time>2026-03-29T12:27:23Z</time>
      </trkpt>
      <trkpt lat="48.6327" lon="1.84007">
        <ele>173.8</ele>
        <time>2026-03-29T12:27:24Z</time>
      </trkpt>
      <trkpt lat="48.63273" lon="1.84006">
        <ele>174.8</ele>
        <time>2026-03-29T12:27:25Z</time>
      </trkpt>
      <trkpt lat="48.63276" lon="1.84005">
        <ele>174.2</ele>
        <time>2026-03-29T12:27:26Z</time>
      </trkpt>
      <trkpt lat="48.6328" lon="1.84004">
        <ele>174.2</ele>
        <time>2026-03-29T12:27:27Z</time>
      </trkpt>
      <trkpt lat="48.63284" lon="1.84003">
        <ele>174.2</ele>
        <time>2026-03-29T12:27:28Z</time>
      </trkpt>
      <trkpt lat="48.63288" lon="1.84002">
        <ele>174.2</ele>
        <time>2026-03-29T12:27:29Z</time>
      </trkpt>
      <trkpt lat="48.63292" lon="1.84">
        <ele>175</ele>
        <time>2026-03-29T12:27:30Z</time>
      </trkpt>
      <trkpt lat="48.63295" lon="1.83999">
        <ele>175</ele>
        <time>2026-03-29T12:27:31Z</time>
      </trkpt>
      <trkpt lat="48.63298" lon="1.83997">
        <ele>175</ele>
        <time>2026-03-29T12:27:32Z</time>
      </trkpt>
      <trkpt lat="48.63302" lon="1.83997">
        <ele>174.6</ele>
        <time>2026-03-29T12:27:33Z</time>
      </trkpt>
      <trkpt lat="48.63305" lon="1.83997">
        <ele>174.4</ele>
        <time>2026-03-29T12:27:34Z</time>
      </trkpt>
      <trkpt lat="48.63309" lon="1.83997">
        <ele>174.4</ele>
        <time>2026-03-29T12:27:35Z</time>
      </trkpt>
      <trkpt lat="48.63311" lon="1.83996">
        <ele>174.4</ele>
        <time>2026-03-29T12:27:36Z</time>
      </trkpt>
      <trkpt lat="48.63313" lon="1.83995">
        <ele>174.4</ele>
        <time>2026-03-29T12:27:37Z</time>
      </trkpt>
      <trkpt lat="48.63316" lon="1.83994">
        <ele>175</ele>
        <time>2026-03-29T12:27:38Z</time>
      </trkpt>
      <trkpt lat="48.63318" lon="1.83994">
        <ele>175</ele>
        <time>2026-03-29T12:27:39Z</time>
      </trkpt>
      <trkpt lat="48.63322" lon="1.83992">
        <ele>175</ele>
        <time>2026-03-29T12:27:40Z</time>
      </trkpt>
      <trkpt lat="48.63325" lon="1.8399">
        <ele>175</ele>
        <time>2026-03-29T12:27:41Z</time>
      </trkpt>
      <trkpt lat="48.63328" lon="1.83987">
        <ele>175.2</ele>
        <time>2026-03-29T12:27:42Z</time>
      </trkpt>
      <trkpt lat="48.63333" lon="1.83984">
        <ele>175.2</ele>
        <time>2026-03-29T12:27:43Z</time>
      </trkpt>
      <trkpt lat="48.63337" lon="1.83982">
        <ele>175.2</ele>
        <time>2026-03-29T12:27:44Z</time>
      </trkpt>
      <trkpt lat="48.63342" lon="1.8398">
        <ele>175.2</ele>
        <time>2026-03-29T12:27:45Z</time>
      </trkpt>
      <trkpt lat="48.63347" lon="1.83978">
        <ele>174.6</ele>
        <time>2026-03-29T12:27:46Z</time>
      </trkpt>
      <trkpt lat="48.63351" lon="1.83978">
        <ele>174.6</ele>
        <time>2026-03-29T12:27:47Z</time>
      </trkpt>
      <trkpt lat="48.63356" lon="1.83974">
        <ele>174.6</ele>
        <time>2026-03-29T12:27:48Z</time>
      </trkpt>
      <trkpt lat="48.6336" lon="1.83972">
        <ele>174.8</ele>
        <time>2026-03-29T12:27:49Z</time>
      </trkpt>
      <trkpt lat="48.63365" lon="1.8397">
        <ele>174.6</ele>
        <time>2026-03-29T12:27:50Z</time>
      </trkpt>
      <trkpt lat="48.6337" lon="1.83966">
        <ele>174.6</ele>
        <time>2026-03-29T12:27:51Z</time>
      </trkpt>
      <trkpt lat="48.63374" lon="1.83961">
        <ele>174.6</ele>
        <time>2026-03-29T12:27:52Z</time>
      </trkpt>
      <trkpt lat="48.63378" lon="1.83956">
        <ele>174.6</ele>
        <time>2026-03-29T12:27:53Z</time>
      </trkpt>
      <trkpt lat="48.63382" lon="1.83951">
        <ele>175</ele>
        <time>2026-03-29T12:27:54Z</time>
      </trkpt>
      <trkpt lat="48.63385" lon="1.83945">
        <ele>175</ele>
        <time>2026-03-29T12:27:55Z</time>
      </trkpt>
      <trkpt lat="48.63388" lon="1.83941">
        <ele>175</ele>
        <time>2026-03-29T12:27:56Z</time>
      </trkpt>
      <trkpt lat="48.63392" lon="1.83937">
        <ele>175</ele>
        <time>2026-03-29T12:27:57Z</time>
      </trkpt>
      <trkpt lat="48.63395" lon="1.83933">
        <ele>175.8</ele>
        <time>2026-03-29T12:27:58Z</time>
      </trkpt>
      <trkpt lat="48.63398" lon="1.83928">
        <ele>175.8</ele>
        <time>2026-03-29T12:27:59Z</time>
      </trkpt>
      <trkpt lat="48.63402" lon="1.83924">
        <ele>175.8</ele>
        <time>2026-03-29T12:28:00Z</time>
      </trkpt>
      <trkpt lat="48.63406" lon="1.8392">
        <ele>175.6</ele>
        <time>2026-03-29T12:28:01Z</time>
      </trkpt>
      <trkpt lat="48.63411" lon="1.83918">
        <ele>175.4</ele>
        <time>2026-03-29T12:28:02Z</time>
      </trkpt>
      <trkpt lat="48.63415" lon="1.83915">
        <ele>175.4</ele>
        <time>2026-03-29T12:28:03Z</time>
      </trkpt>
      <trkpt lat="48.63419" lon="1.83912">
        <ele>175.4</ele>
        <time>2026-03-29T12:28:04Z</time>
      </trkpt>
      <trkpt lat="48.63423" lon="1.83909">
        <ele>175.4</ele>
        <time>2026-03-29T12:28:05Z</time>
      </trkpt>
      <trkpt lat="48.63426" lon="1.83905">
        <ele>175.6</ele>
        <time>2026-03-29T12:28:06Z</time>
      </trkpt>
      <trkpt lat="48.63429" lon="1.839">
        <ele>175.6</ele>
        <time>2026-03-29T12:28:07Z</time>
      </trkpt>
      <trkpt lat="48.63431" lon="1.83897">
        <ele>175.6</ele>
        <time>2026-03-29T12:28:08Z</time>
      </trkpt>
      <trkpt lat="48.63435" lon="1.83894">
        <ele>175.6</ele>
        <time>2026-03-29T12:28:09Z</time>
      </trkpt>
      <trkpt lat="48.63439" lon="1.83889">
        <ele>175.8</ele>
        <time>2026-03-29T12:28:10Z</time>
      </trkpt>
      <trkpt lat="48.63443" lon="1.83885">
        <ele>175.8</ele>
        <time>2026-03-29T12:28:11Z</time>
      </trkpt>
      <trkpt lat="48.63445" lon="1.83883">
        <ele>175.8</ele>
        <time>2026-03-29T12:28:12Z</time>
      </trkpt>
      <trkpt lat="48.63448" lon="1.83882">
        <ele>175.8</ele>
        <time>2026-03-29T12:28:13Z</time>
      </trkpt>
      <trkpt lat="48.63451" lon="1.83883">
        <ele>175.2</ele>
        <time>2026-03-29T12:28:14Z</time>
      </trkpt>
      <trkpt lat="48.63452" lon="1.83885">
        <ele>175.2</ele>
        <time>2026-03-29T12:28:15Z</time>
      </trkpt>
      <trkpt lat="48.63452" lon="1.83887">
        <ele>175.2</ele>
        <time>2026-03-29T12:28:16Z</time>
      </trkpt>
      <trkpt lat="48.63453" lon="1.8389">
        <ele>175.2</ele>
        <time>2026-03-29T12:28:17Z</time>
      </trkpt>
      <trkpt lat="48.63453" lon="1.83892">
        <ele>174.8</ele>
        <time>2026-03-29T12:28:18Z</time>
      </trkpt>
      <trkpt lat="48.63452" lon="1.83895">
        <ele>174.8</ele>
        <time>2026-03-29T12:28:19Z</time>
      </trkpt>
      <trkpt lat="48.63453" lon="1.83899">
        <ele>174.8</ele>
        <time>2026-03-29T12:28:20Z</time>
      </trkpt>
      <trkpt lat="48.63452" lon="1.83905">
        <ele>175.4</ele>
        <time>2026-03-29T12:28:21Z</time>
      </trkpt>
      <trkpt lat="48.63452" lon="1.8391">
        <ele>175</ele>
        <time>2026-03-29T12:28:22Z</time>
      </trkpt>
      <trkpt lat="48.63451" lon="1.83914">
        <ele>175</ele>
        <time>2026-03-29T12:28:23Z</time>
      </trkpt>
      <trkpt lat="48.6345" lon="1.83918">
        <ele>175</ele>
        <time>2026-03-29T12:28:24Z</time>
      </trkpt>
      <trkpt lat="48.63448" lon="1.83922">
        <ele>175</ele>
        <time>2026-03-29T12:28:25Z</time>
      </trkpt>
      <trkpt lat="48.63447" lon="1.83926">
        <ele>174.8</ele>
        <time>2026-03-29T12:28:26Z</time>
      </trkpt>
      <trkpt lat="48.63446" lon="1.83931">
        <ele>174.8</ele>
        <time>2026-03-29T12:28:27Z</time>
      </trkpt>
      <trkpt lat="48.63445" lon="1.83933">
        <ele>174.8</ele>
        <time>2026-03-29T12:28:28Z</time>
      </trkpt>
      <trkpt lat="48.63444" lon="1.83937">
        <ele>174.8</ele>
        <time>2026-03-29T12:28:29Z</time>
      </trkpt>
      <trkpt lat="48.63442" lon="1.83942">
        <ele>174.6</ele>
        <time>2026-03-29T12:28:30Z</time>
      </trkpt>
      <trkpt lat="48.6344" lon="1.83946">
        <ele>174.6</ele>
        <time>2026-03-29T12:28:31Z</time>
      </trkpt>
      <trkpt lat="48.63439" lon="1.83951">
        <ele>174.6</ele>
        <time>2026-03-29T12:28:32Z</time>
      </trkpt>
      <trkpt lat="48.63438" lon="1.83955">
        <ele>174.6</ele>
        <time>2026-03-29T12:28:33Z</time>
      </trkpt>
      <trkpt lat="48.63436" lon="1.83961">
        <ele>174.6</ele>
        <time>2026-03-29T12:28:34Z</time>
      </trkpt>
      <trkpt lat="48.63434" lon="1.83966">
        <ele>174.6</ele>
        <time>2026-03-29T12:28:35Z</time>
      </trkpt>
      <trkpt lat="48.63433" lon="1.83971">
        <ele>174.6</ele>
        <time>2026-03-29T12:28:36Z</time>
      </trkpt>
      <trkpt lat="48.63433" lon="1.83976">
        <ele>174</ele>
        <time>2026-03-29T12:28:37Z</time>
      </trkpt>
      <trkpt lat="48.63434" lon="1.83978">
        <ele>173</ele>
        <time>2026-03-29T12:28:38Z</time>
      </trkpt>
      <trkpt lat="48.63436" lon="1.8398">
        <ele>173</ele>
        <time>2026-03-29T12:28:39Z</time>
      </trkpt>
      <trkpt lat="48.63438" lon="1.83981">
        <ele>173</ele>
        <time>2026-03-29T12:28:40Z</time>
      </trkpt>
      <trkpt lat="48.63441" lon="1.83983">
        <ele>174</ele>
        <time>2026-03-29T12:28:41Z</time>
      </trkpt>
      <trkpt lat="48.63444" lon="1.83984">
        <ele>173.8</ele>
        <time>2026-03-29T12:28:42Z</time>
      </trkpt>
      <trkpt lat="48.63447" lon="1.83986">
        <ele>173.8</ele>
        <time>2026-03-29T12:28:43Z</time>
      </trkpt>
      <trkpt lat="48.63451" lon="1.83988">
        <ele>173.8</ele>
        <time>2026-03-29T12:28:44Z</time>
      </trkpt>
      <trkpt lat="48.63454" lon="1.83991">
        <ele>173.8</ele>
        <time>2026-03-29T12:28:45Z</time>
      </trkpt>
      <trkpt lat="48.63457" lon="1.83994">
        <ele>174</ele>
        <time>2026-03-29T12:28:46Z</time>
      </trkpt>
      <trkpt lat="48.63458" lon="1.83995">
        <ele>174</ele>
        <time>2026-03-29T12:28:47Z</time>
      </trkpt>
      <trkpt lat="48.63461" lon="1.83997">
        <ele>174</ele>
        <time>2026-03-29T12:28:48Z</time>
      </trkpt>
      <trkpt lat="48.63464" lon="1.84">
        <ele>174</ele>
        <time>2026-03-29T12:28:49Z</time>
      </trkpt>
      <trkpt lat="48.63467" lon="1.84001">
        <ele>174.6</ele>
        <time>2026-03-29T12:28:50Z</time>
      </trkpt>
      <trkpt lat="48.63471" lon="1.84002">
        <ele>174.6</ele>
        <time>2026-03-29T12:28:51Z</time>
      </trkpt>
      <trkpt lat="48.63474" lon="1.84005">
        <ele>174.6</ele>
        <time>2026-03-29T12:28:52Z</time>
      </trkpt>
      <trkpt lat="48.63477" lon="1.84008">
        <ele>174</ele>
        <time>2026-03-29T12:28:53Z</time>
      </trkpt>
      <trkpt lat="48.6348" lon="1.8401">
        <ele>174.2</ele>
        <time>2026-03-29T12:28:54Z</time>
      </trkpt>
      <trkpt lat="48.63484" lon="1.84012">
        <ele>174.2</ele>
        <time>2026-03-29T12:28:55Z</time>
      </trkpt>
      <trkpt lat="48.63487" lon="1.84013">
        <ele>174.2</ele>
        <time>2026-03-29T12:28:56Z</time>
      </trkpt>
      <trkpt lat="48.63491" lon="1.84015">
        <ele>174.2</ele>
        <time>2026-03-29T12:28:57Z</time>
      </trkpt>
      <trkpt lat="48.63495" lon="1.84017">
        <ele>174.2</ele>
        <time>2026-03-29T12:28:58Z</time>
      </trkpt>
      <trkpt lat="48.63498" lon="1.84019">
        <ele>174.2</ele>
        <time>2026-03-29T12:28:59Z</time>
      </trkpt>
      <trkpt lat="48.63502" lon="1.84021">
        <ele>174.2</ele>
        <time>2026-03-29T12:29:00Z</time>
      </trkpt>
      <trkpt lat="48.63507" lon="1.84024">
        <ele>174.2</ele>
        <time>2026-03-29T12:29:01Z</time>
      </trkpt>
      <trkpt lat="48.6351" lon="1.84026">
        <ele>174.8</ele>
        <time>2026-03-29T12:29:02Z</time>
      </trkpt>
      <trkpt lat="48.63513" lon="1.84029">
        <ele>174.8</ele>
        <time>2026-03-29T12:29:03Z</time>
      </trkpt>
      <trkpt lat="48.63517" lon="1.8403">
        <ele>174.8</ele>
        <time>2026-03-29T12:29:04Z</time>
      </trkpt>
      <trkpt lat="48.6352" lon="1.8403">
        <ele>174.4</ele>
        <time>2026-03-29T12:29:05Z</time>
      </trkpt>
      <trkpt lat="48.63523" lon="1.8403">
        <ele>174.6</ele>
        <time>2026-03-29T12:29:06Z</time>
      </trkpt>
      <trkpt lat="48.63527" lon="1.84029">
        <ele>174.6</ele>
        <time>2026-03-29T12:29:07Z</time>
      </trkpt>
      <trkpt lat="48.63531" lon="1.84028">
        <ele>174.6</ele>
        <time>2026-03-29T12:29:08Z</time>
      </trkpt>
      <trkpt lat="48.63535" lon="1.84028">
        <ele>174.6</ele>
        <time>2026-03-29T12:29:09Z</time>
      </trkpt>
      <trkpt lat="48.6354" lon="1.84029">
        <ele>174</ele>
        <time>2026-03-29T12:29:10Z</time>
      </trkpt>
      <trkpt lat="48.63544" lon="1.8403">
        <ele>174</ele>
        <time>2026-03-29T12:29:11Z</time>
      </trkpt>
      <trkpt lat="48.6355" lon="1.84032">
        <ele>174</ele>
        <time>2026-03-29T12:29:12Z</time>
      </trkpt>
      <trkpt lat="48.63554" lon="1.84034">
        <ele>174</ele>
        <time>2026-03-29T12:29:13Z</time>
      </trkpt>
      <trkpt lat="48.63559" lon="1.84037">
        <ele>173.6</ele>
        <time>2026-03-29T12:29:14Z</time>
      </trkpt>
      <trkpt lat="48.63566" lon="1.84042">
        <ele>173.6</ele>
        <time>2026-03-29T12:29:15Z</time>
      </trkpt>
      <trkpt lat="48.6357" lon="1.84045">
        <ele>173.6</ele>
        <time>2026-03-29T12:29:16Z</time>
      </trkpt>
      <trkpt lat="48.63575" lon="1.8405">
        <ele>173</ele>
        <time>2026-03-29T12:29:17Z</time>
      </trkpt>
      <trkpt lat="48.63578" lon="1.84055">
        <ele>173</ele>
        <time>2026-03-29T12:29:18Z</time>
      </trkpt>
      <trkpt lat="48.63583" lon="1.8406">
        <ele>173</ele>
        <time>2026-03-29T12:29:19Z</time>
      </trkpt>
      <trkpt lat="48.63588" lon="1.84062">
        <ele>173</ele>
        <time>2026-03-29T12:29:20Z</time>
      </trkpt>
      <trkpt lat="48.63592" lon="1.84063">
        <ele>173.2</ele>
        <time>2026-03-29T12:29:21Z</time>
      </trkpt>
      <trkpt lat="48.63595" lon="1.84064">
        <ele>173.4</ele>
        <time>2026-03-29T12:29:22Z</time>
      </trkpt>
      <trkpt lat="48.636" lon="1.84067">
        <ele>173.4</ele>
        <time>2026-03-29T12:29:23Z</time>
      </trkpt>
      <trkpt lat="48.63603" lon="1.84071">
        <ele>173.4</ele>
        <time>2026-03-29T12:29:24Z</time>
      </trkpt>
      <trkpt lat="48.63607" lon="1.84073">
        <ele>173.4</ele>
        <time>2026-03-29T12:29:25Z</time>
      </trkpt>
      <trkpt lat="48.63611" lon="1.84075">
        <ele>173.2</ele>
        <time>2026-03-29T12:29:26Z</time>
      </trkpt>
      <trkpt lat="48.63616" lon="1.84079">
        <ele>173.2</ele>
        <time>2026-03-29T12:29:27Z</time>
      </trkpt>
      <trkpt lat="48.63621" lon="1.84083">
        <ele>173.2</ele>
        <time>2026-03-29T12:29:28Z</time>
      </trkpt>
      <trkpt lat="48.63625" lon="1.84087">
        <ele>173.2</ele>
        <time>2026-03-29T12:29:29Z</time>
      </trkpt>
      <trkpt lat="48.63629" lon="1.84091">
        <ele>173</ele>
        <time>2026-03-29T12:29:30Z</time>
      </trkpt>
      <trkpt lat="48.63632" lon="1.84095">
        <ele>173</ele>
        <time>2026-03-29T12:29:31Z</time>
      </trkpt>
      <trkpt lat="48.63636" lon="1.84099">
        <ele>173</ele>
        <time>2026-03-29T12:29:32Z</time>
      </trkpt>
      <trkpt lat="48.6364" lon="1.84102">
        <ele>172.6</ele>
        <time>2026-03-29T12:29:33Z</time>
      </trkpt>
      <trkpt lat="48.63644" lon="1.84104">
        <ele>172.8</ele>
        <time>2026-03-29T12:29:34Z</time>
      </trkpt>
      <trkpt lat="48.63648" lon="1.84106">
        <ele>172.8</ele>
        <time>2026-03-29T12:29:35Z</time>
      </trkpt>
      <trkpt lat="48.63651" lon="1.84107">
        <ele>172.8</ele>
        <time>2026-03-29T12:29:36Z</time>
      </trkpt>
      <trkpt lat="48.63654" lon="1.84107">
        <ele>172.8</ele>
        <time>2026-03-29T12:29:37Z</time>
      </trkpt>
      <trkpt lat="48.63657" lon="1.84108">
        <ele>173</ele>
        <time>2026-03-29T12:29:38Z</time>
      </trkpt>
      <trkpt lat="48.6366" lon="1.8411">
        <ele>173</ele>
        <time>2026-03-29T12:29:39Z</time>
      </trkpt>
      <trkpt lat="48.63662" lon="1.84113">
        <ele>173</ele>
        <time>2026-03-29T12:29:40Z</time>
      </trkpt>
      <trkpt lat="48.63665" lon="1.84116">
        <ele>173</ele>
        <time>2026-03-29T12:29:41Z</time>
      </trkpt>
      <trkpt lat="48.63668" lon="1.84118">
        <ele>172.8</ele>
        <time>2026-03-29T12:29:42Z</time>
      </trkpt>
      <trkpt lat="48.63669" lon="1.84122">
        <ele>172.8</ele>
        <time>2026-03-29T12:29:43Z</time>
      </trkpt>
      <trkpt lat="48.63672" lon="1.84124">
        <ele>172.8</ele>
        <time>2026-03-29T12:29:44Z</time>
      </trkpt>
      <trkpt lat="48.63676" lon="1.84127">
        <ele>172.6</ele>
        <time>2026-03-29T12:29:45Z</time>
      </trkpt>
      <trkpt lat="48.6368" lon="1.84128">
        <ele>172.8</ele>
        <time>2026-03-29T12:29:46Z</time>
      </trkpt>
      <trkpt lat="48.63684" lon="1.84129">
        <ele>172.8</ele>
        <time>2026-03-29T12:29:47Z</time>
      </trkpt>
      <trkpt lat="48.63687" lon="1.84131">
        <ele>172.8</ele>
        <time>2026-03-29T12:29:48Z</time>
      </trkpt>
      <trkpt lat="48.6369" lon="1.84134">
        <ele>172.8</ele>
        <time>2026-03-29T12:29:49Z</time>
      </trkpt>
      <trkpt lat="48.63693" lon="1.84136">
        <ele>172.6</ele>
        <time>2026-03-29T12:29:50Z</time>
      </trkpt>
      <trkpt lat="48.63694" lon="1.84139">
        <ele>172.6</ele>
        <time>2026-03-29T12:29:51Z</time>
      </trkpt>
      <trkpt lat="48.63694" lon="1.84142">
        <ele>172.6</ele>
        <time>2026-03-29T12:29:52Z</time>
      </trkpt>
      <trkpt lat="48.63694" lon="1.84148">
        <ele>172.2</ele>
        <time>2026-03-29T12:29:53Z</time>
      </trkpt>
      <trkpt lat="48.63695" lon="1.84155">
        <ele>172.6</ele>
        <time>2026-03-29T12:29:54Z</time>
      </trkpt>
      <trkpt lat="48.63696" lon="1.84162">
        <ele>172.6</ele>
        <time>2026-03-29T12:29:55Z</time>
      </trkpt>
      <trkpt lat="48.63699" lon="1.84169">
        <ele>172.6</ele>
        <time>2026-03-29T12:29:56Z</time>
      </trkpt>
      <trkpt lat="48.63702" lon="1.84174">
        <ele>172.6</ele>
        <time>2026-03-29T12:29:57Z</time>
      </trkpt>
      <trkpt lat="48.63705" lon="1.8418">
        <ele>172.2</ele>
        <time>2026-03-29T12:29:58Z</time>
      </trkpt>
      <trkpt lat="48.63708" lon="1.84185">
        <ele>172.2</ele>
        <time>2026-03-29T12:29:59Z</time>
      </trkpt>
      <trkpt lat="48.63711" lon="1.84191">
        <ele>172.2</ele>
        <time>2026-03-29T12:30:00Z</time>
      </trkpt>
      <trkpt lat="48.63713" lon="1.84197">
        <ele>172.6</ele>
        <time>2026-03-29T12:30:01Z</time>
      </trkpt>
      <trkpt lat="48.63715" lon="1.84203">
        <ele>172.4</ele>
        <time>2026-03-29T12:30:02Z</time>
      </trkpt>
      <trkpt lat="48.63718" lon="1.84209">
        <ele>172.4</ele>
        <time>2026-03-29T12:30:03Z</time>
      </trkpt>
      <trkpt lat="48.63721" lon="1.84217">
        <ele>172.4</ele>
        <time>2026-03-29T12:30:04Z</time>
      </trkpt>
      <trkpt lat="48.63724" lon="1.84222">
        <ele>172.4</ele>
        <time>2026-03-29T12:30:05Z</time>
      </trkpt>
      <trkpt lat="48.63727" lon="1.84229">
        <ele>172.4</ele>
        <time>2026-03-29T12:30:06Z</time>
      </trkpt>
      <trkpt lat="48.6373" lon="1.84235">
        <ele>172.4</ele>
        <time>2026-03-29T12:30:07Z</time>
      </trkpt>
      <trkpt lat="48.63733" lon="1.84239">
        <ele>172.4</ele>
        <time>2026-03-29T12:30:08Z</time>
      </trkpt>
      <trkpt lat="48.63736" lon="1.84244">
        <ele>172.8</ele>
        <time>2026-03-29T12:30:09Z</time>
      </trkpt>
      <trkpt lat="48.63739" lon="1.8425">
        <ele>172.8</ele>
        <time>2026-03-29T12:30:10Z</time>
      </trkpt>
      <trkpt lat="48.63743" lon="1.84256">
        <ele>172.8</ele>
        <time>2026-03-29T12:30:11Z</time>
      </trkpt>
      <trkpt lat="48.63746" lon="1.84262">
        <ele>172.8</ele>
        <time>2026-03-29T12:30:12Z</time>
      </trkpt>
      <trkpt lat="48.63747" lon="1.8427">
        <ele>172.2</ele>
        <time>2026-03-29T12:30:13Z</time>
      </trkpt>
      <trkpt lat="48.63748" lon="1.84277">
        <ele>172</ele>
        <time>2026-03-29T12:30:14Z</time>
      </trkpt>
      <trkpt lat="48.63749" lon="1.84284">
        <ele>172</ele>
        <time>2026-03-29T12:30:15Z</time>
      </trkpt>
      <trkpt lat="48.6375" lon="1.84291">
        <ele>172</ele>
        <time>2026-03-29T12:30:16Z</time>
      </trkpt>
      <trkpt lat="48.63752" lon="1.84299">
        <ele>172.2</ele>
        <time>2026-03-29T12:30:17Z</time>
      </trkpt>
      <trkpt lat="48.63753" lon="1.84307">
        <ele>172.4</ele>
        <time>2026-03-29T12:30:18Z</time>
      </trkpt>
      <trkpt lat="48.63754" lon="1.84314">
        <ele>172.4</ele>
        <time>2026-03-29T12:30:19Z</time>
      </trkpt>
      <trkpt lat="48.63755" lon="1.84321">
        <ele>172.4</ele>
        <time>2026-03-29T12:30:20Z</time>
      </trkpt>
      <trkpt lat="48.63757" lon="1.84327">
        <ele>172.4</ele>
        <time>2026-03-29T12:30:21Z</time>
      </trkpt>
      <trkpt lat="48.63758" lon="1.84335">
        <ele>172.2</ele>
        <time>2026-03-29T12:30:22Z</time>
      </trkpt>
      <trkpt lat="48.63758" lon="1.84341">
        <ele>172.2</ele>
        <time>2026-03-29T12:30:23Z</time>
      </trkpt>
      <trkpt lat="48.63759" lon="1.84349">
        <ele>172.2</ele>
        <time>2026-03-29T12:30:24Z</time>
      </trkpt>
      <trkpt lat="48.6376" lon="1.84356">
        <ele>171.8</ele>
        <time>2026-03-29T12:30:25Z</time>
      </trkpt>
      <trkpt lat="48.6376" lon="1.84364">
        <ele>171.6</ele>
        <time>2026-03-29T12:30:26Z</time>
      </trkpt>
      <trkpt lat="48.63761" lon="1.8437">
        <ele>171.6</ele>
        <time>2026-03-29T12:30:27Z</time>
      </trkpt>
      <trkpt lat="48.63759" lon="1.84375">
        <ele>171.6</ele>
        <time>2026-03-29T12:30:28Z</time>
      </trkpt>
      <trkpt lat="48.63757" lon="1.84381">
        <ele>171.6</ele>
        <time>2026-03-29T12:30:29Z</time>
      </trkpt>
      <trkpt lat="48.63756" lon="1.84387">
        <ele>171.6</ele>
        <time>2026-03-29T12:30:30Z</time>
      </trkpt>
      <trkpt lat="48.63755" lon="1.84391">
        <ele>171.6</ele>
        <time>2026-03-29T12:30:31Z</time>
      </trkpt>
      <trkpt lat="48.63755" lon="1.84396">
        <ele>171.6</ele>
        <time>2026-03-29T12:30:32Z</time>
      </trkpt>
      <trkpt lat="48.63755" lon="1.84401">
        <ele>171.8</ele>
        <time>2026-03-29T12:30:33Z</time>
      </trkpt>
      <trkpt lat="48.63755" lon="1.84408">
        <ele>171.8</ele>
        <time>2026-03-29T12:30:34Z</time>
      </trkpt>
      <trkpt lat="48.63755" lon="1.84415">
        <ele>171.8</ele>
        <time>2026-03-29T12:30:35Z</time>
      </trkpt>
      <trkpt lat="48.63756" lon="1.84421">
        <ele>171.8</ele>
        <time>2026-03-29T12:30:36Z</time>
      </trkpt>
      <trkpt lat="48.63756" lon="1.84428">
        <ele>171.8</ele>
        <time>2026-03-29T12:30:37Z</time>
      </trkpt>
      <trkpt lat="48.63756" lon="1.84433">
        <ele>172.4</ele>
        <time>2026-03-29T12:30:38Z</time>
      </trkpt>
      <trkpt lat="48.63758" lon="1.8444">
        <ele>172.4</ele>
        <time>2026-03-29T12:30:39Z</time>
      </trkpt>
      <trkpt lat="48.6376" lon="1.84447">
        <ele>172.4</ele>
        <time>2026-03-29T12:30:40Z</time>
      </trkpt>
      <trkpt lat="48.63762" lon="1.84453">
        <ele>172.4</ele>
        <time>2026-03-29T12:30:41Z</time>
      </trkpt>
      <trkpt lat="48.63762" lon="1.84459">
        <ele>171.6</ele>
        <time>2026-03-29T12:30:42Z</time>
      </trkpt>
      <trkpt lat="48.63763" lon="1.84463">
        <ele>171.6</ele>
        <time>2026-03-29T12:30:43Z</time>
      </trkpt>
      <trkpt lat="48.63764" lon="1.84466">
        <ele>171.6</ele>
        <time>2026-03-29T12:30:44Z</time>
      </trkpt>
      <trkpt lat="48.63765" lon="1.84467">
        <ele>171.6</ele>
        <time>2026-03-29T12:30:45Z</time>
      </trkpt>
      <trkpt lat="48.63765" lon="1.84467">
        <ele>171.6</ele>
        <time>2026-03-29T12:30:46Z</time>
      </trkpt>
      <trkpt lat="48.63768" lon="1.8449">
        <ele>171.8</ele>
        <time>2026-03-29T12:31:02Z</time>
      </trkpt>
      <trkpt lat="48.63769" lon="1.84493">
        <ele>171.8</ele>
        <time>2026-03-29T12:31:03Z</time>
      </trkpt>
      <trkpt lat="48.6377" lon="1.84496">
        <ele>171.8</ele>
        <time>2026-03-29T12:31:04Z</time>
      </trkpt>
      <trkpt lat="48.63772" lon="1.845">
        <ele>172.4</ele>
        <time>2026-03-29T12:31:05Z</time>
      </trkpt>
      <trkpt lat="48.63774" lon="1.84504">
        <ele>172.2</ele>
        <time>2026-03-29T12:31:06Z</time>
      </trkpt>
      <trkpt lat="48.63776" lon="1.84508">
        <ele>172.2</ele>
        <time>2026-03-29T12:31:07Z</time>
      </trkpt>
      <trkpt lat="48.63778" lon="1.84513">
        <ele>172.2</ele>
        <time>2026-03-29T12:31:08Z</time>
      </trkpt>
      <trkpt lat="48.63779" lon="1.84518">
        <ele>172.2</ele>
        <time>2026-03-29T12:31:09Z</time>
      </trkpt>
      <trkpt lat="48.6378" lon="1.84524">
        <ele>172.2</ele>
        <time>2026-03-29T12:31:10Z</time>
      </trkpt>
      <trkpt lat="48.63781" lon="1.84529">
        <ele>172.2</ele>
        <time>2026-03-29T12:31:11Z</time>
      </trkpt>
      <trkpt lat="48.63783" lon="1.84533">
        <ele>172.2</ele>
        <time>2026-03-29T12:31:12Z</time>
      </trkpt>
      <trkpt lat="48.63785" lon="1.84537">
        <ele>172.2</ele>
        <time>2026-03-29T12:31:13Z</time>
      </trkpt>
      <trkpt lat="48.63787" lon="1.84542">
        <ele>172.4</ele>
        <time>2026-03-29T12:31:14Z</time>
      </trkpt>
      <trkpt lat="48.63788" lon="1.84547">
        <ele>172.4</ele>
        <time>2026-03-29T12:31:15Z</time>
      </trkpt>
      <trkpt lat="48.63791" lon="1.84551">
        <ele>172.4</ele>
        <time>2026-03-29T12:31:16Z</time>
      </trkpt>
      <trkpt lat="48.63793" lon="1.84556">
        <ele>172.4</ele>
        <time>2026-03-29T12:31:17Z</time>
      </trkpt>
      <trkpt lat="48.63795" lon="1.8456">
        <ele>173.2</ele>
        <time>2026-03-29T12:31:18Z</time>
      </trkpt>
      <trkpt lat="48.63798" lon="1.84565">
        <ele>173.2</ele>
        <time>2026-03-29T12:31:19Z</time>
      </trkpt>
      <trkpt lat="48.63799" lon="1.8457">
        <ele>173.2</ele>
        <time>2026-03-29T12:31:20Z</time>
      </trkpt>
      <trkpt lat="48.638" lon="1.84576">
        <ele>172.2</ele>
        <time>2026-03-29T12:31:21Z</time>
      </trkpt>
      <trkpt lat="48.63799" lon="1.84581">
        <ele>172.2</ele>
        <time>2026-03-29T12:31:22Z</time>
      </trkpt>
      <trkpt lat="48.63798" lon="1.84585">
        <ele>172.2</ele>
        <time>2026-03-29T12:31:23Z</time>
      </trkpt>
      <trkpt lat="48.63798" lon="1.84588">
        <ele>172.2</ele>
        <time>2026-03-29T12:31:24Z</time>
      </trkpt>
      <trkpt lat="48.63797" lon="1.84591">
        <ele>172.2</ele>
        <time>2026-03-29T12:31:25Z</time>
      </trkpt>
      <trkpt lat="48.63797" lon="1.84595">
        <ele>171.6</ele>
        <time>2026-03-29T12:31:26Z</time>
      </trkpt>
      <trkpt lat="48.63797" lon="1.846">
        <ele>171.6</ele>
        <time>2026-03-29T12:31:27Z</time>
      </trkpt>
      <trkpt lat="48.63797" lon="1.84605">
        <ele>171.6</ele>
        <time>2026-03-29T12:31:28Z</time>
      </trkpt>
      <trkpt lat="48.63797" lon="1.84609">
        <ele>171.6</ele>
        <time>2026-03-29T12:31:29Z</time>
      </trkpt>
      <trkpt lat="48.63797" lon="1.84614">
        <ele>172.2</ele>
        <time>2026-03-29T12:31:30Z</time>
      </trkpt>
      <trkpt lat="48.63796" lon="1.84619">
        <ele>172.2</ele>
        <time>2026-03-29T12:31:31Z</time>
      </trkpt>
      <trkpt lat="48.63794" lon="1.84622">
        <ele>172.2</ele>
        <time>2026-03-29T12:31:32Z</time>
      </trkpt>
      <trkpt lat="48.63792" lon="1.84625">
        <ele>171.6</ele>
        <time>2026-03-29T12:31:33Z</time>
      </trkpt>
      <trkpt lat="48.6379" lon="1.84627">
        <ele>171.6</ele>
        <time>2026-03-29T12:31:34Z</time>
      </trkpt>
      <trkpt lat="48.63788" lon="1.84628">
        <ele>171.6</ele>
        <time>2026-03-29T12:31:35Z</time>
      </trkpt>
      <trkpt lat="48.63786" lon="1.84631">
        <ele>171.6</ele>
        <time>2026-03-29T12:31:36Z</time>
      </trkpt>
      <trkpt lat="48.63785" lon="1.84633">
        <ele>171.8</ele>
        <time>2026-03-29T12:31:37Z</time>
      </trkpt>
      <trkpt lat="48.63782" lon="1.84636">
        <ele>171.8</ele>
        <time>2026-03-29T12:31:38Z</time>
      </trkpt>
      <trkpt lat="48.63779" lon="1.84636">
        <ele>171.8</ele>
        <time>2026-03-29T12:31:39Z</time>
      </trkpt>
      <trkpt lat="48.63776" lon="1.84638">
        <ele>171.8</ele>
        <time>2026-03-29T12:31:40Z</time>
      </trkpt>
      <trkpt lat="48.63773" lon="1.84641">
        <ele>171.8</ele>
        <time>2026-03-29T12:31:41Z</time>
      </trkpt>
      <trkpt lat="48.63769" lon="1.84643">
        <ele>172.2</ele>
        <time>2026-03-29T12:31:42Z</time>
      </trkpt>
      <trkpt lat="48.63766" lon="1.84645">
        <ele>172.2</ele>
        <time>2026-03-29T12:31:43Z</time>
      </trkpt>
      <trkpt lat="48.63762" lon="1.84647">
        <ele>172.2</ele>
        <time>2026-03-29T12:31:44Z</time>
      </trkpt>
      <trkpt lat="48.63759" lon="1.8465">
        <ele>171.8</ele>
        <time>2026-03-29T12:31:45Z</time>
      </trkpt>
      <trkpt lat="48.63755" lon="1.84653">
        <ele>172.2</ele>
        <time>2026-03-29T12:31:46Z</time>
      </trkpt>
      <trkpt lat="48.63752" lon="1.84656">
        <ele>172.2</ele>
        <time>2026-03-29T12:31:47Z</time>
      </trkpt>
      <trkpt lat="48.63749" lon="1.84658">
        <ele>172.2</ele>
        <time>2026-03-29T12:31:48Z</time>
      </trkpt>
      <trkpt lat="48.63746" lon="1.84661">
        <ele>171.2</ele>
        <time>2026-03-29T12:31:49Z</time>
      </trkpt>
      <trkpt lat="48.63743" lon="1.84664">
        <ele>171.6</ele>
        <time>2026-03-29T12:31:50Z</time>
      </trkpt>
      <trkpt lat="48.6374" lon="1.84667">
        <ele>171.6</ele>
        <time>2026-03-29T12:31:51Z</time>
      </trkpt>
      <trkpt lat="48.63736" lon="1.84669">
        <ele>171.6</ele>
        <time>2026-03-29T12:31:52Z</time>
      </trkpt>
      <trkpt lat="48.63732" lon="1.84672">
        <ele>171.6</ele>
        <time>2026-03-29T12:31:53Z</time>
      </trkpt>
      <trkpt lat="48.63729" lon="1.84674">
        <ele>171.8</ele>
        <time>2026-03-29T12:31:54Z</time>
      </trkpt>
      <trkpt lat="48.63726" lon="1.84677">
        <ele>171.8</ele>
        <time>2026-03-29T12:31:55Z</time>
      </trkpt>
      <trkpt lat="48.63724" lon="1.84681">
        <ele>171.8</ele>
        <time>2026-03-29T12:31:56Z</time>
      </trkpt>
      <trkpt lat="48.63721" lon="1.84685">
        <ele>172.2</ele>
        <time>2026-03-29T12:31:57Z</time>
      </trkpt>
      <trkpt lat="48.63718" lon="1.84688">
        <ele>171.6</ele>
        <time>2026-03-29T12:31:58Z</time>
      </trkpt>
      <trkpt lat="48.63714" lon="1.84691">
        <ele>171.6</ele>
        <time>2026-03-29T12:31:59Z</time>
      </trkpt>
      <trkpt lat="48.63711" lon="1.84694">
        <ele>171.6</ele>
        <time>2026-03-29T12:32:00Z</time>
      </trkpt>
      <trkpt lat="48.63708" lon="1.84698">
        <ele>172.4</ele>
        <time>2026-03-29T12:32:01Z</time>
      </trkpt>
      <trkpt lat="48.63704" lon="1.84702">
        <ele>171.8</ele>
        <time>2026-03-29T12:32:02Z</time>
      </trkpt>
      <trkpt lat="48.637" lon="1.84706">
        <ele>171.8</ele>
        <time>2026-03-29T12:32:03Z</time>
      </trkpt>
      <trkpt lat="48.63696" lon="1.8471">
        <ele>171.8</ele>
        <time>2026-03-29T12:32:04Z</time>
      </trkpt>
      <trkpt lat="48.63692" lon="1.84713">
        <ele>172.4</ele>
        <time>2026-03-29T12:32:05Z</time>
      </trkpt>
      <trkpt lat="48.6369" lon="1.84715">
        <ele>173.4</ele>
        <time>2026-03-29T12:32:06Z</time>
      </trkpt>
      <trkpt lat="48.63686" lon="1.8472">
        <ele>173.4</ele>
        <time>2026-03-29T12:32:07Z</time>
      </trkpt>
      <trkpt lat="48.63682" lon="1.84722">
        <ele>173.4</ele>
        <time>2026-03-29T12:32:08Z</time>
      </trkpt>
      <trkpt lat="48.63677" lon="1.84727">
        <ele>172.8</ele>
        <time>2026-03-29T12:32:09Z</time>
      </trkpt>
      <trkpt lat="48.63674" lon="1.84731">
        <ele>172.4</ele>
        <time>2026-03-29T12:32:10Z</time>
      </trkpt>
      <trkpt lat="48.6367" lon="1.84736">
        <ele>172.4</ele>
        <time>2026-03-29T12:32:11Z</time>
      </trkpt>
      <trkpt lat="48.63667" lon="1.84739">
        <ele>172.4</ele>
        <time>2026-03-29T12:32:12Z</time>
      </trkpt>
      <trkpt lat="48.63665" lon="1.84743">
        <ele>172.4</ele>
        <time>2026-03-29T12:32:13Z</time>
      </trkpt>
      <trkpt lat="48.63662" lon="1.84748">
        <ele>172</ele>
        <time>2026-03-29T12:32:14Z</time>
      </trkpt>
      <trkpt lat="48.63659" lon="1.84753">
        <ele>172</ele>
        <time>2026-03-29T12:32:15Z</time>
      </trkpt>
      <trkpt lat="48.63656" lon="1.84757">
        <ele>172</ele>
        <time>2026-03-29T12:32:16Z</time>
      </trkpt>
      <trkpt lat="48.63653" lon="1.84761">
        <ele>173</ele>
        <time>2026-03-29T12:32:17Z</time>
      </trkpt>
      <trkpt lat="48.63649" lon="1.84764">
        <ele>173</ele>
        <time>2026-03-29T12:32:18Z</time>
      </trkpt>
      <trkpt lat="48.63645" lon="1.84767">
        <ele>173</ele>
        <time>2026-03-29T12:32:19Z</time>
      </trkpt>
      <trkpt lat="48.63641" lon="1.84769">
        <ele>173</ele>
        <time>2026-03-29T12:32:20Z</time>
      </trkpt>
      <trkpt lat="48.63638" lon="1.84772">
        <ele>173.2</ele>
        <time>2026-03-29T12:32:21Z</time>
      </trkpt>
      <trkpt lat="48.63635" lon="1.84774">
        <ele>173</ele>
        <time>2026-03-29T12:32:22Z</time>
      </trkpt>
      <trkpt lat="48.63633" lon="1.84777">
        <ele>173</ele>
        <time>2026-03-29T12:32:23Z</time>
      </trkpt>
      <trkpt lat="48.6363" lon="1.84781">
        <ele>173</ele>
        <time>2026-03-29T12:32:24Z</time>
      </trkpt>
      <trkpt lat="48.63627" lon="1.84785">
        <ele>173.2</ele>
        <time>2026-03-29T12:32:25Z</time>
      </trkpt>
      <trkpt lat="48.63624" lon="1.84788">
        <ele>173.4</ele>
        <time>2026-03-29T12:32:26Z</time>
      </trkpt>
      <trkpt lat="48.63623" lon="1.8479">
        <ele>173.4</ele>
        <time>2026-03-29T12:32:27Z</time>
      </trkpt>
      <trkpt lat="48.6362" lon="1.84793">
        <ele>173.4</ele>
        <time>2026-03-29T12:32:28Z</time>
      </trkpt>
      <trkpt lat="48.63618" lon="1.84797">
        <ele>173.4</ele>
        <time>2026-03-29T12:32:29Z</time>
      </trkpt>
      <trkpt lat="48.63616" lon="1.848">
        <ele>173.8</ele>
        <time>2026-03-29T12:32:30Z</time>
      </trkpt>
      <trkpt lat="48.63614" lon="1.84802">
        <ele>173.8</ele>
        <time>2026-03-29T12:32:31Z</time>
      </trkpt>
      <trkpt lat="48.63611" lon="1.84805">
        <ele>173.8</ele>
        <time>2026-03-29T12:32:32Z</time>
      </trkpt>
      <trkpt lat="48.63608" lon="1.84808">
        <ele>173.8</ele>
        <time>2026-03-29T12:32:33Z</time>
      </trkpt>
      <trkpt lat="48.63604" lon="1.84812">
        <ele>173.6</ele>
        <time>2026-03-29T12:32:34Z</time>
      </trkpt>
      <trkpt lat="48.63601" lon="1.84815">
        <ele>173.6</ele>
        <time>2026-03-29T12:32:35Z</time>
      </trkpt>
      <trkpt lat="48.63597" lon="1.84818">
        <ele>173.6</ele>
        <time>2026-03-29T12:32:36Z</time>
      </trkpt>
      <trkpt lat="48.63594" lon="1.84822">
        <ele>173.6</ele>
        <time>2026-03-29T12:32:37Z</time>
      </trkpt>
      <trkpt lat="48.6359" lon="1.84827">
        <ele>174</ele>
        <time>2026-03-29T12:32:38Z</time>
      </trkpt>
      <trkpt lat="48.63588" lon="1.84832">
        <ele>174</ele>
        <time>2026-03-29T12:32:39Z</time>
      </trkpt>
      <trkpt lat="48.63585" lon="1.84836">
        <ele>174</ele>
        <time>2026-03-29T12:32:40Z</time>
      </trkpt>
      <trkpt lat="48.63583" lon="1.84841">
        <ele>174</ele>
        <time>2026-03-29T12:32:41Z</time>
      </trkpt>
      <trkpt lat="48.6358" lon="1.84846">
        <ele>174</ele>
        <time>2026-03-29T12:32:42Z</time>
      </trkpt>
      <trkpt lat="48.63577" lon="1.84851">
        <ele>174</ele>
        <time>2026-03-29T12:32:43Z</time>
      </trkpt>
      <trkpt lat="48.63574" lon="1.84855">
        <ele>174</ele>
        <time>2026-03-29T12:32:44Z</time>
      </trkpt>
      <trkpt lat="48.63571" lon="1.84859">
        <ele>174.4</ele>
        <time>2026-03-29T12:32:45Z</time>
      </trkpt>
      <trkpt lat="48.63567" lon="1.84863">
        <ele>174.2</ele>
        <time>2026-03-29T12:32:46Z</time>
      </trkpt>
      <trkpt lat="48.63565" lon="1.84867">
        <ele>174.2</ele>
        <time>2026-03-29T12:32:47Z</time>
      </trkpt>
      <trkpt lat="48.63561" lon="1.84873">
        <ele>174.2</ele>
        <time>2026-03-29T12:32:48Z</time>
      </trkpt>
      <trkpt lat="48.63558" lon="1.84878">
        <ele>174.2</ele>
        <time>2026-03-29T12:32:49Z</time>
      </trkpt>
      <trkpt lat="48.63555" lon="1.84883">
        <ele>174.4</ele>
        <time>2026-03-29T12:32:50Z</time>
      </trkpt>
      <trkpt lat="48.63552" lon="1.84888">
        <ele>174.4</ele>
        <time>2026-03-29T12:32:51Z</time>
      </trkpt>
      <trkpt lat="48.63549" lon="1.84893">
        <ele>174.4</ele>
        <time>2026-03-29T12:32:52Z</time>
      </trkpt>
      <trkpt lat="48.63546" lon="1.84897">
        <ele>174.4</ele>
        <time>2026-03-29T12:32:53Z</time>
      </trkpt>
      <trkpt lat="48.63542" lon="1.84902">
        <ele>174.4</ele>
        <time>2026-03-29T12:32:54Z</time>
      </trkpt>
      <trkpt lat="48.6354" lon="1.84907">
        <ele>174.4</ele>
        <time>2026-03-29T12:32:55Z</time>
      </trkpt>
      <trkpt lat="48.63536" lon="1.84911">
        <ele>174.4</ele>
        <time>2026-03-29T12:32:56Z</time>
      </trkpt>
      <trkpt lat="48.63533" lon="1.84915">
        <ele>174.4</ele>
        <time>2026-03-29T12:32:57Z</time>
      </trkpt>
      <trkpt lat="48.63532" lon="1.84919">
        <ele>174.2</ele>
        <time>2026-03-29T12:32:58Z</time>
      </trkpt>
      <trkpt lat="48.6353" lon="1.84925">
        <ele>174.2</ele>
        <time>2026-03-29T12:32:59Z</time>
      </trkpt>
      <trkpt lat="48.63528" lon="1.84931">
        <ele>174.2</ele>
        <time>2026-03-29T12:33:00Z</time>
      </trkpt>
      <trkpt lat="48.63525" lon="1.84936">
        <ele>174.4</ele>
        <time>2026-03-29T12:33:01Z</time>
      </trkpt>
      <trkpt lat="48.63522" lon="1.84941">
        <ele>174.4</ele>
        <time>2026-03-29T12:33:02Z</time>
      </trkpt>
      <trkpt lat="48.63519" lon="1.84946">
        <ele>174.4</ele>
        <time>2026-03-29T12:33:03Z</time>
      </trkpt>
      <trkpt lat="48.63516" lon="1.8495">
        <ele>174.4</ele>
        <time>2026-03-29T12:33:04Z</time>
      </trkpt>
      <trkpt lat="48.63513" lon="1.84953">
        <ele>174.4</ele>
        <time>2026-03-29T12:33:05Z</time>
      </trkpt>
      <trkpt lat="48.63509" lon="1.84957">
        <ele>174.4</ele>
        <time>2026-03-29T12:33:06Z</time>
      </trkpt>
      <trkpt lat="48.63507" lon="1.84962">
        <ele>174.4</ele>
        <time>2026-03-29T12:33:07Z</time>
      </trkpt>
      <trkpt lat="48.63504" lon="1.84966">
        <ele>174.4</ele>
        <time>2026-03-29T12:33:08Z</time>
      </trkpt>
      <trkpt lat="48.63502" lon="1.84971">
        <ele>174.8</ele>
        <time>2026-03-29T12:33:09Z</time>
      </trkpt>
      <trkpt lat="48.635" lon="1.84976">
        <ele>175</ele>
        <time>2026-03-29T12:33:10Z</time>
      </trkpt>
      <trkpt lat="48.63497" lon="1.84981">
        <ele>175</ele>
        <time>2026-03-29T12:33:11Z</time>
      </trkpt>
      <trkpt lat="48.63494" lon="1.84986">
        <ele>175</ele>
        <time>2026-03-29T12:33:12Z</time>
      </trkpt>
      <trkpt lat="48.63491" lon="1.8499">
        <ele>174.6</ele>
        <time>2026-03-29T12:33:13Z</time>
      </trkpt>
      <trkpt lat="48.63487" lon="1.84995">
        <ele>175.2</ele>
        <time>2026-03-29T12:33:14Z</time>
      </trkpt>
      <trkpt lat="48.63484" lon="1.84999">
        <ele>175.2</ele>
        <time>2026-03-29T12:33:15Z</time>
      </trkpt>
      <trkpt lat="48.63482" lon="1.85003">
        <ele>175.2</ele>
        <time>2026-03-29T12:33:16Z</time>
      </trkpt>
      <trkpt lat="48.63478" lon="1.8501">
        <ele>175.2</ele>
        <time>2026-03-29T12:33:17Z</time>
      </trkpt>
      <trkpt lat="48.63475" lon="1.85016">
        <ele>174.6</ele>
        <time>2026-03-29T12:33:18Z</time>
      </trkpt>
      <trkpt lat="48.63472" lon="1.85019">
        <ele>174.6</ele>
        <time>2026-03-29T12:33:19Z</time>
      </trkpt>
      <trkpt lat="48.63469" lon="1.85022">
        <ele>174.6</ele>
        <time>2026-03-29T12:33:20Z</time>
      </trkpt>
      <trkpt lat="48.63466" lon="1.85027">
        <ele>174.6</ele>
        <time>2026-03-29T12:33:21Z</time>
      </trkpt>
      <trkpt lat="48.63463" lon="1.85032">
        <ele>175.2</ele>
        <time>2026-03-29T12:33:22Z</time>
      </trkpt>
      <trkpt lat="48.6346" lon="1.85037">
        <ele>175.2</ele>
        <time>2026-03-29T12:33:23Z</time>
      </trkpt>
      <trkpt lat="48.63456" lon="1.85043">
        <ele>175.2</ele>
        <time>2026-03-29T12:33:24Z</time>
      </trkpt>
      <trkpt lat="48.63452" lon="1.85049">
        <ele>174.2</ele>
        <time>2026-03-29T12:33:25Z</time>
      </trkpt>
      <trkpt lat="48.63447" lon="1.85053">
        <ele>174</ele>
        <time>2026-03-29T12:33:26Z</time>
      </trkpt>
      <trkpt lat="48.63442" lon="1.85056">
        <ele>174</ele>
        <time>2026-03-29T12:33:27Z</time>
      </trkpt>
      <trkpt lat="48.63436" lon="1.85059">
        <ele>174</ele>
        <time>2026-03-29T12:33:28Z</time>
      </trkpt>
      <trkpt lat="48.63432" lon="1.85063">
        <ele>174</ele>
        <time>2026-03-29T12:33:29Z</time>
      </trkpt>
      <trkpt lat="48.63427" lon="1.85067">
        <ele>173.6</ele>
        <time>2026-03-29T12:33:30Z</time>
      </trkpt>
      <trkpt lat="48.63424" lon="1.85071">
        <ele>173.6</ele>
        <time>2026-03-29T12:33:31Z</time>
      </trkpt>
      <trkpt lat="48.6342" lon="1.85074">
        <ele>173.6</ele>
        <time>2026-03-29T12:33:32Z</time>
      </trkpt>
      <trkpt lat="48.63415" lon="1.85078">
        <ele>173.6</ele>
        <time>2026-03-29T12:33:33Z</time>
      </trkpt>
      <trkpt lat="48.63412" lon="1.8508">
        <ele>173.6</ele>
        <time>2026-03-29T12:33:34Z</time>
      </trkpt>
      <trkpt lat="48.63407" lon="1.85083">
        <ele>173.6</ele>
        <time>2026-03-29T12:33:35Z</time>
      </trkpt>
      <trkpt lat="48.63403" lon="1.85087">
        <ele>173.6</ele>
        <time>2026-03-29T12:33:36Z</time>
      </trkpt>
      <trkpt lat="48.63399" lon="1.8509">
        <ele>173.6</ele>
        <time>2026-03-29T12:33:37Z</time>
      </trkpt>
      <trkpt lat="48.63397" lon="1.85092">
        <ele>172.6</ele>
        <time>2026-03-29T12:33:38Z</time>
      </trkpt>
      <trkpt lat="48.63395" lon="1.85094">
        <ele>172.6</ele>
        <time>2026-03-29T12:33:39Z</time>
      </trkpt>
      <trkpt lat="48.63393" lon="1.85097">
        <ele>172.6</ele>
        <time>2026-03-29T12:33:40Z</time>
      </trkpt>
      <trkpt lat="48.63391" lon="1.851">
        <ele>172.6</ele>
        <time>2026-03-29T12:33:41Z</time>
      </trkpt>
      <trkpt lat="48.63389" lon="1.85104">
        <ele>172.8</ele>
        <time>2026-03-29T12:33:42Z</time>
      </trkpt>
      <trkpt lat="48.63386" lon="1.85108">
        <ele>172.8</ele>
        <time>2026-03-29T12:33:43Z</time>
      </trkpt>
      <trkpt lat="48.63384" lon="1.85113">
        <ele>172.8</ele>
        <time>2026-03-29T12:33:44Z</time>
      </trkpt>
      <trkpt lat="48.63382" lon="1.85117">
        <ele>173</ele>
        <time>2026-03-29T12:33:45Z</time>
      </trkpt>
      <trkpt lat="48.6338" lon="1.85122">
        <ele>173</ele>
        <time>2026-03-29T12:33:46Z</time>
      </trkpt>
      <trkpt lat="48.63379" lon="1.85129">
        <ele>173</ele>
        <time>2026-03-29T12:33:47Z</time>
      </trkpt>
      <trkpt lat="48.63377" lon="1.85135">
        <ele>173</ele>
        <time>2026-03-29T12:33:48Z</time>
      </trkpt>
      <trkpt lat="48.63375" lon="1.85142">
        <ele>173</ele>
        <time>2026-03-29T12:33:49Z</time>
      </trkpt>
      <trkpt lat="48.63372" lon="1.85147">
        <ele>172.6</ele>
        <time>2026-03-29T12:33:50Z</time>
      </trkpt>
      <trkpt lat="48.63369" lon="1.85152">
        <ele>172.6</ele>
        <time>2026-03-29T12:33:51Z</time>
      </trkpt>
      <trkpt lat="48.63366" lon="1.85157">
        <ele>172.6</ele>
        <time>2026-03-29T12:33:52Z</time>
      </trkpt>
      <trkpt lat="48.63363" lon="1.85161">
        <ele>173.4</ele>
        <time>2026-03-29T12:33:53Z</time>
      </trkpt>
      <trkpt lat="48.6336" lon="1.85165">
        <ele>172.6</ele>
        <time>2026-03-29T12:33:54Z</time>
      </trkpt>
      <trkpt lat="48.63357" lon="1.85169">
        <ele>172.6</ele>
        <time>2026-03-29T12:33:55Z</time>
      </trkpt>
      <trkpt lat="48.63355" lon="1.85174">
        <ele>172.6</ele>
        <time>2026-03-29T12:33:56Z</time>
      </trkpt>
      <trkpt lat="48.63352" lon="1.85179">
        <ele>172.6</ele>
        <time>2026-03-29T12:33:57Z</time>
      </trkpt>
      <trkpt lat="48.63349" lon="1.85184">
        <ele>173</ele>
        <time>2026-03-29T12:33:58Z</time>
      </trkpt>
      <trkpt lat="48.63346" lon="1.85189">
        <ele>173</ele>
        <time>2026-03-29T12:33:59Z</time>
      </trkpt>
      <trkpt lat="48.63343" lon="1.85193">
        <ele>173</ele>
        <time>2026-03-29T12:34:00Z</time>
      </trkpt>
      <trkpt lat="48.6334" lon="1.85197">
        <ele>173</ele>
        <time>2026-03-29T12:34:01Z</time>
      </trkpt>
      <trkpt lat="48.63337" lon="1.85202">
        <ele>172</ele>
        <time>2026-03-29T12:34:02Z</time>
      </trkpt>
      <trkpt lat="48.63333" lon="1.85207">
        <ele>172</ele>
        <time>2026-03-29T12:34:03Z</time>
      </trkpt>
      <trkpt lat="48.63329" lon="1.85211">
        <ele>172</ele>
        <time>2026-03-29T12:34:04Z</time>
      </trkpt>
      <trkpt lat="48.63325" lon="1.85216">
        <ele>172.4</ele>
        <time>2026-03-29T12:34:05Z</time>
      </trkpt>
      <trkpt lat="48.6332" lon="1.8522">
        <ele>172.2</ele>
        <time>2026-03-29T12:34:06Z</time>
      </trkpt>
      <trkpt lat="48.63315" lon="1.85224">
        <ele>172.2</ele>
        <time>2026-03-29T12:34:07Z</time>
      </trkpt>
      <trkpt lat="48.6331" lon="1.85228">
        <ele>172.2</ele>
        <time>2026-03-29T12:34:08Z</time>
      </trkpt>
      <trkpt lat="48.63306" lon="1.8523">
        <ele>172.2</ele>
        <time>2026-03-29T12:34:09Z</time>
      </trkpt>
      <trkpt lat="48.63301" lon="1.85235">
        <ele>171.6</ele>
        <time>2026-03-29T12:34:10Z</time>
      </trkpt>
      <trkpt lat="48.63296" lon="1.85239">
        <ele>171.6</ele>
        <time>2026-03-29T12:34:11Z</time>
      </trkpt>
      <trkpt lat="48.63291" lon="1.85244">
        <ele>171.6</ele>
        <time>2026-03-29T12:34:12Z</time>
      </trkpt>
      <trkpt lat="48.63286" lon="1.85249">
        <ele>171.6</ele>
        <time>2026-03-29T12:34:13Z</time>
      </trkpt>
      <trkpt lat="48.63283" lon="1.85255">
        <ele>172.4</ele>
        <time>2026-03-29T12:34:14Z</time>
      </trkpt>
      <trkpt lat="48.6328" lon="1.8526">
        <ele>172.4</ele>
        <time>2026-03-29T12:34:15Z</time>
      </trkpt>
      <trkpt lat="48.63277" lon="1.85263">
        <ele>172.4</ele>
        <time>2026-03-29T12:34:16Z</time>
      </trkpt>
      <trkpt lat="48.63274" lon="1.85264">
        <ele>171.4</ele>
        <time>2026-03-29T12:34:17Z</time>
      </trkpt>
      <trkpt lat="48.63271" lon="1.85268">
        <ele>171</ele>
        <time>2026-03-29T12:34:18Z</time>
      </trkpt>
      <trkpt lat="48.63267" lon="1.85272">
        <ele>171</ele>
        <time>2026-03-29T12:34:19Z</time>
      </trkpt>
      <trkpt lat="48.63262" lon="1.85275">
        <ele>171</ele>
        <time>2026-03-29T12:34:20Z</time>
      </trkpt>
      <trkpt lat="48.63257" lon="1.85276">
        <ele>171</ele>
        <time>2026-03-29T12:34:21Z</time>
      </trkpt>
      <trkpt lat="48.63252" lon="1.85277">
        <ele>170.2</ele>
        <time>2026-03-29T12:34:22Z</time>
      </trkpt>
      <trkpt lat="48.63247" lon="1.85278">
        <ele>170.2</ele>
        <time>2026-03-29T12:34:23Z</time>
      </trkpt>
      <trkpt lat="48.63242" lon="1.85279">
        <ele>170.2</ele>
        <time>2026-03-29T12:34:24Z</time>
      </trkpt>
      <trkpt lat="48.63237" lon="1.8528">
        <ele>170.2</ele>
        <time>2026-03-29T12:34:25Z</time>
      </trkpt>
      <trkpt lat="48.63231" lon="1.85281">
        <ele>169.8</ele>
        <time>2026-03-29T12:34:26Z</time>
      </trkpt>
      <trkpt lat="48.63227" lon="1.8528">
        <ele>169.8</ele>
        <time>2026-03-29T12:34:27Z</time>
      </trkpt>
      <trkpt lat="48.63223" lon="1.85277">
        <ele>169.8</ele>
        <time>2026-03-29T12:34:28Z</time>
      </trkpt>
      <trkpt lat="48.63221" lon="1.85274">
        <ele>169.8</ele>
        <time>2026-03-29T12:34:29Z</time>
      </trkpt>
      <trkpt lat="48.63217" lon="1.8527">
        <ele>169.2</ele>
        <time>2026-03-29T12:34:30Z</time>
      </trkpt>
      <trkpt lat="48.63214" lon="1.85265">
        <ele>169.2</ele>
        <time>2026-03-29T12:34:31Z</time>
      </trkpt>
      <trkpt lat="48.63211" lon="1.8526">
        <ele>169.2</ele>
        <time>2026-03-29T12:34:32Z</time>
      </trkpt>
      <trkpt lat="48.6321" lon="1.85254">
        <ele>169.4</ele>
        <time>2026-03-29T12:34:33Z</time>
      </trkpt>
      <trkpt lat="48.63208" lon="1.85249">
        <ele>169.4</ele>
        <time>2026-03-29T12:34:34Z</time>
      </trkpt>
      <trkpt lat="48.63206" lon="1.85245">
        <ele>169.4</ele>
        <time>2026-03-29T12:34:35Z</time>
      </trkpt>
      <trkpt lat="48.63203" lon="1.85241">
        <ele>169.4</ele>
        <time>2026-03-29T12:34:36Z</time>
      </trkpt>
      <trkpt lat="48.632" lon="1.85236">
        <ele>169.4</ele>
        <time>2026-03-29T12:34:37Z</time>
      </trkpt>
      <trkpt lat="48.63197" lon="1.85233">
        <ele>168.6</ele>
        <time>2026-03-29T12:34:38Z</time>
      </trkpt>
      <trkpt lat="48.63194" lon="1.85227">
        <ele>168.6</ele>
        <time>2026-03-29T12:34:39Z</time>
      </trkpt>
      <trkpt lat="48.63191" lon="1.85221">
        <ele>168.6</ele>
        <time>2026-03-29T12:34:40Z</time>
      </trkpt>
      <trkpt lat="48.6319" lon="1.85215">
        <ele>169.2</ele>
        <time>2026-03-29T12:34:41Z</time>
      </trkpt>
      <trkpt lat="48.6319" lon="1.8521">
        <ele>169.6</ele>
        <time>2026-03-29T12:34:42Z</time>
      </trkpt>
      <trkpt lat="48.63188" lon="1.85204">
        <ele>169.6</ele>
        <time>2026-03-29T12:34:43Z</time>
      </trkpt>
      <trkpt lat="48.63185" lon="1.85198">
        <ele>169.6</ele>
        <time>2026-03-29T12:34:44Z</time>
      </trkpt>
      <trkpt lat="48.63184" lon="1.85193">
        <ele>168.8</ele>
        <time>2026-03-29T12:34:45Z</time>
      </trkpt>
      <trkpt lat="48.63182" lon="1.85187">
        <ele>169.6</ele>
        <time>2026-03-29T12:34:46Z</time>
      </trkpt>
      <trkpt lat="48.63181" lon="1.85181">
        <ele>169.6</ele>
        <time>2026-03-29T12:34:47Z</time>
      </trkpt>
      <trkpt lat="48.63181" lon="1.85175">
        <ele>169.6</ele>
        <time>2026-03-29T12:34:48Z</time>
      </trkpt>
      <trkpt lat="48.6318" lon="1.85169">
        <ele>169.6</ele>
        <time>2026-03-29T12:34:49Z</time>
      </trkpt>
      <trkpt lat="48.63179" lon="1.85165">
        <ele>169</ele>
        <time>2026-03-29T12:34:50Z</time>
      </trkpt>
      <trkpt lat="48.63177" lon="1.85161">
        <ele>169</ele>
        <time>2026-03-29T12:34:51Z</time>
      </trkpt>
      <trkpt lat="48.63175" lon="1.85157">
        <ele>169</ele>
        <time>2026-03-29T12:34:52Z</time>
      </trkpt>
      <trkpt lat="48.63172" lon="1.85154">
        <ele>169</ele>
        <time>2026-03-29T12:34:53Z</time>
      </trkpt>
      <trkpt lat="48.63169" lon="1.85147">
        <ele>168.2</ele>
        <time>2026-03-29T12:34:54Z</time>
      </trkpt>
      <trkpt lat="48.63166" lon="1.85142">
        <ele>168.2</ele>
        <time>2026-03-29T12:34:55Z</time>
      </trkpt>
      <trkpt lat="48.63164" lon="1.85136">
        <ele>168.2</ele>
        <time>2026-03-29T12:34:56Z</time>
      </trkpt>
      <trkpt lat="48.63162" lon="1.85132">
        <ele>168.2</ele>
        <time>2026-03-29T12:34:57Z</time>
      </trkpt>
      <trkpt lat="48.63161" lon="1.85128">
        <ele>168.4</ele>
        <time>2026-03-29T12:34:58Z</time>
      </trkpt>
      <trkpt lat="48.6316" lon="1.85126">
        <ele>168.4</ele>
        <time>2026-03-29T12:34:59Z</time>
      </trkpt>
      <trkpt lat="48.6316" lon="1.85124">
        <ele>168.4</ele>
        <time>2026-03-29T12:35:00Z</time>
      </trkpt>
      <trkpt lat="48.63159" lon="1.85123">
        <ele>168.4</ele>
        <time>2026-03-29T12:35:01Z</time>
      </trkpt>
      <trkpt lat="48.63158" lon="1.85122">
        <ele>167.8</ele>
        <time>2026-03-29T12:35:02Z</time>
      </trkpt>
      <trkpt lat="48.63157" lon="1.8512">
        <ele>167.8</ele>
        <time>2026-03-29T12:35:03Z</time>
      </trkpt>
      <trkpt lat="48.63155" lon="1.8512">
        <ele>167.8</ele>
        <time>2026-03-29T12:35:04Z</time>
      </trkpt>
      <trkpt lat="48.63153" lon="1.85119">
        <ele>168.4</ele>
        <time>2026-03-29T12:35:05Z</time>
      </trkpt>
      <trkpt lat="48.63152" lon="1.85117">
        <ele>167.8</ele>
        <time>2026-03-29T12:35:06Z</time>
      </trkpt>
      <trkpt lat="48.63149" lon="1.85116">
        <ele>167.8</ele>
        <time>2026-03-29T12:35:07Z</time>
      </trkpt>
      <trkpt lat="48.63147" lon="1.85115">
        <ele>167.8</ele>
        <time>2026-03-29T12:35:08Z</time>
      </trkpt>
      <trkpt lat="48.63144" lon="1.85113">
        <ele>168.6</ele>
        <time>2026-03-29T12:35:09Z</time>
      </trkpt>
      <trkpt lat="48.63142" lon="1.8511">
        <ele>168.2</ele>
        <time>2026-03-29T12:35:10Z</time>
      </trkpt>
      <trkpt lat="48.63139" lon="1.85106">
        <ele>168.2</ele>
        <time>2026-03-29T12:35:11Z</time>
      </trkpt>
      <trkpt lat="48.63138" lon="1.85105">
        <ele>168.2</ele>
        <time>2026-03-29T12:35:12Z</time>
      </trkpt>
      <trkpt lat="48.63134" lon="1.85101">
        <ele>168.2</ele>
        <time>2026-03-29T12:35:13Z</time>
      </trkpt>
      <trkpt lat="48.63132" lon="1.85098">
        <ele>167.4</ele>
        <time>2026-03-29T12:35:14Z</time>
      </trkpt>
      <trkpt lat="48.63129" lon="1.85094">
        <ele>167.4</ele>
        <time>2026-03-29T12:35:15Z</time>
      </trkpt>
      <trkpt lat="48.63126" lon="1.85089">
        <ele>167.4</ele>
        <time>2026-03-29T12:35:16Z</time>
      </trkpt>
      <trkpt lat="48.63124" lon="1.85085">
        <ele>167.4</ele>
        <time>2026-03-29T12:35:17Z</time>
      </trkpt>
      <trkpt lat="48.63122" lon="1.8508">
        <ele>168</ele>
        <time>2026-03-29T12:35:18Z</time>
      </trkpt>
      <trkpt lat="48.6312" lon="1.85076">
        <ele>168</ele>
        <time>2026-03-29T12:35:19Z</time>
      </trkpt>
      <trkpt lat="48.63118" lon="1.85072">
        <ele>168</ele>
        <time>2026-03-29T12:35:20Z</time>
      </trkpt>
      <trkpt lat="48.63115" lon="1.85067">
        <ele>167.6</ele>
        <time>2026-03-29T12:35:21Z</time>
      </trkpt>
      <trkpt lat="48.63114" lon="1.85064">
        <ele>168.2</ele>
        <time>2026-03-29T12:35:22Z</time>
      </trkpt>
      <trkpt lat="48.63112" lon="1.8506">
        <ele>168.2</ele>
        <time>2026-03-29T12:35:23Z</time>
      </trkpt>
      <trkpt lat="48.6311" lon="1.85055">
        <ele>168.2</ele>
        <time>2026-03-29T12:35:24Z</time>
      </trkpt>
      <trkpt lat="48.63107" lon="1.8505">
        <ele>168.8</ele>
        <time>2026-03-29T12:35:25Z</time>
      </trkpt>
      <trkpt lat="48.63104" lon="1.85049">
        <ele>168.6</ele>
        <time>2026-03-29T12:35:26Z</time>
      </trkpt>
      <trkpt lat="48.63101" lon="1.85049">
        <ele>168.6</ele>
        <time>2026-03-29T12:35:27Z</time>
      </trkpt>
      <trkpt lat="48.63098" lon="1.85051">
        <ele>168.6</ele>
        <time>2026-03-29T12:35:28Z</time>
      </trkpt>
      <trkpt lat="48.63095" lon="1.85054">
        <ele>169</ele>
        <time>2026-03-29T12:35:29Z</time>
      </trkpt>
      <trkpt lat="48.63091" lon="1.85057">
        <ele>169.2</ele>
        <time>2026-03-29T12:35:30Z</time>
      </trkpt>
      <trkpt lat="48.63088" lon="1.85061">
        <ele>169.2</ele>
        <time>2026-03-29T12:35:31Z</time>
      </trkpt>
      <trkpt lat="48.63085" lon="1.85064">
        <ele>169.2</ele>
        <time>2026-03-29T12:35:32Z</time>
      </trkpt>
      <trkpt lat="48.63082" lon="1.85067">
        <ele>169.2</ele>
        <time>2026-03-29T12:35:33Z</time>
      </trkpt>
      <trkpt lat="48.63078" lon="1.85069">
        <ele>169.6</ele>
        <time>2026-03-29T12:35:34Z</time>
      </trkpt>
      <trkpt lat="48.63075" lon="1.85071">
        <ele>169.6</ele>
        <time>2026-03-29T12:35:35Z</time>
      </trkpt>
      <trkpt lat="48.63072" lon="1.85074">
        <ele>169.6</ele>
        <time>2026-03-29T12:35:36Z</time>
      </trkpt>
      <trkpt lat="48.63069" lon="1.85077">
        <ele>169</ele>
        <time>2026-03-29T12:35:37Z</time>
      </trkpt>
      <trkpt lat="48.63067" lon="1.8508">
        <ele>168.4</ele>
        <time>2026-03-29T12:35:38Z</time>
      </trkpt>
      <trkpt lat="48.63065" lon="1.85083">
        <ele>168.4</ele>
        <time>2026-03-29T12:35:39Z</time>
      </trkpt>
      <trkpt lat="48.63065" lon="1.85088">
        <ele>168.4</ele>
        <time>2026-03-29T12:35:40Z</time>
      </trkpt>
      <trkpt lat="48.63066" lon="1.85092">
        <ele>168.4</ele>
        <time>2026-03-29T12:35:41Z</time>
      </trkpt>
      <trkpt lat="48.63067" lon="1.85098">
        <ele>168.8</ele>
        <time>2026-03-29T12:35:42Z</time>
      </trkpt>
      <trkpt lat="48.63068" lon="1.85104">
        <ele>168.8</ele>
        <time>2026-03-29T12:35:43Z</time>
      </trkpt>
      <trkpt lat="48.63068" lon="1.8511">
        <ele>168.8</ele>
        <time>2026-03-29T12:35:44Z</time>
      </trkpt>
      <trkpt lat="48.63069" lon="1.85115">
        <ele>168.8</ele>
        <time>2026-03-29T12:35:45Z</time>
      </trkpt>
      <trkpt lat="48.6307" lon="1.8512">
        <ele>169.8</ele>
        <time>2026-03-29T12:35:46Z</time>
      </trkpt>
      <trkpt lat="48.6307" lon="1.85124">
        <ele>169.8</ele>
        <time>2026-03-29T12:35:47Z</time>
      </trkpt>
      <trkpt lat="48.63071" lon="1.85129">
        <ele>169.8</ele>
        <time>2026-03-29T12:35:48Z</time>
      </trkpt>
      <trkpt lat="48.63072" lon="1.85132">
        <ele>169.8</ele>
        <time>2026-03-29T12:35:49Z</time>
      </trkpt>
      <trkpt lat="48.63073" lon="1.85136">
        <ele>170.2</ele>
        <time>2026-03-29T12:35:50Z</time>
      </trkpt>
      <trkpt lat="48.63075" lon="1.85141">
        <ele>170.2</ele>
        <time>2026-03-29T12:35:51Z</time>
      </trkpt>
      <trkpt lat="48.63078" lon="1.85145">
        <ele>170.2</ele>
        <time>2026-03-29T12:35:52Z</time>
      </trkpt>
      <trkpt lat="48.6308" lon="1.85151">
        <ele>170.2</ele>
        <time>2026-03-29T12:35:53Z</time>
      </trkpt>
      <trkpt lat="48.63082" lon="1.85155">
        <ele>170.2</ele>
        <time>2026-03-29T12:35:54Z</time>
      </trkpt>
      <trkpt lat="48.63085" lon="1.8516">
        <ele>170.2</ele>
        <time>2026-03-29T12:35:55Z</time>
      </trkpt>
      <trkpt lat="48.63088" lon="1.85166">
        <ele>170.2</ele>
        <time>2026-03-29T12:35:56Z</time>
      </trkpt>
      <trkpt lat="48.6309" lon="1.85173">
        <ele>170.2</ele>
        <time>2026-03-29T12:35:57Z</time>
      </trkpt>
      <trkpt lat="48.63092" lon="1.85177">
        <ele>169.8</ele>
        <time>2026-03-29T12:35:58Z</time>
      </trkpt>
      <trkpt lat="48.63094" lon="1.85183">
        <ele>169.8</ele>
        <time>2026-03-29T12:35:59Z</time>
      </trkpt>
      <trkpt lat="48.63096" lon="1.85188">
        <ele>169.8</ele>
        <time>2026-03-29T12:36:00Z</time>
      </trkpt>
      <trkpt lat="48.63098" lon="1.85194">
        <ele>169.8</ele>
        <time>2026-03-29T12:36:01Z</time>
      </trkpt>
      <trkpt lat="48.63101" lon="1.85199">
        <ele>169.6</ele>
        <time>2026-03-29T12:36:02Z</time>
      </trkpt>
      <trkpt lat="48.63103" lon="1.85205">
        <ele>169.6</ele>
        <time>2026-03-29T12:36:03Z</time>
      </trkpt>
      <trkpt lat="48.63105" lon="1.85211">
        <ele>169.6</ele>
        <time>2026-03-29T12:36:04Z</time>
      </trkpt>
      <trkpt lat="48.63106" lon="1.85216">
        <ele>169.6</ele>
        <time>2026-03-29T12:36:05Z</time>
      </trkpt>
      <trkpt lat="48.63108" lon="1.85222">
        <ele>169.8</ele>
        <time>2026-03-29T12:36:06Z</time>
      </trkpt>
      <trkpt lat="48.63109" lon="1.85228">
        <ele>169.8</ele>
        <time>2026-03-29T12:36:07Z</time>
      </trkpt>
      <trkpt lat="48.63112" lon="1.85234">
        <ele>169.8</ele>
        <time>2026-03-29T12:36:08Z</time>
      </trkpt>
      <trkpt lat="48.63115" lon="1.85239">
        <ele>169.8</ele>
        <time>2026-03-29T12:36:09Z</time>
      </trkpt>
      <trkpt lat="48.63118" lon="1.85245">
        <ele>169.6</ele>
        <time>2026-03-29T12:36:10Z</time>
      </trkpt>
      <trkpt lat="48.63121" lon="1.85251">
        <ele>169.6</ele>
        <time>2026-03-29T12:36:11Z</time>
      </trkpt>
      <trkpt lat="48.63123" lon="1.85258">
        <ele>169.6</ele>
        <time>2026-03-29T12:36:12Z</time>
      </trkpt>
      <trkpt lat="48.63125" lon="1.85264">
        <ele>169.6</ele>
        <time>2026-03-29T12:36:13Z</time>
      </trkpt>
      <trkpt lat="48.63127" lon="1.8527">
        <ele>169.8</ele>
        <time>2026-03-29T12:36:14Z</time>
      </trkpt>
      <trkpt lat="48.6313" lon="1.85278">
        <ele>169.8</ele>
        <time>2026-03-29T12:36:15Z</time>
      </trkpt>
      <trkpt lat="48.63132" lon="1.85285">
        <ele>169.8</ele>
        <time>2026-03-29T12:36:16Z</time>
      </trkpt>
      <trkpt lat="48.63135" lon="1.85292">
        <ele>169.2</ele>
        <time>2026-03-29T12:36:17Z</time>
      </trkpt>
      <trkpt lat="48.63138" lon="1.853">
        <ele>168.6</ele>
        <time>2026-03-29T12:36:18Z</time>
      </trkpt>
      <trkpt lat="48.63141" lon="1.85308">
        <ele>168.6</ele>
        <time>2026-03-29T12:36:19Z</time>
      </trkpt>
      <trkpt lat="48.63144" lon="1.85316">
        <ele>168.6</ele>
        <time>2026-03-29T12:36:20Z</time>
      </trkpt>
      <trkpt lat="48.63146" lon="1.85325">
        <ele>168.6</ele>
        <time>2026-03-29T12:36:21Z</time>
      </trkpt>
      <trkpt lat="48.63149" lon="1.85333">
        <ele>168.2</ele>
        <time>2026-03-29T12:36:22Z</time>
      </trkpt>
      <trkpt lat="48.63152" lon="1.85341">
        <ele>168.2</ele>
        <time>2026-03-29T12:36:23Z</time>
      </trkpt>
      <trkpt lat="48.63153" lon="1.85346">
        <ele>168.2</ele>
        <time>2026-03-29T12:36:24Z</time>
      </trkpt>
      <trkpt lat="48.63154" lon="1.85352">
        <ele>168.4</ele>
        <time>2026-03-29T12:36:25Z</time>
      </trkpt>
      <trkpt lat="48.63157" lon="1.85361">
        <ele>168.6</ele>
        <time>2026-03-29T12:36:26Z</time>
      </trkpt>
      <trkpt lat="48.63161" lon="1.85368">
        <ele>168.6</ele>
        <time>2026-03-29T12:36:27Z</time>
      </trkpt>
      <trkpt lat="48.63163" lon="1.85376">
        <ele>168.6</ele>
        <time>2026-03-29T12:36:28Z</time>
      </trkpt>
      <trkpt lat="48.63167" lon="1.85382">
        <ele>168.8</ele>
        <time>2026-03-29T12:36:29Z</time>
      </trkpt>
      <trkpt lat="48.6317" lon="1.85389">
        <ele>168.2</ele>
        <time>2026-03-29T12:36:30Z</time>
      </trkpt>
      <trkpt lat="48.63173" lon="1.85395">
        <ele>168.2</ele>
        <time>2026-03-29T12:36:31Z</time>
      </trkpt>
      <trkpt lat="48.63178" lon="1.854">
        <ele>168.2</ele>
        <time>2026-03-29T12:36:32Z</time>
      </trkpt>
      <trkpt lat="48.63181" lon="1.85405">
        <ele>169</ele>
        <time>2026-03-29T12:36:33Z</time>
      </trkpt>
      <trkpt lat="48.63184" lon="1.85409">
        <ele>168.8</ele>
        <time>2026-03-29T12:36:34Z</time>
      </trkpt>
      <trkpt lat="48.63187" lon="1.85416">
        <ele>168.8</ele>
        <time>2026-03-29T12:36:35Z</time>
      </trkpt>
      <trkpt lat="48.6319" lon="1.85423">
        <ele>168.8</ele>
        <time>2026-03-29T12:36:36Z</time>
      </trkpt>
      <trkpt lat="48.63192" lon="1.85428">
        <ele>168.8</ele>
        <time>2026-03-29T12:36:37Z</time>
      </trkpt>
      <trkpt lat="48.63192" lon="1.85433">
        <ele>168.6</ele>
        <time>2026-03-29T12:36:38Z</time>
      </trkpt>
      <trkpt lat="48.63191" lon="1.85438">
        <ele>168.6</ele>
        <time>2026-03-29T12:36:39Z</time>
      </trkpt>
      <trkpt lat="48.63192" lon="1.85443">
        <ele>168.6</ele>
        <time>2026-03-29T12:36:40Z</time>
      </trkpt>
      <trkpt lat="48.63193" lon="1.85447">
        <ele>168.6</ele>
        <time>2026-03-29T12:36:41Z</time>
      </trkpt>
      <trkpt lat="48.63195" lon="1.85451">
        <ele>168</ele>
        <time>2026-03-29T12:36:42Z</time>
      </trkpt>
      <trkpt lat="48.63196" lon="1.85454">
        <ele>168</ele>
        <time>2026-03-29T12:36:43Z</time>
      </trkpt>
      <trkpt lat="48.63199" lon="1.85458">
        <ele>168</ele>
        <time>2026-03-29T12:36:44Z</time>
      </trkpt>
      <trkpt lat="48.63201" lon="1.85462">
        <ele>168</ele>
        <time>2026-03-29T12:36:45Z</time>
      </trkpt>
      <trkpt lat="48.63203" lon="1.85467">
        <ele>169</ele>
        <time>2026-03-29T12:36:46Z</time>
      </trkpt>
      <trkpt lat="48.63205" lon="1.85472">
        <ele>169</ele>
        <time>2026-03-29T12:36:47Z</time>
      </trkpt>
      <trkpt lat="48.63207" lon="1.85478">
        <ele>169</ele>
        <time>2026-03-29T12:36:48Z</time>
      </trkpt>
      <trkpt lat="48.63209" lon="1.85483">
        <ele>169</ele>
        <time>2026-03-29T12:36:49Z</time>
      </trkpt>
      <trkpt lat="48.63212" lon="1.85488">
        <ele>169.2</ele>
        <time>2026-03-29T12:36:50Z</time>
      </trkpt>
      <trkpt lat="48.63216" lon="1.85494">
        <ele>169.2</ele>
        <time>2026-03-29T12:36:51Z</time>
      </trkpt>
      <trkpt lat="48.63219" lon="1.855">
        <ele>169.2</ele>
        <time>2026-03-29T12:36:52Z</time>
      </trkpt>
      <trkpt lat="48.63222" lon="1.85504">
        <ele>169.4</ele>
        <time>2026-03-29T12:36:53Z</time>
      </trkpt>
      <trkpt lat="48.63226" lon="1.85511">
        <ele>169.8</ele>
        <time>2026-03-29T12:36:54Z</time>
      </trkpt>
      <trkpt lat="48.63229" lon="1.85516">
        <ele>169.8</ele>
        <time>2026-03-29T12:36:55Z</time>
      </trkpt>
      <trkpt lat="48.63232" lon="1.85521">
        <ele>169.8</ele>
        <time>2026-03-29T12:36:56Z</time>
      </trkpt>
      <trkpt lat="48.63235" lon="1.85526">
        <ele>169.8</ele>
        <time>2026-03-29T12:36:57Z</time>
      </trkpt>
      <trkpt lat="48.63238" lon="1.85531">
        <ele>170.2</ele>
        <time>2026-03-29T12:36:58Z</time>
      </trkpt>
      <trkpt lat="48.63242" lon="1.85535">
        <ele>170.2</ele>
        <time>2026-03-29T12:36:59Z</time>
      </trkpt>
      <trkpt lat="48.63245" lon="1.8554">
        <ele>170.2</ele>
        <time>2026-03-29T12:37:00Z</time>
      </trkpt>
      <trkpt lat="48.63249" lon="1.85544">
        <ele>169.6</ele>
        <time>2026-03-29T12:37:01Z</time>
      </trkpt>
      <trkpt lat="48.63252" lon="1.85548">
        <ele>169.6</ele>
        <time>2026-03-29T12:37:02Z</time>
      </trkpt>
      <trkpt lat="48.63255" lon="1.85554">
        <ele>169.6</ele>
        <time>2026-03-29T12:37:03Z</time>
      </trkpt>
      <trkpt lat="48.63257" lon="1.85558">
        <ele>169.6</ele>
        <time>2026-03-29T12:37:04Z</time>
      </trkpt>
      <trkpt lat="48.6326" lon="1.85564">
        <ele>169.6</ele>
        <time>2026-03-29T12:37:05Z</time>
      </trkpt>
      <trkpt lat="48.63264" lon="1.85568">
        <ele>169.8</ele>
        <time>2026-03-29T12:37:06Z</time>
      </trkpt>
      <trkpt lat="48.63268" lon="1.85574">
        <ele>169.8</ele>
        <time>2026-03-29T12:37:07Z</time>
      </trkpt>
      <trkpt lat="48.63272" lon="1.85578">
        <ele>169.8</ele>
        <time>2026-03-29T12:37:08Z</time>
      </trkpt>
      <trkpt lat="48.63275" lon="1.85584">
        <ele>169.8</ele>
        <time>2026-03-29T12:37:09Z</time>
      </trkpt>
      <trkpt lat="48.63279" lon="1.8559">
        <ele>170.8</ele>
        <time>2026-03-29T12:37:10Z</time>
      </trkpt>
      <trkpt lat="48.63282" lon="1.85595">
        <ele>170.8</ele>
        <time>2026-03-29T12:37:11Z</time>
      </trkpt>
      <trkpt lat="48.63286" lon="1.85599">
        <ele>170.8</ele>
        <time>2026-03-29T12:37:12Z</time>
      </trkpt>
      <trkpt lat="48.63289" lon="1.85602">
        <ele>169.8</ele>
        <time>2026-03-29T12:37:13Z</time>
      </trkpt>
      <trkpt lat="48.63292" lon="1.85606">
        <ele>168.4</ele>
        <time>2026-03-29T12:37:14Z</time>
      </trkpt>
      <trkpt lat="48.63293" lon="1.85611">
        <ele>168.4</ele>
        <time>2026-03-29T12:37:15Z</time>
      </trkpt>
      <trkpt lat="48.63294" lon="1.85614">
        <ele>168.4</ele>
        <time>2026-03-29T12:37:16Z</time>
      </trkpt>
      <trkpt lat="48.63295" lon="1.85619">
        <ele>168.8</ele>
        <time>2026-03-29T12:37:17Z</time>
      </trkpt>
      <trkpt lat="48.63297" lon="1.85625">
        <ele>168.4</ele>
        <time>2026-03-29T12:37:18Z</time>
      </trkpt>
      <trkpt lat="48.63299" lon="1.85628">
        <ele>168.4</ele>
        <time>2026-03-29T12:37:19Z</time>
      </trkpt>
      <trkpt lat="48.63301" lon="1.85633">
        <ele>168.4</ele>
        <time>2026-03-29T12:37:20Z</time>
      </trkpt>
      <trkpt lat="48.63304" lon="1.85637">
        <ele>168.4</ele>
        <time>2026-03-29T12:37:21Z</time>
      </trkpt>
      <trkpt lat="48.63307" lon="1.8564">
        <ele>169.4</ele>
        <time>2026-03-29T12:37:22Z</time>
      </trkpt>
      <trkpt lat="48.63309" lon="1.85643">
        <ele>169.4</ele>
        <time>2026-03-29T12:37:23Z</time>
      </trkpt>
      <trkpt lat="48.63312" lon="1.85646">
        <ele>169.4</ele>
        <time>2026-03-29T12:37:24Z</time>
      </trkpt>
      <trkpt lat="48.63313" lon="1.85651">
        <ele>169.4</ele>
        <time>2026-03-29T12:37:25Z</time>
      </trkpt>
      <trkpt lat="48.63315" lon="1.85654">
        <ele>169.2</ele>
        <time>2026-03-29T12:37:26Z</time>
      </trkpt>
      <trkpt lat="48.63316" lon="1.85656">
        <ele>169.2</ele>
        <time>2026-03-29T12:37:27Z</time>
      </trkpt>
      <trkpt lat="48.63319" lon="1.85658">
        <ele>169.2</ele>
        <time>2026-03-29T12:37:28Z</time>
      </trkpt>
      <trkpt lat="48.63322" lon="1.85658">
        <ele>169.6</ele>
        <time>2026-03-29T12:37:29Z</time>
      </trkpt>
      <trkpt lat="48.63326" lon="1.85659">
        <ele>169.2</ele>
        <time>2026-03-29T12:37:30Z</time>
      </trkpt>
      <trkpt lat="48.63329" lon="1.85658">
        <ele>169.2</ele>
        <time>2026-03-29T12:37:31Z</time>
      </trkpt>
      <trkpt lat="48.63333" lon="1.85659">
        <ele>169.2</ele>
        <time>2026-03-29T12:37:32Z</time>
      </trkpt>
      <trkpt lat="48.63337" lon="1.85659">
        <ele>169.6</ele>
        <time>2026-03-29T12:37:33Z</time>
      </trkpt>
      <trkpt lat="48.6334" lon="1.85658">
        <ele>169.8</ele>
        <time>2026-03-29T12:37:34Z</time>
      </trkpt>
      <trkpt lat="48.63343" lon="1.85657">
        <ele>169.8</ele>
        <time>2026-03-29T12:37:35Z</time>
      </trkpt>
      <trkpt lat="48.63347" lon="1.85656">
        <ele>169.8</ele>
        <time>2026-03-29T12:37:36Z</time>
      </trkpt>
      <trkpt lat="48.63351" lon="1.85655">
        <ele>169.6</ele>
        <time>2026-03-29T12:37:37Z</time>
      </trkpt>
      <trkpt lat="48.63355" lon="1.85655">
        <ele>169.2</ele>
        <time>2026-03-29T12:37:38Z</time>
      </trkpt>
      <trkpt lat="48.63358" lon="1.85654">
        <ele>169.2</ele>
        <time>2026-03-29T12:37:39Z</time>
      </trkpt>
      <trkpt lat="48.63362" lon="1.85653">
        <ele>169.2</ele>
        <time>2026-03-29T12:37:40Z</time>
      </trkpt>
      <trkpt lat="48.63366" lon="1.85653">
        <ele>169.2</ele>
        <time>2026-03-29T12:37:41Z</time>
      </trkpt>
      <trkpt lat="48.6337" lon="1.85653">
        <ele>169.4</ele>
        <time>2026-03-29T12:37:42Z</time>
      </trkpt>
      <trkpt lat="48.63374" lon="1.85653">
        <ele>169.4</ele>
        <time>2026-03-29T12:37:43Z</time>
      </trkpt>
      <trkpt lat="48.63378" lon="1.85653">
        <ele>169.4</ele>
        <time>2026-03-29T12:37:44Z</time>
      </trkpt>
      <trkpt lat="48.63382" lon="1.85653">
        <ele>169.4</ele>
        <time>2026-03-29T12:37:45Z</time>
      </trkpt>
      <trkpt lat="48.63386" lon="1.85654">
        <ele>169.4</ele>
        <time>2026-03-29T12:37:46Z</time>
      </trkpt>
      <trkpt lat="48.6339" lon="1.85655">
        <ele>169.4</ele>
        <time>2026-03-29T12:37:47Z</time>
      </trkpt>
      <trkpt lat="48.63394" lon="1.85656">
        <ele>169.4</ele>
        <time>2026-03-29T12:37:48Z</time>
      </trkpt>
      <trkpt lat="48.63398" lon="1.85658">
        <ele>169.4</ele>
        <time>2026-03-29T12:37:49Z</time>
      </trkpt>
      <trkpt lat="48.63402" lon="1.8566">
        <ele>169.6</ele>
        <time>2026-03-29T12:37:50Z</time>
      </trkpt>
      <trkpt lat="48.63407" lon="1.85663">
        <ele>169.6</ele>
        <time>2026-03-29T12:37:51Z</time>
      </trkpt>
      <trkpt lat="48.63411" lon="1.85665">
        <ele>169.6</ele>
        <time>2026-03-29T12:37:52Z</time>
      </trkpt>
      <trkpt lat="48.63415" lon="1.85665">
        <ele>169.6</ele>
        <time>2026-03-29T12:37:53Z</time>
      </trkpt>
      <trkpt lat="48.6342" lon="1.85667">
        <ele>169.6</ele>
        <time>2026-03-29T12:37:54Z</time>
      </trkpt>
      <trkpt lat="48.63424" lon="1.85669">
        <ele>169.6</ele>
        <time>2026-03-29T12:37:55Z</time>
      </trkpt>
      <trkpt lat="48.63428" lon="1.85671">
        <ele>169.6</ele>
        <time>2026-03-29T12:37:56Z</time>
      </trkpt>
      <trkpt lat="48.63432" lon="1.85672">
        <ele>169.6</ele>
        <time>2026-03-29T12:37:57Z</time>
      </trkpt>
      <trkpt lat="48.63436" lon="1.85674">
        <ele>170</ele>
        <time>2026-03-29T12:37:58Z</time>
      </trkpt>
      <trkpt lat="48.6344" lon="1.85674">
        <ele>170</ele>
        <time>2026-03-29T12:37:59Z</time>
      </trkpt>
      <trkpt lat="48.63445" lon="1.85675">
        <ele>170</ele>
        <time>2026-03-29T12:38:00Z</time>
      </trkpt>
      <trkpt lat="48.63449" lon="1.85676">
        <ele>169.2</ele>
        <time>2026-03-29T12:38:01Z</time>
      </trkpt>
      <trkpt lat="48.63454" lon="1.8568">
        <ele>169.6</ele>
        <time>2026-03-29T12:38:02Z</time>
      </trkpt>
      <trkpt lat="48.63458" lon="1.85683">
        <ele>169.6</ele>
        <time>2026-03-29T12:38:03Z</time>
      </trkpt>
      <trkpt lat="48.63462" lon="1.85687">
        <ele>169.6</ele>
        <time>2026-03-29T12:38:04Z</time>
      </trkpt>
      <trkpt lat="48.63466" lon="1.85692">
        <ele>169.6</ele>
        <time>2026-03-29T12:38:05Z</time>
      </trkpt>
      <trkpt lat="48.6347" lon="1.85695">
        <ele>169.4</ele>
        <time>2026-03-29T12:38:06Z</time>
      </trkpt>
      <trkpt lat="48.63473" lon="1.857">
        <ele>169.4</ele>
        <time>2026-03-29T12:38:07Z</time>
      </trkpt>
      <trkpt lat="48.63476" lon="1.85704">
        <ele>169.4</ele>
        <time>2026-03-29T12:38:08Z</time>
      </trkpt>
      <trkpt lat="48.63479" lon="1.85706">
        <ele>169.4</ele>
        <time>2026-03-29T12:38:09Z</time>
      </trkpt>
      <trkpt lat="48.63483" lon="1.85706">
        <ele>170.2</ele>
        <time>2026-03-29T12:38:10Z</time>
      </trkpt>
      <trkpt lat="48.63487" lon="1.85707">
        <ele>170.2</ele>
        <time>2026-03-29T12:38:11Z</time>
      </trkpt>
      <trkpt lat="48.63491" lon="1.8571">
        <ele>170.2</ele>
        <time>2026-03-29T12:38:12Z</time>
      </trkpt>
      <trkpt lat="48.63496" lon="1.85711">
        <ele>170.2</ele>
        <time>2026-03-29T12:38:13Z</time>
      </trkpt>
      <trkpt lat="48.63499" lon="1.85712">
        <ele>170.2</ele>
        <time>2026-03-29T12:38:14Z</time>
      </trkpt>
      <trkpt lat="48.63502" lon="1.85713">
        <ele>170.2</ele>
        <time>2026-03-29T12:38:15Z</time>
      </trkpt>
      <trkpt lat="48.63506" lon="1.85714">
        <ele>170.2</ele>
        <time>2026-03-29T12:38:16Z</time>
      </trkpt>
      <trkpt lat="48.6351" lon="1.85713">
        <ele>170.2</ele>
        <time>2026-03-29T12:38:17Z</time>
      </trkpt>
      <trkpt lat="48.63513" lon="1.85714">
        <ele>169.6</ele>
        <time>2026-03-29T12:38:18Z</time>
      </trkpt>
      <trkpt lat="48.63518" lon="1.85714">
        <ele>169.6</ele>
        <time>2026-03-29T12:38:19Z</time>
      </trkpt>
      <trkpt lat="48.63522" lon="1.85714">
        <ele>169.6</ele>
        <time>2026-03-29T12:38:20Z</time>
      </trkpt>
      <trkpt lat="48.63527" lon="1.85714">
        <ele>170.6</ele>
        <time>2026-03-29T12:38:21Z</time>
      </trkpt>
      <trkpt lat="48.63531" lon="1.85714">
        <ele>171</ele>
        <time>2026-03-29T12:38:22Z</time>
      </trkpt>
      <trkpt lat="48.63535" lon="1.85714">
        <ele>171</ele>
        <time>2026-03-29T12:38:23Z</time>
      </trkpt>
      <trkpt lat="48.63539" lon="1.85714">
        <ele>171</ele>
        <time>2026-03-29T12:38:24Z</time>
      </trkpt>
      <trkpt lat="48.63543" lon="1.85713">
        <ele>170</ele>
        <time>2026-03-29T12:38:25Z</time>
      </trkpt>
      <trkpt lat="48.63548" lon="1.85716">
        <ele>170.2</ele>
        <time>2026-03-29T12:38:26Z</time>
      </trkpt>
      <trkpt lat="48.63555" lon="1.85722">
        <ele>170.2</ele>
        <time>2026-03-29T12:38:27Z</time>
      </trkpt>
      <trkpt lat="48.6356" lon="1.85728">
        <ele>170.2</ele>
        <time>2026-03-29T12:38:28Z</time>
      </trkpt>
      <trkpt lat="48.63564" lon="1.85735">
        <ele>170.6</ele>
        <time>2026-03-29T12:38:29Z</time>
      </trkpt>
      <trkpt lat="48.63568" lon="1.8574">
        <ele>171.2</ele>
        <time>2026-03-29T12:38:30Z</time>
      </trkpt>
      <trkpt lat="48.63571" lon="1.85744">
        <ele>171.2</ele>
        <time>2026-03-29T12:38:31Z</time>
      </trkpt>
      <trkpt lat="48.63575" lon="1.85746">
        <ele>171.2</ele>
        <time>2026-03-29T12:38:32Z</time>
      </trkpt>
      <trkpt lat="48.63579" lon="1.85745">
        <ele>170.6</ele>
        <time>2026-03-29T12:38:33Z</time>
      </trkpt>
      <trkpt lat="48.63583" lon="1.85743">
        <ele>170.8</ele>
        <time>2026-03-29T12:38:34Z</time>
      </trkpt>
      <trkpt lat="48.63588" lon="1.85742">
        <ele>170.8</ele>
        <time>2026-03-29T12:38:35Z</time>
      </trkpt>
      <trkpt lat="48.63593" lon="1.85742">
        <ele>170.8</ele>
        <time>2026-03-29T12:38:36Z</time>
      </trkpt>
      <trkpt lat="48.63598" lon="1.85742">
        <ele>170.2</ele>
        <time>2026-03-29T12:38:37Z</time>
      </trkpt>
      <trkpt lat="48.63603" lon="1.8574">
        <ele>169.4</ele>
        <time>2026-03-29T12:38:38Z</time>
      </trkpt>
      <trkpt lat="48.63608" lon="1.85739">
        <ele>169.4</ele>
        <time>2026-03-29T12:38:39Z</time>
      </trkpt>
      <trkpt lat="48.63613" lon="1.8574">
        <ele>169.4</ele>
        <time>2026-03-29T12:38:40Z</time>
      </trkpt>
      <trkpt lat="48.63617" lon="1.85742">
        <ele>170</ele>
        <time>2026-03-29T12:38:41Z</time>
      </trkpt>
      <trkpt lat="48.63621" lon="1.85743">
        <ele>170</ele>
        <time>2026-03-29T12:38:42Z</time>
      </trkpt>
      <trkpt lat="48.63625" lon="1.85744">
        <ele>170</ele>
        <time>2026-03-29T12:38:43Z</time>
      </trkpt>
      <trkpt lat="48.63629" lon="1.85744">
        <ele>170</ele>
        <time>2026-03-29T12:38:44Z</time>
      </trkpt>
      <trkpt lat="48.63633" lon="1.85744">
        <ele>170</ele>
        <time>2026-03-29T12:38:45Z</time>
      </trkpt>
      <trkpt lat="48.63636" lon="1.85745">
        <ele>170.8</ele>
        <time>2026-03-29T12:38:46Z</time>
      </trkpt>
      <trkpt lat="48.63639" lon="1.85746">
        <ele>170.8</ele>
        <time>2026-03-29T12:38:47Z</time>
      </trkpt>
      <trkpt lat="48.63642" lon="1.85747">
        <ele>170.8</ele>
        <time>2026-03-29T12:38:48Z</time>
      </trkpt>
      <trkpt lat="48.63646" lon="1.85749">
        <ele>170.8</ele>
        <time>2026-03-29T12:38:49Z</time>
      </trkpt>
      <trkpt lat="48.6365" lon="1.8575">
        <ele>169.8</ele>
        <time>2026-03-29T12:38:50Z</time>
      </trkpt>
      <trkpt lat="48.63655" lon="1.85751">
        <ele>169.8</ele>
        <time>2026-03-29T12:38:51Z</time>
      </trkpt>
      <trkpt lat="48.63659" lon="1.85751">
        <ele>169.8</ele>
        <time>2026-03-29T12:38:52Z</time>
      </trkpt>
      <trkpt lat="48.63664" lon="1.85753">
        <ele>169.8</ele>
        <time>2026-03-29T12:38:53Z</time>
      </trkpt>
      <trkpt lat="48.63668" lon="1.85753">
        <ele>169.8</ele>
        <time>2026-03-29T12:38:54Z</time>
      </trkpt>
      <trkpt lat="48.63673" lon="1.85755">
        <ele>169.8</ele>
        <time>2026-03-29T12:38:55Z</time>
      </trkpt>
      <trkpt lat="48.63678" lon="1.8576">
        <ele>169.8</ele>
        <time>2026-03-29T12:38:56Z</time>
      </trkpt>
      <trkpt lat="48.63682" lon="1.85764">
        <ele>169.8</ele>
        <time>2026-03-29T12:38:57Z</time>
      </trkpt>
      <trkpt lat="48.63686" lon="1.85765">
        <ele>170.8</ele>
        <time>2026-03-29T12:38:58Z</time>
      </trkpt>
      <trkpt lat="48.6369" lon="1.85766">
        <ele>170.8</ele>
        <time>2026-03-29T12:38:59Z</time>
      </trkpt>
      <trkpt lat="48.63695" lon="1.85765">
        <ele>170.8</ele>
        <time>2026-03-29T12:39:00Z</time>
      </trkpt>
      <trkpt lat="48.63698" lon="1.85765">
        <ele>170.8</ele>
        <time>2026-03-29T12:39:01Z</time>
      </trkpt>
      <trkpt lat="48.63703" lon="1.85765">
        <ele>170.8</ele>
        <time>2026-03-29T12:39:02Z</time>
      </trkpt>
      <trkpt lat="48.63708" lon="1.85766">
        <ele>170.8</ele>
        <time>2026-03-29T12:39:03Z</time>
      </trkpt>
      <trkpt lat="48.63713" lon="1.85767">
        <ele>170.8</ele>
        <time>2026-03-29T12:39:04Z</time>
      </trkpt>
      <trkpt lat="48.63717" lon="1.85767">
        <ele>171</ele>
        <time>2026-03-29T12:39:05Z</time>
      </trkpt>
      <trkpt lat="48.63722" lon="1.85768">
        <ele>170.2</ele>
        <time>2026-03-29T12:39:06Z</time>
      </trkpt>
      <trkpt lat="48.63727" lon="1.85769">
        <ele>170.2</ele>
        <time>2026-03-29T12:39:07Z</time>
      </trkpt>
      <trkpt lat="48.63732" lon="1.85769">
        <ele>170.2</ele>
        <time>2026-03-29T12:39:08Z</time>
      </trkpt>
      <trkpt lat="48.63738" lon="1.8577">
        <ele>171</ele>
        <time>2026-03-29T12:39:09Z</time>
      </trkpt>
      <trkpt lat="48.63742" lon="1.85771">
        <ele>170.8</ele>
        <time>2026-03-29T12:39:10Z</time>
      </trkpt>
      <trkpt lat="48.63747" lon="1.85772">
        <ele>170.8</ele>
        <time>2026-03-29T12:39:11Z</time>
      </trkpt>
      <trkpt lat="48.63751" lon="1.85773">
        <ele>170.8</ele>
        <time>2026-03-29T12:39:12Z</time>
      </trkpt>
      <trkpt lat="48.63756" lon="1.85776">
        <ele>170.8</ele>
        <time>2026-03-29T12:39:13Z</time>
      </trkpt>
      <trkpt lat="48.6376" lon="1.85779">
        <ele>171</ele>
        <time>2026-03-29T12:39:14Z</time>
      </trkpt>
      <trkpt lat="48.63766" lon="1.85781">
        <ele>171</ele>
        <time>2026-03-29T12:39:15Z</time>
      </trkpt>
      <trkpt lat="48.63771" lon="1.85782">
        <ele>171</ele>
        <time>2026-03-29T12:39:16Z</time>
      </trkpt>
      <trkpt lat="48.63775" lon="1.85783">
        <ele>171</ele>
        <time>2026-03-29T12:39:17Z</time>
      </trkpt>
      <trkpt lat="48.63779" lon="1.85783">
        <ele>171</ele>
        <time>2026-03-29T12:39:18Z</time>
      </trkpt>
      <trkpt lat="48.63784" lon="1.85783">
        <ele>171</ele>
        <time>2026-03-29T12:39:19Z</time>
      </trkpt>
      <trkpt lat="48.63789" lon="1.85784">
        <ele>171</ele>
        <time>2026-03-29T12:39:20Z</time>
      </trkpt>
      <trkpt lat="48.63795" lon="1.85786">
        <ele>171</ele>
        <time>2026-03-29T12:39:21Z</time>
      </trkpt>
      <trkpt lat="48.638" lon="1.85787">
        <ele>171.2</ele>
        <time>2026-03-29T12:39:22Z</time>
      </trkpt>
      <trkpt lat="48.63805" lon="1.85786">
        <ele>171.2</ele>
        <time>2026-03-29T12:39:23Z</time>
      </trkpt>
      <trkpt lat="48.63809" lon="1.85787">
        <ele>171.2</ele>
        <time>2026-03-29T12:39:24Z</time>
      </trkpt>
      <trkpt lat="48.63813" lon="1.85789">
        <ele>171.2</ele>
        <time>2026-03-29T12:39:25Z</time>
      </trkpt>
      <trkpt lat="48.63818" lon="1.8579">
        <ele>171.2</ele>
        <time>2026-03-29T12:39:26Z</time>
      </trkpt>
      <trkpt lat="48.63823" lon="1.85791">
        <ele>171.2</ele>
        <time>2026-03-29T12:39:27Z</time>
      </trkpt>
      <trkpt lat="48.63827" lon="1.85792">
        <ele>171.2</ele>
        <time>2026-03-29T12:39:28Z</time>
      </trkpt>
      <trkpt lat="48.63831" lon="1.85794">
        <ele>171.2</ele>
        <time>2026-03-29T12:39:29Z</time>
      </trkpt>
      <trkpt lat="48.63835" lon="1.85796">
        <ele>171.2</ele>
        <time>2026-03-29T12:39:30Z</time>
      </trkpt>
      <trkpt lat="48.63839" lon="1.85799">
        <ele>171.2</ele>
        <time>2026-03-29T12:39:31Z</time>
      </trkpt>
      <trkpt lat="48.63843" lon="1.858">
        <ele>171.2</ele>
        <time>2026-03-29T12:39:32Z</time>
      </trkpt>
      <trkpt lat="48.63848" lon="1.85802">
        <ele>171.2</ele>
        <time>2026-03-29T12:39:33Z</time>
      </trkpt>
      <trkpt lat="48.63853" lon="1.85804">
        <ele>170.8</ele>
        <time>2026-03-29T12:39:34Z</time>
      </trkpt>
      <trkpt lat="48.63858" lon="1.85806">
        <ele>170.8</ele>
        <time>2026-03-29T12:39:35Z</time>
      </trkpt>
      <trkpt lat="48.63862" lon="1.85807">
        <ele>170.8</ele>
        <time>2026-03-29T12:39:36Z</time>
      </trkpt>
      <trkpt lat="48.63867" lon="1.85808">
        <ele>171.2</ele>
        <time>2026-03-29T12:39:37Z</time>
      </trkpt>
      <trkpt lat="48.63872" lon="1.85809">
        <ele>171.2</ele>
        <time>2026-03-29T12:39:38Z</time>
      </trkpt>
      <trkpt lat="48.63877" lon="1.8581">
        <ele>171.2</ele>
        <time>2026-03-29T12:39:39Z</time>
      </trkpt>
      <trkpt lat="48.63882" lon="1.85811">
        <ele>171.2</ele>
        <time>2026-03-29T12:39:40Z</time>
      </trkpt>
      <trkpt lat="48.63887" lon="1.85812">
        <ele>171.2</ele>
        <time>2026-03-29T12:39:41Z</time>
      </trkpt>
      <trkpt lat="48.63892" lon="1.85812">
        <ele>171.6</ele>
        <time>2026-03-29T12:39:42Z</time>
      </trkpt>
      <trkpt lat="48.63897" lon="1.85812">
        <ele>171.6</ele>
        <time>2026-03-29T12:39:43Z</time>
      </trkpt>
      <trkpt lat="48.63901" lon="1.85813">
        <ele>171.6</ele>
        <time>2026-03-29T12:39:44Z</time>
      </trkpt>
      <trkpt lat="48.63905" lon="1.85814">
        <ele>171.6</ele>
        <time>2026-03-29T12:39:45Z</time>
      </trkpt>
      <trkpt lat="48.63909" lon="1.85814">
        <ele>171</ele>
        <time>2026-03-29T12:39:46Z</time>
      </trkpt>
      <trkpt lat="48.63912" lon="1.85814">
        <ele>171</ele>
        <time>2026-03-29T12:39:47Z</time>
      </trkpt>
      <trkpt lat="48.63917" lon="1.85815">
        <ele>171</ele>
        <time>2026-03-29T12:39:48Z</time>
      </trkpt>
      <trkpt lat="48.63921" lon="1.85817">
        <ele>171.2</ele>
        <time>2026-03-29T12:39:49Z</time>
      </trkpt>
      <trkpt lat="48.63926" lon="1.85818">
        <ele>171.6</ele>
        <time>2026-03-29T12:39:50Z</time>
      </trkpt>
      <trkpt lat="48.63931" lon="1.85819">
        <ele>171.6</ele>
        <time>2026-03-29T12:39:51Z</time>
      </trkpt>
      <trkpt lat="48.63936" lon="1.8582">
        <ele>171.6</ele>
        <time>2026-03-29T12:39:52Z</time>
      </trkpt>
      <trkpt lat="48.6394" lon="1.85821">
        <ele>171.6</ele>
        <time>2026-03-29T12:39:53Z</time>
      </trkpt>
      <trkpt lat="48.63945" lon="1.85824">
        <ele>171.6</ele>
        <time>2026-03-29T12:39:54Z</time>
      </trkpt>
      <trkpt lat="48.6395" lon="1.85826">
        <ele>171.6</ele>
        <time>2026-03-29T12:39:55Z</time>
      </trkpt>
      <trkpt lat="48.63955" lon="1.85827">
        <ele>171.6</ele>
        <time>2026-03-29T12:39:56Z</time>
      </trkpt>
      <trkpt lat="48.6396" lon="1.85828">
        <ele>171.6</ele>
        <time>2026-03-29T12:39:57Z</time>
      </trkpt>
      <trkpt lat="48.63965" lon="1.8583">
        <ele>171.6</ele>
        <time>2026-03-29T12:39:58Z</time>
      </trkpt>
      <trkpt lat="48.63969" lon="1.85832">
        <ele>171.6</ele>
        <time>2026-03-29T12:39:59Z</time>
      </trkpt>
      <trkpt lat="48.63974" lon="1.85833">
        <ele>171.6</ele>
        <time>2026-03-29T12:40:00Z</time>
      </trkpt>
      <trkpt lat="48.63979" lon="1.85833">
        <ele>171.8</ele>
        <time>2026-03-29T12:40:01Z</time>
      </trkpt>
      <trkpt lat="48.63984" lon="1.85834">
        <ele>171.2</ele>
        <time>2026-03-29T12:40:02Z</time>
      </trkpt>
      <trkpt lat="48.63988" lon="1.85836">
        <ele>171.2</ele>
        <time>2026-03-29T12:40:03Z</time>
      </trkpt>
      <trkpt lat="48.63993" lon="1.85838">
        <ele>171.2</ele>
        <time>2026-03-29T12:40:04Z</time>
      </trkpt>
      <trkpt lat="48.63997" lon="1.8584">
        <ele>171.2</ele>
        <time>2026-03-29T12:40:05Z</time>
      </trkpt>
      <trkpt lat="48.64001" lon="1.85841">
        <ele>171.2</ele>
        <time>2026-03-29T12:40:06Z</time>
      </trkpt>
      <trkpt lat="48.64006" lon="1.85842">
        <ele>171.2</ele>
        <time>2026-03-29T12:40:07Z</time>
      </trkpt>
      <trkpt lat="48.6401" lon="1.85843">
        <ele>171.2</ele>
        <time>2026-03-29T12:40:08Z</time>
      </trkpt>
      <trkpt lat="48.64015" lon="1.85845">
        <ele>171.6</ele>
        <time>2026-03-29T12:40:09Z</time>
      </trkpt>
      <trkpt lat="48.6402" lon="1.85846">
        <ele>171.6</ele>
        <time>2026-03-29T12:40:10Z</time>
      </trkpt>
      <trkpt lat="48.64023" lon="1.85847">
        <ele>171.6</ele>
        <time>2026-03-29T12:40:11Z</time>
      </trkpt>
      <trkpt lat="48.64028" lon="1.85848">
        <ele>171.6</ele>
        <time>2026-03-29T12:40:12Z</time>
      </trkpt>
      <trkpt lat="48.64033" lon="1.85848">
        <ele>171.6</ele>
        <time>2026-03-29T12:40:13Z</time>
      </trkpt>
      <trkpt lat="48.64037" lon="1.85849">
        <ele>171.8</ele>
        <time>2026-03-29T12:40:14Z</time>
      </trkpt>
      <trkpt lat="48.64042" lon="1.85851">
        <ele>171.8</ele>
        <time>2026-03-29T12:40:15Z</time>
      </trkpt>
      <trkpt lat="48.64046" lon="1.85852">
        <ele>171.8</ele>
        <time>2026-03-29T12:40:16Z</time>
      </trkpt>
      <trkpt lat="48.6405" lon="1.85854">
        <ele>171.6</ele>
        <time>2026-03-29T12:40:17Z</time>
      </trkpt>
      <trkpt lat="48.64054" lon="1.85856">
        <ele>171.8</ele>
        <time>2026-03-29T12:40:18Z</time>
      </trkpt>
      <trkpt lat="48.64059" lon="1.85858">
        <ele>171.8</ele>
        <time>2026-03-29T12:40:19Z</time>
      </trkpt>
      <trkpt lat="48.64063" lon="1.85861">
        <ele>171.8</ele>
        <time>2026-03-29T12:40:20Z</time>
      </trkpt>
      <trkpt lat="48.64067" lon="1.85863">
        <ele>171.8</ele>
        <time>2026-03-29T12:40:21Z</time>
      </trkpt>
      <trkpt lat="48.64072" lon="1.85866">
        <ele>171.8</ele>
        <time>2026-03-29T12:40:22Z</time>
      </trkpt>
      <trkpt lat="48.64076" lon="1.85869">
        <ele>171.8</ele>
        <time>2026-03-29T12:40:23Z</time>
      </trkpt>
      <trkpt lat="48.6408" lon="1.85872">
        <ele>171.8</ele>
        <time>2026-03-29T12:40:24Z</time>
      </trkpt>
      <trkpt lat="48.64084" lon="1.85874">
        <ele>171.8</ele>
        <time>2026-03-29T12:40:25Z</time>
      </trkpt>
      <trkpt lat="48.64089" lon="1.85877">
        <ele>172</ele>
        <time>2026-03-29T12:40:26Z</time>
      </trkpt>
      <trkpt lat="48.64094" lon="1.85879">
        <ele>172</ele>
        <time>2026-03-29T12:40:27Z</time>
      </trkpt>
      <trkpt lat="48.64098" lon="1.85881">
        <ele>172</ele>
        <time>2026-03-29T12:40:28Z</time>
      </trkpt>
      <trkpt lat="48.64102" lon="1.85883">
        <ele>172</ele>
        <time>2026-03-29T12:40:29Z</time>
      </trkpt>
      <trkpt lat="48.64105" lon="1.85885">
        <ele>171.8</ele>
        <time>2026-03-29T12:40:30Z</time>
      </trkpt>
      <trkpt lat="48.64111" lon="1.85889">
        <ele>171.8</ele>
        <time>2026-03-29T12:40:31Z</time>
      </trkpt>
      <trkpt lat="48.64115" lon="1.85891">
        <ele>171.8</ele>
        <time>2026-03-29T12:40:32Z</time>
      </trkpt>
      <trkpt lat="48.64117" lon="1.85893">
        <ele>171.8</ele>
        <time>2026-03-29T12:40:33Z</time>
      </trkpt>
      <trkpt lat="48.64121" lon="1.85895">
        <ele>172.2</ele>
        <time>2026-03-29T12:40:34Z</time>
      </trkpt>
      <trkpt lat="48.64126" lon="1.85897">
        <ele>172.2</ele>
        <time>2026-03-29T12:40:35Z</time>
      </trkpt>
      <trkpt lat="48.6413" lon="1.859">
        <ele>172.2</ele>
        <time>2026-03-29T12:40:36Z</time>
      </trkpt>
      <trkpt lat="48.64134" lon="1.85902">
        <ele>172.2</ele>
        <time>2026-03-29T12:40:37Z</time>
      </trkpt>
      <trkpt lat="48.64138" lon="1.85903">
        <ele>172.2</ele>
        <time>2026-03-29T12:40:38Z</time>
      </trkpt>
      <trkpt lat="48.64143" lon="1.85904">
        <ele>172.2</ele>
        <time>2026-03-29T12:40:39Z</time>
      </trkpt>
      <trkpt lat="48.64149" lon="1.85905">
        <ele>172.2</ele>
        <time>2026-03-29T12:40:40Z</time>
      </trkpt>
      <trkpt lat="48.64154" lon="1.85908">
        <ele>173</ele>
        <time>2026-03-29T12:40:41Z</time>
      </trkpt>
      <trkpt lat="48.64157" lon="1.8591">
        <ele>172.8</ele>
        <time>2026-03-29T12:40:42Z</time>
      </trkpt>
      <trkpt lat="48.64161" lon="1.85912">
        <ele>172.8</ele>
        <time>2026-03-29T12:40:43Z</time>
      </trkpt>
      <trkpt lat="48.64165" lon="1.85914">
        <ele>172.8</ele>
        <time>2026-03-29T12:40:44Z</time>
      </trkpt>
      <trkpt lat="48.64169" lon="1.85915">
        <ele>172.8</ele>
        <time>2026-03-29T12:40:45Z</time>
      </trkpt>
      <trkpt lat="48.64173" lon="1.85917">
        <ele>173</ele>
        <time>2026-03-29T12:40:46Z</time>
      </trkpt>
      <trkpt lat="48.64176" lon="1.85919">
        <ele>173</ele>
        <time>2026-03-29T12:40:47Z</time>
      </trkpt>
      <trkpt lat="48.64179" lon="1.85921">
        <ele>173</ele>
        <time>2026-03-29T12:40:48Z</time>
      </trkpt>
      <trkpt lat="48.64183" lon="1.85925">
        <ele>173</ele>
        <time>2026-03-29T12:40:49Z</time>
      </trkpt>
      <trkpt lat="48.64187" lon="1.85932">
        <ele>171.8</ele>
        <time>2026-03-29T12:40:50Z</time>
      </trkpt>
      <trkpt lat="48.6419" lon="1.8594">
        <ele>171.8</ele>
        <time>2026-03-29T12:40:51Z</time>
      </trkpt>
      <trkpt lat="48.64193" lon="1.85947">
        <ele>171.8</ele>
        <time>2026-03-29T12:40:52Z</time>
      </trkpt>
      <trkpt lat="48.64194" lon="1.85953">
        <ele>171.8</ele>
        <time>2026-03-29T12:40:53Z</time>
      </trkpt>
      <trkpt lat="48.64196" lon="1.8596">
        <ele>171.6</ele>
        <time>2026-03-29T12:40:54Z</time>
      </trkpt>
      <trkpt lat="48.64197" lon="1.85966">
        <ele>171.6</ele>
        <time>2026-03-29T12:40:55Z</time>
      </trkpt>
      <trkpt lat="48.64198" lon="1.85969">
        <ele>171.6</ele>
        <time>2026-03-29T12:40:56Z</time>
      </trkpt>
      <trkpt lat="48.64199" lon="1.85971">
        <ele>172.6</ele>
        <time>2026-03-29T12:40:57Z</time>
      </trkpt>
      <trkpt lat="48.64199" lon="1.85973">
        <ele>174</ele>
        <time>2026-03-29T12:40:58Z</time>
      </trkpt>
      <trkpt lat="48.642" lon="1.85976">
        <ele>174</ele>
        <time>2026-03-29T12:40:59Z</time>
      </trkpt>
      <trkpt lat="48.642" lon="1.85978">
        <ele>174</ele>
        <time>2026-03-29T12:41:00Z</time>
      </trkpt>
      <trkpt lat="48.64199" lon="1.85981">
        <ele>174.6</ele>
        <time>2026-03-29T12:41:01Z</time>
      </trkpt>
      <trkpt lat="48.642" lon="1.85984">
        <ele>174.8</ele>
        <time>2026-03-29T12:41:02Z</time>
      </trkpt>
      <trkpt lat="48.642" lon="1.85987">
        <ele>174.8</ele>
        <time>2026-03-29T12:41:03Z</time>
      </trkpt>
      <trkpt lat="48.64202" lon="1.8599">
        <ele>174.8</ele>
        <time>2026-03-29T12:41:04Z</time>
      </trkpt>
      <trkpt lat="48.64205" lon="1.85993">
        <ele>174.8</ele>
        <time>2026-03-29T12:41:05Z</time>
      </trkpt>
      <trkpt lat="48.64207" lon="1.85995">
        <ele>174.8</ele>
        <time>2026-03-29T12:41:06Z</time>
      </trkpt>
      <trkpt lat="48.64209" lon="1.85998">
        <ele>174.8</ele>
        <time>2026-03-29T12:41:07Z</time>
      </trkpt>
      <trkpt lat="48.6421" lon="1.86002">
        <ele>174.8</ele>
        <time>2026-03-29T12:41:08Z</time>
      </trkpt>
      <trkpt lat="48.6421" lon="1.86005">
        <ele>174</ele>
        <time>2026-03-29T12:41:09Z</time>
      </trkpt>
      <trkpt lat="48.64211" lon="1.86009">
        <ele>173.6</ele>
        <time>2026-03-29T12:41:10Z</time>
      </trkpt>
      <trkpt lat="48.64211" lon="1.86015">
        <ele>173.6</ele>
        <time>2026-03-29T12:41:11Z</time>
      </trkpt>
      <trkpt lat="48.64212" lon="1.86022">
        <ele>173.6</ele>
        <time>2026-03-29T12:41:12Z</time>
      </trkpt>
      <trkpt lat="48.64214" lon="1.86029">
        <ele>172.6</ele>
        <time>2026-03-29T12:41:13Z</time>
      </trkpt>
      <trkpt lat="48.64216" lon="1.86037">
        <ele>171.6</ele>
        <time>2026-03-29T12:41:14Z</time>
      </trkpt>
      <trkpt lat="48.64219" lon="1.86045">
        <ele>171.6</ele>
        <time>2026-03-29T12:41:15Z</time>
      </trkpt>
      <trkpt lat="48.64222" lon="1.86053">
        <ele>171.6</ele>
        <time>2026-03-29T12:41:16Z</time>
      </trkpt>
      <trkpt lat="48.64224" lon="1.86061">
        <ele>171.8</ele>
        <time>2026-03-29T12:41:17Z</time>
      </trkpt>
      <trkpt lat="48.64226" lon="1.86069">
        <ele>171.6</ele>
        <time>2026-03-29T12:41:18Z</time>
      </trkpt>
      <trkpt lat="48.64228" lon="1.86077">
        <ele>171.6</ele>
        <time>2026-03-29T12:41:19Z</time>
      </trkpt>
      <trkpt lat="48.6423" lon="1.86085">
        <ele>171.6</ele>
        <time>2026-03-29T12:41:20Z</time>
      </trkpt>
      <trkpt lat="48.64231" lon="1.86092">
        <ele>171.6</ele>
        <time>2026-03-29T12:41:21Z</time>
      </trkpt>
      <trkpt lat="48.64233" lon="1.861">
        <ele>171.8</ele>
        <time>2026-03-29T12:41:22Z</time>
      </trkpt>
      <trkpt lat="48.64234" lon="1.86107">
        <ele>171.8</ele>
        <time>2026-03-29T12:41:23Z</time>
      </trkpt>
      <trkpt lat="48.64236" lon="1.86114">
        <ele>171.8</ele>
        <time>2026-03-29T12:41:24Z</time>
      </trkpt>
      <trkpt lat="48.64239" lon="1.8612">
        <ele>171.8</ele>
        <time>2026-03-29T12:41:25Z</time>
      </trkpt>
      <trkpt lat="48.64241" lon="1.86127">
        <ele>172.2</ele>
        <time>2026-03-29T12:41:26Z</time>
      </trkpt>
      <trkpt lat="48.64242" lon="1.86133">
        <ele>172.2</ele>
        <time>2026-03-29T12:41:27Z</time>
      </trkpt>
      <trkpt lat="48.64245" lon="1.86139">
        <ele>172.2</ele>
        <time>2026-03-29T12:41:28Z</time>
      </trkpt>
      <trkpt lat="48.64248" lon="1.86146">
        <ele>172</ele>
        <time>2026-03-29T12:41:29Z</time>
      </trkpt>
      <trkpt lat="48.6425" lon="1.86152">
        <ele>171.6</ele>
        <time>2026-03-29T12:41:30Z</time>
      </trkpt>
      <trkpt lat="48.64253" lon="1.86156">
        <ele>171.6</ele>
        <time>2026-03-29T12:41:31Z</time>
      </trkpt>
      <trkpt lat="48.64254" lon="1.8616">
        <ele>171.6</ele>
        <time>2026-03-29T12:41:32Z</time>
      </trkpt>
      <trkpt lat="48.64256" lon="1.86165">
        <ele>171.6</ele>
        <time>2026-03-29T12:41:33Z</time>
      </trkpt>
      <trkpt lat="48.64257" lon="1.8617">
        <ele>171.6</ele>
        <time>2026-03-29T12:41:34Z</time>
      </trkpt>
      <trkpt lat="48.64259" lon="1.86173">
        <ele>171.6</ele>
        <time>2026-03-29T12:41:35Z</time>
      </trkpt>
      <trkpt lat="48.64261" lon="1.86176">
        <ele>171.6</ele>
        <time>2026-03-29T12:41:36Z</time>
      </trkpt>
      <trkpt lat="48.64262" lon="1.86177">
        <ele>171.2</ele>
        <time>2026-03-29T12:41:37Z</time>
      </trkpt>
      <trkpt lat="48.64262" lon="1.86177">
        <ele>171</ele>
        <time>2026-03-29T12:41:38Z</time>
      </trkpt>
      <trkpt lat="48.64262" lon="1.86177">
        <ele>171</ele>
        <time>2026-03-29T12:41:39Z</time>
      </trkpt>
      <trkpt lat="48.64277" lon="1.86194">
        <ele>171.2</ele>
        <time>2026-03-29T12:42:01Z</time>
      </trkpt>
      <trkpt lat="48.64279" lon="1.86196">
        <ele>172</ele>
        <time>2026-03-29T12:42:02Z</time>
      </trkpt>
      <trkpt lat="48.64281" lon="1.86198">
        <ele>172</ele>
        <time>2026-03-29T12:42:03Z</time>
      </trkpt>
      <trkpt lat="48.64284" lon="1.86202">
        <ele>172</ele>
        <time>2026-03-29T12:42:04Z</time>
      </trkpt>
      <trkpt lat="48.64287" lon="1.86207">
        <ele>171.6</ele>
        <time>2026-03-29T12:42:05Z</time>
      </trkpt>
      <trkpt lat="48.64289" lon="1.86212">
        <ele>171.6</ele>
        <time>2026-03-29T12:42:06Z</time>
      </trkpt>
      <trkpt lat="48.64291" lon="1.86217">
        <ele>171.6</ele>
        <time>2026-03-29T12:42:07Z</time>
      </trkpt>
      <trkpt lat="48.64293" lon="1.86222">
        <ele>171.6</ele>
        <time>2026-03-29T12:42:08Z</time>
      </trkpt>
      <trkpt lat="48.64296" lon="1.86227">
        <ele>171.6</ele>
        <time>2026-03-29T12:42:09Z</time>
      </trkpt>
      <trkpt lat="48.64298" lon="1.86234">
        <ele>172.2</ele>
        <time>2026-03-29T12:42:10Z</time>
      </trkpt>
      <trkpt lat="48.643" lon="1.8624">
        <ele>172.2</ele>
        <time>2026-03-29T12:42:11Z</time>
      </trkpt>
      <trkpt lat="48.64303" lon="1.86245">
        <ele>172.2</ele>
        <time>2026-03-29T12:42:12Z</time>
      </trkpt>
      <trkpt lat="48.64305" lon="1.8625">
        <ele>171.2</ele>
        <time>2026-03-29T12:42:13Z</time>
      </trkpt>
      <trkpt lat="48.64307" lon="1.86255">
        <ele>171.6</ele>
        <time>2026-03-29T12:42:14Z</time>
      </trkpt>
      <trkpt lat="48.6431" lon="1.8626">
        <ele>171.6</ele>
        <time>2026-03-29T12:42:15Z</time>
      </trkpt>
      <trkpt lat="48.64312" lon="1.86265">
        <ele>171.6</ele>
        <time>2026-03-29T12:42:16Z</time>
      </trkpt>
      <trkpt lat="48.64314" lon="1.86269">
        <ele>171.2</ele>
        <time>2026-03-29T12:42:17Z</time>
      </trkpt>
      <trkpt lat="48.64316" lon="1.86275">
        <ele>171.2</ele>
        <time>2026-03-29T12:42:18Z</time>
      </trkpt>
      <trkpt lat="48.64317" lon="1.8628">
        <ele>171.2</ele>
        <time>2026-03-29T12:42:19Z</time>
      </trkpt>
      <trkpt lat="48.64318" lon="1.86285">
        <ele>171.2</ele>
        <time>2026-03-29T12:42:20Z</time>
      </trkpt>
      <trkpt lat="48.64319" lon="1.8629">
        <ele>171.2</ele>
        <time>2026-03-29T12:42:21Z</time>
      </trkpt>
      <trkpt lat="48.6432" lon="1.86296">
        <ele>171.8</ele>
        <time>2026-03-29T12:42:22Z</time>
      </trkpt>
      <trkpt lat="48.64321" lon="1.86301">
        <ele>171.8</ele>
        <time>2026-03-29T12:42:23Z</time>
      </trkpt>
      <trkpt lat="48.64323" lon="1.86306">
        <ele>171.8</ele>
        <time>2026-03-29T12:42:24Z</time>
      </trkpt>
      <trkpt lat="48.64325" lon="1.86312">
        <ele>171.8</ele>
        <time>2026-03-29T12:42:25Z</time>
      </trkpt>
      <trkpt lat="48.64329" lon="1.86318">
        <ele>172.2</ele>
        <time>2026-03-29T12:42:26Z</time>
      </trkpt>
      <trkpt lat="48.64331" lon="1.86325">
        <ele>172.2</ele>
        <time>2026-03-29T12:42:27Z</time>
      </trkpt>
      <trkpt lat="48.64335" lon="1.86332">
        <ele>172.2</ele>
        <time>2026-03-29T12:42:28Z</time>
      </trkpt>
      <trkpt lat="48.64338" lon="1.86338">
        <ele>171.6</ele>
        <time>2026-03-29T12:42:29Z</time>
      </trkpt>
      <trkpt lat="48.64341" lon="1.86344">
        <ele>171.6</ele>
        <time>2026-03-29T12:42:30Z</time>
      </trkpt>
      <trkpt lat="48.64344" lon="1.86349">
        <ele>171.6</ele>
        <time>2026-03-29T12:42:31Z</time>
      </trkpt>
      <trkpt lat="48.64346" lon="1.86355">
        <ele>171.6</ele>
        <time>2026-03-29T12:42:32Z</time>
      </trkpt>
      <trkpt lat="48.64348" lon="1.86361">
        <ele>171.2</ele>
        <time>2026-03-29T12:42:33Z</time>
      </trkpt>
      <trkpt lat="48.6435" lon="1.86368">
        <ele>171.6</ele>
        <time>2026-03-29T12:42:34Z</time>
      </trkpt>
      <trkpt lat="48.64352" lon="1.86374">
        <ele>171.6</ele>
        <time>2026-03-29T12:42:35Z</time>
      </trkpt>
      <trkpt lat="48.64354" lon="1.86381">
        <ele>171.6</ele>
        <time>2026-03-29T12:42:36Z</time>
      </trkpt>
      <trkpt lat="48.64357" lon="1.86387">
        <ele>171.6</ele>
        <time>2026-03-29T12:42:37Z</time>
      </trkpt>
      <trkpt lat="48.64359" lon="1.86394">
        <ele>171.6</ele>
        <time>2026-03-29T12:42:38Z</time>
      </trkpt>
      <trkpt lat="48.64361" lon="1.86399">
        <ele>171.6</ele>
        <time>2026-03-29T12:42:39Z</time>
      </trkpt>
      <trkpt lat="48.64362" lon="1.86406">
        <ele>171.6</ele>
        <time>2026-03-29T12:42:40Z</time>
      </trkpt>
      <trkpt lat="48.64364" lon="1.86413">
        <ele>171.6</ele>
        <time>2026-03-29T12:42:41Z</time>
      </trkpt>
      <trkpt lat="48.64365" lon="1.86421">
        <ele>171.8</ele>
        <time>2026-03-29T12:42:42Z</time>
      </trkpt>
      <trkpt lat="48.64366" lon="1.86428">
        <ele>171.8</ele>
        <time>2026-03-29T12:42:43Z</time>
      </trkpt>
      <trkpt lat="48.64367" lon="1.86434">
        <ele>171.8</ele>
        <time>2026-03-29T12:42:44Z</time>
      </trkpt>
      <trkpt lat="48.64368" lon="1.86441">
        <ele>171.8</ele>
        <time>2026-03-29T12:42:45Z</time>
      </trkpt>
      <trkpt lat="48.64369" lon="1.86448">
        <ele>171.6</ele>
        <time>2026-03-29T12:42:46Z</time>
      </trkpt>
      <trkpt lat="48.6437" lon="1.86456">
        <ele>171.6</ele>
        <time>2026-03-29T12:42:47Z</time>
      </trkpt>
      <trkpt lat="48.64372" lon="1.86463">
        <ele>171.6</ele>
        <time>2026-03-29T12:42:48Z</time>
      </trkpt>
      <trkpt lat="48.64373" lon="1.86468">
        <ele>171.6</ele>
        <time>2026-03-29T12:42:49Z</time>
      </trkpt>
      <trkpt lat="48.64375" lon="1.86475">
        <ele>171.6</ele>
        <time>2026-03-29T12:42:50Z</time>
      </trkpt>
      <trkpt lat="48.64376" lon="1.86481">
        <ele>171.6</ele>
        <time>2026-03-29T12:42:51Z</time>
      </trkpt>
      <trkpt lat="48.64378" lon="1.86488">
        <ele>171.6</ele>
        <time>2026-03-29T12:42:52Z</time>
      </trkpt>
      <trkpt lat="48.6438" lon="1.86495">
        <ele>171.6</ele>
        <time>2026-03-29T12:42:53Z</time>
      </trkpt>
      <trkpt lat="48.64382" lon="1.865">
        <ele>172.2</ele>
        <time>2026-03-29T12:42:54Z</time>
      </trkpt>
      <trkpt lat="48.64384" lon="1.86505">
        <ele>172.2</ele>
        <time>2026-03-29T12:42:55Z</time>
      </trkpt>
      <trkpt lat="48.64387" lon="1.8651">
        <ele>172.2</ele>
        <time>2026-03-29T12:42:56Z</time>
      </trkpt>
      <trkpt lat="48.6439" lon="1.86514">
        <ele>172.2</ele>
        <time>2026-03-29T12:42:57Z</time>
      </trkpt>
      <trkpt lat="48.64391" lon="1.86515">
        <ele>171.8</ele>
        <time>2026-03-29T12:42:58Z</time>
      </trkpt>
      <trkpt lat="48.64392" lon="1.86516">
        <ele>171.8</ele>
        <time>2026-03-29T12:42:59Z</time>
      </trkpt>
      <trkpt lat="48.64394" lon="1.86518">
        <ele>171.8</ele>
        <time>2026-03-29T12:43:00Z</time>
      </trkpt>
      <trkpt lat="48.64397" lon="1.86519">
        <ele>171.8</ele>
        <time>2026-03-29T12:43:01Z</time>
      </trkpt>
      <trkpt lat="48.64399" lon="1.8652">
        <ele>171.4</ele>
        <time>2026-03-29T12:43:02Z</time>
      </trkpt>
      <trkpt lat="48.64403" lon="1.86522">
        <ele>171.4</ele>
        <time>2026-03-29T12:43:03Z</time>
      </trkpt>
      <trkpt lat="48.64406" lon="1.86524">
        <ele>171.4</ele>
        <time>2026-03-29T12:43:04Z</time>
      </trkpt>
      <trkpt lat="48.64409" lon="1.86526">
        <ele>171.4</ele>
        <time>2026-03-29T12:43:05Z</time>
      </trkpt>
      <trkpt lat="48.64412" lon="1.86526">
        <ele>171.6</ele>
        <time>2026-03-29T12:43:06Z</time>
      </trkpt>
      <trkpt lat="48.64415" lon="1.86527">
        <ele>171.6</ele>
        <time>2026-03-29T12:43:07Z</time>
      </trkpt>
      <trkpt lat="48.64418" lon="1.86527">
        <ele>171.6</ele>
        <time>2026-03-29T12:43:08Z</time>
      </trkpt>
      <trkpt lat="48.64422" lon="1.86528">
        <ele>171.6</ele>
        <time>2026-03-29T12:43:09Z</time>
      </trkpt>
      <trkpt lat="48.64426" lon="1.86527">
        <ele>171.6</ele>
        <time>2026-03-29T12:43:10Z</time>
      </trkpt>
      <trkpt lat="48.6443" lon="1.86527">
        <ele>171.6</ele>
        <time>2026-03-29T12:43:11Z</time>
      </trkpt>
      <trkpt lat="48.64435" lon="1.86528">
        <ele>171.6</ele>
        <time>2026-03-29T12:43:12Z</time>
      </trkpt>
      <trkpt lat="48.64439" lon="1.86529">
        <ele>172.4</ele>
        <time>2026-03-29T12:43:13Z</time>
      </trkpt>
      <trkpt lat="48.64442" lon="1.8653">
        <ele>172.2</ele>
        <time>2026-03-29T12:43:14Z</time>
      </trkpt>
      <trkpt lat="48.64447" lon="1.86531">
        <ele>172.2</ele>
        <time>2026-03-29T12:43:15Z</time>
      </trkpt>
      <trkpt lat="48.64451" lon="1.86531">
        <ele>172.2</ele>
        <time>2026-03-29T12:43:16Z</time>
      </trkpt>
      <trkpt lat="48.64455" lon="1.86532">
        <ele>172.2</ele>
        <time>2026-03-29T12:43:17Z</time>
      </trkpt>
      <trkpt lat="48.64459" lon="1.86533">
        <ele>172.2</ele>
        <time>2026-03-29T12:43:18Z</time>
      </trkpt>
      <trkpt lat="48.64463" lon="1.86533">
        <ele>172.2</ele>
        <time>2026-03-29T12:43:19Z</time>
      </trkpt>
      <trkpt lat="48.64467" lon="1.86533">
        <ele>172.2</ele>
        <time>2026-03-29T12:43:20Z</time>
      </trkpt>
      <trkpt lat="48.64471" lon="1.86534">
        <ele>172.2</ele>
        <time>2026-03-29T12:43:21Z</time>
      </trkpt>
      <trkpt lat="48.64475" lon="1.86534">
        <ele>172</ele>
        <time>2026-03-29T12:43:22Z</time>
      </trkpt>
      <trkpt lat="48.6448" lon="1.86534">
        <ele>172</ele>
        <time>2026-03-29T12:43:23Z</time>
      </trkpt>
      <trkpt lat="48.64483" lon="1.86536">
        <ele>172</ele>
        <time>2026-03-29T12:43:24Z</time>
      </trkpt>
      <trkpt lat="48.64487" lon="1.86537">
        <ele>172</ele>
        <time>2026-03-29T12:43:25Z</time>
      </trkpt>
      <trkpt lat="48.64491" lon="1.86538">
        <ele>172.2</ele>
        <time>2026-03-29T12:43:26Z</time>
      </trkpt>
      <trkpt lat="48.64495" lon="1.86538">
        <ele>172.2</ele>
        <time>2026-03-29T12:43:27Z</time>
      </trkpt>
      <trkpt lat="48.64498" lon="1.86538">
        <ele>172.2</ele>
        <time>2026-03-29T12:43:28Z</time>
      </trkpt>
      <trkpt lat="48.64502" lon="1.86539">
        <ele>172.2</ele>
        <time>2026-03-29T12:43:29Z</time>
      </trkpt>
      <trkpt lat="48.64504" lon="1.8654">
        <ele>172.2</ele>
        <time>2026-03-29T12:43:30Z</time>
      </trkpt>
      <trkpt lat="48.64507" lon="1.86542">
        <ele>172.2</ele>
        <time>2026-03-29T12:43:31Z</time>
      </trkpt>
      <trkpt lat="48.64512" lon="1.86544">
        <ele>172.2</ele>
        <time>2026-03-29T12:43:32Z</time>
      </trkpt>
      <trkpt lat="48.64515" lon="1.86546">
        <ele>172.2</ele>
        <time>2026-03-29T12:43:33Z</time>
      </trkpt>
      <trkpt lat="48.64519" lon="1.86549">
        <ele>172.4</ele>
        <time>2026-03-29T12:43:34Z</time>
      </trkpt>
      <trkpt lat="48.64522" lon="1.8655">
        <ele>172.4</ele>
        <time>2026-03-29T12:43:35Z</time>
      </trkpt>
      <trkpt lat="48.64524" lon="1.86553">
        <ele>172.4</ele>
        <time>2026-03-29T12:43:36Z</time>
      </trkpt>
      <trkpt lat="48.64527" lon="1.86555">
        <ele>171.8</ele>
        <time>2026-03-29T12:43:37Z</time>
      </trkpt>
      <trkpt lat="48.64531" lon="1.86556">
        <ele>172.2</ele>
        <time>2026-03-29T12:43:38Z</time>
      </trkpt>
      <trkpt lat="48.64535" lon="1.86558">
        <ele>172.2</ele>
        <time>2026-03-29T12:43:39Z</time>
      </trkpt>
      <trkpt lat="48.64538" lon="1.86561">
        <ele>172.2</ele>
        <time>2026-03-29T12:43:40Z</time>
      </trkpt>
      <trkpt lat="48.64541" lon="1.86564">
        <ele>172.2</ele>
        <time>2026-03-29T12:43:41Z</time>
      </trkpt>
      <trkpt lat="48.64544" lon="1.86569">
        <ele>172.4</ele>
        <time>2026-03-29T12:43:42Z</time>
      </trkpt>
      <trkpt lat="48.64547" lon="1.86573">
        <ele>172.4</ele>
        <time>2026-03-29T12:43:43Z</time>
      </trkpt>
      <trkpt lat="48.64551" lon="1.86577">
        <ele>172.4</ele>
        <time>2026-03-29T12:43:44Z</time>
      </trkpt>
      <trkpt lat="48.64554" lon="1.86582">
        <ele>172.4</ele>
        <time>2026-03-29T12:43:45Z</time>
      </trkpt>
      <trkpt lat="48.64557" lon="1.86587">
        <ele>172.4</ele>
        <time>2026-03-29T12:43:46Z</time>
      </trkpt>
      <trkpt lat="48.6456" lon="1.8659">
        <ele>172.4</ele>
        <time>2026-03-29T12:43:47Z</time>
      </trkpt>
      <trkpt lat="48.64562" lon="1.86595">
        <ele>172.4</ele>
        <time>2026-03-29T12:43:48Z</time>
      </trkpt>
      <trkpt lat="48.64566" lon="1.86597">
        <ele>172.4</ele>
        <time>2026-03-29T12:43:49Z</time>
      </trkpt>
      <trkpt lat="48.64569" lon="1.86602">
        <ele>172.6</ele>
        <time>2026-03-29T12:43:50Z</time>
      </trkpt>
      <trkpt lat="48.64572" lon="1.86608">
        <ele>172.6</ele>
        <time>2026-03-29T12:43:51Z</time>
      </trkpt>
      <trkpt lat="48.64575" lon="1.86615">
        <ele>172.6</ele>
        <time>2026-03-29T12:43:52Z</time>
      </trkpt>
      <trkpt lat="48.64577" lon="1.8662">
        <ele>172.6</ele>
        <time>2026-03-29T12:43:53Z</time>
      </trkpt>
      <trkpt lat="48.6458" lon="1.86626">
        <ele>172.4</ele>
        <time>2026-03-29T12:43:54Z</time>
      </trkpt>
      <trkpt lat="48.6458" lon="1.86631">
        <ele>172.4</ele>
        <time>2026-03-29T12:43:55Z</time>
      </trkpt>
      <trkpt lat="48.64583" lon="1.86638">
        <ele>172.4</ele>
        <time>2026-03-29T12:43:56Z</time>
      </trkpt>
      <trkpt lat="48.64585" lon="1.86644">
        <ele>172.4</ele>
        <time>2026-03-29T12:43:57Z</time>
      </trkpt>
      <trkpt lat="48.64588" lon="1.86651">
        <ele>172.8</ele>
        <time>2026-03-29T12:43:58Z</time>
      </trkpt>
      <trkpt lat="48.64591" lon="1.86657">
        <ele>172.8</ele>
        <time>2026-03-29T12:43:59Z</time>
      </trkpt>
      <trkpt lat="48.64594" lon="1.86663">
        <ele>172.8</ele>
        <time>2026-03-29T12:44:00Z</time>
      </trkpt>
      <trkpt lat="48.64597" lon="1.86669">
        <ele>173</ele>
        <time>2026-03-29T12:44:01Z</time>
      </trkpt>
      <trkpt lat="48.64599" lon="1.86676">
        <ele>172.6</ele>
        <time>2026-03-29T12:44:02Z</time>
      </trkpt>
      <trkpt lat="48.64601" lon="1.86682">
        <ele>172.6</ele>
        <time>2026-03-29T12:44:03Z</time>
      </trkpt>
      <trkpt lat="48.64604" lon="1.86688">
        <ele>172.6</ele>
        <time>2026-03-29T12:44:04Z</time>
      </trkpt>
      <trkpt lat="48.64609" lon="1.86692">
        <ele>172.6</ele>
        <time>2026-03-29T12:44:05Z</time>
      </trkpt>
      <trkpt lat="48.64612" lon="1.86697">
        <ele>172.4</ele>
        <time>2026-03-29T12:44:06Z</time>
      </trkpt>
      <trkpt lat="48.64616" lon="1.867">
        <ele>172.4</ele>
        <time>2026-03-29T12:44:07Z</time>
      </trkpt>
      <trkpt lat="48.64621" lon="1.86703">
        <ele>172.4</ele>
        <time>2026-03-29T12:44:08Z</time>
      </trkpt>
      <trkpt lat="48.64624" lon="1.86706">
        <ele>173.4</ele>
        <time>2026-03-29T12:44:09Z</time>
      </trkpt>
      <trkpt lat="48.64628" lon="1.8671">
        <ele>173.8</ele>
        <time>2026-03-29T12:44:10Z</time>
      </trkpt>
      <trkpt lat="48.6463" lon="1.86713">
        <ele>173.8</ele>
        <time>2026-03-29T12:44:11Z</time>
      </trkpt>
      <trkpt lat="48.64633" lon="1.86718">
        <ele>173.8</ele>
        <time>2026-03-29T12:44:12Z</time>
      </trkpt>
      <trkpt lat="48.64635" lon="1.86722">
        <ele>173.2</ele>
        <time>2026-03-29T12:44:13Z</time>
      </trkpt>
      <trkpt lat="48.6464" lon="1.86728">
        <ele>173.4</ele>
        <time>2026-03-29T12:44:14Z</time>
      </trkpt>
      <trkpt lat="48.64643" lon="1.86731">
        <ele>173.4</ele>
        <time>2026-03-29T12:44:15Z</time>
      </trkpt>
      <trkpt lat="48.64647" lon="1.86737">
        <ele>173.4</ele>
        <time>2026-03-29T12:44:16Z</time>
      </trkpt>
      <trkpt lat="48.6465" lon="1.86741">
        <ele>173.4</ele>
        <time>2026-03-29T12:44:17Z</time>
      </trkpt>
      <trkpt lat="48.64652" lon="1.86746">
        <ele>172.6</ele>
        <time>2026-03-29T12:44:18Z</time>
      </trkpt>
      <trkpt lat="48.64657" lon="1.8675">
        <ele>172.6</ele>
        <time>2026-03-29T12:44:19Z</time>
      </trkpt>
      <trkpt lat="48.6466" lon="1.86754">
        <ele>172.6</ele>
        <time>2026-03-29T12:44:20Z</time>
      </trkpt>
      <trkpt lat="48.64664" lon="1.86759">
        <ele>172.4</ele>
        <time>2026-03-29T12:44:21Z</time>
      </trkpt>
      <trkpt lat="48.64668" lon="1.86765">
        <ele>172.4</ele>
        <time>2026-03-29T12:44:22Z</time>
      </trkpt>
      <trkpt lat="48.64672" lon="1.8677">
        <ele>172.4</ele>
        <time>2026-03-29T12:44:23Z</time>
      </trkpt>
      <trkpt lat="48.64676" lon="1.86774">
        <ele>172.4</ele>
        <time>2026-03-29T12:44:24Z</time>
      </trkpt>
      <trkpt lat="48.64679" lon="1.86777">
        <ele>173</ele>
        <time>2026-03-29T12:44:25Z</time>
      </trkpt>
      <trkpt lat="48.64683" lon="1.8678">
        <ele>173</ele>
        <time>2026-03-29T12:44:26Z</time>
      </trkpt>
      <trkpt lat="48.64686" lon="1.86782">
        <ele>173</ele>
        <time>2026-03-29T12:44:27Z</time>
      </trkpt>
      <trkpt lat="48.6469" lon="1.86786">
        <ele>173</ele>
        <time>2026-03-29T12:44:28Z</time>
      </trkpt>
      <trkpt lat="48.64693" lon="1.86789">
        <ele>173.2</ele>
        <time>2026-03-29T12:44:29Z</time>
      </trkpt>
      <trkpt lat="48.64697" lon="1.86794">
        <ele>173</ele>
        <time>2026-03-29T12:44:30Z</time>
      </trkpt>
      <trkpt lat="48.647" lon="1.86798">
        <ele>173</ele>
        <time>2026-03-29T12:44:31Z</time>
      </trkpt>
      <trkpt lat="48.64704" lon="1.86801">
        <ele>173</ele>
        <time>2026-03-29T12:44:32Z</time>
      </trkpt>
      <trkpt lat="48.64707" lon="1.86804">
        <ele>173</ele>
        <time>2026-03-29T12:44:33Z</time>
      </trkpt>
      <trkpt lat="48.64711" lon="1.86808">
        <ele>173</ele>
        <time>2026-03-29T12:44:34Z</time>
      </trkpt>
      <trkpt lat="48.64715" lon="1.86811">
        <ele>173</ele>
        <time>2026-03-29T12:44:35Z</time>
      </trkpt>
      <trkpt lat="48.64717" lon="1.86815">
        <ele>173</ele>
        <time>2026-03-29T12:44:36Z</time>
      </trkpt>
      <trkpt lat="48.64722" lon="1.86819">
        <ele>173</ele>
        <time>2026-03-29T12:44:37Z</time>
      </trkpt>
      <trkpt lat="48.64725" lon="1.86822">
        <ele>173.2</ele>
        <time>2026-03-29T12:44:38Z</time>
      </trkpt>
      <trkpt lat="48.64729" lon="1.86825">
        <ele>173.2</ele>
        <time>2026-03-29T12:44:39Z</time>
      </trkpt>
      <trkpt lat="48.64732" lon="1.86828">
        <ele>173.2</ele>
        <time>2026-03-29T12:44:40Z</time>
      </trkpt>
      <trkpt lat="48.64734" lon="1.86831">
        <ele>173.2</ele>
        <time>2026-03-29T12:44:41Z</time>
      </trkpt>
      <trkpt lat="48.64737" lon="1.86834">
        <ele>173.2</ele>
        <time>2026-03-29T12:44:42Z</time>
      </trkpt>
      <trkpt lat="48.6474" lon="1.86837">
        <ele>173.2</ele>
        <time>2026-03-29T12:44:43Z</time>
      </trkpt>
      <trkpt lat="48.64743" lon="1.8684">
        <ele>173.2</ele>
        <time>2026-03-29T12:44:44Z</time>
      </trkpt>
      <trkpt lat="48.64747" lon="1.86844">
        <ele>173.2</ele>
        <time>2026-03-29T12:44:45Z</time>
      </trkpt>
      <trkpt lat="48.64751" lon="1.86847">
        <ele>173.2</ele>
        <time>2026-03-29T12:44:46Z</time>
      </trkpt>
      <trkpt lat="48.64754" lon="1.86851">
        <ele>173.2</ele>
        <time>2026-03-29T12:44:47Z</time>
      </trkpt>
      <trkpt lat="48.64757" lon="1.86855">
        <ele>173.2</ele>
        <time>2026-03-29T12:44:48Z</time>
      </trkpt>
      <trkpt lat="48.64759" lon="1.8686">
        <ele>173.2</ele>
        <time>2026-03-29T12:44:49Z</time>
      </trkpt>
      <trkpt lat="48.6476" lon="1.86864">
        <ele>173.4</ele>
        <time>2026-03-29T12:44:50Z</time>
      </trkpt>
      <trkpt lat="48.64762" lon="1.86868">
        <ele>173.4</ele>
        <time>2026-03-29T12:44:51Z</time>
      </trkpt>
      <trkpt lat="48.64762" lon="1.86872">
        <ele>173.4</ele>
        <time>2026-03-29T12:44:52Z</time>
      </trkpt>
      <trkpt lat="48.64763" lon="1.86877">
        <ele>173.4</ele>
        <time>2026-03-29T12:44:53Z</time>
      </trkpt>
      <trkpt lat="48.64763" lon="1.86881">
        <ele>173.4</ele>
        <time>2026-03-29T12:44:54Z</time>
      </trkpt>
      <trkpt lat="48.64764" lon="1.86885">
        <ele>173.4</ele>
        <time>2026-03-29T12:44:55Z</time>
      </trkpt>
      <trkpt lat="48.64764" lon="1.86888">
        <ele>173.4</ele>
        <time>2026-03-29T12:44:56Z</time>
      </trkpt>
      <trkpt lat="48.64765" lon="1.86891">
        <ele>174.2</ele>
        <time>2026-03-29T12:44:57Z</time>
      </trkpt>
      <trkpt lat="48.64765" lon="1.86894">
        <ele>174.6</ele>
        <time>2026-03-29T12:44:58Z</time>
      </trkpt>
      <trkpt lat="48.64766" lon="1.86897">
        <ele>174.6</ele>
        <time>2026-03-29T12:44:59Z</time>
      </trkpt>
      <trkpt lat="48.64766" lon="1.86899">
        <ele>174.6</ele>
        <time>2026-03-29T12:45:00Z</time>
      </trkpt>
      <trkpt lat="48.64766" lon="1.86902">
        <ele>174.6</ele>
        <time>2026-03-29T12:45:01Z</time>
      </trkpt>
      <trkpt lat="48.64767" lon="1.86905">
        <ele>175.4</ele>
        <time>2026-03-29T12:45:02Z</time>
      </trkpt>
      <trkpt lat="48.64767" lon="1.86908">
        <ele>175.4</ele>
        <time>2026-03-29T12:45:03Z</time>
      </trkpt>
      <trkpt lat="48.64767" lon="1.86909">
        <ele>175.4</ele>
        <time>2026-03-29T12:45:04Z</time>
      </trkpt>
      <trkpt lat="48.64767" lon="1.86912">
        <ele>175.8</ele>
        <time>2026-03-29T12:45:05Z</time>
      </trkpt>
      <trkpt lat="48.64768" lon="1.86914">
        <ele>176.8</ele>
        <time>2026-03-29T12:45:06Z</time>
      </trkpt>
      <trkpt lat="48.64768" lon="1.86918">
        <ele>176.8</ele>
        <time>2026-03-29T12:45:07Z</time>
      </trkpt>
      <trkpt lat="48.64769" lon="1.86921">
        <ele>176.8</ele>
        <time>2026-03-29T12:45:08Z</time>
      </trkpt>
      <trkpt lat="48.64769" lon="1.86924">
        <ele>177.8</ele>
        <time>2026-03-29T12:45:09Z</time>
      </trkpt>
      <trkpt lat="48.64769" lon="1.86926">
        <ele>177.6</ele>
        <time>2026-03-29T12:45:10Z</time>
      </trkpt>
      <trkpt lat="48.64768" lon="1.86929">
        <ele>177.6</ele>
        <time>2026-03-29T12:45:11Z</time>
      </trkpt>
      <trkpt lat="48.64768" lon="1.86931">
        <ele>177.6</ele>
        <time>2026-03-29T12:45:12Z</time>
      </trkpt>
      <trkpt lat="48.64768" lon="1.86933">
        <ele>177.6</ele>
        <time>2026-03-29T12:45:13Z</time>
      </trkpt>
      <trkpt lat="48.64767" lon="1.86937">
        <ele>179.2</ele>
        <time>2026-03-29T12:45:14Z</time>
      </trkpt>
      <trkpt lat="48.64766" lon="1.86939">
        <ele>179.2</ele>
        <time>2026-03-29T12:45:15Z</time>
      </trkpt>
      <trkpt lat="48.64766" lon="1.86942">
        <ele>179.2</ele>
        <time>2026-03-29T12:45:16Z</time>
      </trkpt>
      <trkpt lat="48.64765" lon="1.86943">
        <ele>179.2</ele>
        <time>2026-03-29T12:45:17Z</time>
      </trkpt>
      <trkpt lat="48.64765" lon="1.86946">
        <ele>179.8</ele>
        <time>2026-03-29T12:45:18Z</time>
      </trkpt>
      <trkpt lat="48.64765" lon="1.86949">
        <ele>179.8</ele>
        <time>2026-03-29T12:45:19Z</time>
      </trkpt>
      <trkpt lat="48.64764" lon="1.86952">
        <ele>179.8</ele>
        <time>2026-03-29T12:45:20Z</time>
      </trkpt>
      <trkpt lat="48.64763" lon="1.86956">
        <ele>180.2</ele>
        <time>2026-03-29T12:45:21Z</time>
      </trkpt>
      <trkpt lat="48.64763" lon="1.86958">
        <ele>180.6</ele>
        <time>2026-03-29T12:45:22Z</time>
      </trkpt>
      <trkpt lat="48.64763" lon="1.86961">
        <ele>180.6</ele>
        <time>2026-03-29T12:45:23Z</time>
      </trkpt>
      <trkpt lat="48.64762" lon="1.86963">
        <ele>180.6</ele>
        <time>2026-03-29T12:45:24Z</time>
      </trkpt>
      <trkpt lat="48.64761" lon="1.86966">
        <ele>180.6</ele>
        <time>2026-03-29T12:45:25Z</time>
      </trkpt>
      <trkpt lat="48.6476" lon="1.86971">
        <ele>180.6</ele>
        <time>2026-03-29T12:45:26Z</time>
      </trkpt>
      <trkpt lat="48.6476" lon="1.86974">
        <ele>180.6</ele>
        <time>2026-03-29T12:45:27Z</time>
      </trkpt>
      <trkpt lat="48.64759" lon="1.86978">
        <ele>180.6</ele>
        <time>2026-03-29T12:45:28Z</time>
      </trkpt>
      <trkpt lat="48.64758" lon="1.86981">
        <ele>180.6</ele>
        <time>2026-03-29T12:45:29Z</time>
      </trkpt>
      <trkpt lat="48.64756" lon="1.86983">
        <ele>180.6</ele>
        <time>2026-03-29T12:45:30Z</time>
      </trkpt>
      <trkpt lat="48.64755" lon="1.86986">
        <ele>180.6</ele>
        <time>2026-03-29T12:45:31Z</time>
      </trkpt>
      <trkpt lat="48.64753" lon="1.8699">
        <ele>180.6</ele>
        <time>2026-03-29T12:45:32Z</time>
      </trkpt>
      <trkpt lat="48.64752" lon="1.86993">
        <ele>181.2</ele>
        <time>2026-03-29T12:45:33Z</time>
      </trkpt>
      <trkpt lat="48.64751" lon="1.86997">
        <ele>181.2</ele>
        <time>2026-03-29T12:45:34Z</time>
      </trkpt>
      <trkpt lat="48.6475" lon="1.87002">
        <ele>181.2</ele>
        <time>2026-03-29T12:45:35Z</time>
      </trkpt>
      <trkpt lat="48.64748" lon="1.87006">
        <ele>181.2</ele>
        <time>2026-03-29T12:45:36Z</time>
      </trkpt>
      <trkpt lat="48.64747" lon="1.8701">
        <ele>181.2</ele>
        <time>2026-03-29T12:45:37Z</time>
      </trkpt>
      <trkpt lat="48.64746" lon="1.87014">
        <ele>181.2</ele>
        <time>2026-03-29T12:45:38Z</time>
      </trkpt>
      <trkpt lat="48.64744" lon="1.87018">
        <ele>181.2</ele>
        <time>2026-03-29T12:45:39Z</time>
      </trkpt>
      <trkpt lat="48.64743" lon="1.87022">
        <ele>181.2</ele>
        <time>2026-03-29T12:45:40Z</time>
      </trkpt>
      <trkpt lat="48.64742" lon="1.87027">
        <ele>181.2</ele>
        <time>2026-03-29T12:45:41Z</time>
      </trkpt>
      <trkpt lat="48.6474" lon="1.8703">
        <ele>181.2</ele>
        <time>2026-03-29T12:45:42Z</time>
      </trkpt>
      <trkpt lat="48.64739" lon="1.87035">
        <ele>181.2</ele>
        <time>2026-03-29T12:45:43Z</time>
      </trkpt>
      <trkpt lat="48.64738" lon="1.87039">
        <ele>181.2</ele>
        <time>2026-03-29T12:45:44Z</time>
      </trkpt>
      <trkpt lat="48.64736" lon="1.87044">
        <ele>181.2</ele>
        <time>2026-03-29T12:45:45Z</time>
      </trkpt>
      <trkpt lat="48.64734" lon="1.87049">
        <ele>181.4</ele>
        <time>2026-03-29T12:45:46Z</time>
      </trkpt>
      <trkpt lat="48.64732" lon="1.87053">
        <ele>181.4</ele>
        <time>2026-03-29T12:45:47Z</time>
      </trkpt>
      <trkpt lat="48.6473" lon="1.87057">
        <ele>181.4</ele>
        <time>2026-03-29T12:45:48Z</time>
      </trkpt>
      <trkpt lat="48.64729" lon="1.87063">
        <ele>181.4</ele>
        <time>2026-03-29T12:45:49Z</time>
      </trkpt>
      <trkpt lat="48.64728" lon="1.87069">
        <ele>181.8</ele>
        <time>2026-03-29T12:45:50Z</time>
      </trkpt>
      <trkpt lat="48.64726" lon="1.87073">
        <ele>181.8</ele>
        <time>2026-03-29T12:45:51Z</time>
      </trkpt>
      <trkpt lat="48.64724" lon="1.87079">
        <ele>181.8</ele>
        <time>2026-03-29T12:45:52Z</time>
      </trkpt>
      <trkpt lat="48.64722" lon="1.87083">
        <ele>181.8</ele>
        <time>2026-03-29T12:45:53Z</time>
      </trkpt>
      <trkpt lat="48.64719" lon="1.87088">
        <ele>181.8</ele>
        <time>2026-03-29T12:45:54Z</time>
      </trkpt>
      <trkpt lat="48.64717" lon="1.87094">
        <ele>181.8</ele>
        <time>2026-03-29T12:45:55Z</time>
      </trkpt>
      <trkpt lat="48.64715" lon="1.87099">
        <ele>181.8</ele>
        <time>2026-03-29T12:45:56Z</time>
      </trkpt>
      <trkpt lat="48.64713" lon="1.87105">
        <ele>181.8</ele>
        <time>2026-03-29T12:45:57Z</time>
      </trkpt>
      <trkpt lat="48.64711" lon="1.8711">
        <ele>182.6</ele>
        <time>2026-03-29T12:45:58Z</time>
      </trkpt>
      <trkpt lat="48.64709" lon="1.87115">
        <ele>182.6</ele>
        <time>2026-03-29T12:45:59Z</time>
      </trkpt>
      <trkpt lat="48.64707" lon="1.8712">
        <ele>182.6</ele>
        <time>2026-03-29T12:46:00Z</time>
      </trkpt>
      <trkpt lat="48.64706" lon="1.87126">
        <ele>182.6</ele>
        <time>2026-03-29T12:46:01Z</time>
      </trkpt>
      <trkpt lat="48.64705" lon="1.87131">
        <ele>182.6</ele>
        <time>2026-03-29T12:46:02Z</time>
      </trkpt>
      <trkpt lat="48.64702" lon="1.87137">
        <ele>182.6</ele>
        <time>2026-03-29T12:46:03Z</time>
      </trkpt>
      <trkpt lat="48.647" lon="1.87142">
        <ele>182.6</ele>
        <time>2026-03-29T12:46:04Z</time>
      </trkpt>
      <trkpt lat="48.64699" lon="1.87148">
        <ele>182.6</ele>
        <time>2026-03-29T12:46:05Z</time>
      </trkpt>
      <trkpt lat="48.64697" lon="1.87154">
        <ele>182.2</ele>
        <time>2026-03-29T12:46:06Z</time>
      </trkpt>
      <trkpt lat="48.64695" lon="1.8716">
        <ele>182.2</ele>
        <time>2026-03-29T12:46:07Z</time>
      </trkpt>
      <trkpt lat="48.64693" lon="1.87165">
        <ele>182.2</ele>
        <time>2026-03-29T12:46:08Z</time>
      </trkpt>
      <trkpt lat="48.64691" lon="1.87171">
        <ele>182.2</ele>
        <time>2026-03-29T12:46:09Z</time>
      </trkpt>
      <trkpt lat="48.64689" lon="1.87178">
        <ele>182.8</ele>
        <time>2026-03-29T12:46:10Z</time>
      </trkpt>
      <trkpt lat="48.64688" lon="1.87184">
        <ele>182.8</ele>
        <time>2026-03-29T12:46:11Z</time>
      </trkpt>
      <trkpt lat="48.64686" lon="1.87189">
        <ele>182.8</ele>
        <time>2026-03-29T12:46:12Z</time>
      </trkpt>
      <trkpt lat="48.64684" lon="1.87194">
        <ele>182.8</ele>
        <time>2026-03-29T12:46:13Z</time>
      </trkpt>
      <trkpt lat="48.64681" lon="1.87199">
        <ele>183.2</ele>
        <time>2026-03-29T12:46:14Z</time>
      </trkpt>
      <trkpt lat="48.64679" lon="1.87204">
        <ele>183.2</ele>
        <time>2026-03-29T12:46:15Z</time>
      </trkpt>
      <trkpt lat="48.64677" lon="1.8721">
        <ele>183.2</ele>
        <time>2026-03-29T12:46:16Z</time>
      </trkpt>
      <trkpt lat="48.64675" lon="1.87216">
        <ele>183</ele>
        <time>2026-03-29T12:46:17Z</time>
      </trkpt>
      <trkpt lat="48.64672" lon="1.87221">
        <ele>183.6</ele>
        <time>2026-03-29T12:46:18Z</time>
      </trkpt>
      <trkpt lat="48.6467" lon="1.87227">
        <ele>183.6</ele>
        <time>2026-03-29T12:46:19Z</time>
      </trkpt>
      <trkpt lat="48.6467" lon="1.87233">
        <ele>183.6</ele>
        <time>2026-03-29T12:46:20Z</time>
      </trkpt>
      <trkpt lat="48.64672" lon="1.87241">
        <ele>183</ele>
        <time>2026-03-29T12:46:21Z</time>
      </trkpt>
      <trkpt lat="48.64675" lon="1.87247">
        <ele>183</ele>
        <time>2026-03-29T12:46:22Z</time>
      </trkpt>
      <trkpt lat="48.64679" lon="1.87253">
        <ele>183</ele>
        <time>2026-03-29T12:46:23Z</time>
      </trkpt>
      <trkpt lat="48.64683" lon="1.87259">
        <ele>183</ele>
        <time>2026-03-29T12:46:24Z</time>
      </trkpt>
      <trkpt lat="48.64687" lon="1.87265">
        <ele>183</ele>
        <time>2026-03-29T12:46:25Z</time>
      </trkpt>
      <trkpt lat="48.64691" lon="1.87271">
        <ele>183.8</ele>
        <time>2026-03-29T12:46:26Z</time>
      </trkpt>
      <trkpt lat="48.64695" lon="1.87276">
        <ele>183.8</ele>
        <time>2026-03-29T12:46:27Z</time>
      </trkpt>
      <trkpt lat="48.64699" lon="1.87282">
        <ele>183.8</ele>
        <time>2026-03-29T12:46:28Z</time>
      </trkpt>
      <trkpt lat="48.64703" lon="1.87288">
        <ele>182.8</ele>
        <time>2026-03-29T12:46:29Z</time>
      </trkpt>
      <trkpt lat="48.64706" lon="1.87294">
        <ele>183</ele>
        <time>2026-03-29T12:46:30Z</time>
      </trkpt>
      <trkpt lat="48.6471" lon="1.87299">
        <ele>183</ele>
        <time>2026-03-29T12:46:31Z</time>
      </trkpt>
      <trkpt lat="48.64714" lon="1.87304">
        <ele>183</ele>
        <time>2026-03-29T12:46:32Z</time>
      </trkpt>
      <trkpt lat="48.64718" lon="1.87308">
        <ele>183</ele>
        <time>2026-03-29T12:46:33Z</time>
      </trkpt>
      <trkpt lat="48.64721" lon="1.87314">
        <ele>183.6</ele>
        <time>2026-03-29T12:46:34Z</time>
      </trkpt>
      <trkpt lat="48.64725" lon="1.87318">
        <ele>183.6</ele>
        <time>2026-03-29T12:46:35Z</time>
      </trkpt>
      <trkpt lat="48.64729" lon="1.87322">
        <ele>183.6</ele>
        <time>2026-03-29T12:46:36Z</time>
      </trkpt>
      <trkpt lat="48.64732" lon="1.87326">
        <ele>183</ele>
        <time>2026-03-29T12:46:37Z</time>
      </trkpt>
      <trkpt lat="48.64735" lon="1.8733">
        <ele>183.6</ele>
        <time>2026-03-29T12:46:38Z</time>
      </trkpt>
      <trkpt lat="48.64739" lon="1.87334">
        <ele>183.6</ele>
        <time>2026-03-29T12:46:39Z</time>
      </trkpt>
      <trkpt lat="48.64742" lon="1.87339">
        <ele>183.6</ele>
        <time>2026-03-29T12:46:40Z</time>
      </trkpt>
      <trkpt lat="48.64746" lon="1.87343">
        <ele>182.8</ele>
        <time>2026-03-29T12:46:41Z</time>
      </trkpt>
      <trkpt lat="48.64749" lon="1.87347">
        <ele>182.4</ele>
        <time>2026-03-29T12:46:42Z</time>
      </trkpt>
      <trkpt lat="48.64752" lon="1.8735">
        <ele>182.4</ele>
        <time>2026-03-29T12:46:43Z</time>
      </trkpt>
      <trkpt lat="48.64756" lon="1.87353">
        <ele>182.4</ele>
        <time>2026-03-29T12:46:44Z</time>
      </trkpt>
      <trkpt lat="48.6476" lon="1.87356">
        <ele>182.6</ele>
        <time>2026-03-29T12:46:45Z</time>
      </trkpt>
      <trkpt lat="48.64764" lon="1.87359">
        <ele>183</ele>
        <time>2026-03-29T12:46:46Z</time>
      </trkpt>
      <trkpt lat="48.64767" lon="1.87362">
        <ele>183</ele>
        <time>2026-03-29T12:46:47Z</time>
      </trkpt>
      <trkpt lat="48.6477" lon="1.87367">
        <ele>183</ele>
        <time>2026-03-29T12:46:48Z</time>
      </trkpt>
      <trkpt lat="48.64773" lon="1.87371">
        <ele>183</ele>
        <time>2026-03-29T12:46:49Z</time>
      </trkpt>
      <trkpt lat="48.64776" lon="1.87375">
        <ele>183</ele>
        <time>2026-03-29T12:46:50Z</time>
      </trkpt>
      <trkpt lat="48.64779" lon="1.87378">
        <ele>183</ele>
        <time>2026-03-29T12:46:51Z</time>
      </trkpt>
      <trkpt lat="48.64783" lon="1.87382">
        <ele>183</ele>
        <time>2026-03-29T12:46:52Z</time>
      </trkpt>
      <trkpt lat="48.64786" lon="1.87386">
        <ele>183</ele>
        <time>2026-03-29T12:46:53Z</time>
      </trkpt>
      <trkpt lat="48.6479" lon="1.8739">
        <ele>183.4</ele>
        <time>2026-03-29T12:46:54Z</time>
      </trkpt>
      <trkpt lat="48.64793" lon="1.87394">
        <ele>183.4</ele>
        <time>2026-03-29T12:46:55Z</time>
      </trkpt>
      <trkpt lat="48.64796" lon="1.87398">
        <ele>183.4</ele>
        <time>2026-03-29T12:46:56Z</time>
      </trkpt>
      <trkpt lat="48.64799" lon="1.87402">
        <ele>182.6</ele>
        <time>2026-03-29T12:46:57Z</time>
      </trkpt>
      <trkpt lat="48.64802" lon="1.87407">
        <ele>183</ele>
        <time>2026-03-29T12:46:58Z</time>
      </trkpt>
      <trkpt lat="48.64805" lon="1.8741">
        <ele>183</ele>
        <time>2026-03-29T12:46:59Z</time>
      </trkpt>
      <trkpt lat="48.64809" lon="1.87414">
        <ele>183</ele>
        <time>2026-03-29T12:47:00Z</time>
      </trkpt>
      <trkpt lat="48.64812" lon="1.87418">
        <ele>183</ele>
        <time>2026-03-29T12:47:01Z</time>
      </trkpt>
      <trkpt lat="48.64815" lon="1.87423">
        <ele>182.8</ele>
        <time>2026-03-29T12:47:02Z</time>
      </trkpt>
      <trkpt lat="48.64819" lon="1.87428">
        <ele>182.8</ele>
        <time>2026-03-29T12:47:03Z</time>
      </trkpt>
      <trkpt lat="48.64823" lon="1.87433">
        <ele>182.8</ele>
        <time>2026-03-29T12:47:04Z</time>
      </trkpt>
      <trkpt lat="48.64827" lon="1.87437">
        <ele>181.8</ele>
        <time>2026-03-29T12:47:05Z</time>
      </trkpt>
      <trkpt lat="48.64831" lon="1.87441">
        <ele>183.2</ele>
        <time>2026-03-29T12:47:06Z</time>
      </trkpt>
      <trkpt lat="48.64835" lon="1.87445">
        <ele>183.2</ele>
        <time>2026-03-29T12:47:07Z</time>
      </trkpt>
      <trkpt lat="48.64838" lon="1.87449">
        <ele>183.2</ele>
        <time>2026-03-29T12:47:08Z</time>
      </trkpt>
      <trkpt lat="48.64842" lon="1.87454">
        <ele>183.2</ele>
        <time>2026-03-29T12:47:09Z</time>
      </trkpt>
      <trkpt lat="48.64845" lon="1.87458">
        <ele>182.2</ele>
        <time>2026-03-29T12:47:10Z</time>
      </trkpt>
      <trkpt lat="48.64849" lon="1.87462">
        <ele>182.2</ele>
        <time>2026-03-29T12:47:11Z</time>
      </trkpt>
      <trkpt lat="48.64852" lon="1.87465">
        <ele>182.2</ele>
        <time>2026-03-29T12:47:12Z</time>
      </trkpt>
      <trkpt lat="48.64856" lon="1.87469">
        <ele>182.2</ele>
        <time>2026-03-29T12:47:13Z</time>
      </trkpt>
      <trkpt lat="48.64859" lon="1.87474">
        <ele>182.6</ele>
        <time>2026-03-29T12:47:14Z</time>
      </trkpt>
      <trkpt lat="48.64861" lon="1.87478">
        <ele>182.6</ele>
        <time>2026-03-29T12:47:15Z</time>
      </trkpt>
      <trkpt lat="48.64864" lon="1.87481">
        <ele>182.6</ele>
        <time>2026-03-29T12:47:16Z</time>
      </trkpt>
      <trkpt lat="48.64867" lon="1.87485">
        <ele>182.6</ele>
        <time>2026-03-29T12:47:17Z</time>
      </trkpt>
      <trkpt lat="48.64871" lon="1.8749">
        <ele>182.4</ele>
        <time>2026-03-29T12:47:18Z</time>
      </trkpt>
      <trkpt lat="48.64874" lon="1.87495">
        <ele>182.4</ele>
        <time>2026-03-29T12:47:19Z</time>
      </trkpt>
      <trkpt lat="48.64878" lon="1.875">
        <ele>182.4</ele>
        <time>2026-03-29T12:47:20Z</time>
      </trkpt>
      <trkpt lat="48.64882" lon="1.87504">
        <ele>182.4</ele>
        <time>2026-03-29T12:47:21Z</time>
      </trkpt>
      <trkpt lat="48.64886" lon="1.87509">
        <ele>181.8</ele>
        <time>2026-03-29T12:47:22Z</time>
      </trkpt>
      <trkpt lat="48.6489" lon="1.87514">
        <ele>181.8</ele>
        <time>2026-03-29T12:47:23Z</time>
      </trkpt>
      <trkpt lat="48.64894" lon="1.87518">
        <ele>181.8</ele>
        <time>2026-03-29T12:47:24Z</time>
      </trkpt>
      <trkpt lat="48.64898" lon="1.87524">
        <ele>181.8</ele>
        <time>2026-03-29T12:47:25Z</time>
      </trkpt>
      <trkpt lat="48.64902" lon="1.87529">
        <ele>182</ele>
        <time>2026-03-29T12:47:26Z</time>
      </trkpt>
      <trkpt lat="48.64905" lon="1.87532">
        <ele>182</ele>
        <time>2026-03-29T12:47:27Z</time>
      </trkpt>
      <trkpt lat="48.64909" lon="1.87536">
        <ele>182</ele>
        <time>2026-03-29T12:47:28Z</time>
      </trkpt>
      <trkpt lat="48.64913" lon="1.8754">
        <ele>182</ele>
        <time>2026-03-29T12:47:29Z</time>
      </trkpt>
      <trkpt lat="48.64916" lon="1.87545">
        <ele>181.6</ele>
        <time>2026-03-29T12:47:30Z</time>
      </trkpt>
      <trkpt lat="48.64919" lon="1.8755">
        <ele>181.6</ele>
        <time>2026-03-29T12:47:31Z</time>
      </trkpt>
      <trkpt lat="48.64923" lon="1.87555">
        <ele>181.6</ele>
        <time>2026-03-29T12:47:32Z</time>
      </trkpt>
      <trkpt lat="48.64925" lon="1.87559">
        <ele>181.8</ele>
        <time>2026-03-29T12:47:33Z</time>
      </trkpt>
      <trkpt lat="48.6493" lon="1.87564">
        <ele>181.2</ele>
        <time>2026-03-29T12:47:34Z</time>
      </trkpt>
      <trkpt lat="48.64933" lon="1.87572">
        <ele>181.2</ele>
        <time>2026-03-29T12:47:35Z</time>
      </trkpt>
      <trkpt lat="48.64935" lon="1.87579">
        <ele>181.2</ele>
        <time>2026-03-29T12:47:36Z</time>
      </trkpt>
      <trkpt lat="48.64935" lon="1.87586">
        <ele>181.2</ele>
        <time>2026-03-29T12:47:37Z</time>
      </trkpt>
      <trkpt lat="48.64936" lon="1.87593">
        <ele>181.2</ele>
        <time>2026-03-29T12:47:38Z</time>
      </trkpt>
      <trkpt lat="48.64935" lon="1.87599">
        <ele>181.2</ele>
        <time>2026-03-29T12:47:39Z</time>
      </trkpt>
      <trkpt lat="48.64934" lon="1.87607">
        <ele>181.2</ele>
        <time>2026-03-29T12:47:40Z</time>
      </trkpt>
      <trkpt lat="48.64934" lon="1.87613">
        <ele>181.8</ele>
        <time>2026-03-29T12:47:41Z</time>
      </trkpt>
      <trkpt lat="48.64933" lon="1.8762">
        <ele>181.6</ele>
        <time>2026-03-29T12:47:42Z</time>
      </trkpt>
      <trkpt lat="48.64932" lon="1.87628">
        <ele>181.6</ele>
        <time>2026-03-29T12:47:43Z</time>
      </trkpt>
      <trkpt lat="48.64931" lon="1.87634">
        <ele>181.6</ele>
        <time>2026-03-29T12:47:44Z</time>
      </trkpt>
      <trkpt lat="48.64931" lon="1.87641">
        <ele>181.6</ele>
        <time>2026-03-29T12:47:45Z</time>
      </trkpt>
      <trkpt lat="48.6493" lon="1.87649">
        <ele>181.8</ele>
        <time>2026-03-29T12:47:46Z</time>
      </trkpt>
      <trkpt lat="48.64929" lon="1.87657">
        <ele>181.8</ele>
        <time>2026-03-29T12:47:47Z</time>
      </trkpt>
      <trkpt lat="48.64928" lon="1.87665">
        <ele>181.8</ele>
        <time>2026-03-29T12:47:48Z</time>
      </trkpt>
      <trkpt lat="48.64928" lon="1.87672">
        <ele>181.8</ele>
        <time>2026-03-29T12:47:49Z</time>
      </trkpt>
      <trkpt lat="48.64925" lon="1.87678">
        <ele>181.2</ele>
        <time>2026-03-29T12:47:50Z</time>
      </trkpt>
      <trkpt lat="48.64924" lon="1.87686">
        <ele>181.2</ele>
        <time>2026-03-29T12:47:51Z</time>
      </trkpt>
      <trkpt lat="48.64924" lon="1.87694">
        <ele>181.2</ele>
        <time>2026-03-29T12:47:52Z</time>
      </trkpt>
      <trkpt lat="48.64924" lon="1.877">
        <ele>181.2</ele>
        <time>2026-03-29T12:47:53Z</time>
      </trkpt>
      <trkpt lat="48.64924" lon="1.87707">
        <ele>181.8</ele>
        <time>2026-03-29T12:47:54Z</time>
      </trkpt>
      <trkpt lat="48.64923" lon="1.87714">
        <ele>181.8</ele>
        <time>2026-03-29T12:47:55Z</time>
      </trkpt>
      <trkpt lat="48.64924" lon="1.87723">
        <ele>181.8</ele>
        <time>2026-03-29T12:47:56Z</time>
      </trkpt>
      <trkpt lat="48.64925" lon="1.8773">
        <ele>181.2</ele>
        <time>2026-03-29T12:47:57Z</time>
      </trkpt>
      <trkpt lat="48.64927" lon="1.87736">
        <ele>181</ele>
        <time>2026-03-29T12:47:58Z</time>
      </trkpt>
      <trkpt lat="48.64929" lon="1.87743">
        <ele>181</ele>
        <time>2026-03-29T12:47:59Z</time>
      </trkpt>
      <trkpt lat="48.64932" lon="1.87747">
        <ele>181</ele>
        <time>2026-03-29T12:48:00Z</time>
      </trkpt>
      <trkpt lat="48.64936" lon="1.87751">
        <ele>181</ele>
        <time>2026-03-29T12:48:01Z</time>
      </trkpt>
      <trkpt lat="48.6494" lon="1.87756">
        <ele>181.2</ele>
        <time>2026-03-29T12:48:02Z</time>
      </trkpt>
      <trkpt lat="48.64944" lon="1.8776">
        <ele>181.2</ele>
        <time>2026-03-29T12:48:03Z</time>
      </trkpt>
      <trkpt lat="48.64948" lon="1.87764">
        <ele>181.2</ele>
        <time>2026-03-29T12:48:04Z</time>
      </trkpt>
      <trkpt lat="48.64953" lon="1.87768">
        <ele>180.6</ele>
        <time>2026-03-29T12:48:05Z</time>
      </trkpt>
      <trkpt lat="48.64957" lon="1.87771">
        <ele>180</ele>
        <time>2026-03-29T12:48:06Z</time>
      </trkpt>
      <trkpt lat="48.64962" lon="1.87774">
        <ele>180</ele>
        <time>2026-03-29T12:48:07Z</time>
      </trkpt>
      <trkpt lat="48.64966" lon="1.87778">
        <ele>180</ele>
        <time>2026-03-29T12:48:08Z</time>
      </trkpt>
      <trkpt lat="48.6497" lon="1.87782">
        <ele>180</ele>
        <time>2026-03-29T12:48:09Z</time>
      </trkpt>
      <trkpt lat="48.64974" lon="1.87786">
        <ele>179.4</ele>
        <time>2026-03-29T12:48:10Z</time>
      </trkpt>
      <trkpt lat="48.6498" lon="1.8779">
        <ele>179.4</ele>
        <time>2026-03-29T12:48:11Z</time>
      </trkpt>
      <trkpt lat="48.64984" lon="1.87793">
        <ele>179.4</ele>
        <time>2026-03-29T12:48:12Z</time>
      </trkpt>
      <trkpt lat="48.64989" lon="1.87797">
        <ele>178.6</ele>
        <time>2026-03-29T12:48:13Z</time>
      </trkpt>
      <trkpt lat="48.64994" lon="1.87801">
        <ele>178.6</ele>
        <time>2026-03-29T12:48:14Z</time>
      </trkpt>
      <trkpt lat="48.64998" lon="1.87804">
        <ele>178.6</ele>
        <time>2026-03-29T12:48:15Z</time>
      </trkpt>
      <trkpt lat="48.65002" lon="1.87807">
        <ele>178.6</ele>
        <time>2026-03-29T12:48:16Z</time>
      </trkpt>
      <trkpt lat="48.65006" lon="1.8781">
        <ele>177.6</ele>
        <time>2026-03-29T12:48:17Z</time>
      </trkpt>
      <trkpt lat="48.6501" lon="1.87813">
        <ele>177.8</ele>
        <time>2026-03-29T12:48:18Z</time>
      </trkpt>
      <trkpt lat="48.65015" lon="1.87818">
        <ele>177.8</ele>
        <time>2026-03-29T12:48:19Z</time>
      </trkpt>
      <trkpt lat="48.65018" lon="1.87822">
        <ele>177.8</ele>
        <time>2026-03-29T12:48:20Z</time>
      </trkpt>
      <trkpt lat="48.65023" lon="1.87826">
        <ele>177</ele>
        <time>2026-03-29T12:48:21Z</time>
      </trkpt>
      <trkpt lat="48.65027" lon="1.8783">
        <ele>176.6</ele>
        <time>2026-03-29T12:48:22Z</time>
      </trkpt>
      <trkpt lat="48.65033" lon="1.87835">
        <ele>176.6</ele>
        <time>2026-03-29T12:48:23Z</time>
      </trkpt>
      <trkpt lat="48.65037" lon="1.87838">
        <ele>176.6</ele>
        <time>2026-03-29T12:48:24Z</time>
      </trkpt>
      <trkpt lat="48.65041" lon="1.87841">
        <ele>176.6</ele>
        <time>2026-03-29T12:48:25Z</time>
      </trkpt>
      <trkpt lat="48.65044" lon="1.87843">
        <ele>176.4</ele>
        <time>2026-03-29T12:48:26Z</time>
      </trkpt>
      <trkpt lat="48.65047" lon="1.87846">
        <ele>176.4</ele>
        <time>2026-03-29T12:48:27Z</time>
      </trkpt>
      <trkpt lat="48.65049" lon="1.87849">
        <ele>176.4</ele>
        <time>2026-03-29T12:48:28Z</time>
      </trkpt>
      <trkpt lat="48.65051" lon="1.8785">
        <ele>176.4</ele>
        <time>2026-03-29T12:48:29Z</time>
      </trkpt>
      <trkpt lat="48.65054" lon="1.87852">
        <ele>176</ele>
        <time>2026-03-29T12:48:30Z</time>
      </trkpt>
      <trkpt lat="48.65058" lon="1.87854">
        <ele>176</ele>
        <time>2026-03-29T12:48:31Z</time>
      </trkpt>
      <trkpt lat="48.65062" lon="1.87856">
        <ele>176</ele>
        <time>2026-03-29T12:48:32Z</time>
      </trkpt>
      <trkpt lat="48.65066" lon="1.87858">
        <ele>176</ele>
        <time>2026-03-29T12:48:33Z</time>
      </trkpt>
      <trkpt lat="48.6507" lon="1.87859">
        <ele>176.2</ele>
        <time>2026-03-29T12:48:34Z</time>
      </trkpt>
      <trkpt lat="48.65074" lon="1.87858">
        <ele>176.2</ele>
        <time>2026-03-29T12:48:35Z</time>
      </trkpt>
      <trkpt lat="48.65077" lon="1.87859">
        <ele>176.2</ele>
        <time>2026-03-29T12:48:36Z</time>
      </trkpt>
      <trkpt lat="48.6508" lon="1.87861">
        <ele>176</ele>
        <time>2026-03-29T12:48:37Z</time>
      </trkpt>
      <trkpt lat="48.65083" lon="1.87863">
        <ele>176</ele>
        <time>2026-03-29T12:48:38Z</time>
      </trkpt>
      <trkpt lat="48.65086" lon="1.87864">
        <ele>176</ele>
        <time>2026-03-29T12:48:39Z</time>
      </trkpt>
      <trkpt lat="48.65091" lon="1.87865">
        <ele>176</ele>
        <time>2026-03-29T12:48:40Z</time>
      </trkpt>
      <trkpt lat="48.65096" lon="1.87867">
        <ele>176.2</ele>
        <time>2026-03-29T12:48:41Z</time>
      </trkpt>
      <trkpt lat="48.651" lon="1.87869">
        <ele>176.2</ele>
        <time>2026-03-29T12:48:42Z</time>
      </trkpt>
      <trkpt lat="48.65105" lon="1.8787">
        <ele>176.2</ele>
        <time>2026-03-29T12:48:43Z</time>
      </trkpt>
      <trkpt lat="48.65109" lon="1.87872">
        <ele>176.2</ele>
        <time>2026-03-29T12:48:44Z</time>
      </trkpt>
      <trkpt lat="48.65114" lon="1.87875">
        <ele>175.4</ele>
        <time>2026-03-29T12:48:45Z</time>
      </trkpt>
      <trkpt lat="48.65122" lon="1.8788">
        <ele>175.6</ele>
        <time>2026-03-29T12:48:46Z</time>
      </trkpt>
      <trkpt lat="48.65127" lon="1.87883">
        <ele>175.6</ele>
        <time>2026-03-29T12:48:47Z</time>
      </trkpt>
      <trkpt lat="48.65133" lon="1.87885">
        <ele>175.6</ele>
        <time>2026-03-29T12:48:48Z</time>
      </trkpt>
      <trkpt lat="48.6514" lon="1.87889">
        <ele>175.6</ele>
        <time>2026-03-29T12:48:49Z</time>
      </trkpt>
      <trkpt lat="48.65147" lon="1.87892">
        <ele>174.2</ele>
        <time>2026-03-29T12:48:50Z</time>
      </trkpt>
      <trkpt lat="48.65154" lon="1.87894">
        <ele>174.2</ele>
        <time>2026-03-29T12:48:51Z</time>
      </trkpt>
      <trkpt lat="48.65159" lon="1.87896">
        <ele>174.2</ele>
        <time>2026-03-29T12:48:52Z</time>
      </trkpt>
      <trkpt lat="48.65164" lon="1.87898">
        <ele>174.2</ele>
        <time>2026-03-29T12:48:53Z</time>
      </trkpt>
      <trkpt lat="48.65169" lon="1.879">
        <ele>174.2</ele>
        <time>2026-03-29T12:48:54Z</time>
      </trkpt>
      <trkpt lat="48.65174" lon="1.87903">
        <ele>174.2</ele>
        <time>2026-03-29T12:48:55Z</time>
      </trkpt>
      <trkpt lat="48.65178" lon="1.87904">
        <ele>174.2</ele>
        <time>2026-03-29T12:48:56Z</time>
      </trkpt>
      <trkpt lat="48.65183" lon="1.87904">
        <ele>174.2</ele>
        <time>2026-03-29T12:48:57Z</time>
      </trkpt>
      <trkpt lat="48.65188" lon="1.87905">
        <ele>174.4</ele>
        <time>2026-03-29T12:48:58Z</time>
      </trkpt>
      <trkpt lat="48.65192" lon="1.87904">
        <ele>174.4</ele>
        <time>2026-03-29T12:48:59Z</time>
      </trkpt>
      <trkpt lat="48.65197" lon="1.87907">
        <ele>174.4</ele>
        <time>2026-03-29T12:49:00Z</time>
      </trkpt>
      <trkpt lat="48.65201" lon="1.87909">
        <ele>175</ele>
        <time>2026-03-29T12:49:01Z</time>
      </trkpt>
      <trkpt lat="48.65204" lon="1.8791">
        <ele>175.4</ele>
        <time>2026-03-29T12:49:02Z</time>
      </trkpt>
      <trkpt lat="48.65208" lon="1.87911">
        <ele>175.4</ele>
        <time>2026-03-29T12:49:03Z</time>
      </trkpt>
      <trkpt lat="48.65211" lon="1.87912">
        <ele>175.4</ele>
        <time>2026-03-29T12:49:04Z</time>
      </trkpt>
      <trkpt lat="48.65215" lon="1.87913">
        <ele>176.4</ele>
        <time>2026-03-29T12:49:05Z</time>
      </trkpt>
      <trkpt lat="48.65218" lon="1.87914">
        <ele>176.6</ele>
        <time>2026-03-29T12:49:06Z</time>
      </trkpt>
      <trkpt lat="48.65221" lon="1.87915">
        <ele>176.6</ele>
        <time>2026-03-29T12:49:07Z</time>
      </trkpt>
      <trkpt lat="48.65225" lon="1.87916">
        <ele>176.6</ele>
        <time>2026-03-29T12:49:08Z</time>
      </trkpt>
      <trkpt lat="48.65228" lon="1.87916">
        <ele>177.4</ele>
        <time>2026-03-29T12:49:09Z</time>
      </trkpt>
      <trkpt lat="48.65231" lon="1.87917">
        <ele>177.8</ele>
        <time>2026-03-29T12:49:10Z</time>
      </trkpt>
      <trkpt lat="48.65233" lon="1.87919">
        <ele>177.8</ele>
        <time>2026-03-29T12:49:11Z</time>
      </trkpt>
      <trkpt lat="48.65236" lon="1.8792">
        <ele>177.8</ele>
        <time>2026-03-29T12:49:12Z</time>
      </trkpt>
      <trkpt lat="48.65237" lon="1.87919">
        <ele>178.6</ele>
        <time>2026-03-29T12:49:13Z</time>
      </trkpt>
      <trkpt lat="48.65239" lon="1.87921">
        <ele>179</ele>
        <time>2026-03-29T12:49:14Z</time>
      </trkpt>
      <trkpt lat="48.65242" lon="1.87921">
        <ele>179</ele>
        <time>2026-03-29T12:49:15Z</time>
      </trkpt>
      <trkpt lat="48.65244" lon="1.87922">
        <ele>179</ele>
        <time>2026-03-29T12:49:16Z</time>
      </trkpt>
      <trkpt lat="48.65247" lon="1.87923">
        <ele>179.6</ele>
        <time>2026-03-29T12:49:17Z</time>
      </trkpt>
      <trkpt lat="48.65249" lon="1.87925">
        <ele>179.8</ele>
        <time>2026-03-29T12:49:18Z</time>
      </trkpt>
      <trkpt lat="48.65251" lon="1.87928">
        <ele>179.8</ele>
        <time>2026-03-29T12:49:19Z</time>
      </trkpt>
      <trkpt lat="48.65253" lon="1.8793">
        <ele>179.8</ele>
        <time>2026-03-29T12:49:20Z</time>
      </trkpt>
      <trkpt lat="48.65255" lon="1.87932">
        <ele>180</ele>
        <time>2026-03-29T12:49:21Z</time>
      </trkpt>
      <trkpt lat="48.65257" lon="1.87935">
        <ele>180.2</ele>
        <time>2026-03-29T12:49:22Z</time>
      </trkpt>
      <trkpt lat="48.6526" lon="1.87937">
        <ele>180.2</ele>
        <time>2026-03-29T12:49:23Z</time>
      </trkpt>
      <trkpt lat="48.65263" lon="1.87939">
        <ele>180.2</ele>
        <time>2026-03-29T12:49:24Z</time>
      </trkpt>
      <trkpt lat="48.65265" lon="1.87942">
        <ele>180.2</ele>
        <time>2026-03-29T12:49:25Z</time>
      </trkpt>
      <trkpt lat="48.65268" lon="1.87945">
        <ele>180.8</ele>
        <time>2026-03-29T12:49:26Z</time>
      </trkpt>
      <trkpt lat="48.65271" lon="1.87948">
        <ele>180.8</ele>
        <time>2026-03-29T12:49:27Z</time>
      </trkpt>
      <trkpt lat="48.65274" lon="1.87951">
        <ele>180.8</ele>
        <time>2026-03-29T12:49:28Z</time>
      </trkpt>
      <trkpt lat="48.65277" lon="1.87954">
        <ele>180.6</ele>
        <time>2026-03-29T12:49:29Z</time>
      </trkpt>
      <trkpt lat="48.6528" lon="1.87957">
        <ele>180.8</ele>
        <time>2026-03-29T12:49:30Z</time>
      </trkpt>
      <trkpt lat="48.65283" lon="1.8796">
        <ele>180.8</ele>
        <time>2026-03-29T12:49:31Z</time>
      </trkpt>
      <trkpt lat="48.65285" lon="1.87963">
        <ele>180.8</ele>
        <time>2026-03-29T12:49:32Z</time>
      </trkpt>
      <trkpt lat="48.65288" lon="1.87966">
        <ele>180.8</ele>
        <time>2026-03-29T12:49:33Z</time>
      </trkpt>
      <trkpt lat="48.65291" lon="1.87969">
        <ele>180.4</ele>
        <time>2026-03-29T12:49:34Z</time>
      </trkpt>
      <trkpt lat="48.65294" lon="1.87973">
        <ele>180.4</ele>
        <time>2026-03-29T12:49:35Z</time>
      </trkpt>
      <trkpt lat="48.65297" lon="1.87977">
        <ele>180.4</ele>
        <time>2026-03-29T12:49:36Z</time>
      </trkpt>
      <trkpt lat="48.65301" lon="1.8798">
        <ele>180.4</ele>
        <time>2026-03-29T12:49:37Z</time>
      </trkpt>
      <trkpt lat="48.65303" lon="1.87983">
        <ele>180.4</ele>
        <time>2026-03-29T12:49:38Z</time>
      </trkpt>
      <trkpt lat="48.65306" lon="1.87987">
        <ele>180.4</ele>
        <time>2026-03-29T12:49:39Z</time>
      </trkpt>
      <trkpt lat="48.65309" lon="1.8799">
        <ele>180.4</ele>
        <time>2026-03-29T12:49:40Z</time>
      </trkpt>
      <trkpt lat="48.65311" lon="1.87993">
        <ele>180.8</ele>
        <time>2026-03-29T12:49:41Z</time>
      </trkpt>
      <trkpt lat="48.65313" lon="1.87995">
        <ele>180.8</ele>
        <time>2026-03-29T12:49:42Z</time>
      </trkpt>
      <trkpt lat="48.65314" lon="1.87996">
        <ele>180.8</ele>
        <time>2026-03-29T12:49:43Z</time>
      </trkpt>
      <trkpt lat="48.65315" lon="1.87997">
        <ele>180.8</ele>
        <time>2026-03-29T12:49:44Z</time>
      </trkpt>
      <trkpt lat="48.65316" lon="1.87998">
        <ele>180.8</ele>
        <time>2026-03-29T12:49:45Z</time>
      </trkpt>
      <trkpt lat="48.65316" lon="1.87998">
        <ele>180.2</ele>
        <time>2026-03-29T12:49:46Z</time>
      </trkpt>
      <trkpt lat="48.6532" lon="1.88002">
        <ele>180.8</ele>
        <time>2026-03-29T12:49:51Z</time>
      </trkpt>
      <trkpt lat="48.65322" lon="1.88005">
        <ele>180.8</ele>
        <time>2026-03-29T12:49:52Z</time>
      </trkpt>
      <trkpt lat="48.65325" lon="1.88006">
        <ele>180.8</ele>
        <time>2026-03-29T12:49:53Z</time>
      </trkpt>
      <trkpt lat="48.65327" lon="1.88006">
        <ele>180.6</ele>
        <time>2026-03-29T12:49:54Z</time>
      </trkpt>
      <trkpt lat="48.6533" lon="1.88007">
        <ele>180.6</ele>
        <time>2026-03-29T12:49:55Z</time>
      </trkpt>
      <trkpt lat="48.65333" lon="1.88009">
        <ele>180.6</ele>
        <time>2026-03-29T12:49:56Z</time>
      </trkpt>
      <trkpt lat="48.65336" lon="1.88012">
        <ele>180.4</ele>
        <time>2026-03-29T12:49:57Z</time>
      </trkpt>
      <trkpt lat="48.65338" lon="1.88015">
        <ele>180.4</ele>
        <time>2026-03-29T12:49:58Z</time>
      </trkpt>
      <trkpt lat="48.65341" lon="1.88018">
        <ele>180.4</ele>
        <time>2026-03-29T12:49:59Z</time>
      </trkpt>
      <trkpt lat="48.65344" lon="1.88021">
        <ele>180.4</ele>
        <time>2026-03-29T12:50:00Z</time>
      </trkpt>
      <trkpt lat="48.65347" lon="1.88024">
        <ele>180.4</ele>
        <time>2026-03-29T12:50:01Z</time>
      </trkpt>
      <trkpt lat="48.65349" lon="1.88026">
        <ele>180.2</ele>
        <time>2026-03-29T12:50:02Z</time>
      </trkpt>
      <trkpt lat="48.65352" lon="1.88029">
        <ele>180.2</ele>
        <time>2026-03-29T12:50:03Z</time>
      </trkpt>
      <trkpt lat="48.65355" lon="1.88032">
        <ele>180.2</ele>
        <time>2026-03-29T12:50:04Z</time>
      </trkpt>
      <trkpt lat="48.65358" lon="1.88035">
        <ele>180.8</ele>
        <time>2026-03-29T12:50:05Z</time>
      </trkpt>
      <trkpt lat="48.6536" lon="1.88038">
        <ele>180.4</ele>
        <time>2026-03-29T12:50:06Z</time>
      </trkpt>
      <trkpt lat="48.65363" lon="1.88041">
        <ele>180.4</ele>
        <time>2026-03-29T12:50:07Z</time>
      </trkpt>
      <trkpt lat="48.65365" lon="1.88044">
        <ele>180.4</ele>
        <time>2026-03-29T12:50:08Z</time>
      </trkpt>
      <trkpt lat="48.65368" lon="1.88047">
        <ele>180.6</ele>
        <time>2026-03-29T12:50:09Z</time>
      </trkpt>
      <trkpt lat="48.65372" lon="1.8805">
        <ele>180.8</ele>
        <time>2026-03-29T12:50:10Z</time>
      </trkpt>
      <trkpt lat="48.65374" lon="1.88052">
        <ele>180.8</ele>
        <time>2026-03-29T12:50:11Z</time>
      </trkpt>
      <trkpt lat="48.65378" lon="1.88055">
        <ele>180.8</ele>
        <time>2026-03-29T12:50:12Z</time>
      </trkpt>
      <trkpt lat="48.65381" lon="1.88059">
        <ele>180.8</ele>
        <time>2026-03-29T12:50:13Z</time>
      </trkpt>
      <trkpt lat="48.65385" lon="1.88062">
        <ele>180.6</ele>
        <time>2026-03-29T12:50:14Z</time>
      </trkpt>
      <trkpt lat="48.65388" lon="1.88066">
        <ele>180.6</ele>
        <time>2026-03-29T12:50:15Z</time>
      </trkpt>
      <trkpt lat="48.6539" lon="1.88069">
        <ele>180.6</ele>
        <time>2026-03-29T12:50:16Z</time>
      </trkpt>
      <trkpt lat="48.65394" lon="1.88074">
        <ele>180.8</ele>
        <time>2026-03-29T12:50:17Z</time>
      </trkpt>
      <trkpt lat="48.65396" lon="1.88079">
        <ele>181.2</ele>
        <time>2026-03-29T12:50:18Z</time>
      </trkpt>
      <trkpt lat="48.65399" lon="1.88084">
        <ele>181.2</ele>
        <time>2026-03-29T12:50:19Z</time>
      </trkpt>
      <trkpt lat="48.65402" lon="1.8809">
        <ele>181.2</ele>
        <time>2026-03-29T12:50:20Z</time>
      </trkpt>
      <trkpt lat="48.65404" lon="1.88097">
        <ele>181</ele>
        <time>2026-03-29T12:50:21Z</time>
      </trkpt>
      <trkpt lat="48.65406" lon="1.88101">
        <ele>180.8</ele>
        <time>2026-03-29T12:50:22Z</time>
      </trkpt>
      <trkpt lat="48.65408" lon="1.88109">
        <ele>180.8</ele>
        <time>2026-03-29T12:50:23Z</time>
      </trkpt>
      <trkpt lat="48.65409" lon="1.88114">
        <ele>180.8</ele>
        <time>2026-03-29T12:50:24Z</time>
      </trkpt>
      <trkpt lat="48.65412" lon="1.88119">
        <ele>180.8</ele>
        <time>2026-03-29T12:50:25Z</time>
      </trkpt>
      <trkpt lat="48.65414" lon="1.88124">
        <ele>180.4</ele>
        <time>2026-03-29T12:50:26Z</time>
      </trkpt>
      <trkpt lat="48.65414" lon="1.88127">
        <ele>180.4</ele>
        <time>2026-03-29T12:50:27Z</time>
      </trkpt>
      <trkpt lat="48.65414" lon="1.88131">
        <ele>180.4</ele>
        <time>2026-03-29T12:50:28Z</time>
      </trkpt>
      <trkpt lat="48.65414" lon="1.88135">
        <ele>181.2</ele>
        <time>2026-03-29T12:50:29Z</time>
      </trkpt>
      <trkpt lat="48.65415" lon="1.88141">
        <ele>180.8</ele>
        <time>2026-03-29T12:50:30Z</time>
      </trkpt>
      <trkpt lat="48.65416" lon="1.88146">
        <ele>180.8</ele>
        <time>2026-03-29T12:50:31Z</time>
      </trkpt>
      <trkpt lat="48.65416" lon="1.88153">
        <ele>180.8</ele>
        <time>2026-03-29T12:50:32Z</time>
      </trkpt>
      <trkpt lat="48.65417" lon="1.8816">
        <ele>180.8</ele>
        <time>2026-03-29T12:50:33Z</time>
      </trkpt>
      <trkpt lat="48.65418" lon="1.88166">
        <ele>180.4</ele>
        <time>2026-03-29T12:50:34Z</time>
      </trkpt>
      <trkpt lat="48.65419" lon="1.88173">
        <ele>180.4</ele>
        <time>2026-03-29T12:50:35Z</time>
      </trkpt>
      <trkpt lat="48.65419" lon="1.8818">
        <ele>180.4</ele>
        <time>2026-03-29T12:50:36Z</time>
      </trkpt>
      <trkpt lat="48.65421" lon="1.88187">
        <ele>181.2</ele>
        <time>2026-03-29T12:50:37Z</time>
      </trkpt>
      <trkpt lat="48.65422" lon="1.88194">
        <ele>181.8</ele>
        <time>2026-03-29T12:50:38Z</time>
      </trkpt>
      <trkpt lat="48.65422" lon="1.882">
        <ele>181.8</ele>
        <time>2026-03-29T12:50:39Z</time>
      </trkpt>
      <trkpt lat="48.65423" lon="1.88208">
        <ele>181.8</ele>
        <time>2026-03-29T12:50:40Z</time>
      </trkpt>
      <trkpt lat="48.65423" lon="1.88216">
        <ele>181.2</ele>
        <time>2026-03-29T12:50:41Z</time>
      </trkpt>
      <trkpt lat="48.65423" lon="1.88224">
        <ele>181.4</ele>
        <time>2026-03-29T12:50:42Z</time>
      </trkpt>
      <trkpt lat="48.65423" lon="1.88232">
        <ele>181.4</ele>
        <time>2026-03-29T12:50:43Z</time>
      </trkpt>
      <trkpt lat="48.65424" lon="1.88241">
        <ele>181.4</ele>
        <time>2026-03-29T12:50:44Z</time>
      </trkpt>
      <trkpt lat="48.65424" lon="1.8825">
        <ele>181.4</ele>
        <time>2026-03-29T12:50:45Z</time>
      </trkpt>
      <trkpt lat="48.65425" lon="1.88259">
        <ele>181.8</ele>
        <time>2026-03-29T12:50:46Z</time>
      </trkpt>
      <trkpt lat="48.65425" lon="1.88268">
        <ele>181.8</ele>
        <time>2026-03-29T12:50:47Z</time>
      </trkpt>
      <trkpt lat="48.65425" lon="1.88277">
        <ele>181.8</ele>
        <time>2026-03-29T12:50:48Z</time>
      </trkpt>
      <trkpt lat="48.65426" lon="1.88285">
        <ele>181.8</ele>
        <time>2026-03-29T12:50:49Z</time>
      </trkpt>
      <trkpt lat="48.65426" lon="1.88294">
        <ele>181.6</ele>
        <time>2026-03-29T12:50:50Z</time>
      </trkpt>
      <trkpt lat="48.65426" lon="1.88302">
        <ele>181.6</ele>
        <time>2026-03-29T12:50:51Z</time>
      </trkpt>
      <trkpt lat="48.65426" lon="1.8831">
        <ele>181.6</ele>
        <time>2026-03-29T12:50:52Z</time>
      </trkpt>
      <trkpt lat="48.65426" lon="1.88318">
        <ele>181.6</ele>
        <time>2026-03-29T12:50:53Z</time>
      </trkpt>
      <trkpt lat="48.65426" lon="1.88327">
        <ele>182.2</ele>
        <time>2026-03-29T12:50:54Z</time>
      </trkpt>
      <trkpt lat="48.65426" lon="1.88335">
        <ele>182.2</ele>
        <time>2026-03-29T12:50:55Z</time>
      </trkpt>
      <trkpt lat="48.65426" lon="1.88343">
        <ele>182.2</ele>
        <time>2026-03-29T12:50:56Z</time>
      </trkpt>
      <trkpt lat="48.65426" lon="1.88351">
        <ele>181.8</ele>
        <time>2026-03-29T12:50:57Z</time>
      </trkpt>
      <trkpt lat="48.65426" lon="1.88359">
        <ele>182.2</ele>
        <time>2026-03-29T12:50:58Z</time>
      </trkpt>
      <trkpt lat="48.65425" lon="1.88368">
        <ele>182.2</ele>
        <time>2026-03-29T12:50:59Z</time>
      </trkpt>
      <trkpt lat="48.65425" lon="1.88376">
        <ele>182.2</ele>
        <time>2026-03-29T12:51:00Z</time>
      </trkpt>
      <trkpt lat="48.65425" lon="1.88384">
        <ele>182.2</ele>
        <time>2026-03-29T12:51:01Z</time>
      </trkpt>
      <trkpt lat="48.65425" lon="1.88392">
        <ele>182.6</ele>
        <time>2026-03-29T12:51:02Z</time>
      </trkpt>
      <trkpt lat="48.65425" lon="1.88401">
        <ele>182.6</ele>
        <time>2026-03-29T12:51:03Z</time>
      </trkpt>
      <trkpt lat="48.65425" lon="1.88409">
        <ele>182.6</ele>
        <time>2026-03-29T12:51:04Z</time>
      </trkpt>
      <trkpt lat="48.65425" lon="1.88417">
        <ele>182.4</ele>
        <time>2026-03-29T12:51:05Z</time>
      </trkpt>
      <trkpt lat="48.65425" lon="1.88425">
        <ele>182.2</ele>
        <time>2026-03-29T12:51:06Z</time>
      </trkpt>
      <trkpt lat="48.65425" lon="1.88432">
        <ele>182.2</ele>
        <time>2026-03-29T12:51:07Z</time>
      </trkpt>
      <trkpt lat="48.65426" lon="1.8844">
        <ele>182.2</ele>
        <time>2026-03-29T12:51:08Z</time>
      </trkpt>
      <trkpt lat="48.65428" lon="1.88446">
        <ele>182.4</ele>
        <time>2026-03-29T12:51:09Z</time>
      </trkpt>
      <trkpt lat="48.65432" lon="1.88452">
        <ele>182.4</ele>
        <time>2026-03-29T12:51:10Z</time>
      </trkpt>
      <trkpt lat="48.65436" lon="1.88456">
        <ele>182.4</ele>
        <time>2026-03-29T12:51:11Z</time>
      </trkpt>
      <trkpt lat="48.6544" lon="1.88461">
        <ele>182.4</ele>
        <time>2026-03-29T12:51:12Z</time>
      </trkpt>
      <trkpt lat="48.65444" lon="1.88465">
        <ele>182.2</ele>
        <time>2026-03-29T12:51:13Z</time>
      </trkpt>
      <trkpt lat="48.65447" lon="1.88468">
        <ele>182.2</ele>
        <time>2026-03-29T12:51:14Z</time>
      </trkpt>
      <trkpt lat="48.65451" lon="1.88471">
        <ele>182.2</ele>
        <time>2026-03-29T12:51:15Z</time>
      </trkpt>
      <trkpt lat="48.65455" lon="1.88473">
        <ele>182.2</ele>
        <time>2026-03-29T12:51:16Z</time>
      </trkpt>
      <trkpt lat="48.65459" lon="1.88475">
        <ele>182.2</ele>
        <time>2026-03-29T12:51:17Z</time>
      </trkpt>
      <trkpt lat="48.65462" lon="1.88477">
        <ele>181.8</ele>
        <time>2026-03-29T12:51:18Z</time>
      </trkpt>
      <trkpt lat="48.65466" lon="1.88478">
        <ele>181.8</ele>
        <time>2026-03-29T12:51:19Z</time>
      </trkpt>
      <trkpt lat="48.6547" lon="1.8848">
        <ele>181.8</ele>
        <time>2026-03-29T12:51:20Z</time>
      </trkpt>
      <trkpt lat="48.65473" lon="1.88482">
        <ele>182.2</ele>
        <time>2026-03-29T12:51:21Z</time>
      </trkpt>
      <trkpt lat="48.65476" lon="1.88484">
        <ele>182.2</ele>
        <time>2026-03-29T12:51:22Z</time>
      </trkpt>
      <trkpt lat="48.6548" lon="1.88484">
        <ele>182.2</ele>
        <time>2026-03-29T12:51:23Z</time>
      </trkpt>
      <trkpt lat="48.65483" lon="1.88484">
        <ele>182.2</ele>
        <time>2026-03-29T12:51:24Z</time>
      </trkpt>
      <trkpt lat="48.65485" lon="1.88484">
        <ele>182.2</ele>
        <time>2026-03-29T12:51:25Z</time>
      </trkpt>
      <trkpt lat="48.65488" lon="1.88483">
        <ele>182.8</ele>
        <time>2026-03-29T12:51:26Z</time>
      </trkpt>
      <trkpt lat="48.65491" lon="1.88483">
        <ele>182.8</ele>
        <time>2026-03-29T12:51:27Z</time>
      </trkpt>
      <trkpt lat="48.65493" lon="1.88483">
        <ele>182.8</ele>
        <time>2026-03-29T12:51:28Z</time>
      </trkpt>
      <trkpt lat="48.65495" lon="1.88483">
        <ele>182.8</ele>
        <time>2026-03-29T12:51:29Z</time>
      </trkpt>
      <trkpt lat="48.65497" lon="1.88484">
        <ele>182</ele>
        <time>2026-03-29T12:51:30Z</time>
      </trkpt>
      <trkpt lat="48.65498" lon="1.88484">
        <ele>182</ele>
        <time>2026-03-29T12:51:31Z</time>
      </trkpt>
      <trkpt lat="48.65498" lon="1.88484">
        <ele>182</ele>
        <time>2026-03-29T12:51:32Z</time>
      </trkpt>
      <trkpt lat="48.65498" lon="1.88484">
        <ele>181.8</ele>
        <time>2026-03-29T12:51:33Z</time>
      </trkpt>
      <trkpt lat="48.655" lon="1.88492">
        <ele>182.4</ele>
        <time>2026-03-29T12:53:28Z</time>
      </trkpt>
      <trkpt lat="48.65502" lon="1.88493">
        <ele>182.6</ele>
        <time>2026-03-29T12:53:29Z</time>
      </trkpt>
      <trkpt lat="48.65504" lon="1.88494">
        <ele>182.8</ele>
        <time>2026-03-29T12:53:30Z</time>
      </trkpt>
      <trkpt lat="48.65507" lon="1.88495">
        <ele>182.8</ele>
        <time>2026-03-29T12:53:31Z</time>
      </trkpt>
      <trkpt lat="48.6551" lon="1.88496">
        <ele>182.8</ele>
        <time>2026-03-29T12:53:32Z</time>
      </trkpt>
      <trkpt lat="48.65514" lon="1.88497">
        <ele>182.6</ele>
        <time>2026-03-29T12:53:33Z</time>
      </trkpt>
      <trkpt lat="48.65517" lon="1.88498">
        <ele>182.4</ele>
        <time>2026-03-29T12:53:34Z</time>
      </trkpt>
      <trkpt lat="48.65521" lon="1.885">
        <ele>182.4</ele>
        <time>2026-03-29T12:53:35Z</time>
      </trkpt>
      <trkpt lat="48.65525" lon="1.885">
        <ele>182.4</ele>
        <time>2026-03-29T12:53:36Z</time>
      </trkpt>
      <trkpt lat="48.65529" lon="1.88501">
        <ele>182.4</ele>
        <time>2026-03-29T12:53:37Z</time>
      </trkpt>
      <trkpt lat="48.65533" lon="1.88503">
        <ele>182.4</ele>
        <time>2026-03-29T12:53:38Z</time>
      </trkpt>
      <trkpt lat="48.65537" lon="1.88506">
        <ele>182.4</ele>
        <time>2026-03-29T12:53:39Z</time>
      </trkpt>
      <trkpt lat="48.65542" lon="1.88509">
        <ele>182.4</ele>
        <time>2026-03-29T12:53:40Z</time>
      </trkpt>
      <trkpt lat="48.65546" lon="1.88511">
        <ele>182.4</ele>
        <time>2026-03-29T12:53:41Z</time>
      </trkpt>
      <trkpt lat="48.6555" lon="1.88514">
        <ele>182.4</ele>
        <time>2026-03-29T12:53:42Z</time>
      </trkpt>
      <trkpt lat="48.65554" lon="1.88516">
        <ele>182.4</ele>
        <time>2026-03-29T12:53:43Z</time>
      </trkpt>
      <trkpt lat="48.65559" lon="1.88518">
        <ele>182.4</ele>
        <time>2026-03-29T12:53:44Z</time>
      </trkpt>
      <trkpt lat="48.65563" lon="1.8852">
        <ele>182.4</ele>
        <time>2026-03-29T12:53:45Z</time>
      </trkpt>
      <trkpt lat="48.65567" lon="1.88521">
        <ele>181.8</ele>
        <time>2026-03-29T12:53:46Z</time>
      </trkpt>
      <trkpt lat="48.65572" lon="1.88523">
        <ele>181.8</ele>
        <time>2026-03-29T12:53:47Z</time>
      </trkpt>
      <trkpt lat="48.65576" lon="1.88524">
        <ele>181.8</ele>
        <time>2026-03-29T12:53:48Z</time>
      </trkpt>
      <trkpt lat="48.65579" lon="1.88526">
        <ele>182.8</ele>
        <time>2026-03-29T12:53:49Z</time>
      </trkpt>
      <trkpt lat="48.65583" lon="1.88528">
        <ele>182.4</ele>
        <time>2026-03-29T12:53:50Z</time>
      </trkpt>
      <trkpt lat="48.65586" lon="1.88529">
        <ele>182.4</ele>
        <time>2026-03-29T12:53:51Z</time>
      </trkpt>
      <trkpt lat="48.65589" lon="1.88528">
        <ele>182.4</ele>
        <time>2026-03-29T12:53:52Z</time>
      </trkpt>
      <trkpt lat="48.65592" lon="1.88527">
        <ele>182.4</ele>
        <time>2026-03-29T12:53:53Z</time>
      </trkpt>
      <trkpt lat="48.65595" lon="1.88526">
        <ele>182.4</ele>
        <time>2026-03-29T12:53:54Z</time>
      </trkpt>
      <trkpt lat="48.65599" lon="1.88525">
        <ele>182.4</ele>
        <time>2026-03-29T12:53:55Z</time>
      </trkpt>
      <trkpt lat="48.65603" lon="1.88525">
        <ele>182.4</ele>
        <time>2026-03-29T12:53:56Z</time>
      </trkpt>
      <trkpt lat="48.65607" lon="1.88526">
        <ele>181.8</ele>
        <time>2026-03-29T12:53:57Z</time>
      </trkpt>
      <trkpt lat="48.65611" lon="1.88527">
        <ele>182.4</ele>
        <time>2026-03-29T12:53:58Z</time>
      </trkpt>
      <trkpt lat="48.65615" lon="1.88528">
        <ele>182.4</ele>
        <time>2026-03-29T12:53:59Z</time>
      </trkpt>
      <trkpt lat="48.65619" lon="1.88528">
        <ele>182.4</ele>
        <time>2026-03-29T12:54:00Z</time>
      </trkpt>
      <trkpt lat="48.65624" lon="1.88528">
        <ele>182.4</ele>
        <time>2026-03-29T12:54:01Z</time>
      </trkpt>
      <trkpt lat="48.65628" lon="1.88529">
        <ele>181.8</ele>
        <time>2026-03-29T12:54:02Z</time>
      </trkpt>
      <trkpt lat="48.65633" lon="1.88529">
        <ele>181.8</ele>
        <time>2026-03-29T12:54:03Z</time>
      </trkpt>
      <trkpt lat="48.65637" lon="1.8853">
        <ele>181.8</ele>
        <time>2026-03-29T12:54:04Z</time>
      </trkpt>
      <trkpt lat="48.65641" lon="1.88531">
        <ele>181.8</ele>
        <time>2026-03-29T12:54:05Z</time>
      </trkpt>
      <trkpt lat="48.65645" lon="1.88531">
        <ele>181.2</ele>
        <time>2026-03-29T12:54:06Z</time>
      </trkpt>
      <trkpt lat="48.65648" lon="1.88531">
        <ele>181.2</ele>
        <time>2026-03-29T12:54:07Z</time>
      </trkpt>
      <trkpt lat="48.65652" lon="1.88531">
        <ele>181.2</ele>
        <time>2026-03-29T12:54:08Z</time>
      </trkpt>
      <trkpt lat="48.65656" lon="1.88531">
        <ele>181.8</ele>
        <time>2026-03-29T12:54:09Z</time>
      </trkpt>
      <trkpt lat="48.6566" lon="1.88532">
        <ele>182.2</ele>
        <time>2026-03-29T12:54:10Z</time>
      </trkpt>
      <trkpt lat="48.65664" lon="1.88532">
        <ele>182.2</ele>
        <time>2026-03-29T12:54:11Z</time>
      </trkpt>
      <trkpt lat="48.65668" lon="1.88533">
        <ele>182.2</ele>
        <time>2026-03-29T12:54:12Z</time>
      </trkpt>
      <trkpt lat="48.65672" lon="1.88532">
        <ele>182.2</ele>
        <time>2026-03-29T12:54:13Z</time>
      </trkpt>
      <trkpt lat="48.65676" lon="1.88532">
        <ele>181.8</ele>
        <time>2026-03-29T12:54:14Z</time>
      </trkpt>
      <trkpt lat="48.6568" lon="1.88531">
        <ele>181.8</ele>
        <time>2026-03-29T12:54:15Z</time>
      </trkpt>
      <trkpt lat="48.65684" lon="1.88532">
        <ele>181.8</ele>
        <time>2026-03-29T12:54:16Z</time>
      </trkpt>
      <trkpt lat="48.65688" lon="1.88531">
        <ele>181.8</ele>
        <time>2026-03-29T12:54:17Z</time>
      </trkpt>
      <trkpt lat="48.65692" lon="1.88531">
        <ele>181.6</ele>
        <time>2026-03-29T12:54:18Z</time>
      </trkpt>
      <trkpt lat="48.65696" lon="1.88529">
        <ele>181.6</ele>
        <time>2026-03-29T12:54:19Z</time>
      </trkpt>
      <trkpt lat="48.657" lon="1.88528">
        <ele>181.6</ele>
        <time>2026-03-29T12:54:20Z</time>
      </trkpt>
      <trkpt lat="48.65704" lon="1.88527">
        <ele>181.8</ele>
        <time>2026-03-29T12:54:21Z</time>
      </trkpt>
      <trkpt lat="48.65708" lon="1.88526">
        <ele>181.8</ele>
        <time>2026-03-29T12:54:22Z</time>
      </trkpt>
      <trkpt lat="48.65712" lon="1.88525">
        <ele>181.8</ele>
        <time>2026-03-29T12:54:23Z</time>
      </trkpt>
      <trkpt lat="48.65716" lon="1.88524">
        <ele>181.8</ele>
        <time>2026-03-29T12:54:24Z</time>
      </trkpt>
      <trkpt lat="48.65721" lon="1.88523">
        <ele>181.8</ele>
        <time>2026-03-29T12:54:25Z</time>
      </trkpt>
      <trkpt lat="48.65725" lon="1.88523">
        <ele>182.2</ele>
        <time>2026-03-29T12:54:26Z</time>
      </trkpt>
      <trkpt lat="48.65728" lon="1.88521">
        <ele>182.2</ele>
        <time>2026-03-29T12:54:27Z</time>
      </trkpt>
      <trkpt lat="48.65732" lon="1.88519">
        <ele>182.2</ele>
        <time>2026-03-29T12:54:28Z</time>
      </trkpt>
      <trkpt lat="48.65736" lon="1.88518">
        <ele>182.2</ele>
        <time>2026-03-29T12:54:29Z</time>
      </trkpt>
      <trkpt lat="48.6574" lon="1.88517">
        <ele>182.2</ele>
        <time>2026-03-29T12:54:30Z</time>
      </trkpt>
      <trkpt lat="48.65744" lon="1.88516">
        <ele>182.2</ele>
        <time>2026-03-29T12:54:31Z</time>
      </trkpt>
      <trkpt lat="48.65748" lon="1.88515">
        <ele>182.2</ele>
        <time>2026-03-29T12:54:32Z</time>
      </trkpt>
      <trkpt lat="48.65752" lon="1.88514">
        <ele>182.2</ele>
        <time>2026-03-29T12:54:33Z</time>
      </trkpt>
      <trkpt lat="48.65756" lon="1.88513">
        <ele>182.2</ele>
        <time>2026-03-29T12:54:34Z</time>
      </trkpt>
      <trkpt lat="48.6576" lon="1.88512">
        <ele>182.2</ele>
        <time>2026-03-29T12:54:35Z</time>
      </trkpt>
      <trkpt lat="48.65764" lon="1.88511">
        <ele>182.2</ele>
        <time>2026-03-29T12:54:36Z</time>
      </trkpt>
      <trkpt lat="48.65769" lon="1.8851">
        <ele>182.2</ele>
        <time>2026-03-29T12:54:37Z</time>
      </trkpt>
      <trkpt lat="48.65773" lon="1.88509">
        <ele>181.8</ele>
        <time>2026-03-29T12:54:38Z</time>
      </trkpt>
      <trkpt lat="48.65777" lon="1.88508">
        <ele>181.8</ele>
        <time>2026-03-29T12:54:39Z</time>
      </trkpt>
      <trkpt lat="48.65781" lon="1.88506">
        <ele>181.8</ele>
        <time>2026-03-29T12:54:40Z</time>
      </trkpt>
      <trkpt lat="48.65785" lon="1.88506">
        <ele>182.4</ele>
        <time>2026-03-29T12:54:41Z</time>
      </trkpt>
      <trkpt lat="48.65789" lon="1.88504">
        <ele>182.6</ele>
        <time>2026-03-29T12:54:42Z</time>
      </trkpt>
      <trkpt lat="48.65793" lon="1.88503">
        <ele>182.6</ele>
        <time>2026-03-29T12:54:43Z</time>
      </trkpt>
      <trkpt lat="48.65797" lon="1.88502">
        <ele>182.6</ele>
        <time>2026-03-29T12:54:44Z</time>
      </trkpt>
      <trkpt lat="48.65801" lon="1.88501">
        <ele>182.6</ele>
        <time>2026-03-29T12:54:45Z</time>
      </trkpt>
      <trkpt lat="48.65805" lon="1.88501">
        <ele>182.2</ele>
        <time>2026-03-29T12:54:46Z</time>
      </trkpt>
      <trkpt lat="48.65809" lon="1.885">
        <ele>182.2</ele>
        <time>2026-03-29T12:54:47Z</time>
      </trkpt>
      <trkpt lat="48.65813" lon="1.88499">
        <ele>182.2</ele>
        <time>2026-03-29T12:54:48Z</time>
      </trkpt>
      <trkpt lat="48.65817" lon="1.88499">
        <ele>183</ele>
        <time>2026-03-29T12:54:49Z</time>
      </trkpt>
      <trkpt lat="48.6582" lon="1.88497">
        <ele>182.4</ele>
        <time>2026-03-29T12:54:50Z</time>
      </trkpt>
      <trkpt lat="48.65824" lon="1.88494">
        <ele>182.4</ele>
        <time>2026-03-29T12:54:51Z</time>
      </trkpt>
      <trkpt lat="48.65827" lon="1.88492">
        <ele>182.4</ele>
        <time>2026-03-29T12:54:52Z</time>
      </trkpt>
      <trkpt lat="48.65831" lon="1.88489">
        <ele>182.2</ele>
        <time>2026-03-29T12:54:53Z</time>
      </trkpt>
      <trkpt lat="48.65835" lon="1.88487">
        <ele>181.8</ele>
        <time>2026-03-29T12:54:54Z</time>
      </trkpt>
      <trkpt lat="48.65839" lon="1.88484">
        <ele>181.8</ele>
        <time>2026-03-29T12:54:55Z</time>
      </trkpt>
      <trkpt lat="48.65842" lon="1.88482">
        <ele>181.8</ele>
        <time>2026-03-29T12:54:56Z</time>
      </trkpt>
      <trkpt lat="48.65846" lon="1.88479">
        <ele>182.8</ele>
        <time>2026-03-29T12:54:57Z</time>
      </trkpt>
      <trkpt lat="48.65849" lon="1.88476">
        <ele>182.8</ele>
        <time>2026-03-29T12:54:58Z</time>
      </trkpt>
      <trkpt lat="48.65853" lon="1.88473">
        <ele>182.8</ele>
        <time>2026-03-29T12:54:59Z</time>
      </trkpt>
      <trkpt lat="48.65857" lon="1.8847">
        <ele>182.8</ele>
        <time>2026-03-29T12:55:00Z</time>
      </trkpt>
      <trkpt lat="48.6586" lon="1.88467">
        <ele>182.8</ele>
        <time>2026-03-29T12:55:01Z</time>
      </trkpt>
      <trkpt lat="48.65864" lon="1.88464">
        <ele>183</ele>
        <time>2026-03-29T12:55:02Z</time>
      </trkpt>
      <trkpt lat="48.65868" lon="1.88461">
        <ele>183</ele>
        <time>2026-03-29T12:55:03Z</time>
      </trkpt>
      <trkpt lat="48.65871" lon="1.88457">
        <ele>183</ele>
        <time>2026-03-29T12:55:04Z</time>
      </trkpt>
      <trkpt lat="48.65874" lon="1.88452">
        <ele>183</ele>
        <time>2026-03-29T12:55:05Z</time>
      </trkpt>
      <trkpt lat="48.65878" lon="1.88447">
        <ele>183.2</ele>
        <time>2026-03-29T12:55:06Z</time>
      </trkpt>
      <trkpt lat="48.65881" lon="1.88442">
        <ele>183.2</ele>
        <time>2026-03-29T12:55:07Z</time>
      </trkpt>
      <trkpt lat="48.65884" lon="1.88437">
        <ele>183.2</ele>
        <time>2026-03-29T12:55:08Z</time>
      </trkpt>
      <trkpt lat="48.65887" lon="1.8843">
        <ele>182.4</ele>
        <time>2026-03-29T12:55:09Z</time>
      </trkpt>
      <trkpt lat="48.65889" lon="1.88424">
        <ele>182.4</ele>
        <time>2026-03-29T12:55:10Z</time>
      </trkpt>
      <trkpt lat="48.65891" lon="1.88418">
        <ele>182.4</ele>
        <time>2026-03-29T12:55:11Z</time>
      </trkpt>
      <trkpt lat="48.65893" lon="1.88411">
        <ele>182.4</ele>
        <time>2026-03-29T12:55:12Z</time>
      </trkpt>
      <trkpt lat="48.65895" lon="1.88404">
        <ele>183.2</ele>
        <time>2026-03-29T12:55:13Z</time>
      </trkpt>
      <trkpt lat="48.65897" lon="1.88398">
        <ele>182.4</ele>
        <time>2026-03-29T12:55:14Z</time>
      </trkpt>
      <trkpt lat="48.65899" lon="1.88391">
        <ele>182.4</ele>
        <time>2026-03-29T12:55:15Z</time>
      </trkpt>
      <trkpt lat="48.65901" lon="1.88385">
        <ele>182.4</ele>
        <time>2026-03-29T12:55:16Z</time>
      </trkpt>
      <trkpt lat="48.65903" lon="1.88378">
        <ele>182.4</ele>
        <time>2026-03-29T12:55:17Z</time>
      </trkpt>
      <trkpt lat="48.65905" lon="1.88371">
        <ele>182.4</ele>
        <time>2026-03-29T12:55:18Z</time>
      </trkpt>
      <trkpt lat="48.65906" lon="1.88364">
        <ele>182.4</ele>
        <time>2026-03-29T12:55:19Z</time>
      </trkpt>
      <trkpt lat="48.65908" lon="1.88357">
        <ele>182.4</ele>
        <time>2026-03-29T12:55:20Z</time>
      </trkpt>
      <trkpt lat="48.65909" lon="1.8835">
        <ele>182.4</ele>
        <time>2026-03-29T12:55:21Z</time>
      </trkpt>
      <trkpt lat="48.6591" lon="1.88343">
        <ele>182.2</ele>
        <time>2026-03-29T12:55:22Z</time>
      </trkpt>
      <trkpt lat="48.65911" lon="1.88336">
        <ele>182.2</ele>
        <time>2026-03-29T12:55:23Z</time>
      </trkpt>
      <trkpt lat="48.65913" lon="1.88328">
        <ele>182.2</ele>
        <time>2026-03-29T12:55:24Z</time>
      </trkpt>
      <trkpt lat="48.65914" lon="1.88321">
        <ele>182.2</ele>
        <time>2026-03-29T12:55:25Z</time>
      </trkpt>
      <trkpt lat="48.65915" lon="1.88314">
        <ele>182.2</ele>
        <time>2026-03-29T12:55:26Z</time>
      </trkpt>
      <trkpt lat="48.65916" lon="1.88307">
        <ele>182.2</ele>
        <time>2026-03-29T12:55:27Z</time>
      </trkpt>
      <trkpt lat="48.65916" lon="1.883">
        <ele>182.2</ele>
        <time>2026-03-29T12:55:28Z</time>
      </trkpt>
      <trkpt lat="48.65916" lon="1.88293">
        <ele>182.6</ele>
        <time>2026-03-29T12:55:29Z</time>
      </trkpt>
      <trkpt lat="48.65916" lon="1.88286">
        <ele>182.4</ele>
        <time>2026-03-29T12:55:30Z</time>
      </trkpt>
      <trkpt lat="48.65917" lon="1.8828">
        <ele>182.4</ele>
        <time>2026-03-29T12:55:31Z</time>
      </trkpt>
      <trkpt lat="48.65918" lon="1.88273">
        <ele>182.4</ele>
        <time>2026-03-29T12:55:32Z</time>
      </trkpt>
      <trkpt lat="48.65919" lon="1.88266">
        <ele>182.4</ele>
        <time>2026-03-29T12:55:33Z</time>
      </trkpt>
      <trkpt lat="48.6592" lon="1.88259">
        <ele>182.4</ele>
        <time>2026-03-29T12:55:34Z</time>
      </trkpt>
      <trkpt lat="48.6592" lon="1.88252">
        <ele>182.4</ele>
        <time>2026-03-29T12:55:35Z</time>
      </trkpt>
      <trkpt lat="48.65921" lon="1.88245">
        <ele>182.4</ele>
        <time>2026-03-29T12:55:36Z</time>
      </trkpt>
      <trkpt lat="48.65922" lon="1.88238">
        <ele>182.4</ele>
        <time>2026-03-29T12:55:37Z</time>
      </trkpt>
      <trkpt lat="48.65923" lon="1.88231">
        <ele>182.4</ele>
        <time>2026-03-29T12:55:38Z</time>
      </trkpt>
      <trkpt lat="48.65924" lon="1.88225">
        <ele>182.4</ele>
        <time>2026-03-29T12:55:39Z</time>
      </trkpt>
      <trkpt lat="48.65925" lon="1.88218">
        <ele>182.4</ele>
        <time>2026-03-29T12:55:40Z</time>
      </trkpt>
      <trkpt lat="48.65926" lon="1.88211">
        <ele>182.4</ele>
        <time>2026-03-29T12:55:41Z</time>
      </trkpt>
      <trkpt lat="48.65928" lon="1.88204">
        <ele>182.8</ele>
        <time>2026-03-29T12:55:42Z</time>
      </trkpt>
      <trkpt lat="48.65929" lon="1.88197">
        <ele>182.8</ele>
        <time>2026-03-29T12:55:43Z</time>
      </trkpt>
      <trkpt lat="48.6593" lon="1.8819">
        <ele>182.8</ele>
        <time>2026-03-29T12:55:44Z</time>
      </trkpt>
      <trkpt lat="48.65931" lon="1.88184">
        <ele>181.8</ele>
        <time>2026-03-29T12:55:45Z</time>
      </trkpt>
      <trkpt lat="48.65934" lon="1.88177">
        <ele>182</ele>
        <time>2026-03-29T12:55:46Z</time>
      </trkpt>
      <trkpt lat="48.65936" lon="1.88171">
        <ele>182</ele>
        <time>2026-03-29T12:55:47Z</time>
      </trkpt>
      <trkpt lat="48.65938" lon="1.88164">
        <ele>182</ele>
        <time>2026-03-29T12:55:48Z</time>
      </trkpt>
      <trkpt lat="48.65939" lon="1.88157">
        <ele>182.2</ele>
        <time>2026-03-29T12:55:49Z</time>
      </trkpt>
      <trkpt lat="48.65941" lon="1.88149">
        <ele>182.2</ele>
        <time>2026-03-29T12:55:50Z</time>
      </trkpt>
      <trkpt lat="48.65943" lon="1.88142">
        <ele>182.2</ele>
        <time>2026-03-29T12:55:51Z</time>
      </trkpt>
      <trkpt lat="48.65945" lon="1.88134">
        <ele>182.2</ele>
        <time>2026-03-29T12:55:52Z</time>
      </trkpt>
      <trkpt lat="48.65947" lon="1.88126">
        <ele>181.8</ele>
        <time>2026-03-29T12:55:53Z</time>
      </trkpt>
      <trkpt lat="48.65948" lon="1.88119">
        <ele>182.2</ele>
        <time>2026-03-29T12:55:54Z</time>
      </trkpt>
      <trkpt lat="48.6595" lon="1.88111">
        <ele>182.2</ele>
        <time>2026-03-29T12:55:55Z</time>
      </trkpt>
      <trkpt lat="48.65952" lon="1.88104">
        <ele>182.2</ele>
        <time>2026-03-29T12:55:56Z</time>
      </trkpt>
      <trkpt lat="48.65954" lon="1.88097">
        <ele>182.2</ele>
        <time>2026-03-29T12:55:57Z</time>
      </trkpt>
      <trkpt lat="48.65956" lon="1.88089">
        <ele>182.2</ele>
        <time>2026-03-29T12:55:58Z</time>
      </trkpt>
      <trkpt lat="48.65957" lon="1.88082">
        <ele>182.2</ele>
        <time>2026-03-29T12:55:59Z</time>
      </trkpt>
      <trkpt lat="48.65959" lon="1.88075">
        <ele>182.2</ele>
        <time>2026-03-29T12:56:00Z</time>
      </trkpt>
      <trkpt lat="48.65962" lon="1.88069">
        <ele>182.2</ele>
        <time>2026-03-29T12:56:01Z</time>
      </trkpt>
      <trkpt lat="48.65966" lon="1.88064">
        <ele>182.6</ele>
        <time>2026-03-29T12:56:02Z</time>
      </trkpt>
      <trkpt lat="48.6597" lon="1.88061">
        <ele>182.6</ele>
        <time>2026-03-29T12:56:03Z</time>
      </trkpt>
      <trkpt lat="48.65975" lon="1.88059">
        <ele>182.6</ele>
        <time>2026-03-29T12:56:04Z</time>
      </trkpt>
      <trkpt lat="48.65979" lon="1.88056">
        <ele>182.2</ele>
        <time>2026-03-29T12:56:05Z</time>
      </trkpt>
      <trkpt lat="48.65983" lon="1.88054">
        <ele>182.4</ele>
        <time>2026-03-29T12:56:06Z</time>
      </trkpt>
      <trkpt lat="48.65988" lon="1.88052">
        <ele>182.4</ele>
        <time>2026-03-29T12:56:07Z</time>
      </trkpt>
      <trkpt lat="48.65993" lon="1.88052">
        <ele>182.4</ele>
        <time>2026-03-29T12:56:08Z</time>
      </trkpt>
      <trkpt lat="48.65997" lon="1.88053">
        <ele>182.2</ele>
        <time>2026-03-29T12:56:09Z</time>
      </trkpt>
      <trkpt lat="48.66002" lon="1.88055">
        <ele>182.2</ele>
        <time>2026-03-29T12:56:10Z</time>
      </trkpt>
      <trkpt lat="48.66006" lon="1.88057">
        <ele>182.2</ele>
        <time>2026-03-29T12:56:11Z</time>
      </trkpt>
      <trkpt lat="48.66011" lon="1.88058">
        <ele>182.2</ele>
        <time>2026-03-29T12:56:12Z</time>
      </trkpt>
      <trkpt lat="48.66016" lon="1.88059">
        <ele>182.4</ele>
        <time>2026-03-29T12:56:13Z</time>
      </trkpt>
      <trkpt lat="48.6602" lon="1.88061">
        <ele>182</ele>
        <time>2026-03-29T12:56:14Z</time>
      </trkpt>
      <trkpt lat="48.66025" lon="1.88062">
        <ele>182</ele>
        <time>2026-03-29T12:56:15Z</time>
      </trkpt>
      <trkpt lat="48.6603" lon="1.88063">
        <ele>182</ele>
        <time>2026-03-29T12:56:16Z</time>
      </trkpt>
      <trkpt lat="48.66035" lon="1.88064">
        <ele>182.2</ele>
        <time>2026-03-29T12:56:17Z</time>
      </trkpt>
      <trkpt lat="48.6604" lon="1.88063">
        <ele>182.2</ele>
        <time>2026-03-29T12:56:18Z</time>
      </trkpt>
      <trkpt lat="48.66043" lon="1.88063">
        <ele>182.2</ele>
        <time>2026-03-29T12:56:19Z</time>
      </trkpt>
      <trkpt lat="48.66047" lon="1.88062">
        <ele>182.2</ele>
        <time>2026-03-29T12:56:20Z</time>
      </trkpt>
      <trkpt lat="48.66051" lon="1.88059">
        <ele>182.2</ele>
        <time>2026-03-29T12:56:21Z</time>
      </trkpt>
      <trkpt lat="48.66054" lon="1.88057">
        <ele>182.2</ele>
        <time>2026-03-29T12:56:22Z</time>
      </trkpt>
      <trkpt lat="48.66056" lon="1.88052">
        <ele>182.2</ele>
        <time>2026-03-29T12:56:23Z</time>
      </trkpt>
      <trkpt lat="48.66059" lon="1.88047">
        <ele>182.2</ele>
        <time>2026-03-29T12:56:24Z</time>
      </trkpt>
      <trkpt lat="48.66063" lon="1.88043">
        <ele>182.2</ele>
        <time>2026-03-29T12:56:25Z</time>
      </trkpt>
      <trkpt lat="48.66067" lon="1.8804">
        <ele>182.4</ele>
        <time>2026-03-29T12:56:26Z</time>
      </trkpt>
      <trkpt lat="48.66071" lon="1.88036">
        <ele>182.4</ele>
        <time>2026-03-29T12:56:27Z</time>
      </trkpt>
      <trkpt lat="48.66076" lon="1.88031">
        <ele>182.4</ele>
        <time>2026-03-29T12:56:28Z</time>
      </trkpt>
      <trkpt lat="48.66081" lon="1.88027">
        <ele>182.4</ele>
        <time>2026-03-29T12:56:29Z</time>
      </trkpt>
      <trkpt lat="48.66085" lon="1.88023">
        <ele>182.4</ele>
        <time>2026-03-29T12:56:30Z</time>
      </trkpt>
      <trkpt lat="48.66089" lon="1.8802">
        <ele>182.4</ele>
        <time>2026-03-29T12:56:31Z</time>
      </trkpt>
      <trkpt lat="48.66093" lon="1.88017">
        <ele>182.4</ele>
        <time>2026-03-29T12:56:32Z</time>
      </trkpt>
      <trkpt lat="48.66098" lon="1.88014">
        <ele>182.4</ele>
        <time>2026-03-29T12:56:33Z</time>
      </trkpt>
      <trkpt lat="48.66102" lon="1.8801">
        <ele>182.6</ele>
        <time>2026-03-29T12:56:34Z</time>
      </trkpt>
      <trkpt lat="48.66107" lon="1.88009">
        <ele>182.6</ele>
        <time>2026-03-29T12:56:35Z</time>
      </trkpt>
      <trkpt lat="48.66112" lon="1.88008">
        <ele>182.6</ele>
        <time>2026-03-29T12:56:36Z</time>
      </trkpt>
      <trkpt lat="48.66117" lon="1.88008">
        <ele>182.2</ele>
        <time>2026-03-29T12:56:37Z</time>
      </trkpt>
      <trkpt lat="48.66121" lon="1.88008">
        <ele>183</ele>
        <time>2026-03-29T12:56:38Z</time>
      </trkpt>
      <trkpt lat="48.66126" lon="1.88007">
        <ele>183</ele>
        <time>2026-03-29T12:56:39Z</time>
      </trkpt>
      <trkpt lat="48.66131" lon="1.88006">
        <ele>183</ele>
        <time>2026-03-29T12:56:40Z</time>
      </trkpt>
      <trkpt lat="48.66135" lon="1.88005">
        <ele>182.2</ele>
        <time>2026-03-29T12:56:41Z</time>
      </trkpt>
      <trkpt lat="48.66139" lon="1.88002">
        <ele>181.8</ele>
        <time>2026-03-29T12:56:42Z</time>
      </trkpt>
      <trkpt lat="48.66143" lon="1.87996">
        <ele>181.8</ele>
        <time>2026-03-29T12:56:43Z</time>
      </trkpt>
      <trkpt lat="48.66147" lon="1.8799">
        <ele>181.8</ele>
        <time>2026-03-29T12:56:44Z</time>
      </trkpt>
      <trkpt lat="48.66152" lon="1.87983">
        <ele>181.8</ele>
        <time>2026-03-29T12:56:45Z</time>
      </trkpt>
      <trkpt lat="48.66157" lon="1.87977">
        <ele>181.2</ele>
        <time>2026-03-29T12:56:46Z</time>
      </trkpt>
      <trkpt lat="48.66162" lon="1.87972">
        <ele>181.2</ele>
        <time>2026-03-29T12:56:47Z</time>
      </trkpt>
      <trkpt lat="48.66166" lon="1.87966">
        <ele>181.2</ele>
        <time>2026-03-29T12:56:48Z</time>
      </trkpt>
      <trkpt lat="48.6617" lon="1.8796">
        <ele>181.8</ele>
        <time>2026-03-29T12:56:49Z</time>
      </trkpt>
      <trkpt lat="48.66173" lon="1.87954">
        <ele>182.4</ele>
        <time>2026-03-29T12:56:50Z</time>
      </trkpt>
      <trkpt lat="48.66177" lon="1.87949">
        <ele>182.4</ele>
        <time>2026-03-29T12:56:51Z</time>
      </trkpt>
      <trkpt lat="48.66181" lon="1.87944">
        <ele>182.4</ele>
        <time>2026-03-29T12:56:52Z</time>
      </trkpt>
      <trkpt lat="48.66185" lon="1.87938">
        <ele>182.4</ele>
        <time>2026-03-29T12:56:53Z</time>
      </trkpt>
      <trkpt lat="48.66188" lon="1.87931">
        <ele>182.4</ele>
        <time>2026-03-29T12:56:54Z</time>
      </trkpt>
      <trkpt lat="48.66191" lon="1.87925">
        <ele>182.4</ele>
        <time>2026-03-29T12:56:55Z</time>
      </trkpt>
      <trkpt lat="48.66195" lon="1.87919">
        <ele>182.4</ele>
        <time>2026-03-29T12:56:56Z</time>
      </trkpt>
      <trkpt lat="48.66199" lon="1.87912">
        <ele>182.4</ele>
        <time>2026-03-29T12:56:57Z</time>
      </trkpt>
      <trkpt lat="48.66202" lon="1.87906">
        <ele>182.4</ele>
        <time>2026-03-29T12:56:58Z</time>
      </trkpt>
      <trkpt lat="48.66205" lon="1.879">
        <ele>182.4</ele>
        <time>2026-03-29T12:56:59Z</time>
      </trkpt>
      <trkpt lat="48.66209" lon="1.87893">
        <ele>182.4</ele>
        <time>2026-03-29T12:57:00Z</time>
      </trkpt>
      <trkpt lat="48.66212" lon="1.87887">
        <ele>182.2</ele>
        <time>2026-03-29T12:57:01Z</time>
      </trkpt>
      <trkpt lat="48.66216" lon="1.87882">
        <ele>182.6</ele>
        <time>2026-03-29T12:57:02Z</time>
      </trkpt>
      <trkpt lat="48.66219" lon="1.87876">
        <ele>182.6</ele>
        <time>2026-03-29T12:57:03Z</time>
      </trkpt>
      <trkpt lat="48.66223" lon="1.8787">
        <ele>182.6</ele>
        <time>2026-03-29T12:57:04Z</time>
      </trkpt>
      <trkpt lat="48.66225" lon="1.87864">
        <ele>182.4</ele>
        <time>2026-03-29T12:57:05Z</time>
      </trkpt>
      <trkpt lat="48.66228" lon="1.87859">
        <ele>182.8</ele>
        <time>2026-03-29T12:57:06Z</time>
      </trkpt>
      <trkpt lat="48.66231" lon="1.87853">
        <ele>182.8</ele>
        <time>2026-03-29T12:57:07Z</time>
      </trkpt>
      <trkpt lat="48.66234" lon="1.87849">
        <ele>182.8</ele>
        <time>2026-03-29T12:57:08Z</time>
      </trkpt>
      <trkpt lat="48.66237" lon="1.87844">
        <ele>183.2</ele>
        <time>2026-03-29T12:57:09Z</time>
      </trkpt>
      <trkpt lat="48.6624" lon="1.87839">
        <ele>183.2</ele>
        <time>2026-03-29T12:57:10Z</time>
      </trkpt>
      <trkpt lat="48.66243" lon="1.87835">
        <ele>183.2</ele>
        <time>2026-03-29T12:57:11Z</time>
      </trkpt>
      <trkpt lat="48.66246" lon="1.8783">
        <ele>183.2</ele>
        <time>2026-03-29T12:57:12Z</time>
      </trkpt>
      <trkpt lat="48.66248" lon="1.87826">
        <ele>183.2</ele>
        <time>2026-03-29T12:57:13Z</time>
      </trkpt>
      <trkpt lat="48.66251" lon="1.87821">
        <ele>183.6</ele>
        <time>2026-03-29T12:57:14Z</time>
      </trkpt>
      <trkpt lat="48.66254" lon="1.87816">
        <ele>183.6</ele>
        <time>2026-03-29T12:57:15Z</time>
      </trkpt>
      <trkpt lat="48.66256" lon="1.8781">
        <ele>183.6</ele>
        <time>2026-03-29T12:57:16Z</time>
      </trkpt>
      <trkpt lat="48.66259" lon="1.87806">
        <ele>183.8</ele>
        <time>2026-03-29T12:57:17Z</time>
      </trkpt>
      <trkpt lat="48.66262" lon="1.878">
        <ele>184.4</ele>
        <time>2026-03-29T12:57:18Z</time>
      </trkpt>
      <trkpt lat="48.66265" lon="1.87795">
        <ele>184.4</ele>
        <time>2026-03-29T12:57:19Z</time>
      </trkpt>
      <trkpt lat="48.66267" lon="1.8779">
        <ele>184.4</ele>
        <time>2026-03-29T12:57:20Z</time>
      </trkpt>
      <trkpt lat="48.6627" lon="1.87785">
        <ele>184.4</ele>
        <time>2026-03-29T12:57:21Z</time>
      </trkpt>
      <trkpt lat="48.66273" lon="1.8778">
        <ele>184.2</ele>
        <time>2026-03-29T12:57:22Z</time>
      </trkpt>
      <trkpt lat="48.66275" lon="1.87775">
        <ele>184.2</ele>
        <time>2026-03-29T12:57:23Z</time>
      </trkpt>
      <trkpt lat="48.66277" lon="1.8777">
        <ele>184.2</ele>
        <time>2026-03-29T12:57:24Z</time>
      </trkpt>
      <trkpt lat="48.66279" lon="1.87765">
        <ele>184.2</ele>
        <time>2026-03-29T12:57:25Z</time>
      </trkpt>
      <trkpt lat="48.66281" lon="1.8776">
        <ele>183.6</ele>
        <time>2026-03-29T12:57:26Z</time>
      </trkpt>
      <trkpt lat="48.66284" lon="1.87755">
        <ele>183.6</ele>
        <time>2026-03-29T12:57:27Z</time>
      </trkpt>
      <trkpt lat="48.66286" lon="1.8775">
        <ele>183.6</ele>
        <time>2026-03-29T12:57:28Z</time>
      </trkpt>
      <trkpt lat="48.66289" lon="1.87745">
        <ele>184</ele>
        <time>2026-03-29T12:57:29Z</time>
      </trkpt>
      <trkpt lat="48.66291" lon="1.87739">
        <ele>183.8</ele>
        <time>2026-03-29T12:57:30Z</time>
      </trkpt>
      <trkpt lat="48.66294" lon="1.87733">
        <ele>183.8</ele>
        <time>2026-03-29T12:57:31Z</time>
      </trkpt>
      <trkpt lat="48.66297" lon="1.87726">
        <ele>183.8</ele>
        <time>2026-03-29T12:57:32Z</time>
      </trkpt>
      <trkpt lat="48.663" lon="1.87719">
        <ele>184.2</ele>
        <time>2026-03-29T12:57:33Z</time>
      </trkpt>
      <trkpt lat="48.66302" lon="1.87711">
        <ele>184</ele>
        <time>2026-03-29T12:57:34Z</time>
      </trkpt>
      <trkpt lat="48.66302" lon="1.87704">
        <ele>184</ele>
        <time>2026-03-29T12:57:35Z</time>
      </trkpt>
      <trkpt lat="48.66302" lon="1.87696">
        <ele>184</ele>
        <time>2026-03-29T12:57:36Z</time>
      </trkpt>
      <trkpt lat="48.66301" lon="1.87687">
        <ele>184</ele>
        <time>2026-03-29T12:57:37Z</time>
      </trkpt>
      <trkpt lat="48.663" lon="1.87678">
        <ele>184</ele>
        <time>2026-03-29T12:57:38Z</time>
      </trkpt>
      <trkpt lat="48.66299" lon="1.87668">
        <ele>184</ele>
        <time>2026-03-29T12:57:39Z</time>
      </trkpt>
      <trkpt lat="48.66298" lon="1.87659">
        <ele>184</ele>
        <time>2026-03-29T12:57:40Z</time>
      </trkpt>
      <trkpt lat="48.66297" lon="1.87649">
        <ele>184.2</ele>
        <time>2026-03-29T12:57:41Z</time>
      </trkpt>
      <trkpt lat="48.66296" lon="1.87641">
        <ele>183.8</ele>
        <time>2026-03-29T12:57:42Z</time>
      </trkpt>
      <trkpt lat="48.66294" lon="1.87632">
        <ele>183.8</ele>
        <time>2026-03-29T12:57:43Z</time>
      </trkpt>
      <trkpt lat="48.66293" lon="1.87623">
        <ele>183.8</ele>
        <time>2026-03-29T12:57:44Z</time>
      </trkpt>
      <trkpt lat="48.66292" lon="1.87614">
        <ele>183.8</ele>
        <time>2026-03-29T12:57:45Z</time>
      </trkpt>
      <trkpt lat="48.6629" lon="1.87606">
        <ele>183.8</ele>
        <time>2026-03-29T12:57:46Z</time>
      </trkpt>
      <trkpt lat="48.66289" lon="1.87597">
        <ele>183.8</ele>
        <time>2026-03-29T12:57:47Z</time>
      </trkpt>
      <trkpt lat="48.66288" lon="1.87588">
        <ele>183.8</ele>
        <time>2026-03-29T12:57:48Z</time>
      </trkpt>
      <trkpt lat="48.66286" lon="1.87579">
        <ele>183.8</ele>
        <time>2026-03-29T12:57:49Z</time>
      </trkpt>
      <trkpt lat="48.66284" lon="1.8757">
        <ele>183.6</ele>
        <time>2026-03-29T12:57:50Z</time>
      </trkpt>
      <trkpt lat="48.66283" lon="1.87562">
        <ele>183.6</ele>
        <time>2026-03-29T12:57:51Z</time>
      </trkpt>
      <trkpt lat="48.66281" lon="1.87553">
        <ele>183.6</ele>
        <time>2026-03-29T12:57:52Z</time>
      </trkpt>
      <trkpt lat="48.6628" lon="1.87544">
        <ele>183.6</ele>
        <time>2026-03-29T12:57:53Z</time>
      </trkpt>
      <trkpt lat="48.66278" lon="1.87535">
        <ele>183.8</ele>
        <time>2026-03-29T12:57:54Z</time>
      </trkpt>
      <trkpt lat="48.66277" lon="1.87527">
        <ele>183.8</ele>
        <time>2026-03-29T12:57:55Z</time>
      </trkpt>
      <trkpt lat="48.66276" lon="1.87519">
        <ele>183.8</ele>
        <time>2026-03-29T12:57:56Z</time>
      </trkpt>
      <trkpt lat="48.66275" lon="1.87512">
        <ele>183.8</ele>
        <time>2026-03-29T12:57:57Z</time>
      </trkpt>
      <trkpt lat="48.66274" lon="1.87504">
        <ele>184</ele>
        <time>2026-03-29T12:57:58Z</time>
      </trkpt>
      <trkpt lat="48.66272" lon="1.87496">
        <ele>184</ele>
        <time>2026-03-29T12:57:59Z</time>
      </trkpt>
      <trkpt lat="48.66272" lon="1.87489">
        <ele>184</ele>
        <time>2026-03-29T12:58:00Z</time>
      </trkpt>
      <trkpt lat="48.66274" lon="1.87482">
        <ele>184</ele>
        <time>2026-03-29T12:58:01Z</time>
      </trkpt>
      <trkpt lat="48.66276" lon="1.87477">
        <ele>182.4</ele>
        <time>2026-03-29T12:58:02Z</time>
      </trkpt>
      <trkpt lat="48.6628" lon="1.87474">
        <ele>182.4</ele>
        <time>2026-03-29T12:58:03Z</time>
      </trkpt>
      <trkpt lat="48.66284" lon="1.87472">
        <ele>182.4</ele>
        <time>2026-03-29T12:58:04Z</time>
      </trkpt>
      <trkpt lat="48.66287" lon="1.8747">
        <ele>182.4</ele>
        <time>2026-03-29T12:58:05Z</time>
      </trkpt>
      <trkpt lat="48.66291" lon="1.87468">
        <ele>183.2</ele>
        <time>2026-03-29T12:58:06Z</time>
      </trkpt>
      <trkpt lat="48.66295" lon="1.87465">
        <ele>183.2</ele>
        <time>2026-03-29T12:58:07Z</time>
      </trkpt>
      <trkpt lat="48.66299" lon="1.87464">
        <ele>183.2</ele>
        <time>2026-03-29T12:58:08Z</time>
      </trkpt>
      <trkpt lat="48.66303" lon="1.87462">
        <ele>183.2</ele>
        <time>2026-03-29T12:58:09Z</time>
      </trkpt>
      <trkpt lat="48.66307" lon="1.8746">
        <ele>183.2</ele>
        <time>2026-03-29T12:58:10Z</time>
      </trkpt>
      <trkpt lat="48.6631" lon="1.87458">
        <ele>183.2</ele>
        <time>2026-03-29T12:58:11Z</time>
      </trkpt>
      <trkpt lat="48.66314" lon="1.87456">
        <ele>183.2</ele>
        <time>2026-03-29T12:58:12Z</time>
      </trkpt>
      <trkpt lat="48.66318" lon="1.87453">
        <ele>183.2</ele>
        <time>2026-03-29T12:58:13Z</time>
      </trkpt>
      <trkpt lat="48.66322" lon="1.87451">
        <ele>183.6</ele>
        <time>2026-03-29T12:58:14Z</time>
      </trkpt>
      <trkpt lat="48.66326" lon="1.87448">
        <ele>183.6</ele>
        <time>2026-03-29T12:58:15Z</time>
      </trkpt>
      <trkpt lat="48.6633" lon="1.87446">
        <ele>183.6</ele>
        <time>2026-03-29T12:58:16Z</time>
      </trkpt>
      <trkpt lat="48.66334" lon="1.87443">
        <ele>183.6</ele>
        <time>2026-03-29T12:58:17Z</time>
      </trkpt>
      <trkpt lat="48.66339" lon="1.87441">
        <ele>183.6</ele>
        <time>2026-03-29T12:58:18Z</time>
      </trkpt>
      <trkpt lat="48.66343" lon="1.87439">
        <ele>183.6</ele>
        <time>2026-03-29T12:58:19Z</time>
      </trkpt>
      <trkpt lat="48.66347" lon="1.87436">
        <ele>183.6</ele>
        <time>2026-03-29T12:58:20Z</time>
      </trkpt>
      <trkpt lat="48.66352" lon="1.87434">
        <ele>183.6</ele>
        <time>2026-03-29T12:58:21Z</time>
      </trkpt>
      <trkpt lat="48.66356" lon="1.87433">
        <ele>183.8</ele>
        <time>2026-03-29T12:58:22Z</time>
      </trkpt>
      <trkpt lat="48.66359" lon="1.87432">
        <ele>183.8</ele>
        <time>2026-03-29T12:58:23Z</time>
      </trkpt>
      <trkpt lat="48.66363" lon="1.8743">
        <ele>183.8</ele>
        <time>2026-03-29T12:58:24Z</time>
      </trkpt>
      <trkpt lat="48.66367" lon="1.87428">
        <ele>183.8</ele>
        <time>2026-03-29T12:58:25Z</time>
      </trkpt>
      <trkpt lat="48.66371" lon="1.87426">
        <ele>183.6</ele>
        <time>2026-03-29T12:58:26Z</time>
      </trkpt>
      <trkpt lat="48.66375" lon="1.87424">
        <ele>183.6</ele>
        <time>2026-03-29T12:58:27Z</time>
      </trkpt>
      <trkpt lat="48.66379" lon="1.87422">
        <ele>183.6</ele>
        <time>2026-03-29T12:58:28Z</time>
      </trkpt>
      <trkpt lat="48.66382" lon="1.8742">
        <ele>183.8</ele>
        <time>2026-03-29T12:58:29Z</time>
      </trkpt>
      <trkpt lat="48.66386" lon="1.87418">
        <ele>183.8</ele>
        <time>2026-03-29T12:58:30Z</time>
      </trkpt>
      <trkpt lat="48.66391" lon="1.87416">
        <ele>183.8</ele>
        <time>2026-03-29T12:58:31Z</time>
      </trkpt>
      <trkpt lat="48.66395" lon="1.87414">
        <ele>183.8</ele>
        <time>2026-03-29T12:58:32Z</time>
      </trkpt>
      <trkpt lat="48.66399" lon="1.87412">
        <ele>183.8</ele>
        <time>2026-03-29T12:58:33Z</time>
      </trkpt>
      <trkpt lat="48.66403" lon="1.8741">
        <ele>184</ele>
        <time>2026-03-29T12:58:34Z</time>
      </trkpt>
      <trkpt lat="48.66408" lon="1.87408">
        <ele>184</ele>
        <time>2026-03-29T12:58:35Z</time>
      </trkpt>
      <trkpt lat="48.66412" lon="1.87405">
        <ele>184</ele>
        <time>2026-03-29T12:58:36Z</time>
      </trkpt>
      <trkpt lat="48.66416" lon="1.87403">
        <ele>184</ele>
        <time>2026-03-29T12:58:37Z</time>
      </trkpt>
      <trkpt lat="48.66419" lon="1.87401">
        <ele>184.2</ele>
        <time>2026-03-29T12:58:38Z</time>
      </trkpt>
      <trkpt lat="48.66422" lon="1.874">
        <ele>184.2</ele>
        <time>2026-03-29T12:58:39Z</time>
      </trkpt>
      <trkpt lat="48.66425" lon="1.87399">
        <ele>184.2</ele>
        <time>2026-03-29T12:58:40Z</time>
      </trkpt>
      <trkpt lat="48.66428" lon="1.87399">
        <ele>184.2</ele>
        <time>2026-03-29T12:58:41Z</time>
      </trkpt>
      <trkpt lat="48.66431" lon="1.87399">
        <ele>184.6</ele>
        <time>2026-03-29T12:58:42Z</time>
      </trkpt>
      <trkpt lat="48.66434" lon="1.87402">
        <ele>184.6</ele>
        <time>2026-03-29T12:58:43Z</time>
      </trkpt>
      <trkpt lat="48.66435" lon="1.87407">
        <ele>184.6</ele>
        <time>2026-03-29T12:58:44Z</time>
      </trkpt>
      <trkpt lat="48.66437" lon="1.87411">
        <ele>184.6</ele>
        <time>2026-03-29T12:58:45Z</time>
      </trkpt>
      <trkpt lat="48.66439" lon="1.87416">
        <ele>184.8</ele>
        <time>2026-03-29T12:58:46Z</time>
      </trkpt>
      <trkpt lat="48.66441" lon="1.87422">
        <ele>184.8</ele>
        <time>2026-03-29T12:58:47Z</time>
      </trkpt>
      <trkpt lat="48.66444" lon="1.87426">
        <ele>184.8</ele>
        <time>2026-03-29T12:58:48Z</time>
      </trkpt>
      <trkpt lat="48.66448" lon="1.8743">
        <ele>184.8</ele>
        <time>2026-03-29T12:58:49Z</time>
      </trkpt>
      <trkpt lat="48.66451" lon="1.87434">
        <ele>185</ele>
        <time>2026-03-29T12:58:50Z</time>
      </trkpt>
      <trkpt lat="48.66453" lon="1.87439">
        <ele>185</ele>
        <time>2026-03-29T12:58:51Z</time>
      </trkpt>
      <trkpt lat="48.66455" lon="1.87444">
        <ele>185</ele>
        <time>2026-03-29T12:58:52Z</time>
      </trkpt>
      <trkpt lat="48.66457" lon="1.87448">
        <ele>185</ele>
        <time>2026-03-29T12:58:53Z</time>
      </trkpt>
      <trkpt lat="48.6646" lon="1.8745">
        <ele>184.6</ele>
        <time>2026-03-29T12:58:54Z</time>
      </trkpt>
      <trkpt lat="48.66463" lon="1.8745">
        <ele>184.6</ele>
        <time>2026-03-29T12:58:55Z</time>
      </trkpt>
      <trkpt lat="48.66467" lon="1.8745">
        <ele>184.6</ele>
        <time>2026-03-29T12:58:56Z</time>
      </trkpt>
      <trkpt lat="48.66471" lon="1.87449">
        <ele>184.6</ele>
        <time>2026-03-29T12:58:57Z</time>
      </trkpt>
      <trkpt lat="48.66474" lon="1.87447">
        <ele>184.8</ele>
        <time>2026-03-29T12:58:58Z</time>
      </trkpt>
      <trkpt lat="48.66478" lon="1.87445">
        <ele>184.8</ele>
        <time>2026-03-29T12:58:59Z</time>
      </trkpt>
      <trkpt lat="48.66482" lon="1.87442">
        <ele>184.8</ele>
        <time>2026-03-29T12:59:00Z</time>
      </trkpt>
      <trkpt lat="48.66486" lon="1.8744">
        <ele>184.6</ele>
        <time>2026-03-29T12:59:01Z</time>
      </trkpt>
      <trkpt lat="48.66491" lon="1.87439">
        <ele>185</ele>
        <time>2026-03-29T12:59:02Z</time>
      </trkpt>
      <trkpt lat="48.66495" lon="1.87437">
        <ele>185</ele>
        <time>2026-03-29T12:59:03Z</time>
      </trkpt>
      <trkpt lat="48.66499" lon="1.87435">
        <ele>185</ele>
        <time>2026-03-29T12:59:04Z</time>
      </trkpt>
      <trkpt lat="48.66504" lon="1.87433">
        <ele>185</ele>
        <time>2026-03-29T12:59:05Z</time>
      </trkpt>
      <trkpt lat="48.66508" lon="1.87431">
        <ele>184.8</ele>
        <time>2026-03-29T12:59:06Z</time>
      </trkpt>
      <trkpt lat="48.66513" lon="1.8743">
        <ele>184.8</ele>
        <time>2026-03-29T12:59:07Z</time>
      </trkpt>
      <trkpt lat="48.66517" lon="1.87427">
        <ele>184.8</ele>
        <time>2026-03-29T12:59:08Z</time>
      </trkpt>
      <trkpt lat="48.66521" lon="1.87425">
        <ele>185.4</ele>
        <time>2026-03-29T12:59:09Z</time>
      </trkpt>
      <trkpt lat="48.66525" lon="1.87423">
        <ele>185.6</ele>
        <time>2026-03-29T12:59:10Z</time>
      </trkpt>
      <trkpt lat="48.66529" lon="1.87421">
        <ele>185.6</ele>
        <time>2026-03-29T12:59:11Z</time>
      </trkpt>
      <trkpt lat="48.66532" lon="1.87418">
        <ele>185.6</ele>
        <time>2026-03-29T12:59:12Z</time>
      </trkpt>
      <trkpt lat="48.66536" lon="1.87417">
        <ele>185.6</ele>
        <time>2026-03-29T12:59:13Z</time>
      </trkpt>
      <trkpt lat="48.6654" lon="1.87415">
        <ele>185.8</ele>
        <time>2026-03-29T12:59:14Z</time>
      </trkpt>
      <trkpt lat="48.66543" lon="1.87413">
        <ele>185.8</ele>
        <time>2026-03-29T12:59:15Z</time>
      </trkpt>
      <trkpt lat="48.66547" lon="1.87411">
        <ele>185.8</ele>
        <time>2026-03-29T12:59:16Z</time>
      </trkpt>
      <trkpt lat="48.6655" lon="1.87407">
        <ele>185.8</ele>
        <time>2026-03-29T12:59:17Z</time>
      </trkpt>
      <trkpt lat="48.66554" lon="1.87404">
        <ele>186</ele>
        <time>2026-03-29T12:59:18Z</time>
      </trkpt>
      <trkpt lat="48.66558" lon="1.87402">
        <ele>186</ele>
        <time>2026-03-29T12:59:19Z</time>
      </trkpt>
      <trkpt lat="48.66561" lon="1.87401">
        <ele>186</ele>
        <time>2026-03-29T12:59:20Z</time>
      </trkpt>
      <trkpt lat="48.66565" lon="1.874">
        <ele>186</ele>
        <time>2026-03-29T12:59:21Z</time>
      </trkpt>
      <trkpt lat="48.66568" lon="1.87399">
        <ele>185.6</ele>
        <time>2026-03-29T12:59:22Z</time>
      </trkpt>
      <trkpt lat="48.66572" lon="1.87397">
        <ele>185.6</ele>
        <time>2026-03-29T12:59:23Z</time>
      </trkpt>
      <trkpt lat="48.66577" lon="1.87396">
        <ele>185.6</ele>
        <time>2026-03-29T12:59:24Z</time>
      </trkpt>
      <trkpt lat="48.66581" lon="1.87395">
        <ele>186.6</ele>
        <time>2026-03-29T12:59:25Z</time>
      </trkpt>
      <trkpt lat="48.66585" lon="1.87394">
        <ele>185.6</ele>
        <time>2026-03-29T12:59:26Z</time>
      </trkpt>
      <trkpt lat="48.66589" lon="1.87393">
        <ele>185.6</ele>
        <time>2026-03-29T12:59:27Z</time>
      </trkpt>
      <trkpt lat="48.66593" lon="1.87391">
        <ele>185.6</ele>
        <time>2026-03-29T12:59:28Z</time>
      </trkpt>
      <trkpt lat="48.66596" lon="1.87389">
        <ele>185.6</ele>
        <time>2026-03-29T12:59:29Z</time>
      </trkpt>
      <trkpt lat="48.666" lon="1.87387">
        <ele>186.2</ele>
        <time>2026-03-29T12:59:30Z</time>
      </trkpt>
      <trkpt lat="48.66606" lon="1.87385">
        <ele>186.2</ele>
        <time>2026-03-29T12:59:31Z</time>
      </trkpt>
      <trkpt lat="48.66609" lon="1.87383">
        <ele>186.2</ele>
        <time>2026-03-29T12:59:32Z</time>
      </trkpt>
      <trkpt lat="48.66614" lon="1.87381">
        <ele>186</ele>
        <time>2026-03-29T12:59:33Z</time>
      </trkpt>
      <trkpt lat="48.66617" lon="1.8738">
        <ele>185.6</ele>
        <time>2026-03-29T12:59:34Z</time>
      </trkpt>
      <trkpt lat="48.66621" lon="1.87378">
        <ele>185.6</ele>
        <time>2026-03-29T12:59:35Z</time>
      </trkpt>
      <trkpt lat="48.66625" lon="1.87377">
        <ele>185.6</ele>
        <time>2026-03-29T12:59:36Z</time>
      </trkpt>
      <trkpt lat="48.6663" lon="1.87375">
        <ele>186</ele>
        <time>2026-03-29T12:59:37Z</time>
      </trkpt>
      <trkpt lat="48.66633" lon="1.87374">
        <ele>185.4</ele>
        <time>2026-03-29T12:59:38Z</time>
      </trkpt>
      <trkpt lat="48.66637" lon="1.87372">
        <ele>185.4</ele>
        <time>2026-03-29T12:59:39Z</time>
      </trkpt>
      <trkpt lat="48.66641" lon="1.8737">
        <ele>185.4</ele>
        <time>2026-03-29T12:59:40Z</time>
      </trkpt>
      <trkpt lat="48.66645" lon="1.87368">
        <ele>186.4</ele>
        <time>2026-03-29T12:59:41Z</time>
      </trkpt>
      <trkpt lat="48.66649" lon="1.87365">
        <ele>185.6</ele>
        <time>2026-03-29T12:59:42Z</time>
      </trkpt>
      <trkpt lat="48.66653" lon="1.87364">
        <ele>185.6</ele>
        <time>2026-03-29T12:59:43Z</time>
      </trkpt>
      <trkpt lat="48.66657" lon="1.87361">
        <ele>185.6</ele>
        <time>2026-03-29T12:59:44Z</time>
      </trkpt>
      <trkpt lat="48.6666" lon="1.87359">
        <ele>186</ele>
        <time>2026-03-29T12:59:45Z</time>
      </trkpt>
      <trkpt lat="48.66664" lon="1.87357">
        <ele>185.6</ele>
        <time>2026-03-29T12:59:46Z</time>
      </trkpt>
      <trkpt lat="48.66667" lon="1.87355">
        <ele>185.6</ele>
        <time>2026-03-29T12:59:47Z</time>
      </trkpt>
      <trkpt lat="48.66672" lon="1.87354">
        <ele>185.6</ele>
        <time>2026-03-29T12:59:48Z</time>
      </trkpt>
      <trkpt lat="48.66676" lon="1.87353">
        <ele>186.2</ele>
        <time>2026-03-29T12:59:49Z</time>
      </trkpt>
      <trkpt lat="48.6668" lon="1.87351">
        <ele>186.4</ele>
        <time>2026-03-29T12:59:50Z</time>
      </trkpt>
      <trkpt lat="48.66684" lon="1.87348">
        <ele>186.4</ele>
        <time>2026-03-29T12:59:51Z</time>
      </trkpt>
      <trkpt lat="48.66689" lon="1.87345">
        <ele>186.4</ele>
        <time>2026-03-29T12:59:52Z</time>
      </trkpt>
      <trkpt lat="48.66695" lon="1.87343">
        <ele>186.4</ele>
        <time>2026-03-29T12:59:53Z</time>
      </trkpt>
      <trkpt lat="48.66699" lon="1.87341">
        <ele>185.6</ele>
        <time>2026-03-29T12:59:54Z</time>
      </trkpt>
      <trkpt lat="48.66704" lon="1.87338">
        <ele>185.6</ele>
        <time>2026-03-29T12:59:55Z</time>
      </trkpt>
      <trkpt lat="48.66709" lon="1.87335">
        <ele>185.6</ele>
        <time>2026-03-29T12:59:56Z</time>
      </trkpt>
      <trkpt lat="48.66713" lon="1.87333">
        <ele>186.2</ele>
        <time>2026-03-29T12:59:57Z</time>
      </trkpt>
      <trkpt lat="48.66718" lon="1.87331">
        <ele>186.4</ele>
        <time>2026-03-29T12:59:58Z</time>
      </trkpt>
      <trkpt lat="48.66722" lon="1.87328">
        <ele>186.4</ele>
        <time>2026-03-29T12:59:59Z</time>
      </trkpt>
      <trkpt lat="48.66727" lon="1.87326">
        <ele>186.4</ele>
        <time>2026-03-29T13:00:00Z</time>
      </trkpt>
      <trkpt lat="48.66731" lon="1.87324">
        <ele>186</ele>
        <time>2026-03-29T13:00:01Z</time>
      </trkpt>
      <trkpt lat="48.66735" lon="1.87322">
        <ele>186</ele>
        <time>2026-03-29T13:00:02Z</time>
      </trkpt>
      <trkpt lat="48.6674" lon="1.8732">
        <ele>186</ele>
        <time>2026-03-29T13:00:03Z</time>
      </trkpt>
      <trkpt lat="48.66743" lon="1.87317">
        <ele>186</ele>
        <time>2026-03-29T13:00:04Z</time>
      </trkpt>
      <trkpt lat="48.66746" lon="1.87315">
        <ele>186</ele>
        <time>2026-03-29T13:00:05Z</time>
      </trkpt>
      <trkpt lat="48.6675" lon="1.87312">
        <ele>186</ele>
        <time>2026-03-29T13:00:06Z</time>
      </trkpt>
      <trkpt lat="48.66754" lon="1.87309">
        <ele>186</ele>
        <time>2026-03-29T13:00:07Z</time>
      </trkpt>
      <trkpt lat="48.66757" lon="1.87307">
        <ele>186</ele>
        <time>2026-03-29T13:00:08Z</time>
      </trkpt>
      <trkpt lat="48.66762" lon="1.87305">
        <ele>185.8</ele>
        <time>2026-03-29T13:00:09Z</time>
      </trkpt>
      <trkpt lat="48.66766" lon="1.87303">
        <ele>185.6</ele>
        <time>2026-03-29T13:00:10Z</time>
      </trkpt>
      <trkpt lat="48.66771" lon="1.87301">
        <ele>185.6</ele>
        <time>2026-03-29T13:00:11Z</time>
      </trkpt>
      <trkpt lat="48.66776" lon="1.873">
        <ele>185.6</ele>
        <time>2026-03-29T13:00:12Z</time>
      </trkpt>
      <trkpt lat="48.6678" lon="1.87298">
        <ele>186.2</ele>
        <time>2026-03-29T13:00:13Z</time>
      </trkpt>
      <trkpt lat="48.66784" lon="1.87295">
        <ele>186.2</ele>
        <time>2026-03-29T13:00:14Z</time>
      </trkpt>
      <trkpt lat="48.66788" lon="1.87293">
        <ele>186.2</ele>
        <time>2026-03-29T13:00:15Z</time>
      </trkpt>
      <trkpt lat="48.66793" lon="1.87291">
        <ele>186.2</ele>
        <time>2026-03-29T13:00:16Z</time>
      </trkpt>
      <trkpt lat="48.66797" lon="1.87289">
        <ele>186</ele>
        <time>2026-03-29T13:00:17Z</time>
      </trkpt>
      <trkpt lat="48.66802" lon="1.87286">
        <ele>186.2</ele>
        <time>2026-03-29T13:00:18Z</time>
      </trkpt>
      <trkpt lat="48.66807" lon="1.87284">
        <ele>186.2</ele>
        <time>2026-03-29T13:00:19Z</time>
      </trkpt>
      <trkpt lat="48.66811" lon="1.87282">
        <ele>186.2</ele>
        <time>2026-03-29T13:00:20Z</time>
      </trkpt>
      <trkpt lat="48.66815" lon="1.8728">
        <ele>186.2</ele>
        <time>2026-03-29T13:00:21Z</time>
      </trkpt>
      <trkpt lat="48.66818" lon="1.87278">
        <ele>186.4</ele>
        <time>2026-03-29T13:00:22Z</time>
      </trkpt>
      <trkpt lat="48.66822" lon="1.87277">
        <ele>186.4</ele>
        <time>2026-03-29T13:00:23Z</time>
      </trkpt>
      <trkpt lat="48.66826" lon="1.87275">
        <ele>186.4</ele>
        <time>2026-03-29T13:00:24Z</time>
      </trkpt>
      <trkpt lat="48.66831" lon="1.87271">
        <ele>186.4</ele>
        <time>2026-03-29T13:00:25Z</time>
      </trkpt>
      <trkpt lat="48.66836" lon="1.87269">
        <ele>186.6</ele>
        <time>2026-03-29T13:00:26Z</time>
      </trkpt>
      <trkpt lat="48.66841" lon="1.87266">
        <ele>186.6</ele>
        <time>2026-03-29T13:00:27Z</time>
      </trkpt>
      <trkpt lat="48.66845" lon="1.87265">
        <ele>186.6</ele>
        <time>2026-03-29T13:00:28Z</time>
      </trkpt>
      <trkpt lat="48.66848" lon="1.87263">
        <ele>187</ele>
        <time>2026-03-29T13:00:29Z</time>
      </trkpt>
      <trkpt lat="48.66852" lon="1.87262">
        <ele>186.6</ele>
        <time>2026-03-29T13:00:30Z</time>
      </trkpt>
      <trkpt lat="48.66856" lon="1.8726">
        <ele>186.6</ele>
        <time>2026-03-29T13:00:31Z</time>
      </trkpt>
      <trkpt lat="48.66861" lon="1.87257">
        <ele>186.6</ele>
        <time>2026-03-29T13:00:32Z</time>
      </trkpt>
      <trkpt lat="48.66865" lon="1.87255">
        <ele>186.6</ele>
        <time>2026-03-29T13:00:33Z</time>
      </trkpt>
      <trkpt lat="48.6687" lon="1.87253">
        <ele>186</ele>
        <time>2026-03-29T13:00:34Z</time>
      </trkpt>
      <trkpt lat="48.66873" lon="1.87251">
        <ele>186</ele>
        <time>2026-03-29T13:00:35Z</time>
      </trkpt>
      <trkpt lat="48.66877" lon="1.87248">
        <ele>186</ele>
        <time>2026-03-29T13:00:36Z</time>
      </trkpt>
      <trkpt lat="48.66881" lon="1.87247">
        <ele>186</ele>
        <time>2026-03-29T13:00:37Z</time>
      </trkpt>
      <trkpt lat="48.66885" lon="1.87245">
        <ele>185.8</ele>
        <time>2026-03-29T13:00:38Z</time>
      </trkpt>
      <trkpt lat="48.6689" lon="1.87242">
        <ele>185.8</ele>
        <time>2026-03-29T13:00:39Z</time>
      </trkpt>
      <trkpt lat="48.66895" lon="1.8724">
        <ele>185.8</ele>
        <time>2026-03-29T13:00:40Z</time>
      </trkpt>
      <trkpt lat="48.66899" lon="1.87239">
        <ele>186</ele>
        <time>2026-03-29T13:00:41Z</time>
      </trkpt>
      <trkpt lat="48.66903" lon="1.87238">
        <ele>186.2</ele>
        <time>2026-03-29T13:00:42Z</time>
      </trkpt>
      <trkpt lat="48.66908" lon="1.87236">
        <ele>186.2</ele>
        <time>2026-03-29T13:00:43Z</time>
      </trkpt>
      <trkpt lat="48.66913" lon="1.87233">
        <ele>186.2</ele>
        <time>2026-03-29T13:00:44Z</time>
      </trkpt>
      <trkpt lat="48.66916" lon="1.87232">
        <ele>186</ele>
        <time>2026-03-29T13:00:45Z</time>
      </trkpt>
      <trkpt lat="48.6692" lon="1.8723">
        <ele>185.4</ele>
        <time>2026-03-29T13:00:46Z</time>
      </trkpt>
      <trkpt lat="48.66925" lon="1.87229">
        <ele>185.4</ele>
        <time>2026-03-29T13:00:47Z</time>
      </trkpt>
      <trkpt lat="48.6693" lon="1.87229">
        <ele>185.4</ele>
        <time>2026-03-29T13:00:48Z</time>
      </trkpt>
      <trkpt lat="48.66935" lon="1.87228">
        <ele>185.4</ele>
        <time>2026-03-29T13:00:49Z</time>
      </trkpt>
      <trkpt lat="48.66939" lon="1.87226">
        <ele>185</ele>
        <time>2026-03-29T13:00:50Z</time>
      </trkpt>
      <trkpt lat="48.66943" lon="1.87224">
        <ele>185</ele>
        <time>2026-03-29T13:00:51Z</time>
      </trkpt>
      <trkpt lat="48.66948" lon="1.87221">
        <ele>185</ele>
        <time>2026-03-29T13:00:52Z</time>
      </trkpt>
      <trkpt lat="48.66953" lon="1.87219">
        <ele>184.4</ele>
        <time>2026-03-29T13:00:53Z</time>
      </trkpt>
      <trkpt lat="48.66958" lon="1.87215">
        <ele>183.8</ele>
        <time>2026-03-29T13:00:54Z</time>
      </trkpt>
      <trkpt lat="48.66963" lon="1.87211">
        <ele>183.8</ele>
        <time>2026-03-29T13:00:55Z</time>
      </trkpt>
      <trkpt lat="48.6697" lon="1.87208">
        <ele>183.8</ele>
        <time>2026-03-29T13:00:56Z</time>
      </trkpt>
      <trkpt lat="48.66975" lon="1.87204">
        <ele>183.8</ele>
        <time>2026-03-29T13:00:57Z</time>
      </trkpt>
      <trkpt lat="48.66982" lon="1.87199">
        <ele>183.6</ele>
        <time>2026-03-29T13:00:58Z</time>
      </trkpt>
      <trkpt lat="48.66988" lon="1.87195">
        <ele>183.6</ele>
        <time>2026-03-29T13:00:59Z</time>
      </trkpt>
      <trkpt lat="48.66994" lon="1.87191">
        <ele>183.6</ele>
        <time>2026-03-29T13:01:00Z</time>
      </trkpt>
      <trkpt lat="48.67" lon="1.87187">
        <ele>183.6</ele>
        <time>2026-03-29T13:01:01Z</time>
      </trkpt>
      <trkpt lat="48.67006" lon="1.87183">
        <ele>183.2</ele>
        <time>2026-03-29T13:01:02Z</time>
      </trkpt>
      <trkpt lat="48.67011" lon="1.8718">
        <ele>183.2</ele>
        <time>2026-03-29T13:01:03Z</time>
      </trkpt>
      <trkpt lat="48.67017" lon="1.87176">
        <ele>183.2</ele>
        <time>2026-03-29T13:01:04Z</time>
      </trkpt>
      <trkpt lat="48.67022" lon="1.87173">
        <ele>183.2</ele>
        <time>2026-03-29T13:01:05Z</time>
      </trkpt>
      <trkpt lat="48.67028" lon="1.8717">
        <ele>182.8</ele>
        <time>2026-03-29T13:01:06Z</time>
      </trkpt>
      <trkpt lat="48.67033" lon="1.87167">
        <ele>182.8</ele>
        <time>2026-03-29T13:01:07Z</time>
      </trkpt>
      <trkpt lat="48.67038" lon="1.87163">
        <ele>182.8</ele>
        <time>2026-03-29T13:01:08Z</time>
      </trkpt>
      <trkpt lat="48.67043" lon="1.8716">
        <ele>182.8</ele>
        <time>2026-03-29T13:01:09Z</time>
      </trkpt>
      <trkpt lat="48.67048" lon="1.87156">
        <ele>182.6</ele>
        <time>2026-03-29T13:01:10Z</time>
      </trkpt>
      <trkpt lat="48.67053" lon="1.87153">
        <ele>182.6</ele>
        <time>2026-03-29T13:01:11Z</time>
      </trkpt>
      <trkpt lat="48.67058" lon="1.87149">
        <ele>182.6</ele>
        <time>2026-03-29T13:01:12Z</time>
      </trkpt>
      <trkpt lat="48.67063" lon="1.87145">
        <ele>183.4</ele>
        <time>2026-03-29T13:01:13Z</time>
      </trkpt>
      <trkpt lat="48.67068" lon="1.87142">
        <ele>183.2</ele>
        <time>2026-03-29T13:01:14Z</time>
      </trkpt>
      <trkpt lat="48.67073" lon="1.87139">
        <ele>183.2</ele>
        <time>2026-03-29T13:01:15Z</time>
      </trkpt>
      <trkpt lat="48.67078" lon="1.87136">
        <ele>183.2</ele>
        <time>2026-03-29T13:01:16Z</time>
      </trkpt>
      <trkpt lat="48.67082" lon="1.87133">
        <ele>183.2</ele>
        <time>2026-03-29T13:01:17Z</time>
      </trkpt>
      <trkpt lat="48.67087" lon="1.8713">
        <ele>183.4</ele>
        <time>2026-03-29T13:01:18Z</time>
      </trkpt>
      <trkpt lat="48.67092" lon="1.87126">
        <ele>183.4</ele>
        <time>2026-03-29T13:01:19Z</time>
      </trkpt>
      <trkpt lat="48.67096" lon="1.87124">
        <ele>183.4</ele>
        <time>2026-03-29T13:01:20Z</time>
      </trkpt>
      <trkpt lat="48.671" lon="1.87121">
        <ele>183.8</ele>
        <time>2026-03-29T13:01:21Z</time>
      </trkpt>
      <trkpt lat="48.67105" lon="1.87118">
        <ele>183.4</ele>
        <time>2026-03-29T13:01:22Z</time>
      </trkpt>
      <trkpt lat="48.67109" lon="1.87115">
        <ele>183.4</ele>
        <time>2026-03-29T13:01:23Z</time>
      </trkpt>
      <trkpt lat="48.67114" lon="1.87112">
        <ele>183.4</ele>
        <time>2026-03-29T13:01:24Z</time>
      </trkpt>
      <trkpt lat="48.67119" lon="1.87109">
        <ele>183.6</ele>
        <time>2026-03-29T13:01:25Z</time>
      </trkpt>
      <trkpt lat="48.67123" lon="1.87107">
        <ele>183.6</ele>
        <time>2026-03-29T13:01:26Z</time>
      </trkpt>
      <trkpt lat="48.67128" lon="1.87104">
        <ele>183.6</ele>
        <time>2026-03-29T13:01:27Z</time>
      </trkpt>
      <trkpt lat="48.67131" lon="1.87101">
        <ele>183.6</ele>
        <time>2026-03-29T13:01:28Z</time>
      </trkpt>
      <trkpt lat="48.67135" lon="1.87098">
        <ele>183.2</ele>
        <time>2026-03-29T13:01:29Z</time>
      </trkpt>
      <trkpt lat="48.6714" lon="1.87095">
        <ele>183</ele>
        <time>2026-03-29T13:01:30Z</time>
      </trkpt>
      <trkpt lat="48.67144" lon="1.87092">
        <ele>183</ele>
        <time>2026-03-29T13:01:31Z</time>
      </trkpt>
      <trkpt lat="48.67149" lon="1.87088">
        <ele>183</ele>
        <time>2026-03-29T13:01:32Z</time>
      </trkpt>
      <trkpt lat="48.67154" lon="1.87085">
        <ele>183</ele>
        <time>2026-03-29T13:01:33Z</time>
      </trkpt>
      <trkpt lat="48.67159" lon="1.87082">
        <ele>183.6</ele>
        <time>2026-03-29T13:01:34Z</time>
      </trkpt>
      <trkpt lat="48.67164" lon="1.87078">
        <ele>183.6</ele>
        <time>2026-03-29T13:01:35Z</time>
      </trkpt>
      <trkpt lat="48.67169" lon="1.87075">
        <ele>183.6</ele>
        <time>2026-03-29T13:01:36Z</time>
      </trkpt>
      <trkpt lat="48.67173" lon="1.87072">
        <ele>183.2</ele>
        <time>2026-03-29T13:01:37Z</time>
      </trkpt>
      <trkpt lat="48.67178" lon="1.87069">
        <ele>183.2</ele>
        <time>2026-03-29T13:01:38Z</time>
      </trkpt>
      <trkpt lat="48.67183" lon="1.87066">
        <ele>183.2</ele>
        <time>2026-03-29T13:01:39Z</time>
      </trkpt>
      <trkpt lat="48.67187" lon="1.87063">
        <ele>183.2</ele>
        <time>2026-03-29T13:01:40Z</time>
      </trkpt>
      <trkpt lat="48.67192" lon="1.87059">
        <ele>183.2</ele>
        <time>2026-03-29T13:01:41Z</time>
      </trkpt>
      <trkpt lat="48.67197" lon="1.87056">
        <ele>183.2</ele>
        <time>2026-03-29T13:01:42Z</time>
      </trkpt>
      <trkpt lat="48.67202" lon="1.87053">
        <ele>183.2</ele>
        <time>2026-03-29T13:01:43Z</time>
      </trkpt>
      <trkpt lat="48.67207" lon="1.8705">
        <ele>183.2</ele>
        <time>2026-03-29T13:01:44Z</time>
      </trkpt>
      <trkpt lat="48.67211" lon="1.87048">
        <ele>183.2</ele>
        <time>2026-03-29T13:01:45Z</time>
      </trkpt>
      <trkpt lat="48.67216" lon="1.87045">
        <ele>183.6</ele>
        <time>2026-03-29T13:01:46Z</time>
      </trkpt>
      <trkpt lat="48.67221" lon="1.87042">
        <ele>183.6</ele>
        <time>2026-03-29T13:01:47Z</time>
      </trkpt>
      <trkpt lat="48.67226" lon="1.87038">
        <ele>183.6</ele>
        <time>2026-03-29T13:01:48Z</time>
      </trkpt>
      <trkpt lat="48.67231" lon="1.87035">
        <ele>183.6</ele>
        <time>2026-03-29T13:01:49Z</time>
      </trkpt>
      <trkpt lat="48.67235" lon="1.87032">
        <ele>183.2</ele>
        <time>2026-03-29T13:01:50Z</time>
      </trkpt>
      <trkpt lat="48.6724" lon="1.87028">
        <ele>183.2</ele>
        <time>2026-03-29T13:01:51Z</time>
      </trkpt>
      <trkpt lat="48.67245" lon="1.87025">
        <ele>183.2</ele>
        <time>2026-03-29T13:01:52Z</time>
      </trkpt>
      <trkpt lat="48.6725" lon="1.87023">
        <ele>183</ele>
        <time>2026-03-29T13:01:53Z</time>
      </trkpt>
      <trkpt lat="48.67255" lon="1.8702">
        <ele>183.2</ele>
        <time>2026-03-29T13:01:54Z</time>
      </trkpt>
      <trkpt lat="48.6726" lon="1.87018">
        <ele>183.2</ele>
        <time>2026-03-29T13:01:55Z</time>
      </trkpt>
      <trkpt lat="48.67265" lon="1.87019">
        <ele>183.2</ele>
        <time>2026-03-29T13:01:56Z</time>
      </trkpt>
      <trkpt lat="48.67269" lon="1.8702">
        <ele>183.2</ele>
        <time>2026-03-29T13:01:57Z</time>
      </trkpt>
      <trkpt lat="48.67274" lon="1.8702">
        <ele>183.2</ele>
        <time>2026-03-29T13:01:58Z</time>
      </trkpt>
      <trkpt lat="48.67279" lon="1.87021">
        <ele>183.2</ele>
        <time>2026-03-29T13:01:59Z</time>
      </trkpt>
      <trkpt lat="48.67284" lon="1.87021">
        <ele>183.2</ele>
        <time>2026-03-29T13:02:00Z</time>
      </trkpt>
      <trkpt lat="48.6729" lon="1.87022">
        <ele>183.2</ele>
        <time>2026-03-29T13:02:01Z</time>
      </trkpt>
      <trkpt lat="48.67295" lon="1.87023">
        <ele>182.8</ele>
        <time>2026-03-29T13:02:02Z</time>
      </trkpt>
      <trkpt lat="48.673" lon="1.87024">
        <ele>182.8</ele>
        <time>2026-03-29T13:02:03Z</time>
      </trkpt>
      <trkpt lat="48.67305" lon="1.87025">
        <ele>182.8</ele>
        <time>2026-03-29T13:02:04Z</time>
      </trkpt>
      <trkpt lat="48.6731" lon="1.87026">
        <ele>182.8</ele>
        <time>2026-03-29T13:02:05Z</time>
      </trkpt>
      <trkpt lat="48.67314" lon="1.87026">
        <ele>182.6</ele>
        <time>2026-03-29T13:02:06Z</time>
      </trkpt>
      <trkpt lat="48.67319" lon="1.87027">
        <ele>182.6</ele>
        <time>2026-03-29T13:02:07Z</time>
      </trkpt>
      <trkpt lat="48.67323" lon="1.87028">
        <ele>182.6</ele>
        <time>2026-03-29T13:02:08Z</time>
      </trkpt>
      <trkpt lat="48.67327" lon="1.87029">
        <ele>182.6</ele>
        <time>2026-03-29T13:02:09Z</time>
      </trkpt>
      <trkpt lat="48.67331" lon="1.87031">
        <ele>183.2</ele>
        <time>2026-03-29T13:02:10Z</time>
      </trkpt>
      <trkpt lat="48.67334" lon="1.87032">
        <ele>183.2</ele>
        <time>2026-03-29T13:02:11Z</time>
      </trkpt>
      <trkpt lat="48.67338" lon="1.87034">
        <ele>183.2</ele>
        <time>2026-03-29T13:02:12Z</time>
      </trkpt>
      <trkpt lat="48.67343" lon="1.87035">
        <ele>183</ele>
        <time>2026-03-29T13:02:13Z</time>
      </trkpt>
      <trkpt lat="48.67348" lon="1.87036">
        <ele>182.4</ele>
        <time>2026-03-29T13:02:14Z</time>
      </trkpt>
      <trkpt lat="48.67353" lon="1.87038">
        <ele>182.4</ele>
        <time>2026-03-29T13:02:15Z</time>
      </trkpt>
      <trkpt lat="48.67358" lon="1.87039">
        <ele>182.4</ele>
        <time>2026-03-29T13:02:16Z</time>
      </trkpt>
      <trkpt lat="48.67363" lon="1.8704">
        <ele>182.6</ele>
        <time>2026-03-29T13:02:17Z</time>
      </trkpt>
      <trkpt lat="48.67368" lon="1.87042">
        <ele>183</ele>
        <time>2026-03-29T13:02:18Z</time>
      </trkpt>
      <trkpt lat="48.67374" lon="1.87043">
        <ele>183</ele>
        <time>2026-03-29T13:02:19Z</time>
      </trkpt>
      <trkpt lat="48.67378" lon="1.87045">
        <ele>183</ele>
        <time>2026-03-29T13:02:20Z</time>
      </trkpt>
      <trkpt lat="48.67383" lon="1.87046">
        <ele>183.6</ele>
        <time>2026-03-29T13:02:21Z</time>
      </trkpt>
      <trkpt lat="48.67387" lon="1.87048">
        <ele>183.4</ele>
        <time>2026-03-29T13:02:22Z</time>
      </trkpt>
      <trkpt lat="48.67392" lon="1.87049">
        <ele>183.4</ele>
        <time>2026-03-29T13:02:23Z</time>
      </trkpt>
      <trkpt lat="48.67397" lon="1.8705">
        <ele>183.4</ele>
        <time>2026-03-29T13:02:24Z</time>
      </trkpt>
      <trkpt lat="48.67404" lon="1.8705">
        <ele>183</ele>
        <time>2026-03-29T13:02:25Z</time>
      </trkpt>
      <trkpt lat="48.67411" lon="1.87052">
        <ele>183.4</ele>
        <time>2026-03-29T13:02:26Z</time>
      </trkpt>
      <trkpt lat="48.67416" lon="1.87053">
        <ele>183.4</ele>
        <time>2026-03-29T13:02:27Z</time>
      </trkpt>
      <trkpt lat="48.67421" lon="1.87054">
        <ele>183.4</ele>
        <time>2026-03-29T13:02:28Z</time>
      </trkpt>
      <trkpt lat="48.67427" lon="1.87056">
        <ele>182.8</ele>
        <time>2026-03-29T13:02:29Z</time>
      </trkpt>
      <trkpt lat="48.67432" lon="1.87058">
        <ele>183.2</ele>
        <time>2026-03-29T13:02:30Z</time>
      </trkpt>
      <trkpt lat="48.67437" lon="1.87061">
        <ele>183.2</ele>
        <time>2026-03-29T13:02:31Z</time>
      </trkpt>
      <trkpt lat="48.67442" lon="1.87063">
        <ele>183.2</ele>
        <time>2026-03-29T13:02:32Z</time>
      </trkpt>
      <trkpt lat="48.67446" lon="1.87064">
        <ele>184.2</ele>
        <time>2026-03-29T13:02:33Z</time>
      </trkpt>
      <trkpt lat="48.67449" lon="1.87065">
        <ele>184.8</ele>
        <time>2026-03-29T13:02:34Z</time>
      </trkpt>
      <trkpt lat="48.67452" lon="1.87063">
        <ele>184.8</ele>
        <time>2026-03-29T13:02:35Z</time>
      </trkpt>
      <trkpt lat="48.67456" lon="1.87058">
        <ele>184.8</ele>
        <time>2026-03-29T13:02:36Z</time>
      </trkpt>
      <trkpt lat="48.67456" lon="1.87052">
        <ele>184.8</ele>
        <time>2026-03-29T13:02:37Z</time>
      </trkpt>
      <trkpt lat="48.67456" lon="1.87046">
        <ele>185</ele>
        <time>2026-03-29T13:02:38Z</time>
      </trkpt>
      <trkpt lat="48.67458" lon="1.87041">
        <ele>185</ele>
        <time>2026-03-29T13:02:39Z</time>
      </trkpt>
      <trkpt lat="48.67461" lon="1.87039">
        <ele>185</ele>
        <time>2026-03-29T13:02:40Z</time>
      </trkpt>
      <trkpt lat="48.67465" lon="1.87043">
        <ele>185</ele>
        <time>2026-03-29T13:02:41Z</time>
      </trkpt>
      <trkpt lat="48.67469" lon="1.87047">
        <ele>183.4</ele>
        <time>2026-03-29T13:02:42Z</time>
      </trkpt>
      <trkpt lat="48.67474" lon="1.8705">
        <ele>183.4</ele>
        <time>2026-03-29T13:02:43Z</time>
      </trkpt>
      <trkpt lat="48.6748" lon="1.87054">
        <ele>183.4</ele>
        <time>2026-03-29T13:02:44Z</time>
      </trkpt>
      <trkpt lat="48.67487" lon="1.87056">
        <ele>183.4</ele>
        <time>2026-03-29T13:02:45Z</time>
      </trkpt>
      <trkpt lat="48.67493" lon="1.87059">
        <ele>183.2</ele>
        <time>2026-03-29T13:02:46Z</time>
      </trkpt>
      <trkpt lat="48.67499" lon="1.87061">
        <ele>183.2</ele>
        <time>2026-03-29T13:02:47Z</time>
      </trkpt>
      <trkpt lat="48.67505" lon="1.87064">
        <ele>183.2</ele>
        <time>2026-03-29T13:02:48Z</time>
      </trkpt>
      <trkpt lat="48.67511" lon="1.87066">
        <ele>183.2</ele>
        <time>2026-03-29T13:02:49Z</time>
      </trkpt>
      <trkpt lat="48.67518" lon="1.8707">
        <ele>183.2</ele>
        <time>2026-03-29T13:02:50Z</time>
      </trkpt>
      <trkpt lat="48.67524" lon="1.87074">
        <ele>183.2</ele>
        <time>2026-03-29T13:02:51Z</time>
      </trkpt>
      <trkpt lat="48.6753" lon="1.87077">
        <ele>183.2</ele>
        <time>2026-03-29T13:02:52Z</time>
      </trkpt>
      <trkpt lat="48.67537" lon="1.8708">
        <ele>183.2</ele>
        <time>2026-03-29T13:02:53Z</time>
      </trkpt>
      <trkpt lat="48.67543" lon="1.87081">
        <ele>183.2</ele>
        <time>2026-03-29T13:02:54Z</time>
      </trkpt>
      <trkpt lat="48.67549" lon="1.87084">
        <ele>183.2</ele>
        <time>2026-03-29T13:02:55Z</time>
      </trkpt>
      <trkpt lat="48.67555" lon="1.87086">
        <ele>183.2</ele>
        <time>2026-03-29T13:02:56Z</time>
      </trkpt>
      <trkpt lat="48.67561" lon="1.87088">
        <ele>183.2</ele>
        <time>2026-03-29T13:02:57Z</time>
      </trkpt>
      <trkpt lat="48.67567" lon="1.8709">
        <ele>183.2</ele>
        <time>2026-03-29T13:02:58Z</time>
      </trkpt>
      <trkpt lat="48.67573" lon="1.87092">
        <ele>183.2</ele>
        <time>2026-03-29T13:02:59Z</time>
      </trkpt>
      <trkpt lat="48.67578" lon="1.87093">
        <ele>183.2</ele>
        <time>2026-03-29T13:03:00Z</time>
      </trkpt>
      <trkpt lat="48.67584" lon="1.87095">
        <ele>182.8</ele>
        <time>2026-03-29T13:03:01Z</time>
      </trkpt>
      <trkpt lat="48.6759" lon="1.87096">
        <ele>182.8</ele>
        <time>2026-03-29T13:03:02Z</time>
      </trkpt>
      <trkpt lat="48.67595" lon="1.87098">
        <ele>182.8</ele>
        <time>2026-03-29T13:03:03Z</time>
      </trkpt>
      <trkpt lat="48.676" lon="1.871">
        <ele>182.8</ele>
        <time>2026-03-29T13:03:04Z</time>
      </trkpt>
      <trkpt lat="48.67606" lon="1.87102">
        <ele>182.8</ele>
        <time>2026-03-29T13:03:05Z</time>
      </trkpt>
      <trkpt lat="48.67612" lon="1.87104">
        <ele>183.4</ele>
        <time>2026-03-29T13:03:06Z</time>
      </trkpt>
      <trkpt lat="48.67618" lon="1.87106">
        <ele>183.4</ele>
        <time>2026-03-29T13:03:07Z</time>
      </trkpt>
      <trkpt lat="48.67623" lon="1.87109">
        <ele>183.4</ele>
        <time>2026-03-29T13:03:08Z</time>
      </trkpt>
      <trkpt lat="48.67629" lon="1.87112">
        <ele>183.4</ele>
        <time>2026-03-29T13:03:09Z</time>
      </trkpt>
      <trkpt lat="48.67635" lon="1.87113">
        <ele>183</ele>
        <time>2026-03-29T13:03:10Z</time>
      </trkpt>
      <trkpt lat="48.67641" lon="1.87115">
        <ele>183</ele>
        <time>2026-03-29T13:03:11Z</time>
      </trkpt>
      <trkpt lat="48.67647" lon="1.87118">
        <ele>183</ele>
        <time>2026-03-29T13:03:12Z</time>
      </trkpt>
      <trkpt lat="48.67653" lon="1.8712">
        <ele>183</ele>
        <time>2026-03-29T13:03:13Z</time>
      </trkpt>
      <trkpt lat="48.67659" lon="1.87121">
        <ele>183.2</ele>
        <time>2026-03-29T13:03:14Z</time>
      </trkpt>
      <trkpt lat="48.67665" lon="1.87122">
        <ele>183.2</ele>
        <time>2026-03-29T13:03:15Z</time>
      </trkpt>
      <trkpt lat="48.67671" lon="1.87122">
        <ele>183.2</ele>
        <time>2026-03-29T13:03:16Z</time>
      </trkpt>
      <trkpt lat="48.67677" lon="1.87122">
        <ele>183.2</ele>
        <time>2026-03-29T13:03:17Z</time>
      </trkpt>
      <trkpt lat="48.67683" lon="1.87122">
        <ele>183.4</ele>
        <time>2026-03-29T13:03:18Z</time>
      </trkpt>
      <trkpt lat="48.67688" lon="1.87121">
        <ele>183.4</ele>
        <time>2026-03-29T13:03:19Z</time>
      </trkpt>
      <trkpt lat="48.67694" lon="1.8712">
        <ele>183.4</ele>
        <time>2026-03-29T13:03:20Z</time>
      </trkpt>
      <trkpt lat="48.67699" lon="1.87119">
        <ele>183.4</ele>
        <time>2026-03-29T13:03:21Z</time>
      </trkpt>
      <trkpt lat="48.67704" lon="1.87118">
        <ele>184</ele>
        <time>2026-03-29T13:03:22Z</time>
      </trkpt>
      <trkpt lat="48.67709" lon="1.87117">
        <ele>184</ele>
        <time>2026-03-29T13:03:23Z</time>
      </trkpt>
      <trkpt lat="48.67714" lon="1.87116">
        <ele>184</ele>
        <time>2026-03-29T13:03:24Z</time>
      </trkpt>
      <trkpt lat="48.67719" lon="1.87116">
        <ele>184</ele>
        <time>2026-03-29T13:03:25Z</time>
      </trkpt>
      <trkpt lat="48.67723" lon="1.87115">
        <ele>185.2</ele>
        <time>2026-03-29T13:03:26Z</time>
      </trkpt>
      <trkpt lat="48.67727" lon="1.87114">
        <ele>185.2</ele>
        <time>2026-03-29T13:03:27Z</time>
      </trkpt>
      <trkpt lat="48.6773" lon="1.87117">
        <ele>185.2</ele>
        <time>2026-03-29T13:03:28Z</time>
      </trkpt>
      <trkpt lat="48.67732" lon="1.87121">
        <ele>185.2</ele>
        <time>2026-03-29T13:03:29Z</time>
      </trkpt>
      <trkpt lat="48.67733" lon="1.87126">
        <ele>185.2</ele>
        <time>2026-03-29T13:03:30Z</time>
      </trkpt>
      <trkpt lat="48.67733" lon="1.87131">
        <ele>185.2</ele>
        <time>2026-03-29T13:03:31Z</time>
      </trkpt>
      <trkpt lat="48.67733" lon="1.87137">
        <ele>185.2</ele>
        <time>2026-03-29T13:03:32Z</time>
      </trkpt>
      <trkpt lat="48.67734" lon="1.87141">
        <ele>185.2</ele>
        <time>2026-03-29T13:03:33Z</time>
      </trkpt>
      <trkpt lat="48.67737" lon="1.87143">
        <ele>185.2</ele>
        <time>2026-03-29T13:03:34Z</time>
      </trkpt>
      <trkpt lat="48.6774" lon="1.87143">
        <ele>185.2</ele>
        <time>2026-03-29T13:03:35Z</time>
      </trkpt>
      <trkpt lat="48.67744" lon="1.87143">
        <ele>185.2</ele>
        <time>2026-03-29T13:03:36Z</time>
      </trkpt>
      <trkpt lat="48.67748" lon="1.87142">
        <ele>185.2</ele>
        <time>2026-03-29T13:03:37Z</time>
      </trkpt>
      <trkpt lat="48.67753" lon="1.8714">
        <ele>184.4</ele>
        <time>2026-03-29T13:03:38Z</time>
      </trkpt>
      <trkpt lat="48.67758" lon="1.87138">
        <ele>184.4</ele>
        <time>2026-03-29T13:03:39Z</time>
      </trkpt>
      <trkpt lat="48.67764" lon="1.87136">
        <ele>184.4</ele>
        <time>2026-03-29T13:03:40Z</time>
      </trkpt>
      <trkpt lat="48.67769" lon="1.87133">
        <ele>183.6</ele>
        <time>2026-03-29T13:03:41Z</time>
      </trkpt>
      <trkpt lat="48.67774" lon="1.87132">
        <ele>182.6</ele>
        <time>2026-03-29T13:03:42Z</time>
      </trkpt>
      <trkpt lat="48.67778" lon="1.87133">
        <ele>182.6</ele>
        <time>2026-03-29T13:03:43Z</time>
      </trkpt>
      <trkpt lat="48.67782" lon="1.87134">
        <ele>182.6</ele>
        <time>2026-03-29T13:03:44Z</time>
      </trkpt>
      <trkpt lat="48.67786" lon="1.87133">
        <ele>182.6</ele>
        <time>2026-03-29T13:03:45Z</time>
      </trkpt>
      <trkpt lat="48.6779" lon="1.87132">
        <ele>182.8</ele>
        <time>2026-03-29T13:03:46Z</time>
      </trkpt>
      <trkpt lat="48.67794" lon="1.87132">
        <ele>182.8</ele>
        <time>2026-03-29T13:03:47Z</time>
      </trkpt>
      <trkpt lat="48.67798" lon="1.87132">
        <ele>182.8</ele>
        <time>2026-03-29T13:03:48Z</time>
      </trkpt>
      <trkpt lat="48.67803" lon="1.87131">
        <ele>182.8</ele>
        <time>2026-03-29T13:03:49Z</time>
      </trkpt>
      <trkpt lat="48.67808" lon="1.8713">
        <ele>182.4</ele>
        <time>2026-03-29T13:03:50Z</time>
      </trkpt>
      <trkpt lat="48.67812" lon="1.87129">
        <ele>182.4</ele>
        <time>2026-03-29T13:03:51Z</time>
      </trkpt>
      <trkpt lat="48.67817" lon="1.87129">
        <ele>182.4</ele>
        <time>2026-03-29T13:03:52Z</time>
      </trkpt>
      <trkpt lat="48.67822" lon="1.87128">
        <ele>182.4</ele>
        <time>2026-03-29T13:03:53Z</time>
      </trkpt>
      <trkpt lat="48.67827" lon="1.87128">
        <ele>182.6</ele>
        <time>2026-03-29T13:03:54Z</time>
      </trkpt>
      <trkpt lat="48.67832" lon="1.87128">
        <ele>182.6</ele>
        <time>2026-03-29T13:03:55Z</time>
      </trkpt>
      <trkpt lat="48.67837" lon="1.87127">
        <ele>182.6</ele>
        <time>2026-03-29T13:03:56Z</time>
      </trkpt>
      <trkpt lat="48.67842" lon="1.87127">
        <ele>182.8</ele>
        <time>2026-03-29T13:03:57Z</time>
      </trkpt>
      <trkpt lat="48.67847" lon="1.87126">
        <ele>182.8</ele>
        <time>2026-03-29T13:03:58Z</time>
      </trkpt>
      <trkpt lat="48.67852" lon="1.87126">
        <ele>182.8</ele>
        <time>2026-03-29T13:03:59Z</time>
      </trkpt>
      <trkpt lat="48.67857" lon="1.87126">
        <ele>182.8</ele>
        <time>2026-03-29T13:04:00Z</time>
      </trkpt>
      <trkpt lat="48.67861" lon="1.87125">
        <ele>182.8</ele>
        <time>2026-03-29T13:04:01Z</time>
      </trkpt>
      <trkpt lat="48.67866" lon="1.87124">
        <ele>183</ele>
        <time>2026-03-29T13:04:02Z</time>
      </trkpt>
      <trkpt lat="48.67871" lon="1.87124">
        <ele>183</ele>
        <time>2026-03-29T13:04:03Z</time>
      </trkpt>
      <trkpt lat="48.67876" lon="1.87123">
        <ele>183</ele>
        <time>2026-03-29T13:04:04Z</time>
      </trkpt>
      <trkpt lat="48.67881" lon="1.87124">
        <ele>183</ele>
        <time>2026-03-29T13:04:05Z</time>
      </trkpt>
      <trkpt lat="48.67886" lon="1.87124">
        <ele>182.8</ele>
        <time>2026-03-29T13:04:06Z</time>
      </trkpt>
      <trkpt lat="48.67891" lon="1.87123">
        <ele>182.8</ele>
        <time>2026-03-29T13:04:07Z</time>
      </trkpt>
      <trkpt lat="48.67896" lon="1.87122">
        <ele>182.8</ele>
        <time>2026-03-29T13:04:08Z</time>
      </trkpt>
      <trkpt lat="48.67901" lon="1.87122">
        <ele>182.8</ele>
        <time>2026-03-29T13:04:09Z</time>
      </trkpt>
      <trkpt lat="48.67906" lon="1.87121">
        <ele>183</ele>
        <time>2026-03-29T13:04:10Z</time>
      </trkpt>
      <trkpt lat="48.67912" lon="1.8712">
        <ele>183</ele>
        <time>2026-03-29T13:04:11Z</time>
      </trkpt>
      <trkpt lat="48.67917" lon="1.87119">
        <ele>183</ele>
        <time>2026-03-29T13:04:12Z</time>
      </trkpt>
      <trkpt lat="48.67923" lon="1.87117">
        <ele>183</ele>
        <time>2026-03-29T13:04:13Z</time>
      </trkpt>
      <trkpt lat="48.67928" lon="1.87117">
        <ele>182.6</ele>
        <time>2026-03-29T13:04:14Z</time>
      </trkpt>
      <trkpt lat="48.67934" lon="1.87116">
        <ele>182.6</ele>
        <time>2026-03-29T13:04:15Z</time>
      </trkpt>
      <trkpt lat="48.67939" lon="1.87114">
        <ele>182.6</ele>
        <time>2026-03-29T13:04:16Z</time>
      </trkpt>
      <trkpt lat="48.67945" lon="1.87113">
        <ele>182.6</ele>
        <time>2026-03-29T13:04:17Z</time>
      </trkpt>
      <trkpt lat="48.6795" lon="1.87112">
        <ele>182.6</ele>
        <time>2026-03-29T13:04:18Z</time>
      </trkpt>
      <trkpt lat="48.67956" lon="1.8711">
        <ele>182.6</ele>
        <time>2026-03-29T13:04:19Z</time>
      </trkpt>
      <trkpt lat="48.67961" lon="1.87108">
        <ele>182.6</ele>
        <time>2026-03-29T13:04:20Z</time>
      </trkpt>
      <trkpt lat="48.67967" lon="1.87107">
        <ele>182.8</ele>
        <time>2026-03-29T13:04:21Z</time>
      </trkpt>
      <trkpt lat="48.67972" lon="1.87106">
        <ele>183</ele>
        <time>2026-03-29T13:04:22Z</time>
      </trkpt>
      <trkpt lat="48.67977" lon="1.87104">
        <ele>183</ele>
        <time>2026-03-29T13:04:23Z</time>
      </trkpt>
      <trkpt lat="48.67982" lon="1.87103">
        <ele>183</ele>
        <time>2026-03-29T13:04:24Z</time>
      </trkpt>
      <trkpt lat="48.67987" lon="1.87101">
        <ele>183</ele>
        <time>2026-03-29T13:04:25Z</time>
      </trkpt>
      <trkpt lat="48.67993" lon="1.871">
        <ele>183.2</ele>
        <time>2026-03-29T13:04:26Z</time>
      </trkpt>
      <trkpt lat="48.67997" lon="1.87098">
        <ele>183.2</ele>
        <time>2026-03-29T13:04:27Z</time>
      </trkpt>
      <trkpt lat="48.68002" lon="1.87095">
        <ele>183.2</ele>
        <time>2026-03-29T13:04:28Z</time>
      </trkpt>
      <trkpt lat="48.68007" lon="1.87094">
        <ele>183.2</ele>
        <time>2026-03-29T13:04:29Z</time>
      </trkpt>
      <trkpt lat="48.68012" lon="1.87092">
        <ele>183.2</ele>
        <time>2026-03-29T13:04:30Z</time>
      </trkpt>
      <trkpt lat="48.68017" lon="1.87091">
        <ele>183.2</ele>
        <time>2026-03-29T13:04:31Z</time>
      </trkpt>
      <trkpt lat="48.68022" lon="1.8709">
        <ele>183.2</ele>
        <time>2026-03-29T13:04:32Z</time>
      </trkpt>
      <trkpt lat="48.68026" lon="1.8709">
        <ele>183.6</ele>
        <time>2026-03-29T13:04:33Z</time>
      </trkpt>
      <trkpt lat="48.6803" lon="1.8709">
        <ele>184</ele>
        <time>2026-03-29T13:04:34Z</time>
      </trkpt>
      <trkpt lat="48.68034" lon="1.8709">
        <ele>184</ele>
        <time>2026-03-29T13:04:35Z</time>
      </trkpt>
      <trkpt lat="48.68038" lon="1.87089">
        <ele>184</ele>
        <time>2026-03-29T13:04:36Z</time>
      </trkpt>
      <trkpt lat="48.68041" lon="1.87089">
        <ele>184.8</ele>
        <time>2026-03-29T13:04:37Z</time>
      </trkpt>
      <trkpt lat="48.68045" lon="1.87089">
        <ele>185</ele>
        <time>2026-03-29T13:04:38Z</time>
      </trkpt>
      <trkpt lat="48.68047" lon="1.87087">
        <ele>185</ele>
        <time>2026-03-29T13:04:39Z</time>
      </trkpt>
      <trkpt lat="48.6805" lon="1.87083">
        <ele>185</ele>
        <time>2026-03-29T13:04:40Z</time>
      </trkpt>
      <trkpt lat="48.68052" lon="1.8708">
        <ele>186</ele>
        <time>2026-03-29T13:04:41Z</time>
      </trkpt>
      <trkpt lat="48.68055" lon="1.87076">
        <ele>185.8</ele>
        <time>2026-03-29T13:04:42Z</time>
      </trkpt>
      <trkpt lat="48.68057" lon="1.87072">
        <ele>185.8</ele>
        <time>2026-03-29T13:04:43Z</time>
      </trkpt>
      <trkpt lat="48.68061" lon="1.8707">
        <ele>185.8</ele>
        <time>2026-03-29T13:04:44Z</time>
      </trkpt>
      <trkpt lat="48.68065" lon="1.87068">
        <ele>186</ele>
        <time>2026-03-29T13:04:45Z</time>
      </trkpt>
      <trkpt lat="48.68069" lon="1.87067">
        <ele>186</ele>
        <time>2026-03-29T13:04:46Z</time>
      </trkpt>
      <trkpt lat="48.68074" lon="1.87066">
        <ele>186</ele>
        <time>2026-03-29T13:04:47Z</time>
      </trkpt>
      <trkpt lat="48.68078" lon="1.87064">
        <ele>186</ele>
        <time>2026-03-29T13:04:48Z</time>
      </trkpt>
      <trkpt lat="48.68082" lon="1.87063">
        <ele>186.8</ele>
        <time>2026-03-29T13:04:49Z</time>
      </trkpt>
      <trkpt lat="48.68086" lon="1.87062">
        <ele>186.6</ele>
        <time>2026-03-29T13:04:50Z</time>
      </trkpt>
      <trkpt lat="48.6809" lon="1.87061">
        <ele>186.6</ele>
        <time>2026-03-29T13:04:51Z</time>
      </trkpt>
      <trkpt lat="48.68094" lon="1.87059">
        <ele>186.6</ele>
        <time>2026-03-29T13:04:52Z</time>
      </trkpt>
      <trkpt lat="48.68097" lon="1.87057">
        <ele>186.6</ele>
        <time>2026-03-29T13:04:53Z</time>
      </trkpt>
      <trkpt lat="48.68102" lon="1.87056">
        <ele>186.6</ele>
        <time>2026-03-29T13:04:54Z</time>
      </trkpt>
      <trkpt lat="48.68106" lon="1.87053">
        <ele>186.6</ele>
        <time>2026-03-29T13:04:55Z</time>
      </trkpt>
      <trkpt lat="48.6811" lon="1.87052">
        <ele>186.6</ele>
        <time>2026-03-29T13:04:56Z</time>
      </trkpt>
      <trkpt lat="48.68114" lon="1.87051">
        <ele>186.6</ele>
        <time>2026-03-29T13:04:57Z</time>
      </trkpt>
      <trkpt lat="48.68118" lon="1.87049">
        <ele>186.4</ele>
        <time>2026-03-29T13:04:58Z</time>
      </trkpt>
      <trkpt lat="48.68122" lon="1.87047">
        <ele>186.4</ele>
        <time>2026-03-29T13:04:59Z</time>
      </trkpt>
      <trkpt lat="48.68127" lon="1.87046">
        <ele>186.4</ele>
        <time>2026-03-29T13:05:00Z</time>
      </trkpt>
      <trkpt lat="48.68131" lon="1.87045">
        <ele>187</ele>
        <time>2026-03-29T13:05:01Z</time>
      </trkpt>
      <trkpt lat="48.68135" lon="1.87044">
        <ele>187</ele>
        <time>2026-03-29T13:05:02Z</time>
      </trkpt>
      <trkpt lat="48.68141" lon="1.87043">
        <ele>187</ele>
        <time>2026-03-29T13:05:03Z</time>
      </trkpt>
      <trkpt lat="48.68146" lon="1.87042">
        <ele>187</ele>
        <time>2026-03-29T13:05:04Z</time>
      </trkpt>
      <trkpt lat="48.6815" lon="1.87041">
        <ele>187</ele>
        <time>2026-03-29T13:05:05Z</time>
      </trkpt>
      <trkpt lat="48.68155" lon="1.8704">
        <ele>186.8</ele>
        <time>2026-03-29T13:05:06Z</time>
      </trkpt>
      <trkpt lat="48.68159" lon="1.87038">
        <ele>186.8</ele>
        <time>2026-03-29T13:05:07Z</time>
      </trkpt>
      <trkpt lat="48.68164" lon="1.87037">
        <ele>186.8</ele>
        <time>2026-03-29T13:05:08Z</time>
      </trkpt>
      <trkpt lat="48.68168" lon="1.87035">
        <ele>186.4</ele>
        <time>2026-03-29T13:05:09Z</time>
      </trkpt>
      <trkpt lat="48.68173" lon="1.87032">
        <ele>186.8</ele>
        <time>2026-03-29T13:05:10Z</time>
      </trkpt>
      <trkpt lat="48.68178" lon="1.8703">
        <ele>186.8</ele>
        <time>2026-03-29T13:05:11Z</time>
      </trkpt>
      <trkpt lat="48.68182" lon="1.87028">
        <ele>186.8</ele>
        <time>2026-03-29T13:05:12Z</time>
      </trkpt>
      <trkpt lat="48.68187" lon="1.87026">
        <ele>186.4</ele>
        <time>2026-03-29T13:05:13Z</time>
      </trkpt>
      <trkpt lat="48.68191" lon="1.87024">
        <ele>186.6</ele>
        <time>2026-03-29T13:05:14Z</time>
      </trkpt>
      <trkpt lat="48.68196" lon="1.87023">
        <ele>186.6</ele>
        <time>2026-03-29T13:05:15Z</time>
      </trkpt>
      <trkpt lat="48.682" lon="1.87021">
        <ele>186.6</ele>
        <time>2026-03-29T13:05:16Z</time>
      </trkpt>
      <trkpt lat="48.68205" lon="1.87019">
        <ele>186.4</ele>
        <time>2026-03-29T13:05:17Z</time>
      </trkpt>
      <trkpt lat="48.6821" lon="1.87017">
        <ele>186.6</ele>
        <time>2026-03-29T13:05:18Z</time>
      </trkpt>
      <trkpt lat="48.68214" lon="1.87015">
        <ele>186.6</ele>
        <time>2026-03-29T13:05:19Z</time>
      </trkpt>
      <trkpt lat="48.68219" lon="1.87014">
        <ele>186.6</ele>
        <time>2026-03-29T13:05:20Z</time>
      </trkpt>
      <trkpt lat="48.68223" lon="1.87012">
        <ele>186.6</ele>
        <time>2026-03-29T13:05:21Z</time>
      </trkpt>
      <trkpt lat="48.68228" lon="1.87011">
        <ele>187</ele>
        <time>2026-03-29T13:05:22Z</time>
      </trkpt>
      <trkpt lat="48.68232" lon="1.87009">
        <ele>187</ele>
        <time>2026-03-29T13:05:23Z</time>
      </trkpt>
      <trkpt lat="48.68236" lon="1.87008">
        <ele>187</ele>
        <time>2026-03-29T13:05:24Z</time>
      </trkpt>
      <trkpt lat="48.68241" lon="1.87006">
        <ele>186.6</ele>
        <time>2026-03-29T13:05:25Z</time>
      </trkpt>
      <trkpt lat="48.68246" lon="1.87005">
        <ele>186.4</ele>
        <time>2026-03-29T13:05:26Z</time>
      </trkpt>
      <trkpt lat="48.6825" lon="1.87004">
        <ele>186.4</ele>
        <time>2026-03-29T13:05:27Z</time>
      </trkpt>
      <trkpt lat="48.68255" lon="1.87002">
        <ele>186.4</ele>
        <time>2026-03-29T13:05:28Z</time>
      </trkpt>
      <trkpt lat="48.6826" lon="1.87001">
        <ele>186.8</ele>
        <time>2026-03-29T13:05:29Z</time>
      </trkpt>
      <trkpt lat="48.68265" lon="1.86999">
        <ele>186.6</ele>
        <time>2026-03-29T13:05:30Z</time>
      </trkpt>
      <trkpt lat="48.68269" lon="1.86998">
        <ele>186.6</ele>
        <time>2026-03-29T13:05:31Z</time>
      </trkpt>
      <trkpt lat="48.68273" lon="1.86997">
        <ele>186.6</ele>
        <time>2026-03-29T13:05:32Z</time>
      </trkpt>
      <trkpt lat="48.68278" lon="1.86995">
        <ele>187</ele>
        <time>2026-03-29T13:05:33Z</time>
      </trkpt>
      <trkpt lat="48.68282" lon="1.86994">
        <ele>187</ele>
        <time>2026-03-29T13:05:34Z</time>
      </trkpt>
      <trkpt lat="48.68287" lon="1.86993">
        <ele>187</ele>
        <time>2026-03-29T13:05:35Z</time>
      </trkpt>
      <trkpt lat="48.68292" lon="1.86993">
        <ele>187</ele>
        <time>2026-03-29T13:05:36Z</time>
      </trkpt>
      <trkpt lat="48.68296" lon="1.86993">
        <ele>187</ele>
        <time>2026-03-29T13:05:37Z</time>
      </trkpt>
      <trkpt lat="48.683" lon="1.86991">
        <ele>187</ele>
        <time>2026-03-29T13:05:38Z</time>
      </trkpt>
      <trkpt lat="48.68305" lon="1.8699">
        <ele>187</ele>
        <time>2026-03-29T13:05:39Z</time>
      </trkpt>
      <trkpt lat="48.68311" lon="1.86989">
        <ele>187</ele>
        <time>2026-03-29T13:05:40Z</time>
      </trkpt>
      <trkpt lat="48.68316" lon="1.86988">
        <ele>187</ele>
        <time>2026-03-29T13:05:41Z</time>
      </trkpt>
      <trkpt lat="48.68321" lon="1.86986">
        <ele>187.4</ele>
        <time>2026-03-29T13:05:42Z</time>
      </trkpt>
      <trkpt lat="48.68325" lon="1.86985">
        <ele>187.4</ele>
        <time>2026-03-29T13:05:43Z</time>
      </trkpt>
      <trkpt lat="48.6833" lon="1.86983">
        <ele>187.4</ele>
        <time>2026-03-29T13:05:44Z</time>
      </trkpt>
      <trkpt lat="48.68335" lon="1.86981">
        <ele>187.2</ele>
        <time>2026-03-29T13:05:45Z</time>
      </trkpt>
      <trkpt lat="48.6834" lon="1.86979">
        <ele>187.4</ele>
        <time>2026-03-29T13:05:46Z</time>
      </trkpt>
      <trkpt lat="48.68344" lon="1.86977">
        <ele>187.4</ele>
        <time>2026-03-29T13:05:47Z</time>
      </trkpt>
      <trkpt lat="48.6835" lon="1.86974">
        <ele>187.4</ele>
        <time>2026-03-29T13:05:48Z</time>
      </trkpt>
      <trkpt lat="48.68354" lon="1.86973">
        <ele>187.2</ele>
        <time>2026-03-29T13:05:49Z</time>
      </trkpt>
      <trkpt lat="48.6836" lon="1.8697">
        <ele>187.4</ele>
        <time>2026-03-29T13:05:50Z</time>
      </trkpt>
      <trkpt lat="48.68365" lon="1.86967">
        <ele>187.4</ele>
        <time>2026-03-29T13:05:51Z</time>
      </trkpt>
      <trkpt lat="48.68371" lon="1.86966">
        <ele>187.4</ele>
        <time>2026-03-29T13:05:52Z</time>
      </trkpt>
      <trkpt lat="48.68377" lon="1.86964">
        <ele>187.4</ele>
        <time>2026-03-29T13:05:53Z</time>
      </trkpt>
      <trkpt lat="48.68381" lon="1.86962">
        <ele>187.6</ele>
        <time>2026-03-29T13:05:54Z</time>
      </trkpt>
      <trkpt lat="48.68386" lon="1.86961">
        <ele>187.6</ele>
        <time>2026-03-29T13:05:55Z</time>
      </trkpt>
      <trkpt lat="48.68391" lon="1.86959">
        <ele>187.6</ele>
        <time>2026-03-29T13:05:56Z</time>
      </trkpt>
      <trkpt lat="48.68396" lon="1.86957">
        <ele>187.6</ele>
        <time>2026-03-29T13:05:57Z</time>
      </trkpt>
      <trkpt lat="48.68402" lon="1.86956">
        <ele>187.6</ele>
        <time>2026-03-29T13:05:58Z</time>
      </trkpt>
      <trkpt lat="48.68407" lon="1.86954">
        <ele>187.6</ele>
        <time>2026-03-29T13:05:59Z</time>
      </trkpt>
      <trkpt lat="48.68411" lon="1.86953">
        <ele>187.6</ele>
        <time>2026-03-29T13:06:00Z</time>
      </trkpt>
      <trkpt lat="48.68415" lon="1.86949">
        <ele>187.8</ele>
        <time>2026-03-29T13:06:01Z</time>
      </trkpt>
      <trkpt lat="48.68419" lon="1.86948">
        <ele>187.4</ele>
        <time>2026-03-29T13:06:02Z</time>
      </trkpt>
      <trkpt lat="48.68424" lon="1.86945">
        <ele>187.4</ele>
        <time>2026-03-29T13:06:03Z</time>
      </trkpt>
      <trkpt lat="48.6843" lon="1.86942">
        <ele>187.4</ele>
        <time>2026-03-29T13:06:04Z</time>
      </trkpt>
      <trkpt lat="48.68436" lon="1.8694">
        <ele>187.4</ele>
        <time>2026-03-29T13:06:05Z</time>
      </trkpt>
      <trkpt lat="48.68442" lon="1.86937">
        <ele>187.4</ele>
        <time>2026-03-29T13:06:06Z</time>
      </trkpt>
      <trkpt lat="48.68447" lon="1.86933">
        <ele>187.4</ele>
        <time>2026-03-29T13:06:07Z</time>
      </trkpt>
      <trkpt lat="48.68452" lon="1.86931">
        <ele>187.4</ele>
        <time>2026-03-29T13:06:08Z</time>
      </trkpt>
      <trkpt lat="48.68458" lon="1.86928">
        <ele>187.2</ele>
        <time>2026-03-29T13:06:09Z</time>
      </trkpt>
      <trkpt lat="48.68464" lon="1.86926">
        <ele>187</ele>
        <time>2026-03-29T13:06:10Z</time>
      </trkpt>
      <trkpt lat="48.68469" lon="1.86924">
        <ele>187</ele>
        <time>2026-03-29T13:06:11Z</time>
      </trkpt>
      <trkpt lat="48.68474" lon="1.86922">
        <ele>187</ele>
        <time>2026-03-29T13:06:12Z</time>
      </trkpt>
      <trkpt lat="48.68479" lon="1.8692">
        <ele>187</ele>
        <time>2026-03-29T13:06:13Z</time>
      </trkpt>
      <trkpt lat="48.68485" lon="1.86918">
        <ele>187</ele>
        <time>2026-03-29T13:06:14Z</time>
      </trkpt>
      <trkpt lat="48.6849" lon="1.86917">
        <ele>187</ele>
        <time>2026-03-29T13:06:15Z</time>
      </trkpt>
      <trkpt lat="48.68494" lon="1.86917">
        <ele>187</ele>
        <time>2026-03-29T13:06:16Z</time>
      </trkpt>
      <trkpt lat="48.68498" lon="1.86916">
        <ele>187.2</ele>
        <time>2026-03-29T13:06:17Z</time>
      </trkpt>
      <trkpt lat="48.68503" lon="1.86915">
        <ele>187</ele>
        <time>2026-03-29T13:06:18Z</time>
      </trkpt>
      <trkpt lat="48.68507" lon="1.86914">
        <ele>187</ele>
        <time>2026-03-29T13:06:19Z</time>
      </trkpt>
      <trkpt lat="48.68511" lon="1.86914">
        <ele>187</ele>
        <time>2026-03-29T13:06:20Z</time>
      </trkpt>
      <trkpt lat="48.68517" lon="1.86912">
        <ele>187</ele>
        <time>2026-03-29T13:06:21Z</time>
      </trkpt>
      <trkpt lat="48.68521" lon="1.86911">
        <ele>187.4</ele>
        <time>2026-03-29T13:06:22Z</time>
      </trkpt>
      <trkpt lat="48.68526" lon="1.86912">
        <ele>187.4</ele>
        <time>2026-03-29T13:06:23Z</time>
      </trkpt>
      <trkpt lat="48.68531" lon="1.8691">
        <ele>187.4</ele>
        <time>2026-03-29T13:06:24Z</time>
      </trkpt>
      <trkpt lat="48.68536" lon="1.86909">
        <ele>187.4</ele>
        <time>2026-03-29T13:06:25Z</time>
      </trkpt>
      <trkpt lat="48.68541" lon="1.86906">
        <ele>187.6</ele>
        <time>2026-03-29T13:06:26Z</time>
      </trkpt>
      <trkpt lat="48.68545" lon="1.86905">
        <ele>187.6</ele>
        <time>2026-03-29T13:06:27Z</time>
      </trkpt>
      <trkpt lat="48.6855" lon="1.86904">
        <ele>187.6</ele>
        <time>2026-03-29T13:06:28Z</time>
      </trkpt>
      <trkpt lat="48.68554" lon="1.86902">
        <ele>188</ele>
        <time>2026-03-29T13:06:29Z</time>
      </trkpt>
      <trkpt lat="48.68559" lon="1.869">
        <ele>188</ele>
        <time>2026-03-29T13:06:30Z</time>
      </trkpt>
      <trkpt lat="48.68564" lon="1.86899">
        <ele>188</ele>
        <time>2026-03-29T13:06:31Z</time>
      </trkpt>
      <trkpt lat="48.68569" lon="1.86897">
        <ele>188</ele>
        <time>2026-03-29T13:06:32Z</time>
      </trkpt>
      <trkpt lat="48.68573" lon="1.86896">
        <ele>188</ele>
        <time>2026-03-29T13:06:33Z</time>
      </trkpt>
      <trkpt lat="48.68577" lon="1.86894">
        <ele>187.6</ele>
        <time>2026-03-29T13:06:34Z</time>
      </trkpt>
      <trkpt lat="48.68583" lon="1.86892">
        <ele>187.6</ele>
        <time>2026-03-29T13:06:35Z</time>
      </trkpt>
      <trkpt lat="48.68587" lon="1.8689">
        <ele>187.6</ele>
        <time>2026-03-29T13:06:36Z</time>
      </trkpt>
      <trkpt lat="48.68592" lon="1.86889">
        <ele>188</ele>
        <time>2026-03-29T13:06:37Z</time>
      </trkpt>
      <trkpt lat="48.68597" lon="1.86891">
        <ele>187.6</ele>
        <time>2026-03-29T13:06:38Z</time>
      </trkpt>
      <trkpt lat="48.68602" lon="1.86891">
        <ele>187.6</ele>
        <time>2026-03-29T13:06:39Z</time>
      </trkpt>
      <trkpt lat="48.68608" lon="1.86888">
        <ele>187.6</ele>
        <time>2026-03-29T13:06:40Z</time>
      </trkpt>
      <trkpt lat="48.68613" lon="1.86886">
        <ele>187.6</ele>
        <time>2026-03-29T13:06:41Z</time>
      </trkpt>
      <trkpt lat="48.68618" lon="1.86881">
        <ele>187.8</ele>
        <time>2026-03-29T13:06:42Z</time>
      </trkpt>
      <trkpt lat="48.68624" lon="1.8688">
        <ele>187.8</ele>
        <time>2026-03-29T13:06:43Z</time>
      </trkpt>
      <trkpt lat="48.68629" lon="1.8688">
        <ele>187.8</ele>
        <time>2026-03-29T13:06:44Z</time>
      </trkpt>
      <trkpt lat="48.68634" lon="1.86878">
        <ele>188</ele>
        <time>2026-03-29T13:06:45Z</time>
      </trkpt>
      <trkpt lat="48.68639" lon="1.86876">
        <ele>188</ele>
        <time>2026-03-29T13:06:46Z</time>
      </trkpt>
      <trkpt lat="48.68644" lon="1.86873">
        <ele>188</ele>
        <time>2026-03-29T13:06:47Z</time>
      </trkpt>
      <trkpt lat="48.68648" lon="1.86869">
        <ele>188</ele>
        <time>2026-03-29T13:06:48Z</time>
      </trkpt>
      <trkpt lat="48.68653" lon="1.86865">
        <ele>187.2</ele>
        <time>2026-03-29T13:06:49Z</time>
      </trkpt>
      <trkpt lat="48.68658" lon="1.86862">
        <ele>187.2</ele>
        <time>2026-03-29T13:06:50Z</time>
      </trkpt>
      <trkpt lat="48.68663" lon="1.8686">
        <ele>187.2</ele>
        <time>2026-03-29T13:06:51Z</time>
      </trkpt>
      <trkpt lat="48.68666" lon="1.86859">
        <ele>187.2</ele>
        <time>2026-03-29T13:06:52Z</time>
      </trkpt>
      <trkpt lat="48.68669" lon="1.8686">
        <ele>187.2</ele>
        <time>2026-03-29T13:06:53Z</time>
      </trkpt>
      <trkpt lat="48.68671" lon="1.86861">
        <ele>187.2</ele>
        <time>2026-03-29T13:06:54Z</time>
      </trkpt>
      <trkpt lat="48.68673" lon="1.86862">
        <ele>187.2</ele>
        <time>2026-03-29T13:06:55Z</time>
      </trkpt>
      <trkpt lat="48.68675" lon="1.86861">
        <ele>187.2</ele>
        <time>2026-03-29T13:06:56Z</time>
      </trkpt>
      <trkpt lat="48.68678" lon="1.8686">
        <ele>187.4</ele>
        <time>2026-03-29T13:06:57Z</time>
      </trkpt>
      <trkpt lat="48.6868" lon="1.86858">
        <ele>187.8</ele>
        <time>2026-03-29T13:06:58Z</time>
      </trkpt>
      <trkpt lat="48.68683" lon="1.86858">
        <ele>187.8</ele>
        <time>2026-03-29T13:06:59Z</time>
      </trkpt>
      <trkpt lat="48.68685" lon="1.86859">
        <ele>187.8</ele>
        <time>2026-03-29T13:07:00Z</time>
      </trkpt>
      <trkpt lat="48.68688" lon="1.8686">
        <ele>187.8</ele>
        <time>2026-03-29T13:07:01Z</time>
      </trkpt>
      <trkpt lat="48.6869" lon="1.86861">
        <ele>187.4</ele>
        <time>2026-03-29T13:07:02Z</time>
      </trkpt>
      <trkpt lat="48.68693" lon="1.86862">
        <ele>187.4</ele>
        <time>2026-03-29T13:07:03Z</time>
      </trkpt>
      <trkpt lat="48.68695" lon="1.86861">
        <ele>187.4</ele>
        <time>2026-03-29T13:07:04Z</time>
      </trkpt>
      <trkpt lat="48.68698" lon="1.86861">
        <ele>187.8</ele>
        <time>2026-03-29T13:07:05Z</time>
      </trkpt>
      <trkpt lat="48.68702" lon="1.8686">
        <ele>188</ele>
        <time>2026-03-29T13:07:06Z</time>
      </trkpt>
      <trkpt lat="48.68706" lon="1.86858">
        <ele>188</ele>
        <time>2026-03-29T13:07:07Z</time>
      </trkpt>
      <trkpt lat="48.68709" lon="1.86857">
        <ele>188</ele>
        <time>2026-03-29T13:07:08Z</time>
      </trkpt>
      <trkpt lat="48.68713" lon="1.86855">
        <ele>188</ele>
        <time>2026-03-29T13:07:09Z</time>
      </trkpt>
      <trkpt lat="48.68717" lon="1.86854">
        <ele>188.2</ele>
        <time>2026-03-29T13:07:10Z</time>
      </trkpt>
      <trkpt lat="48.68721" lon="1.86854">
        <ele>188.2</ele>
        <time>2026-03-29T13:07:11Z</time>
      </trkpt>
      <trkpt lat="48.68725" lon="1.86853">
        <ele>188.2</ele>
        <time>2026-03-29T13:07:12Z</time>
      </trkpt>
      <trkpt lat="48.68728" lon="1.86851">
        <ele>188.2</ele>
        <time>2026-03-29T13:07:13Z</time>
      </trkpt>
      <trkpt lat="48.68733" lon="1.86849">
        <ele>188</ele>
        <time>2026-03-29T13:07:14Z</time>
      </trkpt>
      <trkpt lat="48.68737" lon="1.86848">
        <ele>188</ele>
        <time>2026-03-29T13:07:15Z</time>
      </trkpt>
      <trkpt lat="48.68741" lon="1.86846">
        <ele>188</ele>
        <time>2026-03-29T13:07:16Z</time>
      </trkpt>
      <trkpt lat="48.68745" lon="1.86845">
        <ele>188</ele>
        <time>2026-03-29T13:07:17Z</time>
      </trkpt>
      <trkpt lat="48.68749" lon="1.86843">
        <ele>188.4</ele>
        <time>2026-03-29T13:07:18Z</time>
      </trkpt>
      <trkpt lat="48.68752" lon="1.86842">
        <ele>188.4</ele>
        <time>2026-03-29T13:07:19Z</time>
      </trkpt>
      <trkpt lat="48.68756" lon="1.8684">
        <ele>188.4</ele>
        <time>2026-03-29T13:07:20Z</time>
      </trkpt>
      <trkpt lat="48.6876" lon="1.86838">
        <ele>188.4</ele>
        <time>2026-03-29T13:07:21Z</time>
      </trkpt>
      <trkpt lat="48.68764" lon="1.86837">
        <ele>188.6</ele>
        <time>2026-03-29T13:07:22Z</time>
      </trkpt>
      <trkpt lat="48.68768" lon="1.86835">
        <ele>188.6</ele>
        <time>2026-03-29T13:07:23Z</time>
      </trkpt>
      <trkpt lat="48.68773" lon="1.86833">
        <ele>188.6</ele>
        <time>2026-03-29T13:07:24Z</time>
      </trkpt>
      <trkpt lat="48.68777" lon="1.86832">
        <ele>188.4</ele>
        <time>2026-03-29T13:07:25Z</time>
      </trkpt>
      <trkpt lat="48.68781" lon="1.86832">
        <ele>188.6</ele>
        <time>2026-03-29T13:07:26Z</time>
      </trkpt>
      <trkpt lat="48.68785" lon="1.86831">
        <ele>188.6</ele>
        <time>2026-03-29T13:07:27Z</time>
      </trkpt>
      <trkpt lat="48.68789" lon="1.86831">
        <ele>188.6</ele>
        <time>2026-03-29T13:07:28Z</time>
      </trkpt>
      <trkpt lat="48.68793" lon="1.86829">
        <ele>188.6</ele>
        <time>2026-03-29T13:07:29Z</time>
      </trkpt>
      <trkpt lat="48.68797" lon="1.86827">
        <ele>188.8</ele>
        <time>2026-03-29T13:07:30Z</time>
      </trkpt>
      <trkpt lat="48.68801" lon="1.86826">
        <ele>188.8</ele>
        <time>2026-03-29T13:07:31Z</time>
      </trkpt>
      <trkpt lat="48.68806" lon="1.86824">
        <ele>188.8</ele>
        <time>2026-03-29T13:07:32Z</time>
      </trkpt>
      <trkpt lat="48.68811" lon="1.86822">
        <ele>188.8</ele>
        <time>2026-03-29T13:07:33Z</time>
      </trkpt>
      <trkpt lat="48.68817" lon="1.8682">
        <ele>189</ele>
        <time>2026-03-29T13:07:34Z</time>
      </trkpt>
      <trkpt lat="48.68822" lon="1.86817">
        <ele>189</ele>
        <time>2026-03-29T13:07:35Z</time>
      </trkpt>
      <trkpt lat="48.68827" lon="1.86816">
        <ele>189</ele>
        <time>2026-03-29T13:07:36Z</time>
      </trkpt>
      <trkpt lat="48.68832" lon="1.86814">
        <ele>189.2</ele>
        <time>2026-03-29T13:07:37Z</time>
      </trkpt>
      <trkpt lat="48.68835" lon="1.86811">
        <ele>188.8</ele>
        <time>2026-03-29T13:07:38Z</time>
      </trkpt>
      <trkpt lat="48.68839" lon="1.86809">
        <ele>188.8</ele>
        <time>2026-03-29T13:07:39Z</time>
      </trkpt>
      <trkpt lat="48.68844" lon="1.86807">
        <ele>188.8</ele>
        <time>2026-03-29T13:07:40Z</time>
      </trkpt>
      <trkpt lat="48.68848" lon="1.86805">
        <ele>188.8</ele>
        <time>2026-03-29T13:07:41Z</time>
      </trkpt>
      <trkpt lat="48.68853" lon="1.86802">
        <ele>188.8</ele>
        <time>2026-03-29T13:07:42Z</time>
      </trkpt>
      <trkpt lat="48.68859" lon="1.868">
        <ele>188.8</ele>
        <time>2026-03-29T13:07:43Z</time>
      </trkpt>
      <trkpt lat="48.68863" lon="1.86799">
        <ele>188.8</ele>
        <time>2026-03-29T13:07:44Z</time>
      </trkpt>
      <trkpt lat="48.68868" lon="1.86801">
        <ele>188.8</ele>
        <time>2026-03-29T13:07:45Z</time>
      </trkpt>
      <trkpt lat="48.68873" lon="1.86804">
        <ele>189.4</ele>
        <time>2026-03-29T13:07:46Z</time>
      </trkpt>
      <trkpt lat="48.68877" lon="1.86809">
        <ele>189.4</ele>
        <time>2026-03-29T13:07:47Z</time>
      </trkpt>
      <trkpt lat="48.6888" lon="1.86814">
        <ele>189.4</ele>
        <time>2026-03-29T13:07:48Z</time>
      </trkpt>
      <trkpt lat="48.68884" lon="1.8682">
        <ele>188.4</ele>
        <time>2026-03-29T13:07:49Z</time>
      </trkpt>
      <trkpt lat="48.68886" lon="1.86826">
        <ele>189.2</ele>
        <time>2026-03-29T13:07:50Z</time>
      </trkpt>
      <trkpt lat="48.68888" lon="1.86833">
        <ele>189.2</ele>
        <time>2026-03-29T13:07:51Z</time>
      </trkpt>
      <trkpt lat="48.6889" lon="1.86839">
        <ele>189.2</ele>
        <time>2026-03-29T13:07:52Z</time>
      </trkpt>
      <trkpt lat="48.68893" lon="1.86844">
        <ele>189</ele>
        <time>2026-03-29T13:07:53Z</time>
      </trkpt>
      <trkpt lat="48.68896" lon="1.8685">
        <ele>189.2</ele>
        <time>2026-03-29T13:07:54Z</time>
      </trkpt>
      <trkpt lat="48.68899" lon="1.86855">
        <ele>189.2</ele>
        <time>2026-03-29T13:07:55Z</time>
      </trkpt>
      <trkpt lat="48.68903" lon="1.8686">
        <ele>189.2</ele>
        <time>2026-03-29T13:07:56Z</time>
      </trkpt>
      <trkpt lat="48.68907" lon="1.86864">
        <ele>189.2</ele>
        <time>2026-03-29T13:07:57Z</time>
      </trkpt>
      <trkpt lat="48.68911" lon="1.86867">
        <ele>188.4</ele>
        <time>2026-03-29T13:07:58Z</time>
      </trkpt>
      <trkpt lat="48.68916" lon="1.86868">
        <ele>188.4</ele>
        <time>2026-03-29T13:07:59Z</time>
      </trkpt>
      <trkpt lat="48.68922" lon="1.86869">
        <ele>188.4</ele>
        <time>2026-03-29T13:08:00Z</time>
      </trkpt>
      <trkpt lat="48.68927" lon="1.86869">
        <ele>189.4</ele>
        <time>2026-03-29T13:08:01Z</time>
      </trkpt>
      <trkpt lat="48.68932" lon="1.86868">
        <ele>188.8</ele>
        <time>2026-03-29T13:08:02Z</time>
      </trkpt>
      <trkpt lat="48.68937" lon="1.86868">
        <ele>188.8</ele>
        <time>2026-03-29T13:08:03Z</time>
      </trkpt>
      <trkpt lat="48.68942" lon="1.86867">
        <ele>188.8</ele>
        <time>2026-03-29T13:08:04Z</time>
      </trkpt>
      <trkpt lat="48.68947" lon="1.86867">
        <ele>189.4</ele>
        <time>2026-03-29T13:08:05Z</time>
      </trkpt>
      <trkpt lat="48.68953" lon="1.86867">
        <ele>189.4</ele>
        <time>2026-03-29T13:08:06Z</time>
      </trkpt>
      <trkpt lat="48.68958" lon="1.86867">
        <ele>189.4</ele>
        <time>2026-03-29T13:08:07Z</time>
      </trkpt>
      <trkpt lat="48.68963" lon="1.86867">
        <ele>189.4</ele>
        <time>2026-03-29T13:08:08Z</time>
      </trkpt>
      <trkpt lat="48.68968" lon="1.86867">
        <ele>189.4</ele>
        <time>2026-03-29T13:08:09Z</time>
      </trkpt>
      <trkpt lat="48.68973" lon="1.86866">
        <ele>189.6</ele>
        <time>2026-03-29T13:08:10Z</time>
      </trkpt>
      <trkpt lat="48.68978" lon="1.86866">
        <ele>189.6</ele>
        <time>2026-03-29T13:08:11Z</time>
      </trkpt>
      <trkpt lat="48.68982" lon="1.86866">
        <ele>189.6</ele>
        <time>2026-03-29T13:08:12Z</time>
      </trkpt>
      <trkpt lat="48.68987" lon="1.86866">
        <ele>189.6</ele>
        <time>2026-03-29T13:08:13Z</time>
      </trkpt>
      <trkpt lat="48.68992" lon="1.86866">
        <ele>188.8</ele>
        <time>2026-03-29T13:08:14Z</time>
      </trkpt>
      <trkpt lat="48.68997" lon="1.86866">
        <ele>188.8</ele>
        <time>2026-03-29T13:08:15Z</time>
      </trkpt>
      <trkpt lat="48.69002" lon="1.86866">
        <ele>188.8</ele>
        <time>2026-03-29T13:08:16Z</time>
      </trkpt>
      <trkpt lat="48.69007" lon="1.86866">
        <ele>188.8</ele>
        <time>2026-03-29T13:08:17Z</time>
      </trkpt>
      <trkpt lat="48.69012" lon="1.86866">
        <ele>189.4</ele>
        <time>2026-03-29T13:08:18Z</time>
      </trkpt>
      <trkpt lat="48.69016" lon="1.86865">
        <ele>189.4</ele>
        <time>2026-03-29T13:08:19Z</time>
      </trkpt>
      <trkpt lat="48.69021" lon="1.86866">
        <ele>189.4</ele>
        <time>2026-03-29T13:08:20Z</time>
      </trkpt>
      <trkpt lat="48.69026" lon="1.86866">
        <ele>189.4</ele>
        <time>2026-03-29T13:08:21Z</time>
      </trkpt>
      <trkpt lat="48.6903" lon="1.86866">
        <ele>189.6</ele>
        <time>2026-03-29T13:08:22Z</time>
      </trkpt>
      <trkpt lat="48.69035" lon="1.86865">
        <ele>189.6</ele>
        <time>2026-03-29T13:08:23Z</time>
      </trkpt>
      <trkpt lat="48.6904" lon="1.86865">
        <ele>189.6</ele>
        <time>2026-03-29T13:08:24Z</time>
      </trkpt>
      <trkpt lat="48.69044" lon="1.86864">
        <ele>189.6</ele>
        <time>2026-03-29T13:08:25Z</time>
      </trkpt>
      <trkpt lat="48.69049" lon="1.86865">
        <ele>189.4</ele>
        <time>2026-03-29T13:08:26Z</time>
      </trkpt>
      <trkpt lat="48.69054" lon="1.86865">
        <ele>189.4</ele>
        <time>2026-03-29T13:08:27Z</time>
      </trkpt>
      <trkpt lat="48.69058" lon="1.86865">
        <ele>189.4</ele>
        <time>2026-03-29T13:08:28Z</time>
      </trkpt>
      <trkpt lat="48.69062" lon="1.86865">
        <ele>189.4</ele>
        <time>2026-03-29T13:08:29Z</time>
      </trkpt>
      <trkpt lat="48.69066" lon="1.86865">
        <ele>189.2</ele>
        <time>2026-03-29T13:08:30Z</time>
      </trkpt>
      <trkpt lat="48.69071" lon="1.86865">
        <ele>189.2</ele>
        <time>2026-03-29T13:08:31Z</time>
      </trkpt>
      <trkpt lat="48.69075" lon="1.86864">
        <ele>189.2</ele>
        <time>2026-03-29T13:08:32Z</time>
      </trkpt>
      <trkpt lat="48.6908" lon="1.86864">
        <ele>189.6</ele>
        <time>2026-03-29T13:08:33Z</time>
      </trkpt>
      <trkpt lat="48.69085" lon="1.86864">
        <ele>189.4</ele>
        <time>2026-03-29T13:08:34Z</time>
      </trkpt>
      <trkpt lat="48.69089" lon="1.86864">
        <ele>189.4</ele>
        <time>2026-03-29T13:08:35Z</time>
      </trkpt>
      <trkpt lat="48.69094" lon="1.86864">
        <ele>189.4</ele>
        <time>2026-03-29T13:08:36Z</time>
      </trkpt>
      <trkpt lat="48.69099" lon="1.86864">
        <ele>190</ele>
        <time>2026-03-29T13:08:37Z</time>
      </trkpt>
      <trkpt lat="48.69103" lon="1.86865">
        <ele>189.6</ele>
        <time>2026-03-29T13:08:38Z</time>
      </trkpt>
      <trkpt lat="48.69108" lon="1.86865">
        <ele>189.6</ele>
        <time>2026-03-29T13:08:39Z</time>
      </trkpt>
      <trkpt lat="48.69112" lon="1.86865">
        <ele>189.6</ele>
        <time>2026-03-29T13:08:40Z</time>
      </trkpt>
      <trkpt lat="48.69117" lon="1.86865">
        <ele>189.6</ele>
        <time>2026-03-29T13:08:41Z</time>
      </trkpt>
      <trkpt lat="48.69122" lon="1.86864">
        <ele>189.2</ele>
        <time>2026-03-29T13:08:42Z</time>
      </trkpt>
      <trkpt lat="48.69127" lon="1.86864">
        <ele>189.2</ele>
        <time>2026-03-29T13:08:43Z</time>
      </trkpt>
      <trkpt lat="48.69132" lon="1.86863">
        <ele>189.2</ele>
        <time>2026-03-29T13:08:44Z</time>
      </trkpt>
      <trkpt lat="48.69137" lon="1.86863">
        <ele>190</ele>
        <time>2026-03-29T13:08:45Z</time>
      </trkpt>
      <trkpt lat="48.69141" lon="1.86862">
        <ele>190.4</ele>
        <time>2026-03-29T13:08:46Z</time>
      </trkpt>
      <trkpt lat="48.69147" lon="1.86862">
        <ele>190.4</ele>
        <time>2026-03-29T13:08:47Z</time>
      </trkpt>
      <trkpt lat="48.69151" lon="1.86862">
        <ele>190.4</ele>
        <time>2026-03-29T13:08:48Z</time>
      </trkpt>
      <trkpt lat="48.69156" lon="1.86862">
        <ele>190</ele>
        <time>2026-03-29T13:08:49Z</time>
      </trkpt>
      <trkpt lat="48.69161" lon="1.86863">
        <ele>190</ele>
        <time>2026-03-29T13:08:50Z</time>
      </trkpt>
      <trkpt lat="48.69165" lon="1.86862">
        <ele>190</ele>
        <time>2026-03-29T13:08:51Z</time>
      </trkpt>
      <trkpt lat="48.6917" lon="1.8686">
        <ele>190</ele>
        <time>2026-03-29T13:08:52Z</time>
      </trkpt>
      <trkpt lat="48.69175" lon="1.8686">
        <ele>190</ele>
        <time>2026-03-29T13:08:53Z</time>
      </trkpt>
      <trkpt lat="48.6918" lon="1.86858">
        <ele>189.8</ele>
        <time>2026-03-29T13:08:54Z</time>
      </trkpt>
      <trkpt lat="48.69184" lon="1.86859">
        <ele>189.8</ele>
        <time>2026-03-29T13:08:55Z</time>
      </trkpt>
      <trkpt lat="48.69188" lon="1.8686">
        <ele>189.8</ele>
        <time>2026-03-29T13:08:56Z</time>
      </trkpt>
      <trkpt lat="48.69193" lon="1.86859">
        <ele>189.8</ele>
        <time>2026-03-29T13:08:57Z</time>
      </trkpt>
      <trkpt lat="48.69198" lon="1.86859">
        <ele>189.6</ele>
        <time>2026-03-29T13:08:58Z</time>
      </trkpt>
      <trkpt lat="48.69203" lon="1.86858">
        <ele>189.6</ele>
        <time>2026-03-29T13:08:59Z</time>
      </trkpt>
      <trkpt lat="48.69208" lon="1.86858">
        <ele>189.6</ele>
        <time>2026-03-29T13:09:00Z</time>
      </trkpt>
      <trkpt lat="48.69213" lon="1.86858">
        <ele>189.6</ele>
        <time>2026-03-29T13:09:01Z</time>
      </trkpt>
      <trkpt lat="48.69217" lon="1.86857">
        <ele>189.4</ele>
        <time>2026-03-29T13:09:02Z</time>
      </trkpt>
      <trkpt lat="48.69222" lon="1.86858">
        <ele>189.4</ele>
        <time>2026-03-29T13:09:03Z</time>
      </trkpt>
      <trkpt lat="48.69226" lon="1.86857">
        <ele>189.4</ele>
        <time>2026-03-29T13:09:04Z</time>
      </trkpt>
      <trkpt lat="48.69231" lon="1.86856">
        <ele>189.4</ele>
        <time>2026-03-29T13:09:05Z</time>
      </trkpt>
      <trkpt lat="48.69235" lon="1.86856">
        <ele>189.2</ele>
        <time>2026-03-29T13:09:06Z</time>
      </trkpt>
      <trkpt lat="48.6924" lon="1.86855">
        <ele>189.2</ele>
        <time>2026-03-29T13:09:07Z</time>
      </trkpt>
      <trkpt lat="48.69245" lon="1.86853">
        <ele>189.2</ele>
        <time>2026-03-29T13:09:08Z</time>
      </trkpt>
      <trkpt lat="48.69249" lon="1.86848">
        <ele>189.4</ele>
        <time>2026-03-29T13:09:09Z</time>
      </trkpt>
      <trkpt lat="48.69253" lon="1.86842">
        <ele>189.8</ele>
        <time>2026-03-29T13:09:10Z</time>
      </trkpt>
      <trkpt lat="48.69255" lon="1.86835">
        <ele>189.8</ele>
        <time>2026-03-29T13:09:11Z</time>
      </trkpt>
      <trkpt lat="48.69257" lon="1.86829">
        <ele>189.8</ele>
        <time>2026-03-29T13:09:12Z</time>
      </trkpt>
      <trkpt lat="48.6926" lon="1.86822">
        <ele>189.8</ele>
        <time>2026-03-29T13:09:13Z</time>
      </trkpt>
      <trkpt lat="48.69262" lon="1.86815">
        <ele>189.8</ele>
        <time>2026-03-29T13:09:14Z</time>
      </trkpt>
      <trkpt lat="48.69265" lon="1.86808">
        <ele>189.8</ele>
        <time>2026-03-29T13:09:15Z</time>
      </trkpt>
      <trkpt lat="48.69267" lon="1.86802">
        <ele>189.8</ele>
        <time>2026-03-29T13:09:16Z</time>
      </trkpt>
      <trkpt lat="48.69269" lon="1.86794">
        <ele>189.8</ele>
        <time>2026-03-29T13:09:17Z</time>
      </trkpt>
      <trkpt lat="48.69272" lon="1.86788">
        <ele>189.4</ele>
        <time>2026-03-29T13:09:18Z</time>
      </trkpt>
      <trkpt lat="48.69274" lon="1.86781">
        <ele>189.4</ele>
        <time>2026-03-29T13:09:19Z</time>
      </trkpt>
      <trkpt lat="48.69276" lon="1.86774">
        <ele>189.4</ele>
        <time>2026-03-29T13:09:20Z</time>
      </trkpt>
      <trkpt lat="48.69278" lon="1.86767">
        <ele>189.4</ele>
        <time>2026-03-29T13:09:21Z</time>
      </trkpt>
      <trkpt lat="48.6928" lon="1.8676">
        <ele>189</ele>
        <time>2026-03-29T13:09:22Z</time>
      </trkpt>
      <trkpt lat="48.69282" lon="1.86754">
        <ele>189</ele>
        <time>2026-03-29T13:09:23Z</time>
      </trkpt>
      <trkpt lat="48.69284" lon="1.86747">
        <ele>189</ele>
        <time>2026-03-29T13:09:24Z</time>
      </trkpt>
      <trkpt lat="48.69287" lon="1.86741">
        <ele>189</ele>
        <time>2026-03-29T13:09:25Z</time>
      </trkpt>
      <trkpt lat="48.69289" lon="1.86735">
        <ele>189</ele>
        <time>2026-03-29T13:09:26Z</time>
      </trkpt>
      <trkpt lat="48.69291" lon="1.86729">
        <ele>189</ele>
        <time>2026-03-29T13:09:27Z</time>
      </trkpt>
      <trkpt lat="48.69293" lon="1.86724">
        <ele>189</ele>
        <time>2026-03-29T13:09:28Z</time>
      </trkpt>
      <trkpt lat="48.69295" lon="1.86718">
        <ele>188.6</ele>
        <time>2026-03-29T13:09:29Z</time>
      </trkpt>
      <trkpt lat="48.69297" lon="1.86712">
        <ele>188.2</ele>
        <time>2026-03-29T13:09:30Z</time>
      </trkpt>
      <trkpt lat="48.69299" lon="1.86707">
        <ele>188.2</ele>
        <time>2026-03-29T13:09:31Z</time>
      </trkpt>
      <trkpt lat="48.69301" lon="1.867">
        <ele>188.2</ele>
        <time>2026-03-29T13:09:32Z</time>
      </trkpt>
      <trkpt lat="48.69304" lon="1.86694">
        <ele>188.2</ele>
        <time>2026-03-29T13:09:33Z</time>
      </trkpt>
      <trkpt lat="48.69306" lon="1.86688">
        <ele>188.4</ele>
        <time>2026-03-29T13:09:34Z</time>
      </trkpt>
      <trkpt lat="48.69307" lon="1.86682">
        <ele>188.4</ele>
        <time>2026-03-29T13:09:35Z</time>
      </trkpt>
      <trkpt lat="48.69309" lon="1.86675">
        <ele>188.4</ele>
        <time>2026-03-29T13:09:36Z</time>
      </trkpt>
      <trkpt lat="48.6931" lon="1.86669">
        <ele>188.4</ele>
        <time>2026-03-29T13:09:37Z</time>
      </trkpt>
      <trkpt lat="48.69311" lon="1.86663">
        <ele>188.2</ele>
        <time>2026-03-29T13:09:38Z</time>
      </trkpt>
      <trkpt lat="48.69313" lon="1.86658">
        <ele>188.2</ele>
        <time>2026-03-29T13:09:39Z</time>
      </trkpt>
      <trkpt lat="48.69316" lon="1.86652">
        <ele>188.2</ele>
        <time>2026-03-29T13:09:40Z</time>
      </trkpt>
      <trkpt lat="48.69318" lon="1.86646">
        <ele>188.8</ele>
        <time>2026-03-29T13:09:41Z</time>
      </trkpt>
      <trkpt lat="48.6932" lon="1.8664">
        <ele>188</ele>
        <time>2026-03-29T13:09:42Z</time>
      </trkpt>
      <trkpt lat="48.69322" lon="1.86633">
        <ele>188</ele>
        <time>2026-03-29T13:09:43Z</time>
      </trkpt>
      <trkpt lat="48.69324" lon="1.86627">
        <ele>188</ele>
        <time>2026-03-29T13:09:44Z</time>
      </trkpt>
      <trkpt lat="48.69326" lon="1.86621">
        <ele>188.4</ele>
        <time>2026-03-29T13:09:45Z</time>
      </trkpt>
      <trkpt lat="48.69328" lon="1.86615">
        <ele>188.2</ele>
        <time>2026-03-29T13:09:46Z</time>
      </trkpt>
      <trkpt lat="48.6933" lon="1.86608">
        <ele>188.2</ele>
        <time>2026-03-29T13:09:47Z</time>
      </trkpt>
      <trkpt lat="48.69332" lon="1.86603">
        <ele>188.2</ele>
        <time>2026-03-29T13:09:48Z</time>
      </trkpt>
      <trkpt lat="48.69334" lon="1.86597">
        <ele>188.6</ele>
        <time>2026-03-29T13:09:49Z</time>
      </trkpt>
      <trkpt lat="48.69335" lon="1.86591">
        <ele>188.8</ele>
        <time>2026-03-29T13:09:50Z</time>
      </trkpt>
      <trkpt lat="48.69336" lon="1.86585">
        <ele>188.8</ele>
        <time>2026-03-29T13:09:51Z</time>
      </trkpt>
      <trkpt lat="48.69338" lon="1.8658">
        <ele>188.8</ele>
        <time>2026-03-29T13:09:52Z</time>
      </trkpt>
      <trkpt lat="48.6934" lon="1.86575">
        <ele>188.4</ele>
        <time>2026-03-29T13:09:53Z</time>
      </trkpt>
      <trkpt lat="48.69343" lon="1.8657">
        <ele>188.4</ele>
        <time>2026-03-29T13:09:54Z</time>
      </trkpt>
      <trkpt lat="48.69345" lon="1.86564">
        <ele>188.4</ele>
        <time>2026-03-29T13:09:55Z</time>
      </trkpt>
      <trkpt lat="48.69347" lon="1.86558">
        <ele>188.4</ele>
        <time>2026-03-29T13:09:56Z</time>
      </trkpt>
      <trkpt lat="48.69349" lon="1.86551">
        <ele>188.4</ele>
        <time>2026-03-29T13:09:57Z</time>
      </trkpt>
      <trkpt lat="48.69351" lon="1.86544">
        <ele>188.4</ele>
        <time>2026-03-29T13:09:58Z</time>
      </trkpt>
      <trkpt lat="48.69353" lon="1.86537">
        <ele>188.4</ele>
        <time>2026-03-29T13:09:59Z</time>
      </trkpt>
      <trkpt lat="48.69355" lon="1.8653">
        <ele>188.4</ele>
        <time>2026-03-29T13:10:00Z</time>
      </trkpt>
      <trkpt lat="48.69357" lon="1.86523">
        <ele>188.8</ele>
        <time>2026-03-29T13:10:01Z</time>
      </trkpt>
      <trkpt lat="48.6936" lon="1.86515">
        <ele>188.8</ele>
        <time>2026-03-29T13:10:02Z</time>
      </trkpt>
      <trkpt lat="48.69362" lon="1.86508">
        <ele>188.8</ele>
        <time>2026-03-29T13:10:03Z</time>
      </trkpt>
      <trkpt lat="48.69364" lon="1.86501">
        <ele>188.8</ele>
        <time>2026-03-29T13:10:04Z</time>
      </trkpt>
      <trkpt lat="48.69367" lon="1.86494">
        <ele>188.6</ele>
        <time>2026-03-29T13:10:05Z</time>
      </trkpt>
      <trkpt lat="48.69369" lon="1.86487">
        <ele>188.6</ele>
        <time>2026-03-29T13:10:06Z</time>
      </trkpt>
      <trkpt lat="48.69372" lon="1.8648">
        <ele>188.6</ele>
        <time>2026-03-29T13:10:07Z</time>
      </trkpt>
      <trkpt lat="48.69374" lon="1.86472">
        <ele>188.6</ele>
        <time>2026-03-29T13:10:08Z</time>
      </trkpt>
      <trkpt lat="48.69376" lon="1.86464">
        <ele>188.4</ele>
        <time>2026-03-29T13:10:09Z</time>
      </trkpt>
      <trkpt lat="48.69379" lon="1.86457">
        <ele>188.8</ele>
        <time>2026-03-29T13:10:10Z</time>
      </trkpt>
      <trkpt lat="48.69381" lon="1.8645">
        <ele>188.8</ele>
        <time>2026-03-29T13:10:11Z</time>
      </trkpt>
      <trkpt lat="48.69382" lon="1.86444">
        <ele>188.8</ele>
        <time>2026-03-29T13:10:12Z</time>
      </trkpt>
      <trkpt lat="48.69384" lon="1.8644">
        <ele>188.8</ele>
        <time>2026-03-29T13:10:13Z</time>
      </trkpt>
      <trkpt lat="48.69385" lon="1.86435">
        <ele>188.8</ele>
        <time>2026-03-29T13:10:14Z</time>
      </trkpt>
      <trkpt lat="48.69388" lon="1.8643">
        <ele>188.8</ele>
        <time>2026-03-29T13:10:15Z</time>
      </trkpt>
      <trkpt lat="48.69392" lon="1.86428">
        <ele>188.8</ele>
        <time>2026-03-29T13:10:16Z</time>
      </trkpt>
      <trkpt lat="48.69395" lon="1.86427">
        <ele>188.8</ele>
        <time>2026-03-29T13:10:17Z</time>
      </trkpt>
      <trkpt lat="48.69399" lon="1.86425">
        <ele>188.4</ele>
        <time>2026-03-29T13:10:18Z</time>
      </trkpt>
      <trkpt lat="48.69401" lon="1.86425">
        <ele>188.4</ele>
        <time>2026-03-29T13:10:19Z</time>
      </trkpt>
      <trkpt lat="48.69404" lon="1.86427">
        <ele>188.4</ele>
        <time>2026-03-29T13:10:20Z</time>
      </trkpt>
      <trkpt lat="48.69407" lon="1.86429">
        <ele>188.4</ele>
        <time>2026-03-29T13:10:21Z</time>
      </trkpt>
      <trkpt lat="48.69411" lon="1.8643">
        <ele>188.6</ele>
        <time>2026-03-29T13:10:22Z</time>
      </trkpt>
      <trkpt lat="48.69415" lon="1.86432">
        <ele>188.6</ele>
        <time>2026-03-29T13:10:23Z</time>
      </trkpt>
      <trkpt lat="48.69419" lon="1.86433">
        <ele>188.6</ele>
        <time>2026-03-29T13:10:24Z</time>
      </trkpt>
      <trkpt lat="48.69424" lon="1.86435">
        <ele>188.6</ele>
        <time>2026-03-29T13:10:25Z</time>
      </trkpt>
      <trkpt lat="48.69428" lon="1.86436">
        <ele>188.8</ele>
        <time>2026-03-29T13:10:26Z</time>
      </trkpt>
      <trkpt lat="48.69433" lon="1.86438">
        <ele>188.8</ele>
        <time>2026-03-29T13:10:27Z</time>
      </trkpt>
      <trkpt lat="48.69438" lon="1.8644">
        <ele>188.8</ele>
        <time>2026-03-29T13:10:28Z</time>
      </trkpt>
      <trkpt lat="48.69443" lon="1.86441">
        <ele>188.8</ele>
        <time>2026-03-29T13:10:29Z</time>
      </trkpt>
      <trkpt lat="48.69449" lon="1.86442">
        <ele>188.6</ele>
        <time>2026-03-29T13:10:30Z</time>
      </trkpt>
      <trkpt lat="48.69454" lon="1.86444">
        <ele>188.6</ele>
        <time>2026-03-29T13:10:31Z</time>
      </trkpt>
      <trkpt lat="48.69459" lon="1.86446">
        <ele>188.6</ele>
        <time>2026-03-29T13:10:32Z</time>
      </trkpt>
      <trkpt lat="48.69464" lon="1.86448">
        <ele>188.6</ele>
        <time>2026-03-29T13:10:33Z</time>
      </trkpt>
      <trkpt lat="48.6947" lon="1.8645">
        <ele>188.6</ele>
        <time>2026-03-29T13:10:34Z</time>
      </trkpt>
      <trkpt lat="48.69475" lon="1.86452">
        <ele>188.6</ele>
        <time>2026-03-29T13:10:35Z</time>
      </trkpt>
      <trkpt lat="48.6948" lon="1.86454">
        <ele>188.6</ele>
        <time>2026-03-29T13:10:36Z</time>
      </trkpt>
      <trkpt lat="48.69486" lon="1.86456">
        <ele>188.6</ele>
        <time>2026-03-29T13:10:37Z</time>
      </trkpt>
      <trkpt lat="48.69491" lon="1.86457">
        <ele>188.4</ele>
        <time>2026-03-29T13:10:38Z</time>
      </trkpt>
      <trkpt lat="48.69496" lon="1.86459">
        <ele>188.4</ele>
        <time>2026-03-29T13:10:39Z</time>
      </trkpt>
      <trkpt lat="48.69502" lon="1.86461">
        <ele>188.4</ele>
        <time>2026-03-29T13:10:40Z</time>
      </trkpt>
      <trkpt lat="48.69507" lon="1.86463">
        <ele>188.4</ele>
        <time>2026-03-29T13:10:41Z</time>
      </trkpt>
      <trkpt lat="48.69512" lon="1.86465">
        <ele>189</ele>
        <time>2026-03-29T13:10:42Z</time>
      </trkpt>
      <trkpt lat="48.69517" lon="1.86467">
        <ele>189</ele>
        <time>2026-03-29T13:10:43Z</time>
      </trkpt>
      <trkpt lat="48.69522" lon="1.86469">
        <ele>189</ele>
        <time>2026-03-29T13:10:44Z</time>
      </trkpt>
      <trkpt lat="48.69527" lon="1.86471">
        <ele>188.8</ele>
        <time>2026-03-29T13:10:45Z</time>
      </trkpt>
      <trkpt lat="48.69532" lon="1.86473">
        <ele>188.8</ele>
        <time>2026-03-29T13:10:46Z</time>
      </trkpt>
      <trkpt lat="48.69537" lon="1.86475">
        <ele>188.8</ele>
        <time>2026-03-29T13:10:47Z</time>
      </trkpt>
      <trkpt lat="48.69542" lon="1.86477">
        <ele>188.8</ele>
        <time>2026-03-29T13:10:48Z</time>
      </trkpt>
      <trkpt lat="48.69547" lon="1.86479">
        <ele>188.8</ele>
        <time>2026-03-29T13:10:49Z</time>
      </trkpt>
      <trkpt lat="48.69552" lon="1.86481">
        <ele>188</ele>
        <time>2026-03-29T13:10:50Z</time>
      </trkpt>
      <trkpt lat="48.69557" lon="1.86482">
        <ele>188</ele>
        <time>2026-03-29T13:10:51Z</time>
      </trkpt>
      <trkpt lat="48.69561" lon="1.86483">
        <ele>188</ele>
        <time>2026-03-29T13:10:52Z</time>
      </trkpt>
      <trkpt lat="48.69566" lon="1.86484">
        <ele>188</ele>
        <time>2026-03-29T13:10:53Z</time>
      </trkpt>
      <trkpt lat="48.6957" lon="1.86486">
        <ele>188</ele>
        <time>2026-03-29T13:10:54Z</time>
      </trkpt>
      <trkpt lat="48.69574" lon="1.86487">
        <ele>188</ele>
        <time>2026-03-29T13:10:55Z</time>
      </trkpt>
      <trkpt lat="48.69578" lon="1.86487">
        <ele>188</ele>
        <time>2026-03-29T13:10:56Z</time>
      </trkpt>
      <trkpt lat="48.69581" lon="1.86486">
        <ele>188</ele>
        <time>2026-03-29T13:10:57Z</time>
      </trkpt>
      <trkpt lat="48.69583" lon="1.86489">
        <ele>187.8</ele>
        <time>2026-03-29T13:10:58Z</time>
      </trkpt>
      <trkpt lat="48.69582" lon="1.86493">
        <ele>187.8</ele>
        <time>2026-03-29T13:10:59Z</time>
      </trkpt>
      <trkpt lat="48.69581" lon="1.86496">
        <ele>187.8</ele>
        <time>2026-03-29T13:11:00Z</time>
      </trkpt>
      <trkpt lat="48.69577" lon="1.86499">
        <ele>187.8</ele>
        <time>2026-03-29T13:11:01Z</time>
      </trkpt>
      <trkpt lat="48.69571" lon="1.865">
        <ele>185.6</ele>
        <time>2026-03-29T13:11:02Z</time>
      </trkpt>
      <trkpt lat="48.69567" lon="1.86503">
        <ele>185.6</ele>
        <time>2026-03-29T13:11:03Z</time>
      </trkpt>
      <trkpt lat="48.69561" lon="1.86506">
        <ele>185.6</ele>
        <time>2026-03-29T13:11:04Z</time>
      </trkpt>
      <trkpt lat="48.69555" lon="1.86509">
        <ele>185.6</ele>
        <time>2026-03-29T13:11:05Z</time>
      </trkpt>
      <trkpt lat="48.6955" lon="1.86513">
        <ele>184</ele>
        <time>2026-03-29T13:11:06Z</time>
      </trkpt>
      <trkpt lat="48.69546" lon="1.86519">
        <ele>184</ele>
        <time>2026-03-29T13:11:07Z</time>
      </trkpt>
      <trkpt lat="48.69541" lon="1.86524">
        <ele>184</ele>
        <time>2026-03-29T13:11:08Z</time>
      </trkpt>
      <trkpt lat="48.69534" lon="1.86525">
        <ele>183</ele>
        <time>2026-03-29T13:11:09Z</time>
      </trkpt>
      <trkpt lat="48.69528" lon="1.86525">
        <ele>182.8</ele>
        <time>2026-03-29T13:11:10Z</time>
      </trkpt>
      <trkpt lat="48.69522" lon="1.86523">
        <ele>182.8</ele>
        <time>2026-03-29T13:11:11Z</time>
      </trkpt>
      <trkpt lat="48.69516" lon="1.86522">
        <ele>182.8</ele>
        <time>2026-03-29T13:11:12Z</time>
      </trkpt>
      <trkpt lat="48.6951" lon="1.8652">
        <ele>182.8</ele>
        <time>2026-03-29T13:11:13Z</time>
      </trkpt>
      <trkpt lat="48.69504" lon="1.8652">
        <ele>183.2</ele>
        <time>2026-03-29T13:11:14Z</time>
      </trkpt>
      <trkpt lat="48.69499" lon="1.86521">
        <ele>183.2</ele>
        <time>2026-03-29T13:11:15Z</time>
      </trkpt>
      <trkpt lat="48.69494" lon="1.86522">
        <ele>183.2</ele>
        <time>2026-03-29T13:11:16Z</time>
      </trkpt>
      <trkpt lat="48.69489" lon="1.86525">
        <ele>183.2</ele>
        <time>2026-03-29T13:11:17Z</time>
      </trkpt>
      <trkpt lat="48.69485" lon="1.86529">
        <ele>183.8</ele>
        <time>2026-03-29T13:11:18Z</time>
      </trkpt>
      <trkpt lat="48.69481" lon="1.86535">
        <ele>183.8</ele>
        <time>2026-03-29T13:11:19Z</time>
      </trkpt>
      <trkpt lat="48.69478" lon="1.86541">
        <ele>183.8</ele>
        <time>2026-03-29T13:11:20Z</time>
      </trkpt>
      <trkpt lat="48.69475" lon="1.86548">
        <ele>182.8</ele>
        <time>2026-03-29T13:11:21Z</time>
      </trkpt>
      <trkpt lat="48.69471" lon="1.86555">
        <ele>183</ele>
        <time>2026-03-29T13:11:22Z</time>
      </trkpt>
      <trkpt lat="48.69468" lon="1.86562">
        <ele>183</ele>
        <time>2026-03-29T13:11:23Z</time>
      </trkpt>
      <trkpt lat="48.69466" lon="1.86569">
        <ele>183</ele>
        <time>2026-03-29T13:11:24Z</time>
      </trkpt>
      <trkpt lat="48.69463" lon="1.86576">
        <ele>183</ele>
        <time>2026-03-29T13:11:25Z</time>
      </trkpt>
      <trkpt lat="48.6946" lon="1.86582">
        <ele>183</ele>
        <time>2026-03-29T13:11:26Z</time>
      </trkpt>
      <trkpt lat="48.69458" lon="1.86589">
        <ele>183</ele>
        <time>2026-03-29T13:11:27Z</time>
      </trkpt>
      <trkpt lat="48.69455" lon="1.86595">
        <ele>183</ele>
        <time>2026-03-29T13:11:28Z</time>
      </trkpt>
      <trkpt lat="48.69454" lon="1.866">
        <ele>183</ele>
        <time>2026-03-29T13:11:29Z</time>
      </trkpt>
      <trkpt lat="48.69451" lon="1.86606">
        <ele>183</ele>
        <time>2026-03-29T13:11:30Z</time>
      </trkpt>
      <trkpt lat="48.69449" lon="1.8661">
        <ele>183</ele>
        <time>2026-03-29T13:11:31Z</time>
      </trkpt>
      <trkpt lat="48.69447" lon="1.86615">
        <ele>183</ele>
        <time>2026-03-29T13:11:32Z</time>
      </trkpt>
      <trkpt lat="48.69444" lon="1.86621">
        <ele>183.4</ele>
        <time>2026-03-29T13:11:33Z</time>
      </trkpt>
      <trkpt lat="48.69441" lon="1.86628">
        <ele>183.6</ele>
        <time>2026-03-29T13:11:34Z</time>
      </trkpt>
      <trkpt lat="48.69439" lon="1.86635">
        <ele>183.6</ele>
        <time>2026-03-29T13:11:35Z</time>
      </trkpt>
      <trkpt lat="48.69438" lon="1.86641">
        <ele>183.6</ele>
        <time>2026-03-29T13:11:36Z</time>
      </trkpt>
      <trkpt lat="48.69437" lon="1.86648">
        <ele>183.6</ele>
        <time>2026-03-29T13:11:37Z</time>
      </trkpt>
      <trkpt lat="48.69436" lon="1.86654">
        <ele>183.4</ele>
        <time>2026-03-29T13:11:38Z</time>
      </trkpt>
      <trkpt lat="48.69435" lon="1.8666">
        <ele>183.4</ele>
        <time>2026-03-29T13:11:39Z</time>
      </trkpt>
      <trkpt lat="48.69434" lon="1.86667">
        <ele>183.4</ele>
        <time>2026-03-29T13:11:40Z</time>
      </trkpt>
      <trkpt lat="48.69434" lon="1.86673">
        <ele>183.4</ele>
        <time>2026-03-29T13:11:41Z</time>
      </trkpt>
      <trkpt lat="48.69433" lon="1.8668">
        <ele>183.6</ele>
        <time>2026-03-29T13:11:42Z</time>
      </trkpt>
      <trkpt lat="48.69432" lon="1.86688">
        <ele>183.6</ele>
        <time>2026-03-29T13:11:43Z</time>
      </trkpt>
      <trkpt lat="48.6943" lon="1.86695">
        <ele>183.6</ele>
        <time>2026-03-29T13:11:44Z</time>
      </trkpt>
      <trkpt lat="48.69429" lon="1.86702">
        <ele>183.6</ele>
        <time>2026-03-29T13:11:45Z</time>
      </trkpt>
      <trkpt lat="48.69426" lon="1.86709">
        <ele>183.8</ele>
        <time>2026-03-29T13:11:46Z</time>
      </trkpt>
      <trkpt lat="48.69423" lon="1.86716">
        <ele>183.8</ele>
        <time>2026-03-29T13:11:47Z</time>
      </trkpt>
      <trkpt lat="48.6942" lon="1.86721">
        <ele>183.8</ele>
        <time>2026-03-29T13:11:48Z</time>
      </trkpt>
      <trkpt lat="48.69417" lon="1.86726">
        <ele>184.8</ele>
        <time>2026-03-29T13:11:49Z</time>
      </trkpt>
      <trkpt lat="48.69415" lon="1.86732">
        <ele>184.4</ele>
        <time>2026-03-29T13:11:50Z</time>
      </trkpt>
      <trkpt lat="48.69413" lon="1.86738">
        <ele>184.4</ele>
        <time>2026-03-29T13:11:51Z</time>
      </trkpt>
      <trkpt lat="48.69415" lon="1.86742">
        <ele>184.4</ele>
        <time>2026-03-29T13:11:52Z</time>
      </trkpt>
      <trkpt lat="48.69418" lon="1.86746">
        <ele>184.4</ele>
        <time>2026-03-29T13:11:53Z</time>
      </trkpt>
      <trkpt lat="48.6942" lon="1.8675">
        <ele>182.2</ele>
        <time>2026-03-29T13:11:54Z</time>
      </trkpt>
      <trkpt lat="48.69421" lon="1.86755">
        <ele>182.2</ele>
        <time>2026-03-29T13:11:55Z</time>
      </trkpt>
      <trkpt lat="48.69423" lon="1.86761">
        <ele>182.2</ele>
        <time>2026-03-29T13:11:56Z</time>
      </trkpt>
      <trkpt lat="48.69425" lon="1.86767">
        <ele>181.2</ele>
        <time>2026-03-29T13:11:57Z</time>
      </trkpt>
      <trkpt lat="48.69427" lon="1.86774">
        <ele>181.2</ele>
        <time>2026-03-29T13:11:58Z</time>
      </trkpt>
      <trkpt lat="48.69429" lon="1.86781">
        <ele>181.2</ele>
        <time>2026-03-29T13:11:59Z</time>
      </trkpt>
      <trkpt lat="48.69431" lon="1.86788">
        <ele>181.2</ele>
        <time>2026-03-29T13:12:00Z</time>
      </trkpt>
      <trkpt lat="48.69432" lon="1.86795">
        <ele>180.2</ele>
        <time>2026-03-29T13:12:01Z</time>
      </trkpt>
      <trkpt lat="48.69434" lon="1.86802">
        <ele>179.4</ele>
        <time>2026-03-29T13:12:02Z</time>
      </trkpt>
      <trkpt lat="48.69436" lon="1.86811">
        <ele>179.4</ele>
        <time>2026-03-29T13:12:03Z</time>
      </trkpt>
      <trkpt lat="48.69439" lon="1.8682">
        <ele>179.4</ele>
        <time>2026-03-29T13:12:04Z</time>
      </trkpt>
      <trkpt lat="48.69443" lon="1.86829">
        <ele>178.4</ele>
        <time>2026-03-29T13:12:05Z</time>
      </trkpt>
      <trkpt lat="48.69445" lon="1.86838">
        <ele>176.8</ele>
        <time>2026-03-29T13:12:06Z</time>
      </trkpt>
      <trkpt lat="48.69448" lon="1.86847">
        <ele>176.8</ele>
        <time>2026-03-29T13:12:07Z</time>
      </trkpt>
      <trkpt lat="48.69449" lon="1.86854">
        <ele>176.8</ele>
        <time>2026-03-29T13:12:08Z</time>
      </trkpt>
      <trkpt lat="48.69449" lon="1.86859">
        <ele>176</ele>
        <time>2026-03-29T13:12:09Z</time>
      </trkpt>
      <trkpt lat="48.69451" lon="1.86863">
        <ele>176</ele>
        <time>2026-03-29T13:12:10Z</time>
      </trkpt>
      <trkpt lat="48.69453" lon="1.86867">
        <ele>176</ele>
        <time>2026-03-29T13:12:11Z</time>
      </trkpt>
      <trkpt lat="48.69454" lon="1.8687">
        <ele>176</ele>
        <time>2026-03-29T13:12:12Z</time>
      </trkpt>
      <trkpt lat="48.69456" lon="1.86874">
        <ele>176.2</ele>
        <time>2026-03-29T13:12:13Z</time>
      </trkpt>
      <trkpt lat="48.69457" lon="1.8688">
        <ele>176.2</ele>
        <time>2026-03-29T13:12:14Z</time>
      </trkpt>
      <trkpt lat="48.69458" lon="1.86887">
        <ele>176.2</ele>
        <time>2026-03-29T13:12:15Z</time>
      </trkpt>
      <trkpt lat="48.6946" lon="1.86893">
        <ele>176.2</ele>
        <time>2026-03-29T13:12:16Z</time>
      </trkpt>
      <trkpt lat="48.69461" lon="1.869">
        <ele>176.2</ele>
        <time>2026-03-29T13:12:17Z</time>
      </trkpt>
      <trkpt lat="48.69464" lon="1.86906">
        <ele>176.4</ele>
        <time>2026-03-29T13:12:18Z</time>
      </trkpt>
      <trkpt lat="48.69468" lon="1.86913">
        <ele>176.4</ele>
        <time>2026-03-29T13:12:19Z</time>
      </trkpt>
      <trkpt lat="48.69471" lon="1.86917">
        <ele>176.4</ele>
        <time>2026-03-29T13:12:20Z</time>
      </trkpt>
      <trkpt lat="48.69475" lon="1.8692">
        <ele>176.4</ele>
        <time>2026-03-29T13:12:21Z</time>
      </trkpt>
      <trkpt lat="48.6948" lon="1.86923">
        <ele>176</ele>
        <time>2026-03-29T13:12:22Z</time>
      </trkpt>
      <trkpt lat="48.69484" lon="1.86926">
        <ele>176</ele>
        <time>2026-03-29T13:12:23Z</time>
      </trkpt>
      <trkpt lat="48.69489" lon="1.86929">
        <ele>176</ele>
        <time>2026-03-29T13:12:24Z</time>
      </trkpt>
      <trkpt lat="48.69493" lon="1.86932">
        <ele>175.2</ele>
        <time>2026-03-29T13:12:25Z</time>
      </trkpt>
      <trkpt lat="48.69499" lon="1.86936">
        <ele>175.2</ele>
        <time>2026-03-29T13:12:26Z</time>
      </trkpt>
      <trkpt lat="48.69505" lon="1.86939">
        <ele>175.2</ele>
        <time>2026-03-29T13:12:27Z</time>
      </trkpt>
      <trkpt lat="48.69512" lon="1.86943">
        <ele>175.2</ele>
        <time>2026-03-29T13:12:28Z</time>
      </trkpt>
      <trkpt lat="48.69519" lon="1.86947">
        <ele>174.4</ele>
        <time>2026-03-29T13:12:29Z</time>
      </trkpt>
      <trkpt lat="48.69525" lon="1.8695">
        <ele>173.8</ele>
        <time>2026-03-29T13:12:30Z</time>
      </trkpt>
      <trkpt lat="48.69533" lon="1.86954">
        <ele>173.8</ele>
        <time>2026-03-29T13:12:31Z</time>
      </trkpt>
      <trkpt lat="48.6954" lon="1.86957">
        <ele>173.8</ele>
        <time>2026-03-29T13:12:32Z</time>
      </trkpt>
      <trkpt lat="48.69546" lon="1.86962">
        <ele>173.8</ele>
        <time>2026-03-29T13:12:33Z</time>
      </trkpt>
      <trkpt lat="48.69552" lon="1.86966">
        <ele>173.2</ele>
        <time>2026-03-29T13:12:34Z</time>
      </trkpt>
      <trkpt lat="48.69557" lon="1.8697">
        <ele>173.2</ele>
        <time>2026-03-29T13:12:35Z</time>
      </trkpt>
      <trkpt lat="48.69562" lon="1.86974">
        <ele>173.2</ele>
        <time>2026-03-29T13:12:36Z</time>
      </trkpt>
      <trkpt lat="48.69567" lon="1.86979">
        <ele>173.2</ele>
        <time>2026-03-29T13:12:37Z</time>
      </trkpt>
      <trkpt lat="48.69572" lon="1.86982">
        <ele>173.6</ele>
        <time>2026-03-29T13:12:38Z</time>
      </trkpt>
      <trkpt lat="48.69577" lon="1.86987">
        <ele>173.6</ele>
        <time>2026-03-29T13:12:39Z</time>
      </trkpt>
      <trkpt lat="48.6958" lon="1.86992">
        <ele>173.6</ele>
        <time>2026-03-29T13:12:40Z</time>
      </trkpt>
      <trkpt lat="48.69584" lon="1.86997">
        <ele>172.6</ele>
        <time>2026-03-29T13:12:41Z</time>
      </trkpt>
      <trkpt lat="48.69588" lon="1.87001">
        <ele>172.4</ele>
        <time>2026-03-29T13:12:42Z</time>
      </trkpt>
      <trkpt lat="48.69592" lon="1.87005">
        <ele>172.4</ele>
        <time>2026-03-29T13:12:43Z</time>
      </trkpt>
      <trkpt lat="48.69594" lon="1.87008">
        <ele>172.4</ele>
        <time>2026-03-29T13:12:44Z</time>
      </trkpt>
      <trkpt lat="48.69599" lon="1.87013">
        <ele>171.8</ele>
        <time>2026-03-29T13:12:45Z</time>
      </trkpt>
      <trkpt lat="48.69602" lon="1.87017">
        <ele>171.8</ele>
        <time>2026-03-29T13:12:46Z</time>
      </trkpt>
      <trkpt lat="48.69606" lon="1.87023">
        <ele>171.8</ele>
        <time>2026-03-29T13:12:47Z</time>
      </trkpt>
      <trkpt lat="48.6961" lon="1.87029">
        <ele>171.8</ele>
        <time>2026-03-29T13:12:48Z</time>
      </trkpt>
      <trkpt lat="48.69613" lon="1.87034">
        <ele>171.8</ele>
        <time>2026-03-29T13:12:49Z</time>
      </trkpt>
      <trkpt lat="48.69616" lon="1.87039">
        <ele>171</ele>
        <time>2026-03-29T13:12:50Z</time>
      </trkpt>
      <trkpt lat="48.69619" lon="1.87045">
        <ele>171</ele>
        <time>2026-03-29T13:12:51Z</time>
      </trkpt>
      <trkpt lat="48.69623" lon="1.87052">
        <ele>171</ele>
        <time>2026-03-29T13:12:52Z</time>
      </trkpt>
      <trkpt lat="48.69625" lon="1.87061">
        <ele>171.6</ele>
        <time>2026-03-29T13:12:53Z</time>
      </trkpt>
      <trkpt lat="48.69629" lon="1.87074">
        <ele>171.8</ele>
        <time>2026-03-29T13:12:54Z</time>
      </trkpt>
      <trkpt lat="48.69631" lon="1.87082">
        <ele>171.8</ele>
        <time>2026-03-29T13:12:55Z</time>
      </trkpt>
      <trkpt lat="48.69631" lon="1.87088">
        <ele>171.8</ele>
        <time>2026-03-29T13:12:56Z</time>
      </trkpt>
      <trkpt lat="48.69633" lon="1.87097">
        <ele>171.8</ele>
        <time>2026-03-29T13:12:57Z</time>
      </trkpt>
      <trkpt lat="48.69635" lon="1.87105">
        <ele>171.6</ele>
        <time>2026-03-29T13:12:58Z</time>
      </trkpt>
      <trkpt lat="48.69636" lon="1.87113">
        <ele>171.6</ele>
        <time>2026-03-29T13:12:59Z</time>
      </trkpt>
      <trkpt lat="48.69638" lon="1.8712">
        <ele>171.6</ele>
        <time>2026-03-29T13:13:00Z</time>
      </trkpt>
      <trkpt lat="48.69639" lon="1.87127">
        <ele>171.6</ele>
        <time>2026-03-29T13:13:01Z</time>
      </trkpt>
      <trkpt lat="48.6964" lon="1.87134">
        <ele>170.2</ele>
        <time>2026-03-29T13:13:02Z</time>
      </trkpt>
      <trkpt lat="48.69642" lon="1.87142">
        <ele>170.2</ele>
        <time>2026-03-29T13:13:03Z</time>
      </trkpt>
      <trkpt lat="48.69644" lon="1.8715">
        <ele>170.2</ele>
        <time>2026-03-29T13:13:04Z</time>
      </trkpt>
      <trkpt lat="48.69646" lon="1.87159">
        <ele>170.2</ele>
        <time>2026-03-29T13:13:05Z</time>
      </trkpt>
      <trkpt lat="48.69649" lon="1.87171">
        <ele>169.6</ele>
        <time>2026-03-29T13:13:06Z</time>
      </trkpt>
      <trkpt lat="48.69651" lon="1.87179">
        <ele>169.6</ele>
        <time>2026-03-29T13:13:07Z</time>
      </trkpt>
      <trkpt lat="48.69653" lon="1.87187">
        <ele>169.6</ele>
        <time>2026-03-29T13:13:08Z</time>
      </trkpt>
      <trkpt lat="48.69656" lon="1.87193">
        <ele>169.6</ele>
        <time>2026-03-29T13:13:09Z</time>
      </trkpt>
      <trkpt lat="48.69658" lon="1.87201">
        <ele>169.6</ele>
        <time>2026-03-29T13:13:10Z</time>
      </trkpt>
      <trkpt lat="48.6966" lon="1.87209">
        <ele>169.6</ele>
        <time>2026-03-29T13:13:11Z</time>
      </trkpt>
      <trkpt lat="48.69662" lon="1.8722">
        <ele>169.6</ele>
        <time>2026-03-29T13:13:12Z</time>
      </trkpt>
      <trkpt lat="48.69664" lon="1.87227">
        <ele>169.6</ele>
        <time>2026-03-29T13:13:13Z</time>
      </trkpt>
      <trkpt lat="48.69665" lon="1.87234">
        <ele>169.4</ele>
        <time>2026-03-29T13:13:14Z</time>
      </trkpt>
      <trkpt lat="48.69667" lon="1.87241">
        <ele>169.4</ele>
        <time>2026-03-29T13:13:15Z</time>
      </trkpt>
      <trkpt lat="48.6967" lon="1.87251">
        <ele>169.4</ele>
        <time>2026-03-29T13:13:16Z</time>
      </trkpt>
      <trkpt lat="48.69672" lon="1.87259">
        <ele>169.2</ele>
        <time>2026-03-29T13:13:17Z</time>
      </trkpt>
      <trkpt lat="48.69674" lon="1.87269">
        <ele>169.4</ele>
        <time>2026-03-29T13:13:18Z</time>
      </trkpt>
      <trkpt lat="48.69679" lon="1.87282">
        <ele>169.4</ele>
        <time>2026-03-29T13:13:19Z</time>
      </trkpt>
      <trkpt lat="48.69682" lon="1.87293">
        <ele>169.4</ele>
        <time>2026-03-29T13:13:20Z</time>
      </trkpt>
      <trkpt lat="48.69683" lon="1.87301">
        <ele>169.2</ele>
        <time>2026-03-29T13:13:21Z</time>
      </trkpt>
      <trkpt lat="48.69684" lon="1.87309">
        <ele>168.8</ele>
        <time>2026-03-29T13:13:22Z</time>
      </trkpt>
      <trkpt lat="48.69684" lon="1.87318">
        <ele>168.8</ele>
        <time>2026-03-29T13:13:23Z</time>
      </trkpt>
      <trkpt lat="48.69684" lon="1.87327">
        <ele>168.8</ele>
        <time>2026-03-29T13:13:24Z</time>
      </trkpt>
      <trkpt lat="48.69686" lon="1.87338">
        <ele>167.8</ele>
        <time>2026-03-29T13:13:25Z</time>
      </trkpt>
      <trkpt lat="48.69689" lon="1.87349">
        <ele>167.6</ele>
        <time>2026-03-29T13:13:26Z</time>
      </trkpt>
      <trkpt lat="48.6969" lon="1.87361">
        <ele>167.6</ele>
        <time>2026-03-29T13:13:27Z</time>
      </trkpt>
      <trkpt lat="48.69691" lon="1.8737">
        <ele>167.6</ele>
        <time>2026-03-29T13:13:28Z</time>
      </trkpt>
      <trkpt lat="48.69692" lon="1.87379">
        <ele>167.6</ele>
        <time>2026-03-29T13:13:29Z</time>
      </trkpt>
      <trkpt lat="48.69693" lon="1.87388">
        <ele>168</ele>
        <time>2026-03-29T13:13:30Z</time>
      </trkpt>
      <trkpt lat="48.69695" lon="1.87398">
        <ele>168</ele>
        <time>2026-03-29T13:13:31Z</time>
      </trkpt>
      <trkpt lat="48.69698" lon="1.87407">
        <ele>168</ele>
        <time>2026-03-29T13:13:32Z</time>
      </trkpt>
      <trkpt lat="48.69699" lon="1.87415">
        <ele>167.6</ele>
        <time>2026-03-29T13:13:33Z</time>
      </trkpt>
      <trkpt lat="48.697" lon="1.87422">
        <ele>167.8</ele>
        <time>2026-03-29T13:13:34Z</time>
      </trkpt>
      <trkpt lat="48.69702" lon="1.87427">
        <ele>167.8</ele>
        <time>2026-03-29T13:13:35Z</time>
      </trkpt>
      <trkpt lat="48.69705" lon="1.87435">
        <ele>167.8</ele>
        <time>2026-03-29T13:13:36Z</time>
      </trkpt>
      <trkpt lat="48.69708" lon="1.87447">
        <ele>166.8</ele>
        <time>2026-03-29T13:13:37Z</time>
      </trkpt>
      <trkpt lat="48.6971" lon="1.87455">
        <ele>166.4</ele>
        <time>2026-03-29T13:13:38Z</time>
      </trkpt>
      <trkpt lat="48.69714" lon="1.87465">
        <ele>166.4</ele>
        <time>2026-03-29T13:13:39Z</time>
      </trkpt>
      <trkpt lat="48.69717" lon="1.87475">
        <ele>166.4</ele>
        <time>2026-03-29T13:13:40Z</time>
      </trkpt>
      <trkpt lat="48.6972" lon="1.87484">
        <ele>166</ele>
        <time>2026-03-29T13:13:41Z</time>
      </trkpt>
      <trkpt lat="48.69724" lon="1.87493">
        <ele>165.8</ele>
        <time>2026-03-29T13:13:42Z</time>
      </trkpt>
      <trkpt lat="48.69726" lon="1.87499">
        <ele>165.8</ele>
        <time>2026-03-29T13:13:43Z</time>
      </trkpt>
      <trkpt lat="48.69729" lon="1.87507">
        <ele>165.8</ele>
        <time>2026-03-29T13:13:44Z</time>
      </trkpt>
      <trkpt lat="48.69732" lon="1.87514">
        <ele>165.8</ele>
        <time>2026-03-29T13:13:45Z</time>
      </trkpt>
      <trkpt lat="48.69736" lon="1.8752">
        <ele>165.4</ele>
        <time>2026-03-29T13:13:46Z</time>
      </trkpt>
      <trkpt lat="48.6974" lon="1.87527">
        <ele>165.4</ele>
        <time>2026-03-29T13:13:47Z</time>
      </trkpt>
      <trkpt lat="48.69745" lon="1.87533">
        <ele>165.4</ele>
        <time>2026-03-29T13:13:48Z</time>
      </trkpt>
      <trkpt lat="48.6975" lon="1.8754">
        <ele>165.4</ele>
        <time>2026-03-29T13:13:49Z</time>
      </trkpt>
      <trkpt lat="48.69755" lon="1.87545">
        <ele>165.2</ele>
        <time>2026-03-29T13:13:50Z</time>
      </trkpt>
      <trkpt lat="48.6976" lon="1.87551">
        <ele>165.2</ele>
        <time>2026-03-29T13:13:51Z</time>
      </trkpt>
      <trkpt lat="48.69763" lon="1.87556">
        <ele>165.2</ele>
        <time>2026-03-29T13:13:52Z</time>
      </trkpt>
      <trkpt lat="48.69766" lon="1.87562">
        <ele>165.2</ele>
        <time>2026-03-29T13:13:53Z</time>
      </trkpt>
      <trkpt lat="48.69769" lon="1.87568">
        <ele>164.4</ele>
        <time>2026-03-29T13:13:54Z</time>
      </trkpt>
      <trkpt lat="48.69775" lon="1.87575">
        <ele>164.4</ele>
        <time>2026-03-29T13:13:55Z</time>
      </trkpt>
      <trkpt lat="48.69781" lon="1.87586">
        <ele>164.4</ele>
        <time>2026-03-29T13:13:56Z</time>
      </trkpt>
      <trkpt lat="48.69785" lon="1.87596">
        <ele>164.4</ele>
        <time>2026-03-29T13:13:57Z</time>
      </trkpt>
      <trkpt lat="48.69789" lon="1.87606">
        <ele>165</ele>
        <time>2026-03-29T13:13:58Z</time>
      </trkpt>
      <trkpt lat="48.69791" lon="1.87616">
        <ele>165</ele>
        <time>2026-03-29T13:13:59Z</time>
      </trkpt>
      <trkpt lat="48.69792" lon="1.87626">
        <ele>165</ele>
        <time>2026-03-29T13:14:00Z</time>
      </trkpt>
      <trkpt lat="48.69793" lon="1.87636">
        <ele>165</ele>
        <time>2026-03-29T13:14:01Z</time>
      </trkpt>
      <trkpt lat="48.69794" lon="1.87644">
        <ele>164.2</ele>
        <time>2026-03-29T13:14:02Z</time>
      </trkpt>
      <trkpt lat="48.69796" lon="1.87653">
        <ele>164.2</ele>
        <time>2026-03-29T13:14:03Z</time>
      </trkpt>
      <trkpt lat="48.69797" lon="1.87662">
        <ele>164.2</ele>
        <time>2026-03-29T13:14:04Z</time>
      </trkpt>
      <trkpt lat="48.69799" lon="1.87669">
        <ele>164.4</ele>
        <time>2026-03-29T13:14:05Z</time>
      </trkpt>
      <trkpt lat="48.698" lon="1.87678">
        <ele>164.4</ele>
        <time>2026-03-29T13:14:06Z</time>
      </trkpt>
      <trkpt lat="48.69801" lon="1.87687">
        <ele>164.4</ele>
        <time>2026-03-29T13:14:07Z</time>
      </trkpt>
      <trkpt lat="48.69802" lon="1.87697">
        <ele>164.4</ele>
        <time>2026-03-29T13:14:08Z</time>
      </trkpt>
      <trkpt lat="48.69804" lon="1.87706">
        <ele>163.4</ele>
        <time>2026-03-29T13:14:09Z</time>
      </trkpt>
      <trkpt lat="48.69803" lon="1.87712">
        <ele>163</ele>
        <time>2026-03-29T13:14:10Z</time>
      </trkpt>
      <trkpt lat="48.69804" lon="1.87718">
        <ele>163</ele>
        <time>2026-03-29T13:14:11Z</time>
      </trkpt>
      <trkpt lat="48.69805" lon="1.87724">
        <ele>163</ele>
        <time>2026-03-29T13:14:12Z</time>
      </trkpt>
      <trkpt lat="48.69806" lon="1.87732">
        <ele>163.2</ele>
        <time>2026-03-29T13:14:13Z</time>
      </trkpt>
      <trkpt lat="48.69808" lon="1.87739">
        <ele>163.2</ele>
        <time>2026-03-29T13:14:14Z</time>
      </trkpt>
      <trkpt lat="48.69809" lon="1.87746">
        <ele>163.2</ele>
        <time>2026-03-29T13:14:15Z</time>
      </trkpt>
      <trkpt lat="48.6981" lon="1.87752">
        <ele>163.2</ele>
        <time>2026-03-29T13:14:16Z</time>
      </trkpt>
      <trkpt lat="48.69811" lon="1.87758">
        <ele>163.2</ele>
        <time>2026-03-29T13:14:17Z</time>
      </trkpt>
      <trkpt lat="48.69812" lon="1.87766">
        <ele>163.2</ele>
        <time>2026-03-29T13:14:18Z</time>
      </trkpt>
      <trkpt lat="48.69815" lon="1.87774">
        <ele>163.2</ele>
        <time>2026-03-29T13:14:19Z</time>
      </trkpt>
      <trkpt lat="48.69816" lon="1.8778">
        <ele>163.2</ele>
        <time>2026-03-29T13:14:20Z</time>
      </trkpt>
      <trkpt lat="48.69818" lon="1.87786">
        <ele>163.6</ele>
        <time>2026-03-29T13:14:21Z</time>
      </trkpt>
      <trkpt lat="48.69821" lon="1.87793">
        <ele>163.8</ele>
        <time>2026-03-29T13:14:22Z</time>
      </trkpt>
      <trkpt lat="48.69822" lon="1.87801">
        <ele>163.8</ele>
        <time>2026-03-29T13:14:23Z</time>
      </trkpt>
      <trkpt lat="48.69823" lon="1.87808">
        <ele>163.8</ele>
        <time>2026-03-29T13:14:24Z</time>
      </trkpt>
      <trkpt lat="48.69824" lon="1.87816">
        <ele>162.8</ele>
        <time>2026-03-29T13:14:25Z</time>
      </trkpt>
      <trkpt lat="48.69825" lon="1.87823">
        <ele>161.8</ele>
        <time>2026-03-29T13:14:26Z</time>
      </trkpt>
      <trkpt lat="48.69826" lon="1.87831">
        <ele>161.8</ele>
        <time>2026-03-29T13:14:27Z</time>
      </trkpt>
      <trkpt lat="48.69827" lon="1.8784">
        <ele>161.8</ele>
        <time>2026-03-29T13:14:28Z</time>
      </trkpt>
      <trkpt lat="48.69828" lon="1.87851">
        <ele>161.8</ele>
        <time>2026-03-29T13:14:29Z</time>
      </trkpt>
      <trkpt lat="48.69829" lon="1.87862">
        <ele>160.4</ele>
        <time>2026-03-29T13:14:30Z</time>
      </trkpt>
      <trkpt lat="48.6983" lon="1.87871">
        <ele>160.4</ele>
        <time>2026-03-29T13:14:31Z</time>
      </trkpt>
      <trkpt lat="48.69831" lon="1.8788">
        <ele>160.4</ele>
        <time>2026-03-29T13:14:32Z</time>
      </trkpt>
      <trkpt lat="48.69832" lon="1.8789">
        <ele>160.4</ele>
        <time>2026-03-29T13:14:33Z</time>
      </trkpt>
      <trkpt lat="48.69834" lon="1.879">
        <ele>160.4</ele>
        <time>2026-03-29T13:14:34Z</time>
      </trkpt>
      <trkpt lat="48.69834" lon="1.8791">
        <ele>160.4</ele>
        <time>2026-03-29T13:14:35Z</time>
      </trkpt>
      <trkpt lat="48.69836" lon="1.87919">
        <ele>160.4</ele>
        <time>2026-03-29T13:14:36Z</time>
      </trkpt>
      <trkpt lat="48.69836" lon="1.87929">
        <ele>160.2</ele>
        <time>2026-03-29T13:14:37Z</time>
      </trkpt>
      <trkpt lat="48.69838" lon="1.87937">
        <ele>160.2</ele>
        <time>2026-03-29T13:14:38Z</time>
      </trkpt>
      <trkpt lat="48.69839" lon="1.87945">
        <ele>160.2</ele>
        <time>2026-03-29T13:14:39Z</time>
      </trkpt>
      <trkpt lat="48.69842" lon="1.8795">
        <ele>160.2</ele>
        <time>2026-03-29T13:14:40Z</time>
      </trkpt>
      <trkpt lat="48.69847" lon="1.87953">
        <ele>160.2</ele>
        <time>2026-03-29T13:14:41Z</time>
      </trkpt>
      <trkpt lat="48.69852" lon="1.87957">
        <ele>160.2</ele>
        <time>2026-03-29T13:14:42Z</time>
      </trkpt>
      <trkpt lat="48.69857" lon="1.87959">
        <ele>160.2</ele>
        <time>2026-03-29T13:14:43Z</time>
      </trkpt>
      <trkpt lat="48.69862" lon="1.87962">
        <ele>160.2</ele>
        <time>2026-03-29T13:14:44Z</time>
      </trkpt>
      <trkpt lat="48.69866" lon="1.87966">
        <ele>159.8</ele>
        <time>2026-03-29T13:14:45Z</time>
      </trkpt>
      <trkpt lat="48.6987" lon="1.87972">
        <ele>159.6</ele>
        <time>2026-03-29T13:14:46Z</time>
      </trkpt>
      <trkpt lat="48.69873" lon="1.8798">
        <ele>159.6</ele>
        <time>2026-03-29T13:14:47Z</time>
      </trkpt>
      <trkpt lat="48.69874" lon="1.87988">
        <ele>159.6</ele>
        <time>2026-03-29T13:14:48Z</time>
      </trkpt>
      <trkpt lat="48.69878" lon="1.87995">
        <ele>159</ele>
        <time>2026-03-29T13:14:49Z</time>
      </trkpt>
      <trkpt lat="48.69881" lon="1.88002">
        <ele>159</ele>
        <time>2026-03-29T13:14:50Z</time>
      </trkpt>
      <trkpt lat="48.69884" lon="1.88009">
        <ele>159</ele>
        <time>2026-03-29T13:14:51Z</time>
      </trkpt>
      <trkpt lat="48.69888" lon="1.88017">
        <ele>159</ele>
        <time>2026-03-29T13:14:52Z</time>
      </trkpt>
      <trkpt lat="48.69891" lon="1.88024">
        <ele>159.2</ele>
        <time>2026-03-29T13:14:53Z</time>
      </trkpt>
      <trkpt lat="48.69894" lon="1.88032">
        <ele>159.2</ele>
        <time>2026-03-29T13:14:54Z</time>
      </trkpt>
      <trkpt lat="48.69897" lon="1.88039">
        <ele>159.2</ele>
        <time>2026-03-29T13:14:55Z</time>
      </trkpt>
      <trkpt lat="48.699" lon="1.88047">
        <ele>159.2</ele>
        <time>2026-03-29T13:14:56Z</time>
      </trkpt>
      <trkpt lat="48.69903" lon="1.88054">
        <ele>159.2</ele>
        <time>2026-03-29T13:14:57Z</time>
      </trkpt>
      <trkpt lat="48.69906" lon="1.88062">
        <ele>158.8</ele>
        <time>2026-03-29T13:14:58Z</time>
      </trkpt>
      <trkpt lat="48.6991" lon="1.88068">
        <ele>158.8</ele>
        <time>2026-03-29T13:14:59Z</time>
      </trkpt>
      <trkpt lat="48.69914" lon="1.88075">
        <ele>158.8</ele>
        <time>2026-03-29T13:15:00Z</time>
      </trkpt>
      <trkpt lat="48.69918" lon="1.88081">
        <ele>158.4</ele>
        <time>2026-03-29T13:15:01Z</time>
      </trkpt>
      <trkpt lat="48.69923" lon="1.88086">
        <ele>158.4</ele>
        <time>2026-03-29T13:15:02Z</time>
      </trkpt>
      <trkpt lat="48.69927" lon="1.88091">
        <ele>158.4</ele>
        <time>2026-03-29T13:15:03Z</time>
      </trkpt>
      <trkpt lat="48.69932" lon="1.88096">
        <ele>158.4</ele>
        <time>2026-03-29T13:15:04Z</time>
      </trkpt>
      <trkpt lat="48.69936" lon="1.881">
        <ele>158.4</ele>
        <time>2026-03-29T13:15:05Z</time>
      </trkpt>
      <trkpt lat="48.69941" lon="1.88105">
        <ele>158.8</ele>
        <time>2026-03-29T13:15:06Z</time>
      </trkpt>
      <trkpt lat="48.69945" lon="1.88109">
        <ele>158.8</ele>
        <time>2026-03-29T13:15:07Z</time>
      </trkpt>
      <trkpt lat="48.6995" lon="1.88113">
        <ele>158.8</ele>
        <time>2026-03-29T13:15:08Z</time>
      </trkpt>
      <trkpt lat="48.69954" lon="1.88118">
        <ele>158.8</ele>
        <time>2026-03-29T13:15:09Z</time>
      </trkpt>
      <trkpt lat="48.69959" lon="1.88122">
        <ele>158</ele>
        <time>2026-03-29T13:15:10Z</time>
      </trkpt>
      <trkpt lat="48.69964" lon="1.88126">
        <ele>158</ele>
        <time>2026-03-29T13:15:11Z</time>
      </trkpt>
      <trkpt lat="48.69968" lon="1.8813">
        <ele>158</ele>
        <time>2026-03-29T13:15:12Z</time>
      </trkpt>
      <trkpt lat="48.69973" lon="1.88134">
        <ele>158</ele>
        <time>2026-03-29T13:15:13Z</time>
      </trkpt>
      <trkpt lat="48.69977" lon="1.88139">
        <ele>158.2</ele>
        <time>2026-03-29T13:15:14Z</time>
      </trkpt>
      <trkpt lat="48.69981" lon="1.88143">
        <ele>158.2</ele>
        <time>2026-03-29T13:15:15Z</time>
      </trkpt>
      <trkpt lat="48.69986" lon="1.88146">
        <ele>158.2</ele>
        <time>2026-03-29T13:15:16Z</time>
      </trkpt>
      <trkpt lat="48.6999" lon="1.8815">
        <ele>157.8</ele>
        <time>2026-03-29T13:15:17Z</time>
      </trkpt>
      <trkpt lat="48.69995" lon="1.88153">
        <ele>158.2</ele>
        <time>2026-03-29T13:15:18Z</time>
      </trkpt>
      <trkpt lat="48.69998" lon="1.88158">
        <ele>158.2</ele>
        <time>2026-03-29T13:15:19Z</time>
      </trkpt>
      <trkpt lat="48.70002" lon="1.88164">
        <ele>158.2</ele>
        <time>2026-03-29T13:15:20Z</time>
      </trkpt>
      <trkpt lat="48.70005" lon="1.88171">
        <ele>157.8</ele>
        <time>2026-03-29T13:15:21Z</time>
      </trkpt>
      <trkpt lat="48.70008" lon="1.8818">
        <ele>157.8</ele>
        <time>2026-03-29T13:15:22Z</time>
      </trkpt>
      <trkpt lat="48.7001" lon="1.88188">
        <ele>157.8</ele>
        <time>2026-03-29T13:15:23Z</time>
      </trkpt>
      <trkpt lat="48.70012" lon="1.88196">
        <ele>157.8</ele>
        <time>2026-03-29T13:15:24Z</time>
      </trkpt>
      <trkpt lat="48.70015" lon="1.88204">
        <ele>158</ele>
        <time>2026-03-29T13:15:25Z</time>
      </trkpt>
      <trkpt lat="48.70017" lon="1.88212">
        <ele>157.8</ele>
        <time>2026-03-29T13:15:26Z</time>
      </trkpt>
      <trkpt lat="48.70019" lon="1.8822">
        <ele>157.8</ele>
        <time>2026-03-29T13:15:27Z</time>
      </trkpt>
      <trkpt lat="48.70021" lon="1.88228">
        <ele>157.8</ele>
        <time>2026-03-29T13:15:28Z</time>
      </trkpt>
      <trkpt lat="48.70022" lon="1.88236">
        <ele>158.2</ele>
        <time>2026-03-29T13:15:29Z</time>
      </trkpt>
      <trkpt lat="48.70025" lon="1.88245">
        <ele>158</ele>
        <time>2026-03-29T13:15:30Z</time>
      </trkpt>
      <trkpt lat="48.70027" lon="1.88253">
        <ele>158</ele>
        <time>2026-03-29T13:15:31Z</time>
      </trkpt>
      <trkpt lat="48.70029" lon="1.88261">
        <ele>158</ele>
        <time>2026-03-29T13:15:32Z</time>
      </trkpt>
      <trkpt lat="48.70032" lon="1.8827">
        <ele>158</ele>
        <time>2026-03-29T13:15:33Z</time>
      </trkpt>
      <trkpt lat="48.70034" lon="1.88278">
        <ele>158.2</ele>
        <time>2026-03-29T13:15:34Z</time>
      </trkpt>
      <trkpt lat="48.70037" lon="1.88286">
        <ele>158.2</ele>
        <time>2026-03-29T13:15:35Z</time>
      </trkpt>
      <trkpt lat="48.70039" lon="1.88294">
        <ele>158.2</ele>
        <time>2026-03-29T13:15:36Z</time>
      </trkpt>
      <trkpt lat="48.70041" lon="1.88303">
        <ele>158.2</ele>
        <time>2026-03-29T13:15:37Z</time>
      </trkpt>
      <trkpt lat="48.70044" lon="1.8831">
        <ele>158.6</ele>
        <time>2026-03-29T13:15:38Z</time>
      </trkpt>
      <trkpt lat="48.70046" lon="1.88318">
        <ele>158.6</ele>
        <time>2026-03-29T13:15:39Z</time>
      </trkpt>
      <trkpt lat="48.70049" lon="1.88326">
        <ele>158.6</ele>
        <time>2026-03-29T13:15:40Z</time>
      </trkpt>
      <trkpt lat="48.70051" lon="1.88334">
        <ele>159.2</ele>
        <time>2026-03-29T13:15:41Z</time>
      </trkpt>
      <trkpt lat="48.70053" lon="1.88342">
        <ele>158.4</ele>
        <time>2026-03-29T13:15:42Z</time>
      </trkpt>
      <trkpt lat="48.70056" lon="1.88349">
        <ele>158.4</ele>
        <time>2026-03-29T13:15:43Z</time>
      </trkpt>
      <trkpt lat="48.70059" lon="1.88357">
        <ele>158.4</ele>
        <time>2026-03-29T13:15:44Z</time>
      </trkpt>
      <trkpt lat="48.70063" lon="1.88365">
        <ele>159.4</ele>
        <time>2026-03-29T13:15:45Z</time>
      </trkpt>
      <trkpt lat="48.70065" lon="1.88373">
        <ele>160.4</ele>
        <time>2026-03-29T13:15:46Z</time>
      </trkpt>
      <trkpt lat="48.70068" lon="1.88381">
        <ele>160.4</ele>
        <time>2026-03-29T13:15:47Z</time>
      </trkpt>
      <trkpt lat="48.70072" lon="1.88389">
        <ele>160.4</ele>
        <time>2026-03-29T13:15:48Z</time>
      </trkpt>
      <trkpt lat="48.70075" lon="1.88397">
        <ele>161.2</ele>
        <time>2026-03-29T13:15:49Z</time>
      </trkpt>
      <trkpt lat="48.70078" lon="1.88406">
        <ele>162</ele>
        <time>2026-03-29T13:15:50Z</time>
      </trkpt>
      <trkpt lat="48.70081" lon="1.88414">
        <ele>162</ele>
        <time>2026-03-29T13:15:51Z</time>
      </trkpt>
      <trkpt lat="48.70084" lon="1.88421">
        <ele>162</ele>
        <time>2026-03-29T13:15:52Z</time>
      </trkpt>
      <trkpt lat="48.70087" lon="1.88429">
        <ele>162</ele>
        <time>2026-03-29T13:15:53Z</time>
      </trkpt>
      <trkpt lat="48.7009" lon="1.88436">
        <ele>163.2</ele>
        <time>2026-03-29T13:15:54Z</time>
      </trkpt>
      <trkpt lat="48.70092" lon="1.88441">
        <ele>163.2</ele>
        <time>2026-03-29T13:15:55Z</time>
      </trkpt>
      <trkpt lat="48.70095" lon="1.88445">
        <ele>163.2</ele>
        <time>2026-03-29T13:15:56Z</time>
      </trkpt>
      <trkpt lat="48.70097" lon="1.88447">
        <ele>164.2</ele>
        <time>2026-03-29T13:15:57Z</time>
      </trkpt>
      <trkpt lat="48.70101" lon="1.88446">
        <ele>164</ele>
        <time>2026-03-29T13:15:58Z</time>
      </trkpt>
      <trkpt lat="48.70105" lon="1.88445">
        <ele>164</ele>
        <time>2026-03-29T13:15:59Z</time>
      </trkpt>
      <trkpt lat="48.70108" lon="1.88443">
        <ele>164</ele>
        <time>2026-03-29T13:16:00Z</time>
      </trkpt>
      <trkpt lat="48.70112" lon="1.88441">
        <ele>164.2</ele>
        <time>2026-03-29T13:16:01Z</time>
      </trkpt>
      <trkpt lat="48.70116" lon="1.8844">
        <ele>164</ele>
        <time>2026-03-29T13:16:02Z</time>
      </trkpt>
      <trkpt lat="48.7012" lon="1.88439">
        <ele>164</ele>
        <time>2026-03-29T13:16:03Z</time>
      </trkpt>
      <trkpt lat="48.70125" lon="1.8844">
        <ele>164</ele>
        <time>2026-03-29T13:16:04Z</time>
      </trkpt>
      <trkpt lat="48.70129" lon="1.88441">
        <ele>164</ele>
        <time>2026-03-29T13:16:05Z</time>
      </trkpt>
      <trkpt lat="48.70134" lon="1.88443">
        <ele>164</ele>
        <time>2026-03-29T13:16:06Z</time>
      </trkpt>
      <trkpt lat="48.70139" lon="1.88445">
        <ele>164</ele>
        <time>2026-03-29T13:16:07Z</time>
      </trkpt>
      <trkpt lat="48.70144" lon="1.88447">
        <ele>164</ele>
        <time>2026-03-29T13:16:08Z</time>
      </trkpt>
      <trkpt lat="48.70148" lon="1.88449">
        <ele>163.6</ele>
        <time>2026-03-29T13:16:09Z</time>
      </trkpt>
      <trkpt lat="48.70153" lon="1.88451">
        <ele>163.6</ele>
        <time>2026-03-29T13:16:10Z</time>
      </trkpt>
      <trkpt lat="48.70157" lon="1.88453">
        <ele>163.6</ele>
        <time>2026-03-29T13:16:11Z</time>
      </trkpt>
      <trkpt lat="48.70162" lon="1.88456">
        <ele>163.6</ele>
        <time>2026-03-29T13:16:12Z</time>
      </trkpt>
      <trkpt lat="48.70167" lon="1.88458">
        <ele>163.6</ele>
        <time>2026-03-29T13:16:13Z</time>
      </trkpt>
      <trkpt lat="48.70172" lon="1.8846">
        <ele>162.8</ele>
        <time>2026-03-29T13:16:14Z</time>
      </trkpt>
      <trkpt lat="48.70176" lon="1.88463">
        <ele>162.8</ele>
        <time>2026-03-29T13:16:15Z</time>
      </trkpt>
      <trkpt lat="48.70181" lon="1.88466">
        <ele>162.8</ele>
        <time>2026-03-29T13:16:16Z</time>
      </trkpt>
      <trkpt lat="48.70186" lon="1.88469">
        <ele>162.8</ele>
        <time>2026-03-29T13:16:17Z</time>
      </trkpt>
      <trkpt lat="48.7019" lon="1.88472">
        <ele>162.6</ele>
        <time>2026-03-29T13:16:18Z</time>
      </trkpt>
      <trkpt lat="48.70195" lon="1.88474">
        <ele>162.6</ele>
        <time>2026-03-29T13:16:19Z</time>
      </trkpt>
      <trkpt lat="48.70199" lon="1.88477">
        <ele>162.6</ele>
        <time>2026-03-29T13:16:20Z</time>
      </trkpt>
      <trkpt lat="48.70203" lon="1.8848">
        <ele>162.6</ele>
        <time>2026-03-29T13:16:21Z</time>
      </trkpt>
      <trkpt lat="48.70208" lon="1.88484">
        <ele>162.6</ele>
        <time>2026-03-29T13:16:22Z</time>
      </trkpt>
      <trkpt lat="48.70212" lon="1.88487">
        <ele>162.6</ele>
        <time>2026-03-29T13:16:23Z</time>
      </trkpt>
      <trkpt lat="48.70216" lon="1.8849">
        <ele>162.6</ele>
        <time>2026-03-29T13:16:24Z</time>
      </trkpt>
      <trkpt lat="48.70221" lon="1.88493">
        <ele>162.6</ele>
        <time>2026-03-29T13:16:25Z</time>
      </trkpt>
      <trkpt lat="48.70225" lon="1.88495">
        <ele>162.8</ele>
        <time>2026-03-29T13:16:26Z</time>
      </trkpt>
      <trkpt lat="48.7023" lon="1.88498">
        <ele>162.8</ele>
        <time>2026-03-29T13:16:27Z</time>
      </trkpt>
      <trkpt lat="48.70234" lon="1.88501">
        <ele>162.8</ele>
        <time>2026-03-29T13:16:28Z</time>
      </trkpt>
      <trkpt lat="48.70237" lon="1.88506">
        <ele>162.8</ele>
        <time>2026-03-29T13:16:29Z</time>
      </trkpt>
      <trkpt lat="48.70241" lon="1.88511">
        <ele>162.6</ele>
        <time>2026-03-29T13:16:30Z</time>
      </trkpt>
      <trkpt lat="48.70244" lon="1.88517">
        <ele>162.6</ele>
        <time>2026-03-29T13:16:31Z</time>
      </trkpt>
      <trkpt lat="48.70246" lon="1.88523">
        <ele>162.6</ele>
        <time>2026-03-29T13:16:32Z</time>
      </trkpt>
      <trkpt lat="48.70248" lon="1.8853">
        <ele>163.2</ele>
        <time>2026-03-29T13:16:33Z</time>
      </trkpt>
      <trkpt lat="48.70249" lon="1.88537">
        <ele>162.4</ele>
        <time>2026-03-29T13:16:34Z</time>
      </trkpt>
      <trkpt lat="48.70249" lon="1.88545">
        <ele>162.4</ele>
        <time>2026-03-29T13:16:35Z</time>
      </trkpt>
      <trkpt lat="48.70249" lon="1.88553">
        <ele>162.4</ele>
        <time>2026-03-29T13:16:36Z</time>
      </trkpt>
      <trkpt lat="48.70248" lon="1.8856">
        <ele>162.8</ele>
        <time>2026-03-29T13:16:37Z</time>
      </trkpt>
      <trkpt lat="48.70248" lon="1.88568">
        <ele>162.6</ele>
        <time>2026-03-29T13:16:38Z</time>
      </trkpt>
      <trkpt lat="48.70248" lon="1.88577">
        <ele>162.6</ele>
        <time>2026-03-29T13:16:39Z</time>
      </trkpt>
      <trkpt lat="48.70247" lon="1.88586">
        <ele>162.6</ele>
        <time>2026-03-29T13:16:40Z</time>
      </trkpt>
      <trkpt lat="48.70246" lon="1.88594">
        <ele>162.6</ele>
        <time>2026-03-29T13:16:41Z</time>
      </trkpt>
      <trkpt lat="48.70244" lon="1.88602">
        <ele>162.4</ele>
        <time>2026-03-29T13:16:42Z</time>
      </trkpt>
      <trkpt lat="48.70243" lon="1.88611">
        <ele>162.4</ele>
        <time>2026-03-29T13:16:43Z</time>
      </trkpt>
      <trkpt lat="48.70242" lon="1.88619">
        <ele>162.4</ele>
        <time>2026-03-29T13:16:44Z</time>
      </trkpt>
      <trkpt lat="48.7024" lon="1.88627">
        <ele>161.6</ele>
        <time>2026-03-29T13:16:45Z</time>
      </trkpt>
      <trkpt lat="48.70239" lon="1.88635">
        <ele>161.8</ele>
        <time>2026-03-29T13:16:46Z</time>
      </trkpt>
      <trkpt lat="48.70237" lon="1.88644">
        <ele>161.8</ele>
        <time>2026-03-29T13:16:47Z</time>
      </trkpt>
      <trkpt lat="48.70235" lon="1.88652">
        <ele>161.8</ele>
        <time>2026-03-29T13:16:48Z</time>
      </trkpt>
      <trkpt lat="48.70234" lon="1.88661">
        <ele>161.8</ele>
        <time>2026-03-29T13:16:49Z</time>
      </trkpt>
      <trkpt lat="48.70233" lon="1.8867">
        <ele>161.6</ele>
        <time>2026-03-29T13:16:50Z</time>
      </trkpt>
      <trkpt lat="48.70232" lon="1.88678">
        <ele>161.6</ele>
        <time>2026-03-29T13:16:51Z</time>
      </trkpt>
      <trkpt lat="48.70231" lon="1.88687">
        <ele>161.6</ele>
        <time>2026-03-29T13:16:52Z</time>
      </trkpt>
      <trkpt lat="48.70229" lon="1.88696">
        <ele>160.6</ele>
        <time>2026-03-29T13:16:53Z</time>
      </trkpt>
      <trkpt lat="48.70228" lon="1.88705">
        <ele>160</ele>
        <time>2026-03-29T13:16:54Z</time>
      </trkpt>
      <trkpt lat="48.70227" lon="1.88713">
        <ele>160</ele>
        <time>2026-03-29T13:16:55Z</time>
      </trkpt>
      <trkpt lat="48.70226" lon="1.88723">
        <ele>160</ele>
        <time>2026-03-29T13:16:56Z</time>
      </trkpt>
      <trkpt lat="48.70225" lon="1.88734">
        <ele>160</ele>
        <time>2026-03-29T13:16:57Z</time>
      </trkpt>
      <trkpt lat="48.70225" lon="1.88746">
        <ele>158.6</ele>
        <time>2026-03-29T13:16:58Z</time>
      </trkpt>
      <trkpt lat="48.70225" lon="1.88757">
        <ele>158.6</ele>
        <time>2026-03-29T13:16:59Z</time>
      </trkpt>
      <trkpt lat="48.70226" lon="1.88769">
        <ele>158.6</ele>
        <time>2026-03-29T13:17:00Z</time>
      </trkpt>
      <trkpt lat="48.70226" lon="1.88781">
        <ele>157.6</ele>
        <time>2026-03-29T13:17:01Z</time>
      </trkpt>
      <trkpt lat="48.70226" lon="1.88793">
        <ele>157.2</ele>
        <time>2026-03-29T13:17:02Z</time>
      </trkpt>
      <trkpt lat="48.70227" lon="1.88806">
        <ele>157.2</ele>
        <time>2026-03-29T13:17:03Z</time>
      </trkpt>
      <trkpt lat="48.70228" lon="1.8882">
        <ele>157.2</ele>
        <time>2026-03-29T13:17:04Z</time>
      </trkpt>
      <trkpt lat="48.70228" lon="1.88834">
        <ele>156.4</ele>
        <time>2026-03-29T13:17:05Z</time>
      </trkpt>
      <trkpt lat="48.70229" lon="1.88847">
        <ele>155.4</ele>
        <time>2026-03-29T13:17:06Z</time>
      </trkpt>
      <trkpt lat="48.70229" lon="1.88861">
        <ele>155.4</ele>
        <time>2026-03-29T13:17:07Z</time>
      </trkpt>
      <trkpt lat="48.7023" lon="1.88875">
        <ele>155.4</ele>
        <time>2026-03-29T13:17:08Z</time>
      </trkpt>
      <trkpt lat="48.7023" lon="1.88888">
        <ele>155.4</ele>
        <time>2026-03-29T13:17:09Z</time>
      </trkpt>
      <trkpt lat="48.70231" lon="1.88901">
        <ele>154.6</ele>
        <time>2026-03-29T13:17:10Z</time>
      </trkpt>
      <trkpt lat="48.70232" lon="1.88914">
        <ele>154.6</ele>
        <time>2026-03-29T13:17:11Z</time>
      </trkpt>
      <trkpt lat="48.70232" lon="1.88927">
        <ele>154.6</ele>
        <time>2026-03-29T13:17:12Z</time>
      </trkpt>
      <trkpt lat="48.70233" lon="1.8894">
        <ele>153.6</ele>
        <time>2026-03-29T13:17:13Z</time>
      </trkpt>
      <trkpt lat="48.70233" lon="1.88952">
        <ele>153.8</ele>
        <time>2026-03-29T13:17:14Z</time>
      </trkpt>
      <trkpt lat="48.70232" lon="1.88965">
        <ele>153.8</ele>
        <time>2026-03-29T13:17:15Z</time>
      </trkpt>
      <trkpt lat="48.70231" lon="1.88976">
        <ele>153.8</ele>
        <time>2026-03-29T13:17:16Z</time>
      </trkpt>
      <trkpt lat="48.70228" lon="1.88988">
        <ele>153.8</ele>
        <time>2026-03-29T13:17:17Z</time>
      </trkpt>
      <trkpt lat="48.70226" lon="1.88998">
        <ele>154.2</ele>
        <time>2026-03-29T13:17:18Z</time>
      </trkpt>
      <trkpt lat="48.70223" lon="1.89008">
        <ele>154.2</ele>
        <time>2026-03-29T13:17:19Z</time>
      </trkpt>
      <trkpt lat="48.7022" lon="1.89018">
        <ele>154.2</ele>
        <time>2026-03-29T13:17:20Z</time>
      </trkpt>
      <trkpt lat="48.70218" lon="1.89027">
        <ele>154</ele>
        <time>2026-03-29T13:17:21Z</time>
      </trkpt>
      <trkpt lat="48.70215" lon="1.89037">
        <ele>153.8</ele>
        <time>2026-03-29T13:17:22Z</time>
      </trkpt>
      <trkpt lat="48.70213" lon="1.89047">
        <ele>153.8</ele>
        <time>2026-03-29T13:17:23Z</time>
      </trkpt>
      <trkpt lat="48.70211" lon="1.89057">
        <ele>153.8</ele>
        <time>2026-03-29T13:17:24Z</time>
      </trkpt>
      <trkpt lat="48.70208" lon="1.89066">
        <ele>153.8</ele>
        <time>2026-03-29T13:17:25Z</time>
      </trkpt>
      <trkpt lat="48.70205" lon="1.89075">
        <ele>154</ele>
        <time>2026-03-29T13:17:26Z</time>
      </trkpt>
      <trkpt lat="48.70202" lon="1.89084">
        <ele>154</ele>
        <time>2026-03-29T13:17:27Z</time>
      </trkpt>
      <trkpt lat="48.702" lon="1.89094">
        <ele>154</ele>
        <time>2026-03-29T13:17:28Z</time>
      </trkpt>
      <trkpt lat="48.70197" lon="1.89102">
        <ele>154</ele>
        <time>2026-03-29T13:17:29Z</time>
      </trkpt>
      <trkpt lat="48.70195" lon="1.89111">
        <ele>154.4</ele>
        <time>2026-03-29T13:17:30Z</time>
      </trkpt>
      <trkpt lat="48.70193" lon="1.8912">
        <ele>154.4</ele>
        <time>2026-03-29T13:17:31Z</time>
      </trkpt>
      <trkpt lat="48.70191" lon="1.89129">
        <ele>154.4</ele>
        <time>2026-03-29T13:17:32Z</time>
      </trkpt>
      <trkpt lat="48.70189" lon="1.89137">
        <ele>154.4</ele>
        <time>2026-03-29T13:17:33Z</time>
      </trkpt>
      <trkpt lat="48.70187" lon="1.89145">
        <ele>154.6</ele>
        <time>2026-03-29T13:17:34Z</time>
      </trkpt>
      <trkpt lat="48.70185" lon="1.89153">
        <ele>154.6</ele>
        <time>2026-03-29T13:17:35Z</time>
      </trkpt>
      <trkpt lat="48.70183" lon="1.8916">
        <ele>154.6</ele>
        <time>2026-03-29T13:17:36Z</time>
      </trkpt>
      <trkpt lat="48.70181" lon="1.89168">
        <ele>154.6</ele>
        <time>2026-03-29T13:17:37Z</time>
      </trkpt>
      <trkpt lat="48.70179" lon="1.89174">
        <ele>154</ele>
        <time>2026-03-29T13:17:38Z</time>
      </trkpt>
      <trkpt lat="48.70178" lon="1.89181">
        <ele>154</ele>
        <time>2026-03-29T13:17:39Z</time>
      </trkpt>
      <trkpt lat="48.70179" lon="1.89188">
        <ele>154</ele>
        <time>2026-03-29T13:17:40Z</time>
      </trkpt>
      <trkpt lat="48.70182" lon="1.89193">
        <ele>154</ele>
        <time>2026-03-29T13:17:41Z</time>
      </trkpt>
      <trkpt lat="48.70186" lon="1.89196">
        <ele>154</ele>
        <time>2026-03-29T13:17:42Z</time>
      </trkpt>
      <trkpt lat="48.7019" lon="1.89201">
        <ele>154</ele>
        <time>2026-03-29T13:17:43Z</time>
      </trkpt>
      <trkpt lat="48.70195" lon="1.89205">
        <ele>154</ele>
        <time>2026-03-29T13:17:44Z</time>
      </trkpt>
      <trkpt lat="48.702" lon="1.89209">
        <ele>154</ele>
        <time>2026-03-29T13:17:45Z</time>
      </trkpt>
      <trkpt lat="48.70204" lon="1.89215">
        <ele>153</ele>
        <time>2026-03-29T13:17:46Z</time>
      </trkpt>
      <trkpt lat="48.70209" lon="1.89221">
        <ele>153</ele>
        <time>2026-03-29T13:17:47Z</time>
      </trkpt>
      <trkpt lat="48.70213" lon="1.89227">
        <ele>153</ele>
        <time>2026-03-29T13:17:48Z</time>
      </trkpt>
      <trkpt lat="48.70218" lon="1.89234">
        <ele>152.8</ele>
        <time>2026-03-29T13:17:49Z</time>
      </trkpt>
      <trkpt lat="48.70223" lon="1.89241">
        <ele>153</ele>
        <time>2026-03-29T13:17:50Z</time>
      </trkpt>
      <trkpt lat="48.70228" lon="1.89247">
        <ele>153</ele>
        <time>2026-03-29T13:17:51Z</time>
      </trkpt>
      <trkpt lat="48.70233" lon="1.89254">
        <ele>153</ele>
        <time>2026-03-29T13:17:52Z</time>
      </trkpt>
      <trkpt lat="48.70237" lon="1.89261">
        <ele>152.4</ele>
        <time>2026-03-29T13:17:53Z</time>
      </trkpt>
      <trkpt lat="48.70242" lon="1.89268">
        <ele>152</ele>
        <time>2026-03-29T13:17:54Z</time>
      </trkpt>
      <trkpt lat="48.70246" lon="1.89275">
        <ele>152</ele>
        <time>2026-03-29T13:17:55Z</time>
      </trkpt>
      <trkpt lat="48.7025" lon="1.89281">
        <ele>152</ele>
        <time>2026-03-29T13:17:56Z</time>
      </trkpt>
      <trkpt lat="48.70254" lon="1.89287">
        <ele>152.6</ele>
        <time>2026-03-29T13:17:57Z</time>
      </trkpt>
      <trkpt lat="48.70258" lon="1.89293">
        <ele>152</ele>
        <time>2026-03-29T13:17:58Z</time>
      </trkpt>
      <trkpt lat="48.70262" lon="1.89299">
        <ele>152</ele>
        <time>2026-03-29T13:17:59Z</time>
      </trkpt>
      <trkpt lat="48.70265" lon="1.89305">
        <ele>152</ele>
        <time>2026-03-29T13:18:00Z</time>
      </trkpt>
      <trkpt lat="48.70269" lon="1.89309">
        <ele>152</ele>
        <time>2026-03-29T13:18:01Z</time>
      </trkpt>
      <trkpt lat="48.70273" lon="1.89314">
        <ele>152.6</ele>
        <time>2026-03-29T13:18:02Z</time>
      </trkpt>
      <trkpt lat="48.70276" lon="1.89319">
        <ele>152.6</ele>
        <time>2026-03-29T13:18:03Z</time>
      </trkpt>
      <trkpt lat="48.70279" lon="1.89324">
        <ele>152.6</ele>
        <time>2026-03-29T13:18:04Z</time>
      </trkpt>
      <trkpt lat="48.70281" lon="1.8933">
        <ele>152.6</ele>
        <time>2026-03-29T13:18:05Z</time>
      </trkpt>
      <trkpt lat="48.70284" lon="1.89336">
        <ele>152.8</ele>
        <time>2026-03-29T13:18:06Z</time>
      </trkpt>
      <trkpt lat="48.70285" lon="1.89342">
        <ele>152.8</ele>
        <time>2026-03-29T13:18:07Z</time>
      </trkpt>
      <trkpt lat="48.70286" lon="1.89349">
        <ele>152.8</ele>
        <time>2026-03-29T13:18:08Z</time>
      </trkpt>
      <trkpt lat="48.70287" lon="1.89357">
        <ele>153.2</ele>
        <time>2026-03-29T13:18:09Z</time>
      </trkpt>
      <trkpt lat="48.70287" lon="1.89365">
        <ele>153.2</ele>
        <time>2026-03-29T13:18:10Z</time>
      </trkpt>
      <trkpt lat="48.70288" lon="1.89372">
        <ele>153.2</ele>
        <time>2026-03-29T13:18:11Z</time>
      </trkpt>
      <trkpt lat="48.70289" lon="1.8938">
        <ele>153.2</ele>
        <time>2026-03-29T13:18:12Z</time>
      </trkpt>
      <trkpt lat="48.7029" lon="1.89387">
        <ele>153.2</ele>
        <time>2026-03-29T13:18:13Z</time>
      </trkpt>
      <trkpt lat="48.70291" lon="1.89395">
        <ele>153</ele>
        <time>2026-03-29T13:18:14Z</time>
      </trkpt>
      <trkpt lat="48.70292" lon="1.89403">
        <ele>153</ele>
        <time>2026-03-29T13:18:15Z</time>
      </trkpt>
      <trkpt lat="48.70293" lon="1.8941">
        <ele>153</ele>
        <time>2026-03-29T13:18:16Z</time>
      </trkpt>
      <trkpt lat="48.70296" lon="1.89418">
        <ele>152.4</ele>
        <time>2026-03-29T13:18:17Z</time>
      </trkpt>
      <trkpt lat="48.703" lon="1.89424">
        <ele>152.2</ele>
        <time>2026-03-29T13:18:18Z</time>
      </trkpt>
      <trkpt lat="48.70305" lon="1.8943">
        <ele>152.2</ele>
        <time>2026-03-29T13:18:19Z</time>
      </trkpt>
      <trkpt lat="48.70309" lon="1.89435">
        <ele>152.2</ele>
        <time>2026-03-29T13:18:20Z</time>
      </trkpt>
      <trkpt lat="48.70312" lon="1.89441">
        <ele>152.2</ele>
        <time>2026-03-29T13:18:21Z</time>
      </trkpt>
      <trkpt lat="48.70316" lon="1.89447">
        <ele>151.8</ele>
        <time>2026-03-29T13:18:22Z</time>
      </trkpt>
      <trkpt lat="48.70319" lon="1.89454">
        <ele>151.8</ele>
        <time>2026-03-29T13:18:23Z</time>
      </trkpt>
      <trkpt lat="48.70322" lon="1.8946">
        <ele>151.8</ele>
        <time>2026-03-29T13:18:24Z</time>
      </trkpt>
      <trkpt lat="48.70325" lon="1.89465">
        <ele>151.8</ele>
        <time>2026-03-29T13:18:25Z</time>
      </trkpt>
      <trkpt lat="48.70329" lon="1.89472">
        <ele>152.4</ele>
        <time>2026-03-29T13:18:26Z</time>
      </trkpt>
      <trkpt lat="48.70331" lon="1.89477">
        <ele>152.4</ele>
        <time>2026-03-29T13:18:27Z</time>
      </trkpt>
      <trkpt lat="48.70333" lon="1.89483">
        <ele>152.4</ele>
        <time>2026-03-29T13:18:28Z</time>
      </trkpt>
      <trkpt lat="48.70333" lon="1.89489">
        <ele>153.4</ele>
        <time>2026-03-29T13:18:29Z</time>
      </trkpt>
      <trkpt lat="48.70334" lon="1.89494">
        <ele>152.6</ele>
        <time>2026-03-29T13:18:30Z</time>
      </trkpt>
      <trkpt lat="48.70333" lon="1.89501">
        <ele>152.6</ele>
        <time>2026-03-29T13:18:31Z</time>
      </trkpt>
      <trkpt lat="48.70331" lon="1.89506">
        <ele>152.6</ele>
        <time>2026-03-29T13:18:32Z</time>
      </trkpt>
      <trkpt lat="48.70329" lon="1.89511">
        <ele>152.6</ele>
        <time>2026-03-29T13:18:33Z</time>
      </trkpt>
      <trkpt lat="48.70326" lon="1.89517">
        <ele>152.6</ele>
        <time>2026-03-29T13:18:34Z</time>
      </trkpt>
      <trkpt lat="48.70323" lon="1.89523">
        <ele>152.6</ele>
        <time>2026-03-29T13:18:35Z</time>
      </trkpt>
      <trkpt lat="48.7032" lon="1.89529">
        <ele>152.6</ele>
        <time>2026-03-29T13:18:36Z</time>
      </trkpt>
      <trkpt lat="48.70317" lon="1.89535">
        <ele>152.6</ele>
        <time>2026-03-29T13:18:37Z</time>
      </trkpt>
      <trkpt lat="48.70314" lon="1.89542">
        <ele>152.4</ele>
        <time>2026-03-29T13:18:38Z</time>
      </trkpt>
      <trkpt lat="48.70311" lon="1.89547">
        <ele>152.4</ele>
        <time>2026-03-29T13:18:39Z</time>
      </trkpt>
      <trkpt lat="48.70307" lon="1.8955">
        <ele>152.4</ele>
        <time>2026-03-29T13:18:40Z</time>
      </trkpt>
      <trkpt lat="48.70302" lon="1.89553">
        <ele>152.4</ele>
        <time>2026-03-29T13:18:41Z</time>
      </trkpt>
      <trkpt lat="48.70297" lon="1.89555">
        <ele>152</ele>
        <time>2026-03-29T13:18:42Z</time>
      </trkpt>
      <trkpt lat="48.70292" lon="1.89557">
        <ele>152</ele>
        <time>2026-03-29T13:18:43Z</time>
      </trkpt>
      <trkpt lat="48.70287" lon="1.89559">
        <ele>152</ele>
        <time>2026-03-29T13:18:44Z</time>
      </trkpt>
      <trkpt lat="48.70282" lon="1.89562">
        <ele>151.6</ele>
        <time>2026-03-29T13:18:45Z</time>
      </trkpt>
      <trkpt lat="48.70277" lon="1.89564">
        <ele>152</ele>
        <time>2026-03-29T13:18:46Z</time>
      </trkpt>
      <trkpt lat="48.70272" lon="1.89567">
        <ele>152</ele>
        <time>2026-03-29T13:18:47Z</time>
      </trkpt>
      <trkpt lat="48.70269" lon="1.8957">
        <ele>152</ele>
        <time>2026-03-29T13:18:48Z</time>
      </trkpt>
      <trkpt lat="48.70267" lon="1.89573">
        <ele>151.6</ele>
        <time>2026-03-29T13:18:49Z</time>
      </trkpt>
      <trkpt lat="48.70265" lon="1.89577">
        <ele>152</ele>
        <time>2026-03-29T13:18:50Z</time>
      </trkpt>
      <trkpt lat="48.70262" lon="1.89582">
        <ele>152</ele>
        <time>2026-03-29T13:18:51Z</time>
      </trkpt>
      <trkpt lat="48.70259" lon="1.89586">
        <ele>152</ele>
        <time>2026-03-29T13:18:52Z</time>
      </trkpt>
      <trkpt lat="48.70256" lon="1.8959">
        <ele>152</ele>
        <time>2026-03-29T13:18:53Z</time>
      </trkpt>
      <trkpt lat="48.70252" lon="1.89595">
        <ele>151.4</ele>
        <time>2026-03-29T13:18:54Z</time>
      </trkpt>
      <trkpt lat="48.70249" lon="1.89601">
        <ele>151.4</ele>
        <time>2026-03-29T13:18:55Z</time>
      </trkpt>
      <trkpt lat="48.70246" lon="1.89607">
        <ele>151.4</ele>
        <time>2026-03-29T13:18:56Z</time>
      </trkpt>
      <trkpt lat="48.70244" lon="1.89613">
        <ele>151</ele>
        <time>2026-03-29T13:18:57Z</time>
      </trkpt>
      <trkpt lat="48.70241" lon="1.8962">
        <ele>151</ele>
        <time>2026-03-29T13:18:58Z</time>
      </trkpt>
      <trkpt lat="48.70238" lon="1.89625">
        <ele>151</ele>
        <time>2026-03-29T13:18:59Z</time>
      </trkpt>
      <trkpt lat="48.70235" lon="1.8963">
        <ele>151</ele>
        <time>2026-03-29T13:19:00Z</time>
      </trkpt>
      <trkpt lat="48.70232" lon="1.89635">
        <ele>151.6</ele>
        <time>2026-03-29T13:19:01Z</time>
      </trkpt>
      <trkpt lat="48.70229" lon="1.89641">
        <ele>151.2</ele>
        <time>2026-03-29T13:19:02Z</time>
      </trkpt>
      <trkpt lat="48.70226" lon="1.89646">
        <ele>151.2</ele>
        <time>2026-03-29T13:19:03Z</time>
      </trkpt>
      <trkpt lat="48.70223" lon="1.89651">
        <ele>151.2</ele>
        <time>2026-03-29T13:19:04Z</time>
      </trkpt>
      <trkpt lat="48.7022" lon="1.89657">
        <ele>151.8</ele>
        <time>2026-03-29T13:19:05Z</time>
      </trkpt>
      <trkpt lat="48.70217" lon="1.89663">
        <ele>151.4</ele>
        <time>2026-03-29T13:19:06Z</time>
      </trkpt>
      <trkpt lat="48.70214" lon="1.89668">
        <ele>151.4</ele>
        <time>2026-03-29T13:19:07Z</time>
      </trkpt>
      <trkpt lat="48.70211" lon="1.89673">
        <ele>151.4</ele>
        <time>2026-03-29T13:19:08Z</time>
      </trkpt>
      <trkpt lat="48.70208" lon="1.89678">
        <ele>151.4</ele>
        <time>2026-03-29T13:19:09Z</time>
      </trkpt>
      <trkpt lat="48.70205" lon="1.89684">
        <ele>151.8</ele>
        <time>2026-03-29T13:19:10Z</time>
      </trkpt>
      <trkpt lat="48.70202" lon="1.89688">
        <ele>151.8</ele>
        <time>2026-03-29T13:19:11Z</time>
      </trkpt>
      <trkpt lat="48.70199" lon="1.89692">
        <ele>151.8</ele>
        <time>2026-03-29T13:19:12Z</time>
      </trkpt>
      <trkpt lat="48.70196" lon="1.89695">
        <ele>151.8</ele>
        <time>2026-03-29T13:19:13Z</time>
      </trkpt>
      <trkpt lat="48.70193" lon="1.89699">
        <ele>152.2</ele>
        <time>2026-03-29T13:19:14Z</time>
      </trkpt>
      <trkpt lat="48.7019" lon="1.89704">
        <ele>152.2</ele>
        <time>2026-03-29T13:19:15Z</time>
      </trkpt>
      <trkpt lat="48.70187" lon="1.89708">
        <ele>152.2</ele>
        <time>2026-03-29T13:19:16Z</time>
      </trkpt>
      <trkpt lat="48.70184" lon="1.89712">
        <ele>152.2</ele>
        <time>2026-03-29T13:19:17Z</time>
      </trkpt>
      <trkpt lat="48.7018" lon="1.89715">
        <ele>152.4</ele>
        <time>2026-03-29T13:19:18Z</time>
      </trkpt>
      <trkpt lat="48.70176" lon="1.89718">
        <ele>152.4</ele>
        <time>2026-03-29T13:19:19Z</time>
      </trkpt>
      <trkpt lat="48.70172" lon="1.8972">
        <ele>152.4</ele>
        <time>2026-03-29T13:19:20Z</time>
      </trkpt>
      <trkpt lat="48.70168" lon="1.89721">
        <ele>152.4</ele>
        <time>2026-03-29T13:19:21Z</time>
      </trkpt>
      <trkpt lat="48.70163" lon="1.89723">
        <ele>152.2</ele>
        <time>2026-03-29T13:19:22Z</time>
      </trkpt>
      <trkpt lat="48.70158" lon="1.89725">
        <ele>152.2</ele>
        <time>2026-03-29T13:19:23Z</time>
      </trkpt>
      <trkpt lat="48.70153" lon="1.89726">
        <ele>152.2</ele>
        <time>2026-03-29T13:19:24Z</time>
      </trkpt>
      <trkpt lat="48.70148" lon="1.89728">
        <ele>152.2</ele>
        <time>2026-03-29T13:19:25Z</time>
      </trkpt>
      <trkpt lat="48.70143" lon="1.8973">
        <ele>151.2</ele>
        <time>2026-03-29T13:19:26Z</time>
      </trkpt>
      <trkpt lat="48.70139" lon="1.8973">
        <ele>151.2</ele>
        <time>2026-03-29T13:19:27Z</time>
      </trkpt>
      <trkpt lat="48.70134" lon="1.89731">
        <ele>151.2</ele>
        <time>2026-03-29T13:19:28Z</time>
      </trkpt>
      <trkpt lat="48.70129" lon="1.89733">
        <ele>151.6</ele>
        <time>2026-03-29T13:19:29Z</time>
      </trkpt>
      <trkpt lat="48.70125" lon="1.89735">
        <ele>151.6</ele>
        <time>2026-03-29T13:19:30Z</time>
      </trkpt>
      <trkpt lat="48.70121" lon="1.89739">
        <ele>151.6</ele>
        <time>2026-03-29T13:19:31Z</time>
      </trkpt>
      <trkpt lat="48.70118" lon="1.89743">
        <ele>151.6</ele>
        <time>2026-03-29T13:19:32Z</time>
      </trkpt>
      <trkpt lat="48.70115" lon="1.89747">
        <ele>151.6</ele>
        <time>2026-03-29T13:19:33Z</time>
      </trkpt>
      <trkpt lat="48.70112" lon="1.89752">
        <ele>151.2</ele>
        <time>2026-03-29T13:19:34Z</time>
      </trkpt>
      <trkpt lat="48.7011" lon="1.89758">
        <ele>151.2</ele>
        <time>2026-03-29T13:19:35Z</time>
      </trkpt>
      <trkpt lat="48.70109" lon="1.89762">
        <ele>151.2</ele>
        <time>2026-03-29T13:19:36Z</time>
      </trkpt>
      <trkpt lat="48.70107" lon="1.89768">
        <ele>151.2</ele>
        <time>2026-03-29T13:19:37Z</time>
      </trkpt>
      <trkpt lat="48.70106" lon="1.89773">
        <ele>151</ele>
        <time>2026-03-29T13:19:38Z</time>
      </trkpt>
      <trkpt lat="48.70104" lon="1.8978">
        <ele>151</ele>
        <time>2026-03-29T13:19:39Z</time>
      </trkpt>
      <trkpt lat="48.70103" lon="1.89788">
        <ele>151</ele>
        <time>2026-03-29T13:19:40Z</time>
      </trkpt>
      <trkpt lat="48.70102" lon="1.89797">
        <ele>150.6</ele>
        <time>2026-03-29T13:19:41Z</time>
      </trkpt>
      <trkpt lat="48.70101" lon="1.89803">
        <ele>151.2</ele>
        <time>2026-03-29T13:19:42Z</time>
      </trkpt>
      <trkpt lat="48.701" lon="1.8981">
        <ele>151.2</ele>
        <time>2026-03-29T13:19:43Z</time>
      </trkpt>
      <trkpt lat="48.70098" lon="1.89817">
        <ele>151.2</ele>
        <time>2026-03-29T13:19:44Z</time>
      </trkpt>
      <trkpt lat="48.70094" lon="1.89824">
        <ele>150.8</ele>
        <time>2026-03-29T13:19:45Z</time>
      </trkpt>
      <trkpt lat="48.7009" lon="1.8983">
        <ele>151</ele>
        <time>2026-03-29T13:19:46Z</time>
      </trkpt>
      <trkpt lat="48.70086" lon="1.89836">
        <ele>151</ele>
        <time>2026-03-29T13:19:47Z</time>
      </trkpt>
      <trkpt lat="48.70082" lon="1.89842">
        <ele>151</ele>
        <time>2026-03-29T13:19:48Z</time>
      </trkpt>
      <trkpt lat="48.70078" lon="1.89846">
        <ele>151</ele>
        <time>2026-03-29T13:19:49Z</time>
      </trkpt>
      <trkpt lat="48.70073" lon="1.8985">
        <ele>150.6</ele>
        <time>2026-03-29T13:19:50Z</time>
      </trkpt>
      <trkpt lat="48.70067" lon="1.89854">
        <ele>150.6</ele>
        <time>2026-03-29T13:19:51Z</time>
      </trkpt>
      <trkpt lat="48.70062" lon="1.89857">
        <ele>150.6</ele>
        <time>2026-03-29T13:19:52Z</time>
      </trkpt>
      <trkpt lat="48.70057" lon="1.8986">
        <ele>150.8</ele>
        <time>2026-03-29T13:19:53Z</time>
      </trkpt>
      <trkpt lat="48.70052" lon="1.89863">
        <ele>150.8</ele>
        <time>2026-03-29T13:19:54Z</time>
      </trkpt>
      <trkpt lat="48.70046" lon="1.89866">
        <ele>150.8</ele>
        <time>2026-03-29T13:19:55Z</time>
      </trkpt>
      <trkpt lat="48.70041" lon="1.89869">
        <ele>150.8</ele>
        <time>2026-03-29T13:19:56Z</time>
      </trkpt>
      <trkpt lat="48.70036" lon="1.89871">
        <ele>150.8</ele>
        <time>2026-03-29T13:19:57Z</time>
      </trkpt>
      <trkpt lat="48.70031" lon="1.89874">
        <ele>151.2</ele>
        <time>2026-03-29T13:19:58Z</time>
      </trkpt>
      <trkpt lat="48.70026" lon="1.89877">
        <ele>151.2</ele>
        <time>2026-03-29T13:19:59Z</time>
      </trkpt>
      <trkpt lat="48.70022" lon="1.8988">
        <ele>151.2</ele>
        <time>2026-03-29T13:20:00Z</time>
      </trkpt>
      <trkpt lat="48.70019" lon="1.89884">
        <ele>151.2</ele>
        <time>2026-03-29T13:20:01Z</time>
      </trkpt>
      <trkpt lat="48.70016" lon="1.89889">
        <ele>151.4</ele>
        <time>2026-03-29T13:20:02Z</time>
      </trkpt>
      <trkpt lat="48.70015" lon="1.89895">
        <ele>151.4</ele>
        <time>2026-03-29T13:20:03Z</time>
      </trkpt>
      <trkpt lat="48.70016" lon="1.89902">
        <ele>151.4</ele>
        <time>2026-03-29T13:20:04Z</time>
      </trkpt>
      <trkpt lat="48.70015" lon="1.8991">
        <ele>150.8</ele>
        <time>2026-03-29T13:20:05Z</time>
      </trkpt>
      <trkpt lat="48.70016" lon="1.89918">
        <ele>150.6</ele>
        <time>2026-03-29T13:20:06Z</time>
      </trkpt>
      <trkpt lat="48.70015" lon="1.89927">
        <ele>150.6</ele>
        <time>2026-03-29T13:20:07Z</time>
      </trkpt>
      <trkpt lat="48.70015" lon="1.89936">
        <ele>150.6</ele>
        <time>2026-03-29T13:20:08Z</time>
      </trkpt>
      <trkpt lat="48.70014" lon="1.89945">
        <ele>150.6</ele>
        <time>2026-03-29T13:20:09Z</time>
      </trkpt>
      <trkpt lat="48.70013" lon="1.89954">
        <ele>150.6</ele>
        <time>2026-03-29T13:20:10Z</time>
      </trkpt>
      <trkpt lat="48.70012" lon="1.89962">
        <ele>151.8</ele>
        <time>2026-03-29T13:20:11Z</time>
      </trkpt>
      <trkpt lat="48.70012" lon="1.8997">
        <ele>151.8</ele>
        <time>2026-03-29T13:20:12Z</time>
      </trkpt>
      <trkpt lat="48.70011" lon="1.89979">
        <ele>151.6</ele>
        <time>2026-03-29T13:20:13Z</time>
      </trkpt>
      <trkpt lat="48.7001" lon="1.89987">
        <ele>151</ele>
        <time>2026-03-29T13:20:14Z</time>
      </trkpt>
      <trkpt lat="48.7001" lon="1.89995">
        <ele>151</ele>
        <time>2026-03-29T13:20:15Z</time>
      </trkpt>
      <trkpt lat="48.7001" lon="1.90003">
        <ele>151</ele>
        <time>2026-03-29T13:20:16Z</time>
      </trkpt>
      <trkpt lat="48.7001" lon="1.90009">
        <ele>150.4</ele>
        <time>2026-03-29T13:20:17Z</time>
      </trkpt>
      <trkpt lat="48.7001" lon="1.90018">
        <ele>150.2</ele>
        <time>2026-03-29T13:20:18Z</time>
      </trkpt>
      <trkpt lat="48.7001" lon="1.90026">
        <ele>150.2</ele>
        <time>2026-03-29T13:20:19Z</time>
      </trkpt>
      <trkpt lat="48.70011" lon="1.90036">
        <ele>150.2</ele>
        <time>2026-03-29T13:20:20Z</time>
      </trkpt>
      <trkpt lat="48.70012" lon="1.90043">
        <ele>150.2</ele>
        <time>2026-03-29T13:20:21Z</time>
      </trkpt>
      <trkpt lat="48.70014" lon="1.90051">
        <ele>150.2</ele>
        <time>2026-03-29T13:20:22Z</time>
      </trkpt>
      <trkpt lat="48.70014" lon="1.9006">
        <ele>150.2</ele>
        <time>2026-03-29T13:20:23Z</time>
      </trkpt>
      <trkpt lat="48.70014" lon="1.90069">
        <ele>150.2</ele>
        <time>2026-03-29T13:20:24Z</time>
      </trkpt>
      <trkpt lat="48.70014" lon="1.90078">
        <ele>149.6</ele>
        <time>2026-03-29T13:20:25Z</time>
      </trkpt>
      <trkpt lat="48.70014" lon="1.90086">
        <ele>150.2</ele>
        <time>2026-03-29T13:20:26Z</time>
      </trkpt>
      <trkpt lat="48.70015" lon="1.90094">
        <ele>150.2</ele>
        <time>2026-03-29T13:20:27Z</time>
      </trkpt>
      <trkpt lat="48.70016" lon="1.90102">
        <ele>150.2</ele>
        <time>2026-03-29T13:20:28Z</time>
      </trkpt>
      <trkpt lat="48.70016" lon="1.9011">
        <ele>149.2</ele>
        <time>2026-03-29T13:20:29Z</time>
      </trkpt>
      <trkpt lat="48.70016" lon="1.90117">
        <ele>149.6</ele>
        <time>2026-03-29T13:20:30Z</time>
      </trkpt>
      <trkpt lat="48.70017" lon="1.90123">
        <ele>149.6</ele>
        <time>2026-03-29T13:20:31Z</time>
      </trkpt>
      <trkpt lat="48.70016" lon="1.90129">
        <ele>149.6</ele>
        <time>2026-03-29T13:20:32Z</time>
      </trkpt>
      <trkpt lat="48.70015" lon="1.90136">
        <ele>149.6</ele>
        <time>2026-03-29T13:20:33Z</time>
      </trkpt>
      <trkpt lat="48.70014" lon="1.90143">
        <ele>149.8</ele>
        <time>2026-03-29T13:20:34Z</time>
      </trkpt>
      <trkpt lat="48.70013" lon="1.90152">
        <ele>149.8</ele>
        <time>2026-03-29T13:20:35Z</time>
      </trkpt>
      <trkpt lat="48.70013" lon="1.90159">
        <ele>149.8</ele>
        <time>2026-03-29T13:20:36Z</time>
      </trkpt>
      <trkpt lat="48.70012" lon="1.90167">
        <ele>149.8</ele>
        <time>2026-03-29T13:20:37Z</time>
      </trkpt>
      <trkpt lat="48.7001" lon="1.90175">
        <ele>149.8</ele>
        <time>2026-03-29T13:20:38Z</time>
      </trkpt>
      <trkpt lat="48.70009" lon="1.90182">
        <ele>149.8</ele>
        <time>2026-03-29T13:20:39Z</time>
      </trkpt>
      <trkpt lat="48.70008" lon="1.9019">
        <ele>149.8</ele>
        <time>2026-03-29T13:20:40Z</time>
      </trkpt>
      <trkpt lat="48.70007" lon="1.90196">
        <ele>149.8</ele>
        <time>2026-03-29T13:20:41Z</time>
      </trkpt>
      <trkpt lat="48.70005" lon="1.90203">
        <ele>149.8</ele>
        <time>2026-03-29T13:20:42Z</time>
      </trkpt>
      <trkpt lat="48.70004" lon="1.9021">
        <ele>149.8</ele>
        <time>2026-03-29T13:20:43Z</time>
      </trkpt>
      <trkpt lat="48.70003" lon="1.90216">
        <ele>149.8</ele>
        <time>2026-03-29T13:20:44Z</time>
      </trkpt>
      <trkpt lat="48.70003" lon="1.90224">
        <ele>150.4</ele>
        <time>2026-03-29T13:20:45Z</time>
      </trkpt>
      <trkpt lat="48.7" lon="1.9023">
        <ele>150.6</ele>
        <time>2026-03-29T13:20:46Z</time>
      </trkpt>
      <trkpt lat="48.7" lon="1.90236">
        <ele>150.6</ele>
        <time>2026-03-29T13:20:47Z</time>
      </trkpt>
      <trkpt lat="48.7" lon="1.90241">
        <ele>150.6</ele>
        <time>2026-03-29T13:20:48Z</time>
      </trkpt>
      <trkpt lat="48.7" lon="1.90248">
        <ele>150.2</ele>
        <time>2026-03-29T13:20:49Z</time>
      </trkpt>
      <trkpt lat="48.69999" lon="1.90257">
        <ele>149.8</ele>
        <time>2026-03-29T13:20:50Z</time>
      </trkpt>
      <trkpt lat="48.69999" lon="1.90264">
        <ele>149.8</ele>
        <time>2026-03-29T13:20:51Z</time>
      </trkpt>
      <trkpt lat="48.69999" lon="1.90271">
        <ele>149.8</ele>
        <time>2026-03-29T13:20:52Z</time>
      </trkpt>
      <trkpt lat="48.69999" lon="1.90279">
        <ele>149.8</ele>
        <time>2026-03-29T13:20:53Z</time>
      </trkpt>
      <trkpt lat="48.69999" lon="1.90287">
        <ele>149.8</ele>
        <time>2026-03-29T13:20:54Z</time>
      </trkpt>
      <trkpt lat="48.69998" lon="1.90293">
        <ele>149.8</ele>
        <time>2026-03-29T13:20:55Z</time>
      </trkpt>
      <trkpt lat="48.69999" lon="1.903">
        <ele>149.8</ele>
        <time>2026-03-29T13:20:56Z</time>
      </trkpt>
      <trkpt lat="48.69999" lon="1.90307">
        <ele>149.8</ele>
        <time>2026-03-29T13:20:57Z</time>
      </trkpt>
      <trkpt lat="48.7" lon="1.90313">
        <ele>150.2</ele>
        <time>2026-03-29T13:20:58Z</time>
      </trkpt>
      <trkpt lat="48.70001" lon="1.90319">
        <ele>150.2</ele>
        <time>2026-03-29T13:20:59Z</time>
      </trkpt>
      <trkpt lat="48.70001" lon="1.90324">
        <ele>150.2</ele>
        <time>2026-03-29T13:21:00Z</time>
      </trkpt>
      <trkpt lat="48.70002" lon="1.9033">
        <ele>150.2</ele>
        <time>2026-03-29T13:21:01Z</time>
      </trkpt>
      <trkpt lat="48.70002" lon="1.90334">
        <ele>149.8</ele>
        <time>2026-03-29T13:21:02Z</time>
      </trkpt>
      <trkpt lat="48.70003" lon="1.90339">
        <ele>149.8</ele>
        <time>2026-03-29T13:21:03Z</time>
      </trkpt>
      <trkpt lat="48.70004" lon="1.90346">
        <ele>149.8</ele>
        <time>2026-03-29T13:21:04Z</time>
      </trkpt>
      <trkpt lat="48.70005" lon="1.9035">
        <ele>150.4</ele>
        <time>2026-03-29T13:21:05Z</time>
      </trkpt>
      <trkpt lat="48.70007" lon="1.90355">
        <ele>150.2</ele>
        <time>2026-03-29T13:21:06Z</time>
      </trkpt>
      <trkpt lat="48.70007" lon="1.9036">
        <ele>150.2</ele>
        <time>2026-03-29T13:21:07Z</time>
      </trkpt>
      <trkpt lat="48.70008" lon="1.90366">
        <ele>150.2</ele>
        <time>2026-03-29T13:21:08Z</time>
      </trkpt>
      <trkpt lat="48.70009" lon="1.90372">
        <ele>150.4</ele>
        <time>2026-03-29T13:21:09Z</time>
      </trkpt>
      <trkpt lat="48.7001" lon="1.90376">
        <ele>150.4</ele>
        <time>2026-03-29T13:21:10Z</time>
      </trkpt>
      <trkpt lat="48.70011" lon="1.90381">
        <ele>150.4</ele>
        <time>2026-03-29T13:21:11Z</time>
      </trkpt>
      <trkpt lat="48.70013" lon="1.90388">
        <ele>150.4</ele>
        <time>2026-03-29T13:21:12Z</time>
      </trkpt>
      <trkpt lat="48.70015" lon="1.90395">
        <ele>150.6</ele>
        <time>2026-03-29T13:21:13Z</time>
      </trkpt>
      <trkpt lat="48.70015" lon="1.90401">
        <ele>151.2</ele>
        <time>2026-03-29T13:21:14Z</time>
      </trkpt>
      <trkpt lat="48.70017" lon="1.90409">
        <ele>151.2</ele>
        <time>2026-03-29T13:21:15Z</time>
      </trkpt>
      <trkpt lat="48.70017" lon="1.90415">
        <ele>151.2</ele>
        <time>2026-03-29T13:21:16Z</time>
      </trkpt>
      <trkpt lat="48.70017" lon="1.90421">
        <ele>150.4</ele>
        <time>2026-03-29T13:21:17Z</time>
      </trkpt>
      <trkpt lat="48.70017" lon="1.90426">
        <ele>150.2</ele>
        <time>2026-03-29T13:21:18Z</time>
      </trkpt>
      <trkpt lat="48.70018" lon="1.90432">
        <ele>150.2</ele>
        <time>2026-03-29T13:21:19Z</time>
      </trkpt>
      <trkpt lat="48.70018" lon="1.9044">
        <ele>150.2</ele>
        <time>2026-03-29T13:21:20Z</time>
      </trkpt>
      <trkpt lat="48.70018" lon="1.90449">
        <ele>149.6</ele>
        <time>2026-03-29T13:21:21Z</time>
      </trkpt>
      <trkpt lat="48.70019" lon="1.90458">
        <ele>149.2</ele>
        <time>2026-03-29T13:21:22Z</time>
      </trkpt>
      <trkpt lat="48.7002" lon="1.90468">
        <ele>149.2</ele>
        <time>2026-03-29T13:21:23Z</time>
      </trkpt>
      <trkpt lat="48.70022" lon="1.90478">
        <ele>149.2</ele>
        <time>2026-03-29T13:21:24Z</time>
      </trkpt>
      <trkpt lat="48.70025" lon="1.90487">
        <ele>148.6</ele>
        <time>2026-03-29T13:21:25Z</time>
      </trkpt>
      <trkpt lat="48.70026" lon="1.90495">
        <ele>148.2</ele>
        <time>2026-03-29T13:21:26Z</time>
      </trkpt>
      <trkpt lat="48.70028" lon="1.90505">
        <ele>148.2</ele>
        <time>2026-03-29T13:21:27Z</time>
      </trkpt>
      <trkpt lat="48.7003" lon="1.90515">
        <ele>148.2</ele>
        <time>2026-03-29T13:21:28Z</time>
      </trkpt>
      <trkpt lat="48.70032" lon="1.90524">
        <ele>148.2</ele>
        <time>2026-03-29T13:21:29Z</time>
      </trkpt>
      <trkpt lat="48.70033" lon="1.90531">
        <ele>148.6</ele>
        <time>2026-03-29T13:21:30Z</time>
      </trkpt>
      <trkpt lat="48.70034" lon="1.90539">
        <ele>148.6</ele>
        <time>2026-03-29T13:21:31Z</time>
      </trkpt>
      <trkpt lat="48.70037" lon="1.90545">
        <ele>148.6</ele>
        <time>2026-03-29T13:21:32Z</time>
      </trkpt>
      <trkpt lat="48.7004" lon="1.90552">
        <ele>148.6</ele>
        <time>2026-03-29T13:21:33Z</time>
      </trkpt>
      <trkpt lat="48.70042" lon="1.90559">
        <ele>149.2</ele>
        <time>2026-03-29T13:21:34Z</time>
      </trkpt>
      <trkpt lat="48.70044" lon="1.90564">
        <ele>149.2</ele>
        <time>2026-03-29T13:21:35Z</time>
      </trkpt>
      <trkpt lat="48.70046" lon="1.90569">
        <ele>149.2</ele>
        <time>2026-03-29T13:21:36Z</time>
      </trkpt>
      <trkpt lat="48.70047" lon="1.90573">
        <ele>148.8</ele>
        <time>2026-03-29T13:21:37Z</time>
      </trkpt>
      <trkpt lat="48.70051" lon="1.90579">
        <ele>148.8</ele>
        <time>2026-03-29T13:21:38Z</time>
      </trkpt>
      <trkpt lat="48.70054" lon="1.90587">
        <ele>148.8</ele>
        <time>2026-03-29T13:21:39Z</time>
      </trkpt>
      <trkpt lat="48.70056" lon="1.90594">
        <ele>148.8</ele>
        <time>2026-03-29T13:21:40Z</time>
      </trkpt>
      <trkpt lat="48.70058" lon="1.90601">
        <ele>148.8</ele>
        <time>2026-03-29T13:21:41Z</time>
      </trkpt>
      <trkpt lat="48.70059" lon="1.90608">
        <ele>148.8</ele>
        <time>2026-03-29T13:21:42Z</time>
      </trkpt>
      <trkpt lat="48.7006" lon="1.90614">
        <ele>148.8</ele>
        <time>2026-03-29T13:21:43Z</time>
      </trkpt>
      <trkpt lat="48.70061" lon="1.90622">
        <ele>148.8</ele>
        <time>2026-03-29T13:21:44Z</time>
      </trkpt>
      <trkpt lat="48.70062" lon="1.90627">
        <ele>148</ele>
        <time>2026-03-29T13:21:45Z</time>
      </trkpt>
      <trkpt lat="48.70062" lon="1.90633">
        <ele>149.2</ele>
        <time>2026-03-29T13:21:46Z</time>
      </trkpt>
      <trkpt lat="48.70063" lon="1.90638">
        <ele>149.2</ele>
        <time>2026-03-29T13:21:47Z</time>
      </trkpt>
      <trkpt lat="48.70063" lon="1.90642">
        <ele>149.2</ele>
        <time>2026-03-29T13:21:48Z</time>
      </trkpt>
      <trkpt lat="48.70062" lon="1.90646">
        <ele>149.2</ele>
        <time>2026-03-29T13:21:49Z</time>
      </trkpt>
      <trkpt lat="48.70061" lon="1.90648">
        <ele>150.4</ele>
        <time>2026-03-29T13:21:50Z</time>
      </trkpt>
      <trkpt lat="48.70062" lon="1.90651">
        <ele>150.4</ele>
        <time>2026-03-29T13:21:51Z</time>
      </trkpt>
      <trkpt lat="48.70061" lon="1.90654">
        <ele>150.4</ele>
        <time>2026-03-29T13:21:52Z</time>
      </trkpt>
      <trkpt lat="48.7006" lon="1.90659">
        <ele>149.4</ele>
        <time>2026-03-29T13:21:53Z</time>
      </trkpt>
      <trkpt lat="48.70057" lon="1.90663">
        <ele>149.2</ele>
        <time>2026-03-29T13:21:54Z</time>
      </trkpt>
      <trkpt lat="48.70054" lon="1.90668">
        <ele>149.2</ele>
        <time>2026-03-29T13:21:55Z</time>
      </trkpt>
      <trkpt lat="48.70052" lon="1.90671">
        <ele>149.2</ele>
        <time>2026-03-29T13:21:56Z</time>
      </trkpt>
      <trkpt lat="48.70048" lon="1.90674">
        <ele>148.4</ele>
        <time>2026-03-29T13:21:57Z</time>
      </trkpt>
      <trkpt lat="48.70044" lon="1.90678">
        <ele>148.4</ele>
        <time>2026-03-29T13:21:58Z</time>
      </trkpt>
      <trkpt lat="48.70039" lon="1.9068">
        <ele>148.4</ele>
        <time>2026-03-29T13:21:59Z</time>
      </trkpt>
      <trkpt lat="48.70035" lon="1.90684">
        <ele>148.4</ele>
        <time>2026-03-29T13:22:00Z</time>
      </trkpt>
      <trkpt lat="48.70032" lon="1.90689">
        <ele>147.4</ele>
        <time>2026-03-29T13:22:01Z</time>
      </trkpt>
      <trkpt lat="48.70029" lon="1.90695">
        <ele>148</ele>
        <time>2026-03-29T13:22:02Z</time>
      </trkpt>
      <trkpt lat="48.70026" lon="1.907">
        <ele>148</ele>
        <time>2026-03-29T13:22:03Z</time>
      </trkpt>
      <trkpt lat="48.70023" lon="1.90705">
        <ele>148</ele>
        <time>2026-03-29T13:22:04Z</time>
      </trkpt>
      <trkpt lat="48.7002" lon="1.9071">
        <ele>147.6</ele>
        <time>2026-03-29T13:22:05Z</time>
      </trkpt>
      <trkpt lat="48.70017" lon="1.90715">
        <ele>147.4</ele>
        <time>2026-03-29T13:22:06Z</time>
      </trkpt>
      <trkpt lat="48.70014" lon="1.90719">
        <ele>147.4</ele>
        <time>2026-03-29T13:22:07Z</time>
      </trkpt>
      <trkpt lat="48.70012" lon="1.90723">
        <ele>147.4</ele>
        <time>2026-03-29T13:22:08Z</time>
      </trkpt>
      <trkpt lat="48.70009" lon="1.90727">
        <ele>147.4</ele>
        <time>2026-03-29T13:22:09Z</time>
      </trkpt>
      <trkpt lat="48.70007" lon="1.90732">
        <ele>147.2</ele>
        <time>2026-03-29T13:22:10Z</time>
      </trkpt>
      <trkpt lat="48.70005" lon="1.90737">
        <ele>147.2</ele>
        <time>2026-03-29T13:22:11Z</time>
      </trkpt>
      <trkpt lat="48.70002" lon="1.90741">
        <ele>147.2</ele>
        <time>2026-03-29T13:22:12Z</time>
      </trkpt>
      <trkpt lat="48.70002" lon="1.90745">
        <ele>147.4</ele>
        <time>2026-03-29T13:22:13Z</time>
      </trkpt>
      <trkpt lat="48.69999" lon="1.90749">
        <ele>147.6</ele>
        <time>2026-03-29T13:22:14Z</time>
      </trkpt>
      <trkpt lat="48.69997" lon="1.90753">
        <ele>147.6</ele>
        <time>2026-03-29T13:22:15Z</time>
      </trkpt>
      <trkpt lat="48.69996" lon="1.90757">
        <ele>147.6</ele>
        <time>2026-03-29T13:22:16Z</time>
      </trkpt>
      <trkpt lat="48.69995" lon="1.90762">
        <ele>147.8</ele>
        <time>2026-03-29T13:22:17Z</time>
      </trkpt>
      <trkpt lat="48.69992" lon="1.90768">
        <ele>147.8</ele>
        <time>2026-03-29T13:22:18Z</time>
      </trkpt>
      <trkpt lat="48.69992" lon="1.90772">
        <ele>147.8</ele>
        <time>2026-03-29T13:22:19Z</time>
      </trkpt>
      <trkpt lat="48.6999" lon="1.90776">
        <ele>147.8</ele>
        <time>2026-03-29T13:22:20Z</time>
      </trkpt>
      <trkpt lat="48.69988" lon="1.90781">
        <ele>147.8</ele>
        <time>2026-03-29T13:22:21Z</time>
      </trkpt>
      <trkpt lat="48.69987" lon="1.90785">
        <ele>148.4</ele>
        <time>2026-03-29T13:22:22Z</time>
      </trkpt>
      <trkpt lat="48.69985" lon="1.90791">
        <ele>148.4</ele>
        <time>2026-03-29T13:22:23Z</time>
      </trkpt>
      <trkpt lat="48.69983" lon="1.90796">
        <ele>148.4</ele>
        <time>2026-03-29T13:22:24Z</time>
      </trkpt>
      <trkpt lat="48.69982" lon="1.90801">
        <ele>148.8</ele>
        <time>2026-03-29T13:22:25Z</time>
      </trkpt>
      <trkpt lat="48.6998" lon="1.90807">
        <ele>149</ele>
        <time>2026-03-29T13:22:26Z</time>
      </trkpt>
      <trkpt lat="48.69978" lon="1.90812">
        <ele>149</ele>
        <time>2026-03-29T13:22:27Z</time>
      </trkpt>
      <trkpt lat="48.69976" lon="1.90817">
        <ele>149</ele>
        <time>2026-03-29T13:22:28Z</time>
      </trkpt>
      <trkpt lat="48.69976" lon="1.90821">
        <ele>149</ele>
        <time>2026-03-29T13:22:29Z</time>
      </trkpt>
      <trkpt lat="48.69974" lon="1.90827">
        <ele>148.6</ele>
        <time>2026-03-29T13:22:30Z</time>
      </trkpt>
      <trkpt lat="48.69972" lon="1.90832">
        <ele>148.6</ele>
        <time>2026-03-29T13:22:31Z</time>
      </trkpt>
      <trkpt lat="48.69969" lon="1.90838">
        <ele>148.6</ele>
        <time>2026-03-29T13:22:32Z</time>
      </trkpt>
      <trkpt lat="48.69967" lon="1.90844">
        <ele>149</ele>
        <time>2026-03-29T13:22:33Z</time>
      </trkpt>
      <trkpt lat="48.69965" lon="1.9085">
        <ele>149.2</ele>
        <time>2026-03-29T13:22:34Z</time>
      </trkpt>
      <trkpt lat="48.69964" lon="1.90855">
        <ele>149.2</ele>
        <time>2026-03-29T13:22:35Z</time>
      </trkpt>
      <trkpt lat="48.69963" lon="1.9086">
        <ele>149.2</ele>
        <time>2026-03-29T13:22:36Z</time>
      </trkpt>
      <trkpt lat="48.69963" lon="1.90864">
        <ele>149.8</ele>
        <time>2026-03-29T13:22:37Z</time>
      </trkpt>
      <trkpt lat="48.69962" lon="1.90868">
        <ele>150.2</ele>
        <time>2026-03-29T13:22:38Z</time>
      </trkpt>
      <trkpt lat="48.69962" lon="1.90871">
        <ele>150.2</ele>
        <time>2026-03-29T13:22:39Z</time>
      </trkpt>
      <trkpt lat="48.69961" lon="1.90874">
        <ele>150.2</ele>
        <time>2026-03-29T13:22:40Z</time>
      </trkpt>
      <trkpt lat="48.6996" lon="1.90876">
        <ele>151.2</ele>
        <time>2026-03-29T13:22:41Z</time>
      </trkpt>
      <trkpt lat="48.6996" lon="1.90879">
        <ele>151.8</ele>
        <time>2026-03-29T13:22:42Z</time>
      </trkpt>
      <trkpt lat="48.69961" lon="1.90883">
        <ele>151.8</ele>
        <time>2026-03-29T13:22:43Z</time>
      </trkpt>
      <trkpt lat="48.6996" lon="1.90887">
        <ele>151.8</ele>
        <time>2026-03-29T13:22:44Z</time>
      </trkpt>
      <trkpt lat="48.6996" lon="1.90891">
        <ele>151.8</ele>
        <time>2026-03-29T13:22:45Z</time>
      </trkpt>
      <trkpt lat="48.69959" lon="1.90894">
        <ele>152.2</ele>
        <time>2026-03-29T13:22:46Z</time>
      </trkpt>
      <trkpt lat="48.69958" lon="1.90898">
        <ele>152.2</ele>
        <time>2026-03-29T13:22:47Z</time>
      </trkpt>
      <trkpt lat="48.69958" lon="1.90902">
        <ele>152.2</ele>
        <time>2026-03-29T13:22:48Z</time>
      </trkpt>
      <trkpt lat="48.69958" lon="1.90906">
        <ele>152.4</ele>
        <time>2026-03-29T13:22:49Z</time>
      </trkpt>
      <trkpt lat="48.69958" lon="1.90909">
        <ele>152.8</ele>
        <time>2026-03-29T13:22:50Z</time>
      </trkpt>
      <trkpt lat="48.69957" lon="1.90914">
        <ele>152.8</ele>
        <time>2026-03-29T13:22:51Z</time>
      </trkpt>
      <trkpt lat="48.69957" lon="1.90917">
        <ele>152.8</ele>
        <time>2026-03-29T13:22:52Z</time>
      </trkpt>
      <trkpt lat="48.69956" lon="1.90921">
        <ele>152.8</ele>
        <time>2026-03-29T13:22:53Z</time>
      </trkpt>
      <trkpt lat="48.69955" lon="1.90926">
        <ele>153.6</ele>
        <time>2026-03-29T13:22:54Z</time>
      </trkpt>
      <trkpt lat="48.69954" lon="1.9093">
        <ele>153.6</ele>
        <time>2026-03-29T13:22:55Z</time>
      </trkpt>
      <trkpt lat="48.69953" lon="1.90935">
        <ele>153.6</ele>
        <time>2026-03-29T13:22:56Z</time>
      </trkpt>
      <trkpt lat="48.69952" lon="1.90938">
        <ele>153.6</ele>
        <time>2026-03-29T13:22:57Z</time>
      </trkpt>
      <trkpt lat="48.69952" lon="1.90942">
        <ele>153.2</ele>
        <time>2026-03-29T13:22:58Z</time>
      </trkpt>
      <trkpt lat="48.69951" lon="1.90948">
        <ele>153.2</ele>
        <time>2026-03-29T13:22:59Z</time>
      </trkpt>
      <trkpt lat="48.6995" lon="1.90953">
        <ele>153.2</ele>
        <time>2026-03-29T13:23:00Z</time>
      </trkpt>
      <trkpt lat="48.69949" lon="1.90959">
        <ele>152.2</ele>
        <time>2026-03-29T13:23:01Z</time>
      </trkpt>
      <trkpt lat="48.69948" lon="1.90968">
        <ele>151.8</ele>
        <time>2026-03-29T13:23:02Z</time>
      </trkpt>
      <trkpt lat="48.69946" lon="1.90976">
        <ele>151.8</ele>
        <time>2026-03-29T13:23:03Z</time>
      </trkpt>
      <trkpt lat="48.69944" lon="1.90984">
        <ele>151.8</ele>
        <time>2026-03-29T13:23:04Z</time>
      </trkpt>
      <trkpt lat="48.69944" lon="1.9099">
        <ele>151.6</ele>
        <time>2026-03-29T13:23:05Z</time>
      </trkpt>
      <trkpt lat="48.69943" lon="1.90998">
        <ele>151.4</ele>
        <time>2026-03-29T13:23:06Z</time>
      </trkpt>
      <trkpt lat="48.69941" lon="1.91004">
        <ele>151.4</ele>
        <time>2026-03-29T13:23:07Z</time>
      </trkpt>
      <trkpt lat="48.69942" lon="1.91009">
        <ele>151.4</ele>
        <time>2026-03-29T13:23:08Z</time>
      </trkpt>
      <trkpt lat="48.69942" lon="1.91013">
        <ele>151.4</ele>
        <time>2026-03-29T13:23:09Z</time>
      </trkpt>
      <trkpt lat="48.69942" lon="1.91019">
        <ele>149.2</ele>
        <time>2026-03-29T13:23:10Z</time>
      </trkpt>
      <trkpt lat="48.69941" lon="1.91024">
        <ele>149.2</ele>
        <time>2026-03-29T13:23:11Z</time>
      </trkpt>
      <trkpt lat="48.6994" lon="1.9103">
        <ele>149.2</ele>
        <time>2026-03-29T13:23:12Z</time>
      </trkpt>
      <trkpt lat="48.6994" lon="1.91035">
        <ele>148.2</ele>
        <time>2026-03-29T13:23:13Z</time>
      </trkpt>
      <trkpt lat="48.69939" lon="1.91043">
        <ele>147.4</ele>
        <time>2026-03-29T13:23:14Z</time>
      </trkpt>
      <trkpt lat="48.69937" lon="1.91047">
        <ele>147.4</ele>
        <time>2026-03-29T13:23:15Z</time>
      </trkpt>
      <trkpt lat="48.69936" lon="1.91052">
        <ele>147.4</ele>
        <time>2026-03-29T13:23:16Z</time>
      </trkpt>
      <trkpt lat="48.69934" lon="1.91056">
        <ele>147.4</ele>
        <time>2026-03-29T13:23:17Z</time>
      </trkpt>
      <trkpt lat="48.69933" lon="1.9106">
        <ele>146.4</ele>
        <time>2026-03-29T13:23:18Z</time>
      </trkpt>
      <trkpt lat="48.69931" lon="1.91066">
        <ele>146.4</ele>
        <time>2026-03-29T13:23:19Z</time>
      </trkpt>
      <trkpt lat="48.6993" lon="1.91074">
        <ele>146.4</ele>
        <time>2026-03-29T13:23:20Z</time>
      </trkpt>
      <trkpt lat="48.69929" lon="1.91079">
        <ele>147.2</ele>
        <time>2026-03-29T13:23:21Z</time>
      </trkpt>
      <trkpt lat="48.69929" lon="1.91087">
        <ele>146.6</ele>
        <time>2026-03-29T13:23:22Z</time>
      </trkpt>
      <trkpt lat="48.69929" lon="1.91093">
        <ele>146.6</ele>
        <time>2026-03-29T13:23:23Z</time>
      </trkpt>
      <trkpt lat="48.69931" lon="1.91102">
        <ele>146.6</ele>
        <time>2026-03-29T13:23:24Z</time>
      </trkpt>
      <trkpt lat="48.69931" lon="1.91108">
        <ele>147</ele>
        <time>2026-03-29T13:23:25Z</time>
      </trkpt>
      <trkpt lat="48.69931" lon="1.91114">
        <ele>146.6</ele>
        <time>2026-03-29T13:23:26Z</time>
      </trkpt>
      <trkpt lat="48.69932" lon="1.91122">
        <ele>146.6</ele>
        <time>2026-03-29T13:23:27Z</time>
      </trkpt>
      <trkpt lat="48.69931" lon="1.91128">
        <ele>146.6</ele>
        <time>2026-03-29T13:23:28Z</time>
      </trkpt>
      <trkpt lat="48.69931" lon="1.91134">
        <ele>146.6</ele>
        <time>2026-03-29T13:23:29Z</time>
      </trkpt>
      <trkpt lat="48.6993" lon="1.91142">
        <ele>146.2</ele>
        <time>2026-03-29T13:23:30Z</time>
      </trkpt>
      <trkpt lat="48.69929" lon="1.91148">
        <ele>146.2</ele>
        <time>2026-03-29T13:23:31Z</time>
      </trkpt>
      <trkpt lat="48.69928" lon="1.91157">
        <ele>146.2</ele>
        <time>2026-03-29T13:23:32Z</time>
      </trkpt>
      <trkpt lat="48.69927" lon="1.91164">
        <ele>146.2</ele>
        <time>2026-03-29T13:23:33Z</time>
      </trkpt>
      <trkpt lat="48.69923" lon="1.91172">
        <ele>145.8</ele>
        <time>2026-03-29T13:23:34Z</time>
      </trkpt>
      <trkpt lat="48.6992" lon="1.9118">
        <ele>145.8</ele>
        <time>2026-03-29T13:23:35Z</time>
      </trkpt>
      <trkpt lat="48.69916" lon="1.91185">
        <ele>145.8</ele>
        <time>2026-03-29T13:23:36Z</time>
      </trkpt>
      <trkpt lat="48.69913" lon="1.91191">
        <ele>145.2</ele>
        <time>2026-03-29T13:23:37Z</time>
      </trkpt>
      <trkpt lat="48.69909" lon="1.91196">
        <ele>145.2</ele>
        <time>2026-03-29T13:23:38Z</time>
      </trkpt>
      <trkpt lat="48.69905" lon="1.91198">
        <ele>145.2</ele>
        <time>2026-03-29T13:23:39Z</time>
      </trkpt>
      <trkpt lat="48.69901" lon="1.91201">
        <ele>145.2</ele>
        <time>2026-03-29T13:23:40Z</time>
      </trkpt>
      <trkpt lat="48.69898" lon="1.91204">
        <ele>145.2</ele>
        <time>2026-03-29T13:23:41Z</time>
      </trkpt>
      <trkpt lat="48.69895" lon="1.91208">
        <ele>145.6</ele>
        <time>2026-03-29T13:23:42Z</time>
      </trkpt>
      <trkpt lat="48.69891" lon="1.91211">
        <ele>145.6</ele>
        <time>2026-03-29T13:23:43Z</time>
      </trkpt>
      <trkpt lat="48.69888" lon="1.91216">
        <ele>145.6</ele>
        <time>2026-03-29T13:23:44Z</time>
      </trkpt>
      <trkpt lat="48.69885" lon="1.91222">
        <ele>144.6</ele>
        <time>2026-03-29T13:23:45Z</time>
      </trkpt>
      <trkpt lat="48.69882" lon="1.9123">
        <ele>145</ele>
        <time>2026-03-29T13:23:46Z</time>
      </trkpt>
      <trkpt lat="48.69881" lon="1.91235">
        <ele>145</ele>
        <time>2026-03-29T13:23:47Z</time>
      </trkpt>
      <trkpt lat="48.69879" lon="1.91242">
        <ele>145</ele>
        <time>2026-03-29T13:23:48Z</time>
      </trkpt>
      <trkpt lat="48.6988" lon="1.91247">
        <ele>145.4</ele>
        <time>2026-03-29T13:23:49Z</time>
      </trkpt>
      <trkpt lat="48.6988" lon="1.91252">
        <ele>145</ele>
        <time>2026-03-29T13:23:50Z</time>
      </trkpt>
      <trkpt lat="48.6988" lon="1.91257">
        <ele>145</ele>
        <time>2026-03-29T13:23:51Z</time>
      </trkpt>
      <trkpt lat="48.69882" lon="1.91262">
        <ele>145</ele>
        <time>2026-03-29T13:23:52Z</time>
      </trkpt>
      <trkpt lat="48.69883" lon="1.91266">
        <ele>145</ele>
        <time>2026-03-29T13:23:53Z</time>
      </trkpt>
      <trkpt lat="48.69882" lon="1.91271">
        <ele>144.4</ele>
        <time>2026-03-29T13:23:54Z</time>
      </trkpt>
      <trkpt lat="48.69882" lon="1.91275">
        <ele>144.4</ele>
        <time>2026-03-29T13:23:55Z</time>
      </trkpt>
      <trkpt lat="48.69882" lon="1.91279">
        <ele>144.4</ele>
        <time>2026-03-29T13:23:56Z</time>
      </trkpt>
      <trkpt lat="48.69881" lon="1.91283">
        <ele>145</ele>
        <time>2026-03-29T13:23:57Z</time>
      </trkpt>
      <trkpt lat="48.6988" lon="1.9129">
        <ele>145.2</ele>
        <time>2026-03-29T13:23:58Z</time>
      </trkpt>
      <trkpt lat="48.69879" lon="1.91297">
        <ele>145.2</ele>
        <time>2026-03-29T13:23:59Z</time>
      </trkpt>
      <trkpt lat="48.69878" lon="1.913">
        <ele>145.2</ele>
        <time>2026-03-29T13:24:00Z</time>
      </trkpt>
      <trkpt lat="48.69878" lon="1.91304">
        <ele>145.2</ele>
        <time>2026-03-29T13:24:01Z</time>
      </trkpt>
      <trkpt lat="48.69876" lon="1.91309">
        <ele>145</ele>
        <time>2026-03-29T13:24:02Z</time>
      </trkpt>
      <trkpt lat="48.69875" lon="1.91316">
        <ele>145</ele>
        <time>2026-03-29T13:24:03Z</time>
      </trkpt>
      <trkpt lat="48.69874" lon="1.91321">
        <ele>145</ele>
        <time>2026-03-29T13:24:04Z</time>
      </trkpt>
      <trkpt lat="48.69872" lon="1.9133">
        <ele>145</ele>
        <time>2026-03-29T13:24:05Z</time>
      </trkpt>
      <trkpt lat="48.69872" lon="1.91338">
        <ele>145.2</ele>
        <time>2026-03-29T13:24:06Z</time>
      </trkpt>
      <trkpt lat="48.69872" lon="1.91345">
        <ele>145.2</ele>
        <time>2026-03-29T13:24:07Z</time>
      </trkpt>
      <trkpt lat="48.69872" lon="1.91351">
        <ele>145.2</ele>
        <time>2026-03-29T13:24:08Z</time>
      </trkpt>
      <trkpt lat="48.69872" lon="1.91355">
        <ele>144.6</ele>
        <time>2026-03-29T13:24:09Z</time>
      </trkpt>
      <trkpt lat="48.69871" lon="1.91363">
        <ele>144.4</ele>
        <time>2026-03-29T13:24:10Z</time>
      </trkpt>
      <trkpt lat="48.69871" lon="1.91369">
        <ele>144.4</ele>
        <time>2026-03-29T13:24:11Z</time>
      </trkpt>
      <trkpt lat="48.6987" lon="1.91376">
        <ele>144.4</ele>
        <time>2026-03-29T13:24:12Z</time>
      </trkpt>
      <trkpt lat="48.6987" lon="1.91383">
        <ele>144.4</ele>
        <time>2026-03-29T13:24:13Z</time>
      </trkpt>
      <trkpt lat="48.69868" lon="1.91391">
        <ele>144.8</ele>
        <time>2026-03-29T13:24:14Z</time>
      </trkpt>
      <trkpt lat="48.69866" lon="1.91399">
        <ele>144.8</ele>
        <time>2026-03-29T13:24:15Z</time>
      </trkpt>
      <trkpt lat="48.69864" lon="1.91407">
        <ele>144.8</ele>
        <time>2026-03-29T13:24:16Z</time>
      </trkpt>
      <trkpt lat="48.69862" lon="1.91413">
        <ele>145.4</ele>
        <time>2026-03-29T13:24:17Z</time>
      </trkpt>
      <trkpt lat="48.69859" lon="1.91417">
        <ele>144.8</ele>
        <time>2026-03-29T13:24:18Z</time>
      </trkpt>
      <trkpt lat="48.69856" lon="1.9142">
        <ele>144.8</ele>
        <time>2026-03-29T13:24:19Z</time>
      </trkpt>
      <trkpt lat="48.69854" lon="1.91422">
        <ele>144.8</ele>
        <time>2026-03-29T13:24:20Z</time>
      </trkpt>
      <trkpt lat="48.69851" lon="1.91424">
        <ele>144.8</ele>
        <time>2026-03-29T13:24:21Z</time>
      </trkpt>
      <trkpt lat="48.69847" lon="1.91427">
        <ele>145</ele>
        <time>2026-03-29T13:24:22Z</time>
      </trkpt>
      <trkpt lat="48.69843" lon="1.91431">
        <ele>145</ele>
        <time>2026-03-29T13:24:23Z</time>
      </trkpt>
      <trkpt lat="48.6984" lon="1.91433">
        <ele>145</ele>
        <time>2026-03-29T13:24:24Z</time>
      </trkpt>
      <trkpt lat="48.69836" lon="1.91433">
        <ele>145</ele>
        <time>2026-03-29T13:24:25Z</time>
      </trkpt>
      <trkpt lat="48.69832" lon="1.91432">
        <ele>144.8</ele>
        <time>2026-03-29T13:24:26Z</time>
      </trkpt>
      <trkpt lat="48.69829" lon="1.9143">
        <ele>144.8</ele>
        <time>2026-03-29T13:24:27Z</time>
      </trkpt>
      <trkpt lat="48.69825" lon="1.91428">
        <ele>144.8</ele>
        <time>2026-03-29T13:24:28Z</time>
      </trkpt>
      <trkpt lat="48.69821" lon="1.91426">
        <ele>144.8</ele>
        <time>2026-03-29T13:24:29Z</time>
      </trkpt>
      <trkpt lat="48.69817" lon="1.91424">
        <ele>145</ele>
        <time>2026-03-29T13:24:30Z</time>
      </trkpt>
      <trkpt lat="48.69813" lon="1.91423">
        <ele>145</ele>
        <time>2026-03-29T13:24:31Z</time>
      </trkpt>
      <trkpt lat="48.69808" lon="1.9142">
        <ele>145</ele>
        <time>2026-03-29T13:24:32Z</time>
      </trkpt>
      <trkpt lat="48.69804" lon="1.91417">
        <ele>145</ele>
        <time>2026-03-29T13:24:33Z</time>
      </trkpt>
      <trkpt lat="48.698" lon="1.91415">
        <ele>145</ele>
        <time>2026-03-29T13:24:34Z</time>
      </trkpt>
      <trkpt lat="48.69795" lon="1.91413">
        <ele>145</ele>
        <time>2026-03-29T13:24:35Z</time>
      </trkpt>
      <trkpt lat="48.69792" lon="1.91411">
        <ele>145</ele>
        <time>2026-03-29T13:24:36Z</time>
      </trkpt>
      <trkpt lat="48.69789" lon="1.91409">
        <ele>146</ele>
        <time>2026-03-29T13:24:37Z</time>
      </trkpt>
      <trkpt lat="48.69787" lon="1.91407">
        <ele>147.6</ele>
        <time>2026-03-29T13:24:38Z</time>
      </trkpt>
      <trkpt lat="48.69783" lon="1.91405">
        <ele>147.6</ele>
        <time>2026-03-29T13:24:39Z</time>
      </trkpt>
      <trkpt lat="48.6978" lon="1.91404">
        <ele>147.6</ele>
        <time>2026-03-29T13:24:40Z</time>
      </trkpt>
      <trkpt lat="48.69778" lon="1.91402">
        <ele>148.4</ele>
        <time>2026-03-29T13:24:41Z</time>
      </trkpt>
      <trkpt lat="48.69772" lon="1.91401">
        <ele>149.2</ele>
        <time>2026-03-29T13:24:42Z</time>
      </trkpt>
      <trkpt lat="48.6977" lon="1.91401">
        <ele>149.2</ele>
        <time>2026-03-29T13:24:43Z</time>
      </trkpt>
      <trkpt lat="48.69768" lon="1.91401">
        <ele>149.2</ele>
        <time>2026-03-29T13:24:44Z</time>
      </trkpt>
      <trkpt lat="48.69766" lon="1.914">
        <ele>148.8</ele>
        <time>2026-03-29T13:24:45Z</time>
      </trkpt>
      <trkpt lat="48.69764" lon="1.914">
        <ele>148.6</ele>
        <time>2026-03-29T13:24:46Z</time>
      </trkpt>
      <trkpt lat="48.69762" lon="1.914">
        <ele>148.6</ele>
        <time>2026-03-29T13:24:47Z</time>
      </trkpt>
      <trkpt lat="48.6976" lon="1.91399">
        <ele>148.2</ele>
        <time>2026-03-29T13:24:53Z</time>
      </trkpt>
      <trkpt lat="48.69758" lon="1.91399">
        <ele>147</ele>
        <time>2026-03-29T13:24:54Z</time>
      </trkpt>
      <trkpt lat="48.69753" lon="1.91398">
        <ele>147</ele>
        <time>2026-03-29T13:24:55Z</time>
      </trkpt>
      <trkpt lat="48.69748" lon="1.91398">
        <ele>147</ele>
        <time>2026-03-29T13:24:56Z</time>
      </trkpt>
      <trkpt lat="48.69742" lon="1.91398">
        <ele>146</ele>
        <time>2026-03-29T13:24:57Z</time>
      </trkpt>
      <trkpt lat="48.69736" lon="1.91399">
        <ele>145.8</ele>
        <time>2026-03-29T13:24:58Z</time>
      </trkpt>
      <trkpt lat="48.6973" lon="1.91401">
        <ele>145.8</ele>
        <time>2026-03-29T13:24:59Z</time>
      </trkpt>
      <trkpt lat="48.69725" lon="1.91404">
        <ele>145.8</ele>
        <time>2026-03-29T13:25:00Z</time>
      </trkpt>
      <trkpt lat="48.69719" lon="1.91405">
        <ele>145.8</ele>
        <time>2026-03-29T13:25:01Z</time>
      </trkpt>
      <trkpt lat="48.69714" lon="1.91404">
        <ele>145.4</ele>
        <time>2026-03-29T13:25:02Z</time>
      </trkpt>
      <trkpt lat="48.69709" lon="1.91404">
        <ele>145.4</ele>
        <time>2026-03-29T13:25:03Z</time>
      </trkpt>
      <trkpt lat="48.69704" lon="1.91405">
        <ele>145.4</ele>
        <time>2026-03-29T13:25:04Z</time>
      </trkpt>
      <trkpt lat="48.697" lon="1.91405">
        <ele>145.4</ele>
        <time>2026-03-29T13:25:05Z</time>
      </trkpt>
      <trkpt lat="48.69696" lon="1.91405">
        <ele>145</ele>
        <time>2026-03-29T13:25:06Z</time>
      </trkpt>
      <trkpt lat="48.69692" lon="1.91407">
        <ele>145</ele>
        <time>2026-03-29T13:25:07Z</time>
      </trkpt>
      <trkpt lat="48.69687" lon="1.91408">
        <ele>145</ele>
        <time>2026-03-29T13:25:08Z</time>
      </trkpt>
      <trkpt lat="48.69682" lon="1.91408">
        <ele>145</ele>
        <time>2026-03-29T13:25:09Z</time>
      </trkpt>
      <trkpt lat="48.69677" lon="1.91407">
        <ele>145</ele>
        <time>2026-03-29T13:25:10Z</time>
      </trkpt>
      <trkpt lat="48.69673" lon="1.91407">
        <ele>145</ele>
        <time>2026-03-29T13:25:11Z</time>
      </trkpt>
      <trkpt lat="48.69669" lon="1.91407">
        <ele>145</ele>
        <time>2026-03-29T13:25:12Z</time>
      </trkpt>
      <trkpt lat="48.69665" lon="1.91408">
        <ele>145.4</ele>
        <time>2026-03-29T13:25:13Z</time>
      </trkpt>
      <trkpt lat="48.69661" lon="1.9141">
        <ele>144.8</ele>
        <time>2026-03-29T13:25:14Z</time>
      </trkpt>
      <trkpt lat="48.69657" lon="1.91408">
        <ele>144.8</ele>
        <time>2026-03-29T13:25:15Z</time>
      </trkpt>
      <trkpt lat="48.69651" lon="1.91407">
        <ele>144.8</ele>
        <time>2026-03-29T13:25:16Z</time>
      </trkpt>
      <trkpt lat="48.69646" lon="1.91406">
        <ele>144.8</ele>
        <time>2026-03-29T13:25:17Z</time>
      </trkpt>
      <trkpt lat="48.69642" lon="1.91404">
        <ele>143.8</ele>
        <time>2026-03-29T13:25:18Z</time>
      </trkpt>
      <trkpt lat="48.69638" lon="1.91406">
        <ele>143.8</ele>
        <time>2026-03-29T13:25:19Z</time>
      </trkpt>
      <trkpt lat="48.69634" lon="1.91407">
        <ele>143.8</ele>
        <time>2026-03-29T13:25:20Z</time>
      </trkpt>
      <trkpt lat="48.6963" lon="1.91407">
        <ele>143.6</ele>
        <time>2026-03-29T13:25:21Z</time>
      </trkpt>
      <trkpt lat="48.69626" lon="1.91406">
        <ele>143.6</ele>
        <time>2026-03-29T13:25:22Z</time>
      </trkpt>
      <trkpt lat="48.69622" lon="1.91403">
        <ele>143.6</ele>
        <time>2026-03-29T13:25:23Z</time>
      </trkpt>
      <trkpt lat="48.6962" lon="1.914">
        <ele>143.6</ele>
        <time>2026-03-29T13:25:24Z</time>
      </trkpt>
      <trkpt lat="48.69617" lon="1.91395">
        <ele>143.4</ele>
        <time>2026-03-29T13:25:25Z</time>
      </trkpt>
      <trkpt lat="48.69614" lon="1.91391">
        <ele>143.8</ele>
        <time>2026-03-29T13:25:26Z</time>
      </trkpt>
      <trkpt lat="48.69611" lon="1.91388">
        <ele>143.8</ele>
        <time>2026-03-29T13:25:27Z</time>
      </trkpt>
      <trkpt lat="48.69609" lon="1.91386">
        <ele>143.8</ele>
        <time>2026-03-29T13:25:28Z</time>
      </trkpt>
      <trkpt lat="48.69606" lon="1.91383">
        <ele>143.8</ele>
        <time>2026-03-29T13:25:29Z</time>
      </trkpt>
      <trkpt lat="48.69603" lon="1.91381">
        <ele>143.6</ele>
        <time>2026-03-29T13:25:30Z</time>
      </trkpt>
      <trkpt lat="48.696" lon="1.91379">
        <ele>143.6</ele>
        <time>2026-03-29T13:25:31Z</time>
      </trkpt>
      <trkpt lat="48.69597" lon="1.91378">
        <ele>143.6</ele>
        <time>2026-03-29T13:25:32Z</time>
      </trkpt>
      <trkpt lat="48.69594" lon="1.91376">
        <ele>143.6</ele>
        <time>2026-03-29T13:25:33Z</time>
      </trkpt>
      <trkpt lat="48.69592" lon="1.91372">
        <ele>143.8</ele>
        <time>2026-03-29T13:25:34Z</time>
      </trkpt>
      <trkpt lat="48.69588" lon="1.91372">
        <ele>143.8</ele>
        <time>2026-03-29T13:25:35Z</time>
      </trkpt>
      <trkpt lat="48.69585" lon="1.91372">
        <ele>143.8</ele>
        <time>2026-03-29T13:25:36Z</time>
      </trkpt>
      <trkpt lat="48.69581" lon="1.91373">
        <ele>143.4</ele>
        <time>2026-03-29T13:25:37Z</time>
      </trkpt>
      <trkpt lat="48.69578" lon="1.91373">
        <ele>143.2</ele>
        <time>2026-03-29T13:25:38Z</time>
      </trkpt>
      <trkpt lat="48.69575" lon="1.91375">
        <ele>143.2</ele>
        <time>2026-03-29T13:25:39Z</time>
      </trkpt>
      <trkpt lat="48.69572" lon="1.91376">
        <ele>143.2</ele>
        <time>2026-03-29T13:25:40Z</time>
      </trkpt>
      <trkpt lat="48.69568" lon="1.91378">
        <ele>143.2</ele>
        <time>2026-03-29T13:25:41Z</time>
      </trkpt>
      <trkpt lat="48.69563" lon="1.9138">
        <ele>143</ele>
        <time>2026-03-29T13:25:42Z</time>
      </trkpt>
      <trkpt lat="48.69559" lon="1.91382">
        <ele>143</ele>
        <time>2026-03-29T13:25:43Z</time>
      </trkpt>
      <trkpt lat="48.69554" lon="1.91384">
        <ele>143</ele>
        <time>2026-03-29T13:25:44Z</time>
      </trkpt>
      <trkpt lat="48.69549" lon="1.91385">
        <ele>143.8</ele>
        <time>2026-03-29T13:25:45Z</time>
      </trkpt>
      <trkpt lat="48.69546" lon="1.91386">
        <ele>143.4</ele>
        <time>2026-03-29T13:25:46Z</time>
      </trkpt>
      <trkpt lat="48.69541" lon="1.91388">
        <ele>143.4</ele>
        <time>2026-03-29T13:25:47Z</time>
      </trkpt>
      <trkpt lat="48.69537" lon="1.91391">
        <ele>143.4</ele>
        <time>2026-03-29T13:25:48Z</time>
      </trkpt>
      <trkpt lat="48.69536" lon="1.91392">
        <ele>143.4</ele>
        <time>2026-03-29T13:25:49Z</time>
      </trkpt>
      <trkpt lat="48.69534" lon="1.91393">
        <ele>142.8</ele>
        <time>2026-03-29T13:25:50Z</time>
      </trkpt>
      <trkpt lat="48.69534" lon="1.91393">
        <ele>142.8</ele>
        <time>2026-03-29T13:25:51Z</time>
      </trkpt>
      <trkpt lat="48.69534" lon="1.91393">
        <ele>142.8</ele>
        <time>2026-03-29T13:25:52Z</time>
      </trkpt>
      <trkpt lat="48.69532" lon="1.91393">
        <ele>142.8</ele>
        <time>2026-03-29T13:25:53Z</time>
      </trkpt>
      <trkpt lat="48.69518" lon="1.91401">
        <ele>142.6</ele>
        <time>2026-03-29T13:26:05Z</time>
      </trkpt>
      <trkpt lat="48.69515" lon="1.91402">
        <ele>142.4</ele>
        <time>2026-03-29T13:26:06Z</time>
      </trkpt>
      <trkpt lat="48.69512" lon="1.91402">
        <ele>142.4</ele>
        <time>2026-03-29T13:26:07Z</time>
      </trkpt>
      <trkpt lat="48.6951" lon="1.91404">
        <ele>142.4</ele>
        <time>2026-03-29T13:26:08Z</time>
      </trkpt>
      <trkpt lat="48.69507" lon="1.91406">
        <ele>142.4</ele>
        <time>2026-03-29T13:26:09Z</time>
      </trkpt>
      <trkpt lat="48.69504" lon="1.91407">
        <ele>142.4</ele>
        <time>2026-03-29T13:26:10Z</time>
      </trkpt>
      <trkpt lat="48.695" lon="1.91408">
        <ele>142.4</ele>
        <time>2026-03-29T13:26:11Z</time>
      </trkpt>
      <trkpt lat="48.69497" lon="1.91411">
        <ele>142.4</ele>
        <time>2026-03-29T13:26:12Z</time>
      </trkpt>
      <trkpt lat="48.69495" lon="1.91413">
        <ele>142.4</ele>
        <time>2026-03-29T13:26:13Z</time>
      </trkpt>
      <trkpt lat="48.69493" lon="1.91417">
        <ele>142.4</ele>
        <time>2026-03-29T13:26:14Z</time>
      </trkpt>
      <trkpt lat="48.69492" lon="1.91422">
        <ele>142.4</ele>
        <time>2026-03-29T13:26:15Z</time>
      </trkpt>
      <trkpt lat="48.69492" lon="1.91426">
        <ele>142.4</ele>
        <time>2026-03-29T13:26:16Z</time>
      </trkpt>
      <trkpt lat="48.69492" lon="1.91431">
        <ele>142.4</ele>
        <time>2026-03-29T13:26:17Z</time>
      </trkpt>
      <trkpt lat="48.69493" lon="1.91435">
        <ele>143</ele>
        <time>2026-03-29T13:26:18Z</time>
      </trkpt>
      <trkpt lat="48.69493" lon="1.91439">
        <ele>143</ele>
        <time>2026-03-29T13:26:19Z</time>
      </trkpt>
      <trkpt lat="48.69493" lon="1.91443">
        <ele>143</ele>
        <time>2026-03-29T13:26:20Z</time>
      </trkpt>
      <trkpt lat="48.69493" lon="1.91448">
        <ele>144</ele>
        <time>2026-03-29T13:26:21Z</time>
      </trkpt>
      <trkpt lat="48.69494" lon="1.91451">
        <ele>144</ele>
        <time>2026-03-29T13:26:22Z</time>
      </trkpt>
      <trkpt lat="48.69493" lon="1.91453">
        <ele>144</ele>
        <time>2026-03-29T13:26:23Z</time>
      </trkpt>
      <trkpt lat="48.69492" lon="1.91457">
        <ele>144</ele>
        <time>2026-03-29T13:26:24Z</time>
      </trkpt>
      <trkpt lat="48.69489" lon="1.91459">
        <ele>144</ele>
        <time>2026-03-29T13:26:25Z</time>
      </trkpt>
      <trkpt lat="48.69488" lon="1.9146">
        <ele>144.4</ele>
        <time>2026-03-29T13:26:26Z</time>
      </trkpt>
      <trkpt lat="48.69485" lon="1.91461">
        <ele>144.4</ele>
        <time>2026-03-29T13:26:27Z</time>
      </trkpt>
      <trkpt lat="48.69482" lon="1.91462">
        <ele>144.4</ele>
        <time>2026-03-29T13:26:28Z</time>
      </trkpt>
      <trkpt lat="48.69479" lon="1.91463">
        <ele>144.6</ele>
        <time>2026-03-29T13:26:29Z</time>
      </trkpt>
      <trkpt lat="48.69476" lon="1.91464">
        <ele>145.2</ele>
        <time>2026-03-29T13:26:30Z</time>
      </trkpt>
      <trkpt lat="48.69475" lon="1.91465">
        <ele>145.2</ele>
        <time>2026-03-29T13:26:31Z</time>
      </trkpt>
      <trkpt lat="48.69472" lon="1.91466">
        <ele>145.2</ele>
        <time>2026-03-29T13:26:32Z</time>
      </trkpt>
      <trkpt lat="48.69469" lon="1.91467">
        <ele>145.6</ele>
        <time>2026-03-29T13:26:33Z</time>
      </trkpt>
      <trkpt lat="48.69466" lon="1.9147">
        <ele>145.2</ele>
        <time>2026-03-29T13:26:34Z</time>
      </trkpt>
      <trkpt lat="48.69463" lon="1.91471">
        <ele>145.2</ele>
        <time>2026-03-29T13:26:35Z</time>
      </trkpt>
      <trkpt lat="48.6946" lon="1.91474">
        <ele>145.2</ele>
        <time>2026-03-29T13:26:36Z</time>
      </trkpt>
      <trkpt lat="48.69457" lon="1.91476">
        <ele>145.6</ele>
        <time>2026-03-29T13:26:37Z</time>
      </trkpt>
      <trkpt lat="48.69454" lon="1.91478">
        <ele>145.8</ele>
        <time>2026-03-29T13:26:38Z</time>
      </trkpt>
      <trkpt lat="48.69452" lon="1.9148">
        <ele>145.8</ele>
        <time>2026-03-29T13:26:39Z</time>
      </trkpt>
      <trkpt lat="48.69449" lon="1.91481">
        <ele>145.8</ele>
        <time>2026-03-29T13:26:40Z</time>
      </trkpt>
      <trkpt lat="48.69446" lon="1.91482">
        <ele>146.6</ele>
        <time>2026-03-29T13:26:41Z</time>
      </trkpt>
      <trkpt lat="48.69443" lon="1.91483">
        <ele>147</ele>
        <time>2026-03-29T13:26:42Z</time>
      </trkpt>
      <trkpt lat="48.6944" lon="1.91483">
        <ele>147</ele>
        <time>2026-03-29T13:26:43Z</time>
      </trkpt>
      <trkpt lat="48.69438" lon="1.91484">
        <ele>147</ele>
        <time>2026-03-29T13:26:44Z</time>
      </trkpt>
      <trkpt lat="48.69435" lon="1.91485">
        <ele>147.8</ele>
        <time>2026-03-29T13:26:45Z</time>
      </trkpt>
      <trkpt lat="48.69433" lon="1.91485">
        <ele>147.6</ele>
        <time>2026-03-29T13:26:46Z</time>
      </trkpt>
      <trkpt lat="48.6943" lon="1.91486">
        <ele>147.6</ele>
        <time>2026-03-29T13:26:47Z</time>
      </trkpt>
      <trkpt lat="48.69427" lon="1.91484">
        <ele>147.6</ele>
        <time>2026-03-29T13:26:48Z</time>
      </trkpt>
      <trkpt lat="48.69424" lon="1.91483">
        <ele>147.6</ele>
        <time>2026-03-29T13:26:49Z</time>
      </trkpt>
      <trkpt lat="48.69421" lon="1.91482">
        <ele>148.4</ele>
        <time>2026-03-29T13:26:50Z</time>
      </trkpt>
      <trkpt lat="48.69419" lon="1.91481">
        <ele>148.4</ele>
        <time>2026-03-29T13:26:51Z</time>
      </trkpt>
      <trkpt lat="48.69416" lon="1.9148">
        <ele>148.4</ele>
        <time>2026-03-29T13:26:52Z</time>
      </trkpt>
      <trkpt lat="48.69414" lon="1.91479">
        <ele>148.4</ele>
        <time>2026-03-29T13:26:53Z</time>
      </trkpt>
      <trkpt lat="48.69412" lon="1.91478">
        <ele>148.4</ele>
        <time>2026-03-29T13:26:54Z</time>
      </trkpt>
      <trkpt lat="48.69409" lon="1.91478">
        <ele>148.4</ele>
        <time>2026-03-29T13:26:55Z</time>
      </trkpt>
      <trkpt lat="48.69407" lon="1.91477">
        <ele>148.4</ele>
        <time>2026-03-29T13:26:56Z</time>
      </trkpt>
      <trkpt lat="48.69404" lon="1.91477">
        <ele>147.4</ele>
        <time>2026-03-29T13:26:57Z</time>
      </trkpt>
      <trkpt lat="48.69402" lon="1.91475">
        <ele>146</ele>
        <time>2026-03-29T13:26:58Z</time>
      </trkpt>
      <trkpt lat="48.694" lon="1.91473">
        <ele>146</ele>
        <time>2026-03-29T13:26:59Z</time>
      </trkpt>
      <trkpt lat="48.69396" lon="1.91472">
        <ele>146</ele>
        <time>2026-03-29T13:27:00Z</time>
      </trkpt>
      <trkpt lat="48.69393" lon="1.91471">
        <ele>145</ele>
        <time>2026-03-29T13:27:01Z</time>
      </trkpt>
      <trkpt lat="48.69389" lon="1.91471">
        <ele>143.6</ele>
        <time>2026-03-29T13:27:02Z</time>
      </trkpt>
      <trkpt lat="48.69386" lon="1.91473">
        <ele>143.6</ele>
        <time>2026-03-29T13:27:03Z</time>
      </trkpt>
      <trkpt lat="48.69384" lon="1.91476">
        <ele>143.6</ele>
        <time>2026-03-29T13:27:04Z</time>
      </trkpt>
      <trkpt lat="48.69381" lon="1.91481">
        <ele>143</ele>
        <time>2026-03-29T13:27:05Z</time>
      </trkpt>
      <trkpt lat="48.69381" lon="1.91485">
        <ele>143.4</ele>
        <time>2026-03-29T13:27:06Z</time>
      </trkpt>
      <trkpt lat="48.69381" lon="1.91489">
        <ele>143.4</ele>
        <time>2026-03-29T13:27:07Z</time>
      </trkpt>
      <trkpt lat="48.6938" lon="1.91492">
        <ele>143.4</ele>
        <time>2026-03-29T13:27:08Z</time>
      </trkpt>
      <trkpt lat="48.69381" lon="1.91495">
        <ele>143.4</ele>
        <time>2026-03-29T13:27:09Z</time>
      </trkpt>
      <trkpt lat="48.69381" lon="1.91499">
        <ele>143.2</ele>
        <time>2026-03-29T13:27:10Z</time>
      </trkpt>
      <trkpt lat="48.69381" lon="1.91501">
        <ele>143.2</ele>
        <time>2026-03-29T13:27:11Z</time>
      </trkpt>
      <trkpt lat="48.69382" lon="1.91504">
        <ele>143.2</ele>
        <time>2026-03-29T13:27:12Z</time>
      </trkpt>
      <trkpt lat="48.69383" lon="1.91506">
        <ele>143.4</ele>
        <time>2026-03-29T13:27:13Z</time>
      </trkpt>
      <trkpt lat="48.69383" lon="1.91509">
        <ele>143.8</ele>
        <time>2026-03-29T13:27:14Z</time>
      </trkpt>
      <trkpt lat="48.69384" lon="1.91512">
        <ele>143.8</ele>
        <time>2026-03-29T13:27:15Z</time>
      </trkpt>
      <trkpt lat="48.69385" lon="1.91514">
        <ele>143.8</ele>
        <time>2026-03-29T13:27:16Z</time>
      </trkpt>
      <trkpt lat="48.69386" lon="1.91515">
        <ele>143.8</ele>
        <time>2026-03-29T13:27:17Z</time>
      </trkpt>
      <trkpt lat="48.69388" lon="1.91518">
        <ele>144</ele>
        <time>2026-03-29T13:27:18Z</time>
      </trkpt>
      <trkpt lat="48.69389" lon="1.9152">
        <ele>144</ele>
        <time>2026-03-29T13:27:19Z</time>
      </trkpt>
      <trkpt lat="48.6939" lon="1.91521">
        <ele>144</ele>
        <time>2026-03-29T13:27:20Z</time>
      </trkpt>
      <trkpt lat="48.69391" lon="1.91523">
        <ele>145</ele>
        <time>2026-03-29T13:27:21Z</time>
      </trkpt>
      <trkpt lat="48.69392" lon="1.91526">
        <ele>144.8</ele>
        <time>2026-03-29T13:27:22Z</time>
      </trkpt>
      <trkpt lat="48.69393" lon="1.91528">
        <ele>144.8</ele>
        <time>2026-03-29T13:27:23Z</time>
      </trkpt>
      <trkpt lat="48.69394" lon="1.91529">
        <ele>144.8</ele>
        <time>2026-03-29T13:27:24Z</time>
      </trkpt>
      <trkpt lat="48.69394" lon="1.91532">
        <ele>145.6</ele>
        <time>2026-03-29T13:27:25Z</time>
      </trkpt>
      <trkpt lat="48.69395" lon="1.91533">
        <ele>145.6</ele>
        <time>2026-03-29T13:27:26Z</time>
      </trkpt>
      <trkpt lat="48.69395" lon="1.91535">
        <ele>145.6</ele>
        <time>2026-03-29T13:27:27Z</time>
      </trkpt>
      <trkpt lat="48.69396" lon="1.91537">
        <ele>145.6</ele>
        <time>2026-03-29T13:27:28Z</time>
      </trkpt>
      <trkpt lat="48.69397" lon="1.91539">
        <ele>146</ele>
        <time>2026-03-29T13:27:29Z</time>
      </trkpt>
      <trkpt lat="48.69398" lon="1.91541">
        <ele>146.4</ele>
        <time>2026-03-29T13:27:30Z</time>
      </trkpt>
      <trkpt lat="48.69399" lon="1.91543">
        <ele>146.4</ele>
        <time>2026-03-29T13:27:31Z</time>
      </trkpt>
      <trkpt lat="48.69401" lon="1.91545">
        <ele>146.4</ele>
        <time>2026-03-29T13:27:32Z</time>
      </trkpt>
      <trkpt lat="48.69402" lon="1.91547">
        <ele>146.8</ele>
        <time>2026-03-29T13:27:33Z</time>
      </trkpt>
      <trkpt lat="48.69403" lon="1.91549">
        <ele>147</ele>
        <time>2026-03-29T13:27:34Z</time>
      </trkpt>
      <trkpt lat="48.69404" lon="1.9155">
        <ele>147</ele>
        <time>2026-03-29T13:27:35Z</time>
      </trkpt>
      <trkpt lat="48.69405" lon="1.91552">
        <ele>147</ele>
        <time>2026-03-29T13:27:36Z</time>
      </trkpt>
      <trkpt lat="48.69407" lon="1.91554">
        <ele>147.8</ele>
        <time>2026-03-29T13:27:37Z</time>
      </trkpt>
      <trkpt lat="48.69408" lon="1.91555">
        <ele>147.8</ele>
        <time>2026-03-29T13:27:38Z</time>
      </trkpt>
      <trkpt lat="48.69409" lon="1.91557">
        <ele>147.8</ele>
        <time>2026-03-29T13:27:39Z</time>
      </trkpt>
      <trkpt lat="48.6941" lon="1.91559">
        <ele>147.8</ele>
        <time>2026-03-29T13:27:40Z</time>
      </trkpt>
      <trkpt lat="48.69411" lon="1.91561">
        <ele>148.8</ele>
        <time>2026-03-29T13:27:41Z</time>
      </trkpt>
      <trkpt lat="48.69413" lon="1.91563">
        <ele>148.8</ele>
        <time>2026-03-29T13:27:42Z</time>
      </trkpt>
      <trkpt lat="48.69414" lon="1.91565">
        <ele>148.8</ele>
        <time>2026-03-29T13:27:43Z</time>
      </trkpt>
      <trkpt lat="48.69415" lon="1.91567">
        <ele>148.8</ele>
        <time>2026-03-29T13:27:44Z</time>
      </trkpt>
      <trkpt lat="48.69416" lon="1.91569">
        <ele>149.6</ele>
        <time>2026-03-29T13:27:45Z</time>
      </trkpt>
      <trkpt lat="48.69418" lon="1.91571">
        <ele>149.8</ele>
        <time>2026-03-29T13:27:46Z</time>
      </trkpt>
      <trkpt lat="48.69419" lon="1.91572">
        <ele>149.8</ele>
        <time>2026-03-29T13:27:47Z</time>
      </trkpt>
      <trkpt lat="48.6942" lon="1.91574">
        <ele>149.8</ele>
        <time>2026-03-29T13:27:48Z</time>
      </trkpt>
      <trkpt lat="48.69422" lon="1.91576">
        <ele>150.2</ele>
        <time>2026-03-29T13:27:49Z</time>
      </trkpt>
      <trkpt lat="48.69423" lon="1.91578">
        <ele>150.2</ele>
        <time>2026-03-29T13:27:50Z</time>
      </trkpt>
      <trkpt lat="48.69424" lon="1.9158">
        <ele>150.2</ele>
        <time>2026-03-29T13:27:51Z</time>
      </trkpt>
      <trkpt lat="48.69426" lon="1.91583">
        <ele>150.2</ele>
        <time>2026-03-29T13:27:52Z</time>
      </trkpt>
      <trkpt lat="48.69426" lon="1.91585">
        <ele>151</ele>
        <time>2026-03-29T13:27:53Z</time>
      </trkpt>
      <trkpt lat="48.69426" lon="1.91587">
        <ele>150.8</ele>
        <time>2026-03-29T13:27:54Z</time>
      </trkpt>
      <trkpt lat="48.69428" lon="1.9159">
        <ele>150.8</ele>
        <time>2026-03-29T13:27:55Z</time>
      </trkpt>
      <trkpt lat="48.69428" lon="1.91591">
        <ele>150.8</ele>
        <time>2026-03-29T13:27:56Z</time>
      </trkpt>
      <trkpt lat="48.69429" lon="1.91593">
        <ele>151.2</ele>
        <time>2026-03-29T13:27:57Z</time>
      </trkpt>
      <trkpt lat="48.6943" lon="1.91596">
        <ele>151</ele>
        <time>2026-03-29T13:27:58Z</time>
      </trkpt>
      <trkpt lat="48.69431" lon="1.91599">
        <ele>151</ele>
        <time>2026-03-29T13:27:59Z</time>
      </trkpt>
      <trkpt lat="48.69432" lon="1.91601">
        <ele>151</ele>
        <time>2026-03-29T13:28:00Z</time>
      </trkpt>
      <trkpt lat="48.69434" lon="1.91603">
        <ele>151.4</ele>
        <time>2026-03-29T13:28:01Z</time>
      </trkpt>
      <trkpt lat="48.69434" lon="1.91605">
        <ele>151.6</ele>
        <time>2026-03-29T13:28:02Z</time>
      </trkpt>
      <trkpt lat="48.69436" lon="1.91607">
        <ele>151.6</ele>
        <time>2026-03-29T13:28:03Z</time>
      </trkpt>
      <trkpt lat="48.69437" lon="1.9161">
        <ele>151.6</ele>
        <time>2026-03-29T13:28:04Z</time>
      </trkpt>
      <trkpt lat="48.69437" lon="1.91613">
        <ele>152</ele>
        <time>2026-03-29T13:28:05Z</time>
      </trkpt>
      <trkpt lat="48.69437" lon="1.91615">
        <ele>152.4</ele>
        <time>2026-03-29T13:28:06Z</time>
      </trkpt>
      <trkpt lat="48.69437" lon="1.91617">
        <ele>152.4</ele>
        <time>2026-03-29T13:28:07Z</time>
      </trkpt>
      <trkpt lat="48.69438" lon="1.9162">
        <ele>152.4</ele>
        <time>2026-03-29T13:28:08Z</time>
      </trkpt>
      <trkpt lat="48.69439" lon="1.91622">
        <ele>152.4</ele>
        <time>2026-03-29T13:28:09Z</time>
      </trkpt>
      <trkpt lat="48.6944" lon="1.91624">
        <ele>152.8</ele>
        <time>2026-03-29T13:28:10Z</time>
      </trkpt>
      <trkpt lat="48.69441" lon="1.91627">
        <ele>152.8</ele>
        <time>2026-03-29T13:28:11Z</time>
      </trkpt>
      <trkpt lat="48.69441" lon="1.9163">
        <ele>152.8</ele>
        <time>2026-03-29T13:28:12Z</time>
      </trkpt>
      <trkpt lat="48.69442" lon="1.91633">
        <ele>152.8</ele>
        <time>2026-03-29T13:28:13Z</time>
      </trkpt>
      <trkpt lat="48.69443" lon="1.91635">
        <ele>153</ele>
        <time>2026-03-29T13:28:14Z</time>
      </trkpt>
      <trkpt lat="48.69443" lon="1.91637">
        <ele>153</ele>
        <time>2026-03-29T13:28:15Z</time>
      </trkpt>
      <trkpt lat="48.69445" lon="1.9164">
        <ele>153</ele>
        <time>2026-03-29T13:28:16Z</time>
      </trkpt>
      <trkpt lat="48.69446" lon="1.91642">
        <ele>153.6</ele>
        <time>2026-03-29T13:28:17Z</time>
      </trkpt>
      <trkpt lat="48.69446" lon="1.91644">
        <ele>153.6</ele>
        <time>2026-03-29T13:28:18Z</time>
      </trkpt>
      <trkpt lat="48.69447" lon="1.91646">
        <ele>153.6</ele>
        <time>2026-03-29T13:28:19Z</time>
      </trkpt>
      <trkpt lat="48.69448" lon="1.91649">
        <ele>153.6</ele>
        <time>2026-03-29T13:28:20Z</time>
      </trkpt>
      <trkpt lat="48.69449" lon="1.91651">
        <ele>153.6</ele>
        <time>2026-03-29T13:28:21Z</time>
      </trkpt>
      <trkpt lat="48.6945" lon="1.91653">
        <ele>154.4</ele>
        <time>2026-03-29T13:28:22Z</time>
      </trkpt>
      <trkpt lat="48.69451" lon="1.91656">
        <ele>154.4</ele>
        <time>2026-03-29T13:28:23Z</time>
      </trkpt>
      <trkpt lat="48.69452" lon="1.91658">
        <ele>154.4</ele>
        <time>2026-03-29T13:28:24Z</time>
      </trkpt>
      <trkpt lat="48.69452" lon="1.9166">
        <ele>154.4</ele>
        <time>2026-03-29T13:28:25Z</time>
      </trkpt>
      <trkpt lat="48.69453" lon="1.91663">
        <ele>155.2</ele>
        <time>2026-03-29T13:28:26Z</time>
      </trkpt>
      <trkpt lat="48.69453" lon="1.91664">
        <ele>155.2</ele>
        <time>2026-03-29T13:28:27Z</time>
      </trkpt>
      <trkpt lat="48.69454" lon="1.91666">
        <ele>155.2</ele>
        <time>2026-03-29T13:28:28Z</time>
      </trkpt>
      <trkpt lat="48.69455" lon="1.91669">
        <ele>155.2</ele>
        <time>2026-03-29T13:28:29Z</time>
      </trkpt>
      <trkpt lat="48.69455" lon="1.91672">
        <ele>156</ele>
        <time>2026-03-29T13:28:30Z</time>
      </trkpt>
      <trkpt lat="48.69456" lon="1.91674">
        <ele>156</ele>
        <time>2026-03-29T13:28:31Z</time>
      </trkpt>
      <trkpt lat="48.69456" lon="1.91677">
        <ele>156</ele>
        <time>2026-03-29T13:28:32Z</time>
      </trkpt>
      <trkpt lat="48.69457" lon="1.91679">
        <ele>156</ele>
        <time>2026-03-29T13:28:33Z</time>
      </trkpt>
      <trkpt lat="48.69458" lon="1.91681">
        <ele>156.2</ele>
        <time>2026-03-29T13:28:34Z</time>
      </trkpt>
      <trkpt lat="48.69458" lon="1.91684">
        <ele>156.2</ele>
        <time>2026-03-29T13:28:35Z</time>
      </trkpt>
      <trkpt lat="48.69459" lon="1.91686">
        <ele>156.2</ele>
        <time>2026-03-29T13:28:36Z</time>
      </trkpt>
      <trkpt lat="48.6946" lon="1.91689">
        <ele>157</ele>
        <time>2026-03-29T13:28:37Z</time>
      </trkpt>
      <trkpt lat="48.69461" lon="1.91692">
        <ele>157.2</ele>
        <time>2026-03-29T13:28:38Z</time>
      </trkpt>
      <trkpt lat="48.69462" lon="1.91694">
        <ele>157.2</ele>
        <time>2026-03-29T13:28:39Z</time>
      </trkpt>
      <trkpt lat="48.69463" lon="1.91697">
        <ele>157.2</ele>
        <time>2026-03-29T13:28:40Z</time>
      </trkpt>
      <trkpt lat="48.69463" lon="1.91699">
        <ele>157.2</ele>
        <time>2026-03-29T13:28:41Z</time>
      </trkpt>
      <trkpt lat="48.69463" lon="1.91701">
        <ele>157.8</ele>
        <time>2026-03-29T13:28:42Z</time>
      </trkpt>
      <trkpt lat="48.69464" lon="1.91703">
        <ele>157.8</ele>
        <time>2026-03-29T13:28:43Z</time>
      </trkpt>
      <trkpt lat="48.69465" lon="1.91705">
        <ele>157.8</ele>
        <time>2026-03-29T13:28:44Z</time>
      </trkpt>
      <trkpt lat="48.69466" lon="1.91708">
        <ele>157.8</ele>
        <time>2026-03-29T13:28:45Z</time>
      </trkpt>
      <trkpt lat="48.69468" lon="1.9171">
        <ele>157.8</ele>
        <time>2026-03-29T13:28:46Z</time>
      </trkpt>
      <trkpt lat="48.69469" lon="1.91713">
        <ele>157.8</ele>
        <time>2026-03-29T13:28:47Z</time>
      </trkpt>
      <trkpt lat="48.6947" lon="1.91715">
        <ele>157.8</ele>
        <time>2026-03-29T13:28:48Z</time>
      </trkpt>
      <trkpt lat="48.69471" lon="1.91717">
        <ele>158.8</ele>
        <time>2026-03-29T13:28:49Z</time>
      </trkpt>
      <trkpt lat="48.69472" lon="1.91719">
        <ele>159.2</ele>
        <time>2026-03-29T13:28:50Z</time>
      </trkpt>
      <trkpt lat="48.69473" lon="1.91722">
        <ele>159.2</ele>
        <time>2026-03-29T13:28:51Z</time>
      </trkpt>
      <trkpt lat="48.69474" lon="1.91724">
        <ele>159.2</ele>
        <time>2026-03-29T13:28:52Z</time>
      </trkpt>
      <trkpt lat="48.69475" lon="1.91726">
        <ele>159.8</ele>
        <time>2026-03-29T13:28:53Z</time>
      </trkpt>
      <trkpt lat="48.69475" lon="1.91729">
        <ele>160.2</ele>
        <time>2026-03-29T13:28:54Z</time>
      </trkpt>
      <trkpt lat="48.69476" lon="1.91732">
        <ele>160.2</ele>
        <time>2026-03-29T13:28:55Z</time>
      </trkpt>
      <trkpt lat="48.69476" lon="1.91734">
        <ele>160.2</ele>
        <time>2026-03-29T13:28:56Z</time>
      </trkpt>
      <trkpt lat="48.69477" lon="1.91737">
        <ele>160.8</ele>
        <time>2026-03-29T13:28:57Z</time>
      </trkpt>
      <trkpt lat="48.69478" lon="1.9174">
        <ele>161</ele>
        <time>2026-03-29T13:28:58Z</time>
      </trkpt>
      <trkpt lat="48.69478" lon="1.91743">
        <ele>161</ele>
        <time>2026-03-29T13:28:59Z</time>
      </trkpt>
      <trkpt lat="48.69479" lon="1.91747">
        <ele>161</ele>
        <time>2026-03-29T13:29:00Z</time>
      </trkpt>
      <trkpt lat="48.6948" lon="1.91749">
        <ele>161</ele>
        <time>2026-03-29T13:29:01Z</time>
      </trkpt>
      <trkpt lat="48.6948" lon="1.91752">
        <ele>161.2</ele>
        <time>2026-03-29T13:29:02Z</time>
      </trkpt>
      <trkpt lat="48.69481" lon="1.91754">
        <ele>161.2</ele>
        <time>2026-03-29T13:29:03Z</time>
      </trkpt>
      <trkpt lat="48.69482" lon="1.91756">
        <ele>161.2</ele>
        <time>2026-03-29T13:29:04Z</time>
      </trkpt>
      <trkpt lat="48.69483" lon="1.91758">
        <ele>161.2</ele>
        <time>2026-03-29T13:29:05Z</time>
      </trkpt>
      <trkpt lat="48.69484" lon="1.9176">
        <ele>161.4</ele>
        <time>2026-03-29T13:29:06Z</time>
      </trkpt>
      <trkpt lat="48.69484" lon="1.91762">
        <ele>161.4</ele>
        <time>2026-03-29T13:29:07Z</time>
      </trkpt>
      <trkpt lat="48.69485" lon="1.91765">
        <ele>161.4</ele>
        <time>2026-03-29T13:29:08Z</time>
      </trkpt>
      <trkpt lat="48.69486" lon="1.91768">
        <ele>161.6</ele>
        <time>2026-03-29T13:29:09Z</time>
      </trkpt>
      <trkpt lat="48.69486" lon="1.9177">
        <ele>162.2</ele>
        <time>2026-03-29T13:29:10Z</time>
      </trkpt>
      <trkpt lat="48.69487" lon="1.91773">
        <ele>162.2</ele>
        <time>2026-03-29T13:29:11Z</time>
      </trkpt>
      <trkpt lat="48.69488" lon="1.91775">
        <ele>162.2</ele>
        <time>2026-03-29T13:29:12Z</time>
      </trkpt>
      <trkpt lat="48.69489" lon="1.91778">
        <ele>162</ele>
        <time>2026-03-29T13:29:13Z</time>
      </trkpt>
      <trkpt lat="48.6949" lon="1.9178">
        <ele>162.2</ele>
        <time>2026-03-29T13:29:14Z</time>
      </trkpt>
      <trkpt lat="48.69491" lon="1.91783">
        <ele>162.2</ele>
        <time>2026-03-29T13:29:15Z</time>
      </trkpt>
      <trkpt lat="48.69492" lon="1.91785">
        <ele>162.2</ele>
        <time>2026-03-29T13:29:16Z</time>
      </trkpt>
      <trkpt lat="48.69493" lon="1.91788">
        <ele>162.6</ele>
        <time>2026-03-29T13:29:17Z</time>
      </trkpt>
      <trkpt lat="48.69493" lon="1.9179">
        <ele>162.8</ele>
        <time>2026-03-29T13:29:18Z</time>
      </trkpt>
      <trkpt lat="48.69494" lon="1.91792">
        <ele>162.8</ele>
        <time>2026-03-29T13:29:19Z</time>
      </trkpt>
      <trkpt lat="48.69495" lon="1.91793">
        <ele>162.8</ele>
        <time>2026-03-29T13:29:20Z</time>
      </trkpt>
      <trkpt lat="48.69496" lon="1.91796">
        <ele>163.2</ele>
        <time>2026-03-29T13:29:21Z</time>
      </trkpt>
      <trkpt lat="48.69497" lon="1.91798">
        <ele>163.8</ele>
        <time>2026-03-29T13:29:22Z</time>
      </trkpt>
      <trkpt lat="48.69497" lon="1.918">
        <ele>163.8</ele>
        <time>2026-03-29T13:29:23Z</time>
      </trkpt>
      <trkpt lat="48.69498" lon="1.91802">
        <ele>163.8</ele>
        <time>2026-03-29T13:29:24Z</time>
      </trkpt>
      <trkpt lat="48.69499" lon="1.91805">
        <ele>163.8</ele>
        <time>2026-03-29T13:29:25Z</time>
      </trkpt>
      <trkpt lat="48.695" lon="1.91806">
        <ele>164.4</ele>
        <time>2026-03-29T13:29:26Z</time>
      </trkpt>
      <trkpt lat="48.69501" lon="1.91808">
        <ele>164.4</ele>
        <time>2026-03-29T13:29:27Z</time>
      </trkpt>
      <trkpt lat="48.69502" lon="1.9181">
        <ele>164.4</ele>
        <time>2026-03-29T13:29:28Z</time>
      </trkpt>
      <trkpt lat="48.69502" lon="1.91812">
        <ele>164.8</ele>
        <time>2026-03-29T13:29:29Z</time>
      </trkpt>
      <trkpt lat="48.69503" lon="1.91814">
        <ele>165.2</ele>
        <time>2026-03-29T13:29:30Z</time>
      </trkpt>
      <trkpt lat="48.69504" lon="1.91816">
        <ele>165.2</ele>
        <time>2026-03-29T13:29:31Z</time>
      </trkpt>
      <trkpt lat="48.69505" lon="1.91818">
        <ele>165.2</ele>
        <time>2026-03-29T13:29:32Z</time>
      </trkpt>
      <trkpt lat="48.69506" lon="1.9182">
        <ele>166</ele>
        <time>2026-03-29T13:29:33Z</time>
      </trkpt>
      <trkpt lat="48.69508" lon="1.91823">
        <ele>166</ele>
        <time>2026-03-29T13:29:34Z</time>
      </trkpt>
      <trkpt lat="48.69509" lon="1.91825">
        <ele>166</ele>
        <time>2026-03-29T13:29:35Z</time>
      </trkpt>
      <trkpt lat="48.6951" lon="1.91827">
        <ele>166</ele>
        <time>2026-03-29T13:29:36Z</time>
      </trkpt>
      <trkpt lat="48.69511" lon="1.91829">
        <ele>166.8</ele>
        <time>2026-03-29T13:29:37Z</time>
      </trkpt>
      <trkpt lat="48.69511" lon="1.9183">
        <ele>166.8</ele>
        <time>2026-03-29T13:29:38Z</time>
      </trkpt>
      <trkpt lat="48.69512" lon="1.91832">
        <ele>166.8</ele>
        <time>2026-03-29T13:29:39Z</time>
      </trkpt>
      <trkpt lat="48.69514" lon="1.91834">
        <ele>166.8</ele>
        <time>2026-03-29T13:29:40Z</time>
      </trkpt>
      <trkpt lat="48.69515" lon="1.91836">
        <ele>167.6</ele>
        <time>2026-03-29T13:29:41Z</time>
      </trkpt>
      <trkpt lat="48.69516" lon="1.91838">
        <ele>167.8</ele>
        <time>2026-03-29T13:29:42Z</time>
      </trkpt>
      <trkpt lat="48.69516" lon="1.91839">
        <ele>167.8</ele>
        <time>2026-03-29T13:29:43Z</time>
      </trkpt>
      <trkpt lat="48.69517" lon="1.91841">
        <ele>167.8</ele>
        <time>2026-03-29T13:29:44Z</time>
      </trkpt>
      <trkpt lat="48.69518" lon="1.91842">
        <ele>167.8</ele>
        <time>2026-03-29T13:29:45Z</time>
      </trkpt>
      <trkpt lat="48.69519" lon="1.91844">
        <ele>168.6</ele>
        <time>2026-03-29T13:29:46Z</time>
      </trkpt>
      <trkpt lat="48.6952" lon="1.91847">
        <ele>168.6</ele>
        <time>2026-03-29T13:29:47Z</time>
      </trkpt>
      <trkpt lat="48.69521" lon="1.91848">
        <ele>168.6</ele>
        <time>2026-03-29T13:29:48Z</time>
      </trkpt>
      <trkpt lat="48.69523" lon="1.91851">
        <ele>168.6</ele>
        <time>2026-03-29T13:29:49Z</time>
      </trkpt>
      <trkpt lat="48.69525" lon="1.91854">
        <ele>168.8</ele>
        <time>2026-03-29T13:29:50Z</time>
      </trkpt>
      <trkpt lat="48.69526" lon="1.91856">
        <ele>168.8</ele>
        <time>2026-03-29T13:29:51Z</time>
      </trkpt>
      <trkpt lat="48.69528" lon="1.91857">
        <ele>168.8</ele>
        <time>2026-03-29T13:29:52Z</time>
      </trkpt>
      <trkpt lat="48.69528" lon="1.91859">
        <ele>169.6</ele>
        <time>2026-03-29T13:29:53Z</time>
      </trkpt>
      <trkpt lat="48.69529" lon="1.91861">
        <ele>169.8</ele>
        <time>2026-03-29T13:29:54Z</time>
      </trkpt>
      <trkpt lat="48.6953" lon="1.91863">
        <ele>169.8</ele>
        <time>2026-03-29T13:29:55Z</time>
      </trkpt>
      <trkpt lat="48.69531" lon="1.91865">
        <ele>169.8</ele>
        <time>2026-03-29T13:29:56Z</time>
      </trkpt>
      <trkpt lat="48.69532" lon="1.91866">
        <ele>170.6</ele>
        <time>2026-03-29T13:29:57Z</time>
      </trkpt>
      <trkpt lat="48.69533" lon="1.91868">
        <ele>170.8</ele>
        <time>2026-03-29T13:29:58Z</time>
      </trkpt>
      <trkpt lat="48.69534" lon="1.9187">
        <ele>170.8</ele>
        <time>2026-03-29T13:29:59Z</time>
      </trkpt>
      <trkpt lat="48.69536" lon="1.91872">
        <ele>170.8</ele>
        <time>2026-03-29T13:30:00Z</time>
      </trkpt>
      <trkpt lat="48.69537" lon="1.91874">
        <ele>171.6</ele>
        <time>2026-03-29T13:30:01Z</time>
      </trkpt>
      <trkpt lat="48.69537" lon="1.91876">
        <ele>171.6</ele>
        <time>2026-03-29T13:30:02Z</time>
      </trkpt>
      <trkpt lat="48.69538" lon="1.91877">
        <ele>171.6</ele>
        <time>2026-03-29T13:30:03Z</time>
      </trkpt>
      <trkpt lat="48.69539" lon="1.91879">
        <ele>171.6</ele>
        <time>2026-03-29T13:30:04Z</time>
      </trkpt>
      <trkpt lat="48.69539" lon="1.91881">
        <ele>172.2</ele>
        <time>2026-03-29T13:30:05Z</time>
      </trkpt>
      <trkpt lat="48.6954" lon="1.91882">
        <ele>172.8</ele>
        <time>2026-03-29T13:30:06Z</time>
      </trkpt>
      <trkpt lat="48.69541" lon="1.91884">
        <ele>172.8</ele>
        <time>2026-03-29T13:30:07Z</time>
      </trkpt>
      <trkpt lat="48.69542" lon="1.91886">
        <ele>172.8</ele>
        <time>2026-03-29T13:30:08Z</time>
      </trkpt>
      <trkpt lat="48.69543" lon="1.91888">
        <ele>173.6</ele>
        <time>2026-03-29T13:30:09Z</time>
      </trkpt>
      <trkpt lat="48.69544" lon="1.91889">
        <ele>174</ele>
        <time>2026-03-29T13:30:10Z</time>
      </trkpt>
      <trkpt lat="48.69545" lon="1.91891">
        <ele>174</ele>
        <time>2026-03-29T13:30:11Z</time>
      </trkpt>
      <trkpt lat="48.69546" lon="1.91893">
        <ele>174</ele>
        <time>2026-03-29T13:30:12Z</time>
      </trkpt>
      <trkpt lat="48.69546" lon="1.91895">
        <ele>174</ele>
        <time>2026-03-29T13:30:13Z</time>
      </trkpt>
      <trkpt lat="48.69547" lon="1.91896">
        <ele>174.6</ele>
        <time>2026-03-29T13:30:14Z</time>
      </trkpt>
      <trkpt lat="48.69548" lon="1.91898">
        <ele>174.6</ele>
        <time>2026-03-29T13:30:15Z</time>
      </trkpt>
      <trkpt lat="48.69549" lon="1.919">
        <ele>174.6</ele>
        <time>2026-03-29T13:30:16Z</time>
      </trkpt>
      <trkpt lat="48.6955" lon="1.91902">
        <ele>175.4</ele>
        <time>2026-03-29T13:30:17Z</time>
      </trkpt>
      <trkpt lat="48.69551" lon="1.91904">
        <ele>175.6</ele>
        <time>2026-03-29T13:30:18Z</time>
      </trkpt>
      <trkpt lat="48.69551" lon="1.91906">
        <ele>175.6</ele>
        <time>2026-03-29T13:30:19Z</time>
      </trkpt>
      <trkpt lat="48.69553" lon="1.91908">
        <ele>175.6</ele>
        <time>2026-03-29T13:30:20Z</time>
      </trkpt>
      <trkpt lat="48.69554" lon="1.9191">
        <ele>176.4</ele>
        <time>2026-03-29T13:30:21Z</time>
      </trkpt>
      <trkpt lat="48.69555" lon="1.91913">
        <ele>176.8</ele>
        <time>2026-03-29T13:30:22Z</time>
      </trkpt>
      <trkpt lat="48.69556" lon="1.91915">
        <ele>176.8</ele>
        <time>2026-03-29T13:30:23Z</time>
      </trkpt>
      <trkpt lat="48.69557" lon="1.91917">
        <ele>176.8</ele>
        <time>2026-03-29T13:30:24Z</time>
      </trkpt>
      <trkpt lat="48.69557" lon="1.91919">
        <ele>177.6</ele>
        <time>2026-03-29T13:30:25Z</time>
      </trkpt>
      <trkpt lat="48.69558" lon="1.9192">
        <ele>178</ele>
        <time>2026-03-29T13:30:26Z</time>
      </trkpt>
      <trkpt lat="48.69559" lon="1.91922">
        <ele>178</ele>
        <time>2026-03-29T13:30:27Z</time>
      </trkpt>
      <trkpt lat="48.69561" lon="1.91924">
        <ele>178</ele>
        <time>2026-03-29T13:30:28Z</time>
      </trkpt>
      <trkpt lat="48.69562" lon="1.91928">
        <ele>178.4</ele>
        <time>2026-03-29T13:30:29Z</time>
      </trkpt>
      <trkpt lat="48.69564" lon="1.9193">
        <ele>178.6</ele>
        <time>2026-03-29T13:30:30Z</time>
      </trkpt>
      <trkpt lat="48.69565" lon="1.91932">
        <ele>178.6</ele>
        <time>2026-03-29T13:30:31Z</time>
      </trkpt>
      <trkpt lat="48.69566" lon="1.91934">
        <ele>178.6</ele>
        <time>2026-03-29T13:30:32Z</time>
      </trkpt>
      <trkpt lat="48.69567" lon="1.91936">
        <ele>179</ele>
        <time>2026-03-29T13:30:33Z</time>
      </trkpt>
      <trkpt lat="48.69568" lon="1.91938">
        <ele>179.2</ele>
        <time>2026-03-29T13:30:34Z</time>
      </trkpt>
      <trkpt lat="48.6957" lon="1.9194">
        <ele>179.2</ele>
        <time>2026-03-29T13:30:35Z</time>
      </trkpt>
      <trkpt lat="48.69571" lon="1.91941">
        <ele>179.2</ele>
        <time>2026-03-29T13:30:36Z</time>
      </trkpt>
      <trkpt lat="48.69572" lon="1.91943">
        <ele>180.2</ele>
        <time>2026-03-29T13:30:37Z</time>
      </trkpt>
      <trkpt lat="48.69574" lon="1.91944">
        <ele>180.2</ele>
        <time>2026-03-29T13:30:38Z</time>
      </trkpt>
      <trkpt lat="48.69575" lon="1.91945">
        <ele>180.2</ele>
        <time>2026-03-29T13:30:39Z</time>
      </trkpt>
      <trkpt lat="48.69577" lon="1.91947">
        <ele>180.2</ele>
        <time>2026-03-29T13:30:40Z</time>
      </trkpt>
      <trkpt lat="48.69578" lon="1.9195">
        <ele>180.2</ele>
        <time>2026-03-29T13:30:41Z</time>
      </trkpt>
      <trkpt lat="48.6958" lon="1.91952">
        <ele>180.6</ele>
        <time>2026-03-29T13:30:42Z</time>
      </trkpt>
      <trkpt lat="48.69581" lon="1.91954">
        <ele>180.6</ele>
        <time>2026-03-29T13:30:43Z</time>
      </trkpt>
      <trkpt lat="48.69582" lon="1.91956">
        <ele>180.6</ele>
        <time>2026-03-29T13:30:44Z</time>
      </trkpt>
      <trkpt lat="48.69584" lon="1.91958">
        <ele>180.2</ele>
        <time>2026-03-29T13:30:45Z</time>
      </trkpt>
      <trkpt lat="48.69585" lon="1.9196">
        <ele>180.8</ele>
        <time>2026-03-29T13:30:46Z</time>
      </trkpt>
      <trkpt lat="48.69586" lon="1.91962">
        <ele>180.8</ele>
        <time>2026-03-29T13:30:47Z</time>
      </trkpt>
      <trkpt lat="48.69587" lon="1.91963">
        <ele>180.8</ele>
        <time>2026-03-29T13:30:48Z</time>
      </trkpt>
      <trkpt lat="48.69587" lon="1.91965">
        <ele>181</ele>
        <time>2026-03-29T13:30:49Z</time>
      </trkpt>
      <trkpt lat="48.69588" lon="1.91966">
        <ele>180.8</ele>
        <time>2026-03-29T13:30:50Z</time>
      </trkpt>
      <trkpt lat="48.69588" lon="1.91968">
        <ele>180.8</ele>
        <time>2026-03-29T13:30:51Z</time>
      </trkpt>
      <trkpt lat="48.69589" lon="1.9197">
        <ele>180.8</ele>
        <time>2026-03-29T13:30:52Z</time>
      </trkpt>
      <trkpt lat="48.6959" lon="1.91971">
        <ele>180.8</ele>
        <time>2026-03-29T13:30:53Z</time>
      </trkpt>
      <trkpt lat="48.6959" lon="1.91972">
        <ele>181</ele>
        <time>2026-03-29T13:30:54Z</time>
      </trkpt>
      <trkpt lat="48.69591" lon="1.91973">
        <ele>181</ele>
        <time>2026-03-29T13:30:55Z</time>
      </trkpt>
      <trkpt lat="48.69592" lon="1.91974">
        <ele>181</ele>
        <time>2026-03-29T13:30:56Z</time>
      </trkpt>
      <trkpt lat="48.69594" lon="1.91976">
        <ele>181.2</ele>
        <time>2026-03-29T13:30:57Z</time>
      </trkpt>
      <trkpt lat="48.69595" lon="1.91976">
        <ele>181.6</ele>
        <time>2026-03-29T13:30:58Z</time>
      </trkpt>
      <trkpt lat="48.69596" lon="1.91977">
        <ele>181.6</ele>
        <time>2026-03-29T13:30:59Z</time>
      </trkpt>
      <trkpt lat="48.69598" lon="1.91978">
        <ele>181.6</ele>
        <time>2026-03-29T13:31:00Z</time>
      </trkpt>
      <trkpt lat="48.69599" lon="1.9198">
        <ele>181.6</ele>
        <time>2026-03-29T13:31:01Z</time>
      </trkpt>
      <trkpt lat="48.696" lon="1.91982">
        <ele>181.6</ele>
        <time>2026-03-29T13:31:02Z</time>
      </trkpt>
      <trkpt lat="48.69602" lon="1.91983">
        <ele>181.6</ele>
        <time>2026-03-29T13:31:03Z</time>
      </trkpt>
      <trkpt lat="48.69603" lon="1.91984">
        <ele>181.6</ele>
        <time>2026-03-29T13:31:04Z</time>
      </trkpt>
      <trkpt lat="48.69605" lon="1.91986">
        <ele>181.8</ele>
        <time>2026-03-29T13:31:05Z</time>
      </trkpt>
      <trkpt lat="48.69607" lon="1.91988">
        <ele>182.6</ele>
        <time>2026-03-29T13:31:06Z</time>
      </trkpt>
      <trkpt lat="48.69608" lon="1.91989">
        <ele>182.6</ele>
        <time>2026-03-29T13:31:07Z</time>
      </trkpt>
      <trkpt lat="48.6961" lon="1.9199">
        <ele>182.6</ele>
        <time>2026-03-29T13:31:08Z</time>
      </trkpt>
      <trkpt lat="48.69611" lon="1.9199">
        <ele>182.6</ele>
        <time>2026-03-29T13:31:09Z</time>
      </trkpt>
      <trkpt lat="48.69613" lon="1.91991">
        <ele>182.8</ele>
        <time>2026-03-29T13:31:10Z</time>
      </trkpt>
      <trkpt lat="48.69614" lon="1.91992">
        <ele>182.8</ele>
        <time>2026-03-29T13:31:11Z</time>
      </trkpt>
      <trkpt lat="48.69616" lon="1.91993">
        <ele>182.8</ele>
        <time>2026-03-29T13:31:12Z</time>
      </trkpt>
      <trkpt lat="48.69618" lon="1.91994">
        <ele>182.8</ele>
        <time>2026-03-29T13:31:13Z</time>
      </trkpt>
      <trkpt lat="48.69619" lon="1.91995">
        <ele>183.4</ele>
        <time>2026-03-29T13:31:14Z</time>
      </trkpt>
      <trkpt lat="48.69621" lon="1.91997">
        <ele>183.4</ele>
        <time>2026-03-29T13:31:15Z</time>
      </trkpt>
      <trkpt lat="48.69623" lon="1.91999">
        <ele>183.4</ele>
        <time>2026-03-29T13:31:16Z</time>
      </trkpt>
      <trkpt lat="48.69625" lon="1.92">
        <ele>183.4</ele>
        <time>2026-03-29T13:31:17Z</time>
      </trkpt>
      <trkpt lat="48.69626" lon="1.92002">
        <ele>183.4</ele>
        <time>2026-03-29T13:31:18Z</time>
      </trkpt>
      <trkpt lat="48.69628" lon="1.92003">
        <ele>183.4</ele>
        <time>2026-03-29T13:31:19Z</time>
      </trkpt>
      <trkpt lat="48.6963" lon="1.92004">
        <ele>183.4</ele>
        <time>2026-03-29T13:31:20Z</time>
      </trkpt>
      <trkpt lat="48.69631" lon="1.92006">
        <ele>184.2</ele>
        <time>2026-03-29T13:31:21Z</time>
      </trkpt>
      <trkpt lat="48.69633" lon="1.92007">
        <ele>184.4</ele>
        <time>2026-03-29T13:31:22Z</time>
      </trkpt>
      <trkpt lat="48.69635" lon="1.92007">
        <ele>184.4</ele>
        <time>2026-03-29T13:31:23Z</time>
      </trkpt>
      <trkpt lat="48.69636" lon="1.92008">
        <ele>184.4</ele>
        <time>2026-03-29T13:31:24Z</time>
      </trkpt>
      <trkpt lat="48.69638" lon="1.92009">
        <ele>184.4</ele>
        <time>2026-03-29T13:31:25Z</time>
      </trkpt>
      <trkpt lat="48.69639" lon="1.9201">
        <ele>184.4</ele>
        <time>2026-03-29T13:31:26Z</time>
      </trkpt>
      <trkpt lat="48.69641" lon="1.92011">
        <ele>184.4</ele>
        <time>2026-03-29T13:31:27Z</time>
      </trkpt>
      <trkpt lat="48.69643" lon="1.92012">
        <ele>184.4</ele>
        <time>2026-03-29T13:31:28Z</time>
      </trkpt>
      <trkpt lat="48.69645" lon="1.92013">
        <ele>184.8</ele>
        <time>2026-03-29T13:31:29Z</time>
      </trkpt>
      <trkpt lat="48.69646" lon="1.92014">
        <ele>185.2</ele>
        <time>2026-03-29T13:31:30Z</time>
      </trkpt>
      <trkpt lat="48.69647" lon="1.92015">
        <ele>185.2</ele>
        <time>2026-03-29T13:31:31Z</time>
      </trkpt>
      <trkpt lat="48.69649" lon="1.92016">
        <ele>185.2</ele>
        <time>2026-03-29T13:31:32Z</time>
      </trkpt>
      <trkpt lat="48.6965" lon="1.92017">
        <ele>186.2</ele>
        <time>2026-03-29T13:31:33Z</time>
      </trkpt>
      <trkpt lat="48.69652" lon="1.92018">
        <ele>186</ele>
        <time>2026-03-29T13:31:34Z</time>
      </trkpt>
      <trkpt lat="48.69653" lon="1.92019">
        <ele>186</ele>
        <time>2026-03-29T13:31:35Z</time>
      </trkpt>
      <trkpt lat="48.69655" lon="1.9202">
        <ele>186</ele>
        <time>2026-03-29T13:31:36Z</time>
      </trkpt>
      <trkpt lat="48.69656" lon="1.92021">
        <ele>186.6</ele>
        <time>2026-03-29T13:31:37Z</time>
      </trkpt>
      <trkpt lat="48.69658" lon="1.92023">
        <ele>186.6</ele>
        <time>2026-03-29T13:31:38Z</time>
      </trkpt>
      <trkpt lat="48.69659" lon="1.92025">
        <ele>186.6</ele>
        <time>2026-03-29T13:31:39Z</time>
      </trkpt>
      <trkpt lat="48.69661" lon="1.92025">
        <ele>186.6</ele>
        <time>2026-03-29T13:31:40Z</time>
      </trkpt>
      <trkpt lat="48.69663" lon="1.92026">
        <ele>187</ele>
        <time>2026-03-29T13:31:41Z</time>
      </trkpt>
      <trkpt lat="48.69664" lon="1.92027">
        <ele>187.6</ele>
        <time>2026-03-29T13:31:42Z</time>
      </trkpt>
      <trkpt lat="48.69666" lon="1.92028">
        <ele>187.6</ele>
        <time>2026-03-29T13:31:43Z</time>
      </trkpt>
      <trkpt lat="48.69668" lon="1.92029">
        <ele>187.6</ele>
        <time>2026-03-29T13:31:44Z</time>
      </trkpt>
      <trkpt lat="48.69668" lon="1.9203">
        <ele>187.6</ele>
        <time>2026-03-29T13:31:45Z</time>
      </trkpt>
      <trkpt lat="48.6967" lon="1.9203">
        <ele>188</ele>
        <time>2026-03-29T13:31:46Z</time>
      </trkpt>
      <trkpt lat="48.69672" lon="1.92031">
        <ele>188</ele>
        <time>2026-03-29T13:31:47Z</time>
      </trkpt>
      <trkpt lat="48.69674" lon="1.92031">
        <ele>188</ele>
        <time>2026-03-29T13:31:48Z</time>
      </trkpt>
      <trkpt lat="48.69676" lon="1.92032">
        <ele>188</ele>
        <time>2026-03-29T13:31:49Z</time>
      </trkpt>
      <trkpt lat="48.69678" lon="1.92033">
        <ele>188.4</ele>
        <time>2026-03-29T13:31:50Z</time>
      </trkpt>
      <trkpt lat="48.69679" lon="1.92034">
        <ele>188.4</ele>
        <time>2026-03-29T13:31:51Z</time>
      </trkpt>
      <trkpt lat="48.69681" lon="1.92035">
        <ele>188.4</ele>
        <time>2026-03-29T13:31:52Z</time>
      </trkpt>
      <trkpt lat="48.69682" lon="1.92036">
        <ele>188.4</ele>
        <time>2026-03-29T13:31:53Z</time>
      </trkpt>
      <trkpt lat="48.69683" lon="1.92037">
        <ele>188.4</ele>
        <time>2026-03-29T13:31:54Z</time>
      </trkpt>
      <trkpt lat="48.69685" lon="1.92038">
        <ele>188.4</ele>
        <time>2026-03-29T13:31:55Z</time>
      </trkpt>
      <trkpt lat="48.69687" lon="1.92039">
        <ele>188.4</ele>
        <time>2026-03-29T13:31:56Z</time>
      </trkpt>
      <trkpt lat="48.69689" lon="1.92041">
        <ele>189.2</ele>
        <time>2026-03-29T13:31:57Z</time>
      </trkpt>
      <trkpt lat="48.69691" lon="1.92043">
        <ele>189.6</ele>
        <time>2026-03-29T13:31:58Z</time>
      </trkpt>
      <trkpt lat="48.69693" lon="1.92045">
        <ele>189.6</ele>
        <time>2026-03-29T13:31:59Z</time>
      </trkpt>
      <trkpt lat="48.69695" lon="1.92046">
        <ele>189.6</ele>
        <time>2026-03-29T13:32:00Z</time>
      </trkpt>
      <trkpt lat="48.69696" lon="1.92047">
        <ele>189.6</ele>
        <time>2026-03-29T13:32:01Z</time>
      </trkpt>
      <trkpt lat="48.69699" lon="1.92049">
        <ele>189.4</ele>
        <time>2026-03-29T13:32:02Z</time>
      </trkpt>
      <trkpt lat="48.69701" lon="1.9205">
        <ele>189.4</ele>
        <time>2026-03-29T13:32:03Z</time>
      </trkpt>
      <trkpt lat="48.69703" lon="1.92052">
        <ele>189.4</ele>
        <time>2026-03-29T13:32:04Z</time>
      </trkpt>
      <trkpt lat="48.69705" lon="1.92053">
        <ele>189.4</ele>
        <time>2026-03-29T13:32:05Z</time>
      </trkpt>
      <trkpt lat="48.69707" lon="1.92053">
        <ele>189.8</ele>
        <time>2026-03-29T13:32:06Z</time>
      </trkpt>
      <trkpt lat="48.69709" lon="1.92054">
        <ele>189.8</ele>
        <time>2026-03-29T13:32:07Z</time>
      </trkpt>
      <trkpt lat="48.69711" lon="1.92056">
        <ele>189.8</ele>
        <time>2026-03-29T13:32:08Z</time>
      </trkpt>
      <trkpt lat="48.69713" lon="1.92057">
        <ele>189.8</ele>
        <time>2026-03-29T13:32:09Z</time>
      </trkpt>
      <trkpt lat="48.69715" lon="1.92059">
        <ele>189.8</ele>
        <time>2026-03-29T13:32:10Z</time>
      </trkpt>
      <trkpt lat="48.69717" lon="1.92061">
        <ele>189.8</ele>
        <time>2026-03-29T13:32:11Z</time>
      </trkpt>
      <trkpt lat="48.69719" lon="1.92063">
        <ele>189.8</ele>
        <time>2026-03-29T13:32:12Z</time>
      </trkpt>
      <trkpt lat="48.69722" lon="1.92065">
        <ele>190</ele>
        <time>2026-03-29T13:32:13Z</time>
      </trkpt>
      <trkpt lat="48.69725" lon="1.92067">
        <ele>190.4</ele>
        <time>2026-03-29T13:32:14Z</time>
      </trkpt>
      <trkpt lat="48.69728" lon="1.92071">
        <ele>190.4</ele>
        <time>2026-03-29T13:32:15Z</time>
      </trkpt>
      <trkpt lat="48.69731" lon="1.92073">
        <ele>190.4</ele>
        <time>2026-03-29T13:32:16Z</time>
      </trkpt>
      <trkpt lat="48.69733" lon="1.92074">
        <ele>190.4</ele>
        <time>2026-03-29T13:32:17Z</time>
      </trkpt>
      <trkpt lat="48.69737" lon="1.92077">
        <ele>190</ele>
        <time>2026-03-29T13:32:18Z</time>
      </trkpt>
      <trkpt lat="48.69739" lon="1.92079">
        <ele>190</ele>
        <time>2026-03-29T13:32:19Z</time>
      </trkpt>
      <trkpt lat="48.69742" lon="1.9208">
        <ele>190</ele>
        <time>2026-03-29T13:32:20Z</time>
      </trkpt>
      <trkpt lat="48.69744" lon="1.92083">
        <ele>190.8</ele>
        <time>2026-03-29T13:32:21Z</time>
      </trkpt>
      <trkpt lat="48.69746" lon="1.92084">
        <ele>190.8</ele>
        <time>2026-03-29T13:32:22Z</time>
      </trkpt>
      <trkpt lat="48.69748" lon="1.92085">
        <ele>190.8</ele>
        <time>2026-03-29T13:32:23Z</time>
      </trkpt>
      <trkpt lat="48.6975" lon="1.92086">
        <ele>190.8</ele>
        <time>2026-03-29T13:32:24Z</time>
      </trkpt>
      <trkpt lat="48.69751" lon="1.92088">
        <ele>190.8</ele>
        <time>2026-03-29T13:32:25Z</time>
      </trkpt>
      <trkpt lat="48.69754" lon="1.92089">
        <ele>190.8</ele>
        <time>2026-03-29T13:32:26Z</time>
      </trkpt>
      <trkpt lat="48.69756" lon="1.92091">
        <ele>190.8</ele>
        <time>2026-03-29T13:32:27Z</time>
      </trkpt>
      <trkpt lat="48.69759" lon="1.92093">
        <ele>190.8</ele>
        <time>2026-03-29T13:32:28Z</time>
      </trkpt>
      <trkpt lat="48.69762" lon="1.92095">
        <ele>191</ele>
        <time>2026-03-29T13:32:29Z</time>
      </trkpt>
      <trkpt lat="48.69765" lon="1.92097">
        <ele>191</ele>
        <time>2026-03-29T13:32:30Z</time>
      </trkpt>
      <trkpt lat="48.69767" lon="1.92098">
        <ele>191</ele>
        <time>2026-03-29T13:32:31Z</time>
      </trkpt>
      <trkpt lat="48.69769" lon="1.921">
        <ele>191</ele>
        <time>2026-03-29T13:32:32Z</time>
      </trkpt>
      <trkpt lat="48.69772" lon="1.92101">
        <ele>191</ele>
        <time>2026-03-29T13:32:33Z</time>
      </trkpt>
      <trkpt lat="48.69775" lon="1.92102">
        <ele>191.2</ele>
        <time>2026-03-29T13:32:34Z</time>
      </trkpt>
      <trkpt lat="48.69777" lon="1.92104">
        <ele>191.2</ele>
        <time>2026-03-29T13:32:35Z</time>
      </trkpt>
      <trkpt lat="48.6978" lon="1.92106">
        <ele>191.2</ele>
        <time>2026-03-29T13:32:36Z</time>
      </trkpt>
      <trkpt lat="48.69781" lon="1.92109">
        <ele>191.2</ele>
        <time>2026-03-29T13:32:37Z</time>
      </trkpt>
      <trkpt lat="48.69781" lon="1.92113">
        <ele>191</ele>
        <time>2026-03-29T13:32:38Z</time>
      </trkpt>
      <trkpt lat="48.69779" lon="1.92114">
        <ele>191</ele>
        <time>2026-03-29T13:32:39Z</time>
      </trkpt>
      <trkpt lat="48.69777" lon="1.92115">
        <ele>191</ele>
        <time>2026-03-29T13:32:40Z</time>
      </trkpt>
      <trkpt lat="48.69774" lon="1.92116">
        <ele>190.8</ele>
        <time>2026-03-29T13:32:41Z</time>
      </trkpt>
      <trkpt lat="48.69771" lon="1.92117">
        <ele>190.4</ele>
        <time>2026-03-29T13:32:42Z</time>
      </trkpt>
      <trkpt lat="48.69769" lon="1.92119">
        <ele>190.4</ele>
        <time>2026-03-29T13:32:43Z</time>
      </trkpt>
      <trkpt lat="48.69765" lon="1.92121">
        <ele>190.4</ele>
        <time>2026-03-29T13:32:44Z</time>
      </trkpt>
      <trkpt lat="48.69761" lon="1.92123">
        <ele>190.8</ele>
        <time>2026-03-29T13:32:45Z</time>
      </trkpt>
      <trkpt lat="48.69757" lon="1.92126">
        <ele>190.4</ele>
        <time>2026-03-29T13:32:46Z</time>
      </trkpt>
      <trkpt lat="48.69753" lon="1.92128">
        <ele>190.4</ele>
        <time>2026-03-29T13:32:47Z</time>
      </trkpt>
      <trkpt lat="48.6975" lon="1.9213">
        <ele>190.4</ele>
        <time>2026-03-29T13:32:48Z</time>
      </trkpt>
      <trkpt lat="48.69745" lon="1.92132">
        <ele>190.4</ele>
        <time>2026-03-29T13:32:49Z</time>
      </trkpt>
      <trkpt lat="48.6974" lon="1.92133">
        <ele>190.8</ele>
        <time>2026-03-29T13:32:50Z</time>
      </trkpt>
      <trkpt lat="48.69736" lon="1.92135">
        <ele>190.8</ele>
        <time>2026-03-29T13:32:51Z</time>
      </trkpt>
      <trkpt lat="48.69731" lon="1.92138">
        <ele>190.8</ele>
        <time>2026-03-29T13:32:52Z</time>
      </trkpt>
      <trkpt lat="48.69727" lon="1.92142">
        <ele>190.8</ele>
        <time>2026-03-29T13:32:53Z</time>
      </trkpt>
      <trkpt lat="48.69723" lon="1.92146">
        <ele>190.4</ele>
        <time>2026-03-29T13:32:54Z</time>
      </trkpt>
      <trkpt lat="48.6972" lon="1.92151">
        <ele>190.4</ele>
        <time>2026-03-29T13:32:55Z</time>
      </trkpt>
      <trkpt lat="48.69717" lon="1.92156">
        <ele>190.4</ele>
        <time>2026-03-29T13:32:56Z</time>
      </trkpt>
      <trkpt lat="48.69716" lon="1.92163">
        <ele>190.6</ele>
        <time>2026-03-29T13:32:57Z</time>
      </trkpt>
      <trkpt lat="48.69716" lon="1.92171">
        <ele>190.6</ele>
        <time>2026-03-29T13:32:58Z</time>
      </trkpt>
      <trkpt lat="48.69718" lon="1.92178">
        <ele>190.6</ele>
        <time>2026-03-29T13:32:59Z</time>
      </trkpt>
      <trkpt lat="48.69719" lon="1.92184">
        <ele>190.6</ele>
        <time>2026-03-29T13:33:00Z</time>
      </trkpt>
      <trkpt lat="48.6972" lon="1.9219">
        <ele>190.6</ele>
        <time>2026-03-29T13:33:01Z</time>
      </trkpt>
      <trkpt lat="48.69721" lon="1.92197">
        <ele>190.8</ele>
        <time>2026-03-29T13:33:02Z</time>
      </trkpt>
      <trkpt lat="48.69721" lon="1.92204">
        <ele>190.8</ele>
        <time>2026-03-29T13:33:03Z</time>
      </trkpt>
      <trkpt lat="48.69721" lon="1.92211">
        <ele>190.8</ele>
        <time>2026-03-29T13:33:04Z</time>
      </trkpt>
      <trkpt lat="48.6972" lon="1.92216">
        <ele>190.8</ele>
        <time>2026-03-29T13:33:05Z</time>
      </trkpt>
      <trkpt lat="48.69719" lon="1.9222">
        <ele>190.4</ele>
        <time>2026-03-29T13:33:06Z</time>
      </trkpt>
      <trkpt lat="48.69717" lon="1.92226">
        <ele>190.4</ele>
        <time>2026-03-29T13:33:07Z</time>
      </trkpt>
      <trkpt lat="48.69714" lon="1.92232">
        <ele>190.4</ele>
        <time>2026-03-29T13:33:08Z</time>
      </trkpt>
      <trkpt lat="48.69711" lon="1.92238">
        <ele>190.8</ele>
        <time>2026-03-29T13:33:09Z</time>
      </trkpt>
      <trkpt lat="48.69709" lon="1.92244">
        <ele>191</ele>
        <time>2026-03-29T13:33:10Z</time>
      </trkpt>
      <trkpt lat="48.69707" lon="1.92251">
        <ele>191</ele>
        <time>2026-03-29T13:33:11Z</time>
      </trkpt>
      <trkpt lat="48.69706" lon="1.92256">
        <ele>191</ele>
        <time>2026-03-29T13:33:12Z</time>
      </trkpt>
      <trkpt lat="48.69704" lon="1.92263">
        <ele>190.8</ele>
        <time>2026-03-29T13:33:13Z</time>
      </trkpt>
      <trkpt lat="48.69702" lon="1.9227">
        <ele>190.8</ele>
        <time>2026-03-29T13:33:14Z</time>
      </trkpt>
      <trkpt lat="48.69699" lon="1.92278">
        <ele>190.8</ele>
        <time>2026-03-29T13:33:15Z</time>
      </trkpt>
      <trkpt lat="48.69696" lon="1.92285">
        <ele>190.8</ele>
        <time>2026-03-29T13:33:16Z</time>
      </trkpt>
      <trkpt lat="48.69695" lon="1.92292">
        <ele>190.8</ele>
        <time>2026-03-29T13:33:17Z</time>
      </trkpt>
      <trkpt lat="48.69694" lon="1.923">
        <ele>190.8</ele>
        <time>2026-03-29T13:33:18Z</time>
      </trkpt>
      <trkpt lat="48.69693" lon="1.92308">
        <ele>190.8</ele>
        <time>2026-03-29T13:33:19Z</time>
      </trkpt>
      <trkpt lat="48.69691" lon="1.92315">
        <ele>190.8</ele>
        <time>2026-03-29T13:33:20Z</time>
      </trkpt>
      <trkpt lat="48.6969" lon="1.92321">
        <ele>190.8</ele>
        <time>2026-03-29T13:33:21Z</time>
      </trkpt>
      <trkpt lat="48.69689" lon="1.92328">
        <ele>191.2</ele>
        <time>2026-03-29T13:33:22Z</time>
      </trkpt>
      <trkpt lat="48.69686" lon="1.92334">
        <ele>191.2</ele>
        <time>2026-03-29T13:33:23Z</time>
      </trkpt>
      <trkpt lat="48.69683" lon="1.92339">
        <ele>191.2</ele>
        <time>2026-03-29T13:33:24Z</time>
      </trkpt>
      <trkpt lat="48.69679" lon="1.92343">
        <ele>191.2</ele>
        <time>2026-03-29T13:33:25Z</time>
      </trkpt>
      <trkpt lat="48.69675" lon="1.92347">
        <ele>191.2</ele>
        <time>2026-03-29T13:33:26Z</time>
      </trkpt>
      <trkpt lat="48.69672" lon="1.92351">
        <ele>191.2</ele>
        <time>2026-03-29T13:33:27Z</time>
      </trkpt>
      <trkpt lat="48.69669" lon="1.92356">
        <ele>191.2</ele>
        <time>2026-03-29T13:33:28Z</time>
      </trkpt>
      <trkpt lat="48.69665" lon="1.92362">
        <ele>191.2</ele>
        <time>2026-03-29T13:33:29Z</time>
      </trkpt>
      <trkpt lat="48.69661" lon="1.92366">
        <ele>191.4</ele>
        <time>2026-03-29T13:33:30Z</time>
      </trkpt>
      <trkpt lat="48.69658" lon="1.92371">
        <ele>191.4</ele>
        <time>2026-03-29T13:33:31Z</time>
      </trkpt>
      <trkpt lat="48.69655" lon="1.92377">
        <ele>191.4</ele>
        <time>2026-03-29T13:33:32Z</time>
      </trkpt>
      <trkpt lat="48.69652" lon="1.92383">
        <ele>191.6</ele>
        <time>2026-03-29T13:33:33Z</time>
      </trkpt>
      <trkpt lat="48.69649" lon="1.9239">
        <ele>192</ele>
        <time>2026-03-29T13:33:34Z</time>
      </trkpt>
      <trkpt lat="48.69647" lon="1.92396">
        <ele>192</ele>
        <time>2026-03-29T13:33:35Z</time>
      </trkpt>
      <trkpt lat="48.69645" lon="1.92403">
        <ele>192</ele>
        <time>2026-03-29T13:33:36Z</time>
      </trkpt>
      <trkpt lat="48.69643" lon="1.92411">
        <ele>192</ele>
        <time>2026-03-29T13:33:37Z</time>
      </trkpt>
      <trkpt lat="48.69642" lon="1.92417">
        <ele>192</ele>
        <time>2026-03-29T13:33:38Z</time>
      </trkpt>
      <trkpt lat="48.69641" lon="1.92423">
        <ele>192</ele>
        <time>2026-03-29T13:33:39Z</time>
      </trkpt>
      <trkpt lat="48.6964" lon="1.92431">
        <ele>192</ele>
        <time>2026-03-29T13:33:40Z</time>
      </trkpt>
      <trkpt lat="48.69638" lon="1.92438">
        <ele>191.2</ele>
        <time>2026-03-29T13:33:41Z</time>
      </trkpt>
      <trkpt lat="48.69636" lon="1.92443">
        <ele>191.6</ele>
        <time>2026-03-29T13:33:42Z</time>
      </trkpt>
      <trkpt lat="48.69634" lon="1.9245">
        <ele>191.6</ele>
        <time>2026-03-29T13:33:43Z</time>
      </trkpt>
      <trkpt lat="48.69632" lon="1.92456">
        <ele>191.6</ele>
        <time>2026-03-29T13:33:44Z</time>
      </trkpt>
      <trkpt lat="48.69629" lon="1.92464">
        <ele>190.8</ele>
        <time>2026-03-29T13:33:45Z</time>
      </trkpt>
      <trkpt lat="48.69627" lon="1.9247">
        <ele>191</ele>
        <time>2026-03-29T13:33:46Z</time>
      </trkpt>
      <trkpt lat="48.69625" lon="1.92476">
        <ele>191</ele>
        <time>2026-03-29T13:33:47Z</time>
      </trkpt>
      <trkpt lat="48.69623" lon="1.92484">
        <ele>191</ele>
        <time>2026-03-29T13:33:48Z</time>
      </trkpt>
      <trkpt lat="48.6962" lon="1.9249">
        <ele>191</ele>
        <time>2026-03-29T13:33:49Z</time>
      </trkpt>
      <trkpt lat="48.69619" lon="1.92497">
        <ele>190.8</ele>
        <time>2026-03-29T13:33:50Z</time>
      </trkpt>
      <trkpt lat="48.69616" lon="1.92502">
        <ele>190.8</ele>
        <time>2026-03-29T13:33:51Z</time>
      </trkpt>
      <trkpt lat="48.69612" lon="1.9251">
        <ele>190.8</ele>
        <time>2026-03-29T13:33:52Z</time>
      </trkpt>
      <trkpt lat="48.69608" lon="1.92518">
        <ele>190.8</ele>
        <time>2026-03-29T13:33:53Z</time>
      </trkpt>
      <trkpt lat="48.69606" lon="1.92527">
        <ele>190.6</ele>
        <time>2026-03-29T13:33:54Z</time>
      </trkpt>
      <trkpt lat="48.69603" lon="1.92535">
        <ele>190.6</ele>
        <time>2026-03-29T13:33:55Z</time>
      </trkpt>
      <trkpt lat="48.696" lon="1.92544">
        <ele>190.6</ele>
        <time>2026-03-29T13:33:56Z</time>
      </trkpt>
      <trkpt lat="48.69597" lon="1.92551">
        <ele>190.6</ele>
        <time>2026-03-29T13:33:57Z</time>
      </trkpt>
      <trkpt lat="48.69594" lon="1.92559">
        <ele>190.6</ele>
        <time>2026-03-29T13:33:58Z</time>
      </trkpt>
      <trkpt lat="48.69591" lon="1.92566">
        <ele>190.6</ele>
        <time>2026-03-29T13:33:59Z</time>
      </trkpt>
      <trkpt lat="48.69588" lon="1.92572">
        <ele>190.6</ele>
        <time>2026-03-29T13:34:00Z</time>
      </trkpt>
      <trkpt lat="48.69585" lon="1.92578">
        <ele>190.6</ele>
        <time>2026-03-29T13:34:01Z</time>
      </trkpt>
      <trkpt lat="48.69581" lon="1.92584">
        <ele>191.4</ele>
        <time>2026-03-29T13:34:02Z</time>
      </trkpt>
      <trkpt lat="48.69576" lon="1.9259">
        <ele>191.4</ele>
        <time>2026-03-29T13:34:03Z</time>
      </trkpt>
      <trkpt lat="48.69572" lon="1.92596">
        <ele>191.4</ele>
        <time>2026-03-29T13:34:04Z</time>
      </trkpt>
      <trkpt lat="48.69567" lon="1.92601">
        <ele>191</ele>
        <time>2026-03-29T13:34:05Z</time>
      </trkpt>
      <trkpt lat="48.69563" lon="1.92607">
        <ele>191</ele>
        <time>2026-03-29T13:34:06Z</time>
      </trkpt>
      <trkpt lat="48.69559" lon="1.92614">
        <ele>191</ele>
        <time>2026-03-29T13:34:07Z</time>
      </trkpt>
      <trkpt lat="48.69556" lon="1.92621">
        <ele>191</ele>
        <time>2026-03-29T13:34:08Z</time>
      </trkpt>
      <trkpt lat="48.69553" lon="1.92628">
        <ele>191</ele>
        <time>2026-03-29T13:34:09Z</time>
      </trkpt>
      <trkpt lat="48.69549" lon="1.92633">
        <ele>191</ele>
        <time>2026-03-29T13:34:10Z</time>
      </trkpt>
      <trkpt lat="48.69545" lon="1.92639">
        <ele>191</ele>
        <time>2026-03-29T13:34:11Z</time>
      </trkpt>
      <trkpt lat="48.69542" lon="1.92645">
        <ele>191</ele>
        <time>2026-03-29T13:34:12Z</time>
      </trkpt>
      <trkpt lat="48.6954" lon="1.92651">
        <ele>190.8</ele>
        <time>2026-03-29T13:34:13Z</time>
      </trkpt>
      <trkpt lat="48.69537" lon="1.92658">
        <ele>190.4</ele>
        <time>2026-03-29T13:34:14Z</time>
      </trkpt>
      <trkpt lat="48.69537" lon="1.92663">
        <ele>190.4</ele>
        <time>2026-03-29T13:34:15Z</time>
      </trkpt>
      <trkpt lat="48.69535" lon="1.92669">
        <ele>190.4</ele>
        <time>2026-03-29T13:34:16Z</time>
      </trkpt>
      <trkpt lat="48.69533" lon="1.92676">
        <ele>190.6</ele>
        <time>2026-03-29T13:34:17Z</time>
      </trkpt>
      <trkpt lat="48.6953" lon="1.92685">
        <ele>190</ele>
        <time>2026-03-29T13:34:18Z</time>
      </trkpt>
      <trkpt lat="48.69527" lon="1.92693">
        <ele>190</ele>
        <time>2026-03-29T13:34:19Z</time>
      </trkpt>
      <trkpt lat="48.69522" lon="1.92701">
        <ele>190</ele>
        <time>2026-03-29T13:34:20Z</time>
      </trkpt>
      <trkpt lat="48.69518" lon="1.92708">
        <ele>190.4</ele>
        <time>2026-03-29T13:34:21Z</time>
      </trkpt>
      <trkpt lat="48.69515" lon="1.92716">
        <ele>190</ele>
        <time>2026-03-29T13:34:22Z</time>
      </trkpt>
      <trkpt lat="48.69513" lon="1.92722">
        <ele>190</ele>
        <time>2026-03-29T13:34:23Z</time>
      </trkpt>
      <trkpt lat="48.69511" lon="1.9273">
        <ele>190</ele>
        <time>2026-03-29T13:34:24Z</time>
      </trkpt>
      <trkpt lat="48.69508" lon="1.92738">
        <ele>190</ele>
        <time>2026-03-29T13:34:25Z</time>
      </trkpt>
      <trkpt lat="48.69506" lon="1.92744">
        <ele>190</ele>
        <time>2026-03-29T13:34:26Z</time>
      </trkpt>
      <trkpt lat="48.69502" lon="1.9275">
        <ele>190</ele>
        <time>2026-03-29T13:34:27Z</time>
      </trkpt>
      <trkpt lat="48.69498" lon="1.92755">
        <ele>190</ele>
        <time>2026-03-29T13:34:28Z</time>
      </trkpt>
      <trkpt lat="48.69493" lon="1.9276">
        <ele>190</ele>
        <time>2026-03-29T13:34:29Z</time>
      </trkpt>
      <trkpt lat="48.69489" lon="1.92763">
        <ele>190.4</ele>
        <time>2026-03-29T13:34:30Z</time>
      </trkpt>
      <trkpt lat="48.69486" lon="1.92768">
        <ele>190.4</ele>
        <time>2026-03-29T13:34:31Z</time>
      </trkpt>
      <trkpt lat="48.69482" lon="1.92773">
        <ele>190.4</ele>
        <time>2026-03-29T13:34:32Z</time>
      </trkpt>
      <trkpt lat="48.6948" lon="1.92779">
        <ele>190.4</ele>
        <time>2026-03-29T13:34:33Z</time>
      </trkpt>
      <trkpt lat="48.69477" lon="1.92788">
        <ele>191</ele>
        <time>2026-03-29T13:34:34Z</time>
      </trkpt>
      <trkpt lat="48.69476" lon="1.92795">
        <ele>191</ele>
        <time>2026-03-29T13:34:35Z</time>
      </trkpt>
      <trkpt lat="48.69475" lon="1.92804">
        <ele>191</ele>
        <time>2026-03-29T13:34:36Z</time>
      </trkpt>
      <trkpt lat="48.69473" lon="1.92813">
        <ele>191</ele>
        <time>2026-03-29T13:34:37Z</time>
      </trkpt>
      <trkpt lat="48.69471" lon="1.92821">
        <ele>191</ele>
        <time>2026-03-29T13:34:38Z</time>
      </trkpt>
      <trkpt lat="48.69469" lon="1.9283">
        <ele>191</ele>
        <time>2026-03-29T13:34:39Z</time>
      </trkpt>
      <trkpt lat="48.69467" lon="1.92837">
        <ele>191</ele>
        <time>2026-03-29T13:34:40Z</time>
      </trkpt>
      <trkpt lat="48.69464" lon="1.92844">
        <ele>191.2</ele>
        <time>2026-03-29T13:34:41Z</time>
      </trkpt>
      <trkpt lat="48.69461" lon="1.92851">
        <ele>191.4</ele>
        <time>2026-03-29T13:34:42Z</time>
      </trkpt>
      <trkpt lat="48.69458" lon="1.92858">
        <ele>191.4</ele>
        <time>2026-03-29T13:34:43Z</time>
      </trkpt>
      <trkpt lat="48.69455" lon="1.92864">
        <ele>191.4</ele>
        <time>2026-03-29T13:34:44Z</time>
      </trkpt>
      <trkpt lat="48.69451" lon="1.92871">
        <ele>191.4</ele>
        <time>2026-03-29T13:34:45Z</time>
      </trkpt>
      <trkpt lat="48.69449" lon="1.92876">
        <ele>191.4</ele>
        <time>2026-03-29T13:34:46Z</time>
      </trkpt>
      <trkpt lat="48.69445" lon="1.9288">
        <ele>191.4</ele>
        <time>2026-03-29T13:34:47Z</time>
      </trkpt>
      <trkpt lat="48.6944" lon="1.92886">
        <ele>191.4</ele>
        <time>2026-03-29T13:34:48Z</time>
      </trkpt>
      <trkpt lat="48.69435" lon="1.9289">
        <ele>191.2</ele>
        <time>2026-03-29T13:34:49Z</time>
      </trkpt>
      <trkpt lat="48.6943" lon="1.92892">
        <ele>191.6</ele>
        <time>2026-03-29T13:34:50Z</time>
      </trkpt>
      <trkpt lat="48.69424" lon="1.92892">
        <ele>191.6</ele>
        <time>2026-03-29T13:34:51Z</time>
      </trkpt>
      <trkpt lat="48.69419" lon="1.92891">
        <ele>191.6</ele>
        <time>2026-03-29T13:34:52Z</time>
      </trkpt>
      <trkpt lat="48.69414" lon="1.9289">
        <ele>191</ele>
        <time>2026-03-29T13:34:53Z</time>
      </trkpt>
      <trkpt lat="48.69409" lon="1.9289">
        <ele>190.8</ele>
        <time>2026-03-29T13:34:54Z</time>
      </trkpt>
      <trkpt lat="48.69405" lon="1.92893">
        <ele>190.8</ele>
        <time>2026-03-29T13:34:55Z</time>
      </trkpt>
      <trkpt lat="48.69402" lon="1.92898">
        <ele>190.8</ele>
        <time>2026-03-29T13:34:56Z</time>
      </trkpt>
      <trkpt lat="48.69398" lon="1.92905">
        <ele>190.8</ele>
        <time>2026-03-29T13:34:57Z</time>
      </trkpt>
      <trkpt lat="48.69395" lon="1.9291">
        <ele>191</ele>
        <time>2026-03-29T13:34:58Z</time>
      </trkpt>
      <trkpt lat="48.69391" lon="1.92914">
        <ele>191</ele>
        <time>2026-03-29T13:34:59Z</time>
      </trkpt>
      <trkpt lat="48.69386" lon="1.92917">
        <ele>191</ele>
        <time>2026-03-29T13:35:00Z</time>
      </trkpt>
      <trkpt lat="48.69381" lon="1.92919">
        <ele>191</ele>
        <time>2026-03-29T13:35:01Z</time>
      </trkpt>
      <trkpt lat="48.69376" lon="1.92921">
        <ele>191.2</ele>
        <time>2026-03-29T13:35:02Z</time>
      </trkpt>
      <trkpt lat="48.6937" lon="1.92924">
        <ele>191.2</ele>
        <time>2026-03-29T13:35:03Z</time>
      </trkpt>
      <trkpt lat="48.69365" lon="1.92928">
        <ele>191.2</ele>
        <time>2026-03-29T13:35:04Z</time>
      </trkpt>
      <trkpt lat="48.69362" lon="1.92932">
        <ele>191.2</ele>
        <time>2026-03-29T13:35:05Z</time>
      </trkpt>
      <trkpt lat="48.69358" lon="1.92937">
        <ele>190.8</ele>
        <time>2026-03-29T13:35:06Z</time>
      </trkpt>
      <trkpt lat="48.69354" lon="1.92943">
        <ele>190.8</ele>
        <time>2026-03-29T13:35:07Z</time>
      </trkpt>
      <trkpt lat="48.69351" lon="1.92949">
        <ele>190.8</ele>
        <time>2026-03-29T13:35:08Z</time>
      </trkpt>
      <trkpt lat="48.69347" lon="1.92951">
        <ele>190.8</ele>
        <time>2026-03-29T13:35:09Z</time>
      </trkpt>
      <trkpt lat="48.69341" lon="1.92953">
        <ele>191.6</ele>
        <time>2026-03-29T13:35:10Z</time>
      </trkpt>
      <trkpt lat="48.69336" lon="1.92955">
        <ele>191.6</ele>
        <time>2026-03-29T13:35:11Z</time>
      </trkpt>
      <trkpt lat="48.6933" lon="1.92957">
        <ele>191.6</ele>
        <time>2026-03-29T13:35:12Z</time>
      </trkpt>
      <trkpt lat="48.69324" lon="1.92959">
        <ele>191.6</ele>
        <time>2026-03-29T13:35:13Z</time>
      </trkpt>
      <trkpt lat="48.69318" lon="1.92962">
        <ele>191.6</ele>
        <time>2026-03-29T13:35:14Z</time>
      </trkpt>
      <trkpt lat="48.69312" lon="1.92963">
        <ele>191.6</ele>
        <time>2026-03-29T13:35:15Z</time>
      </trkpt>
      <trkpt lat="48.69305" lon="1.92963">
        <ele>191.6</ele>
        <time>2026-03-29T13:35:16Z</time>
      </trkpt>
      <trkpt lat="48.69298" lon="1.92962">
        <ele>191</ele>
        <time>2026-03-29T13:35:17Z</time>
      </trkpt>
      <trkpt lat="48.69292" lon="1.9296">
        <ele>190</ele>
        <time>2026-03-29T13:35:18Z</time>
      </trkpt>
      <trkpt lat="48.69285" lon="1.9296">
        <ele>190</ele>
        <time>2026-03-29T13:35:19Z</time>
      </trkpt>
      <trkpt lat="48.69279" lon="1.92964">
        <ele>190</ele>
        <time>2026-03-29T13:35:20Z</time>
      </trkpt>
      <trkpt lat="48.69272" lon="1.92969">
        <ele>191</ele>
        <time>2026-03-29T13:35:21Z</time>
      </trkpt>
      <trkpt lat="48.69267" lon="1.92975">
        <ele>191.4</ele>
        <time>2026-03-29T13:35:22Z</time>
      </trkpt>
      <trkpt lat="48.6926" lon="1.9298">
        <ele>191.4</ele>
        <time>2026-03-29T13:35:23Z</time>
      </trkpt>
      <trkpt lat="48.69254" lon="1.92984">
        <ele>191.4</ele>
        <time>2026-03-29T13:35:24Z</time>
      </trkpt>
      <trkpt lat="48.6925" lon="1.92989">
        <ele>191.4</ele>
        <time>2026-03-29T13:35:25Z</time>
      </trkpt>
      <trkpt lat="48.69245" lon="1.92992">
        <ele>191.2</ele>
        <time>2026-03-29T13:35:26Z</time>
      </trkpt>
      <trkpt lat="48.6924" lon="1.92996">
        <ele>191.2</ele>
        <time>2026-03-29T13:35:27Z</time>
      </trkpt>
      <trkpt lat="48.69234" lon="1.92999">
        <ele>191.2</ele>
        <time>2026-03-29T13:35:28Z</time>
      </trkpt>
      <trkpt lat="48.69228" lon="1.93002">
        <ele>190.2</ele>
        <time>2026-03-29T13:35:29Z</time>
      </trkpt>
      <trkpt lat="48.69222" lon="1.93004">
        <ele>190.2</ele>
        <time>2026-03-29T13:35:30Z</time>
      </trkpt>
      <trkpt lat="48.69217" lon="1.93009">
        <ele>190.2</ele>
        <time>2026-03-29T13:35:31Z</time>
      </trkpt>
      <trkpt lat="48.69212" lon="1.93015">
        <ele>190.2</ele>
        <time>2026-03-29T13:35:32Z</time>
      </trkpt>
      <trkpt lat="48.69209" lon="1.93021">
        <ele>190.2</ele>
        <time>2026-03-29T13:35:33Z</time>
      </trkpt>
      <trkpt lat="48.69203" lon="1.93026">
        <ele>190.4</ele>
        <time>2026-03-29T13:35:34Z</time>
      </trkpt>
      <trkpt lat="48.69198" lon="1.9303">
        <ele>190.4</ele>
        <time>2026-03-29T13:35:35Z</time>
      </trkpt>
      <trkpt lat="48.69194" lon="1.93033">
        <ele>190.4</ele>
        <time>2026-03-29T13:35:36Z</time>
      </trkpt>
      <trkpt lat="48.69189" lon="1.93037">
        <ele>190</ele>
        <time>2026-03-29T13:35:37Z</time>
      </trkpt>
      <trkpt lat="48.69184" lon="1.93042">
        <ele>190</ele>
        <time>2026-03-29T13:35:38Z</time>
      </trkpt>
      <trkpt lat="48.69178" lon="1.93047">
        <ele>190</ele>
        <time>2026-03-29T13:35:39Z</time>
      </trkpt>
      <trkpt lat="48.69172" lon="1.93051">
        <ele>190</ele>
        <time>2026-03-29T13:35:40Z</time>
      </trkpt>
      <trkpt lat="48.69167" lon="1.93056">
        <ele>190</ele>
        <time>2026-03-29T13:35:41Z</time>
      </trkpt>
      <trkpt lat="48.69161" lon="1.93062">
        <ele>189</ele>
        <time>2026-03-29T13:35:42Z</time>
      </trkpt>
      <trkpt lat="48.69154" lon="1.93067">
        <ele>189</ele>
        <time>2026-03-29T13:35:43Z</time>
      </trkpt>
      <trkpt lat="48.69148" lon="1.93073">
        <ele>189</ele>
        <time>2026-03-29T13:35:44Z</time>
      </trkpt>
      <trkpt lat="48.69142" lon="1.9308">
        <ele>188.8</ele>
        <time>2026-03-29T13:35:45Z</time>
      </trkpt>
      <trkpt lat="48.69136" lon="1.93086">
        <ele>188.2</ele>
        <time>2026-03-29T13:35:46Z</time>
      </trkpt>
      <trkpt lat="48.6913" lon="1.93091">
        <ele>188.2</ele>
        <time>2026-03-29T13:35:47Z</time>
      </trkpt>
      <trkpt lat="48.69124" lon="1.93094">
        <ele>188.2</ele>
        <time>2026-03-29T13:35:48Z</time>
      </trkpt>
      <trkpt lat="48.69118" lon="1.93095">
        <ele>188.6</ele>
        <time>2026-03-29T13:35:49Z</time>
      </trkpt>
      <trkpt lat="48.69111" lon="1.93095">
        <ele>189</ele>
        <time>2026-03-29T13:35:50Z</time>
      </trkpt>
      <trkpt lat="48.69104" lon="1.93095">
        <ele>189</ele>
        <time>2026-03-29T13:35:51Z</time>
      </trkpt>
      <trkpt lat="48.69097" lon="1.93095">
        <ele>189</ele>
        <time>2026-03-29T13:35:52Z</time>
      </trkpt>
      <trkpt lat="48.69091" lon="1.93096">
        <ele>189</ele>
        <time>2026-03-29T13:35:53Z</time>
      </trkpt>
      <trkpt lat="48.69084" lon="1.93096">
        <ele>189</ele>
        <time>2026-03-29T13:35:54Z</time>
      </trkpt>
      <trkpt lat="48.69078" lon="1.93097">
        <ele>189</ele>
        <time>2026-03-29T13:35:55Z</time>
      </trkpt>
      <trkpt lat="48.69072" lon="1.93099">
        <ele>189</ele>
        <time>2026-03-29T13:35:56Z</time>
      </trkpt>
      <trkpt lat="48.69067" lon="1.93101">
        <ele>189</ele>
        <time>2026-03-29T13:35:57Z</time>
      </trkpt>
      <trkpt lat="48.69061" lon="1.93104">
        <ele>188.6</ele>
        <time>2026-03-29T13:35:58Z</time>
      </trkpt>
      <trkpt lat="48.69056" lon="1.93106">
        <ele>188.6</ele>
        <time>2026-03-29T13:35:59Z</time>
      </trkpt>
      <trkpt lat="48.69051" lon="1.93108">
        <ele>188.6</ele>
        <time>2026-03-29T13:36:00Z</time>
      </trkpt>
      <trkpt lat="48.69046" lon="1.9311">
        <ele>188.6</ele>
        <time>2026-03-29T13:36:01Z</time>
      </trkpt>
      <trkpt lat="48.69041" lon="1.93111">
        <ele>189</ele>
        <time>2026-03-29T13:36:02Z</time>
      </trkpt>
      <trkpt lat="48.69035" lon="1.93111">
        <ele>189</ele>
        <time>2026-03-29T13:36:03Z</time>
      </trkpt>
      <trkpt lat="48.6903" lon="1.93111">
        <ele>189</ele>
        <time>2026-03-29T13:36:04Z</time>
      </trkpt>
      <trkpt lat="48.69024" lon="1.9311">
        <ele>188</ele>
        <time>2026-03-29T13:36:05Z</time>
      </trkpt>
      <trkpt lat="48.69017" lon="1.93108">
        <ele>187.8</ele>
        <time>2026-03-29T13:36:06Z</time>
      </trkpt>
      <trkpt lat="48.69011" lon="1.93107">
        <ele>187.8</ele>
        <time>2026-03-29T13:36:07Z</time>
      </trkpt>
      <trkpt lat="48.69005" lon="1.93107">
        <ele>187.8</ele>
        <time>2026-03-29T13:36:08Z</time>
      </trkpt>
      <trkpt lat="48.69" lon="1.9311">
        <ele>187.8</ele>
        <time>2026-03-29T13:36:09Z</time>
      </trkpt>
      <trkpt lat="48.68996" lon="1.93115">
        <ele>188.8</ele>
        <time>2026-03-29T13:36:10Z</time>
      </trkpt>
      <trkpt lat="48.68993" lon="1.9312">
        <ele>188.8</ele>
        <time>2026-03-29T13:36:11Z</time>
      </trkpt>
      <trkpt lat="48.6899" lon="1.93124">
        <ele>188.8</ele>
        <time>2026-03-29T13:36:12Z</time>
      </trkpt>
      <trkpt lat="48.68986" lon="1.9313">
        <ele>188.8</ele>
        <time>2026-03-29T13:36:13Z</time>
      </trkpt>
      <trkpt lat="48.68984" lon="1.93135">
        <ele>189.4</ele>
        <time>2026-03-29T13:36:14Z</time>
      </trkpt>
      <trkpt lat="48.68981" lon="1.9314">
        <ele>189.4</ele>
        <time>2026-03-29T13:36:15Z</time>
      </trkpt>
      <trkpt lat="48.68977" lon="1.93146">
        <ele>189.4</ele>
        <time>2026-03-29T13:36:16Z</time>
      </trkpt>
      <trkpt lat="48.68973" lon="1.93153">
        <ele>189</ele>
        <time>2026-03-29T13:36:17Z</time>
      </trkpt>
      <trkpt lat="48.68969" lon="1.93159">
        <ele>189</ele>
        <time>2026-03-29T13:36:18Z</time>
      </trkpt>
      <trkpt lat="48.68966" lon="1.93166">
        <ele>189</ele>
        <time>2026-03-29T13:36:19Z</time>
      </trkpt>
      <trkpt lat="48.68962" lon="1.93172">
        <ele>189</ele>
        <time>2026-03-29T13:36:20Z</time>
      </trkpt>
      <trkpt lat="48.68959" lon="1.93178">
        <ele>189.4</ele>
        <time>2026-03-29T13:36:21Z</time>
      </trkpt>
      <trkpt lat="48.68956" lon="1.93184">
        <ele>189.4</ele>
        <time>2026-03-29T13:36:22Z</time>
      </trkpt>
      <trkpt lat="48.68953" lon="1.9319">
        <ele>189.4</ele>
        <time>2026-03-29T13:36:23Z</time>
      </trkpt>
      <trkpt lat="48.6895" lon="1.93197">
        <ele>189.4</ele>
        <time>2026-03-29T13:36:24Z</time>
      </trkpt>
      <trkpt lat="48.68946" lon="1.93203">
        <ele>189.4</ele>
        <time>2026-03-29T13:36:25Z</time>
      </trkpt>
      <trkpt lat="48.68943" lon="1.93209">
        <ele>189.2</ele>
        <time>2026-03-29T13:36:26Z</time>
      </trkpt>
      <trkpt lat="48.6894" lon="1.93215">
        <ele>189.2</ele>
        <time>2026-03-29T13:36:27Z</time>
      </trkpt>
      <trkpt lat="48.68939" lon="1.93219">
        <ele>189.2</ele>
        <time>2026-03-29T13:36:28Z</time>
      </trkpt>
      <trkpt lat="48.68936" lon="1.93224">
        <ele>189.4</ele>
        <time>2026-03-29T13:36:29Z</time>
      </trkpt>
      <trkpt lat="48.68932" lon="1.9323">
        <ele>188.4</ele>
        <time>2026-03-29T13:36:30Z</time>
      </trkpt>
      <trkpt lat="48.68929" lon="1.93237">
        <ele>188.4</ele>
        <time>2026-03-29T13:36:31Z</time>
      </trkpt>
      <trkpt lat="48.68925" lon="1.93244">
        <ele>188.4</ele>
        <time>2026-03-29T13:36:32Z</time>
      </trkpt>
      <trkpt lat="48.68922" lon="1.9325">
        <ele>189</ele>
        <time>2026-03-29T13:36:33Z</time>
      </trkpt>
      <trkpt lat="48.68918" lon="1.93257">
        <ele>189</ele>
        <time>2026-03-29T13:36:34Z</time>
      </trkpt>
      <trkpt lat="48.68915" lon="1.93264">
        <ele>189</ele>
        <time>2026-03-29T13:36:35Z</time>
      </trkpt>
      <trkpt lat="48.68911" lon="1.9327">
        <ele>189</ele>
        <time>2026-03-29T13:36:36Z</time>
      </trkpt>
      <trkpt lat="48.68907" lon="1.93276">
        <ele>188.4</ele>
        <time>2026-03-29T13:36:37Z</time>
      </trkpt>
      <trkpt lat="48.68903" lon="1.93282">
        <ele>188</ele>
        <time>2026-03-29T13:36:38Z</time>
      </trkpt>
      <trkpt lat="48.689" lon="1.93289">
        <ele>188</ele>
        <time>2026-03-29T13:36:39Z</time>
      </trkpt>
      <trkpt lat="48.68897" lon="1.93295">
        <ele>188</ele>
        <time>2026-03-29T13:36:40Z</time>
      </trkpt>
      <trkpt lat="48.68893" lon="1.93301">
        <ele>188</ele>
        <time>2026-03-29T13:36:41Z</time>
      </trkpt>
      <trkpt lat="48.68889" lon="1.93308">
        <ele>188</ele>
        <time>2026-03-29T13:36:42Z</time>
      </trkpt>
      <trkpt lat="48.68885" lon="1.93314">
        <ele>188</ele>
        <time>2026-03-29T13:36:43Z</time>
      </trkpt>
      <trkpt lat="48.6888" lon="1.93322">
        <ele>188</ele>
        <time>2026-03-29T13:36:44Z</time>
      </trkpt>
      <trkpt lat="48.68876" lon="1.93329">
        <ele>187</ele>
        <time>2026-03-29T13:36:45Z</time>
      </trkpt>
      <trkpt lat="48.68872" lon="1.93336">
        <ele>186.2</ele>
        <time>2026-03-29T13:36:46Z</time>
      </trkpt>
      <trkpt lat="48.68868" lon="1.93344">
        <ele>186.2</ele>
        <time>2026-03-29T13:36:47Z</time>
      </trkpt>
      <trkpt lat="48.68864" lon="1.93352">
        <ele>186.2</ele>
        <time>2026-03-29T13:36:48Z</time>
      </trkpt>
      <trkpt lat="48.68859" lon="1.93361">
        <ele>185.6</ele>
        <time>2026-03-29T13:36:49Z</time>
      </trkpt>
      <trkpt lat="48.68853" lon="1.9337">
        <ele>185.4</ele>
        <time>2026-03-29T13:36:50Z</time>
      </trkpt>
      <trkpt lat="48.68849" lon="1.93379">
        <ele>185.4</ele>
        <time>2026-03-29T13:36:51Z</time>
      </trkpt>
      <trkpt lat="48.68843" lon="1.93387">
        <ele>185.4</ele>
        <time>2026-03-29T13:36:52Z</time>
      </trkpt>
      <trkpt lat="48.68838" lon="1.93397">
        <ele>185.8</ele>
        <time>2026-03-29T13:36:53Z</time>
      </trkpt>
      <trkpt lat="48.68834" lon="1.93406">
        <ele>185.8</ele>
        <time>2026-03-29T13:36:54Z</time>
      </trkpt>
      <trkpt lat="48.68829" lon="1.93414">
        <ele>185.8</ele>
        <time>2026-03-29T13:36:55Z</time>
      </trkpt>
      <trkpt lat="48.68825" lon="1.9342">
        <ele>185.8</ele>
        <time>2026-03-29T13:36:56Z</time>
      </trkpt>
      <trkpt lat="48.68822" lon="1.93427">
        <ele>185.4</ele>
        <time>2026-03-29T13:36:57Z</time>
      </trkpt>
      <trkpt lat="48.68818" lon="1.93435">
        <ele>186</ele>
        <time>2026-03-29T13:36:58Z</time>
      </trkpt>
      <trkpt lat="48.68814" lon="1.93443">
        <ele>186</ele>
        <time>2026-03-29T13:36:59Z</time>
      </trkpt>
      <trkpt lat="48.68811" lon="1.93452">
        <ele>186</ele>
        <time>2026-03-29T13:37:00Z</time>
      </trkpt>
      <trkpt lat="48.68808" lon="1.93461">
        <ele>186.8</ele>
        <time>2026-03-29T13:37:01Z</time>
      </trkpt>
      <trkpt lat="48.68806" lon="1.93471">
        <ele>187.2</ele>
        <time>2026-03-29T13:37:02Z</time>
      </trkpt>
      <trkpt lat="48.68805" lon="1.93481">
        <ele>187.2</ele>
        <time>2026-03-29T13:37:03Z</time>
      </trkpt>
      <trkpt lat="48.68804" lon="1.93488">
        <ele>187.2</ele>
        <time>2026-03-29T13:37:04Z</time>
      </trkpt>
      <trkpt lat="48.68802" lon="1.93497">
        <ele>187.2</ele>
        <time>2026-03-29T13:37:05Z</time>
      </trkpt>
      <trkpt lat="48.688" lon="1.93506">
        <ele>187</ele>
        <time>2026-03-29T13:37:06Z</time>
      </trkpt>
      <trkpt lat="48.68798" lon="1.93514">
        <ele>187</ele>
        <time>2026-03-29T13:37:07Z</time>
      </trkpt>
      <trkpt lat="48.68796" lon="1.93523">
        <ele>187</ele>
        <time>2026-03-29T13:37:08Z</time>
      </trkpt>
      <trkpt lat="48.68794" lon="1.93532">
        <ele>187</ele>
        <time>2026-03-29T13:37:09Z</time>
      </trkpt>
      <trkpt lat="48.68793" lon="1.93541">
        <ele>187.2</ele>
        <time>2026-03-29T13:37:10Z</time>
      </trkpt>
      <trkpt lat="48.68791" lon="1.9355">
        <ele>187.2</ele>
        <time>2026-03-29T13:37:11Z</time>
      </trkpt>
      <trkpt lat="48.68789" lon="1.93558">
        <ele>187.2</ele>
        <time>2026-03-29T13:37:12Z</time>
      </trkpt>
      <trkpt lat="48.68788" lon="1.93567">
        <ele>187.4</ele>
        <time>2026-03-29T13:37:13Z</time>
      </trkpt>
      <trkpt lat="48.68787" lon="1.93576">
        <ele>186.6</ele>
        <time>2026-03-29T13:37:14Z</time>
      </trkpt>
      <trkpt lat="48.68785" lon="1.93586">
        <ele>186.6</ele>
        <time>2026-03-29T13:37:15Z</time>
      </trkpt>
      <trkpt lat="48.68783" lon="1.93595">
        <ele>186.6</ele>
        <time>2026-03-29T13:37:16Z</time>
      </trkpt>
      <trkpt lat="48.68782" lon="1.93605">
        <ele>186.6</ele>
        <time>2026-03-29T13:37:17Z</time>
      </trkpt>
      <trkpt lat="48.68781" lon="1.93615">
        <ele>186.2</ele>
        <time>2026-03-29T13:37:18Z</time>
      </trkpt>
      <trkpt lat="48.68782" lon="1.93624">
        <ele>186.2</ele>
        <time>2026-03-29T13:37:19Z</time>
      </trkpt>
      <trkpt lat="48.68785" lon="1.93633">
        <ele>186.2</ele>
        <time>2026-03-29T13:37:20Z</time>
      </trkpt>
      <trkpt lat="48.68788" lon="1.93641">
        <ele>186.2</ele>
        <time>2026-03-29T13:37:21Z</time>
      </trkpt>
      <trkpt lat="48.68792" lon="1.93649">
        <ele>186.6</ele>
        <time>2026-03-29T13:37:22Z</time>
      </trkpt>
      <trkpt lat="48.68796" lon="1.93655">
        <ele>186.6</ele>
        <time>2026-03-29T13:37:23Z</time>
      </trkpt>
      <trkpt lat="48.688" lon="1.93662">
        <ele>186.6</ele>
        <time>2026-03-29T13:37:24Z</time>
      </trkpt>
      <trkpt lat="48.68802" lon="1.93669">
        <ele>187.4</ele>
        <time>2026-03-29T13:37:25Z</time>
      </trkpt>
      <trkpt lat="48.68803" lon="1.93677">
        <ele>187.6</ele>
        <time>2026-03-29T13:37:26Z</time>
      </trkpt>
      <trkpt lat="48.68804" lon="1.93686">
        <ele>187.6</ele>
        <time>2026-03-29T13:37:27Z</time>
      </trkpt>
      <trkpt lat="48.68803" lon="1.93693">
        <ele>187.6</ele>
        <time>2026-03-29T13:37:28Z</time>
      </trkpt>
      <trkpt lat="48.68801" lon="1.93701">
        <ele>187.6</ele>
        <time>2026-03-29T13:37:29Z</time>
      </trkpt>
      <trkpt lat="48.688" lon="1.93709">
        <ele>187.4</ele>
        <time>2026-03-29T13:37:30Z</time>
      </trkpt>
      <trkpt lat="48.68798" lon="1.93717">
        <ele>187.4</ele>
        <time>2026-03-29T13:37:31Z</time>
      </trkpt>
      <trkpt lat="48.68796" lon="1.93724">
        <ele>187.4</ele>
        <time>2026-03-29T13:37:32Z</time>
      </trkpt>
      <trkpt lat="48.68794" lon="1.93731">
        <ele>187.2</ele>
        <time>2026-03-29T13:37:33Z</time>
      </trkpt>
      <trkpt lat="48.68792" lon="1.93738">
        <ele>187.6</ele>
        <time>2026-03-29T13:37:34Z</time>
      </trkpt>
      <trkpt lat="48.68789" lon="1.93745">
        <ele>187.6</ele>
        <time>2026-03-29T13:37:35Z</time>
      </trkpt>
      <trkpt lat="48.68785" lon="1.93751">
        <ele>187.6</ele>
        <time>2026-03-29T13:37:36Z</time>
      </trkpt>
      <trkpt lat="48.68781" lon="1.93756">
        <ele>187.2</ele>
        <time>2026-03-29T13:37:37Z</time>
      </trkpt>
      <trkpt lat="48.68778" lon="1.93763">
        <ele>187.4</ele>
        <time>2026-03-29T13:37:38Z</time>
      </trkpt>
      <trkpt lat="48.68774" lon="1.93768">
        <ele>187.4</ele>
        <time>2026-03-29T13:37:39Z</time>
      </trkpt>
      <trkpt lat="48.68771" lon="1.93774">
        <ele>187.4</ele>
        <time>2026-03-29T13:37:40Z</time>
      </trkpt>
      <trkpt lat="48.68768" lon="1.93779">
        <ele>187.4</ele>
        <time>2026-03-29T13:37:41Z</time>
      </trkpt>
      <trkpt lat="48.68764" lon="1.93784">
        <ele>187.6</ele>
        <time>2026-03-29T13:37:42Z</time>
      </trkpt>
      <trkpt lat="48.6876" lon="1.93789">
        <ele>187.6</ele>
        <time>2026-03-29T13:37:43Z</time>
      </trkpt>
      <trkpt lat="48.68757" lon="1.93796">
        <ele>187.6</ele>
        <time>2026-03-29T13:37:44Z</time>
      </trkpt>
      <trkpt lat="48.68754" lon="1.93803">
        <ele>187.6</ele>
        <time>2026-03-29T13:37:45Z</time>
      </trkpt>
      <trkpt lat="48.68753" lon="1.9381">
        <ele>188</ele>
        <time>2026-03-29T13:37:46Z</time>
      </trkpt>
      <trkpt lat="48.68752" lon="1.93817">
        <ele>188</ele>
        <time>2026-03-29T13:37:47Z</time>
      </trkpt>
      <trkpt lat="48.68751" lon="1.93823">
        <ele>188</ele>
        <time>2026-03-29T13:37:48Z</time>
      </trkpt>
      <trkpt lat="48.6875" lon="1.93832">
        <ele>187.2</ele>
        <time>2026-03-29T13:37:49Z</time>
      </trkpt>
      <trkpt lat="48.68748" lon="1.93841">
        <ele>187</ele>
        <time>2026-03-29T13:37:50Z</time>
      </trkpt>
      <trkpt lat="48.68747" lon="1.9385">
        <ele>187</ele>
        <time>2026-03-29T13:37:51Z</time>
      </trkpt>
      <trkpt lat="48.68745" lon="1.93858">
        <ele>187</ele>
        <time>2026-03-29T13:37:52Z</time>
      </trkpt>
      <trkpt lat="48.68743" lon="1.93866">
        <ele>187.8</ele>
        <time>2026-03-29T13:37:53Z</time>
      </trkpt>
      <trkpt lat="48.68743" lon="1.93875">
        <ele>187.6</ele>
        <time>2026-03-29T13:37:54Z</time>
      </trkpt>
      <trkpt lat="48.68742" lon="1.93883">
        <ele>187.6</ele>
        <time>2026-03-29T13:37:55Z</time>
      </trkpt>
      <trkpt lat="48.68745" lon="1.9389">
        <ele>187.6</ele>
        <time>2026-03-29T13:37:56Z</time>
      </trkpt>
      <trkpt lat="48.68748" lon="1.93896">
        <ele>188</ele>
        <time>2026-03-29T13:37:57Z</time>
      </trkpt>
      <trkpt lat="48.68752" lon="1.93902">
        <ele>187.4</ele>
        <time>2026-03-29T13:37:58Z</time>
      </trkpt>
      <trkpt lat="48.68756" lon="1.93907">
        <ele>187.4</ele>
        <time>2026-03-29T13:37:59Z</time>
      </trkpt>
      <trkpt lat="48.68759" lon="1.93912">
        <ele>187.4</ele>
        <time>2026-03-29T13:38:00Z</time>
      </trkpt>
      <trkpt lat="48.68763" lon="1.93917">
        <ele>188.2</ele>
        <time>2026-03-29T13:38:01Z</time>
      </trkpt>
      <trkpt lat="48.68768" lon="1.93922">
        <ele>188.2</ele>
        <time>2026-03-29T13:38:02Z</time>
      </trkpt>
      <trkpt lat="48.68771" lon="1.93927">
        <ele>188.2</ele>
        <time>2026-03-29T13:38:03Z</time>
      </trkpt>
      <trkpt lat="48.68776" lon="1.93933">
        <ele>188.2</ele>
        <time>2026-03-29T13:38:04Z</time>
      </trkpt>
      <trkpt lat="48.68778" lon="1.93936">
        <ele>189</ele>
        <time>2026-03-29T13:38:05Z</time>
      </trkpt>
      <trkpt lat="48.68782" lon="1.93941">
        <ele>189.4</ele>
        <time>2026-03-29T13:38:06Z</time>
      </trkpt>
      <trkpt lat="48.68786" lon="1.93946">
        <ele>189.4</ele>
        <time>2026-03-29T13:38:07Z</time>
      </trkpt>
      <trkpt lat="48.68791" lon="1.93953">
        <ele>189.4</ele>
        <time>2026-03-29T13:38:08Z</time>
      </trkpt>
      <trkpt lat="48.68795" lon="1.93962">
        <ele>189</ele>
        <time>2026-03-29T13:38:09Z</time>
      </trkpt>
      <trkpt lat="48.68798" lon="1.9397">
        <ele>189</ele>
        <time>2026-03-29T13:38:10Z</time>
      </trkpt>
      <trkpt lat="48.68801" lon="1.93978">
        <ele>189</ele>
        <time>2026-03-29T13:38:11Z</time>
      </trkpt>
      <trkpt lat="48.68803" lon="1.93986">
        <ele>189</ele>
        <time>2026-03-29T13:38:12Z</time>
      </trkpt>
      <trkpt lat="48.68805" lon="1.93994">
        <ele>189</ele>
        <time>2026-03-29T13:38:13Z</time>
      </trkpt>
      <trkpt lat="48.68806" lon="1.94001">
        <ele>190</ele>
        <time>2026-03-29T13:38:14Z</time>
      </trkpt>
      <trkpt lat="48.68808" lon="1.94009">
        <ele>190</ele>
        <time>2026-03-29T13:38:15Z</time>
      </trkpt>
      <trkpt lat="48.68809" lon="1.94016">
        <ele>190</ele>
        <time>2026-03-29T13:38:16Z</time>
      </trkpt>
      <trkpt lat="48.6881" lon="1.94024">
        <ele>190</ele>
        <time>2026-03-29T13:38:17Z</time>
      </trkpt>
      <trkpt lat="48.68811" lon="1.94032">
        <ele>189.4</ele>
        <time>2026-03-29T13:38:18Z</time>
      </trkpt>
      <trkpt lat="48.68812" lon="1.94039">
        <ele>189.4</ele>
        <time>2026-03-29T13:38:19Z</time>
      </trkpt>
      <trkpt lat="48.68813" lon="1.94047">
        <ele>189.4</ele>
        <time>2026-03-29T13:38:20Z</time>
      </trkpt>
      <trkpt lat="48.68813" lon="1.94054">
        <ele>189.6</ele>
        <time>2026-03-29T13:38:21Z</time>
      </trkpt>
      <trkpt lat="48.68815" lon="1.94062">
        <ele>189.4</ele>
        <time>2026-03-29T13:38:22Z</time>
      </trkpt>
      <trkpt lat="48.68816" lon="1.94069">
        <ele>189.4</ele>
        <time>2026-03-29T13:38:23Z</time>
      </trkpt>
      <trkpt lat="48.68817" lon="1.94076">
        <ele>189.4</ele>
        <time>2026-03-29T13:38:24Z</time>
      </trkpt>
      <trkpt lat="48.68817" lon="1.94084">
        <ele>190.4</ele>
        <time>2026-03-29T13:38:25Z</time>
      </trkpt>
      <trkpt lat="48.68819" lon="1.94091">
        <ele>190.2</ele>
        <time>2026-03-29T13:38:26Z</time>
      </trkpt>
      <trkpt lat="48.6882" lon="1.94098">
        <ele>190.2</ele>
        <time>2026-03-29T13:38:27Z</time>
      </trkpt>
      <trkpt lat="48.68821" lon="1.94105">
        <ele>190.2</ele>
        <time>2026-03-29T13:38:28Z</time>
      </trkpt>
      <trkpt lat="48.68822" lon="1.94114">
        <ele>189.6</ele>
        <time>2026-03-29T13:38:29Z</time>
      </trkpt>
      <trkpt lat="48.68824" lon="1.94122">
        <ele>190</ele>
        <time>2026-03-29T13:38:30Z</time>
      </trkpt>
      <trkpt lat="48.68825" lon="1.9413">
        <ele>190</ele>
        <time>2026-03-29T13:38:31Z</time>
      </trkpt>
      <trkpt lat="48.68826" lon="1.94137">
        <ele>190</ele>
        <time>2026-03-29T13:38:32Z</time>
      </trkpt>
      <trkpt lat="48.68828" lon="1.94146">
        <ele>190</ele>
        <time>2026-03-29T13:38:33Z</time>
      </trkpt>
      <trkpt lat="48.68829" lon="1.94153">
        <ele>190</ele>
        <time>2026-03-29T13:38:34Z</time>
      </trkpt>
      <trkpt lat="48.68831" lon="1.9416">
        <ele>190</ele>
        <time>2026-03-29T13:38:35Z</time>
      </trkpt>
      <trkpt lat="48.68832" lon="1.94169">
        <ele>190</ele>
        <time>2026-03-29T13:38:36Z</time>
      </trkpt>
      <trkpt lat="48.68833" lon="1.94178">
        <ele>190.4</ele>
        <time>2026-03-29T13:38:37Z</time>
      </trkpt>
      <trkpt lat="48.68834" lon="1.94185">
        <ele>189.8</ele>
        <time>2026-03-29T13:38:38Z</time>
      </trkpt>
      <trkpt lat="48.68834" lon="1.94193">
        <ele>189.8</ele>
        <time>2026-03-29T13:38:39Z</time>
      </trkpt>
      <trkpt lat="48.68832" lon="1.94201">
        <ele>189.8</ele>
        <time>2026-03-29T13:38:40Z</time>
      </trkpt>
      <trkpt lat="48.6883" lon="1.94207">
        <ele>189.8</ele>
        <time>2026-03-29T13:38:41Z</time>
      </trkpt>
      <trkpt lat="48.68827" lon="1.94215">
        <ele>190.6</ele>
        <time>2026-03-29T13:38:42Z</time>
      </trkpt>
      <trkpt lat="48.68825" lon="1.94223">
        <ele>190.6</ele>
        <time>2026-03-29T13:38:43Z</time>
      </trkpt>
      <trkpt lat="48.68825" lon="1.94231">
        <ele>190.6</ele>
        <time>2026-03-29T13:38:44Z</time>
      </trkpt>
      <trkpt lat="48.68824" lon="1.9424">
        <ele>190.6</ele>
        <time>2026-03-29T13:38:45Z</time>
      </trkpt>
      <trkpt lat="48.68824" lon="1.9425">
        <ele>190.8</ele>
        <time>2026-03-29T13:38:46Z</time>
      </trkpt>
      <trkpt lat="48.68823" lon="1.94259">
        <ele>190.8</ele>
        <time>2026-03-29T13:38:47Z</time>
      </trkpt>
      <trkpt lat="48.68822" lon="1.94268">
        <ele>190.8</ele>
        <time>2026-03-29T13:38:48Z</time>
      </trkpt>
      <trkpt lat="48.68821" lon="1.94277">
        <ele>190.6</ele>
        <time>2026-03-29T13:38:49Z</time>
      </trkpt>
      <trkpt lat="48.68819" lon="1.94285">
        <ele>190.8</ele>
        <time>2026-03-29T13:38:50Z</time>
      </trkpt>
      <trkpt lat="48.68817" lon="1.94293">
        <ele>190.8</ele>
        <time>2026-03-29T13:38:51Z</time>
      </trkpt>
      <trkpt lat="48.68815" lon="1.94299">
        <ele>190.8</ele>
        <time>2026-03-29T13:38:52Z</time>
      </trkpt>
      <trkpt lat="48.68813" lon="1.94307">
        <ele>190.4</ele>
        <time>2026-03-29T13:38:53Z</time>
      </trkpt>
      <trkpt lat="48.6881" lon="1.94316">
        <ele>190.2</ele>
        <time>2026-03-29T13:38:54Z</time>
      </trkpt>
      <trkpt lat="48.68808" lon="1.94324">
        <ele>190.2</ele>
        <time>2026-03-29T13:38:55Z</time>
      </trkpt>
      <trkpt lat="48.68807" lon="1.94331">
        <ele>190.2</ele>
        <time>2026-03-29T13:38:56Z</time>
      </trkpt>
      <trkpt lat="48.68805" lon="1.94339">
        <ele>190.8</ele>
        <time>2026-03-29T13:38:57Z</time>
      </trkpt>
      <trkpt lat="48.68803" lon="1.94345">
        <ele>190.4</ele>
        <time>2026-03-29T13:38:58Z</time>
      </trkpt>
      <trkpt lat="48.68799" lon="1.9435">
        <ele>190.4</ele>
        <time>2026-03-29T13:38:59Z</time>
      </trkpt>
      <trkpt lat="48.68795" lon="1.94356">
        <ele>190.4</ele>
        <time>2026-03-29T13:39:00Z</time>
      </trkpt>
      <trkpt lat="48.68792" lon="1.94363">
        <ele>190.8</ele>
        <time>2026-03-29T13:39:01Z</time>
      </trkpt>
      <trkpt lat="48.6879" lon="1.94371">
        <ele>191</ele>
        <time>2026-03-29T13:39:02Z</time>
      </trkpt>
      <trkpt lat="48.68789" lon="1.94379">
        <ele>191</ele>
        <time>2026-03-29T13:39:03Z</time>
      </trkpt>
      <trkpt lat="48.68787" lon="1.94389">
        <ele>191</ele>
        <time>2026-03-29T13:39:04Z</time>
      </trkpt>
      <trkpt lat="48.68788" lon="1.94397">
        <ele>190.6</ele>
        <time>2026-03-29T13:39:05Z</time>
      </trkpt>
      <trkpt lat="48.68787" lon="1.94407">
        <ele>190.4</ele>
        <time>2026-03-29T13:39:06Z</time>
      </trkpt>
      <trkpt lat="48.68786" lon="1.94418">
        <ele>190.4</ele>
        <time>2026-03-29T13:39:07Z</time>
      </trkpt>
      <trkpt lat="48.68784" lon="1.94426">
        <ele>190.4</ele>
        <time>2026-03-29T13:39:08Z</time>
      </trkpt>
      <trkpt lat="48.68782" lon="1.94434">
        <ele>190.6</ele>
        <time>2026-03-29T13:39:09Z</time>
      </trkpt>
      <trkpt lat="48.68779" lon="1.94442">
        <ele>191.4</ele>
        <time>2026-03-29T13:39:10Z</time>
      </trkpt>
      <trkpt lat="48.68776" lon="1.94447">
        <ele>191.4</ele>
        <time>2026-03-29T13:39:11Z</time>
      </trkpt>
      <trkpt lat="48.68773" lon="1.94454">
        <ele>191.4</ele>
        <time>2026-03-29T13:39:12Z</time>
      </trkpt>
      <trkpt lat="48.68769" lon="1.9446">
        <ele>190.8</ele>
        <time>2026-03-29T13:39:13Z</time>
      </trkpt>
      <trkpt lat="48.68766" lon="1.94465">
        <ele>191.2</ele>
        <time>2026-03-29T13:39:14Z</time>
      </trkpt>
      <trkpt lat="48.68762" lon="1.94471">
        <ele>191.2</ele>
        <time>2026-03-29T13:39:15Z</time>
      </trkpt>
      <trkpt lat="48.68759" lon="1.94479">
        <ele>191.2</ele>
        <time>2026-03-29T13:39:16Z</time>
      </trkpt>
      <trkpt lat="48.68756" lon="1.94486">
        <ele>190.8</ele>
        <time>2026-03-29T13:39:17Z</time>
      </trkpt>
      <trkpt lat="48.68754" lon="1.94492">
        <ele>191</ele>
        <time>2026-03-29T13:39:18Z</time>
      </trkpt>
      <trkpt lat="48.68751" lon="1.94498">
        <ele>191</ele>
        <time>2026-03-29T13:39:19Z</time>
      </trkpt>
      <trkpt lat="48.68748" lon="1.94504">
        <ele>191</ele>
        <time>2026-03-29T13:39:20Z</time>
      </trkpt>
      <trkpt lat="48.68744" lon="1.94512">
        <ele>191</ele>
        <time>2026-03-29T13:39:21Z</time>
      </trkpt>
      <trkpt lat="48.6874" lon="1.94519">
        <ele>191.2</ele>
        <time>2026-03-29T13:39:22Z</time>
      </trkpt>
      <trkpt lat="48.68737" lon="1.94526">
        <ele>191.2</ele>
        <time>2026-03-29T13:39:23Z</time>
      </trkpt>
      <trkpt lat="48.68733" lon="1.94534">
        <ele>191.2</ele>
        <time>2026-03-29T13:39:24Z</time>
      </trkpt>
      <trkpt lat="48.6873" lon="1.94541">
        <ele>190.8</ele>
        <time>2026-03-29T13:39:25Z</time>
      </trkpt>
      <trkpt lat="48.68728" lon="1.94549">
        <ele>190.8</ele>
        <time>2026-03-29T13:39:26Z</time>
      </trkpt>
      <trkpt lat="48.68724" lon="1.94558">
        <ele>190.8</ele>
        <time>2026-03-29T13:39:27Z</time>
      </trkpt>
      <trkpt lat="48.68721" lon="1.94565">
        <ele>190.8</ele>
        <time>2026-03-29T13:39:28Z</time>
      </trkpt>
      <trkpt lat="48.68718" lon="1.94572">
        <ele>190.4</ele>
        <time>2026-03-29T13:39:29Z</time>
      </trkpt>
      <trkpt lat="48.68716" lon="1.9458">
        <ele>190.8</ele>
        <time>2026-03-29T13:39:30Z</time>
      </trkpt>
      <trkpt lat="48.68713" lon="1.94587">
        <ele>190.8</ele>
        <time>2026-03-29T13:39:31Z</time>
      </trkpt>
      <trkpt lat="48.68709" lon="1.94597">
        <ele>190.8</ele>
        <time>2026-03-29T13:39:32Z</time>
      </trkpt>
      <trkpt lat="48.68706" lon="1.94603">
        <ele>190.8</ele>
        <time>2026-03-29T13:39:33Z</time>
      </trkpt>
      <trkpt lat="48.68702" lon="1.9461">
        <ele>190.8</ele>
        <time>2026-03-29T13:39:34Z</time>
      </trkpt>
      <trkpt lat="48.68699" lon="1.94619">
        <ele>190.8</ele>
        <time>2026-03-29T13:39:35Z</time>
      </trkpt>
      <trkpt lat="48.68696" lon="1.94627">
        <ele>190.8</ele>
        <time>2026-03-29T13:39:36Z</time>
      </trkpt>
      <trkpt lat="48.68693" lon="1.94633">
        <ele>190.8</ele>
        <time>2026-03-29T13:39:37Z</time>
      </trkpt>
      <trkpt lat="48.6869" lon="1.94641">
        <ele>190.6</ele>
        <time>2026-03-29T13:39:38Z</time>
      </trkpt>
      <trkpt lat="48.68686" lon="1.9465">
        <ele>190.6</ele>
        <time>2026-03-29T13:39:39Z</time>
      </trkpt>
      <trkpt lat="48.68683" lon="1.94658">
        <ele>190.6</ele>
        <time>2026-03-29T13:39:40Z</time>
      </trkpt>
      <trkpt lat="48.6868" lon="1.94667">
        <ele>190.6</ele>
        <time>2026-03-29T13:39:41Z</time>
      </trkpt>
      <trkpt lat="48.68678" lon="1.94673">
        <ele>191</ele>
        <time>2026-03-29T13:39:42Z</time>
      </trkpt>
      <trkpt lat="48.68675" lon="1.94678">
        <ele>191</ele>
        <time>2026-03-29T13:39:43Z</time>
      </trkpt>
      <trkpt lat="48.68672" lon="1.94686">
        <ele>191</ele>
        <time>2026-03-29T13:39:44Z</time>
      </trkpt>
      <trkpt lat="48.68669" lon="1.94693">
        <ele>190.4</ele>
        <time>2026-03-29T13:39:45Z</time>
      </trkpt>
      <trkpt lat="48.68666" lon="1.94702">
        <ele>190.4</ele>
        <time>2026-03-29T13:39:46Z</time>
      </trkpt>
      <trkpt lat="48.68665" lon="1.94708">
        <ele>190.4</ele>
        <time>2026-03-29T13:39:47Z</time>
      </trkpt>
      <trkpt lat="48.68662" lon="1.94716">
        <ele>190.4</ele>
        <time>2026-03-29T13:39:48Z</time>
      </trkpt>
      <trkpt lat="48.68659" lon="1.94724">
        <ele>190.6</ele>
        <time>2026-03-29T13:39:49Z</time>
      </trkpt>
      <trkpt lat="48.68656" lon="1.94733">
        <ele>190.6</ele>
        <time>2026-03-29T13:39:50Z</time>
      </trkpt>
      <trkpt lat="48.68653" lon="1.94743">
        <ele>190.6</ele>
        <time>2026-03-29T13:39:51Z</time>
      </trkpt>
      <trkpt lat="48.68649" lon="1.94751">
        <ele>190.6</ele>
        <time>2026-03-29T13:39:52Z</time>
      </trkpt>
      <trkpt lat="48.68645" lon="1.94761">
        <ele>190.6</ele>
        <time>2026-03-29T13:39:53Z</time>
      </trkpt>
      <trkpt lat="48.68642" lon="1.94768">
        <ele>190.8</ele>
        <time>2026-03-29T13:39:54Z</time>
      </trkpt>
      <trkpt lat="48.68639" lon="1.94775">
        <ele>190.8</ele>
        <time>2026-03-29T13:39:55Z</time>
      </trkpt>
      <trkpt lat="48.68635" lon="1.94785">
        <ele>190.8</ele>
        <time>2026-03-29T13:39:56Z</time>
      </trkpt>
      <trkpt lat="48.68632" lon="1.94794">
        <ele>190.4</ele>
        <time>2026-03-29T13:39:57Z</time>
      </trkpt>
      <trkpt lat="48.68628" lon="1.94801">
        <ele>190.2</ele>
        <time>2026-03-29T13:39:58Z</time>
      </trkpt>
      <trkpt lat="48.68624" lon="1.94809">
        <ele>190.2</ele>
        <time>2026-03-29T13:39:59Z</time>
      </trkpt>
      <trkpt lat="48.6862" lon="1.94816">
        <ele>190.2</ele>
        <time>2026-03-29T13:40:00Z</time>
      </trkpt>
      <trkpt lat="48.68616" lon="1.94824">
        <ele>190.2</ele>
        <time>2026-03-29T13:40:01Z</time>
      </trkpt>
      <trkpt lat="48.68612" lon="1.9483">
        <ele>190.2</ele>
        <time>2026-03-29T13:40:02Z</time>
      </trkpt>
      <trkpt lat="48.68607" lon="1.94837">
        <ele>190.2</ele>
        <time>2026-03-29T13:40:03Z</time>
      </trkpt>
      <trkpt lat="48.68603" lon="1.94845">
        <ele>190.2</ele>
        <time>2026-03-29T13:40:04Z</time>
      </trkpt>
      <trkpt lat="48.68598" lon="1.94852">
        <ele>190.2</ele>
        <time>2026-03-29T13:40:05Z</time>
      </trkpt>
      <trkpt lat="48.68593" lon="1.94861">
        <ele>190</ele>
        <time>2026-03-29T13:40:06Z</time>
      </trkpt>
      <trkpt lat="48.68589" lon="1.94869">
        <ele>190</ele>
        <time>2026-03-29T13:40:07Z</time>
      </trkpt>
      <trkpt lat="48.68585" lon="1.94876">
        <ele>190</ele>
        <time>2026-03-29T13:40:08Z</time>
      </trkpt>
      <trkpt lat="48.68581" lon="1.94884">
        <ele>190</ele>
        <time>2026-03-29T13:40:09Z</time>
      </trkpt>
      <trkpt lat="48.68577" lon="1.94892">
        <ele>189.4</ele>
        <time>2026-03-29T13:40:10Z</time>
      </trkpt>
      <trkpt lat="48.68573" lon="1.94901">
        <ele>189.4</ele>
        <time>2026-03-29T13:40:11Z</time>
      </trkpt>
      <trkpt lat="48.68571" lon="1.9491">
        <ele>189.4</ele>
        <time>2026-03-29T13:40:12Z</time>
      </trkpt>
      <trkpt lat="48.68571" lon="1.94922">
        <ele>190.2</ele>
        <time>2026-03-29T13:40:13Z</time>
      </trkpt>
      <trkpt lat="48.6857" lon="1.94929">
        <ele>190</ele>
        <time>2026-03-29T13:40:14Z</time>
      </trkpt>
      <trkpt lat="48.68567" lon="1.94938">
        <ele>190</ele>
        <time>2026-03-29T13:40:15Z</time>
      </trkpt>
      <trkpt lat="48.68563" lon="1.94946">
        <ele>190</ele>
        <time>2026-03-29T13:40:16Z</time>
      </trkpt>
      <trkpt lat="48.68559" lon="1.94955">
        <ele>189.6</ele>
        <time>2026-03-29T13:40:17Z</time>
      </trkpt>
      <trkpt lat="48.68556" lon="1.94963">
        <ele>190</ele>
        <time>2026-03-29T13:40:18Z</time>
      </trkpt>
      <trkpt lat="48.68552" lon="1.94971">
        <ele>190</ele>
        <time>2026-03-29T13:40:19Z</time>
      </trkpt>
      <trkpt lat="48.68547" lon="1.94979">
        <ele>190</ele>
        <time>2026-03-29T13:40:20Z</time>
      </trkpt>
      <trkpt lat="48.68541" lon="1.94985">
        <ele>190</ele>
        <time>2026-03-29T13:40:21Z</time>
      </trkpt>
      <trkpt lat="48.68536" lon="1.94992">
        <ele>190</ele>
        <time>2026-03-29T13:40:22Z</time>
      </trkpt>
      <trkpt lat="48.68531" lon="1.95001">
        <ele>190</ele>
        <time>2026-03-29T13:40:23Z</time>
      </trkpt>
      <trkpt lat="48.68529" lon="1.9501">
        <ele>190</ele>
        <time>2026-03-29T13:40:24Z</time>
      </trkpt>
      <trkpt lat="48.68528" lon="1.95021">
        <ele>189.8</ele>
        <time>2026-03-29T13:40:25Z</time>
      </trkpt>
      <trkpt lat="48.68527" lon="1.95029">
        <ele>189.8</ele>
        <time>2026-03-29T13:40:26Z</time>
      </trkpt>
      <trkpt lat="48.68526" lon="1.95039">
        <ele>189.8</ele>
        <time>2026-03-29T13:40:27Z</time>
      </trkpt>
      <trkpt lat="48.68524" lon="1.95047">
        <ele>189.8</ele>
        <time>2026-03-29T13:40:28Z</time>
      </trkpt>
      <trkpt lat="48.68522" lon="1.95056">
        <ele>189.6</ele>
        <time>2026-03-29T13:40:29Z</time>
      </trkpt>
      <trkpt lat="48.68517" lon="1.95065">
        <ele>189.6</ele>
        <time>2026-03-29T13:40:30Z</time>
      </trkpt>
      <trkpt lat="48.68512" lon="1.95074">
        <ele>189.6</ele>
        <time>2026-03-29T13:40:31Z</time>
      </trkpt>
      <trkpt lat="48.68508" lon="1.95083">
        <ele>189.6</ele>
        <time>2026-03-29T13:40:32Z</time>
      </trkpt>
      <trkpt lat="48.68505" lon="1.95093">
        <ele>189.6</ele>
        <time>2026-03-29T13:40:33Z</time>
      </trkpt>
      <trkpt lat="48.68505" lon="1.95104">
        <ele>189.4</ele>
        <time>2026-03-29T13:40:34Z</time>
      </trkpt>
      <trkpt lat="48.68503" lon="1.95114">
        <ele>189.4</ele>
        <time>2026-03-29T13:40:35Z</time>
      </trkpt>
      <trkpt lat="48.68504" lon="1.95125">
        <ele>189.4</ele>
        <time>2026-03-29T13:40:36Z</time>
      </trkpt>
      <trkpt lat="48.68504" lon="1.95136">
        <ele>189.4</ele>
        <time>2026-03-29T13:40:37Z</time>
      </trkpt>
      <trkpt lat="48.68503" lon="1.95146">
        <ele>189.4</ele>
        <time>2026-03-29T13:40:38Z</time>
      </trkpt>
      <trkpt lat="48.68501" lon="1.95153">
        <ele>189.4</ele>
        <time>2026-03-29T13:40:39Z</time>
      </trkpt>
      <trkpt lat="48.68499" lon="1.9516">
        <ele>189.4</ele>
        <time>2026-03-29T13:40:40Z</time>
      </trkpt>
      <trkpt lat="48.68497" lon="1.9517">
        <ele>189.4</ele>
        <time>2026-03-29T13:40:41Z</time>
      </trkpt>
      <trkpt lat="48.68495" lon="1.9518">
        <ele>189.6</ele>
        <time>2026-03-29T13:40:42Z</time>
      </trkpt>
      <trkpt lat="48.68497" lon="1.95191">
        <ele>189.6</ele>
        <time>2026-03-29T13:40:43Z</time>
      </trkpt>
      <trkpt lat="48.68499" lon="1.952">
        <ele>189.6</ele>
        <time>2026-03-29T13:40:44Z</time>
      </trkpt>
      <trkpt lat="48.68501" lon="1.95211">
        <ele>189.6</ele>
        <time>2026-03-29T13:40:45Z</time>
      </trkpt>
      <trkpt lat="48.68503" lon="1.95221">
        <ele>189.6</ele>
        <time>2026-03-29T13:40:46Z</time>
      </trkpt>
      <trkpt lat="48.68504" lon="1.95231">
        <ele>189.6</ele>
        <time>2026-03-29T13:40:47Z</time>
      </trkpt>
      <trkpt lat="48.68504" lon="1.95242">
        <ele>189.6</ele>
        <time>2026-03-29T13:40:48Z</time>
      </trkpt>
      <trkpt lat="48.68502" lon="1.95251">
        <ele>189.4</ele>
        <time>2026-03-29T13:40:49Z</time>
      </trkpt>
      <trkpt lat="48.68499" lon="1.95259">
        <ele>189.4</ele>
        <time>2026-03-29T13:40:50Z</time>
      </trkpt>
      <trkpt lat="48.68496" lon="1.95265">
        <ele>189.4</ele>
        <time>2026-03-29T13:40:51Z</time>
      </trkpt>
      <trkpt lat="48.68492" lon="1.95272">
        <ele>189.4</ele>
        <time>2026-03-29T13:40:52Z</time>
      </trkpt>
      <trkpt lat="48.68488" lon="1.9528">
        <ele>189.4</ele>
        <time>2026-03-29T13:40:53Z</time>
      </trkpt>
      <trkpt lat="48.68483" lon="1.95288">
        <ele>189</ele>
        <time>2026-03-29T13:40:54Z</time>
      </trkpt>
      <trkpt lat="48.68478" lon="1.95293">
        <ele>189</ele>
        <time>2026-03-29T13:40:55Z</time>
      </trkpt>
      <trkpt lat="48.68472" lon="1.95299">
        <ele>189</ele>
        <time>2026-03-29T13:40:56Z</time>
      </trkpt>
      <trkpt lat="48.68466" lon="1.95305">
        <ele>189</ele>
        <time>2026-03-29T13:40:57Z</time>
      </trkpt>
      <trkpt lat="48.68462" lon="1.95311">
        <ele>188.8</ele>
        <time>2026-03-29T13:40:58Z</time>
      </trkpt>
      <trkpt lat="48.68457" lon="1.95319">
        <ele>188.8</ele>
        <time>2026-03-29T13:40:59Z</time>
      </trkpt>
      <trkpt lat="48.68455" lon="1.95328">
        <ele>188.8</ele>
        <time>2026-03-29T13:41:00Z</time>
      </trkpt>
      <trkpt lat="48.68453" lon="1.95337">
        <ele>189</ele>
        <time>2026-03-29T13:41:01Z</time>
      </trkpt>
      <trkpt lat="48.68451" lon="1.95346">
        <ele>189</ele>
        <time>2026-03-29T13:41:02Z</time>
      </trkpt>
      <trkpt lat="48.68449" lon="1.95355">
        <ele>189</ele>
        <time>2026-03-29T13:41:03Z</time>
      </trkpt>
      <trkpt lat="48.68446" lon="1.95365">
        <ele>189</ele>
        <time>2026-03-29T13:41:04Z</time>
      </trkpt>
      <trkpt lat="48.68443" lon="1.95374">
        <ele>188.6</ele>
        <time>2026-03-29T13:41:05Z</time>
      </trkpt>
      <trkpt lat="48.68441" lon="1.95382">
        <ele>188.4</ele>
        <time>2026-03-29T13:41:06Z</time>
      </trkpt>
      <trkpt lat="48.68437" lon="1.95393">
        <ele>188.4</ele>
        <time>2026-03-29T13:41:07Z</time>
      </trkpt>
      <trkpt lat="48.68435" lon="1.95401">
        <ele>188.4</ele>
        <time>2026-03-29T13:41:08Z</time>
      </trkpt>
      <trkpt lat="48.68431" lon="1.9541">
        <ele>188.6</ele>
        <time>2026-03-29T13:41:09Z</time>
      </trkpt>
      <trkpt lat="48.68428" lon="1.95416">
        <ele>189</ele>
        <time>2026-03-29T13:41:10Z</time>
      </trkpt>
      <trkpt lat="48.68424" lon="1.95426">
        <ele>189</ele>
        <time>2026-03-29T13:41:11Z</time>
      </trkpt>
      <trkpt lat="48.68421" lon="1.95435">
        <ele>189</ele>
        <time>2026-03-29T13:41:12Z</time>
      </trkpt>
      <trkpt lat="48.68418" lon="1.95445">
        <ele>189</ele>
        <time>2026-03-29T13:41:13Z</time>
      </trkpt>
      <trkpt lat="48.68416" lon="1.95453">
        <ele>188.8</ele>
        <time>2026-03-29T13:41:14Z</time>
      </trkpt>
      <trkpt lat="48.68413" lon="1.95462">
        <ele>188.8</ele>
        <time>2026-03-29T13:41:15Z</time>
      </trkpt>
      <trkpt lat="48.68413" lon="1.95471">
        <ele>188.8</ele>
        <time>2026-03-29T13:41:16Z</time>
      </trkpt>
      <trkpt lat="48.68412" lon="1.9548">
        <ele>188.6</ele>
        <time>2026-03-29T13:41:17Z</time>
      </trkpt>
      <trkpt lat="48.68412" lon="1.95489">
        <ele>188.8</ele>
        <time>2026-03-29T13:41:18Z</time>
      </trkpt>
      <trkpt lat="48.68411" lon="1.95497">
        <ele>188.8</ele>
        <time>2026-03-29T13:41:19Z</time>
      </trkpt>
      <trkpt lat="48.68411" lon="1.95504">
        <ele>188.8</ele>
        <time>2026-03-29T13:41:20Z</time>
      </trkpt>
      <trkpt lat="48.68411" lon="1.95512">
        <ele>188.8</ele>
        <time>2026-03-29T13:41:21Z</time>
      </trkpt>
      <trkpt lat="48.68412" lon="1.9552">
        <ele>189</ele>
        <time>2026-03-29T13:41:22Z</time>
      </trkpt>
      <trkpt lat="48.68413" lon="1.95529">
        <ele>189</ele>
        <time>2026-03-29T13:41:23Z</time>
      </trkpt>
      <trkpt lat="48.68415" lon="1.95537">
        <ele>189</ele>
        <time>2026-03-29T13:41:24Z</time>
      </trkpt>
      <trkpt lat="48.68416" lon="1.95546">
        <ele>189</ele>
        <time>2026-03-29T13:41:25Z</time>
      </trkpt>
      <trkpt lat="48.68416" lon="1.95555">
        <ele>188.2</ele>
        <time>2026-03-29T13:41:26Z</time>
      </trkpt>
      <trkpt lat="48.68416" lon="1.95564">
        <ele>188.2</ele>
        <time>2026-03-29T13:41:27Z</time>
      </trkpt>
      <trkpt lat="48.68416" lon="1.95573">
        <ele>188.2</ele>
        <time>2026-03-29T13:41:28Z</time>
      </trkpt>
      <trkpt lat="48.68417" lon="1.95583">
        <ele>188.4</ele>
        <time>2026-03-29T13:41:29Z</time>
      </trkpt>
      <trkpt lat="48.68419" lon="1.95593">
        <ele>188.2</ele>
        <time>2026-03-29T13:41:30Z</time>
      </trkpt>
      <trkpt lat="48.68425" lon="1.95601">
        <ele>188.2</ele>
        <time>2026-03-29T13:41:31Z</time>
      </trkpt>
      <trkpt lat="48.68429" lon="1.95608">
        <ele>188.2</ele>
        <time>2026-03-29T13:41:32Z</time>
      </trkpt>
      <trkpt lat="48.68434" lon="1.95615">
        <ele>188.2</ele>
        <time>2026-03-29T13:41:33Z</time>
      </trkpt>
      <trkpt lat="48.68438" lon="1.95623">
        <ele>187.6</ele>
        <time>2026-03-29T13:41:34Z</time>
      </trkpt>
      <trkpt lat="48.68442" lon="1.95632">
        <ele>187.6</ele>
        <time>2026-03-29T13:41:35Z</time>
      </trkpt>
      <trkpt lat="48.68446" lon="1.95641">
        <ele>187.6</ele>
        <time>2026-03-29T13:41:36Z</time>
      </trkpt>
      <trkpt lat="48.6845" lon="1.9565">
        <ele>187</ele>
        <time>2026-03-29T13:41:37Z</time>
      </trkpt>
      <trkpt lat="48.68453" lon="1.95659">
        <ele>186.6</ele>
        <time>2026-03-29T13:41:38Z</time>
      </trkpt>
      <trkpt lat="48.68456" lon="1.95669">
        <ele>186.6</ele>
        <time>2026-03-29T13:41:39Z</time>
      </trkpt>
      <trkpt lat="48.6846" lon="1.95678">
        <ele>186.6</ele>
        <time>2026-03-29T13:41:40Z</time>
      </trkpt>
      <trkpt lat="48.68464" lon="1.95686">
        <ele>187</ele>
        <time>2026-03-29T13:41:41Z</time>
      </trkpt>
      <trkpt lat="48.68468" lon="1.95692">
        <ele>186.6</ele>
        <time>2026-03-29T13:41:42Z</time>
      </trkpt>
      <trkpt lat="48.68473" lon="1.95697">
        <ele>186.6</ele>
        <time>2026-03-29T13:41:43Z</time>
      </trkpt>
      <trkpt lat="48.68478" lon="1.95702">
        <ele>186.6</ele>
        <time>2026-03-29T13:41:44Z</time>
      </trkpt>
      <trkpt lat="48.68482" lon="1.95705">
        <ele>186.6</ele>
        <time>2026-03-29T13:41:45Z</time>
      </trkpt>
      <trkpt lat="48.68487" lon="1.95709">
        <ele>186.2</ele>
        <time>2026-03-29T13:41:46Z</time>
      </trkpt>
      <trkpt lat="48.68491" lon="1.95714">
        <ele>186.2</ele>
        <time>2026-03-29T13:41:47Z</time>
      </trkpt>
      <trkpt lat="48.68494" lon="1.95717">
        <ele>186.2</ele>
        <time>2026-03-29T13:41:48Z</time>
      </trkpt>
      <trkpt lat="48.68497" lon="1.9572">
        <ele>185.6</ele>
        <time>2026-03-29T13:41:49Z</time>
      </trkpt>
      <trkpt lat="48.685" lon="1.95723">
        <ele>185</ele>
        <time>2026-03-29T13:41:50Z</time>
      </trkpt>
      <trkpt lat="48.68503" lon="1.95725">
        <ele>185</ele>
        <time>2026-03-29T13:41:51Z</time>
      </trkpt>
      <trkpt lat="48.68505" lon="1.95727">
        <ele>185</ele>
        <time>2026-03-29T13:41:52Z</time>
      </trkpt>
      <trkpt lat="48.68507" lon="1.95729">
        <ele>185</ele>
        <time>2026-03-29T13:41:53Z</time>
      </trkpt>
      <trkpt lat="48.68509" lon="1.95731">
        <ele>184.6</ele>
        <time>2026-03-29T13:41:54Z</time>
      </trkpt>
      <trkpt lat="48.68512" lon="1.95732">
        <ele>184.6</ele>
        <time>2026-03-29T13:41:55Z</time>
      </trkpt>
      <trkpt lat="48.68513" lon="1.95734">
        <ele>184.6</ele>
        <time>2026-03-29T13:41:56Z</time>
      </trkpt>
      <trkpt lat="48.68516" lon="1.95736">
        <ele>184.6</ele>
        <time>2026-03-29T13:41:57Z</time>
      </trkpt>
      <trkpt lat="48.68518" lon="1.95738">
        <ele>185.2</ele>
        <time>2026-03-29T13:41:58Z</time>
      </trkpt>
      <trkpt lat="48.68519" lon="1.95739">
        <ele>185.2</ele>
        <time>2026-03-29T13:41:59Z</time>
      </trkpt>
      <trkpt lat="48.68521" lon="1.95742">
        <ele>185.2</ele>
        <time>2026-03-29T13:42:00Z</time>
      </trkpt>
      <trkpt lat="48.68523" lon="1.95743">
        <ele>184.4</ele>
        <time>2026-03-29T13:42:01Z</time>
      </trkpt>
      <trkpt lat="48.68525" lon="1.95748">
        <ele>184.4</ele>
        <time>2026-03-29T13:42:02Z</time>
      </trkpt>
      <trkpt lat="48.68528" lon="1.95752">
        <ele>184.4</ele>
        <time>2026-03-29T13:42:03Z</time>
      </trkpt>
      <trkpt lat="48.68532" lon="1.95756">
        <ele>184.4</ele>
        <time>2026-03-29T13:42:04Z</time>
      </trkpt>
      <trkpt lat="48.68537" lon="1.9576">
        <ele>184.4</ele>
        <time>2026-03-29T13:42:05Z</time>
      </trkpt>
      <trkpt lat="48.68544" lon="1.95764">
        <ele>185.2</ele>
        <time>2026-03-29T13:42:06Z</time>
      </trkpt>
      <trkpt lat="48.6855" lon="1.95769">
        <ele>185.2</ele>
        <time>2026-03-29T13:42:07Z</time>
      </trkpt>
      <trkpt lat="48.68555" lon="1.95774">
        <ele>185.2</ele>
        <time>2026-03-29T13:42:08Z</time>
      </trkpt>
      <trkpt lat="48.6856" lon="1.95779">
        <ele>186.2</ele>
        <time>2026-03-29T13:42:09Z</time>
      </trkpt>
      <trkpt lat="48.68564" lon="1.95785">
        <ele>187.2</ele>
        <time>2026-03-29T13:42:10Z</time>
      </trkpt>
      <trkpt lat="48.68566" lon="1.9579">
        <ele>187.2</ele>
        <time>2026-03-29T13:42:11Z</time>
      </trkpt>
      <trkpt lat="48.68571" lon="1.95795">
        <ele>187.2</ele>
        <time>2026-03-29T13:42:12Z</time>
      </trkpt>
      <trkpt lat="48.68575" lon="1.95799">
        <ele>188</ele>
        <time>2026-03-29T13:42:13Z</time>
      </trkpt>
      <trkpt lat="48.6858" lon="1.95801">
        <ele>189</ele>
        <time>2026-03-29T13:42:14Z</time>
      </trkpt>
      <trkpt lat="48.68584" lon="1.95803">
        <ele>189</ele>
        <time>2026-03-29T13:42:15Z</time>
      </trkpt>
      <trkpt lat="48.68589" lon="1.95804">
        <ele>189</ele>
        <time>2026-03-29T13:42:16Z</time>
      </trkpt>
      <trkpt lat="48.68594" lon="1.95806">
        <ele>189</ele>
        <time>2026-03-29T13:42:17Z</time>
      </trkpt>
      <trkpt lat="48.68599" lon="1.95807">
        <ele>189.2</ele>
        <time>2026-03-29T13:42:18Z</time>
      </trkpt>
      <trkpt lat="48.68603" lon="1.95808">
        <ele>189.2</ele>
        <time>2026-03-29T13:42:19Z</time>
      </trkpt>
      <trkpt lat="48.68608" lon="1.9581">
        <ele>189.2</ele>
        <time>2026-03-29T13:42:20Z</time>
      </trkpt>
      <trkpt lat="48.68613" lon="1.95812">
        <ele>190.2</ele>
        <time>2026-03-29T13:42:21Z</time>
      </trkpt>
      <trkpt lat="48.68618" lon="1.95813">
        <ele>190</ele>
        <time>2026-03-29T13:42:22Z</time>
      </trkpt>
      <trkpt lat="48.68623" lon="1.95816">
        <ele>190</ele>
        <time>2026-03-29T13:42:23Z</time>
      </trkpt>
      <trkpt lat="48.68627" lon="1.95819">
        <ele>190</ele>
        <time>2026-03-29T13:42:24Z</time>
      </trkpt>
      <trkpt lat="48.68631" lon="1.95822">
        <ele>191</ele>
        <time>2026-03-29T13:42:25Z</time>
      </trkpt>
      <trkpt lat="48.68634" lon="1.95825">
        <ele>191</ele>
        <time>2026-03-29T13:42:26Z</time>
      </trkpt>
      <trkpt lat="48.68639" lon="1.95828">
        <ele>191</ele>
        <time>2026-03-29T13:42:27Z</time>
      </trkpt>
      <trkpt lat="48.68644" lon="1.9583">
        <ele>191</ele>
        <time>2026-03-29T13:42:28Z</time>
      </trkpt>
      <trkpt lat="48.68649" lon="1.95831">
        <ele>191</ele>
        <time>2026-03-29T13:42:29Z</time>
      </trkpt>
      <trkpt lat="48.68654" lon="1.95833">
        <ele>191</ele>
        <time>2026-03-29T13:42:30Z</time>
      </trkpt>
      <trkpt lat="48.6866" lon="1.95835">
        <ele>191</ele>
        <time>2026-03-29T13:42:31Z</time>
      </trkpt>
      <trkpt lat="48.68663" lon="1.95838">
        <ele>191</ele>
        <time>2026-03-29T13:42:32Z</time>
      </trkpt>
      <trkpt lat="48.68667" lon="1.95844">
        <ele>191.8</ele>
        <time>2026-03-29T13:42:33Z</time>
      </trkpt>
      <trkpt lat="48.68671" lon="1.95849">
        <ele>191.8</ele>
        <time>2026-03-29T13:42:34Z</time>
      </trkpt>
      <trkpt lat="48.68675" lon="1.95853">
        <ele>191.8</ele>
        <time>2026-03-29T13:42:35Z</time>
      </trkpt>
      <trkpt lat="48.68679" lon="1.95858">
        <ele>191.8</ele>
        <time>2026-03-29T13:42:36Z</time>
      </trkpt>
      <trkpt lat="48.68683" lon="1.95863">
        <ele>191.8</ele>
        <time>2026-03-29T13:42:37Z</time>
      </trkpt>
      <trkpt lat="48.68687" lon="1.95867">
        <ele>192</ele>
        <time>2026-03-29T13:42:38Z</time>
      </trkpt>
      <trkpt lat="48.6869" lon="1.95871">
        <ele>192</ele>
        <time>2026-03-29T13:42:39Z</time>
      </trkpt>
      <trkpt lat="48.68693" lon="1.95875">
        <ele>192</ele>
        <time>2026-03-29T13:42:40Z</time>
      </trkpt>
      <trkpt lat="48.68698" lon="1.95878">
        <ele>192</ele>
        <time>2026-03-29T13:42:41Z</time>
      </trkpt>
      <trkpt lat="48.68702" lon="1.95882">
        <ele>191.8</ele>
        <time>2026-03-29T13:42:42Z</time>
      </trkpt>
      <trkpt lat="48.68706" lon="1.95886">
        <ele>191.8</ele>
        <time>2026-03-29T13:42:43Z</time>
      </trkpt>
      <trkpt lat="48.6871" lon="1.9589">
        <ele>191.8</ele>
        <time>2026-03-29T13:42:44Z</time>
      </trkpt>
      <trkpt lat="48.68712" lon="1.95894">
        <ele>191.8</ele>
        <time>2026-03-29T13:42:45Z</time>
      </trkpt>
      <trkpt lat="48.68715" lon="1.95899">
        <ele>191.8</ele>
        <time>2026-03-29T13:42:46Z</time>
      </trkpt>
      <trkpt lat="48.68718" lon="1.95904">
        <ele>191.8</ele>
        <time>2026-03-29T13:42:47Z</time>
      </trkpt>
      <trkpt lat="48.6872" lon="1.95909">
        <ele>191.8</ele>
        <time>2026-03-29T13:42:48Z</time>
      </trkpt>
      <trkpt lat="48.68724" lon="1.95915">
        <ele>191.8</ele>
        <time>2026-03-29T13:42:49Z</time>
      </trkpt>
      <trkpt lat="48.68728" lon="1.95922">
        <ele>191.6</ele>
        <time>2026-03-29T13:42:50Z</time>
      </trkpt>
      <trkpt lat="48.68732" lon="1.95928">
        <ele>191.6</ele>
        <time>2026-03-29T13:42:51Z</time>
      </trkpt>
      <trkpt lat="48.68736" lon="1.95935">
        <ele>191.6</ele>
        <time>2026-03-29T13:42:52Z</time>
      </trkpt>
      <trkpt lat="48.6874" lon="1.9594">
        <ele>191.6</ele>
        <time>2026-03-29T13:42:53Z</time>
      </trkpt>
      <trkpt lat="48.68743" lon="1.95945">
        <ele>191.4</ele>
        <time>2026-03-29T13:42:54Z</time>
      </trkpt>
      <trkpt lat="48.68746" lon="1.95951">
        <ele>191.4</ele>
        <time>2026-03-29T13:42:55Z</time>
      </trkpt>
      <trkpt lat="48.68747" lon="1.95956">
        <ele>191.4</ele>
        <time>2026-03-29T13:42:56Z</time>
      </trkpt>
      <trkpt lat="48.68748" lon="1.95962">
        <ele>191.4</ele>
        <time>2026-03-29T13:42:57Z</time>
      </trkpt>
      <trkpt lat="48.68751" lon="1.95969">
        <ele>190.8</ele>
        <time>2026-03-29T13:42:58Z</time>
      </trkpt>
      <trkpt lat="48.68755" lon="1.95974">
        <ele>190.8</ele>
        <time>2026-03-29T13:42:59Z</time>
      </trkpt>
      <trkpt lat="48.68759" lon="1.95978">
        <ele>190.8</ele>
        <time>2026-03-29T13:43:00Z</time>
      </trkpt>
      <trkpt lat="48.68762" lon="1.95983">
        <ele>190.8</ele>
        <time>2026-03-29T13:43:01Z</time>
      </trkpt>
      <trkpt lat="48.68767" lon="1.95988">
        <ele>190.4</ele>
        <time>2026-03-29T13:43:02Z</time>
      </trkpt>
      <trkpt lat="48.68772" lon="1.9599">
        <ele>190.4</ele>
        <time>2026-03-29T13:43:03Z</time>
      </trkpt>
      <trkpt lat="48.68777" lon="1.9599">
        <ele>190.4</ele>
        <time>2026-03-29T13:43:04Z</time>
      </trkpt>
      <trkpt lat="48.68782" lon="1.9599">
        <ele>189.8</ele>
        <time>2026-03-29T13:43:05Z</time>
      </trkpt>
      <trkpt lat="48.68787" lon="1.9599">
        <ele>189.2</ele>
        <time>2026-03-29T13:43:06Z</time>
      </trkpt>
      <trkpt lat="48.68793" lon="1.95989">
        <ele>189.2</ele>
        <time>2026-03-29T13:43:07Z</time>
      </trkpt>
      <trkpt lat="48.68799" lon="1.95987">
        <ele>189.2</ele>
        <time>2026-03-29T13:43:08Z</time>
      </trkpt>
      <trkpt lat="48.68806" lon="1.95984">
        <ele>188.6</ele>
        <time>2026-03-29T13:43:09Z</time>
      </trkpt>
      <trkpt lat="48.68811" lon="1.9598">
        <ele>188.8</ele>
        <time>2026-03-29T13:43:10Z</time>
      </trkpt>
      <trkpt lat="48.68818" lon="1.95977">
        <ele>188.8</ele>
        <time>2026-03-29T13:43:11Z</time>
      </trkpt>
      <trkpt lat="48.68824" lon="1.95973">
        <ele>188.8</ele>
        <time>2026-03-29T13:43:12Z</time>
      </trkpt>
      <trkpt lat="48.6883" lon="1.9597">
        <ele>188.6</ele>
        <time>2026-03-29T13:43:13Z</time>
      </trkpt>
      <trkpt lat="48.68835" lon="1.95967">
        <ele>188.8</ele>
        <time>2026-03-29T13:43:14Z</time>
      </trkpt>
      <trkpt lat="48.68839" lon="1.95963">
        <ele>188.8</ele>
        <time>2026-03-29T13:43:15Z</time>
      </trkpt>
      <trkpt lat="48.68844" lon="1.95959">
        <ele>188.8</ele>
        <time>2026-03-29T13:43:16Z</time>
      </trkpt>
      <trkpt lat="48.68848" lon="1.95955">
        <ele>189.2</ele>
        <time>2026-03-29T13:43:17Z</time>
      </trkpt>
      <trkpt lat="48.68851" lon="1.95951">
        <ele>189.4</ele>
        <time>2026-03-29T13:43:18Z</time>
      </trkpt>
      <trkpt lat="48.68856" lon="1.95947">
        <ele>189.4</ele>
        <time>2026-03-29T13:43:19Z</time>
      </trkpt>
      <trkpt lat="48.68859" lon="1.95944">
        <ele>189.4</ele>
        <time>2026-03-29T13:43:20Z</time>
      </trkpt>
      <trkpt lat="48.68863" lon="1.95941">
        <ele>190.4</ele>
        <time>2026-03-29T13:43:21Z</time>
      </trkpt>
      <trkpt lat="48.68867" lon="1.9594">
        <ele>190.2</ele>
        <time>2026-03-29T13:43:22Z</time>
      </trkpt>
      <trkpt lat="48.6887" lon="1.95939">
        <ele>190.2</ele>
        <time>2026-03-29T13:43:23Z</time>
      </trkpt>
      <trkpt lat="48.68873" lon="1.95939">
        <ele>190.2</ele>
        <time>2026-03-29T13:43:24Z</time>
      </trkpt>
      <trkpt lat="48.68877" lon="1.95939">
        <ele>191.2</ele>
        <time>2026-03-29T13:43:25Z</time>
      </trkpt>
      <trkpt lat="48.68881" lon="1.95939">
        <ele>190.4</ele>
        <time>2026-03-29T13:43:26Z</time>
      </trkpt>
      <trkpt lat="48.68886" lon="1.9594">
        <ele>190.4</ele>
        <time>2026-03-29T13:43:27Z</time>
      </trkpt>
      <trkpt lat="48.6889" lon="1.95941">
        <ele>190.4</ele>
        <time>2026-03-29T13:43:28Z</time>
      </trkpt>
      <trkpt lat="48.68894" lon="1.95944">
        <ele>191.4</ele>
        <time>2026-03-29T13:43:29Z</time>
      </trkpt>
      <trkpt lat="48.68898" lon="1.95944">
        <ele>191.2</ele>
        <time>2026-03-29T13:43:30Z</time>
      </trkpt>
      <trkpt lat="48.68903" lon="1.95943">
        <ele>191.2</ele>
        <time>2026-03-29T13:43:31Z</time>
      </trkpt>
      <trkpt lat="48.68908" lon="1.95943">
        <ele>191.2</ele>
        <time>2026-03-29T13:43:32Z</time>
      </trkpt>
      <trkpt lat="48.68913" lon="1.95942">
        <ele>191.2</ele>
        <time>2026-03-29T13:43:33Z</time>
      </trkpt>
      <trkpt lat="48.68917" lon="1.95943">
        <ele>191.4</ele>
        <time>2026-03-29T13:43:34Z</time>
      </trkpt>
      <trkpt lat="48.68922" lon="1.95944">
        <ele>191.4</ele>
        <time>2026-03-29T13:43:35Z</time>
      </trkpt>
      <trkpt lat="48.68927" lon="1.95947">
        <ele>191.4</ele>
        <time>2026-03-29T13:43:36Z</time>
      </trkpt>
      <trkpt lat="48.68931" lon="1.95947">
        <ele>191.6</ele>
        <time>2026-03-29T13:43:37Z</time>
      </trkpt>
      <trkpt lat="48.68937" lon="1.95946">
        <ele>191.8</ele>
        <time>2026-03-29T13:43:38Z</time>
      </trkpt>
      <trkpt lat="48.68942" lon="1.95945">
        <ele>191.8</ele>
        <time>2026-03-29T13:43:39Z</time>
      </trkpt>
      <trkpt lat="48.68947" lon="1.95943">
        <ele>191.8</ele>
        <time>2026-03-29T13:43:40Z</time>
      </trkpt>
      <trkpt lat="48.68952" lon="1.95942">
        <ele>192.4</ele>
        <time>2026-03-29T13:43:41Z</time>
      </trkpt>
      <trkpt lat="48.68957" lon="1.95941">
        <ele>192.6</ele>
        <time>2026-03-29T13:43:42Z</time>
      </trkpt>
      <trkpt lat="48.68962" lon="1.95942">
        <ele>192.6</ele>
        <time>2026-03-29T13:43:43Z</time>
      </trkpt>
      <trkpt lat="48.68966" lon="1.95943">
        <ele>192.6</ele>
        <time>2026-03-29T13:43:44Z</time>
      </trkpt>
      <trkpt lat="48.68971" lon="1.95948">
        <ele>192.6</ele>
        <time>2026-03-29T13:43:45Z</time>
      </trkpt>
      <trkpt lat="48.68974" lon="1.95953">
        <ele>192.8</ele>
        <time>2026-03-29T13:43:46Z</time>
      </trkpt>
      <trkpt lat="48.68978" lon="1.9596">
        <ele>192.8</ele>
        <time>2026-03-29T13:43:47Z</time>
      </trkpt>
      <trkpt lat="48.68982" lon="1.95966">
        <ele>192.8</ele>
        <time>2026-03-29T13:43:48Z</time>
      </trkpt>
      <trkpt lat="48.68986" lon="1.9597">
        <ele>192.8</ele>
        <time>2026-03-29T13:43:49Z</time>
      </trkpt>
      <trkpt lat="48.6899" lon="1.95974">
        <ele>192.8</ele>
        <time>2026-03-29T13:43:50Z</time>
      </trkpt>
      <trkpt lat="48.68995" lon="1.95977">
        <ele>192.8</ele>
        <time>2026-03-29T13:43:51Z</time>
      </trkpt>
      <trkpt lat="48.68999" lon="1.95981">
        <ele>192.8</ele>
        <time>2026-03-29T13:43:52Z</time>
      </trkpt>
      <trkpt lat="48.69004" lon="1.95985">
        <ele>192</ele>
        <time>2026-03-29T13:43:53Z</time>
      </trkpt>
      <trkpt lat="48.69009" lon="1.95988">
        <ele>192.4</ele>
        <time>2026-03-29T13:43:54Z</time>
      </trkpt>
      <trkpt lat="48.69015" lon="1.95991">
        <ele>192.4</ele>
        <time>2026-03-29T13:43:55Z</time>
      </trkpt>
      <trkpt lat="48.6902" lon="1.95994">
        <ele>192.4</ele>
        <time>2026-03-29T13:43:56Z</time>
      </trkpt>
      <trkpt lat="48.69025" lon="1.95995">
        <ele>191.6</ele>
        <time>2026-03-29T13:43:57Z</time>
      </trkpt>
      <trkpt lat="48.6903" lon="1.95993">
        <ele>192</ele>
        <time>2026-03-29T13:43:58Z</time>
      </trkpt>
      <trkpt lat="48.69036" lon="1.95993">
        <ele>192</ele>
        <time>2026-03-29T13:43:59Z</time>
      </trkpt>
      <trkpt lat="48.69041" lon="1.95992">
        <ele>192</ele>
        <time>2026-03-29T13:44:00Z</time>
      </trkpt>
      <trkpt lat="48.69047" lon="1.95992">
        <ele>192</ele>
        <time>2026-03-29T13:44:01Z</time>
      </trkpt>
      <trkpt lat="48.69052" lon="1.95992">
        <ele>191.6</ele>
        <time>2026-03-29T13:44:02Z</time>
      </trkpt>
      <trkpt lat="48.69058" lon="1.95991">
        <ele>191.6</ele>
        <time>2026-03-29T13:44:03Z</time>
      </trkpt>
      <trkpt lat="48.69063" lon="1.95991">
        <ele>191.6</ele>
        <time>2026-03-29T13:44:04Z</time>
      </trkpt>
      <trkpt lat="48.69069" lon="1.9599">
        <ele>191.8</ele>
        <time>2026-03-29T13:44:05Z</time>
      </trkpt>
      <trkpt lat="48.69073" lon="1.95989">
        <ele>192.2</ele>
        <time>2026-03-29T13:44:06Z</time>
      </trkpt>
      <trkpt lat="48.69079" lon="1.95988">
        <ele>192.2</ele>
        <time>2026-03-29T13:44:07Z</time>
      </trkpt>
      <trkpt lat="48.69084" lon="1.95986">
        <ele>192.2</ele>
        <time>2026-03-29T13:44:08Z</time>
      </trkpt>
      <trkpt lat="48.69091" lon="1.95984">
        <ele>191.4</ele>
        <time>2026-03-29T13:44:09Z</time>
      </trkpt>
      <trkpt lat="48.69096" lon="1.95982">
        <ele>191.4</ele>
        <time>2026-03-29T13:44:10Z</time>
      </trkpt>
      <trkpt lat="48.69102" lon="1.95979">
        <ele>191.4</ele>
        <time>2026-03-29T13:44:11Z</time>
      </trkpt>
      <trkpt lat="48.69106" lon="1.95974">
        <ele>191.4</ele>
        <time>2026-03-29T13:44:12Z</time>
      </trkpt>
      <trkpt lat="48.69112" lon="1.9597">
        <ele>191.4</ele>
        <time>2026-03-29T13:44:13Z</time>
      </trkpt>
      <trkpt lat="48.69118" lon="1.95968">
        <ele>191.2</ele>
        <time>2026-03-29T13:44:14Z</time>
      </trkpt>
      <trkpt lat="48.69124" lon="1.95967">
        <ele>191.2</ele>
        <time>2026-03-29T13:44:15Z</time>
      </trkpt>
      <trkpt lat="48.6913" lon="1.95966">
        <ele>191.2</ele>
        <time>2026-03-29T13:44:16Z</time>
      </trkpt>
      <trkpt lat="48.69136" lon="1.95964">
        <ele>191.2</ele>
        <time>2026-03-29T13:44:17Z</time>
      </trkpt>
      <trkpt lat="48.69141" lon="1.95963">
        <ele>191.2</ele>
        <time>2026-03-29T13:44:18Z</time>
      </trkpt>
      <trkpt lat="48.69146" lon="1.95962">
        <ele>191.2</ele>
        <time>2026-03-29T13:44:19Z</time>
      </trkpt>
      <trkpt lat="48.69152" lon="1.9596">
        <ele>191.2</ele>
        <time>2026-03-29T13:44:20Z</time>
      </trkpt>
      <trkpt lat="48.69158" lon="1.95956">
        <ele>190.6</ele>
        <time>2026-03-29T13:44:21Z</time>
      </trkpt>
      <trkpt lat="48.69164" lon="1.95951">
        <ele>190.4</ele>
        <time>2026-03-29T13:44:22Z</time>
      </trkpt>
      <trkpt lat="48.69169" lon="1.95946">
        <ele>190.4</ele>
        <time>2026-03-29T13:44:23Z</time>
      </trkpt>
      <trkpt lat="48.69174" lon="1.95941">
        <ele>190.4</ele>
        <time>2026-03-29T13:44:24Z</time>
      </trkpt>
      <trkpt lat="48.69178" lon="1.95937">
        <ele>189.4</ele>
        <time>2026-03-29T13:44:25Z</time>
      </trkpt>
      <trkpt lat="48.69183" lon="1.9594">
        <ele>189</ele>
        <time>2026-03-29T13:44:26Z</time>
      </trkpt>
      <trkpt lat="48.69188" lon="1.95942">
        <ele>189</ele>
        <time>2026-03-29T13:44:27Z</time>
      </trkpt>
      <trkpt lat="48.69193" lon="1.95944">
        <ele>189</ele>
        <time>2026-03-29T13:44:28Z</time>
      </trkpt>
      <trkpt lat="48.69197" lon="1.95944">
        <ele>188.6</ele>
        <time>2026-03-29T13:44:29Z</time>
      </trkpt>
      <trkpt lat="48.69201" lon="1.95942">
        <ele>188.8</ele>
        <time>2026-03-29T13:44:30Z</time>
      </trkpt>
      <trkpt lat="48.69205" lon="1.95939">
        <ele>188.8</ele>
        <time>2026-03-29T13:44:31Z</time>
      </trkpt>
      <trkpt lat="48.6921" lon="1.95937">
        <ele>188.8</ele>
        <time>2026-03-29T13:44:32Z</time>
      </trkpt>
      <trkpt lat="48.69215" lon="1.95934">
        <ele>187.8</ele>
        <time>2026-03-29T13:44:33Z</time>
      </trkpt>
      <trkpt lat="48.69219" lon="1.95933">
        <ele>187</ele>
        <time>2026-03-29T13:44:34Z</time>
      </trkpt>
      <trkpt lat="48.69225" lon="1.95932">
        <ele>187</ele>
        <time>2026-03-29T13:44:35Z</time>
      </trkpt>
      <trkpt lat="48.6923" lon="1.9593">
        <ele>187</ele>
        <time>2026-03-29T13:44:36Z</time>
      </trkpt>
      <trkpt lat="48.69235" lon="1.95929">
        <ele>186</ele>
        <time>2026-03-29T13:44:37Z</time>
      </trkpt>
      <trkpt lat="48.69241" lon="1.95927">
        <ele>185.8</ele>
        <time>2026-03-29T13:44:38Z</time>
      </trkpt>
      <trkpt lat="48.69247" lon="1.95925">
        <ele>185.8</ele>
        <time>2026-03-29T13:44:39Z</time>
      </trkpt>
      <trkpt lat="48.69253" lon="1.95922">
        <ele>185.8</ele>
        <time>2026-03-29T13:44:40Z</time>
      </trkpt>
      <trkpt lat="48.69256" lon="1.9592">
        <ele>184.8</ele>
        <time>2026-03-29T13:44:41Z</time>
      </trkpt>
      <trkpt lat="48.6926" lon="1.95919">
        <ele>184</ele>
        <time>2026-03-29T13:44:42Z</time>
      </trkpt>
      <trkpt lat="48.69263" lon="1.95919">
        <ele>184</ele>
        <time>2026-03-29T13:44:43Z</time>
      </trkpt>
      <trkpt lat="48.69265" lon="1.95919">
        <ele>184</ele>
        <time>2026-03-29T13:44:44Z</time>
      </trkpt>
      <trkpt lat="48.69266" lon="1.95919">
        <ele>184</ele>
        <time>2026-03-29T13:44:45Z</time>
      </trkpt>
      <trkpt lat="48.69267" lon="1.95918">
        <ele>184</ele>
        <time>2026-03-29T13:44:46Z</time>
      </trkpt>
      <trkpt lat="48.69268" lon="1.95917">
        <ele>184</ele>
        <time>2026-03-29T13:44:47Z</time>
      </trkpt>
      <trkpt lat="48.69268" lon="1.95917">
        <ele>184</ele>
        <time>2026-03-29T13:44:48Z</time>
      </trkpt>
      <trkpt lat="48.6927" lon="1.95916">
        <ele>184</ele>
        <time>2026-03-29T13:44:49Z</time>
      </trkpt>
      <trkpt lat="48.6927" lon="1.95915">
        <ele>184.4</ele>
        <time>2026-03-29T13:44:50Z</time>
      </trkpt>
      <trkpt lat="48.69271" lon="1.95914">
        <ele>184.4</ele>
        <time>2026-03-29T13:44:51Z</time>
      </trkpt>
      <trkpt lat="48.69294" lon="1.95906">
        <ele>185.4</ele>
        <time>2026-03-29T13:45:10Z</time>
      </trkpt>
      <trkpt lat="48.69296" lon="1.95906">
        <ele>185.4</ele>
        <time>2026-03-29T13:45:11Z</time>
      </trkpt>
      <trkpt lat="48.69298" lon="1.95906">
        <ele>185.4</ele>
        <time>2026-03-29T13:45:12Z</time>
      </trkpt>
      <trkpt lat="48.69301" lon="1.95905">
        <ele>185.4</ele>
        <time>2026-03-29T13:45:13Z</time>
      </trkpt>
      <trkpt lat="48.69303" lon="1.95904">
        <ele>186.2</ele>
        <time>2026-03-29T13:45:14Z</time>
      </trkpt>
      <trkpt lat="48.69306" lon="1.95903">
        <ele>186.2</ele>
        <time>2026-03-29T13:45:15Z</time>
      </trkpt>
      <trkpt lat="48.69308" lon="1.95902">
        <ele>186.2</ele>
        <time>2026-03-29T13:45:16Z</time>
      </trkpt>
      <trkpt lat="48.69312" lon="1.95902">
        <ele>186.2</ele>
        <time>2026-03-29T13:45:17Z</time>
      </trkpt>
      <trkpt lat="48.69315" lon="1.95901">
        <ele>186.4</ele>
        <time>2026-03-29T13:45:18Z</time>
      </trkpt>
      <trkpt lat="48.69317" lon="1.959">
        <ele>186.4</ele>
        <time>2026-03-29T13:45:19Z</time>
      </trkpt>
      <trkpt lat="48.6932" lon="1.959">
        <ele>186.4</ele>
        <time>2026-03-29T13:45:20Z</time>
      </trkpt>
      <trkpt lat="48.69323" lon="1.959">
        <ele>186.4</ele>
        <time>2026-03-29T13:45:21Z</time>
      </trkpt>
      <trkpt lat="48.69326" lon="1.95899">
        <ele>187</ele>
        <time>2026-03-29T13:45:22Z</time>
      </trkpt>
      <trkpt lat="48.69328" lon="1.95898">
        <ele>187</ele>
        <time>2026-03-29T13:45:23Z</time>
      </trkpt>
      <trkpt lat="48.6933" lon="1.95897">
        <ele>187</ele>
        <time>2026-03-29T13:45:24Z</time>
      </trkpt>
      <trkpt lat="48.69334" lon="1.95896">
        <ele>187</ele>
        <time>2026-03-29T13:45:25Z</time>
      </trkpt>
      <trkpt lat="48.69337" lon="1.95895">
        <ele>186.8</ele>
        <time>2026-03-29T13:45:26Z</time>
      </trkpt>
      <trkpt lat="48.69341" lon="1.95893">
        <ele>186.8</ele>
        <time>2026-03-29T13:45:27Z</time>
      </trkpt>
      <trkpt lat="48.69344" lon="1.95889">
        <ele>186.8</ele>
        <time>2026-03-29T13:45:28Z</time>
      </trkpt>
      <trkpt lat="48.69347" lon="1.95884">
        <ele>187.2</ele>
        <time>2026-03-29T13:45:29Z</time>
      </trkpt>
      <trkpt lat="48.69349" lon="1.9588">
        <ele>187</ele>
        <time>2026-03-29T13:45:30Z</time>
      </trkpt>
      <trkpt lat="48.69352" lon="1.95875">
        <ele>187</ele>
        <time>2026-03-29T13:45:31Z</time>
      </trkpt>
      <trkpt lat="48.69354" lon="1.9587">
        <ele>187</ele>
        <time>2026-03-29T13:45:32Z</time>
      </trkpt>
      <trkpt lat="48.69356" lon="1.95866">
        <ele>187.2</ele>
        <time>2026-03-29T13:45:33Z</time>
      </trkpt>
      <trkpt lat="48.69357" lon="1.95861">
        <ele>187</ele>
        <time>2026-03-29T13:45:34Z</time>
      </trkpt>
      <trkpt lat="48.69359" lon="1.95856">
        <ele>187</ele>
        <time>2026-03-29T13:45:35Z</time>
      </trkpt>
      <trkpt lat="48.6936" lon="1.95851">
        <ele>187</ele>
        <time>2026-03-29T13:45:36Z</time>
      </trkpt>
      <trkpt lat="48.6936" lon="1.95847">
        <ele>187.8</ele>
        <time>2026-03-29T13:45:37Z</time>
      </trkpt>
      <trkpt lat="48.69361" lon="1.95843">
        <ele>188</ele>
        <time>2026-03-29T13:45:38Z</time>
      </trkpt>
      <trkpt lat="48.69362" lon="1.95838">
        <ele>188</ele>
        <time>2026-03-29T13:45:39Z</time>
      </trkpt>
      <trkpt lat="48.69363" lon="1.95833">
        <ele>188</ele>
        <time>2026-03-29T13:45:40Z</time>
      </trkpt>
      <trkpt lat="48.69364" lon="1.95828">
        <ele>188</ele>
        <time>2026-03-29T13:45:41Z</time>
      </trkpt>
      <trkpt lat="48.69365" lon="1.95824">
        <ele>187.6</ele>
        <time>2026-03-29T13:45:42Z</time>
      </trkpt>
      <trkpt lat="48.69366" lon="1.95819">
        <ele>187.6</ele>
        <time>2026-03-29T13:45:43Z</time>
      </trkpt>
      <trkpt lat="48.69367" lon="1.95814">
        <ele>187.6</ele>
        <time>2026-03-29T13:45:44Z</time>
      </trkpt>
      <trkpt lat="48.69369" lon="1.95808">
        <ele>188</ele>
        <time>2026-03-29T13:45:45Z</time>
      </trkpt>
      <trkpt lat="48.6937" lon="1.95803">
        <ele>188</ele>
        <time>2026-03-29T13:45:46Z</time>
      </trkpt>
      <trkpt lat="48.69371" lon="1.95798">
        <ele>188</ele>
        <time>2026-03-29T13:45:47Z</time>
      </trkpt>
      <trkpt lat="48.69373" lon="1.95794">
        <ele>188</ele>
        <time>2026-03-29T13:45:48Z</time>
      </trkpt>
      <trkpt lat="48.69376" lon="1.95788">
        <ele>188.2</ele>
        <time>2026-03-29T13:45:49Z</time>
      </trkpt>
      <trkpt lat="48.69377" lon="1.95783">
        <ele>188.2</ele>
        <time>2026-03-29T13:45:50Z</time>
      </trkpt>
      <trkpt lat="48.69378" lon="1.95778">
        <ele>188.2</ele>
        <time>2026-03-29T13:45:51Z</time>
      </trkpt>
      <trkpt lat="48.69379" lon="1.95773">
        <ele>188.2</ele>
        <time>2026-03-29T13:45:52Z</time>
      </trkpt>
      <trkpt lat="48.69381" lon="1.95768">
        <ele>188.2</ele>
        <time>2026-03-29T13:45:53Z</time>
      </trkpt>
      <trkpt lat="48.69383" lon="1.95764">
        <ele>188.2</ele>
        <time>2026-03-29T13:45:54Z</time>
      </trkpt>
      <trkpt lat="48.69386" lon="1.9576">
        <ele>188.2</ele>
        <time>2026-03-29T13:45:55Z</time>
      </trkpt>
      <trkpt lat="48.69389" lon="1.95757">
        <ele>188.2</ele>
        <time>2026-03-29T13:45:56Z</time>
      </trkpt>
      <trkpt lat="48.69392" lon="1.95755">
        <ele>188</ele>
        <time>2026-03-29T13:45:57Z</time>
      </trkpt>
      <trkpt lat="48.69395" lon="1.95753">
        <ele>187.6</ele>
        <time>2026-03-29T13:45:58Z</time>
      </trkpt>
      <trkpt lat="48.69399" lon="1.95751">
        <ele>187.6</ele>
        <time>2026-03-29T13:45:59Z</time>
      </trkpt>
      <trkpt lat="48.69402" lon="1.95749">
        <ele>187.6</ele>
        <time>2026-03-29T13:46:00Z</time>
      </trkpt>
      <trkpt lat="48.69405" lon="1.95747">
        <ele>187.8</ele>
        <time>2026-03-29T13:46:01Z</time>
      </trkpt>
      <trkpt lat="48.69408" lon="1.95745">
        <ele>187.6</ele>
        <time>2026-03-29T13:46:02Z</time>
      </trkpt>
      <trkpt lat="48.6941" lon="1.95744">
        <ele>187.6</ele>
        <time>2026-03-29T13:46:03Z</time>
      </trkpt>
      <trkpt lat="48.69411" lon="1.95744">
        <ele>187.6</ele>
        <time>2026-03-29T13:46:04Z</time>
      </trkpt>
      <trkpt lat="48.69412" lon="1.95744">
        <ele>187.6</ele>
        <time>2026-03-29T13:46:05Z</time>
      </trkpt>
      <trkpt lat="48.69412" lon="1.95744">
        <ele>187.4</ele>
        <time>2026-03-29T13:46:06Z</time>
      </trkpt>
      <trkpt lat="48.69412" lon="1.95744">
        <ele>187.4</ele>
        <time>2026-03-29T13:46:07Z</time>
      </trkpt>
      <trkpt lat="48.69414" lon="1.95744">
        <ele>187.4</ele>
        <time>2026-03-29T13:46:08Z</time>
      </trkpt>
      <trkpt lat="48.69415" lon="1.95743">
        <ele>187.8</ele>
        <time>2026-03-29T13:46:09Z</time>
      </trkpt>
      <trkpt lat="48.69416" lon="1.95743">
        <ele>187.6</ele>
        <time>2026-03-29T13:46:10Z</time>
      </trkpt>
      <trkpt lat="48.69417" lon="1.95743">
        <ele>187.6</ele>
        <time>2026-03-29T13:46:11Z</time>
      </trkpt>
      <trkpt lat="48.69418" lon="1.95742">
        <ele>187.6</ele>
        <time>2026-03-29T13:46:12Z</time>
      </trkpt>
      <trkpt lat="48.6942" lon="1.95742">
        <ele>187.6</ele>
        <time>2026-03-29T13:46:13Z</time>
      </trkpt>
      <trkpt lat="48.69421" lon="1.95742">
        <ele>187.4</ele>
        <time>2026-03-29T13:46:14Z</time>
      </trkpt>
      <trkpt lat="48.69423" lon="1.95742">
        <ele>187.4</ele>
        <time>2026-03-29T13:46:15Z</time>
      </trkpt>
      <trkpt lat="48.69424" lon="1.95742">
        <ele>187.4</ele>
        <time>2026-03-29T13:46:16Z</time>
      </trkpt>
      <trkpt lat="48.69425" lon="1.95743">
        <ele>187.4</ele>
        <time>2026-03-29T13:46:17Z</time>
      </trkpt>
      <trkpt lat="48.69433" lon="1.95749">
        <ele>187.4</ele>
        <time>2026-03-29T13:46:22Z</time>
      </trkpt>
      <trkpt lat="48.69435" lon="1.95752">
        <ele>187.4</ele>
        <time>2026-03-29T13:46:23Z</time>
      </trkpt>
      <trkpt lat="48.69437" lon="1.95756">
        <ele>187.4</ele>
        <time>2026-03-29T13:46:24Z</time>
      </trkpt>
      <trkpt lat="48.69439" lon="1.95762">
        <ele>187.4</ele>
        <time>2026-03-29T13:46:25Z</time>
      </trkpt>
      <trkpt lat="48.69442" lon="1.95766">
        <ele>187.6</ele>
        <time>2026-03-29T13:46:26Z</time>
      </trkpt>
      <trkpt lat="48.69444" lon="1.95771">
        <ele>187.6</ele>
        <time>2026-03-29T13:46:27Z</time>
      </trkpt>
      <trkpt lat="48.69447" lon="1.95776">
        <ele>187.6</ele>
        <time>2026-03-29T13:46:28Z</time>
      </trkpt>
      <trkpt lat="48.69449" lon="1.95781">
        <ele>187.6</ele>
        <time>2026-03-29T13:46:29Z</time>
      </trkpt>
      <trkpt lat="48.69451" lon="1.95787">
        <ele>188.2</ele>
        <time>2026-03-29T13:46:30Z</time>
      </trkpt>
      <trkpt lat="48.69454" lon="1.95792">
        <ele>188.2</ele>
        <time>2026-03-29T13:46:31Z</time>
      </trkpt>
      <trkpt lat="48.69456" lon="1.95798">
        <ele>188.2</ele>
        <time>2026-03-29T13:46:32Z</time>
      </trkpt>
      <trkpt lat="48.69459" lon="1.95803">
        <ele>187.2</ele>
        <time>2026-03-29T13:46:33Z</time>
      </trkpt>
      <trkpt lat="48.69461" lon="1.95809">
        <ele>186.6</ele>
        <time>2026-03-29T13:46:34Z</time>
      </trkpt>
      <trkpt lat="48.69464" lon="1.95815">
        <ele>186.6</ele>
        <time>2026-03-29T13:46:35Z</time>
      </trkpt>
      <trkpt lat="48.69467" lon="1.9582">
        <ele>186.6</ele>
        <time>2026-03-29T13:46:36Z</time>
      </trkpt>
      <trkpt lat="48.69469" lon="1.95826">
        <ele>186.6</ele>
        <time>2026-03-29T13:46:37Z</time>
      </trkpt>
      <trkpt lat="48.69472" lon="1.95831">
        <ele>186</ele>
        <time>2026-03-29T13:46:38Z</time>
      </trkpt>
      <trkpt lat="48.69474" lon="1.95836">
        <ele>186</ele>
        <time>2026-03-29T13:46:39Z</time>
      </trkpt>
      <trkpt lat="48.69476" lon="1.95842">
        <ele>186</ele>
        <time>2026-03-29T13:46:40Z</time>
      </trkpt>
      <trkpt lat="48.69478" lon="1.95847">
        <ele>186.6</ele>
        <time>2026-03-29T13:46:41Z</time>
      </trkpt>
      <trkpt lat="48.6948" lon="1.95852">
        <ele>186.6</ele>
        <time>2026-03-29T13:46:42Z</time>
      </trkpt>
      <trkpt lat="48.69482" lon="1.95857">
        <ele>186.6</ele>
        <time>2026-03-29T13:46:43Z</time>
      </trkpt>
      <trkpt lat="48.69484" lon="1.95862">
        <ele>186.6</ele>
        <time>2026-03-29T13:46:44Z</time>
      </trkpt>
      <trkpt lat="48.69486" lon="1.95868">
        <ele>186.4</ele>
        <time>2026-03-29T13:46:45Z</time>
      </trkpt>
      <trkpt lat="48.69489" lon="1.95873">
        <ele>187.4</ele>
        <time>2026-03-29T13:46:46Z</time>
      </trkpt>
      <trkpt lat="48.69491" lon="1.95878">
        <ele>187.4</ele>
        <time>2026-03-29T13:46:47Z</time>
      </trkpt>
      <trkpt lat="48.69493" lon="1.95883">
        <ele>187.4</ele>
        <time>2026-03-29T13:46:48Z</time>
      </trkpt>
      <trkpt lat="48.69495" lon="1.95888">
        <ele>187.4</ele>
        <time>2026-03-29T13:46:49Z</time>
      </trkpt>
      <trkpt lat="48.69497" lon="1.95892">
        <ele>187.8</ele>
        <time>2026-03-29T13:46:50Z</time>
      </trkpt>
      <trkpt lat="48.69499" lon="1.95897">
        <ele>187.8</ele>
        <time>2026-03-29T13:46:51Z</time>
      </trkpt>
      <trkpt lat="48.69501" lon="1.95902">
        <ele>187.8</ele>
        <time>2026-03-29T13:46:52Z</time>
      </trkpt>
      <trkpt lat="48.69503" lon="1.95907">
        <ele>188.2</ele>
        <time>2026-03-29T13:46:53Z</time>
      </trkpt>
      <trkpt lat="48.69505" lon="1.95911">
        <ele>188.8</ele>
        <time>2026-03-29T13:46:54Z</time>
      </trkpt>
      <trkpt lat="48.69507" lon="1.95916">
        <ele>188.8</ele>
        <time>2026-03-29T13:46:55Z</time>
      </trkpt>
      <trkpt lat="48.69508" lon="1.95921">
        <ele>188.8</ele>
        <time>2026-03-29T13:46:56Z</time>
      </trkpt>
      <trkpt lat="48.6951" lon="1.95925">
        <ele>188.8</ele>
        <time>2026-03-29T13:46:57Z</time>
      </trkpt>
      <trkpt lat="48.69512" lon="1.95929">
        <ele>189</ele>
        <time>2026-03-29T13:46:58Z</time>
      </trkpt>
      <trkpt lat="48.69513" lon="1.95934">
        <ele>189</ele>
        <time>2026-03-29T13:46:59Z</time>
      </trkpt>
      <trkpt lat="48.69516" lon="1.95939">
        <ele>189</ele>
        <time>2026-03-29T13:47:00Z</time>
      </trkpt>
      <trkpt lat="48.69518" lon="1.95944">
        <ele>190</ele>
        <time>2026-03-29T13:47:01Z</time>
      </trkpt>
      <trkpt lat="48.6952" lon="1.95949">
        <ele>189.4</ele>
        <time>2026-03-29T13:47:02Z</time>
      </trkpt>
      <trkpt lat="48.69522" lon="1.95954">
        <ele>189.4</ele>
        <time>2026-03-29T13:47:03Z</time>
      </trkpt>
      <trkpt lat="48.69524" lon="1.95959">
        <ele>189.4</ele>
        <time>2026-03-29T13:47:04Z</time>
      </trkpt>
      <trkpt lat="48.69526" lon="1.95964">
        <ele>189.4</ele>
        <time>2026-03-29T13:47:05Z</time>
      </trkpt>
      <trkpt lat="48.69529" lon="1.95969">
        <ele>190.2</ele>
        <time>2026-03-29T13:47:06Z</time>
      </trkpt>
      <trkpt lat="48.69531" lon="1.95975">
        <ele>190.2</ele>
        <time>2026-03-29T13:47:07Z</time>
      </trkpt>
      <trkpt lat="48.69533" lon="1.9598">
        <ele>190.2</ele>
        <time>2026-03-29T13:47:08Z</time>
      </trkpt>
      <trkpt lat="48.69535" lon="1.95985">
        <ele>190.2</ele>
        <time>2026-03-29T13:47:09Z</time>
      </trkpt>
      <trkpt lat="48.69538" lon="1.9599">
        <ele>190.6</ele>
        <time>2026-03-29T13:47:10Z</time>
      </trkpt>
      <trkpt lat="48.6954" lon="1.95996">
        <ele>190.6</ele>
        <time>2026-03-29T13:47:11Z</time>
      </trkpt>
      <trkpt lat="48.69543" lon="1.96">
        <ele>190.6</ele>
        <time>2026-03-29T13:47:12Z</time>
      </trkpt>
      <trkpt lat="48.69545" lon="1.96006">
        <ele>190.4</ele>
        <time>2026-03-29T13:47:13Z</time>
      </trkpt>
      <trkpt lat="48.69547" lon="1.96012">
        <ele>191</ele>
        <time>2026-03-29T13:47:14Z</time>
      </trkpt>
      <trkpt lat="48.69549" lon="1.96017">
        <ele>191</ele>
        <time>2026-03-29T13:47:15Z</time>
      </trkpt>
      <trkpt lat="48.69551" lon="1.96023">
        <ele>191</ele>
        <time>2026-03-29T13:47:16Z</time>
      </trkpt>
      <trkpt lat="48.69554" lon="1.96028">
        <ele>191</ele>
        <time>2026-03-29T13:47:17Z</time>
      </trkpt>
      <trkpt lat="48.69556" lon="1.96033">
        <ele>190.8</ele>
        <time>2026-03-29T13:47:18Z</time>
      </trkpt>
      <trkpt lat="48.69559" lon="1.96039">
        <ele>190.8</ele>
        <time>2026-03-29T13:47:19Z</time>
      </trkpt>
      <trkpt lat="48.69561" lon="1.96044">
        <ele>190.8</ele>
        <time>2026-03-29T13:47:20Z</time>
      </trkpt>
      <trkpt lat="48.69564" lon="1.96049">
        <ele>190.8</ele>
        <time>2026-03-29T13:47:21Z</time>
      </trkpt>
      <trkpt lat="48.69566" lon="1.96054">
        <ele>190.8</ele>
        <time>2026-03-29T13:47:22Z</time>
      </trkpt>
      <trkpt lat="48.69568" lon="1.9606">
        <ele>190.8</ele>
        <time>2026-03-29T13:47:23Z</time>
      </trkpt>
      <trkpt lat="48.69571" lon="1.96065">
        <ele>190.8</ele>
        <time>2026-03-29T13:47:24Z</time>
      </trkpt>
      <trkpt lat="48.69573" lon="1.96071">
        <ele>191.6</ele>
        <time>2026-03-29T13:47:25Z</time>
      </trkpt>
      <trkpt lat="48.69575" lon="1.96077">
        <ele>191.2</ele>
        <time>2026-03-29T13:47:26Z</time>
      </trkpt>
      <trkpt lat="48.69578" lon="1.96082">
        <ele>191.2</ele>
        <time>2026-03-29T13:47:27Z</time>
      </trkpt>
      <trkpt lat="48.6958" lon="1.96087">
        <ele>191.2</ele>
        <time>2026-03-29T13:47:28Z</time>
      </trkpt>
      <trkpt lat="48.69583" lon="1.96093">
        <ele>191.2</ele>
        <time>2026-03-29T13:47:29Z</time>
      </trkpt>
      <trkpt lat="48.69585" lon="1.96099">
        <ele>191.2</ele>
        <time>2026-03-29T13:47:30Z</time>
      </trkpt>
      <trkpt lat="48.69587" lon="1.96105">
        <ele>191.2</ele>
        <time>2026-03-29T13:47:31Z</time>
      </trkpt>
      <trkpt lat="48.69589" lon="1.96111">
        <ele>191.2</ele>
        <time>2026-03-29T13:47:32Z</time>
      </trkpt>
      <trkpt lat="48.69592" lon="1.96117">
        <ele>191.2</ele>
        <time>2026-03-29T13:47:33Z</time>
      </trkpt>
      <trkpt lat="48.69594" lon="1.96123">
        <ele>192</ele>
        <time>2026-03-29T13:47:34Z</time>
      </trkpt>
      <trkpt lat="48.69597" lon="1.96129">
        <ele>192</ele>
        <time>2026-03-29T13:47:35Z</time>
      </trkpt>
      <trkpt lat="48.69599" lon="1.96135">
        <ele>192</ele>
        <time>2026-03-29T13:47:36Z</time>
      </trkpt>
      <trkpt lat="48.69602" lon="1.96141">
        <ele>192</ele>
        <time>2026-03-29T13:47:37Z</time>
      </trkpt>
      <trkpt lat="48.69604" lon="1.96147">
        <ele>191.8</ele>
        <time>2026-03-29T13:47:38Z</time>
      </trkpt>
      <trkpt lat="48.69607" lon="1.96153">
        <ele>191.8</ele>
        <time>2026-03-29T13:47:39Z</time>
      </trkpt>
      <trkpt lat="48.6961" lon="1.96159">
        <ele>191.8</ele>
        <time>2026-03-29T13:47:40Z</time>
      </trkpt>
      <trkpt lat="48.69612" lon="1.96165">
        <ele>192</ele>
        <time>2026-03-29T13:47:41Z</time>
      </trkpt>
      <trkpt lat="48.69615" lon="1.96172">
        <ele>191.8</ele>
        <time>2026-03-29T13:47:42Z</time>
      </trkpt>
      <trkpt lat="48.69618" lon="1.96177">
        <ele>191.8</ele>
        <time>2026-03-29T13:47:43Z</time>
      </trkpt>
      <trkpt lat="48.69621" lon="1.96183">
        <ele>191.8</ele>
        <time>2026-03-29T13:47:44Z</time>
      </trkpt>
      <trkpt lat="48.69623" lon="1.9619">
        <ele>192.2</ele>
        <time>2026-03-29T13:47:45Z</time>
      </trkpt>
      <trkpt lat="48.69626" lon="1.96196">
        <ele>191.6</ele>
        <time>2026-03-29T13:47:46Z</time>
      </trkpt>
      <trkpt lat="48.69629" lon="1.96203">
        <ele>191.6</ele>
        <time>2026-03-29T13:47:47Z</time>
      </trkpt>
      <trkpt lat="48.69631" lon="1.96209">
        <ele>191.6</ele>
        <time>2026-03-29T13:47:48Z</time>
      </trkpt>
      <trkpt lat="48.69634" lon="1.96215">
        <ele>191.8</ele>
        <time>2026-03-29T13:47:49Z</time>
      </trkpt>
      <trkpt lat="48.69636" lon="1.96221">
        <ele>192.4</ele>
        <time>2026-03-29T13:47:50Z</time>
      </trkpt>
      <trkpt lat="48.69638" lon="1.96226">
        <ele>192.4</ele>
        <time>2026-03-29T13:47:51Z</time>
      </trkpt>
      <trkpt lat="48.69641" lon="1.96232">
        <ele>192.4</ele>
        <time>2026-03-29T13:47:52Z</time>
      </trkpt>
      <trkpt lat="48.69644" lon="1.96239">
        <ele>192.4</ele>
        <time>2026-03-29T13:47:53Z</time>
      </trkpt>
      <trkpt lat="48.69647" lon="1.96244">
        <ele>192.8</ele>
        <time>2026-03-29T13:47:54Z</time>
      </trkpt>
      <trkpt lat="48.6965" lon="1.9625">
        <ele>192.8</ele>
        <time>2026-03-29T13:47:55Z</time>
      </trkpt>
      <trkpt lat="48.69652" lon="1.96256">
        <ele>192.8</ele>
        <time>2026-03-29T13:47:56Z</time>
      </trkpt>
      <trkpt lat="48.69654" lon="1.96263">
        <ele>192.8</ele>
        <time>2026-03-29T13:47:57Z</time>
      </trkpt>
      <trkpt lat="48.69657" lon="1.96269">
        <ele>192.4</ele>
        <time>2026-03-29T13:47:58Z</time>
      </trkpt>
      <trkpt lat="48.69661" lon="1.96274">
        <ele>192.4</ele>
        <time>2026-03-29T13:47:59Z</time>
      </trkpt>
      <trkpt lat="48.69663" lon="1.96281">
        <ele>192.4</ele>
        <time>2026-03-29T13:48:00Z</time>
      </trkpt>
      <trkpt lat="48.69666" lon="1.96287">
        <ele>192.4</ele>
        <time>2026-03-29T13:48:01Z</time>
      </trkpt>
      <trkpt lat="48.69669" lon="1.96293">
        <ele>191.8</ele>
        <time>2026-03-29T13:48:02Z</time>
      </trkpt>
      <trkpt lat="48.69672" lon="1.96299">
        <ele>191.8</ele>
        <time>2026-03-29T13:48:03Z</time>
      </trkpt>
      <trkpt lat="48.69674" lon="1.96305">
        <ele>191.8</ele>
        <time>2026-03-29T13:48:04Z</time>
      </trkpt>
      <trkpt lat="48.69677" lon="1.96311">
        <ele>191.8</ele>
        <time>2026-03-29T13:48:05Z</time>
      </trkpt>
      <trkpt lat="48.6968" lon="1.96317">
        <ele>192</ele>
        <time>2026-03-29T13:48:06Z</time>
      </trkpt>
      <trkpt lat="48.69683" lon="1.96323">
        <ele>192</ele>
        <time>2026-03-29T13:48:07Z</time>
      </trkpt>
      <trkpt lat="48.69684" lon="1.96329">
        <ele>192</ele>
        <time>2026-03-29T13:48:08Z</time>
      </trkpt>
      <trkpt lat="48.69687" lon="1.96335">
        <ele>192</ele>
        <time>2026-03-29T13:48:09Z</time>
      </trkpt>
      <trkpt lat="48.69689" lon="1.96341">
        <ele>191.8</ele>
        <time>2026-03-29T13:48:10Z</time>
      </trkpt>
      <trkpt lat="48.69692" lon="1.96347">
        <ele>191.8</ele>
        <time>2026-03-29T13:48:11Z</time>
      </trkpt>
      <trkpt lat="48.69695" lon="1.96354">
        <ele>191.8</ele>
        <time>2026-03-29T13:48:12Z</time>
      </trkpt>
      <trkpt lat="48.69697" lon="1.96361">
        <ele>191.8</ele>
        <time>2026-03-29T13:48:13Z</time>
      </trkpt>
      <trkpt lat="48.697" lon="1.96368">
        <ele>191.6</ele>
        <time>2026-03-29T13:48:14Z</time>
      </trkpt>
      <trkpt lat="48.69704" lon="1.96375">
        <ele>191.6</ele>
        <time>2026-03-29T13:48:15Z</time>
      </trkpt>
      <trkpt lat="48.69707" lon="1.96382">
        <ele>191.6</ele>
        <time>2026-03-29T13:48:16Z</time>
      </trkpt>
      <trkpt lat="48.6971" lon="1.96389">
        <ele>191.6</ele>
        <time>2026-03-29T13:48:17Z</time>
      </trkpt>
      <trkpt lat="48.69713" lon="1.96396">
        <ele>190.8</ele>
        <time>2026-03-29T13:48:18Z</time>
      </trkpt>
      <trkpt lat="48.69716" lon="1.96401">
        <ele>190.8</ele>
        <time>2026-03-29T13:48:19Z</time>
      </trkpt>
      <trkpt lat="48.6972" lon="1.96408">
        <ele>190.8</ele>
        <time>2026-03-29T13:48:20Z</time>
      </trkpt>
      <trkpt lat="48.69722" lon="1.96415">
        <ele>190.8</ele>
        <time>2026-03-29T13:48:21Z</time>
      </trkpt>
      <trkpt lat="48.69725" lon="1.96421">
        <ele>190.6</ele>
        <time>2026-03-29T13:48:22Z</time>
      </trkpt>
      <trkpt lat="48.69728" lon="1.96427">
        <ele>190.6</ele>
        <time>2026-03-29T13:48:23Z</time>
      </trkpt>
      <trkpt lat="48.69731" lon="1.96434">
        <ele>190.6</ele>
        <time>2026-03-29T13:48:24Z</time>
      </trkpt>
      <trkpt lat="48.69734" lon="1.9644">
        <ele>190.4</ele>
        <time>2026-03-29T13:48:25Z</time>
      </trkpt>
      <trkpt lat="48.69736" lon="1.96447">
        <ele>189.6</ele>
        <time>2026-03-29T13:48:26Z</time>
      </trkpt>
      <trkpt lat="48.69739" lon="1.96454">
        <ele>189.6</ele>
        <time>2026-03-29T13:48:27Z</time>
      </trkpt>
      <trkpt lat="48.69742" lon="1.9646">
        <ele>189.6</ele>
        <time>2026-03-29T13:48:28Z</time>
      </trkpt>
      <trkpt lat="48.69744" lon="1.96466">
        <ele>189.6</ele>
        <time>2026-03-29T13:48:29Z</time>
      </trkpt>
      <trkpt lat="48.69747" lon="1.96473">
        <ele>189.4</ele>
        <time>2026-03-29T13:48:30Z</time>
      </trkpt>
      <trkpt lat="48.6975" lon="1.96479">
        <ele>189.4</ele>
        <time>2026-03-29T13:48:31Z</time>
      </trkpt>
      <trkpt lat="48.69753" lon="1.96485">
        <ele>189.4</ele>
        <time>2026-03-29T13:48:32Z</time>
      </trkpt>
      <trkpt lat="48.69756" lon="1.96492">
        <ele>189.4</ele>
        <time>2026-03-29T13:48:33Z</time>
      </trkpt>
      <trkpt lat="48.69758" lon="1.96498">
        <ele>189.4</ele>
        <time>2026-03-29T13:48:34Z</time>
      </trkpt>
      <trkpt lat="48.69761" lon="1.96505">
        <ele>189.4</ele>
        <time>2026-03-29T13:48:35Z</time>
      </trkpt>
      <trkpt lat="48.69765" lon="1.96509">
        <ele>189.4</ele>
        <time>2026-03-29T13:48:36Z</time>
      </trkpt>
      <trkpt lat="48.69771" lon="1.96511">
        <ele>188.8</ele>
        <time>2026-03-29T13:48:37Z</time>
      </trkpt>
      <trkpt lat="48.69775" lon="1.96508">
        <ele>189</ele>
        <time>2026-03-29T13:48:38Z</time>
      </trkpt>
      <trkpt lat="48.69778" lon="1.96504">
        <ele>189</ele>
        <time>2026-03-29T13:48:39Z</time>
      </trkpt>
      <trkpt lat="48.69779" lon="1.965">
        <ele>189</ele>
        <time>2026-03-29T13:48:40Z</time>
      </trkpt>
      <trkpt lat="48.69782" lon="1.96495">
        <ele>189.8</ele>
        <time>2026-03-29T13:48:41Z</time>
      </trkpt>
      <trkpt lat="48.69784" lon="1.96489">
        <ele>189</ele>
        <time>2026-03-29T13:48:42Z</time>
      </trkpt>
      <trkpt lat="48.69787" lon="1.96483">
        <ele>189</ele>
        <time>2026-03-29T13:48:43Z</time>
      </trkpt>
      <trkpt lat="48.6979" lon="1.96476">
        <ele>189</ele>
        <time>2026-03-29T13:48:44Z</time>
      </trkpt>
      <trkpt lat="48.69793" lon="1.9647">
        <ele>189</ele>
        <time>2026-03-29T13:48:45Z</time>
      </trkpt>
      <trkpt lat="48.69795" lon="1.96463">
        <ele>189</ele>
        <time>2026-03-29T13:48:46Z</time>
      </trkpt>
      <trkpt lat="48.69798" lon="1.96457">
        <ele>189</ele>
        <time>2026-03-29T13:48:47Z</time>
      </trkpt>
      <trkpt lat="48.69801" lon="1.96451">
        <ele>189</ele>
        <time>2026-03-29T13:48:48Z</time>
      </trkpt>
      <trkpt lat="48.69804" lon="1.96445">
        <ele>189.2</ele>
        <time>2026-03-29T13:48:49Z</time>
      </trkpt>
      <trkpt lat="48.69807" lon="1.96439">
        <ele>189.2</ele>
        <time>2026-03-29T13:48:50Z</time>
      </trkpt>
      <trkpt lat="48.6981" lon="1.96433">
        <ele>189.2</ele>
        <time>2026-03-29T13:48:51Z</time>
      </trkpt>
      <trkpt lat="48.69813" lon="1.96427">
        <ele>189.2</ele>
        <time>2026-03-29T13:48:52Z</time>
      </trkpt>
      <trkpt lat="48.69816" lon="1.9642">
        <ele>189.2</ele>
        <time>2026-03-29T13:48:53Z</time>
      </trkpt>
      <trkpt lat="48.6982" lon="1.96414">
        <ele>188.6</ele>
        <time>2026-03-29T13:48:54Z</time>
      </trkpt>
      <trkpt lat="48.69822" lon="1.96408">
        <ele>188.6</ele>
        <time>2026-03-29T13:48:55Z</time>
      </trkpt>
      <trkpt lat="48.69825" lon="1.96401">
        <ele>188.6</ele>
        <time>2026-03-29T13:48:56Z</time>
      </trkpt>
      <trkpt lat="48.69827" lon="1.96394">
        <ele>189.4</ele>
        <time>2026-03-29T13:48:57Z</time>
      </trkpt>
      <trkpt lat="48.6983" lon="1.96387">
        <ele>189.2</ele>
        <time>2026-03-29T13:48:58Z</time>
      </trkpt>
      <trkpt lat="48.69833" lon="1.96381">
        <ele>189.2</ele>
        <time>2026-03-29T13:48:59Z</time>
      </trkpt>
      <trkpt lat="48.69836" lon="1.96375">
        <ele>189.2</ele>
        <time>2026-03-29T13:49:00Z</time>
      </trkpt>
      <trkpt lat="48.69839" lon="1.96369">
        <ele>189.2</ele>
        <time>2026-03-29T13:49:01Z</time>
      </trkpt>
      <trkpt lat="48.69842" lon="1.96363">
        <ele>189.4</ele>
        <time>2026-03-29T13:49:02Z</time>
      </trkpt>
      <trkpt lat="48.69845" lon="1.96357">
        <ele>189.4</ele>
        <time>2026-03-29T13:49:03Z</time>
      </trkpt>
      <trkpt lat="48.69848" lon="1.96351">
        <ele>189.4</ele>
        <time>2026-03-29T13:49:04Z</time>
      </trkpt>
      <trkpt lat="48.69851" lon="1.96345">
        <ele>189.4</ele>
        <time>2026-03-29T13:49:05Z</time>
      </trkpt>
      <trkpt lat="48.69855" lon="1.96339">
        <ele>190</ele>
        <time>2026-03-29T13:49:06Z</time>
      </trkpt>
      <trkpt lat="48.69858" lon="1.96332">
        <ele>190</ele>
        <time>2026-03-29T13:49:07Z</time>
      </trkpt>
      <trkpt lat="48.69861" lon="1.96326">
        <ele>190</ele>
        <time>2026-03-29T13:49:08Z</time>
      </trkpt>
      <trkpt lat="48.69864" lon="1.96319">
        <ele>189.2</ele>
        <time>2026-03-29T13:49:09Z</time>
      </trkpt>
      <trkpt lat="48.69866" lon="1.96312">
        <ele>189</ele>
        <time>2026-03-29T13:49:10Z</time>
      </trkpt>
      <trkpt lat="48.69869" lon="1.96306">
        <ele>189</ele>
        <time>2026-03-29T13:49:11Z</time>
      </trkpt>
      <trkpt lat="48.69872" lon="1.963">
        <ele>189</ele>
        <time>2026-03-29T13:49:12Z</time>
      </trkpt>
      <trkpt lat="48.69875" lon="1.96294">
        <ele>189.2</ele>
        <time>2026-03-29T13:49:13Z</time>
      </trkpt>
      <trkpt lat="48.69877" lon="1.96288">
        <ele>188.8</ele>
        <time>2026-03-29T13:49:14Z</time>
      </trkpt>
      <trkpt lat="48.6988" lon="1.96281">
        <ele>188.8</ele>
        <time>2026-03-29T13:49:15Z</time>
      </trkpt>
      <trkpt lat="48.69883" lon="1.96276">
        <ele>188.8</ele>
        <time>2026-03-29T13:49:16Z</time>
      </trkpt>
      <trkpt lat="48.69885" lon="1.9627">
        <ele>188.8</ele>
        <time>2026-03-29T13:49:17Z</time>
      </trkpt>
      <trkpt lat="48.69888" lon="1.96264">
        <ele>190</ele>
        <time>2026-03-29T13:49:18Z</time>
      </trkpt>
      <trkpt lat="48.69891" lon="1.96258">
        <ele>190</ele>
        <time>2026-03-29T13:49:19Z</time>
      </trkpt>
      <trkpt lat="48.69894" lon="1.96253">
        <ele>190</ele>
        <time>2026-03-29T13:49:20Z</time>
      </trkpt>
      <trkpt lat="48.69897" lon="1.96247">
        <ele>189</ele>
        <time>2026-03-29T13:49:21Z</time>
      </trkpt>
      <trkpt lat="48.699" lon="1.96241">
        <ele>188.4</ele>
        <time>2026-03-29T13:49:22Z</time>
      </trkpt>
      <trkpt lat="48.69902" lon="1.96235">
        <ele>188.4</ele>
        <time>2026-03-29T13:49:23Z</time>
      </trkpt>
      <trkpt lat="48.69905" lon="1.96229">
        <ele>188.4</ele>
        <time>2026-03-29T13:49:24Z</time>
      </trkpt>
      <trkpt lat="48.69907" lon="1.96222">
        <ele>188.4</ele>
        <time>2026-03-29T13:49:25Z</time>
      </trkpt>
      <trkpt lat="48.6991" lon="1.96215">
        <ele>188.4</ele>
        <time>2026-03-29T13:49:26Z</time>
      </trkpt>
      <trkpt lat="48.69913" lon="1.96209">
        <ele>188.4</ele>
        <time>2026-03-29T13:49:27Z</time>
      </trkpt>
      <trkpt lat="48.69916" lon="1.96202">
        <ele>188.4</ele>
        <time>2026-03-29T13:49:28Z</time>
      </trkpt>
      <trkpt lat="48.69918" lon="1.96195">
        <ele>188</ele>
        <time>2026-03-29T13:49:29Z</time>
      </trkpt>
      <trkpt lat="48.69921" lon="1.96189">
        <ele>188</ele>
        <time>2026-03-29T13:49:30Z</time>
      </trkpt>
      <trkpt lat="48.69925" lon="1.96182">
        <ele>188</ele>
        <time>2026-03-29T13:49:31Z</time>
      </trkpt>
      <trkpt lat="48.69928" lon="1.96176">
        <ele>188</ele>
        <time>2026-03-29T13:49:32Z</time>
      </trkpt>
      <trkpt lat="48.69931" lon="1.96169">
        <ele>188</ele>
        <time>2026-03-29T13:49:33Z</time>
      </trkpt>
      <trkpt lat="48.69934" lon="1.96163">
        <ele>188.2</ele>
        <time>2026-03-29T13:49:34Z</time>
      </trkpt>
      <trkpt lat="48.69937" lon="1.96156">
        <ele>188.2</ele>
        <time>2026-03-29T13:49:35Z</time>
      </trkpt>
      <trkpt lat="48.6994" lon="1.9615">
        <ele>188.2</ele>
        <time>2026-03-29T13:49:36Z</time>
      </trkpt>
      <trkpt lat="48.69943" lon="1.96143">
        <ele>187.2</ele>
        <time>2026-03-29T13:49:37Z</time>
      </trkpt>
      <trkpt lat="48.69946" lon="1.96137">
        <ele>187.4</ele>
        <time>2026-03-29T13:49:38Z</time>
      </trkpt>
      <trkpt lat="48.69949" lon="1.96131">
        <ele>187.4</ele>
        <time>2026-03-29T13:49:39Z</time>
      </trkpt>
      <trkpt lat="48.69952" lon="1.96125">
        <ele>187.4</ele>
        <time>2026-03-29T13:49:40Z</time>
      </trkpt>
      <trkpt lat="48.69954" lon="1.96119">
        <ele>187.4</ele>
        <time>2026-03-29T13:49:41Z</time>
      </trkpt>
      <trkpt lat="48.69957" lon="1.96114">
        <ele>187.4</ele>
        <time>2026-03-29T13:49:42Z</time>
      </trkpt>
      <trkpt lat="48.69959" lon="1.96109">
        <ele>187.4</ele>
        <time>2026-03-29T13:49:43Z</time>
      </trkpt>
      <trkpt lat="48.69962" lon="1.96103">
        <ele>187.4</ele>
        <time>2026-03-29T13:49:44Z</time>
      </trkpt>
      <trkpt lat="48.69964" lon="1.96097">
        <ele>187.4</ele>
        <time>2026-03-29T13:49:45Z</time>
      </trkpt>
      <trkpt lat="48.69967" lon="1.96092">
        <ele>186.8</ele>
        <time>2026-03-29T13:49:46Z</time>
      </trkpt>
      <trkpt lat="48.6997" lon="1.96086">
        <ele>186.8</ele>
        <time>2026-03-29T13:49:47Z</time>
      </trkpt>
      <trkpt lat="48.69973" lon="1.9608">
        <ele>186.8</ele>
        <time>2026-03-29T13:49:48Z</time>
      </trkpt>
      <trkpt lat="48.69976" lon="1.96074">
        <ele>187.2</ele>
        <time>2026-03-29T13:49:49Z</time>
      </trkpt>
      <trkpt lat="48.69979" lon="1.96068">
        <ele>188</ele>
        <time>2026-03-29T13:49:50Z</time>
      </trkpt>
      <trkpt lat="48.69982" lon="1.96061">
        <ele>188</ele>
        <time>2026-03-29T13:49:51Z</time>
      </trkpt>
      <trkpt lat="48.69984" lon="1.96054">
        <ele>188</ele>
        <time>2026-03-29T13:49:52Z</time>
      </trkpt>
      <trkpt lat="48.69988" lon="1.96048">
        <ele>187</ele>
        <time>2026-03-29T13:49:53Z</time>
      </trkpt>
      <trkpt lat="48.69991" lon="1.96042">
        <ele>186.2</ele>
        <time>2026-03-29T13:49:54Z</time>
      </trkpt>
      <trkpt lat="48.69994" lon="1.96036">
        <ele>186.2</ele>
        <time>2026-03-29T13:49:55Z</time>
      </trkpt>
      <trkpt lat="48.69997" lon="1.96029">
        <ele>186.2</ele>
        <time>2026-03-29T13:49:56Z</time>
      </trkpt>
      <trkpt lat="48.7" lon="1.96023">
        <ele>186.4</ele>
        <time>2026-03-29T13:49:57Z</time>
      </trkpt>
      <trkpt lat="48.70003" lon="1.96017">
        <ele>187.2</ele>
        <time>2026-03-29T13:49:58Z</time>
      </trkpt>
      <trkpt lat="48.70006" lon="1.96011">
        <ele>187.2</ele>
        <time>2026-03-29T13:49:59Z</time>
      </trkpt>
      <trkpt lat="48.70008" lon="1.96004">
        <ele>187.2</ele>
        <time>2026-03-29T13:50:00Z</time>
      </trkpt>
      <trkpt lat="48.70011" lon="1.95998">
        <ele>186.2</ele>
        <time>2026-03-29T13:50:01Z</time>
      </trkpt>
      <trkpt lat="48.70014" lon="1.95991">
        <ele>185.4</ele>
        <time>2026-03-29T13:50:02Z</time>
      </trkpt>
      <trkpt lat="48.70017" lon="1.95985">
        <ele>185.4</ele>
        <time>2026-03-29T13:50:03Z</time>
      </trkpt>
      <trkpt lat="48.7002" lon="1.95978">
        <ele>185.4</ele>
        <time>2026-03-29T13:50:04Z</time>
      </trkpt>
      <trkpt lat="48.70023" lon="1.95972">
        <ele>186.2</ele>
        <time>2026-03-29T13:50:05Z</time>
      </trkpt>
      <trkpt lat="48.70026" lon="1.95966">
        <ele>187</ele>
        <time>2026-03-29T13:50:06Z</time>
      </trkpt>
      <trkpt lat="48.70029" lon="1.9596">
        <ele>187</ele>
        <time>2026-03-29T13:50:07Z</time>
      </trkpt>
      <trkpt lat="48.70031" lon="1.95953">
        <ele>187</ele>
        <time>2026-03-29T13:50:08Z</time>
      </trkpt>
      <trkpt lat="48.70034" lon="1.95947">
        <ele>186</ele>
        <time>2026-03-29T13:50:09Z</time>
      </trkpt>
      <trkpt lat="48.70037" lon="1.95942">
        <ele>185.8</ele>
        <time>2026-03-29T13:50:10Z</time>
      </trkpt>
      <trkpt lat="48.70039" lon="1.95936">
        <ele>185.8</ele>
        <time>2026-03-29T13:50:11Z</time>
      </trkpt>
      <trkpt lat="48.70042" lon="1.9593">
        <ele>185.8</ele>
        <time>2026-03-29T13:50:12Z</time>
      </trkpt>
      <trkpt lat="48.70045" lon="1.95924">
        <ele>185.8</ele>
        <time>2026-03-29T13:50:13Z</time>
      </trkpt>
      <trkpt lat="48.70048" lon="1.95917">
        <ele>185.4</ele>
        <time>2026-03-29T13:50:14Z</time>
      </trkpt>
      <trkpt lat="48.7005" lon="1.9591">
        <ele>185.4</ele>
        <time>2026-03-29T13:50:15Z</time>
      </trkpt>
      <trkpt lat="48.70052" lon="1.95904">
        <ele>185.4</ele>
        <time>2026-03-29T13:50:16Z</time>
      </trkpt>
      <trkpt lat="48.70054" lon="1.95898">
        <ele>185.4</ele>
        <time>2026-03-29T13:50:17Z</time>
      </trkpt>
      <trkpt lat="48.70058" lon="1.95893">
        <ele>185.8</ele>
        <time>2026-03-29T13:50:18Z</time>
      </trkpt>
      <trkpt lat="48.70061" lon="1.95887">
        <ele>185.8</ele>
        <time>2026-03-29T13:50:19Z</time>
      </trkpt>
      <trkpt lat="48.70064" lon="1.95881">
        <ele>185.8</ele>
        <time>2026-03-29T13:50:20Z</time>
      </trkpt>
      <trkpt lat="48.70066" lon="1.95875">
        <ele>185.6</ele>
        <time>2026-03-29T13:50:21Z</time>
      </trkpt>
      <trkpt lat="48.70069" lon="1.95868">
        <ele>186</ele>
        <time>2026-03-29T13:50:22Z</time>
      </trkpt>
      <trkpt lat="48.70072" lon="1.95862">
        <ele>186</ele>
        <time>2026-03-29T13:50:23Z</time>
      </trkpt>
      <trkpt lat="48.70074" lon="1.95855">
        <ele>186</ele>
        <time>2026-03-29T13:50:24Z</time>
      </trkpt>
      <trkpt lat="48.70077" lon="1.95849">
        <ele>186</ele>
        <time>2026-03-29T13:50:25Z</time>
      </trkpt>
      <trkpt lat="48.7008" lon="1.95843">
        <ele>185.6</ele>
        <time>2026-03-29T13:50:26Z</time>
      </trkpt>
      <trkpt lat="48.70083" lon="1.95836">
        <ele>185.6</ele>
        <time>2026-03-29T13:50:27Z</time>
      </trkpt>
      <trkpt lat="48.70085" lon="1.9583">
        <ele>185.6</ele>
        <time>2026-03-29T13:50:28Z</time>
      </trkpt>
      <trkpt lat="48.70088" lon="1.95824">
        <ele>185.6</ele>
        <time>2026-03-29T13:50:29Z</time>
      </trkpt>
      <trkpt lat="48.70091" lon="1.95818">
        <ele>185.6</ele>
        <time>2026-03-29T13:50:30Z</time>
      </trkpt>
      <trkpt lat="48.70093" lon="1.95812">
        <ele>185.6</ele>
        <time>2026-03-29T13:50:31Z</time>
      </trkpt>
      <trkpt lat="48.70095" lon="1.95805">
        <ele>185.6</ele>
        <time>2026-03-29T13:50:32Z</time>
      </trkpt>
      <trkpt lat="48.70098" lon="1.95799">
        <ele>185.6</ele>
        <time>2026-03-29T13:50:33Z</time>
      </trkpt>
      <trkpt lat="48.70101" lon="1.95792">
        <ele>186.2</ele>
        <time>2026-03-29T13:50:34Z</time>
      </trkpt>
      <trkpt lat="48.70103" lon="1.95786">
        <ele>186.2</ele>
        <time>2026-03-29T13:50:35Z</time>
      </trkpt>
      <trkpt lat="48.70106" lon="1.9578">
        <ele>186.2</ele>
        <time>2026-03-29T13:50:36Z</time>
      </trkpt>
      <trkpt lat="48.70109" lon="1.95773">
        <ele>186.2</ele>
        <time>2026-03-29T13:50:37Z</time>
      </trkpt>
      <trkpt lat="48.70112" lon="1.95767">
        <ele>186.6</ele>
        <time>2026-03-29T13:50:38Z</time>
      </trkpt>
      <trkpt lat="48.70115" lon="1.95761">
        <ele>186.6</ele>
        <time>2026-03-29T13:50:39Z</time>
      </trkpt>
      <trkpt lat="48.70118" lon="1.95756">
        <ele>186.6</ele>
        <time>2026-03-29T13:50:40Z</time>
      </trkpt>
      <trkpt lat="48.70121" lon="1.9575">
        <ele>185.6</ele>
        <time>2026-03-29T13:50:41Z</time>
      </trkpt>
      <trkpt lat="48.70124" lon="1.95744">
        <ele>185.8</ele>
        <time>2026-03-29T13:50:42Z</time>
      </trkpt>
      <trkpt lat="48.70127" lon="1.95738">
        <ele>185.8</ele>
        <time>2026-03-29T13:50:43Z</time>
      </trkpt>
      <trkpt lat="48.7013" lon="1.95732">
        <ele>185.8</ele>
        <time>2026-03-29T13:50:44Z</time>
      </trkpt>
      <trkpt lat="48.70132" lon="1.95725">
        <ele>185.8</ele>
        <time>2026-03-29T13:50:45Z</time>
      </trkpt>
      <trkpt lat="48.70135" lon="1.95719">
        <ele>186.6</ele>
        <time>2026-03-29T13:50:46Z</time>
      </trkpt>
      <trkpt lat="48.70137" lon="1.95712">
        <ele>186.6</ele>
        <time>2026-03-29T13:50:47Z</time>
      </trkpt>
      <trkpt lat="48.7014" lon="1.95706">
        <ele>186.6</ele>
        <time>2026-03-29T13:50:48Z</time>
      </trkpt>
      <trkpt lat="48.70142" lon="1.95699">
        <ele>185.8</ele>
        <time>2026-03-29T13:50:49Z</time>
      </trkpt>
      <trkpt lat="48.70145" lon="1.95693">
        <ele>186.6</ele>
        <time>2026-03-29T13:50:50Z</time>
      </trkpt>
      <trkpt lat="48.70148" lon="1.95686">
        <ele>186.6</ele>
        <time>2026-03-29T13:50:51Z</time>
      </trkpt>
      <trkpt lat="48.7015" lon="1.9568">
        <ele>186.6</ele>
        <time>2026-03-29T13:50:52Z</time>
      </trkpt>
      <trkpt lat="48.70153" lon="1.95674">
        <ele>185.6</ele>
        <time>2026-03-29T13:50:53Z</time>
      </trkpt>
      <trkpt lat="48.70156" lon="1.95668">
        <ele>186.6</ele>
        <time>2026-03-29T13:50:54Z</time>
      </trkpt>
      <trkpt lat="48.70158" lon="1.95662">
        <ele>186.6</ele>
        <time>2026-03-29T13:50:55Z</time>
      </trkpt>
      <trkpt lat="48.70161" lon="1.95657">
        <ele>186.6</ele>
        <time>2026-03-29T13:50:56Z</time>
      </trkpt>
      <trkpt lat="48.70165" lon="1.95651">
        <ele>185.6</ele>
        <time>2026-03-29T13:50:57Z</time>
      </trkpt>
      <trkpt lat="48.70168" lon="1.95645">
        <ele>185.6</ele>
        <time>2026-03-29T13:50:58Z</time>
      </trkpt>
      <trkpt lat="48.7017" lon="1.95639">
        <ele>185.6</ele>
        <time>2026-03-29T13:50:59Z</time>
      </trkpt>
      <trkpt lat="48.70173" lon="1.95632">
        <ele>185.6</ele>
        <time>2026-03-29T13:51:00Z</time>
      </trkpt>
      <trkpt lat="48.70176" lon="1.95626">
        <ele>185.6</ele>
        <time>2026-03-29T13:51:01Z</time>
      </trkpt>
      <trkpt lat="48.70179" lon="1.95619">
        <ele>185.6</ele>
        <time>2026-03-29T13:51:02Z</time>
      </trkpt>
      <trkpt lat="48.70181" lon="1.95612">
        <ele>185.6</ele>
        <time>2026-03-29T13:51:03Z</time>
      </trkpt>
      <trkpt lat="48.70184" lon="1.95606">
        <ele>185.6</ele>
        <time>2026-03-29T13:51:04Z</time>
      </trkpt>
      <trkpt lat="48.70186" lon="1.95599">
        <ele>185.6</ele>
        <time>2026-03-29T13:51:05Z</time>
      </trkpt>
      <trkpt lat="48.70189" lon="1.95592">
        <ele>185.6</ele>
        <time>2026-03-29T13:51:06Z</time>
      </trkpt>
      <trkpt lat="48.70192" lon="1.95586">
        <ele>185.6</ele>
        <time>2026-03-29T13:51:07Z</time>
      </trkpt>
      <trkpt lat="48.70195" lon="1.9558">
        <ele>185.6</ele>
        <time>2026-03-29T13:51:08Z</time>
      </trkpt>
      <trkpt lat="48.70198" lon="1.95574">
        <ele>184.6</ele>
        <time>2026-03-29T13:51:09Z</time>
      </trkpt>
      <trkpt lat="48.70201" lon="1.95568">
        <ele>185.2</ele>
        <time>2026-03-29T13:51:10Z</time>
      </trkpt>
      <trkpt lat="48.70204" lon="1.95562">
        <ele>185.2</ele>
        <time>2026-03-29T13:51:11Z</time>
      </trkpt>
      <trkpt lat="48.70207" lon="1.95555">
        <ele>185.2</ele>
        <time>2026-03-29T13:51:12Z</time>
      </trkpt>
      <trkpt lat="48.7021" lon="1.95549">
        <ele>184.2</ele>
        <time>2026-03-29T13:51:13Z</time>
      </trkpt>
      <trkpt lat="48.70212" lon="1.95543">
        <ele>184.2</ele>
        <time>2026-03-29T13:51:14Z</time>
      </trkpt>
      <trkpt lat="48.70215" lon="1.95537">
        <ele>184.2</ele>
        <time>2026-03-29T13:51:15Z</time>
      </trkpt>
      <trkpt lat="48.70218" lon="1.9553">
        <ele>184.2</ele>
        <time>2026-03-29T13:51:16Z</time>
      </trkpt>
      <trkpt lat="48.70221" lon="1.95524">
        <ele>183.2</ele>
        <time>2026-03-29T13:51:17Z</time>
      </trkpt>
      <trkpt lat="48.70224" lon="1.95517">
        <ele>182.8</ele>
        <time>2026-03-29T13:51:18Z</time>
      </trkpt>
      <trkpt lat="48.70227" lon="1.9551">
        <ele>182.8</ele>
        <time>2026-03-29T13:51:19Z</time>
      </trkpt>
      <trkpt lat="48.70229" lon="1.95502">
        <ele>182.8</ele>
        <time>2026-03-29T13:51:20Z</time>
      </trkpt>
      <trkpt lat="48.70232" lon="1.95495">
        <ele>182.8</ele>
        <time>2026-03-29T13:51:21Z</time>
      </trkpt>
      <trkpt lat="48.70235" lon="1.95487">
        <ele>182.8</ele>
        <time>2026-03-29T13:51:22Z</time>
      </trkpt>
      <trkpt lat="48.70239" lon="1.95479">
        <ele>182.8</ele>
        <time>2026-03-29T13:51:23Z</time>
      </trkpt>
      <trkpt lat="48.70242" lon="1.95472">
        <ele>182.8</ele>
        <time>2026-03-29T13:51:24Z</time>
      </trkpt>
      <trkpt lat="48.70246" lon="1.95464">
        <ele>181.8</ele>
        <time>2026-03-29T13:51:25Z</time>
      </trkpt>
      <trkpt lat="48.7025" lon="1.95455">
        <ele>180.6</ele>
        <time>2026-03-29T13:51:26Z</time>
      </trkpt>
      <trkpt lat="48.70253" lon="1.95447">
        <ele>180.6</ele>
        <time>2026-03-29T13:51:27Z</time>
      </trkpt>
      <trkpt lat="48.70256" lon="1.95438">
        <ele>180.6</ele>
        <time>2026-03-29T13:51:28Z</time>
      </trkpt>
      <trkpt lat="48.7026" lon="1.95428">
        <ele>180.6</ele>
        <time>2026-03-29T13:51:29Z</time>
      </trkpt>
      <trkpt lat="48.70262" lon="1.95418">
        <ele>179.4</ele>
        <time>2026-03-29T13:51:30Z</time>
      </trkpt>
      <trkpt lat="48.70264" lon="1.95408">
        <ele>179.4</ele>
        <time>2026-03-29T13:51:31Z</time>
      </trkpt>
      <trkpt lat="48.70266" lon="1.95397">
        <ele>179.4</ele>
        <time>2026-03-29T13:51:32Z</time>
      </trkpt>
      <trkpt lat="48.70268" lon="1.95386">
        <ele>178.4</ele>
        <time>2026-03-29T13:51:33Z</time>
      </trkpt>
      <trkpt lat="48.7027" lon="1.95375">
        <ele>178</ele>
        <time>2026-03-29T13:51:34Z</time>
      </trkpt>
      <trkpt lat="48.70272" lon="1.95365">
        <ele>178</ele>
        <time>2026-03-29T13:51:35Z</time>
      </trkpt>
      <trkpt lat="48.70274" lon="1.95355">
        <ele>178</ele>
        <time>2026-03-29T13:51:36Z</time>
      </trkpt>
      <trkpt lat="48.70276" lon="1.95347">
        <ele>177.6</ele>
        <time>2026-03-29T13:51:37Z</time>
      </trkpt>
      <trkpt lat="48.70279" lon="1.95338">
        <ele>177.8</ele>
        <time>2026-03-29T13:51:38Z</time>
      </trkpt>
      <trkpt lat="48.70282" lon="1.95331">
        <ele>177.8</ele>
        <time>2026-03-29T13:51:39Z</time>
      </trkpt>
      <trkpt lat="48.70285" lon="1.95323">
        <ele>177.8</ele>
        <time>2026-03-29T13:51:40Z</time>
      </trkpt>
      <trkpt lat="48.70288" lon="1.95316">
        <ele>178.4</ele>
        <time>2026-03-29T13:51:41Z</time>
      </trkpt>
      <trkpt lat="48.70291" lon="1.9531">
        <ele>178.8</ele>
        <time>2026-03-29T13:51:42Z</time>
      </trkpt>
      <trkpt lat="48.70294" lon="1.95304">
        <ele>178.8</ele>
        <time>2026-03-29T13:51:43Z</time>
      </trkpt>
      <trkpt lat="48.70297" lon="1.95298">
        <ele>178.8</ele>
        <time>2026-03-29T13:51:44Z</time>
      </trkpt>
      <trkpt lat="48.70299" lon="1.95293">
        <ele>179.4</ele>
        <time>2026-03-29T13:51:45Z</time>
      </trkpt>
      <trkpt lat="48.70302" lon="1.95289">
        <ele>179.8</ele>
        <time>2026-03-29T13:51:46Z</time>
      </trkpt>
      <trkpt lat="48.70304" lon="1.95285">
        <ele>179.8</ele>
        <time>2026-03-29T13:51:47Z</time>
      </trkpt>
      <trkpt lat="48.70306" lon="1.95281">
        <ele>179.8</ele>
        <time>2026-03-29T13:51:48Z</time>
      </trkpt>
      <trkpt lat="48.70308" lon="1.95277">
        <ele>180.4</ele>
        <time>2026-03-29T13:51:49Z</time>
      </trkpt>
      <trkpt lat="48.7031" lon="1.95273">
        <ele>180.8</ele>
        <time>2026-03-29T13:51:50Z</time>
      </trkpt>
      <trkpt lat="48.70312" lon="1.9527">
        <ele>180.8</ele>
        <time>2026-03-29T13:51:51Z</time>
      </trkpt>
      <trkpt lat="48.70314" lon="1.95267">
        <ele>180.8</ele>
        <time>2026-03-29T13:51:52Z</time>
      </trkpt>
      <trkpt lat="48.70316" lon="1.95264">
        <ele>181.2</ele>
        <time>2026-03-29T13:51:53Z</time>
      </trkpt>
      <trkpt lat="48.70318" lon="1.9526">
        <ele>181.8</ele>
        <time>2026-03-29T13:51:54Z</time>
      </trkpt>
      <trkpt lat="48.7032" lon="1.95257">
        <ele>181.8</ele>
        <time>2026-03-29T13:51:55Z</time>
      </trkpt>
      <trkpt lat="48.70321" lon="1.95254">
        <ele>181.8</ele>
        <time>2026-03-29T13:51:56Z</time>
      </trkpt>
      <trkpt lat="48.70323" lon="1.9525">
        <ele>181.8</ele>
        <time>2026-03-29T13:51:57Z</time>
      </trkpt>
      <trkpt lat="48.70325" lon="1.95247">
        <ele>182.6</ele>
        <time>2026-03-29T13:51:58Z</time>
      </trkpt>
      <trkpt lat="48.70327" lon="1.95244">
        <ele>182.6</ele>
        <time>2026-03-29T13:51:59Z</time>
      </trkpt>
      <trkpt lat="48.70329" lon="1.95241">
        <ele>182.6</ele>
        <time>2026-03-29T13:52:00Z</time>
      </trkpt>
      <trkpt lat="48.7033" lon="1.95238">
        <ele>182.6</ele>
        <time>2026-03-29T13:52:01Z</time>
      </trkpt>
      <trkpt lat="48.70332" lon="1.95235">
        <ele>182.8</ele>
        <time>2026-03-29T13:52:02Z</time>
      </trkpt>
      <trkpt lat="48.70334" lon="1.95233">
        <ele>182.8</ele>
        <time>2026-03-29T13:52:03Z</time>
      </trkpt>
      <trkpt lat="48.70335" lon="1.95231">
        <ele>182.8</ele>
        <time>2026-03-29T13:52:04Z</time>
      </trkpt>
      <trkpt lat="48.70336" lon="1.9523">
        <ele>183.4</ele>
        <time>2026-03-29T13:52:05Z</time>
      </trkpt>
      <trkpt lat="48.70336" lon="1.95228">
        <ele>182.8</ele>
        <time>2026-03-29T13:52:06Z</time>
      </trkpt>
      <trkpt lat="48.70335" lon="1.95225">
        <ele>182.8</ele>
        <time>2026-03-29T13:52:07Z</time>
      </trkpt>
      <trkpt lat="48.70333" lon="1.95224">
        <ele>182.8</ele>
        <time>2026-03-29T13:52:08Z</time>
      </trkpt>
      <trkpt lat="48.70331" lon="1.95221">
        <ele>183.6</ele>
        <time>2026-03-29T13:52:09Z</time>
      </trkpt>
      <trkpt lat="48.70328" lon="1.95218">
        <ele>183.6</ele>
        <time>2026-03-29T13:52:10Z</time>
      </trkpt>
      <trkpt lat="48.70326" lon="1.95214">
        <ele>183.6</ele>
        <time>2026-03-29T13:52:11Z</time>
      </trkpt>
      <trkpt lat="48.70324" lon="1.95211">
        <ele>183.6</ele>
        <time>2026-03-29T13:52:12Z</time>
      </trkpt>
      <trkpt lat="48.70321" lon="1.95207">
        <ele>183.6</ele>
        <time>2026-03-29T13:52:13Z</time>
      </trkpt>
      <trkpt lat="48.70318" lon="1.95203">
        <ele>184.2</ele>
        <time>2026-03-29T13:52:14Z</time>
      </trkpt>
      <trkpt lat="48.70316" lon="1.952">
        <ele>184.2</ele>
        <time>2026-03-29T13:52:15Z</time>
      </trkpt>
      <trkpt lat="48.70313" lon="1.95196">
        <ele>184.2</ele>
        <time>2026-03-29T13:52:16Z</time>
      </trkpt>
      <trkpt lat="48.7031" lon="1.95192">
        <ele>184.2</ele>
        <time>2026-03-29T13:52:17Z</time>
      </trkpt>
      <trkpt lat="48.70308" lon="1.95188">
        <ele>184.6</ele>
        <time>2026-03-29T13:52:18Z</time>
      </trkpt>
      <trkpt lat="48.70305" lon="1.95184">
        <ele>184.6</ele>
        <time>2026-03-29T13:52:19Z</time>
      </trkpt>
      <trkpt lat="48.70302" lon="1.9518">
        <ele>184.6</ele>
        <time>2026-03-29T13:52:20Z</time>
      </trkpt>
      <trkpt lat="48.703" lon="1.95177">
        <ele>184.6</ele>
        <time>2026-03-29T13:52:21Z</time>
      </trkpt>
      <trkpt lat="48.70297" lon="1.95173">
        <ele>185.2</ele>
        <time>2026-03-29T13:52:22Z</time>
      </trkpt>
      <trkpt lat="48.70295" lon="1.95169">
        <ele>185.2</ele>
        <time>2026-03-29T13:52:23Z</time>
      </trkpt>
      <trkpt lat="48.70292" lon="1.95166">
        <ele>185.2</ele>
        <time>2026-03-29T13:52:24Z</time>
      </trkpt>
      <trkpt lat="48.7029" lon="1.95162">
        <ele>186.2</ele>
        <time>2026-03-29T13:52:25Z</time>
      </trkpt>
      <trkpt lat="48.70287" lon="1.95158">
        <ele>185.6</ele>
        <time>2026-03-29T13:52:26Z</time>
      </trkpt>
      <trkpt lat="48.70285" lon="1.95155">
        <ele>185.6</ele>
        <time>2026-03-29T13:52:27Z</time>
      </trkpt>
      <trkpt lat="48.70282" lon="1.95151">
        <ele>185.6</ele>
        <time>2026-03-29T13:52:28Z</time>
      </trkpt>
      <trkpt lat="48.70279" lon="1.95147">
        <ele>186.6</ele>
        <time>2026-03-29T13:52:29Z</time>
      </trkpt>
      <trkpt lat="48.70277" lon="1.95143">
        <ele>187.2</ele>
        <time>2026-03-29T13:52:30Z</time>
      </trkpt>
      <trkpt lat="48.70274" lon="1.9514">
        <ele>187.2</ele>
        <time>2026-03-29T13:52:31Z</time>
      </trkpt>
      <trkpt lat="48.70272" lon="1.95136">
        <ele>187.2</ele>
        <time>2026-03-29T13:52:32Z</time>
      </trkpt>
      <trkpt lat="48.70269" lon="1.95132">
        <ele>187.2</ele>
        <time>2026-03-29T13:52:33Z</time>
      </trkpt>
      <trkpt lat="48.70266" lon="1.95128">
        <ele>187.4</ele>
        <time>2026-03-29T13:52:34Z</time>
      </trkpt>
      <trkpt lat="48.70264" lon="1.95124">
        <ele>187.4</ele>
        <time>2026-03-29T13:52:35Z</time>
      </trkpt>
      <trkpt lat="48.70261" lon="1.9512">
        <ele>187.4</ele>
        <time>2026-03-29T13:52:36Z</time>
      </trkpt>
      <trkpt lat="48.70259" lon="1.95117">
        <ele>187.4</ele>
        <time>2026-03-29T13:52:37Z</time>
      </trkpt>
      <trkpt lat="48.70256" lon="1.95113">
        <ele>187.4</ele>
        <time>2026-03-29T13:52:38Z</time>
      </trkpt>
      <trkpt lat="48.70253" lon="1.95109">
        <ele>187.4</ele>
        <time>2026-03-29T13:52:39Z</time>
      </trkpt>
      <trkpt lat="48.70251" lon="1.95105">
        <ele>187.4</ele>
        <time>2026-03-29T13:52:40Z</time>
      </trkpt>
      <trkpt lat="48.70248" lon="1.95101">
        <ele>188.4</ele>
        <time>2026-03-29T13:52:41Z</time>
      </trkpt>
      <trkpt lat="48.70245" lon="1.95098">
        <ele>188</ele>
        <time>2026-03-29T13:52:42Z</time>
      </trkpt>
      <trkpt lat="48.70243" lon="1.95094">
        <ele>188</ele>
        <time>2026-03-29T13:52:43Z</time>
      </trkpt>
      <trkpt lat="48.7024" lon="1.9509">
        <ele>188</ele>
        <time>2026-03-29T13:52:44Z</time>
      </trkpt>
      <trkpt lat="48.70237" lon="1.95086">
        <ele>188</ele>
        <time>2026-03-29T13:52:45Z</time>
      </trkpt>
      <trkpt lat="48.70235" lon="1.95082">
        <ele>188.8</ele>
        <time>2026-03-29T13:52:46Z</time>
      </trkpt>
      <trkpt lat="48.70232" lon="1.95078">
        <ele>188.8</ele>
        <time>2026-03-29T13:52:47Z</time>
      </trkpt>
      <trkpt lat="48.70229" lon="1.95074">
        <ele>188.8</ele>
        <time>2026-03-29T13:52:48Z</time>
      </trkpt>
      <trkpt lat="48.70227" lon="1.9507">
        <ele>188.8</ele>
        <time>2026-03-29T13:52:49Z</time>
      </trkpt>
      <trkpt lat="48.70224" lon="1.95066">
        <ele>189</ele>
        <time>2026-03-29T13:52:50Z</time>
      </trkpt>
      <trkpt lat="48.70221" lon="1.95062">
        <ele>189</ele>
        <time>2026-03-29T13:52:51Z</time>
      </trkpt>
      <trkpt lat="48.70218" lon="1.95058">
        <ele>189</ele>
        <time>2026-03-29T13:52:52Z</time>
      </trkpt>
      <trkpt lat="48.70215" lon="1.95054">
        <ele>189</ele>
        <time>2026-03-29T13:52:53Z</time>
      </trkpt>
      <trkpt lat="48.70212" lon="1.9505">
        <ele>189.4</ele>
        <time>2026-03-29T13:52:54Z</time>
      </trkpt>
      <trkpt lat="48.70209" lon="1.95046">
        <ele>189.4</ele>
        <time>2026-03-29T13:52:55Z</time>
      </trkpt>
      <trkpt lat="48.70207" lon="1.95042">
        <ele>189.4</ele>
        <time>2026-03-29T13:52:56Z</time>
      </trkpt>
      <trkpt lat="48.70204" lon="1.95038">
        <ele>189.4</ele>
        <time>2026-03-29T13:52:57Z</time>
      </trkpt>
      <trkpt lat="48.70201" lon="1.95033">
        <ele>189.4</ele>
        <time>2026-03-29T13:52:58Z</time>
      </trkpt>
      <trkpt lat="48.70198" lon="1.95029">
        <ele>189.4</ele>
        <time>2026-03-29T13:52:59Z</time>
      </trkpt>
      <trkpt lat="48.70195" lon="1.95025">
        <ele>189.4</ele>
        <time>2026-03-29T13:53:00Z</time>
      </trkpt>
      <trkpt lat="48.70192" lon="1.95021">
        <ele>189.8</ele>
        <time>2026-03-29T13:53:01Z</time>
      </trkpt>
      <trkpt lat="48.70189" lon="1.95017">
        <ele>189.8</ele>
        <time>2026-03-29T13:53:02Z</time>
      </trkpt>
      <trkpt lat="48.70187" lon="1.95013">
        <ele>189.8</ele>
        <time>2026-03-29T13:53:03Z</time>
      </trkpt>
      <trkpt lat="48.70184" lon="1.95008">
        <ele>189.8</ele>
        <time>2026-03-29T13:53:04Z</time>
      </trkpt>
      <trkpt lat="48.70183" lon="1.95002">
        <ele>189.8</ele>
        <time>2026-03-29T13:53:05Z</time>
      </trkpt>
      <trkpt lat="48.70182" lon="1.94996">
        <ele>190.2</ele>
        <time>2026-03-29T13:53:06Z</time>
      </trkpt>
      <trkpt lat="48.70183" lon="1.94989">
        <ele>190.2</ele>
        <time>2026-03-29T13:53:07Z</time>
      </trkpt>
      <trkpt lat="48.70185" lon="1.94984">
        <ele>190.2</ele>
        <time>2026-03-29T13:53:08Z</time>
      </trkpt>
      <trkpt lat="48.70187" lon="1.9498">
        <ele>190.2</ele>
        <time>2026-03-29T13:53:09Z</time>
      </trkpt>
      <trkpt lat="48.70191" lon="1.94976">
        <ele>190</ele>
        <time>2026-03-29T13:53:10Z</time>
      </trkpt>
      <trkpt lat="48.70195" lon="1.94973">
        <ele>190</ele>
        <time>2026-03-29T13:53:11Z</time>
      </trkpt>
      <trkpt lat="48.70199" lon="1.9497">
        <ele>190</ele>
        <time>2026-03-29T13:53:12Z</time>
      </trkpt>
      <trkpt lat="48.70203" lon="1.94967">
        <ele>190</ele>
        <time>2026-03-29T13:53:13Z</time>
      </trkpt>
      <trkpt lat="48.70207" lon="1.94964">
        <ele>190.4</ele>
        <time>2026-03-29T13:53:14Z</time>
      </trkpt>
      <trkpt lat="48.70212" lon="1.94961">
        <ele>190.4</ele>
        <time>2026-03-29T13:53:15Z</time>
      </trkpt>
      <trkpt lat="48.70216" lon="1.94959">
        <ele>190.4</ele>
        <time>2026-03-29T13:53:16Z</time>
      </trkpt>
      <trkpt lat="48.70221" lon="1.94956">
        <ele>190.4</ele>
        <time>2026-03-29T13:53:17Z</time>
      </trkpt>
      <trkpt lat="48.70226" lon="1.94953">
        <ele>189.2</ele>
        <time>2026-03-29T13:53:18Z</time>
      </trkpt>
      <trkpt lat="48.70231" lon="1.94949">
        <ele>189.2</ele>
        <time>2026-03-29T13:53:19Z</time>
      </trkpt>
      <trkpt lat="48.70236" lon="1.94946">
        <ele>189.2</ele>
        <time>2026-03-29T13:53:20Z</time>
      </trkpt>
      <trkpt lat="48.70241" lon="1.94943">
        <ele>189.2</ele>
        <time>2026-03-29T13:53:21Z</time>
      </trkpt>
      <trkpt lat="48.70246" lon="1.9494">
        <ele>189</ele>
        <time>2026-03-29T13:53:22Z</time>
      </trkpt>
      <trkpt lat="48.70251" lon="1.94936">
        <ele>189</ele>
        <time>2026-03-29T13:53:23Z</time>
      </trkpt>
      <trkpt lat="48.70256" lon="1.94933">
        <ele>189</ele>
        <time>2026-03-29T13:53:24Z</time>
      </trkpt>
      <trkpt lat="48.70262" lon="1.94929">
        <ele>189</ele>
        <time>2026-03-29T13:53:25Z</time>
      </trkpt>
      <trkpt lat="48.70267" lon="1.94926">
        <ele>188.6</ele>
        <time>2026-03-29T13:53:26Z</time>
      </trkpt>
      <trkpt lat="48.70272" lon="1.94922">
        <ele>188.6</ele>
        <time>2026-03-29T13:53:27Z</time>
      </trkpt>
      <trkpt lat="48.70278" lon="1.94918">
        <ele>188.6</ele>
        <time>2026-03-29T13:53:28Z</time>
      </trkpt>
      <trkpt lat="48.70283" lon="1.94915">
        <ele>188.6</ele>
        <time>2026-03-29T13:53:29Z</time>
      </trkpt>
      <trkpt lat="48.70289" lon="1.94911">
        <ele>188.6</ele>
        <time>2026-03-29T13:53:30Z</time>
      </trkpt>
      <trkpt lat="48.70294" lon="1.94907">
        <ele>188.6</ele>
        <time>2026-03-29T13:53:31Z</time>
      </trkpt>
      <trkpt lat="48.703" lon="1.94904">
        <ele>188.6</ele>
        <time>2026-03-29T13:53:32Z</time>
      </trkpt>
      <trkpt lat="48.70306" lon="1.949">
        <ele>188.6</ele>
        <time>2026-03-29T13:53:33Z</time>
      </trkpt>
      <trkpt lat="48.70311" lon="1.94896">
        <ele>188</ele>
        <time>2026-03-29T13:53:34Z</time>
      </trkpt>
      <trkpt lat="48.70317" lon="1.94893">
        <ele>188</ele>
        <time>2026-03-29T13:53:35Z</time>
      </trkpt>
      <trkpt lat="48.70323" lon="1.94889">
        <ele>188</ele>
        <time>2026-03-29T13:53:36Z</time>
      </trkpt>
      <trkpt lat="48.70328" lon="1.94885">
        <ele>188</ele>
        <time>2026-03-29T13:53:37Z</time>
      </trkpt>
      <trkpt lat="48.70334" lon="1.94882">
        <ele>187.6</ele>
        <time>2026-03-29T13:53:38Z</time>
      </trkpt>
      <trkpt lat="48.70339" lon="1.94878">
        <ele>187.6</ele>
        <time>2026-03-29T13:53:39Z</time>
      </trkpt>
      <trkpt lat="48.70345" lon="1.94875">
        <ele>187.6</ele>
        <time>2026-03-29T13:53:40Z</time>
      </trkpt>
      <trkpt lat="48.7035" lon="1.94871">
        <ele>187.6</ele>
        <time>2026-03-29T13:53:41Z</time>
      </trkpt>
      <trkpt lat="48.70356" lon="1.94867">
        <ele>188.2</ele>
        <time>2026-03-29T13:53:42Z</time>
      </trkpt>
      <trkpt lat="48.70361" lon="1.94864">
        <ele>188.2</ele>
        <time>2026-03-29T13:53:43Z</time>
      </trkpt>
      <trkpt lat="48.70366" lon="1.9486">
        <ele>188.2</ele>
        <time>2026-03-29T13:53:44Z</time>
      </trkpt>
      <trkpt lat="48.70372" lon="1.94857">
        <ele>188</ele>
        <time>2026-03-29T13:53:45Z</time>
      </trkpt>
      <trkpt lat="48.70377" lon="1.94854">
        <ele>187.4</ele>
        <time>2026-03-29T13:53:46Z</time>
      </trkpt>
      <trkpt lat="48.70382" lon="1.9485">
        <ele>187.4</ele>
        <time>2026-03-29T13:53:47Z</time>
      </trkpt>
      <trkpt lat="48.70387" lon="1.94847">
        <ele>187.4</ele>
        <time>2026-03-29T13:53:48Z</time>
      </trkpt>
      <trkpt lat="48.70392" lon="1.94844">
        <ele>187.4</ele>
        <time>2026-03-29T13:53:49Z</time>
      </trkpt>
      <trkpt lat="48.70397" lon="1.94841">
        <ele>187</ele>
        <time>2026-03-29T13:53:50Z</time>
      </trkpt>
      <trkpt lat="48.70402" lon="1.94838">
        <ele>187</ele>
        <time>2026-03-29T13:53:51Z</time>
      </trkpt>
      <trkpt lat="48.70407" lon="1.94834">
        <ele>187</ele>
        <time>2026-03-29T13:53:52Z</time>
      </trkpt>
      <trkpt lat="48.70412" lon="1.94831">
        <ele>187</ele>
        <time>2026-03-29T13:53:53Z</time>
      </trkpt>
      <trkpt lat="48.70417" lon="1.94828">
        <ele>187</ele>
        <time>2026-03-29T13:53:54Z</time>
      </trkpt>
      <trkpt lat="48.70422" lon="1.94824">
        <ele>187</ele>
        <time>2026-03-29T13:53:55Z</time>
      </trkpt>
      <trkpt lat="48.70427" lon="1.94821">
        <ele>187</ele>
        <time>2026-03-29T13:53:56Z</time>
      </trkpt>
      <trkpt lat="48.70432" lon="1.94817">
        <ele>187</ele>
        <time>2026-03-29T13:53:57Z</time>
      </trkpt>
      <trkpt lat="48.70437" lon="1.94814">
        <ele>187.4</ele>
        <time>2026-03-29T13:53:58Z</time>
      </trkpt>
      <trkpt lat="48.70442" lon="1.94811">
        <ele>187.4</ele>
        <time>2026-03-29T13:53:59Z</time>
      </trkpt>
      <trkpt lat="48.70447" lon="1.94807">
        <ele>187.4</ele>
        <time>2026-03-29T13:54:00Z</time>
      </trkpt>
      <trkpt lat="48.70452" lon="1.94804">
        <ele>187.4</ele>
        <time>2026-03-29T13:54:01Z</time>
      </trkpt>
      <trkpt lat="48.70458" lon="1.94801">
        <ele>186.8</ele>
        <time>2026-03-29T13:54:02Z</time>
      </trkpt>
      <trkpt lat="48.70463" lon="1.94797">
        <ele>186.8</ele>
        <time>2026-03-29T13:54:03Z</time>
      </trkpt>
      <trkpt lat="48.70468" lon="1.94794">
        <ele>186.8</ele>
        <time>2026-03-29T13:54:04Z</time>
      </trkpt>
      <trkpt lat="48.70473" lon="1.94791">
        <ele>186.8</ele>
        <time>2026-03-29T13:54:05Z</time>
      </trkpt>
      <trkpt lat="48.70478" lon="1.94788">
        <ele>187.2</ele>
        <time>2026-03-29T13:54:06Z</time>
      </trkpt>
      <trkpt lat="48.70483" lon="1.94785">
        <ele>187.2</ele>
        <time>2026-03-29T13:54:07Z</time>
      </trkpt>
      <trkpt lat="48.70488" lon="1.94781">
        <ele>187.2</ele>
        <time>2026-03-29T13:54:08Z</time>
      </trkpt>
      <trkpt lat="48.70492" lon="1.94778">
        <ele>186.6</ele>
        <time>2026-03-29T13:54:09Z</time>
      </trkpt>
      <trkpt lat="48.70497" lon="1.94775">
        <ele>186.8</ele>
        <time>2026-03-29T13:54:10Z</time>
      </trkpt>
      <trkpt lat="48.70502" lon="1.94772">
        <ele>186.8</ele>
        <time>2026-03-29T13:54:11Z</time>
      </trkpt>
      <trkpt lat="48.70507" lon="1.94768">
        <ele>186.8</ele>
        <time>2026-03-29T13:54:12Z</time>
      </trkpt>
      <trkpt lat="48.70512" lon="1.94765">
        <ele>186.8</ele>
        <time>2026-03-29T13:54:13Z</time>
      </trkpt>
      <trkpt lat="48.70517" lon="1.94762">
        <ele>186.8</ele>
        <time>2026-03-29T13:54:14Z</time>
      </trkpt>
      <trkpt lat="48.70523" lon="1.94758">
        <ele>186.8</ele>
        <time>2026-03-29T13:54:15Z</time>
      </trkpt>
      <trkpt lat="48.70528" lon="1.94755">
        <ele>186.8</ele>
        <time>2026-03-29T13:54:16Z</time>
      </trkpt>
      <trkpt lat="48.70532" lon="1.94752">
        <ele>186.8</ele>
        <time>2026-03-29T13:54:17Z</time>
      </trkpt>
      <trkpt lat="48.70537" lon="1.94749">
        <ele>186</ele>
        <time>2026-03-29T13:54:18Z</time>
      </trkpt>
      <trkpt lat="48.70542" lon="1.94746">
        <ele>186</ele>
        <time>2026-03-29T13:54:19Z</time>
      </trkpt>
      <trkpt lat="48.70547" lon="1.94743">
        <ele>186</ele>
        <time>2026-03-29T13:54:20Z</time>
      </trkpt>
      <trkpt lat="48.70552" lon="1.9474">
        <ele>186</ele>
        <time>2026-03-29T13:54:21Z</time>
      </trkpt>
      <trkpt lat="48.70557" lon="1.94736">
        <ele>185.4</ele>
        <time>2026-03-29T13:54:22Z</time>
      </trkpt>
      <trkpt lat="48.70561" lon="1.94733">
        <ele>185.4</ele>
        <time>2026-03-29T13:54:23Z</time>
      </trkpt>
      <trkpt lat="48.70566" lon="1.9473">
        <ele>185.4</ele>
        <time>2026-03-29T13:54:24Z</time>
      </trkpt>
      <trkpt lat="48.70571" lon="1.94727">
        <ele>185.4</ele>
        <time>2026-03-29T13:54:25Z</time>
      </trkpt>
      <trkpt lat="48.70576" lon="1.94724">
        <ele>186</ele>
        <time>2026-03-29T13:54:26Z</time>
      </trkpt>
      <trkpt lat="48.70581" lon="1.94721">
        <ele>186</ele>
        <time>2026-03-29T13:54:27Z</time>
      </trkpt>
      <trkpt lat="48.70585" lon="1.94717">
        <ele>186</ele>
        <time>2026-03-29T13:54:28Z</time>
      </trkpt>
      <trkpt lat="48.7059" lon="1.94714">
        <ele>186</ele>
        <time>2026-03-29T13:54:29Z</time>
      </trkpt>
      <trkpt lat="48.70595" lon="1.94712">
        <ele>185.6</ele>
        <time>2026-03-29T13:54:30Z</time>
      </trkpt>
      <trkpt lat="48.706" lon="1.94712">
        <ele>185.6</ele>
        <time>2026-03-29T13:54:31Z</time>
      </trkpt>
      <trkpt lat="48.70604" lon="1.94714">
        <ele>185.6</ele>
        <time>2026-03-29T13:54:32Z</time>
      </trkpt>
      <trkpt lat="48.70608" lon="1.94719">
        <ele>185.6</ele>
        <time>2026-03-29T13:54:33Z</time>
      </trkpt>
      <trkpt lat="48.7061" lon="1.94725">
        <ele>185.8</ele>
        <time>2026-03-29T13:54:34Z</time>
      </trkpt>
      <trkpt lat="48.70613" lon="1.94732">
        <ele>185.8</ele>
        <time>2026-03-29T13:54:35Z</time>
      </trkpt>
      <trkpt lat="48.70615" lon="1.9474">
        <ele>185.8</ele>
        <time>2026-03-29T13:54:36Z</time>
      </trkpt>
      <trkpt lat="48.70617" lon="1.94748">
        <ele>185.8</ele>
        <time>2026-03-29T13:54:37Z</time>
      </trkpt>
      <trkpt lat="48.7062" lon="1.94756">
        <ele>185.2</ele>
        <time>2026-03-29T13:54:38Z</time>
      </trkpt>
      <trkpt lat="48.70622" lon="1.94764">
        <ele>185.2</ele>
        <time>2026-03-29T13:54:39Z</time>
      </trkpt>
      <trkpt lat="48.70625" lon="1.94772">
        <ele>185.2</ele>
        <time>2026-03-29T13:54:40Z</time>
      </trkpt>
      <trkpt lat="48.70627" lon="1.9478">
        <ele>185.2</ele>
        <time>2026-03-29T13:54:41Z</time>
      </trkpt>
      <trkpt lat="48.7063" lon="1.94788">
        <ele>186.4</ele>
        <time>2026-03-29T13:54:42Z</time>
      </trkpt>
      <trkpt lat="48.70632" lon="1.94797">
        <ele>186.4</ele>
        <time>2026-03-29T13:54:43Z</time>
      </trkpt>
      <trkpt lat="48.70634" lon="1.94805">
        <ele>186.4</ele>
        <time>2026-03-29T13:54:44Z</time>
      </trkpt>
      <trkpt lat="48.70637" lon="1.94814">
        <ele>186</ele>
        <time>2026-03-29T13:54:45Z</time>
      </trkpt>
      <trkpt lat="48.70639" lon="1.94823">
        <ele>186</ele>
        <time>2026-03-29T13:54:46Z</time>
      </trkpt>
      <trkpt lat="48.70641" lon="1.94832">
        <ele>186</ele>
        <time>2026-03-29T13:54:47Z</time>
      </trkpt>
      <trkpt lat="48.70643" lon="1.9484">
        <ele>186</ele>
        <time>2026-03-29T13:54:48Z</time>
      </trkpt>
      <trkpt lat="48.70645" lon="1.94849">
        <ele>186</ele>
        <time>2026-03-29T13:54:49Z</time>
      </trkpt>
      <trkpt lat="48.70647" lon="1.94858">
        <ele>186.6</ele>
        <time>2026-03-29T13:54:50Z</time>
      </trkpt>
      <trkpt lat="48.70649" lon="1.94867">
        <ele>186.6</ele>
        <time>2026-03-29T13:54:51Z</time>
      </trkpt>
      <trkpt lat="48.70651" lon="1.94876">
        <ele>186.6</ele>
        <time>2026-03-29T13:54:52Z</time>
      </trkpt>
      <trkpt lat="48.70652" lon="1.94886">
        <ele>185.6</ele>
        <time>2026-03-29T13:54:53Z</time>
      </trkpt>
      <trkpt lat="48.70654" lon="1.94895">
        <ele>186</ele>
        <time>2026-03-29T13:54:54Z</time>
      </trkpt>
      <trkpt lat="48.70655" lon="1.94905">
        <ele>186</ele>
        <time>2026-03-29T13:54:55Z</time>
      </trkpt>
      <trkpt lat="48.70655" lon="1.94915">
        <ele>186</ele>
        <time>2026-03-29T13:54:56Z</time>
      </trkpt>
      <trkpt lat="48.70656" lon="1.94925">
        <ele>185.6</ele>
        <time>2026-03-29T13:54:57Z</time>
      </trkpt>
      <trkpt lat="48.70656" lon="1.94935">
        <ele>185.8</ele>
        <time>2026-03-29T13:54:58Z</time>
      </trkpt>
      <trkpt lat="48.70656" lon="1.94945">
        <ele>185.8</ele>
        <time>2026-03-29T13:54:59Z</time>
      </trkpt>
      <trkpt lat="48.70656" lon="1.94955">
        <ele>185.8</ele>
        <time>2026-03-29T13:55:00Z</time>
      </trkpt>
      <trkpt lat="48.70656" lon="1.94964">
        <ele>185.8</ele>
        <time>2026-03-29T13:55:01Z</time>
      </trkpt>
      <trkpt lat="48.70656" lon="1.94974">
        <ele>186</ele>
        <time>2026-03-29T13:55:02Z</time>
      </trkpt>
      <trkpt lat="48.70656" lon="1.94983">
        <ele>186</ele>
        <time>2026-03-29T13:55:03Z</time>
      </trkpt>
      <trkpt lat="48.70656" lon="1.94993">
        <ele>186</ele>
        <time>2026-03-29T13:55:04Z</time>
      </trkpt>
      <trkpt lat="48.70655" lon="1.95002">
        <ele>186</ele>
        <time>2026-03-29T13:55:05Z</time>
      </trkpt>
      <trkpt lat="48.70655" lon="1.95012">
        <ele>186.6</ele>
        <time>2026-03-29T13:55:06Z</time>
      </trkpt>
      <trkpt lat="48.70655" lon="1.95021">
        <ele>186.6</ele>
        <time>2026-03-29T13:55:07Z</time>
      </trkpt>
      <trkpt lat="48.70655" lon="1.9503">
        <ele>186.6</ele>
        <time>2026-03-29T13:55:08Z</time>
      </trkpt>
      <trkpt lat="48.70655" lon="1.95039">
        <ele>186.6</ele>
        <time>2026-03-29T13:55:09Z</time>
      </trkpt>
      <trkpt lat="48.70655" lon="1.95049">
        <ele>186.8</ele>
        <time>2026-03-29T13:55:10Z</time>
      </trkpt>
      <trkpt lat="48.70654" lon="1.95058">
        <ele>186.8</ele>
        <time>2026-03-29T13:55:11Z</time>
      </trkpt>
      <trkpt lat="48.70654" lon="1.95067">
        <ele>186.8</ele>
        <time>2026-03-29T13:55:12Z</time>
      </trkpt>
      <trkpt lat="48.70654" lon="1.95076">
        <ele>187.2</ele>
        <time>2026-03-29T13:55:13Z</time>
      </trkpt>
      <trkpt lat="48.70654" lon="1.95085">
        <ele>187.6</ele>
        <time>2026-03-29T13:55:14Z</time>
      </trkpt>
      <trkpt lat="48.70654" lon="1.95093">
        <ele>187.6</ele>
        <time>2026-03-29T13:55:15Z</time>
      </trkpt>
      <trkpt lat="48.70654" lon="1.95102">
        <ele>187.6</ele>
        <time>2026-03-29T13:55:16Z</time>
      </trkpt>
      <trkpt lat="48.70654" lon="1.95111">
        <ele>187.6</ele>
        <time>2026-03-29T13:55:17Z</time>
      </trkpt>
      <trkpt lat="48.70654" lon="1.9512">
        <ele>188</ele>
        <time>2026-03-29T13:55:18Z</time>
      </trkpt>
      <trkpt lat="48.70654" lon="1.95128">
        <ele>188</ele>
        <time>2026-03-29T13:55:19Z</time>
      </trkpt>
      <trkpt lat="48.70654" lon="1.95137">
        <ele>188</ele>
        <time>2026-03-29T13:55:20Z</time>
      </trkpt>
      <trkpt lat="48.70654" lon="1.95146">
        <ele>188</ele>
        <time>2026-03-29T13:55:21Z</time>
      </trkpt>
      <trkpt lat="48.70654" lon="1.95154">
        <ele>188</ele>
        <time>2026-03-29T13:55:22Z</time>
      </trkpt>
      <trkpt lat="48.70654" lon="1.95163">
        <ele>188</ele>
        <time>2026-03-29T13:55:23Z</time>
      </trkpt>
      <trkpt lat="48.70655" lon="1.95171">
        <ele>188</ele>
        <time>2026-03-29T13:55:24Z</time>
      </trkpt>
      <trkpt lat="48.70656" lon="1.9518">
        <ele>188.2</ele>
        <time>2026-03-29T13:55:25Z</time>
      </trkpt>
      <trkpt lat="48.70656" lon="1.95189">
        <ele>187.4</ele>
        <time>2026-03-29T13:55:26Z</time>
      </trkpt>
      <trkpt lat="48.70657" lon="1.95198">
        <ele>187.4</ele>
        <time>2026-03-29T13:55:27Z</time>
      </trkpt>
      <trkpt lat="48.70658" lon="1.95207">
        <ele>187.4</ele>
        <time>2026-03-29T13:55:28Z</time>
      </trkpt>
      <trkpt lat="48.70658" lon="1.95216">
        <ele>187.6</ele>
        <time>2026-03-29T13:55:29Z</time>
      </trkpt>
      <trkpt lat="48.70659" lon="1.95226">
        <ele>187.6</ele>
        <time>2026-03-29T13:55:30Z</time>
      </trkpt>
      <trkpt lat="48.7066" lon="1.95235">
        <ele>187.6</ele>
        <time>2026-03-29T13:55:31Z</time>
      </trkpt>
      <trkpt lat="48.7066" lon="1.95245">
        <ele>187.6</ele>
        <time>2026-03-29T13:55:32Z</time>
      </trkpt>
      <trkpt lat="48.70661" lon="1.95254">
        <ele>187.6</ele>
        <time>2026-03-29T13:55:33Z</time>
      </trkpt>
      <trkpt lat="48.70661" lon="1.95264">
        <ele>187.6</ele>
        <time>2026-03-29T13:55:34Z</time>
      </trkpt>
      <trkpt lat="48.70661" lon="1.95274">
        <ele>187.6</ele>
        <time>2026-03-29T13:55:35Z</time>
      </trkpt>
      <trkpt lat="48.70662" lon="1.95284">
        <ele>187.6</ele>
        <time>2026-03-29T13:55:36Z</time>
      </trkpt>
      <trkpt lat="48.70662" lon="1.95294">
        <ele>187.6</ele>
        <time>2026-03-29T13:55:37Z</time>
      </trkpt>
      <trkpt lat="48.70663" lon="1.95304">
        <ele>187.6</ele>
        <time>2026-03-29T13:55:38Z</time>
      </trkpt>
      <trkpt lat="48.70663" lon="1.95314">
        <ele>187.6</ele>
        <time>2026-03-29T13:55:39Z</time>
      </trkpt>
      <trkpt lat="48.70663" lon="1.95325">
        <ele>187.6</ele>
        <time>2026-03-29T13:55:40Z</time>
      </trkpt>
      <trkpt lat="48.70663" lon="1.95335">
        <ele>187.6</ele>
        <time>2026-03-29T13:55:41Z</time>
      </trkpt>
      <trkpt lat="48.70663" lon="1.95346">
        <ele>188</ele>
        <time>2026-03-29T13:55:42Z</time>
      </trkpt>
      <trkpt lat="48.70663" lon="1.95356">
        <ele>188</ele>
        <time>2026-03-29T13:55:43Z</time>
      </trkpt>
      <trkpt lat="48.70663" lon="1.95366">
        <ele>188</ele>
        <time>2026-03-29T13:55:44Z</time>
      </trkpt>
      <trkpt lat="48.70662" lon="1.95376">
        <ele>187.8</ele>
        <time>2026-03-29T13:55:45Z</time>
      </trkpt>
      <trkpt lat="48.70661" lon="1.95386">
        <ele>188.4</ele>
        <time>2026-03-29T13:55:46Z</time>
      </trkpt>
      <trkpt lat="48.70661" lon="1.95396">
        <ele>188.4</ele>
        <time>2026-03-29T13:55:47Z</time>
      </trkpt>
      <trkpt lat="48.7066" lon="1.95406">
        <ele>188.4</ele>
        <time>2026-03-29T13:55:48Z</time>
      </trkpt>
      <trkpt lat="48.70659" lon="1.95415">
        <ele>188</ele>
        <time>2026-03-29T13:55:49Z</time>
      </trkpt>
      <trkpt lat="48.70659" lon="1.95425">
        <ele>188.2</ele>
        <time>2026-03-29T13:55:50Z</time>
      </trkpt>
      <trkpt lat="48.70658" lon="1.95435">
        <ele>188.2</ele>
        <time>2026-03-29T13:55:51Z</time>
      </trkpt>
      <trkpt lat="48.70656" lon="1.95444">
        <ele>188.2</ele>
        <time>2026-03-29T13:55:52Z</time>
      </trkpt>
      <trkpt lat="48.70655" lon="1.95454">
        <ele>188.2</ele>
        <time>2026-03-29T13:55:53Z</time>
      </trkpt>
      <trkpt lat="48.70654" lon="1.95463">
        <ele>188.8</ele>
        <time>2026-03-29T13:55:54Z</time>
      </trkpt>
      <trkpt lat="48.70652" lon="1.95473">
        <ele>188.8</ele>
        <time>2026-03-29T13:55:55Z</time>
      </trkpt>
      <trkpt lat="48.70651" lon="1.95482">
        <ele>188.8</ele>
        <time>2026-03-29T13:55:56Z</time>
      </trkpt>
      <trkpt lat="48.70649" lon="1.95492">
        <ele>188.8</ele>
        <time>2026-03-29T13:55:57Z</time>
      </trkpt>
      <trkpt lat="48.70647" lon="1.95501">
        <ele>189</ele>
        <time>2026-03-29T13:55:58Z</time>
      </trkpt>
      <trkpt lat="48.70646" lon="1.9551">
        <ele>189</ele>
        <time>2026-03-29T13:55:59Z</time>
      </trkpt>
      <trkpt lat="48.70644" lon="1.95519">
        <ele>189</ele>
        <time>2026-03-29T13:56:00Z</time>
      </trkpt>
      <trkpt lat="48.70642" lon="1.95529">
        <ele>189</ele>
        <time>2026-03-29T13:56:01Z</time>
      </trkpt>
      <trkpt lat="48.7064" lon="1.95538">
        <ele>189.8</ele>
        <time>2026-03-29T13:56:02Z</time>
      </trkpt>
      <trkpt lat="48.70638" lon="1.95548">
        <ele>189.8</ele>
        <time>2026-03-29T13:56:03Z</time>
      </trkpt>
      <trkpt lat="48.70636" lon="1.95557">
        <ele>189.8</ele>
        <time>2026-03-29T13:56:04Z</time>
      </trkpt>
      <trkpt lat="48.70634" lon="1.95566">
        <ele>189.8</ele>
        <time>2026-03-29T13:56:05Z</time>
      </trkpt>
      <trkpt lat="48.70632" lon="1.95575">
        <ele>190.2</ele>
        <time>2026-03-29T13:56:06Z</time>
      </trkpt>
      <trkpt lat="48.70629" lon="1.95583">
        <ele>190.2</ele>
        <time>2026-03-29T13:56:07Z</time>
      </trkpt>
      <trkpt lat="48.70627" lon="1.95592">
        <ele>190.2</ele>
        <time>2026-03-29T13:56:08Z</time>
      </trkpt>
      <trkpt lat="48.70624" lon="1.956">
        <ele>190.2</ele>
        <time>2026-03-29T13:56:09Z</time>
      </trkpt>
      <trkpt lat="48.70622" lon="1.95608">
        <ele>190.6</ele>
        <time>2026-03-29T13:56:10Z</time>
      </trkpt>
      <trkpt lat="48.70618" lon="1.95616">
        <ele>190.6</ele>
        <time>2026-03-29T13:56:11Z</time>
      </trkpt>
      <trkpt lat="48.70615" lon="1.95624">
        <ele>190.6</ele>
        <time>2026-03-29T13:56:12Z</time>
      </trkpt>
      <trkpt lat="48.70612" lon="1.95631">
        <ele>190.6</ele>
        <time>2026-03-29T13:56:13Z</time>
      </trkpt>
      <trkpt lat="48.70609" lon="1.95639">
        <ele>191.2</ele>
        <time>2026-03-29T13:56:14Z</time>
      </trkpt>
      <trkpt lat="48.70606" lon="1.95647">
        <ele>191.2</ele>
        <time>2026-03-29T13:56:15Z</time>
      </trkpt>
      <trkpt lat="48.70603" lon="1.95654">
        <ele>191.2</ele>
        <time>2026-03-29T13:56:16Z</time>
      </trkpt>
      <trkpt lat="48.70601" lon="1.95662">
        <ele>191.2</ele>
        <time>2026-03-29T13:56:17Z</time>
      </trkpt>
      <trkpt lat="48.70598" lon="1.9567">
        <ele>191.6</ele>
        <time>2026-03-29T13:56:18Z</time>
      </trkpt>
      <trkpt lat="48.70595" lon="1.95678">
        <ele>191.6</ele>
        <time>2026-03-29T13:56:19Z</time>
      </trkpt>
      <trkpt lat="48.70592" lon="1.95686">
        <ele>191.6</ele>
        <time>2026-03-29T13:56:20Z</time>
      </trkpt>
      <trkpt lat="48.70589" lon="1.95694">
        <ele>191.6</ele>
        <time>2026-03-29T13:56:21Z</time>
      </trkpt>
      <trkpt lat="48.70586" lon="1.95703">
        <ele>191.8</ele>
        <time>2026-03-29T13:56:22Z</time>
      </trkpt>
      <trkpt lat="48.70583" lon="1.95711">
        <ele>191.8</ele>
        <time>2026-03-29T13:56:23Z</time>
      </trkpt>
      <trkpt lat="48.7058" lon="1.95719">
        <ele>191.8</ele>
        <time>2026-03-29T13:56:24Z</time>
      </trkpt>
      <trkpt lat="48.70577" lon="1.95727">
        <ele>191.8</ele>
        <time>2026-03-29T13:56:25Z</time>
      </trkpt>
      <trkpt lat="48.70574" lon="1.95735">
        <ele>192.2</ele>
        <time>2026-03-29T13:56:26Z</time>
      </trkpt>
      <trkpt lat="48.70571" lon="1.95742">
        <ele>192.2</ele>
        <time>2026-03-29T13:56:27Z</time>
      </trkpt>
      <trkpt lat="48.70569" lon="1.95749">
        <ele>192.2</ele>
        <time>2026-03-29T13:56:28Z</time>
      </trkpt>
      <trkpt lat="48.70566" lon="1.95756">
        <ele>191.8</ele>
        <time>2026-03-29T13:56:29Z</time>
      </trkpt>
      <trkpt lat="48.70563" lon="1.95764">
        <ele>191.8</ele>
        <time>2026-03-29T13:56:30Z</time>
      </trkpt>
      <trkpt lat="48.7056" lon="1.95772">
        <ele>191.8</ele>
        <time>2026-03-29T13:56:31Z</time>
      </trkpt>
      <trkpt lat="48.70557" lon="1.95779">
        <ele>191.8</ele>
        <time>2026-03-29T13:56:32Z</time>
      </trkpt>
      <trkpt lat="48.70553" lon="1.95786">
        <ele>191.6</ele>
        <time>2026-03-29T13:56:33Z</time>
      </trkpt>
      <trkpt lat="48.7055" lon="1.95794">
        <ele>191.6</ele>
        <time>2026-03-29T13:56:34Z</time>
      </trkpt>
      <trkpt lat="48.70548" lon="1.95801">
        <ele>191.6</ele>
        <time>2026-03-29T13:56:35Z</time>
      </trkpt>
      <trkpt lat="48.70544" lon="1.9581">
        <ele>191.6</ele>
        <time>2026-03-29T13:56:36Z</time>
      </trkpt>
      <trkpt lat="48.70542" lon="1.95818">
        <ele>191.8</ele>
        <time>2026-03-29T13:56:37Z</time>
      </trkpt>
      <trkpt lat="48.70539" lon="1.95827">
        <ele>192</ele>
        <time>2026-03-29T13:56:38Z</time>
      </trkpt>
      <trkpt lat="48.70537" lon="1.95836">
        <ele>192</ele>
        <time>2026-03-29T13:56:39Z</time>
      </trkpt>
      <trkpt lat="48.70535" lon="1.95845">
        <ele>192</ele>
        <time>2026-03-29T13:56:40Z</time>
      </trkpt>
      <trkpt lat="48.70533" lon="1.95855">
        <ele>191.8</ele>
        <time>2026-03-29T13:56:41Z</time>
      </trkpt>
      <trkpt lat="48.70531" lon="1.95865">
        <ele>191.8</ele>
        <time>2026-03-29T13:56:42Z</time>
      </trkpt>
      <trkpt lat="48.7053" lon="1.95874">
        <ele>191.8</ele>
        <time>2026-03-29T13:56:43Z</time>
      </trkpt>
      <trkpt lat="48.70529" lon="1.95884">
        <ele>191.8</ele>
        <time>2026-03-29T13:56:44Z</time>
      </trkpt>
      <trkpt lat="48.70529" lon="1.95893">
        <ele>191.8</ele>
        <time>2026-03-29T13:56:45Z</time>
      </trkpt>
      <trkpt lat="48.70528" lon="1.95903">
        <ele>191.8</ele>
        <time>2026-03-29T13:56:46Z</time>
      </trkpt>
      <trkpt lat="48.70528" lon="1.95912">
        <ele>191.8</ele>
        <time>2026-03-29T13:56:47Z</time>
      </trkpt>
      <trkpt lat="48.70527" lon="1.95921">
        <ele>191.8</ele>
        <time>2026-03-29T13:56:48Z</time>
      </trkpt>
      <trkpt lat="48.70526" lon="1.9593">
        <ele>191.8</ele>
        <time>2026-03-29T13:56:49Z</time>
      </trkpt>
      <trkpt lat="48.70527" lon="1.9594">
        <ele>192</ele>
        <time>2026-03-29T13:56:50Z</time>
      </trkpt>
      <trkpt lat="48.70527" lon="1.95949">
        <ele>192</ele>
        <time>2026-03-29T13:56:51Z</time>
      </trkpt>
      <trkpt lat="48.70527" lon="1.95959">
        <ele>192</ele>
        <time>2026-03-29T13:56:52Z</time>
      </trkpt>
      <trkpt lat="48.70527" lon="1.95968">
        <ele>192</ele>
        <time>2026-03-29T13:56:53Z</time>
      </trkpt>
      <trkpt lat="48.70527" lon="1.95976">
        <ele>192.2</ele>
        <time>2026-03-29T13:56:54Z</time>
      </trkpt>
      <trkpt lat="48.70527" lon="1.95985">
        <ele>192.2</ele>
        <time>2026-03-29T13:56:55Z</time>
      </trkpt>
      <trkpt lat="48.70526" lon="1.95993">
        <ele>192.2</ele>
        <time>2026-03-29T13:56:56Z</time>
      </trkpt>
      <trkpt lat="48.70525" lon="1.96001">
        <ele>192.2</ele>
        <time>2026-03-29T13:56:57Z</time>
      </trkpt>
      <trkpt lat="48.70524" lon="1.9601">
        <ele>191.8</ele>
        <time>2026-03-29T13:56:58Z</time>
      </trkpt>
      <trkpt lat="48.70523" lon="1.96019">
        <ele>191.8</ele>
        <time>2026-03-29T13:56:59Z</time>
      </trkpt>
      <trkpt lat="48.70522" lon="1.96027">
        <ele>191.8</ele>
        <time>2026-03-29T13:57:00Z</time>
      </trkpt>
      <trkpt lat="48.70521" lon="1.96037">
        <ele>191.8</ele>
        <time>2026-03-29T13:57:01Z</time>
      </trkpt>
      <trkpt lat="48.70519" lon="1.96046">
        <ele>192.4</ele>
        <time>2026-03-29T13:57:02Z</time>
      </trkpt>
      <trkpt lat="48.70517" lon="1.96055">
        <ele>192.4</ele>
        <time>2026-03-29T13:57:03Z</time>
      </trkpt>
      <trkpt lat="48.70515" lon="1.96065">
        <ele>192.4</ele>
        <time>2026-03-29T13:57:04Z</time>
      </trkpt>
      <trkpt lat="48.70514" lon="1.96075">
        <ele>192</ele>
        <time>2026-03-29T13:57:05Z</time>
      </trkpt>
      <trkpt lat="48.70511" lon="1.96085">
        <ele>191.6</ele>
        <time>2026-03-29T13:57:06Z</time>
      </trkpt>
      <trkpt lat="48.70509" lon="1.96095">
        <ele>191.6</ele>
        <time>2026-03-29T13:57:07Z</time>
      </trkpt>
      <trkpt lat="48.70508" lon="1.96105">
        <ele>191.6</ele>
        <time>2026-03-29T13:57:08Z</time>
      </trkpt>
      <trkpt lat="48.70506" lon="1.96116">
        <ele>191.6</ele>
        <time>2026-03-29T13:57:09Z</time>
      </trkpt>
      <trkpt lat="48.70505" lon="1.96126">
        <ele>191.6</ele>
        <time>2026-03-29T13:57:10Z</time>
      </trkpt>
      <trkpt lat="48.70503" lon="1.96135">
        <ele>191.6</ele>
        <time>2026-03-29T13:57:11Z</time>
      </trkpt>
      <trkpt lat="48.70501" lon="1.96146">
        <ele>191.6</ele>
        <time>2026-03-29T13:57:12Z</time>
      </trkpt>
      <trkpt lat="48.705" lon="1.96157">
        <ele>191.6</ele>
        <time>2026-03-29T13:57:13Z</time>
      </trkpt>
      <trkpt lat="48.70498" lon="1.96167">
        <ele>190.8</ele>
        <time>2026-03-29T13:57:14Z</time>
      </trkpt>
      <trkpt lat="48.70496" lon="1.96176">
        <ele>190.8</ele>
        <time>2026-03-29T13:57:15Z</time>
      </trkpt>
      <trkpt lat="48.70494" lon="1.96187">
        <ele>190.8</ele>
        <time>2026-03-29T13:57:16Z</time>
      </trkpt>
      <trkpt lat="48.70492" lon="1.96198">
        <ele>191.2</ele>
        <time>2026-03-29T13:57:17Z</time>
      </trkpt>
      <trkpt lat="48.7049" lon="1.96209">
        <ele>191</ele>
        <time>2026-03-29T13:57:18Z</time>
      </trkpt>
      <trkpt lat="48.70488" lon="1.96221">
        <ele>191</ele>
        <time>2026-03-29T13:57:19Z</time>
      </trkpt>
      <trkpt lat="48.70486" lon="1.96232">
        <ele>191</ele>
        <time>2026-03-29T13:57:20Z</time>
      </trkpt>
      <trkpt lat="48.70484" lon="1.96244">
        <ele>191</ele>
        <time>2026-03-29T13:57:21Z</time>
      </trkpt>
      <trkpt lat="48.70482" lon="1.96254">
        <ele>190.8</ele>
        <time>2026-03-29T13:57:22Z</time>
      </trkpt>
      <trkpt lat="48.7048" lon="1.96265">
        <ele>190.8</ele>
        <time>2026-03-29T13:57:23Z</time>
      </trkpt>
      <trkpt lat="48.70478" lon="1.96276">
        <ele>190.8</ele>
        <time>2026-03-29T13:57:24Z</time>
      </trkpt>
      <trkpt lat="48.70476" lon="1.96287">
        <ele>190.8</ele>
        <time>2026-03-29T13:57:25Z</time>
      </trkpt>
      <trkpt lat="48.70475" lon="1.96298">
        <ele>191</ele>
        <time>2026-03-29T13:57:26Z</time>
      </trkpt>
      <trkpt lat="48.70472" lon="1.96308">
        <ele>191</ele>
        <time>2026-03-29T13:57:27Z</time>
      </trkpt>
      <trkpt lat="48.70471" lon="1.9632">
        <ele>191</ele>
        <time>2026-03-29T13:57:28Z</time>
      </trkpt>
      <trkpt lat="48.7047" lon="1.96331">
        <ele>191</ele>
        <time>2026-03-29T13:57:29Z</time>
      </trkpt>
      <trkpt lat="48.70469" lon="1.96342">
        <ele>190.8</ele>
        <time>2026-03-29T13:57:30Z</time>
      </trkpt>
      <trkpt lat="48.70469" lon="1.96353">
        <ele>190.8</ele>
        <time>2026-03-29T13:57:31Z</time>
      </trkpt>
      <trkpt lat="48.70468" lon="1.96365">
        <ele>190.8</ele>
        <time>2026-03-29T13:57:32Z</time>
      </trkpt>
      <trkpt lat="48.70468" lon="1.96376">
        <ele>190.6</ele>
        <time>2026-03-29T13:57:33Z</time>
      </trkpt>
      <trkpt lat="48.70467" lon="1.96388">
        <ele>190.2</ele>
        <time>2026-03-29T13:57:34Z</time>
      </trkpt>
      <trkpt lat="48.70467" lon="1.96399">
        <ele>190.2</ele>
        <time>2026-03-29T13:57:35Z</time>
      </trkpt>
      <trkpt lat="48.70466" lon="1.9641">
        <ele>190.2</ele>
        <time>2026-03-29T13:57:36Z</time>
      </trkpt>
      <trkpt lat="48.70466" lon="1.96422">
        <ele>190</ele>
        <time>2026-03-29T13:57:37Z</time>
      </trkpt>
      <trkpt lat="48.70465" lon="1.96433">
        <ele>189.2</ele>
        <time>2026-03-29T13:57:38Z</time>
      </trkpt>
      <trkpt lat="48.70465" lon="1.96444">
        <ele>189.2</ele>
        <time>2026-03-29T13:57:39Z</time>
      </trkpt>
      <trkpt lat="48.70464" lon="1.96456">
        <ele>189.2</ele>
        <time>2026-03-29T13:57:40Z</time>
      </trkpt>
      <trkpt lat="48.70465" lon="1.96468">
        <ele>189.2</ele>
        <time>2026-03-29T13:57:41Z</time>
      </trkpt>
      <trkpt lat="48.70465" lon="1.96477">
        <ele>188.4</ele>
        <time>2026-03-29T13:57:42Z</time>
      </trkpt>
      <trkpt lat="48.70465" lon="1.96484">
        <ele>188.4</ele>
        <time>2026-03-29T13:57:43Z</time>
      </trkpt>
      <trkpt lat="48.70464" lon="1.96489">
        <ele>188.4</ele>
        <time>2026-03-29T13:57:44Z</time>
      </trkpt>
      <trkpt lat="48.70462" lon="1.96493">
        <ele>187.4</ele>
        <time>2026-03-29T13:57:45Z</time>
      </trkpt>
      <trkpt lat="48.7046" lon="1.96497">
        <ele>185.6</ele>
        <time>2026-03-29T13:57:46Z</time>
      </trkpt>
      <trkpt lat="48.70456" lon="1.96501">
        <ele>185.6</ele>
        <time>2026-03-29T13:57:47Z</time>
      </trkpt>
      <trkpt lat="48.70454" lon="1.96507">
        <ele>185.6</ele>
        <time>2026-03-29T13:57:48Z</time>
      </trkpt>
      <trkpt lat="48.70452" lon="1.96512">
        <ele>184.6</ele>
        <time>2026-03-29T13:57:49Z</time>
      </trkpt>
      <trkpt lat="48.7045" lon="1.96517">
        <ele>182.8</ele>
        <time>2026-03-29T13:57:50Z</time>
      </trkpt>
      <trkpt lat="48.70448" lon="1.96522">
        <ele>182.8</ele>
        <time>2026-03-29T13:57:51Z</time>
      </trkpt>
      <trkpt lat="48.70446" lon="1.96527">
        <ele>182.8</ele>
        <time>2026-03-29T13:57:52Z</time>
      </trkpt>
      <trkpt lat="48.70444" lon="1.96534">
        <ele>182.8</ele>
        <time>2026-03-29T13:57:53Z</time>
      </trkpt>
      <trkpt lat="48.70442" lon="1.9654">
        <ele>179.2</ele>
        <time>2026-03-29T13:57:54Z</time>
      </trkpt>
      <trkpt lat="48.70441" lon="1.96547">
        <ele>179.2</ele>
        <time>2026-03-29T13:57:55Z</time>
      </trkpt>
      <trkpt lat="48.70441" lon="1.96555">
        <ele>179.2</ele>
        <time>2026-03-29T13:57:56Z</time>
      </trkpt>
      <trkpt lat="48.7044" lon="1.96561">
        <ele>178.2</ele>
        <time>2026-03-29T13:57:57Z</time>
      </trkpt>
      <trkpt lat="48.7044" lon="1.96565">
        <ele>176.6</ele>
        <time>2026-03-29T13:57:58Z</time>
      </trkpt>
      <trkpt lat="48.70441" lon="1.96572">
        <ele>176.6</ele>
        <time>2026-03-29T13:57:59Z</time>
      </trkpt>
      <trkpt lat="48.70441" lon="1.96577">
        <ele>176.6</ele>
        <time>2026-03-29T13:58:00Z</time>
      </trkpt>
      <trkpt lat="48.70442" lon="1.96581">
        <ele>177.6</ele>
        <time>2026-03-29T13:58:01Z</time>
      </trkpt>
      <trkpt lat="48.70442" lon="1.96585">
        <ele>178.8</ele>
        <time>2026-03-29T13:58:02Z</time>
      </trkpt>
      <trkpt lat="48.70442" lon="1.96587">
        <ele>178.8</ele>
        <time>2026-03-29T13:58:03Z</time>
      </trkpt>
      <trkpt lat="48.70442" lon="1.96588">
        <ele>178.8</ele>
        <time>2026-03-29T13:58:04Z</time>
      </trkpt>
      <trkpt lat="48.70442" lon="1.96588">
        <ele>178.8</ele>
        <time>2026-03-29T13:58:05Z</time>
      </trkpt>
      <trkpt lat="48.70442" lon="1.96591">
        <ele>179.2</ele>
        <time>2026-03-29T13:58:06Z</time>
      </trkpt>
      <trkpt lat="48.70442" lon="1.96592">
        <ele>179.2</ele>
        <time>2026-03-29T13:58:07Z</time>
      </trkpt>
      <trkpt lat="48.70442" lon="1.96594">
        <ele>179.2</ele>
        <time>2026-03-29T13:58:08Z</time>
      </trkpt>
      <trkpt lat="48.70442" lon="1.96594">
        <ele>179.2</ele>
        <time>2026-03-29T13:58:09Z</time>
      </trkpt>
      <trkpt lat="48.70442" lon="1.96602">
        <ele>179.8</ele>
        <time>2026-03-29T13:58:13Z</time>
      </trkpt>
      <trkpt lat="48.70442" lon="1.96603">
        <ele>179.8</ele>
        <time>2026-03-29T13:58:14Z</time>
      </trkpt>
      <trkpt lat="48.70444" lon="1.96607">
        <ele>179.8</ele>
        <time>2026-03-29T13:58:15Z</time>
      </trkpt>
      <trkpt lat="48.70445" lon="1.9661">
        <ele>179.8</ele>
        <time>2026-03-29T13:58:16Z</time>
      </trkpt>
      <trkpt lat="48.70446" lon="1.96613">
        <ele>180.2</ele>
        <time>2026-03-29T13:58:17Z</time>
      </trkpt>
      <trkpt lat="48.70446" lon="1.96617">
        <ele>180.2</ele>
        <time>2026-03-29T13:58:18Z</time>
      </trkpt>
      <trkpt lat="48.70446" lon="1.96619">
        <ele>180.2</ele>
        <time>2026-03-29T13:58:19Z</time>
      </trkpt>
      <trkpt lat="48.70446" lon="1.96623">
        <ele>180.2</ele>
        <time>2026-03-29T13:58:20Z</time>
      </trkpt>
      <trkpt lat="48.70446" lon="1.96626">
        <ele>180.2</ele>
        <time>2026-03-29T13:58:21Z</time>
      </trkpt>
      <trkpt lat="48.70447" lon="1.96628">
        <ele>179.8</ele>
        <time>2026-03-29T13:58:22Z</time>
      </trkpt>
      <trkpt lat="48.70447" lon="1.96632">
        <ele>179.8</ele>
        <time>2026-03-29T13:58:23Z</time>
      </trkpt>
      <trkpt lat="48.70446" lon="1.96636">
        <ele>179.8</ele>
        <time>2026-03-29T13:58:24Z</time>
      </trkpt>
      <trkpt lat="48.70446" lon="1.96638">
        <ele>179.8</ele>
        <time>2026-03-29T13:58:25Z</time>
      </trkpt>
      <trkpt lat="48.70446" lon="1.9664">
        <ele>180</ele>
        <time>2026-03-29T13:58:26Z</time>
      </trkpt>
      <trkpt lat="48.70445" lon="1.96642">
        <ele>180</ele>
        <time>2026-03-29T13:58:27Z</time>
      </trkpt>
      <trkpt lat="48.70446" lon="1.96644">
        <ele>180</ele>
        <time>2026-03-29T13:58:28Z</time>
      </trkpt>
      <trkpt lat="48.70446" lon="1.96646">
        <ele>180</ele>
        <time>2026-03-29T13:58:29Z</time>
      </trkpt>
      <trkpt lat="48.70446" lon="1.96648">
        <ele>180.2</ele>
        <time>2026-03-29T13:58:30Z</time>
      </trkpt>
      <trkpt lat="48.70445" lon="1.96651">
        <ele>180.2</ele>
        <time>2026-03-29T13:58:31Z</time>
      </trkpt>
      <trkpt lat="48.70445" lon="1.96654">
        <ele>180.2</ele>
        <time>2026-03-29T13:58:32Z</time>
      </trkpt>
      <trkpt lat="48.70445" lon="1.96656">
        <ele>180.2</ele>
        <time>2026-03-29T13:58:33Z</time>
      </trkpt>
      <trkpt lat="48.70445" lon="1.96657">
        <ele>180.8</ele>
        <time>2026-03-29T13:58:34Z</time>
      </trkpt>
      <trkpt lat="48.70445" lon="1.96657">
        <ele>180.8</ele>
        <time>2026-03-29T13:58:35Z</time>
      </trkpt>
      <trkpt lat="48.70446" lon="1.96659">
        <ele>180.8</ele>
        <time>2026-03-29T13:58:36Z</time>
      </trkpt>
      <trkpt lat="48.70449" lon="1.96699">
        <ele>184</ele>
        <time>2026-03-29T13:58:57Z</time>
      </trkpt>
      <trkpt lat="48.70449" lon="1.96702">
        <ele>183.8</ele>
        <time>2026-03-29T13:58:58Z</time>
      </trkpt>
      <trkpt lat="48.7045" lon="1.96705">
        <ele>183.8</ele>
        <time>2026-03-29T13:58:59Z</time>
      </trkpt>
      <trkpt lat="48.7045" lon="1.96708">
        <ele>183.8</ele>
        <time>2026-03-29T13:59:00Z</time>
      </trkpt>
      <trkpt lat="48.70451" lon="1.96711">
        <ele>184.6</ele>
        <time>2026-03-29T13:59:01Z</time>
      </trkpt>
      <trkpt lat="48.70451" lon="1.96713">
        <ele>184.4</ele>
        <time>2026-03-29T13:59:02Z</time>
      </trkpt>
      <trkpt lat="48.70452" lon="1.96715">
        <ele>184.4</ele>
        <time>2026-03-29T13:59:03Z</time>
      </trkpt>
      <trkpt lat="48.70453" lon="1.96719">
        <ele>184.4</ele>
        <time>2026-03-29T13:59:04Z</time>
      </trkpt>
      <trkpt lat="48.70452" lon="1.96723">
        <ele>184.4</ele>
        <time>2026-03-29T13:59:05Z</time>
      </trkpt>
      <trkpt lat="48.70453" lon="1.96727">
        <ele>184</ele>
        <time>2026-03-29T13:59:06Z</time>
      </trkpt>
      <trkpt lat="48.70453" lon="1.96731">
        <ele>184</ele>
        <time>2026-03-29T13:59:07Z</time>
      </trkpt>
      <trkpt lat="48.70453" lon="1.96734">
        <ele>184</ele>
        <time>2026-03-29T13:59:08Z</time>
      </trkpt>
      <trkpt lat="48.70452" lon="1.96737">
        <ele>184</ele>
        <time>2026-03-29T13:59:09Z</time>
      </trkpt>
      <trkpt lat="48.70453" lon="1.96741">
        <ele>184.6</ele>
        <time>2026-03-29T13:59:10Z</time>
      </trkpt>
      <trkpt lat="48.70453" lon="1.96744">
        <ele>184.6</ele>
        <time>2026-03-29T13:59:11Z</time>
      </trkpt>
      <trkpt lat="48.70453" lon="1.96746">
        <ele>184.6</ele>
        <time>2026-03-29T13:59:12Z</time>
      </trkpt>
      <trkpt lat="48.70453" lon="1.9675">
        <ele>184.4</ele>
        <time>2026-03-29T13:59:13Z</time>
      </trkpt>
      <trkpt lat="48.70453" lon="1.96754">
        <ele>184.2</ele>
        <time>2026-03-29T13:59:14Z</time>
      </trkpt>
      <trkpt lat="48.70453" lon="1.96758">
        <ele>184.2</ele>
        <time>2026-03-29T13:59:15Z</time>
      </trkpt>
      <trkpt lat="48.70453" lon="1.96761">
        <ele>184.2</ele>
        <time>2026-03-29T13:59:16Z</time>
      </trkpt>
      <trkpt lat="48.70452" lon="1.96765">
        <ele>184.2</ele>
        <time>2026-03-29T13:59:17Z</time>
      </trkpt>
      <trkpt lat="48.70452" lon="1.96768">
        <ele>184.4</ele>
        <time>2026-03-29T13:59:18Z</time>
      </trkpt>
      <trkpt lat="48.70452" lon="1.96772">
        <ele>184.4</ele>
        <time>2026-03-29T13:59:19Z</time>
      </trkpt>
      <trkpt lat="48.70452" lon="1.96776">
        <ele>184.4</ele>
        <time>2026-03-29T13:59:20Z</time>
      </trkpt>
      <trkpt lat="48.70451" lon="1.96779">
        <ele>184.2</ele>
        <time>2026-03-29T13:59:21Z</time>
      </trkpt>
      <trkpt lat="48.70451" lon="1.96783">
        <ele>183.8</ele>
        <time>2026-03-29T13:59:22Z</time>
      </trkpt>
      <trkpt lat="48.7045" lon="1.96787">
        <ele>183.8</ele>
        <time>2026-03-29T13:59:23Z</time>
      </trkpt>
      <trkpt lat="48.7045" lon="1.96792">
        <ele>183.8</ele>
        <time>2026-03-29T13:59:24Z</time>
      </trkpt>
      <trkpt lat="48.70451" lon="1.96797">
        <ele>183.8</ele>
        <time>2026-03-29T13:59:25Z</time>
      </trkpt>
      <trkpt lat="48.70452" lon="1.96801">
        <ele>183.8</ele>
        <time>2026-03-29T13:59:26Z</time>
      </trkpt>
      <trkpt lat="48.70452" lon="1.96807">
        <ele>183.8</ele>
        <time>2026-03-29T13:59:27Z</time>
      </trkpt>
      <trkpt lat="48.70452" lon="1.9681">
        <ele>183.8</ele>
        <time>2026-03-29T13:59:28Z</time>
      </trkpt>
      <trkpt lat="48.70452" lon="1.96814">
        <ele>184.2</ele>
        <time>2026-03-29T13:59:29Z</time>
      </trkpt>
      <trkpt lat="48.70452" lon="1.96817">
        <ele>183.8</ele>
        <time>2026-03-29T13:59:30Z</time>
      </trkpt>
      <trkpt lat="48.70453" lon="1.96821">
        <ele>183.8</ele>
        <time>2026-03-29T13:59:31Z</time>
      </trkpt>
      <trkpt lat="48.70452" lon="1.96824">
        <ele>183.8</ele>
        <time>2026-03-29T13:59:32Z</time>
      </trkpt>
      <trkpt lat="48.70451" lon="1.96828">
        <ele>182.8</ele>
        <time>2026-03-29T13:59:33Z</time>
      </trkpt>
      <trkpt lat="48.70451" lon="1.96831">
        <ele>182.6</ele>
        <time>2026-03-29T13:59:34Z</time>
      </trkpt>
      <trkpt lat="48.70452" lon="1.96835">
        <ele>182.6</ele>
        <time>2026-03-29T13:59:35Z</time>
      </trkpt>
      <trkpt lat="48.70452" lon="1.9684">
        <ele>182.6</ele>
        <time>2026-03-29T13:59:36Z</time>
      </trkpt>
      <trkpt lat="48.70453" lon="1.96845">
        <ele>183.2</ele>
        <time>2026-03-29T13:59:37Z</time>
      </trkpt>
      <trkpt lat="48.70454" lon="1.96849">
        <ele>183.4</ele>
        <time>2026-03-29T13:59:38Z</time>
      </trkpt>
      <trkpt lat="48.70454" lon="1.96854">
        <ele>183.4</ele>
        <time>2026-03-29T13:59:39Z</time>
      </trkpt>
      <trkpt lat="48.70453" lon="1.96857">
        <ele>183.4</ele>
        <time>2026-03-29T13:59:40Z</time>
      </trkpt>
      <trkpt lat="48.70452" lon="1.96861">
        <ele>183</ele>
        <time>2026-03-29T13:59:41Z</time>
      </trkpt>
      <trkpt lat="48.70451" lon="1.96865">
        <ele>183.2</ele>
        <time>2026-03-29T13:59:42Z</time>
      </trkpt>
      <trkpt lat="48.70449" lon="1.96869">
        <ele>183.2</ele>
        <time>2026-03-29T13:59:43Z</time>
      </trkpt>
      <trkpt lat="48.70448" lon="1.96875">
        <ele>183.2</ele>
        <time>2026-03-29T13:59:44Z</time>
      </trkpt>
      <trkpt lat="48.70447" lon="1.96879">
        <ele>183.2</ele>
        <time>2026-03-29T13:59:45Z</time>
      </trkpt>
      <trkpt lat="48.70446" lon="1.96884">
        <ele>183.6</ele>
        <time>2026-03-29T13:59:46Z</time>
      </trkpt>
      <trkpt lat="48.70445" lon="1.96888">
        <ele>183.6</ele>
        <time>2026-03-29T13:59:47Z</time>
      </trkpt>
      <trkpt lat="48.70445" lon="1.96893">
        <ele>183.6</ele>
        <time>2026-03-29T13:59:48Z</time>
      </trkpt>
      <trkpt lat="48.70445" lon="1.96897">
        <ele>183.6</ele>
        <time>2026-03-29T13:59:49Z</time>
      </trkpt>
      <trkpt lat="48.70445" lon="1.96901">
        <ele>184.6</ele>
        <time>2026-03-29T13:59:50Z</time>
      </trkpt>
      <trkpt lat="48.70445" lon="1.96906">
        <ele>184.6</ele>
        <time>2026-03-29T13:59:51Z</time>
      </trkpt>
      <trkpt lat="48.70445" lon="1.9691">
        <ele>184.6</ele>
        <time>2026-03-29T13:59:52Z</time>
      </trkpt>
      <trkpt lat="48.70444" lon="1.96913">
        <ele>184.6</ele>
        <time>2026-03-29T13:59:53Z</time>
      </trkpt>
      <trkpt lat="48.70443" lon="1.96917">
        <ele>184.2</ele>
        <time>2026-03-29T13:59:54Z</time>
      </trkpt>
      <trkpt lat="48.70442" lon="1.96921">
        <ele>184.2</ele>
        <time>2026-03-29T13:59:55Z</time>
      </trkpt>
      <trkpt lat="48.7044" lon="1.96924">
        <ele>184.2</ele>
        <time>2026-03-29T13:59:56Z</time>
      </trkpt>
      <trkpt lat="48.70438" lon="1.96926">
        <ele>184.2</ele>
        <time>2026-03-29T13:59:57Z</time>
      </trkpt>
      <trkpt lat="48.70436" lon="1.96931">
        <ele>183.6</ele>
        <time>2026-03-29T13:59:58Z</time>
      </trkpt>
      <trkpt lat="48.70435" lon="1.96936">
        <ele>183.6</ele>
        <time>2026-03-29T13:59:59Z</time>
      </trkpt>
      <trkpt lat="48.70434" lon="1.9694">
        <ele>183.6</ele>
        <time>2026-03-29T14:00:00Z</time>
      </trkpt>
      <trkpt lat="48.70434" lon="1.96944">
        <ele>183.8</ele>
        <time>2026-03-29T14:00:01Z</time>
      </trkpt>
      <trkpt lat="48.70435" lon="1.96949">
        <ele>184.4</ele>
        <time>2026-03-29T14:00:02Z</time>
      </trkpt>
      <trkpt lat="48.70436" lon="1.96952">
        <ele>184.4</ele>
        <time>2026-03-29T14:00:03Z</time>
      </trkpt>
      <trkpt lat="48.70437" lon="1.96955">
        <ele>184.4</ele>
        <time>2026-03-29T14:00:04Z</time>
      </trkpt>
      <trkpt lat="48.70438" lon="1.96958">
        <ele>184.4</ele>
        <time>2026-03-29T14:00:05Z</time>
      </trkpt>
      <trkpt lat="48.70438" lon="1.9696">
        <ele>185.6</ele>
        <time>2026-03-29T14:00:06Z</time>
      </trkpt>
      <trkpt lat="48.70439" lon="1.96963">
        <ele>185.6</ele>
        <time>2026-03-29T14:00:07Z</time>
      </trkpt>
      <trkpt lat="48.70439" lon="1.96965">
        <ele>185.6</ele>
        <time>2026-03-29T14:00:08Z</time>
      </trkpt>
      <trkpt lat="48.70438" lon="1.96968">
        <ele>185.6</ele>
        <time>2026-03-29T14:00:09Z</time>
      </trkpt>
      <trkpt lat="48.70437" lon="1.96971">
        <ele>185.8</ele>
        <time>2026-03-29T14:00:10Z</time>
      </trkpt>
      <trkpt lat="48.70436" lon="1.96973">
        <ele>185.8</ele>
        <time>2026-03-29T14:00:11Z</time>
      </trkpt>
      <trkpt lat="48.70434" lon="1.96975">
        <ele>185.8</ele>
        <time>2026-03-29T14:00:12Z</time>
      </trkpt>
      <trkpt lat="48.70431" lon="1.96975">
        <ele>184.8</ele>
        <time>2026-03-29T14:00:13Z</time>
      </trkpt>
      <trkpt lat="48.70428" lon="1.96977">
        <ele>183.6</ele>
        <time>2026-03-29T14:00:14Z</time>
      </trkpt>
      <trkpt lat="48.70425" lon="1.96979">
        <ele>183.6</ele>
        <time>2026-03-29T14:00:15Z</time>
      </trkpt>
      <trkpt lat="48.70422" lon="1.96985">
        <ele>183.6</ele>
        <time>2026-03-29T14:00:16Z</time>
      </trkpt>
      <trkpt lat="48.70421" lon="1.96991">
        <ele>182.6</ele>
        <time>2026-03-29T14:00:17Z</time>
      </trkpt>
      <trkpt lat="48.70421" lon="1.96998">
        <ele>183.2</ele>
        <time>2026-03-29T14:00:18Z</time>
      </trkpt>
      <trkpt lat="48.70421" lon="1.97002">
        <ele>183.2</ele>
        <time>2026-03-29T14:00:19Z</time>
      </trkpt>
      <trkpt lat="48.7042" lon="1.97007">
        <ele>183.2</ele>
        <time>2026-03-29T14:00:20Z</time>
      </trkpt>
      <trkpt lat="48.70419" lon="1.97012">
        <ele>183.4</ele>
        <time>2026-03-29T14:00:21Z</time>
      </trkpt>
      <trkpt lat="48.70419" lon="1.97017">
        <ele>183.2</ele>
        <time>2026-03-29T14:00:22Z</time>
      </trkpt>
      <trkpt lat="48.70419" lon="1.97021">
        <ele>183.2</ele>
        <time>2026-03-29T14:00:23Z</time>
      </trkpt>
      <trkpt lat="48.70417" lon="1.97024">
        <ele>183.2</ele>
        <time>2026-03-29T14:00:24Z</time>
      </trkpt>
      <trkpt lat="48.70416" lon="1.97028">
        <ele>183</ele>
        <time>2026-03-29T14:00:25Z</time>
      </trkpt>
      <trkpt lat="48.70414" lon="1.97034">
        <ele>182.8</ele>
        <time>2026-03-29T14:00:26Z</time>
      </trkpt>
      <trkpt lat="48.70413" lon="1.9704">
        <ele>182.8</ele>
        <time>2026-03-29T14:00:27Z</time>
      </trkpt>
      <trkpt lat="48.70412" lon="1.97045">
        <ele>182.8</ele>
        <time>2026-03-29T14:00:28Z</time>
      </trkpt>
      <trkpt lat="48.70413" lon="1.9705">
        <ele>182.8</ele>
        <time>2026-03-29T14:00:29Z</time>
      </trkpt>
      <trkpt lat="48.70414" lon="1.97056">
        <ele>182.6</ele>
        <time>2026-03-29T14:00:30Z</time>
      </trkpt>
      <trkpt lat="48.70413" lon="1.97061">
        <ele>182.6</ele>
        <time>2026-03-29T14:00:31Z</time>
      </trkpt>
      <trkpt lat="48.70412" lon="1.97067">
        <ele>182.6</ele>
        <time>2026-03-29T14:00:32Z</time>
      </trkpt>
      <trkpt lat="48.70411" lon="1.97073">
        <ele>182.2</ele>
        <time>2026-03-29T14:00:33Z</time>
      </trkpt>
      <trkpt lat="48.7041" lon="1.9708">
        <ele>182</ele>
        <time>2026-03-29T14:00:34Z</time>
      </trkpt>
      <trkpt lat="48.70408" lon="1.97086">
        <ele>182</ele>
        <time>2026-03-29T14:00:35Z</time>
      </trkpt>
      <trkpt lat="48.70407" lon="1.97092">
        <ele>182</ele>
        <time>2026-03-29T14:00:36Z</time>
      </trkpt>
      <trkpt lat="48.70407" lon="1.97098">
        <ele>182</ele>
        <time>2026-03-29T14:00:37Z</time>
      </trkpt>
      <trkpt lat="48.70407" lon="1.97104">
        <ele>181.8</ele>
        <time>2026-03-29T14:00:38Z</time>
      </trkpt>
      <trkpt lat="48.70407" lon="1.97109">
        <ele>181.8</ele>
        <time>2026-03-29T14:00:39Z</time>
      </trkpt>
      <trkpt lat="48.70405" lon="1.97114">
        <ele>181.8</ele>
        <time>2026-03-29T14:00:40Z</time>
      </trkpt>
      <trkpt lat="48.70404" lon="1.9712">
        <ele>181.8</ele>
        <time>2026-03-29T14:00:41Z</time>
      </trkpt>
      <trkpt lat="48.70403" lon="1.97127">
        <ele>181.6</ele>
        <time>2026-03-29T14:00:42Z</time>
      </trkpt>
      <trkpt lat="48.70403" lon="1.97134">
        <ele>181.6</ele>
        <time>2026-03-29T14:00:43Z</time>
      </trkpt>
      <trkpt lat="48.70404" lon="1.97141">
        <ele>181.6</ele>
        <time>2026-03-29T14:00:44Z</time>
      </trkpt>
      <trkpt lat="48.70404" lon="1.97148">
        <ele>181.6</ele>
        <time>2026-03-29T14:00:45Z</time>
      </trkpt>
      <trkpt lat="48.70406" lon="1.97154">
        <ele>181.2</ele>
        <time>2026-03-29T14:00:46Z</time>
      </trkpt>
      <trkpt lat="48.70406" lon="1.97161">
        <ele>181.2</ele>
        <time>2026-03-29T14:00:47Z</time>
      </trkpt>
      <trkpt lat="48.70406" lon="1.97167">
        <ele>181.2</ele>
        <time>2026-03-29T14:00:48Z</time>
      </trkpt>
      <trkpt lat="48.70406" lon="1.97173">
        <ele>181.2</ele>
        <time>2026-03-29T14:00:49Z</time>
      </trkpt>
      <trkpt lat="48.70408" lon="1.97178">
        <ele>181.6</ele>
        <time>2026-03-29T14:00:50Z</time>
      </trkpt>
      <trkpt lat="48.70409" lon="1.97183">
        <ele>181.6</ele>
        <time>2026-03-29T14:00:51Z</time>
      </trkpt>
      <trkpt lat="48.7041" lon="1.97189">
        <ele>181.6</ele>
        <time>2026-03-29T14:00:52Z</time>
      </trkpt>
      <trkpt lat="48.70411" lon="1.97194">
        <ele>181.6</ele>
        <time>2026-03-29T14:00:53Z</time>
      </trkpt>
      <trkpt lat="48.70413" lon="1.972">
        <ele>181.8</ele>
        <time>2026-03-29T14:00:54Z</time>
      </trkpt>
      <trkpt lat="48.70414" lon="1.97206">
        <ele>181.8</ele>
        <time>2026-03-29T14:00:55Z</time>
      </trkpt>
      <trkpt lat="48.70414" lon="1.97211">
        <ele>181.8</ele>
        <time>2026-03-29T14:00:56Z</time>
      </trkpt>
      <trkpt lat="48.70415" lon="1.97217">
        <ele>182.2</ele>
        <time>2026-03-29T14:00:57Z</time>
      </trkpt>
      <trkpt lat="48.70415" lon="1.97222">
        <ele>181.8</ele>
        <time>2026-03-29T14:00:58Z</time>
      </trkpt>
      <trkpt lat="48.70414" lon="1.97228">
        <ele>181.8</ele>
        <time>2026-03-29T14:00:59Z</time>
      </trkpt>
      <trkpt lat="48.70412" lon="1.97232">
        <ele>181.8</ele>
        <time>2026-03-29T14:01:00Z</time>
      </trkpt>
      <trkpt lat="48.70409" lon="1.97237">
        <ele>181.6</ele>
        <time>2026-03-29T14:01:01Z</time>
      </trkpt>
      <trkpt lat="48.70407" lon="1.97243">
        <ele>182.2</ele>
        <time>2026-03-29T14:01:02Z</time>
      </trkpt>
      <trkpt lat="48.70406" lon="1.9725">
        <ele>182.2</ele>
        <time>2026-03-29T14:01:03Z</time>
      </trkpt>
      <trkpt lat="48.70405" lon="1.97257">
        <ele>182.2</ele>
        <time>2026-03-29T14:01:04Z</time>
      </trkpt>
      <trkpt lat="48.70403" lon="1.97263">
        <ele>181.8</ele>
        <time>2026-03-29T14:01:05Z</time>
      </trkpt>
      <trkpt lat="48.70401" lon="1.9727">
        <ele>181.4</ele>
        <time>2026-03-29T14:01:06Z</time>
      </trkpt>
      <trkpt lat="48.704" lon="1.97278">
        <ele>181.4</ele>
        <time>2026-03-29T14:01:07Z</time>
      </trkpt>
      <trkpt lat="48.70398" lon="1.97285">
        <ele>181.4</ele>
        <time>2026-03-29T14:01:08Z</time>
      </trkpt>
      <trkpt lat="48.70398" lon="1.9729">
        <ele>181.4</ele>
        <time>2026-03-29T14:01:09Z</time>
      </trkpt>
      <trkpt lat="48.70397" lon="1.97297">
        <ele>181.6</ele>
        <time>2026-03-29T14:01:10Z</time>
      </trkpt>
      <trkpt lat="48.70395" lon="1.97305">
        <ele>181.6</ele>
        <time>2026-03-29T14:01:11Z</time>
      </trkpt>
      <trkpt lat="48.70394" lon="1.97311">
        <ele>181.6</ele>
        <time>2026-03-29T14:01:12Z</time>
      </trkpt>
      <trkpt lat="48.70392" lon="1.97318">
        <ele>181.6</ele>
        <time>2026-03-29T14:01:13Z</time>
      </trkpt>
      <trkpt lat="48.70392" lon="1.97324">
        <ele>181.6</ele>
        <time>2026-03-29T14:01:14Z</time>
      </trkpt>
      <trkpt lat="48.70391" lon="1.9733">
        <ele>181.6</ele>
        <time>2026-03-29T14:01:15Z</time>
      </trkpt>
      <trkpt lat="48.7039" lon="1.97336">
        <ele>181.6</ele>
        <time>2026-03-29T14:01:16Z</time>
      </trkpt>
      <trkpt lat="48.70389" lon="1.97341">
        <ele>182.4</ele>
        <time>2026-03-29T14:01:17Z</time>
      </trkpt>
      <trkpt lat="48.70388" lon="1.97346">
        <ele>182.4</ele>
        <time>2026-03-29T14:01:18Z</time>
      </trkpt>
      <trkpt lat="48.70388" lon="1.97353">
        <ele>182.4</ele>
        <time>2026-03-29T14:01:19Z</time>
      </trkpt>
      <trkpt lat="48.70387" lon="1.97359">
        <ele>182.4</ele>
        <time>2026-03-29T14:01:20Z</time>
      </trkpt>
      <trkpt lat="48.70387" lon="1.97365">
        <ele>182.4</ele>
        <time>2026-03-29T14:01:21Z</time>
      </trkpt>
      <trkpt lat="48.70386" lon="1.97369">
        <ele>182.6</ele>
        <time>2026-03-29T14:01:22Z</time>
      </trkpt>
      <trkpt lat="48.70383" lon="1.97373">
        <ele>182.6</ele>
        <time>2026-03-29T14:01:23Z</time>
      </trkpt>
      <trkpt lat="48.70382" lon="1.97377">
        <ele>182.6</ele>
        <time>2026-03-29T14:01:24Z</time>
      </trkpt>
      <trkpt lat="48.7038" lon="1.97383">
        <ele>182.4</ele>
        <time>2026-03-29T14:01:25Z</time>
      </trkpt>
      <trkpt lat="48.7038" lon="1.9739">
        <ele>182.6</ele>
        <time>2026-03-29T14:01:26Z</time>
      </trkpt>
      <trkpt lat="48.70379" lon="1.97396">
        <ele>182.6</ele>
        <time>2026-03-29T14:01:27Z</time>
      </trkpt>
      <trkpt lat="48.70378" lon="1.97401">
        <ele>182.6</ele>
        <time>2026-03-29T14:01:28Z</time>
      </trkpt>
      <trkpt lat="48.70376" lon="1.97408">
        <ele>182.6</ele>
        <time>2026-03-29T14:01:29Z</time>
      </trkpt>
      <trkpt lat="48.70375" lon="1.97414">
        <ele>182.2</ele>
        <time>2026-03-29T14:01:30Z</time>
      </trkpt>
      <trkpt lat="48.70374" lon="1.97421">
        <ele>182.2</ele>
        <time>2026-03-29T14:01:31Z</time>
      </trkpt>
      <trkpt lat="48.70374" lon="1.97426">
        <ele>182.2</ele>
        <time>2026-03-29T14:01:32Z</time>
      </trkpt>
      <trkpt lat="48.70374" lon="1.97433">
        <ele>183.2</ele>
        <time>2026-03-29T14:01:33Z</time>
      </trkpt>
      <trkpt lat="48.70374" lon="1.97438">
        <ele>182.6</ele>
        <time>2026-03-29T14:01:34Z</time>
      </trkpt>
      <trkpt lat="48.70373" lon="1.97444">
        <ele>182.6</ele>
        <time>2026-03-29T14:01:35Z</time>
      </trkpt>
      <trkpt lat="48.70372" lon="1.97451">
        <ele>182.6</ele>
        <time>2026-03-29T14:01:36Z</time>
      </trkpt>
      <trkpt lat="48.70371" lon="1.97458">
        <ele>183.2</ele>
        <time>2026-03-29T14:01:37Z</time>
      </trkpt>
      <trkpt lat="48.70371" lon="1.97465">
        <ele>183.2</ele>
        <time>2026-03-29T14:01:38Z</time>
      </trkpt>
      <trkpt lat="48.70371" lon="1.97472">
        <ele>183.2</ele>
        <time>2026-03-29T14:01:39Z</time>
      </trkpt>
      <trkpt lat="48.70371" lon="1.97479">
        <ele>183.2</ele>
        <time>2026-03-29T14:01:40Z</time>
      </trkpt>
      <trkpt lat="48.7037" lon="1.97486">
        <ele>183.2</ele>
        <time>2026-03-29T14:01:41Z</time>
      </trkpt>
      <trkpt lat="48.70369" lon="1.97492">
        <ele>184.6</ele>
        <time>2026-03-29T14:01:42Z</time>
      </trkpt>
      <trkpt lat="48.70369" lon="1.97499">
        <ele>184.6</ele>
        <time>2026-03-29T14:01:43Z</time>
      </trkpt>
      <trkpt lat="48.70369" lon="1.97505">
        <ele>184.6</ele>
        <time>2026-03-29T14:01:44Z</time>
      </trkpt>
      <trkpt lat="48.70368" lon="1.97511">
        <ele>184.6</ele>
        <time>2026-03-29T14:01:45Z</time>
      </trkpt>
      <trkpt lat="48.70368" lon="1.97517">
        <ele>184.6</ele>
        <time>2026-03-29T14:01:46Z</time>
      </trkpt>
      <trkpt lat="48.70367" lon="1.97524">
        <ele>184.6</ele>
        <time>2026-03-29T14:01:47Z</time>
      </trkpt>
      <trkpt lat="48.70368" lon="1.9753">
        <ele>184.6</ele>
        <time>2026-03-29T14:01:48Z</time>
      </trkpt>
      <trkpt lat="48.70369" lon="1.97535">
        <ele>184.6</ele>
        <time>2026-03-29T14:01:49Z</time>
      </trkpt>
      <trkpt lat="48.70369" lon="1.97541">
        <ele>184.4</ele>
        <time>2026-03-29T14:01:50Z</time>
      </trkpt>
      <trkpt lat="48.70368" lon="1.97546">
        <ele>184.4</ele>
        <time>2026-03-29T14:01:51Z</time>
      </trkpt>
      <trkpt lat="48.70368" lon="1.97552">
        <ele>184.4</ele>
        <time>2026-03-29T14:01:52Z</time>
      </trkpt>
      <trkpt lat="48.70367" lon="1.97558">
        <ele>184.4</ele>
        <time>2026-03-29T14:01:53Z</time>
      </trkpt>
      <trkpt lat="48.70366" lon="1.97563">
        <ele>184.6</ele>
        <time>2026-03-29T14:01:54Z</time>
      </trkpt>
      <trkpt lat="48.70364" lon="1.97568">
        <ele>184.6</ele>
        <time>2026-03-29T14:01:55Z</time>
      </trkpt>
      <trkpt lat="48.70361" lon="1.97572">
        <ele>184.6</ele>
        <time>2026-03-29T14:01:56Z</time>
      </trkpt>
      <trkpt lat="48.70359" lon="1.97577">
        <ele>184.6</ele>
        <time>2026-03-29T14:01:57Z</time>
      </trkpt>
      <trkpt lat="48.70356" lon="1.9758">
        <ele>184.4</ele>
        <time>2026-03-29T14:01:58Z</time>
      </trkpt>
      <trkpt lat="48.70353" lon="1.97584">
        <ele>184.4</ele>
        <time>2026-03-29T14:01:59Z</time>
      </trkpt>
      <trkpt lat="48.70352" lon="1.97587">
        <ele>184.4</ele>
        <time>2026-03-29T14:02:00Z</time>
      </trkpt>
      <trkpt lat="48.70351" lon="1.97592">
        <ele>184</ele>
        <time>2026-03-29T14:02:01Z</time>
      </trkpt>
      <trkpt lat="48.70349" lon="1.97597">
        <ele>183</ele>
        <time>2026-03-29T14:02:02Z</time>
      </trkpt>
      <trkpt lat="48.70347" lon="1.97603">
        <ele>183</ele>
        <time>2026-03-29T14:02:03Z</time>
      </trkpt>
      <trkpt lat="48.70345" lon="1.97611">
        <ele>183</ele>
        <time>2026-03-29T14:02:04Z</time>
      </trkpt>
      <trkpt lat="48.70344" lon="1.97617">
        <ele>182.6</ele>
        <time>2026-03-29T14:02:05Z</time>
      </trkpt>
      <trkpt lat="48.70344" lon="1.97624">
        <ele>181.8</ele>
        <time>2026-03-29T14:02:06Z</time>
      </trkpt>
      <trkpt lat="48.70343" lon="1.9763">
        <ele>181.8</ele>
        <time>2026-03-29T14:02:07Z</time>
      </trkpt>
      <trkpt lat="48.70342" lon="1.97636">
        <ele>181.8</ele>
        <time>2026-03-29T14:02:08Z</time>
      </trkpt>
      <trkpt lat="48.70341" lon="1.97641">
        <ele>181.8</ele>
        <time>2026-03-29T14:02:09Z</time>
      </trkpt>
      <trkpt lat="48.7034" lon="1.97647">
        <ele>181</ele>
        <time>2026-03-29T14:02:10Z</time>
      </trkpt>
      <trkpt lat="48.70339" lon="1.97654">
        <ele>181</ele>
        <time>2026-03-29T14:02:11Z</time>
      </trkpt>
      <trkpt lat="48.70337" lon="1.97661">
        <ele>181</ele>
        <time>2026-03-29T14:02:12Z</time>
      </trkpt>
      <trkpt lat="48.70337" lon="1.97669">
        <ele>181.2</ele>
        <time>2026-03-29T14:02:13Z</time>
      </trkpt>
      <trkpt lat="48.70338" lon="1.97676">
        <ele>180.6</ele>
        <time>2026-03-29T14:02:14Z</time>
      </trkpt>
      <trkpt lat="48.70339" lon="1.97683">
        <ele>180.6</ele>
        <time>2026-03-29T14:02:15Z</time>
      </trkpt>
      <trkpt lat="48.70342" lon="1.9769">
        <ele>180.6</ele>
        <time>2026-03-29T14:02:16Z</time>
      </trkpt>
      <trkpt lat="48.70346" lon="1.97696">
        <ele>180.6</ele>
        <time>2026-03-29T14:02:17Z</time>
      </trkpt>
      <trkpt lat="48.70349" lon="1.977">
        <ele>180.8</ele>
        <time>2026-03-29T14:02:18Z</time>
      </trkpt>
      <trkpt lat="48.70353" lon="1.97703">
        <ele>180.8</ele>
        <time>2026-03-29T14:02:19Z</time>
      </trkpt>
      <trkpt lat="48.70355" lon="1.97707">
        <ele>180.8</ele>
        <time>2026-03-29T14:02:20Z</time>
      </trkpt>
      <trkpt lat="48.70356" lon="1.97711">
        <ele>181.2</ele>
        <time>2026-03-29T14:02:21Z</time>
      </trkpt>
      <trkpt lat="48.70358" lon="1.97715">
        <ele>181.2</ele>
        <time>2026-03-29T14:02:22Z</time>
      </trkpt>
      <trkpt lat="48.70361" lon="1.97718">
        <ele>181.2</ele>
        <time>2026-03-29T14:02:23Z</time>
      </trkpt>
      <trkpt lat="48.70364" lon="1.97721">
        <ele>181.2</ele>
        <time>2026-03-29T14:02:24Z</time>
      </trkpt>
      <trkpt lat="48.70366" lon="1.97724">
        <ele>181.6</ele>
        <time>2026-03-29T14:02:25Z</time>
      </trkpt>
      <trkpt lat="48.7037" lon="1.97727">
        <ele>182.4</ele>
        <time>2026-03-29T14:02:26Z</time>
      </trkpt>
      <trkpt lat="48.70372" lon="1.9773">
        <ele>182.4</ele>
        <time>2026-03-29T14:02:27Z</time>
      </trkpt>
      <trkpt lat="48.70375" lon="1.97733">
        <ele>182.4</ele>
        <time>2026-03-29T14:02:28Z</time>
      </trkpt>
      <trkpt lat="48.70378" lon="1.97738">
        <ele>181.6</ele>
        <time>2026-03-29T14:02:29Z</time>
      </trkpt>
      <trkpt lat="48.7038" lon="1.97742">
        <ele>181.2</ele>
        <time>2026-03-29T14:02:30Z</time>
      </trkpt>
      <trkpt lat="48.70383" lon="1.97746">
        <ele>181.2</ele>
        <time>2026-03-29T14:02:31Z</time>
      </trkpt>
      <trkpt lat="48.70386" lon="1.9775">
        <ele>181.2</ele>
        <time>2026-03-29T14:02:32Z</time>
      </trkpt>
      <trkpt lat="48.7039" lon="1.97752">
        <ele>181.2</ele>
        <time>2026-03-29T14:02:33Z</time>
      </trkpt>
      <trkpt lat="48.70393" lon="1.97756">
        <ele>181.2</ele>
        <time>2026-03-29T14:02:34Z</time>
      </trkpt>
      <trkpt lat="48.70396" lon="1.9776">
        <ele>181.2</ele>
        <time>2026-03-29T14:02:35Z</time>
      </trkpt>
      <trkpt lat="48.704" lon="1.97763">
        <ele>181.2</ele>
        <time>2026-03-29T14:02:36Z</time>
      </trkpt>
      <trkpt lat="48.70403" lon="1.97765">
        <ele>181.2</ele>
        <time>2026-03-29T14:02:37Z</time>
      </trkpt>
      <trkpt lat="48.70408" lon="1.97767">
        <ele>181</ele>
        <time>2026-03-29T14:02:38Z</time>
      </trkpt>
      <trkpt lat="48.70411" lon="1.97769">
        <ele>181</ele>
        <time>2026-03-29T14:02:39Z</time>
      </trkpt>
      <trkpt lat="48.70415" lon="1.97772">
        <ele>181</ele>
        <time>2026-03-29T14:02:40Z</time>
      </trkpt>
      <trkpt lat="48.70418" lon="1.97774">
        <ele>181.8</ele>
        <time>2026-03-29T14:02:41Z</time>
      </trkpt>
      <trkpt lat="48.70422" lon="1.97777">
        <ele>180.6</ele>
        <time>2026-03-29T14:02:42Z</time>
      </trkpt>
      <trkpt lat="48.70426" lon="1.97781">
        <ele>180.6</ele>
        <time>2026-03-29T14:02:43Z</time>
      </trkpt>
      <trkpt lat="48.7043" lon="1.97785">
        <ele>180.6</ele>
        <time>2026-03-29T14:02:44Z</time>
      </trkpt>
      <trkpt lat="48.70434" lon="1.97789">
        <ele>179.8</ele>
        <time>2026-03-29T14:02:45Z</time>
      </trkpt>
      <trkpt lat="48.70439" lon="1.97792">
        <ele>179.4</ele>
        <time>2026-03-29T14:02:46Z</time>
      </trkpt>
      <trkpt lat="48.70443" lon="1.97797">
        <ele>179.4</ele>
        <time>2026-03-29T14:02:47Z</time>
      </trkpt>
      <trkpt lat="48.70447" lon="1.97803">
        <ele>179.4</ele>
        <time>2026-03-29T14:02:48Z</time>
      </trkpt>
      <trkpt lat="48.70449" lon="1.9781">
        <ele>179.4</ele>
        <time>2026-03-29T14:02:49Z</time>
      </trkpt>
      <trkpt lat="48.70452" lon="1.97817">
        <ele>178.4</ele>
        <time>2026-03-29T14:02:50Z</time>
      </trkpt>
      <trkpt lat="48.70455" lon="1.97823">
        <ele>178.4</ele>
        <time>2026-03-29T14:02:51Z</time>
      </trkpt>
      <trkpt lat="48.7046" lon="1.97828">
        <ele>178.4</ele>
        <time>2026-03-29T14:02:52Z</time>
      </trkpt>
      <trkpt lat="48.70465" lon="1.97835">
        <ele>178</ele>
        <time>2026-03-29T14:02:53Z</time>
      </trkpt>
      <trkpt lat="48.7047" lon="1.97842">
        <ele>177.6</ele>
        <time>2026-03-29T14:02:54Z</time>
      </trkpt>
      <trkpt lat="48.70474" lon="1.97849">
        <ele>177.6</ele>
        <time>2026-03-29T14:02:55Z</time>
      </trkpt>
      <trkpt lat="48.70478" lon="1.97855">
        <ele>177.6</ele>
        <time>2026-03-29T14:02:56Z</time>
      </trkpt>
      <trkpt lat="48.70483" lon="1.97862">
        <ele>176.6</ele>
        <time>2026-03-29T14:02:57Z</time>
      </trkpt>
      <trkpt lat="48.70488" lon="1.97867">
        <ele>176.4</ele>
        <time>2026-03-29T14:02:58Z</time>
      </trkpt>
      <trkpt lat="48.70493" lon="1.97871">
        <ele>176.4</ele>
        <time>2026-03-29T14:02:59Z</time>
      </trkpt>
      <trkpt lat="48.70497" lon="1.97873">
        <ele>176.4</ele>
        <time>2026-03-29T14:03:00Z</time>
      </trkpt>
      <trkpt lat="48.705" lon="1.97875">
        <ele>176.4</ele>
        <time>2026-03-29T14:03:01Z</time>
      </trkpt>
      <trkpt lat="48.70504" lon="1.97877">
        <ele>176.2</ele>
        <time>2026-03-29T14:03:02Z</time>
      </trkpt>
      <trkpt lat="48.70508" lon="1.97881">
        <ele>176.2</ele>
        <time>2026-03-29T14:03:03Z</time>
      </trkpt>
      <trkpt lat="48.70512" lon="1.97884">
        <ele>176.2</ele>
        <time>2026-03-29T14:03:04Z</time>
      </trkpt>
      <trkpt lat="48.70515" lon="1.97885">
        <ele>176.2</ele>
        <time>2026-03-29T14:03:05Z</time>
      </trkpt>
      <trkpt lat="48.7052" lon="1.97887">
        <ele>176</ele>
        <time>2026-03-29T14:03:06Z</time>
      </trkpt>
      <trkpt lat="48.70523" lon="1.9789">
        <ele>176</ele>
        <time>2026-03-29T14:03:07Z</time>
      </trkpt>
      <trkpt lat="48.70528" lon="1.97892">
        <ele>176</ele>
        <time>2026-03-29T14:03:08Z</time>
      </trkpt>
      <trkpt lat="48.70532" lon="1.97895">
        <ele>176</ele>
        <time>2026-03-29T14:03:09Z</time>
      </trkpt>
      <trkpt lat="48.70536" lon="1.97896">
        <ele>176.4</ele>
        <time>2026-03-29T14:03:10Z</time>
      </trkpt>
      <trkpt lat="48.70537" lon="1.97896">
        <ele>176.4</ele>
        <time>2026-03-29T14:03:11Z</time>
      </trkpt>
      <trkpt lat="48.70539" lon="1.97894">
        <ele>176.4</ele>
        <time>2026-03-29T14:03:12Z</time>
      </trkpt>
      <trkpt lat="48.70538" lon="1.97892">
        <ele>176.4</ele>
        <time>2026-03-29T14:03:13Z</time>
      </trkpt>
      <trkpt lat="48.70538" lon="1.9789">
        <ele>176.6</ele>
        <time>2026-03-29T14:03:14Z</time>
      </trkpt>
      <trkpt lat="48.70539" lon="1.97887">
        <ele>176.6</ele>
        <time>2026-03-29T14:03:15Z</time>
      </trkpt>
      <trkpt lat="48.7054" lon="1.97884">
        <ele>176.6</ele>
        <time>2026-03-29T14:03:16Z</time>
      </trkpt>
      <trkpt lat="48.70542" lon="1.97881">
        <ele>176.6</ele>
        <time>2026-03-29T14:03:17Z</time>
      </trkpt>
      <trkpt lat="48.70544" lon="1.97878">
        <ele>177</ele>
        <time>2026-03-29T14:03:18Z</time>
      </trkpt>
      <trkpt lat="48.70547" lon="1.97874">
        <ele>177</ele>
        <time>2026-03-29T14:03:19Z</time>
      </trkpt>
      <trkpt lat="48.70549" lon="1.97871">
        <ele>177</ele>
        <time>2026-03-29T14:03:20Z</time>
      </trkpt>
      <trkpt lat="48.70551" lon="1.97867">
        <ele>177</ele>
        <time>2026-03-29T14:03:21Z</time>
      </trkpt>
      <trkpt lat="48.70553" lon="1.97863">
        <ele>177.2</ele>
        <time>2026-03-29T14:03:22Z</time>
      </trkpt>
      <trkpt lat="48.70555" lon="1.97859">
        <ele>177.2</ele>
        <time>2026-03-29T14:03:23Z</time>
      </trkpt>
      <trkpt lat="48.70557" lon="1.97856">
        <ele>177.2</ele>
        <time>2026-03-29T14:03:24Z</time>
      </trkpt>
      <trkpt lat="48.70559" lon="1.97852">
        <ele>177.8</ele>
        <time>2026-03-29T14:03:25Z</time>
      </trkpt>
      <trkpt lat="48.70561" lon="1.97849">
        <ele>177.6</ele>
        <time>2026-03-29T14:03:26Z</time>
      </trkpt>
      <trkpt lat="48.70563" lon="1.97846">
        <ele>177.6</ele>
        <time>2026-03-29T14:03:27Z</time>
      </trkpt>
      <trkpt lat="48.70565" lon="1.97841">
        <ele>177.6</ele>
        <time>2026-03-29T14:03:28Z</time>
      </trkpt>
      <trkpt lat="48.70566" lon="1.97838">
        <ele>177.6</ele>
        <time>2026-03-29T14:03:29Z</time>
      </trkpt>
      <trkpt lat="48.70569" lon="1.97835">
        <ele>177.8</ele>
        <time>2026-03-29T14:03:30Z</time>
      </trkpt>
      <trkpt lat="48.70571" lon="1.97832">
        <ele>177.8</ele>
        <time>2026-03-29T14:03:31Z</time>
      </trkpt>
      <trkpt lat="48.70573" lon="1.97828">
        <ele>177.8</ele>
        <time>2026-03-29T14:03:32Z</time>
      </trkpt>
      <trkpt lat="48.70576" lon="1.97824">
        <ele>177.8</ele>
        <time>2026-03-29T14:03:33Z</time>
      </trkpt>
      <trkpt lat="48.70579" lon="1.9782">
        <ele>178.2</ele>
        <time>2026-03-29T14:03:34Z</time>
      </trkpt>
      <trkpt lat="48.7058" lon="1.97816">
        <ele>178.2</ele>
        <time>2026-03-29T14:03:35Z</time>
      </trkpt>
      <trkpt lat="48.70582" lon="1.97813">
        <ele>178.2</ele>
        <time>2026-03-29T14:03:36Z</time>
      </trkpt>
      <trkpt lat="48.70584" lon="1.97808">
        <ele>178.2</ele>
        <time>2026-03-29T14:03:37Z</time>
      </trkpt>
      <trkpt lat="48.70586" lon="1.97804">
        <ele>178.2</ele>
        <time>2026-03-29T14:03:38Z</time>
      </trkpt>
      <trkpt lat="48.70589" lon="1.978">
        <ele>178.2</ele>
        <time>2026-03-29T14:03:39Z</time>
      </trkpt>
      <trkpt lat="48.7059" lon="1.97795">
        <ele>178.2</ele>
        <time>2026-03-29T14:03:40Z</time>
      </trkpt>
      <trkpt lat="48.70592" lon="1.9779">
        <ele>178.2</ele>
        <time>2026-03-29T14:03:41Z</time>
      </trkpt>
      <trkpt lat="48.70593" lon="1.97785">
        <ele>178.4</ele>
        <time>2026-03-29T14:03:42Z</time>
      </trkpt>
      <trkpt lat="48.70595" lon="1.9778">
        <ele>178.4</ele>
        <time>2026-03-29T14:03:43Z</time>
      </trkpt>
      <trkpt lat="48.70597" lon="1.97776">
        <ele>178.4</ele>
        <time>2026-03-29T14:03:44Z</time>
      </trkpt>
      <trkpt lat="48.70598" lon="1.97771">
        <ele>178.4</ele>
        <time>2026-03-29T14:03:45Z</time>
      </trkpt>
      <trkpt lat="48.706" lon="1.97764">
        <ele>178</ele>
        <time>2026-03-29T14:03:46Z</time>
      </trkpt>
      <trkpt lat="48.70602" lon="1.97759">
        <ele>178</ele>
        <time>2026-03-29T14:03:47Z</time>
      </trkpt>
      <trkpt lat="48.70603" lon="1.97751">
        <ele>178</ele>
        <time>2026-03-29T14:03:48Z</time>
      </trkpt>
      <trkpt lat="48.70604" lon="1.97744">
        <ele>178.2</ele>
        <time>2026-03-29T14:03:49Z</time>
      </trkpt>
      <trkpt lat="48.70605" lon="1.97737">
        <ele>178.4</ele>
        <time>2026-03-29T14:03:50Z</time>
      </trkpt>
      <trkpt lat="48.70606" lon="1.9773">
        <ele>178.4</ele>
        <time>2026-03-29T14:03:51Z</time>
      </trkpt>
      <trkpt lat="48.70608" lon="1.97723">
        <ele>178.4</ele>
        <time>2026-03-29T14:03:52Z</time>
      </trkpt>
      <trkpt lat="48.70609" lon="1.97716">
        <ele>178.4</ele>
        <time>2026-03-29T14:03:53Z</time>
      </trkpt>
      <trkpt lat="48.70609" lon="1.97709">
        <ele>178.2</ele>
        <time>2026-03-29T14:03:54Z</time>
      </trkpt>
      <trkpt lat="48.7061" lon="1.97701">
        <ele>178.2</ele>
        <time>2026-03-29T14:03:55Z</time>
      </trkpt>
      <trkpt lat="48.70612" lon="1.97694">
        <ele>178.2</ele>
        <time>2026-03-29T14:03:56Z</time>
      </trkpt>
      <trkpt lat="48.70613" lon="1.97687">
        <ele>178</ele>
        <time>2026-03-29T14:03:57Z</time>
      </trkpt>
      <trkpt lat="48.70614" lon="1.9768">
        <ele>177.8</ele>
        <time>2026-03-29T14:03:58Z</time>
      </trkpt>
      <trkpt lat="48.70615" lon="1.97673">
        <ele>177.8</ele>
        <time>2026-03-29T14:03:59Z</time>
      </trkpt>
      <trkpt lat="48.70616" lon="1.97666">
        <ele>177.8</ele>
        <time>2026-03-29T14:04:00Z</time>
      </trkpt>
      <trkpt lat="48.70617" lon="1.97659">
        <ele>177.8</ele>
        <time>2026-03-29T14:04:01Z</time>
      </trkpt>
      <trkpt lat="48.70619" lon="1.97652">
        <ele>177.6</ele>
        <time>2026-03-29T14:04:02Z</time>
      </trkpt>
      <trkpt lat="48.7062" lon="1.97644">
        <ele>177.6</ele>
        <time>2026-03-29T14:04:03Z</time>
      </trkpt>
      <trkpt lat="48.70622" lon="1.97637">
        <ele>177.6</ele>
        <time>2026-03-29T14:04:04Z</time>
      </trkpt>
      <trkpt lat="48.70623" lon="1.97629">
        <ele>177.8</ele>
        <time>2026-03-29T14:04:05Z</time>
      </trkpt>
      <trkpt lat="48.70624" lon="1.97622">
        <ele>177.8</ele>
        <time>2026-03-29T14:04:06Z</time>
      </trkpt>
      <trkpt lat="48.70625" lon="1.97615">
        <ele>177.8</ele>
        <time>2026-03-29T14:04:07Z</time>
      </trkpt>
      <trkpt lat="48.70626" lon="1.97609">
        <ele>177.8</ele>
        <time>2026-03-29T14:04:08Z</time>
      </trkpt>
      <trkpt lat="48.70627" lon="1.97602">
        <ele>177.2</ele>
        <time>2026-03-29T14:04:09Z</time>
      </trkpt>
      <trkpt lat="48.70628" lon="1.97595">
        <ele>177.2</ele>
        <time>2026-03-29T14:04:10Z</time>
      </trkpt>
      <trkpt lat="48.70629" lon="1.97589">
        <ele>177.2</ele>
        <time>2026-03-29T14:04:11Z</time>
      </trkpt>
      <trkpt lat="48.7063" lon="1.97583">
        <ele>177.2</ele>
        <time>2026-03-29T14:04:12Z</time>
      </trkpt>
      <trkpt lat="48.70631" lon="1.97577">
        <ele>177.2</ele>
        <time>2026-03-29T14:04:13Z</time>
      </trkpt>
      <trkpt lat="48.70632" lon="1.97571">
        <ele>177</ele>
        <time>2026-03-29T14:04:14Z</time>
      </trkpt>
      <trkpt lat="48.70633" lon="1.97565">
        <ele>177</ele>
        <time>2026-03-29T14:04:15Z</time>
      </trkpt>
      <trkpt lat="48.70635" lon="1.9756">
        <ele>177</ele>
        <time>2026-03-29T14:04:16Z</time>
      </trkpt>
      <trkpt lat="48.70636" lon="1.97554">
        <ele>176</ele>
        <time>2026-03-29T14:04:17Z</time>
      </trkpt>
      <trkpt lat="48.70638" lon="1.97547">
        <ele>176</ele>
        <time>2026-03-29T14:04:18Z</time>
      </trkpt>
      <trkpt lat="48.7064" lon="1.97539">
        <ele>176</ele>
        <time>2026-03-29T14:04:19Z</time>
      </trkpt>
      <trkpt lat="48.70641" lon="1.97532">
        <ele>176</ele>
        <time>2026-03-29T14:04:20Z</time>
      </trkpt>
      <trkpt lat="48.70643" lon="1.97523">
        <ele>175</ele>
        <time>2026-03-29T14:04:21Z</time>
      </trkpt>
      <trkpt lat="48.70645" lon="1.97515">
        <ele>174.2</ele>
        <time>2026-03-29T14:04:22Z</time>
      </trkpt>
      <trkpt lat="48.70647" lon="1.97507">
        <ele>174.2</ele>
        <time>2026-03-29T14:04:23Z</time>
      </trkpt>
      <trkpt lat="48.70649" lon="1.97498">
        <ele>174.2</ele>
        <time>2026-03-29T14:04:24Z</time>
      </trkpt>
      <trkpt lat="48.70651" lon="1.9749">
        <ele>174.2</ele>
        <time>2026-03-29T14:04:25Z</time>
      </trkpt>
      <trkpt lat="48.70653" lon="1.9748">
        <ele>173.6</ele>
        <time>2026-03-29T14:04:26Z</time>
      </trkpt>
      <trkpt lat="48.70655" lon="1.97471">
        <ele>173.6</ele>
        <time>2026-03-29T14:04:27Z</time>
      </trkpt>
      <trkpt lat="48.70656" lon="1.97465">
        <ele>173.6</ele>
        <time>2026-03-29T14:04:28Z</time>
      </trkpt>
      <trkpt lat="48.70657" lon="1.9746">
        <ele>172.6</ele>
        <time>2026-03-29T14:04:29Z</time>
      </trkpt>
      <trkpt lat="48.70658" lon="1.97456">
        <ele>172</ele>
        <time>2026-03-29T14:04:30Z</time>
      </trkpt>
      <trkpt lat="48.70659" lon="1.97454">
        <ele>172</ele>
        <time>2026-03-29T14:04:31Z</time>
      </trkpt>
      <trkpt lat="48.70659" lon="1.97451">
        <ele>172</ele>
        <time>2026-03-29T14:04:32Z</time>
      </trkpt>
      <trkpt lat="48.7066" lon="1.97448">
        <ele>172</ele>
        <time>2026-03-29T14:04:33Z</time>
      </trkpt>
      <trkpt lat="48.70661" lon="1.97445">
        <ele>172.8</ele>
        <time>2026-03-29T14:04:34Z</time>
      </trkpt>
      <trkpt lat="48.70661" lon="1.9744">
        <ele>172.8</ele>
        <time>2026-03-29T14:04:35Z</time>
      </trkpt>
      <trkpt lat="48.70661" lon="1.97436">
        <ele>172.8</ele>
        <time>2026-03-29T14:04:36Z</time>
      </trkpt>
      <trkpt lat="48.70661" lon="1.97432">
        <ele>172.8</ele>
        <time>2026-03-29T14:04:37Z</time>
      </trkpt>
      <trkpt lat="48.70661" lon="1.97428">
        <ele>173.2</ele>
        <time>2026-03-29T14:04:38Z</time>
      </trkpt>
      <trkpt lat="48.70662" lon="1.97424">
        <ele>173.2</ele>
        <time>2026-03-29T14:04:39Z</time>
      </trkpt>
      <trkpt lat="48.70663" lon="1.97422">
        <ele>173.2</ele>
        <time>2026-03-29T14:04:40Z</time>
      </trkpt>
      <trkpt lat="48.70664" lon="1.9742">
        <ele>173.2</ele>
        <time>2026-03-29T14:04:41Z</time>
      </trkpt>
      <trkpt lat="48.70665" lon="1.97418">
        <ele>173.2</ele>
        <time>2026-03-29T14:04:42Z</time>
      </trkpt>
      <trkpt lat="48.70667" lon="1.97415">
        <ele>173.2</ele>
        <time>2026-03-29T14:04:43Z</time>
      </trkpt>
      <trkpt lat="48.70668" lon="1.97411">
        <ele>173.2</ele>
        <time>2026-03-29T14:04:44Z</time>
      </trkpt>
      <trkpt lat="48.70669" lon="1.97407">
        <ele>173.6</ele>
        <time>2026-03-29T14:04:45Z</time>
      </trkpt>
      <trkpt lat="48.7067" lon="1.97403">
        <ele>174.4</ele>
        <time>2026-03-29T14:04:46Z</time>
      </trkpt>
      <trkpt lat="48.70671" lon="1.97399">
        <ele>174.4</ele>
        <time>2026-03-29T14:04:47Z</time>
      </trkpt>
      <trkpt lat="48.70672" lon="1.97395">
        <ele>174.4</ele>
        <time>2026-03-29T14:04:48Z</time>
      </trkpt>
      <trkpt lat="48.70673" lon="1.97391">
        <ele>175</ele>
        <time>2026-03-29T14:04:49Z</time>
      </trkpt>
      <trkpt lat="48.70674" lon="1.97387">
        <ele>175.8</ele>
        <time>2026-03-29T14:04:50Z</time>
      </trkpt>
      <trkpt lat="48.70675" lon="1.97382">
        <ele>175.8</ele>
        <time>2026-03-29T14:04:51Z</time>
      </trkpt>
      <trkpt lat="48.70677" lon="1.97378">
        <ele>175.8</ele>
        <time>2026-03-29T14:04:52Z</time>
      </trkpt>
      <trkpt lat="48.70678" lon="1.97373">
        <ele>175.8</ele>
        <time>2026-03-29T14:04:53Z</time>
      </trkpt>
      <trkpt lat="48.70679" lon="1.97367">
        <ele>176.4</ele>
        <time>2026-03-29T14:04:54Z</time>
      </trkpt>
      <trkpt lat="48.7068" lon="1.97363">
        <ele>176.4</ele>
        <time>2026-03-29T14:04:55Z</time>
      </trkpt>
      <trkpt lat="48.70681" lon="1.97359">
        <ele>176.4</ele>
        <time>2026-03-29T14:04:56Z</time>
      </trkpt>
      <trkpt lat="48.70682" lon="1.97354">
        <ele>176.4</ele>
        <time>2026-03-29T14:04:57Z</time>
      </trkpt>
      <trkpt lat="48.70684" lon="1.97349">
        <ele>176.6</ele>
        <time>2026-03-29T14:04:58Z</time>
      </trkpt>
      <trkpt lat="48.70685" lon="1.97346">
        <ele>176.6</ele>
        <time>2026-03-29T14:04:59Z</time>
      </trkpt>
      <trkpt lat="48.70686" lon="1.97341">
        <ele>176.6</ele>
        <time>2026-03-29T14:05:00Z</time>
      </trkpt>
      <trkpt lat="48.70688" lon="1.97336">
        <ele>177.2</ele>
        <time>2026-03-29T14:05:01Z</time>
      </trkpt>
      <trkpt lat="48.70689" lon="1.97331">
        <ele>177.2</ele>
        <time>2026-03-29T14:05:02Z</time>
      </trkpt>
      <trkpt lat="48.7069" lon="1.97326">
        <ele>177.2</ele>
        <time>2026-03-29T14:05:03Z</time>
      </trkpt>
      <trkpt lat="48.70691" lon="1.9732">
        <ele>177.2</ele>
        <time>2026-03-29T14:05:04Z</time>
      </trkpt>
      <trkpt lat="48.70692" lon="1.97316">
        <ele>177.2</ele>
        <time>2026-03-29T14:05:05Z</time>
      </trkpt>
      <trkpt lat="48.70693" lon="1.97311">
        <ele>178</ele>
        <time>2026-03-29T14:05:06Z</time>
      </trkpt>
      <trkpt lat="48.70695" lon="1.97306">
        <ele>178</ele>
        <time>2026-03-29T14:05:07Z</time>
      </trkpt>
      <trkpt lat="48.70698" lon="1.97302">
        <ele>178</ele>
        <time>2026-03-29T14:05:08Z</time>
      </trkpt>
      <trkpt lat="48.70699" lon="1.97297">
        <ele>178</ele>
        <time>2026-03-29T14:05:09Z</time>
      </trkpt>
      <trkpt lat="48.70701" lon="1.97291">
        <ele>178.4</ele>
        <time>2026-03-29T14:05:10Z</time>
      </trkpt>
      <trkpt lat="48.70702" lon="1.97286">
        <ele>178.4</ele>
        <time>2026-03-29T14:05:11Z</time>
      </trkpt>
      <trkpt lat="48.70703" lon="1.9728">
        <ele>178.4</ele>
        <time>2026-03-29T14:05:12Z</time>
      </trkpt>
      <trkpt lat="48.70706" lon="1.97275">
        <ele>178.4</ele>
        <time>2026-03-29T14:05:13Z</time>
      </trkpt>
      <trkpt lat="48.70708" lon="1.9727">
        <ele>178.8</ele>
        <time>2026-03-29T14:05:14Z</time>
      </trkpt>
      <trkpt lat="48.70709" lon="1.97266">
        <ele>178.8</ele>
        <time>2026-03-29T14:05:15Z</time>
      </trkpt>
      <trkpt lat="48.7071" lon="1.97261">
        <ele>178.8</ele>
        <time>2026-03-29T14:05:16Z</time>
      </trkpt>
      <trkpt lat="48.70711" lon="1.97256">
        <ele>178.8</ele>
        <time>2026-03-29T14:05:17Z</time>
      </trkpt>
      <trkpt lat="48.70712" lon="1.97251">
        <ele>179.4</ele>
        <time>2026-03-29T14:05:18Z</time>
      </trkpt>
      <trkpt lat="48.70713" lon="1.97246">
        <ele>179.4</ele>
        <time>2026-03-29T14:05:19Z</time>
      </trkpt>
      <trkpt lat="48.70715" lon="1.97242">
        <ele>179.4</ele>
        <time>2026-03-29T14:05:20Z</time>
      </trkpt>
      <trkpt lat="48.70716" lon="1.97237">
        <ele>179.2</ele>
        <time>2026-03-29T14:05:21Z</time>
      </trkpt>
      <trkpt lat="48.70717" lon="1.97232">
        <ele>179.4</ele>
        <time>2026-03-29T14:05:22Z</time>
      </trkpt>
      <trkpt lat="48.7072" lon="1.97227">
        <ele>179.4</ele>
        <time>2026-03-29T14:05:23Z</time>
      </trkpt>
      <trkpt lat="48.70721" lon="1.97223">
        <ele>179.4</ele>
        <time>2026-03-29T14:05:24Z</time>
      </trkpt>
      <trkpt lat="48.70723" lon="1.97217">
        <ele>179</ele>
        <time>2026-03-29T14:05:25Z</time>
      </trkpt>
      <trkpt lat="48.70725" lon="1.97211">
        <ele>178.8</ele>
        <time>2026-03-29T14:05:26Z</time>
      </trkpt>
      <trkpt lat="48.70726" lon="1.97206">
        <ele>178.8</ele>
        <time>2026-03-29T14:05:27Z</time>
      </trkpt>
      <trkpt lat="48.70727" lon="1.97201">
        <ele>178.8</ele>
        <time>2026-03-29T14:05:28Z</time>
      </trkpt>
      <trkpt lat="48.70728" lon="1.97194">
        <ele>178.8</ele>
        <time>2026-03-29T14:05:29Z</time>
      </trkpt>
      <trkpt lat="48.7073" lon="1.9719">
        <ele>178.6</ele>
        <time>2026-03-29T14:05:30Z</time>
      </trkpt>
      <trkpt lat="48.70732" lon="1.97186">
        <ele>178.6</ele>
        <time>2026-03-29T14:05:31Z</time>
      </trkpt>
      <trkpt lat="48.70734" lon="1.97181">
        <ele>178.6</ele>
        <time>2026-03-29T14:05:32Z</time>
      </trkpt>
      <trkpt lat="48.70736" lon="1.97177">
        <ele>178.6</ele>
        <time>2026-03-29T14:05:33Z</time>
      </trkpt>
      <trkpt lat="48.70737" lon="1.97171">
        <ele>178.6</ele>
        <time>2026-03-29T14:05:34Z</time>
      </trkpt>
      <trkpt lat="48.70738" lon="1.97167">
        <ele>178.6</ele>
        <time>2026-03-29T14:05:35Z</time>
      </trkpt>
      <trkpt lat="48.70739" lon="1.97161">
        <ele>178.6</ele>
        <time>2026-03-29T14:05:36Z</time>
      </trkpt>
      <trkpt lat="48.7074" lon="1.97156">
        <ele>178.6</ele>
        <time>2026-03-29T14:05:37Z</time>
      </trkpt>
      <trkpt lat="48.70742" lon="1.97152">
        <ele>178.8</ele>
        <time>2026-03-29T14:05:38Z</time>
      </trkpt>
      <trkpt lat="48.70743" lon="1.97147">
        <ele>178.8</ele>
        <time>2026-03-29T14:05:39Z</time>
      </trkpt>
      <trkpt lat="48.70746" lon="1.9714">
        <ele>178.8</ele>
        <time>2026-03-29T14:05:40Z</time>
      </trkpt>
      <trkpt lat="48.70747" lon="1.97135">
        <ele>179</ele>
        <time>2026-03-29T14:05:41Z</time>
      </trkpt>
      <trkpt lat="48.70749" lon="1.97128">
        <ele>178.4</ele>
        <time>2026-03-29T14:05:42Z</time>
      </trkpt>
      <trkpt lat="48.70751" lon="1.97122">
        <ele>178.4</ele>
        <time>2026-03-29T14:05:43Z</time>
      </trkpt>
      <trkpt lat="48.70753" lon="1.97115">
        <ele>178.4</ele>
        <time>2026-03-29T14:05:44Z</time>
      </trkpt>
      <trkpt lat="48.70754" lon="1.9711">
        <ele>178.4</ele>
        <time>2026-03-29T14:05:45Z</time>
      </trkpt>
      <trkpt lat="48.70756" lon="1.97104">
        <ele>179</ele>
        <time>2026-03-29T14:05:46Z</time>
      </trkpt>
      <trkpt lat="48.70759" lon="1.97096">
        <ele>179</ele>
        <time>2026-03-29T14:05:47Z</time>
      </trkpt>
      <trkpt lat="48.70761" lon="1.97088">
        <ele>179</ele>
        <time>2026-03-29T14:05:48Z</time>
      </trkpt>
      <trkpt lat="48.70763" lon="1.97082">
        <ele>178.6</ele>
        <time>2026-03-29T14:05:49Z</time>
      </trkpt>
      <trkpt lat="48.70765" lon="1.97073">
        <ele>178.4</ele>
        <time>2026-03-29T14:05:50Z</time>
      </trkpt>
      <trkpt lat="48.70767" lon="1.97065">
        <ele>178.4</ele>
        <time>2026-03-29T14:05:51Z</time>
      </trkpt>
      <trkpt lat="48.70771" lon="1.97057">
        <ele>178.4</ele>
        <time>2026-03-29T14:05:52Z</time>
      </trkpt>
      <trkpt lat="48.70776" lon="1.97048">
        <ele>177.8</ele>
        <time>2026-03-29T14:05:53Z</time>
      </trkpt>
      <trkpt lat="48.70779" lon="1.97039">
        <ele>177.8</ele>
        <time>2026-03-29T14:05:54Z</time>
      </trkpt>
      <trkpt lat="48.70784" lon="1.97031">
        <ele>177.8</ele>
        <time>2026-03-29T14:05:55Z</time>
      </trkpt>
      <trkpt lat="48.70788" lon="1.97022">
        <ele>177.8</ele>
        <time>2026-03-29T14:05:56Z</time>
      </trkpt>
      <trkpt lat="48.70792" lon="1.97014">
        <ele>177.8</ele>
        <time>2026-03-29T14:05:57Z</time>
      </trkpt>
      <trkpt lat="48.70796" lon="1.97007">
        <ele>177.6</ele>
        <time>2026-03-29T14:05:58Z</time>
      </trkpt>
      <trkpt lat="48.70801" lon="1.96999">
        <ele>177.6</ele>
        <time>2026-03-29T14:05:59Z</time>
      </trkpt>
      <trkpt lat="48.70805" lon="1.96992">
        <ele>177.6</ele>
        <time>2026-03-29T14:06:00Z</time>
      </trkpt>
      <trkpt lat="48.7081" lon="1.96985">
        <ele>177.6</ele>
        <time>2026-03-29T14:06:01Z</time>
      </trkpt>
      <trkpt lat="48.70814" lon="1.96979">
        <ele>177.4</ele>
        <time>2026-03-29T14:06:02Z</time>
      </trkpt>
      <trkpt lat="48.70818" lon="1.96973">
        <ele>177.4</ele>
        <time>2026-03-29T14:06:03Z</time>
      </trkpt>
      <trkpt lat="48.70822" lon="1.96966">
        <ele>177.4</ele>
        <time>2026-03-29T14:06:04Z</time>
      </trkpt>
      <trkpt lat="48.70826" lon="1.9696">
        <ele>178.2</ele>
        <time>2026-03-29T14:06:05Z</time>
      </trkpt>
      <trkpt lat="48.7083" lon="1.96954">
        <ele>178.6</ele>
        <time>2026-03-29T14:06:06Z</time>
      </trkpt>
      <trkpt lat="48.70834" lon="1.96949">
        <ele>178.6</ele>
        <time>2026-03-29T14:06:07Z</time>
      </trkpt>
      <trkpt lat="48.70837" lon="1.96944">
        <ele>178.6</ele>
        <time>2026-03-29T14:06:08Z</time>
      </trkpt>
      <trkpt lat="48.7084" lon="1.96939">
        <ele>178.6</ele>
        <time>2026-03-29T14:06:09Z</time>
      </trkpt>
      <trkpt lat="48.70843" lon="1.96933">
        <ele>178.8</ele>
        <time>2026-03-29T14:06:10Z</time>
      </trkpt>
      <trkpt lat="48.70846" lon="1.96929">
        <ele>178.8</ele>
        <time>2026-03-29T14:06:11Z</time>
      </trkpt>
      <trkpt lat="48.70849" lon="1.96923">
        <ele>178.8</ele>
        <time>2026-03-29T14:06:12Z</time>
      </trkpt>
      <trkpt lat="48.70852" lon="1.96919">
        <ele>178.8</ele>
        <time>2026-03-29T14:06:13Z</time>
      </trkpt>
      <trkpt lat="48.70855" lon="1.96914">
        <ele>179</ele>
        <time>2026-03-29T14:06:14Z</time>
      </trkpt>
      <trkpt lat="48.70858" lon="1.96909">
        <ele>179</ele>
        <time>2026-03-29T14:06:15Z</time>
      </trkpt>
      <trkpt lat="48.7086" lon="1.96904">
        <ele>179</ele>
        <time>2026-03-29T14:06:16Z</time>
      </trkpt>
      <trkpt lat="48.70863" lon="1.96899">
        <ele>179.4</ele>
        <time>2026-03-29T14:06:17Z</time>
      </trkpt>
      <trkpt lat="48.70867" lon="1.96894">
        <ele>180</ele>
        <time>2026-03-29T14:06:18Z</time>
      </trkpt>
      <trkpt lat="48.7087" lon="1.9689">
        <ele>180</ele>
        <time>2026-03-29T14:06:19Z</time>
      </trkpt>
      <trkpt lat="48.70873" lon="1.96885">
        <ele>180</ele>
        <time>2026-03-29T14:06:20Z</time>
      </trkpt>
      <trkpt lat="48.70876" lon="1.9688">
        <ele>180</ele>
        <time>2026-03-29T14:06:21Z</time>
      </trkpt>
      <trkpt lat="48.70878" lon="1.96875">
        <ele>180.2</ele>
        <time>2026-03-29T14:06:22Z</time>
      </trkpt>
      <trkpt lat="48.70881" lon="1.9687">
        <ele>180.2</ele>
        <time>2026-03-29T14:06:23Z</time>
      </trkpt>
      <trkpt lat="48.70884" lon="1.96864">
        <ele>180.2</ele>
        <time>2026-03-29T14:06:24Z</time>
      </trkpt>
      <trkpt lat="48.70887" lon="1.96859">
        <ele>180.2</ele>
        <time>2026-03-29T14:06:25Z</time>
      </trkpt>
      <trkpt lat="48.70889" lon="1.96853">
        <ele>180.4</ele>
        <time>2026-03-29T14:06:26Z</time>
      </trkpt>
      <trkpt lat="48.70892" lon="1.96848">
        <ele>180.4</ele>
        <time>2026-03-29T14:06:27Z</time>
      </trkpt>
      <trkpt lat="48.70895" lon="1.96843">
        <ele>180.4</ele>
        <time>2026-03-29T14:06:28Z</time>
      </trkpt>
      <trkpt lat="48.70898" lon="1.96838">
        <ele>180.4</ele>
        <time>2026-03-29T14:06:29Z</time>
      </trkpt>
      <trkpt lat="48.709" lon="1.96833">
        <ele>181</ele>
        <time>2026-03-29T14:06:30Z</time>
      </trkpt>
      <trkpt lat="48.70903" lon="1.96827">
        <ele>181</ele>
        <time>2026-03-29T14:06:31Z</time>
      </trkpt>
      <trkpt lat="48.70906" lon="1.96823">
        <ele>181</ele>
        <time>2026-03-29T14:06:32Z</time>
      </trkpt>
      <trkpt lat="48.7091" lon="1.96818">
        <ele>181</ele>
        <time>2026-03-29T14:06:33Z</time>
      </trkpt>
      <trkpt lat="48.70914" lon="1.96818">
        <ele>181</ele>
        <time>2026-03-29T14:06:34Z</time>
      </trkpt>
      <trkpt lat="48.70918" lon="1.96819">
        <ele>181</ele>
        <time>2026-03-29T14:06:35Z</time>
      </trkpt>
      <trkpt lat="48.70922" lon="1.9682">
        <ele>181</ele>
        <time>2026-03-29T14:06:36Z</time>
      </trkpt>
      <trkpt lat="48.70927" lon="1.96822">
        <ele>181</ele>
        <time>2026-03-29T14:06:37Z</time>
      </trkpt>
      <trkpt lat="48.70931" lon="1.96823">
        <ele>181.8</ele>
        <time>2026-03-29T14:06:38Z</time>
      </trkpt>
      <trkpt lat="48.70936" lon="1.96825">
        <ele>181.8</ele>
        <time>2026-03-29T14:06:39Z</time>
      </trkpt>
      <trkpt lat="48.70941" lon="1.96826">
        <ele>181.8</ele>
        <time>2026-03-29T14:06:40Z</time>
      </trkpt>
      <trkpt lat="48.70946" lon="1.96825">
        <ele>181.2</ele>
        <time>2026-03-29T14:06:41Z</time>
      </trkpt>
      <trkpt lat="48.70951" lon="1.96824">
        <ele>181.6</ele>
        <time>2026-03-29T14:06:42Z</time>
      </trkpt>
      <trkpt lat="48.70955" lon="1.96822">
        <ele>181.6</ele>
        <time>2026-03-29T14:06:43Z</time>
      </trkpt>
      <trkpt lat="48.7096" lon="1.96819">
        <ele>181.6</ele>
        <time>2026-03-29T14:06:44Z</time>
      </trkpt>
      <trkpt lat="48.70965" lon="1.96817">
        <ele>181.6</ele>
        <time>2026-03-29T14:06:45Z</time>
      </trkpt>
      <trkpt lat="48.7097" lon="1.96815">
        <ele>181.8</ele>
        <time>2026-03-29T14:06:46Z</time>
      </trkpt>
      <trkpt lat="48.70974" lon="1.96813">
        <ele>181.8</ele>
        <time>2026-03-29T14:06:47Z</time>
      </trkpt>
      <trkpt lat="48.70979" lon="1.9681">
        <ele>181.8</ele>
        <time>2026-03-29T14:06:48Z</time>
      </trkpt>
      <trkpt lat="48.70984" lon="1.96809">
        <ele>181</ele>
        <time>2026-03-29T14:06:49Z</time>
      </trkpt>
      <trkpt lat="48.70989" lon="1.96807">
        <ele>181.6</ele>
        <time>2026-03-29T14:06:50Z</time>
      </trkpt>
      <trkpt lat="48.70993" lon="1.96805">
        <ele>181.6</ele>
        <time>2026-03-29T14:06:51Z</time>
      </trkpt>
      <trkpt lat="48.70998" lon="1.96804">
        <ele>181.6</ele>
        <time>2026-03-29T14:06:52Z</time>
      </trkpt>
      <trkpt lat="48.71003" lon="1.96803">
        <ele>181.6</ele>
        <time>2026-03-29T14:06:53Z</time>
      </trkpt>
      <trkpt lat="48.71007" lon="1.96801">
        <ele>181.8</ele>
        <time>2026-03-29T14:06:54Z</time>
      </trkpt>
      <trkpt lat="48.71012" lon="1.968">
        <ele>181.8</ele>
        <time>2026-03-29T14:06:55Z</time>
      </trkpt>
      <trkpt lat="48.71017" lon="1.96798">
        <ele>181.8</ele>
        <time>2026-03-29T14:06:56Z</time>
      </trkpt>
      <trkpt lat="48.71021" lon="1.96796">
        <ele>181.8</ele>
        <time>2026-03-29T14:06:57Z</time>
      </trkpt>
      <trkpt lat="48.71026" lon="1.96795">
        <ele>181.2</ele>
        <time>2026-03-29T14:06:58Z</time>
      </trkpt>
      <trkpt lat="48.7103" lon="1.96794">
        <ele>181.2</ele>
        <time>2026-03-29T14:06:59Z</time>
      </trkpt>
      <trkpt lat="48.71035" lon="1.96792">
        <ele>181.2</ele>
        <time>2026-03-29T14:07:00Z</time>
      </trkpt>
      <trkpt lat="48.71039" lon="1.96791">
        <ele>181.2</ele>
        <time>2026-03-29T14:07:01Z</time>
      </trkpt>
      <trkpt lat="48.71043" lon="1.9679">
        <ele>181.6</ele>
        <time>2026-03-29T14:07:02Z</time>
      </trkpt>
      <trkpt lat="48.71047" lon="1.96789">
        <ele>181.6</ele>
        <time>2026-03-29T14:07:03Z</time>
      </trkpt>
      <trkpt lat="48.71051" lon="1.96788">
        <ele>181.6</ele>
        <time>2026-03-29T14:07:04Z</time>
      </trkpt>
      <trkpt lat="48.71055" lon="1.96787">
        <ele>180.8</ele>
        <time>2026-03-29T14:07:05Z</time>
      </trkpt>
      <trkpt lat="48.71059" lon="1.96785">
        <ele>180.4</ele>
        <time>2026-03-29T14:07:06Z</time>
      </trkpt>
      <trkpt lat="48.71063" lon="1.96784">
        <ele>180.4</ele>
        <time>2026-03-29T14:07:07Z</time>
      </trkpt>
      <trkpt lat="48.71066" lon="1.96784">
        <ele>180.4</ele>
        <time>2026-03-29T14:07:08Z</time>
      </trkpt>
      <trkpt lat="48.7107" lon="1.96784">
        <ele>180.4</ele>
        <time>2026-03-29T14:07:09Z</time>
      </trkpt>
      <trkpt lat="48.71073" lon="1.96784">
        <ele>180.4</ele>
        <time>2026-03-29T14:07:10Z</time>
      </trkpt>
      <trkpt lat="48.71076" lon="1.96782">
        <ele>180.4</ele>
        <time>2026-03-29T14:07:11Z</time>
      </trkpt>
      <trkpt lat="48.71079" lon="1.96779">
        <ele>180.4</ele>
        <time>2026-03-29T14:07:12Z</time>
      </trkpt>
      <trkpt lat="48.71083" lon="1.96776">
        <ele>180.4</ele>
        <time>2026-03-29T14:07:13Z</time>
      </trkpt>
      <trkpt lat="48.71087" lon="1.96774">
        <ele>180.2</ele>
        <time>2026-03-29T14:07:14Z</time>
      </trkpt>
      <trkpt lat="48.71092" lon="1.96773">
        <ele>180.2</ele>
        <time>2026-03-29T14:07:15Z</time>
      </trkpt>
      <trkpt lat="48.71097" lon="1.96771">
        <ele>180.2</ele>
        <time>2026-03-29T14:07:16Z</time>
      </trkpt>
      <trkpt lat="48.71103" lon="1.9677">
        <ele>180.2</ele>
        <time>2026-03-29T14:07:17Z</time>
      </trkpt>
      <trkpt lat="48.71109" lon="1.9677">
        <ele>179.8</ele>
        <time>2026-03-29T14:07:18Z</time>
      </trkpt>
      <trkpt lat="48.71115" lon="1.96769">
        <ele>179.8</ele>
        <time>2026-03-29T14:07:19Z</time>
      </trkpt>
      <trkpt lat="48.7112" lon="1.96768">
        <ele>179.8</ele>
        <time>2026-03-29T14:07:20Z</time>
      </trkpt>
      <trkpt lat="48.71126" lon="1.96767">
        <ele>180.2</ele>
        <time>2026-03-29T14:07:21Z</time>
      </trkpt>
      <trkpt lat="48.71132" lon="1.96766">
        <ele>179.8</ele>
        <time>2026-03-29T14:07:22Z</time>
      </trkpt>
      <trkpt lat="48.71138" lon="1.96766">
        <ele>179.8</ele>
        <time>2026-03-29T14:07:23Z</time>
      </trkpt>
      <trkpt lat="48.71144" lon="1.96765">
        <ele>179.8</ele>
        <time>2026-03-29T14:07:24Z</time>
      </trkpt>
      <trkpt lat="48.7115" lon="1.96765">
        <ele>179.6</ele>
        <time>2026-03-29T14:07:25Z</time>
      </trkpt>
      <trkpt lat="48.71156" lon="1.96766">
        <ele>178.6</ele>
        <time>2026-03-29T14:07:26Z</time>
      </trkpt>
      <trkpt lat="48.71161" lon="1.96766">
        <ele>178.6</ele>
        <time>2026-03-29T14:07:27Z</time>
      </trkpt>
      <trkpt lat="48.71166" lon="1.96768">
        <ele>178.6</ele>
        <time>2026-03-29T14:07:28Z</time>
      </trkpt>
      <trkpt lat="48.71171" lon="1.96767">
        <ele>177.6</ele>
        <time>2026-03-29T14:07:29Z</time>
      </trkpt>
      <trkpt lat="48.71176" lon="1.96765">
        <ele>177</ele>
        <time>2026-03-29T14:07:30Z</time>
      </trkpt>
      <trkpt lat="48.7118" lon="1.96763">
        <ele>177</ele>
        <time>2026-03-29T14:07:31Z</time>
      </trkpt>
      <trkpt lat="48.71183" lon="1.96763">
        <ele>177</ele>
        <time>2026-03-29T14:07:32Z</time>
      </trkpt>
      <trkpt lat="48.71187" lon="1.96765">
        <ele>176</ele>
        <time>2026-03-29T14:07:33Z</time>
      </trkpt>
      <trkpt lat="48.71192" lon="1.96769">
        <ele>173.6</ele>
        <time>2026-03-29T14:07:34Z</time>
      </trkpt>
      <trkpt lat="48.71196" lon="1.96773">
        <ele>173.6</ele>
        <time>2026-03-29T14:07:35Z</time>
      </trkpt>
      <trkpt lat="48.71202" lon="1.96776">
        <ele>173.6</ele>
        <time>2026-03-29T14:07:36Z</time>
      </trkpt>
      <trkpt lat="48.71207" lon="1.9678">
        <ele>172.6</ele>
        <time>2026-03-29T14:07:37Z</time>
      </trkpt>
      <trkpt lat="48.71212" lon="1.96783">
        <ele>169.6</ele>
        <time>2026-03-29T14:07:38Z</time>
      </trkpt>
      <trkpt lat="48.71217" lon="1.96786">
        <ele>169.6</ele>
        <time>2026-03-29T14:07:39Z</time>
      </trkpt>
      <trkpt lat="48.71221" lon="1.96789">
        <ele>169.6</ele>
        <time>2026-03-29T14:07:40Z</time>
      </trkpt>
      <trkpt lat="48.71226" lon="1.96792">
        <ele>168.6</ele>
        <time>2026-03-29T14:07:41Z</time>
      </trkpt>
      <trkpt lat="48.7123" lon="1.96795">
        <ele>166.6</ele>
        <time>2026-03-29T14:07:42Z</time>
      </trkpt>
      <trkpt lat="48.71233" lon="1.968">
        <ele>166.6</ele>
        <time>2026-03-29T14:07:43Z</time>
      </trkpt>
      <trkpt lat="48.71236" lon="1.96805">
        <ele>166.6</ele>
        <time>2026-03-29T14:07:44Z</time>
      </trkpt>
      <trkpt lat="48.71239" lon="1.96811">
        <ele>165.6</ele>
        <time>2026-03-29T14:07:45Z</time>
      </trkpt>
      <trkpt lat="48.71242" lon="1.96819">
        <ele>163.6</ele>
        <time>2026-03-29T14:07:46Z</time>
      </trkpt>
      <trkpt lat="48.71247" lon="1.96825">
        <ele>163.6</ele>
        <time>2026-03-29T14:07:47Z</time>
      </trkpt>
      <trkpt lat="48.71252" lon="1.96829">
        <ele>163.6</ele>
        <time>2026-03-29T14:07:48Z</time>
      </trkpt>
      <trkpt lat="48.71257" lon="1.96833">
        <ele>163.6</ele>
        <time>2026-03-29T14:07:49Z</time>
      </trkpt>
      <trkpt lat="48.71261" lon="1.96837">
        <ele>160.2</ele>
        <time>2026-03-29T14:07:50Z</time>
      </trkpt>
      <trkpt lat="48.71266" lon="1.96842">
        <ele>160.2</ele>
        <time>2026-03-29T14:07:51Z</time>
      </trkpt>
      <trkpt lat="48.71271" lon="1.96847">
        <ele>160.2</ele>
        <time>2026-03-29T14:07:52Z</time>
      </trkpt>
      <trkpt lat="48.71277" lon="1.96855">
        <ele>159.2</ele>
        <time>2026-03-29T14:07:53Z</time>
      </trkpt>
      <trkpt lat="48.71282" lon="1.96862">
        <ele>155.4</ele>
        <time>2026-03-29T14:07:54Z</time>
      </trkpt>
      <trkpt lat="48.71288" lon="1.96867">
        <ele>155.4</ele>
        <time>2026-03-29T14:07:55Z</time>
      </trkpt>
      <trkpt lat="48.71293" lon="1.9687">
        <ele>155.4</ele>
        <time>2026-03-29T14:07:56Z</time>
      </trkpt>
      <trkpt lat="48.71297" lon="1.96874">
        <ele>154.4</ele>
        <time>2026-03-29T14:07:57Z</time>
      </trkpt>
      <trkpt lat="48.71303" lon="1.96879">
        <ele>149.8</ele>
        <time>2026-03-29T14:07:58Z</time>
      </trkpt>
      <trkpt lat="48.71309" lon="1.96882">
        <ele>149.8</ele>
        <time>2026-03-29T14:07:59Z</time>
      </trkpt>
      <trkpt lat="48.71317" lon="1.96886">
        <ele>149.8</ele>
        <time>2026-03-29T14:08:00Z</time>
      </trkpt>
      <trkpt lat="48.71322" lon="1.96889">
        <ele>148.8</ele>
        <time>2026-03-29T14:08:01Z</time>
      </trkpt>
      <trkpt lat="48.71327" lon="1.96892">
        <ele>146.2</ele>
        <time>2026-03-29T14:08:02Z</time>
      </trkpt>
      <trkpt lat="48.71333" lon="1.96894">
        <ele>146.2</ele>
        <time>2026-03-29T14:08:03Z</time>
      </trkpt>
      <trkpt lat="48.71341" lon="1.96897">
        <ele>146.2</ele>
        <time>2026-03-29T14:08:04Z</time>
      </trkpt>
      <trkpt lat="48.71343" lon="1.96902">
        <ele>145.2</ele>
        <time>2026-03-29T14:08:05Z</time>
      </trkpt>
      <trkpt lat="48.7135" lon="1.96906">
        <ele>143.6</ele>
        <time>2026-03-29T14:08:06Z</time>
      </trkpt>
      <trkpt lat="48.71357" lon="1.96911">
        <ele>143.6</ele>
        <time>2026-03-29T14:08:07Z</time>
      </trkpt>
      <trkpt lat="48.71363" lon="1.96915">
        <ele>143.6</ele>
        <time>2026-03-29T14:08:08Z</time>
      </trkpt>
      <trkpt lat="48.71369" lon="1.9692">
        <ele>142.6</ele>
        <time>2026-03-29T14:08:09Z</time>
      </trkpt>
      <trkpt lat="48.71375" lon="1.96924">
        <ele>139.4</ele>
        <time>2026-03-29T14:08:10Z</time>
      </trkpt>
      <trkpt lat="48.71381" lon="1.96928">
        <ele>139.4</ele>
        <time>2026-03-29T14:08:11Z</time>
      </trkpt>
      <trkpt lat="48.71386" lon="1.96932">
        <ele>139.4</ele>
        <time>2026-03-29T14:08:12Z</time>
      </trkpt>
      <trkpt lat="48.71391" lon="1.96935">
        <ele>138.4</ele>
        <time>2026-03-29T14:08:13Z</time>
      </trkpt>
      <trkpt lat="48.71397" lon="1.96938">
        <ele>137.2</ele>
        <time>2026-03-29T14:08:14Z</time>
      </trkpt>
      <trkpt lat="48.71403" lon="1.96941">
        <ele>137.2</ele>
        <time>2026-03-29T14:08:15Z</time>
      </trkpt>
      <trkpt lat="48.71407" lon="1.96944">
        <ele>137.2</ele>
        <time>2026-03-29T14:08:16Z</time>
      </trkpt>
      <trkpt lat="48.71411" lon="1.96946">
        <ele>136.4</ele>
        <time>2026-03-29T14:08:17Z</time>
      </trkpt>
      <trkpt lat="48.71414" lon="1.96947">
        <ele>135.6</ele>
        <time>2026-03-29T14:08:18Z</time>
      </trkpt>
      <trkpt lat="48.71417" lon="1.96948">
        <ele>135.6</ele>
        <time>2026-03-29T14:08:19Z</time>
      </trkpt>
      <trkpt lat="48.7142" lon="1.96949">
        <ele>135.6</ele>
        <time>2026-03-29T14:08:20Z</time>
      </trkpt>
      <trkpt lat="48.71423" lon="1.96949">
        <ele>135.6</ele>
        <time>2026-03-29T14:08:21Z</time>
      </trkpt>
      <trkpt lat="48.71427" lon="1.96946">
        <ele>135.4</ele>
        <time>2026-03-29T14:08:22Z</time>
      </trkpt>
      <trkpt lat="48.7143" lon="1.96941">
        <ele>135.4</ele>
        <time>2026-03-29T14:08:23Z</time>
      </trkpt>
      <trkpt lat="48.71433" lon="1.96936">
        <ele>135.4</ele>
        <time>2026-03-29T14:08:24Z</time>
      </trkpt>
      <trkpt lat="48.71435" lon="1.96931">
        <ele>135.8</ele>
        <time>2026-03-29T14:08:25Z</time>
      </trkpt>
      <trkpt lat="48.71437" lon="1.96924">
        <ele>136.6</ele>
        <time>2026-03-29T14:08:26Z</time>
      </trkpt>
      <trkpt lat="48.71438" lon="1.96918">
        <ele>136.6</ele>
        <time>2026-03-29T14:08:27Z</time>
      </trkpt>
      <trkpt lat="48.71439" lon="1.96911">
        <ele>136.6</ele>
        <time>2026-03-29T14:08:28Z</time>
      </trkpt>
      <trkpt lat="48.71439" lon="1.96903">
        <ele>136.6</ele>
        <time>2026-03-29T14:08:29Z</time>
      </trkpt>
      <trkpt lat="48.7144" lon="1.96896">
        <ele>136.8</ele>
        <time>2026-03-29T14:08:30Z</time>
      </trkpt>
      <trkpt lat="48.71442" lon="1.96889">
        <ele>136.8</ele>
        <time>2026-03-29T14:08:31Z</time>
      </trkpt>
      <trkpt lat="48.71443" lon="1.96882">
        <ele>136.8</ele>
        <time>2026-03-29T14:08:32Z</time>
      </trkpt>
      <trkpt lat="48.71444" lon="1.96874">
        <ele>136.8</ele>
        <time>2026-03-29T14:08:33Z</time>
      </trkpt>
      <trkpt lat="48.71445" lon="1.96867">
        <ele>136.6</ele>
        <time>2026-03-29T14:08:34Z</time>
      </trkpt>
      <trkpt lat="48.71446" lon="1.9686">
        <ele>136.6</ele>
        <time>2026-03-29T14:08:35Z</time>
      </trkpt>
      <trkpt lat="48.71448" lon="1.96852">
        <ele>136.6</ele>
        <time>2026-03-29T14:08:36Z</time>
      </trkpt>
      <trkpt lat="48.7145" lon="1.96845">
        <ele>136.6</ele>
        <time>2026-03-29T14:08:37Z</time>
      </trkpt>
      <trkpt lat="48.71451" lon="1.96838">
        <ele>135.2</ele>
        <time>2026-03-29T14:08:38Z</time>
      </trkpt>
      <trkpt lat="48.71453" lon="1.96832">
        <ele>135.2</ele>
        <time>2026-03-29T14:08:39Z</time>
      </trkpt>
      <trkpt lat="48.71455" lon="1.9683">
        <ele>135.2</ele>
        <time>2026-03-29T14:08:40Z</time>
      </trkpt>
      <trkpt lat="48.71458" lon="1.96827">
        <ele>134.4</ele>
        <time>2026-03-29T14:08:41Z</time>
      </trkpt>
      <trkpt lat="48.7146" lon="1.96823">
        <ele>134.6</ele>
        <time>2026-03-29T14:08:42Z</time>
      </trkpt>
      <trkpt lat="48.71462" lon="1.96821">
        <ele>134.6</ele>
        <time>2026-03-29T14:08:43Z</time>
      </trkpt>
      <trkpt lat="48.71464" lon="1.9682">
        <ele>134.6</ele>
        <time>2026-03-29T14:08:44Z</time>
      </trkpt>
      <trkpt lat="48.71466" lon="1.96821">
        <ele>134.2</ele>
        <time>2026-03-29T14:08:45Z</time>
      </trkpt>
      <trkpt lat="48.71466" lon="1.96821">
        <ele>134.2</ele>
        <time>2026-03-29T14:08:46Z</time>
      </trkpt>
      <trkpt lat="48.71466" lon="1.96821">
        <ele>134.2</ele>
        <time>2026-03-29T14:08:47Z</time>
      </trkpt>
      <trkpt lat="48.71477" lon="1.9682">
        <ele>134.2</ele>
        <time>2026-03-29T14:12:55Z</time>
      </trkpt>
      <trkpt lat="48.71479" lon="1.96822">
        <ele>134.2</ele>
        <time>2026-03-29T14:12:56Z</time>
      </trkpt>
      <trkpt lat="48.71482" lon="1.96824">
        <ele>133.6</ele>
        <time>2026-03-29T14:12:57Z</time>
      </trkpt>
      <trkpt lat="48.71486" lon="1.96826">
        <ele>133.4</ele>
        <time>2026-03-29T14:12:58Z</time>
      </trkpt>
      <trkpt lat="48.71489" lon="1.96829">
        <ele>133.4</ele>
        <time>2026-03-29T14:12:59Z</time>
      </trkpt>
      <trkpt lat="48.71493" lon="1.96831">
        <ele>133.4</ele>
        <time>2026-03-29T14:13:00Z</time>
      </trkpt>
      <trkpt lat="48.71498" lon="1.96834">
        <ele>132.8</ele>
        <time>2026-03-29T14:13:01Z</time>
      </trkpt>
      <trkpt lat="48.71502" lon="1.96836">
        <ele>132</ele>
        <time>2026-03-29T14:13:02Z</time>
      </trkpt>
      <trkpt lat="48.71507" lon="1.96839">
        <ele>132</ele>
        <time>2026-03-29T14:13:03Z</time>
      </trkpt>
      <trkpt lat="48.71511" lon="1.9684">
        <ele>132</ele>
        <time>2026-03-29T14:13:04Z</time>
      </trkpt>
      <trkpt lat="48.71515" lon="1.96842">
        <ele>131</ele>
        <time>2026-03-29T14:13:05Z</time>
      </trkpt>
      <trkpt lat="48.71519" lon="1.96845">
        <ele>130.8</ele>
        <time>2026-03-29T14:13:06Z</time>
      </trkpt>
      <trkpt lat="48.71524" lon="1.96847">
        <ele>130.8</ele>
        <time>2026-03-29T14:13:07Z</time>
      </trkpt>
      <trkpt lat="48.71529" lon="1.96849">
        <ele>130.8</ele>
        <time>2026-03-29T14:13:08Z</time>
      </trkpt>
      <trkpt lat="48.71533" lon="1.96853">
        <ele>130</ele>
        <time>2026-03-29T14:13:09Z</time>
      </trkpt>
      <trkpt lat="48.71539" lon="1.96856">
        <ele>130</ele>
        <time>2026-03-29T14:13:10Z</time>
      </trkpt>
      <trkpt lat="48.71545" lon="1.9686">
        <ele>130</ele>
        <time>2026-03-29T14:13:11Z</time>
      </trkpt>
      <trkpt lat="48.71552" lon="1.96863">
        <ele>130</ele>
        <time>2026-03-29T14:13:12Z</time>
      </trkpt>
      <trkpt lat="48.71559" lon="1.96867">
        <ele>129</ele>
        <time>2026-03-29T14:13:13Z</time>
      </trkpt>
      <trkpt lat="48.71566" lon="1.9687">
        <ele>126.2</ele>
        <time>2026-03-29T14:13:14Z</time>
      </trkpt>
      <trkpt lat="48.71571" lon="1.96873">
        <ele>126.2</ele>
        <time>2026-03-29T14:13:15Z</time>
      </trkpt>
      <trkpt lat="48.71578" lon="1.96876">
        <ele>126.2</ele>
        <time>2026-03-29T14:13:16Z</time>
      </trkpt>
      <trkpt lat="48.71584" lon="1.96877">
        <ele>125.2</ele>
        <time>2026-03-29T14:13:17Z</time>
      </trkpt>
      <trkpt lat="48.7159" lon="1.96874">
        <ele>124</ele>
        <time>2026-03-29T14:13:18Z</time>
      </trkpt>
      <trkpt lat="48.71596" lon="1.96869">
        <ele>124</ele>
        <time>2026-03-29T14:13:19Z</time>
      </trkpt>
      <trkpt lat="48.71602" lon="1.96864">
        <ele>124</ele>
        <time>2026-03-29T14:13:20Z</time>
      </trkpt>
      <trkpt lat="48.71607" lon="1.96858">
        <ele>123.2</ele>
        <time>2026-03-29T14:13:21Z</time>
      </trkpt>
      <trkpt lat="48.71611" lon="1.96855">
        <ele>122.6</ele>
        <time>2026-03-29T14:13:22Z</time>
      </trkpt>
      <trkpt lat="48.71617" lon="1.96855">
        <ele>122.6</ele>
        <time>2026-03-29T14:13:23Z</time>
      </trkpt>
      <trkpt lat="48.71623" lon="1.96856">
        <ele>122.6</ele>
        <time>2026-03-29T14:13:24Z</time>
      </trkpt>
      <trkpt lat="48.71627" lon="1.96857">
        <ele>122.6</ele>
        <time>2026-03-29T14:13:25Z</time>
      </trkpt>
      <trkpt lat="48.71632" lon="1.96857">
        <ele>123</ele>
        <time>2026-03-29T14:13:26Z</time>
      </trkpt>
      <trkpt lat="48.71637" lon="1.96858">
        <ele>123</ele>
        <time>2026-03-29T14:13:27Z</time>
      </trkpt>
      <trkpt lat="48.71641" lon="1.96858">
        <ele>123</ele>
        <time>2026-03-29T14:13:28Z</time>
      </trkpt>
      <trkpt lat="48.71646" lon="1.96859">
        <ele>123.2</ele>
        <time>2026-03-29T14:13:29Z</time>
      </trkpt>
      <trkpt lat="48.71651" lon="1.96859">
        <ele>123.2</ele>
        <time>2026-03-29T14:13:30Z</time>
      </trkpt>
      <trkpt lat="48.71655" lon="1.9686">
        <ele>123.2</ele>
        <time>2026-03-29T14:13:31Z</time>
      </trkpt>
      <trkpt lat="48.71659" lon="1.9686">
        <ele>123.2</ele>
        <time>2026-03-29T14:13:32Z</time>
      </trkpt>
      <trkpt lat="48.71663" lon="1.96861">
        <ele>123.2</ele>
        <time>2026-03-29T14:13:33Z</time>
      </trkpt>
      <trkpt lat="48.71668" lon="1.96862">
        <ele>123</ele>
        <time>2026-03-29T14:13:34Z</time>
      </trkpt>
      <trkpt lat="48.71671" lon="1.96863">
        <ele>123</ele>
        <time>2026-03-29T14:13:35Z</time>
      </trkpt>
      <trkpt lat="48.71674" lon="1.96866">
        <ele>123</ele>
        <time>2026-03-29T14:13:36Z</time>
      </trkpt>
      <trkpt lat="48.71678" lon="1.96867">
        <ele>123</ele>
        <time>2026-03-29T14:13:37Z</time>
      </trkpt>
      <trkpt lat="48.71683" lon="1.96868">
        <ele>122.8</ele>
        <time>2026-03-29T14:13:38Z</time>
      </trkpt>
      <trkpt lat="48.71687" lon="1.9687">
        <ele>122.8</ele>
        <time>2026-03-29T14:13:39Z</time>
      </trkpt>
      <trkpt lat="48.71691" lon="1.96873">
        <ele>122.8</ele>
        <time>2026-03-29T14:13:40Z</time>
      </trkpt>
      <trkpt lat="48.71696" lon="1.96876">
        <ele>122.8</ele>
        <time>2026-03-29T14:13:41Z</time>
      </trkpt>
      <trkpt lat="48.717" lon="1.96878">
        <ele>123</ele>
        <time>2026-03-29T14:13:42Z</time>
      </trkpt>
      <trkpt lat="48.71705" lon="1.96881">
        <ele>123</ele>
        <time>2026-03-29T14:13:43Z</time>
      </trkpt>
      <trkpt lat="48.71709" lon="1.96884">
        <ele>123</ele>
        <time>2026-03-29T14:13:44Z</time>
      </trkpt>
      <trkpt lat="48.71712" lon="1.96887">
        <ele>123</ele>
        <time>2026-03-29T14:13:45Z</time>
      </trkpt>
      <trkpt lat="48.71716" lon="1.9689">
        <ele>122.4</ele>
        <time>2026-03-29T14:13:46Z</time>
      </trkpt>
      <trkpt lat="48.7172" lon="1.96892">
        <ele>122.4</ele>
        <time>2026-03-29T14:13:47Z</time>
      </trkpt>
      <trkpt lat="48.71723" lon="1.96894">
        <ele>122.4</ele>
        <time>2026-03-29T14:13:48Z</time>
      </trkpt>
      <trkpt lat="48.71726" lon="1.96897">
        <ele>122.8</ele>
        <time>2026-03-29T14:13:49Z</time>
      </trkpt>
      <trkpt lat="48.71728" lon="1.96899">
        <ele>123</ele>
        <time>2026-03-29T14:13:50Z</time>
      </trkpt>
      <trkpt lat="48.71732" lon="1.96902">
        <ele>123</ele>
        <time>2026-03-29T14:13:51Z</time>
      </trkpt>
      <trkpt lat="48.71734" lon="1.96906">
        <ele>123</ele>
        <time>2026-03-29T14:13:52Z</time>
      </trkpt>
      <trkpt lat="48.71736" lon="1.9691">
        <ele>122</ele>
        <time>2026-03-29T14:13:53Z</time>
      </trkpt>
      <trkpt lat="48.71737" lon="1.96914">
        <ele>122.8</ele>
        <time>2026-03-29T14:13:54Z</time>
      </trkpt>
      <trkpt lat="48.71736" lon="1.96919">
        <ele>122.8</ele>
        <time>2026-03-29T14:13:55Z</time>
      </trkpt>
      <trkpt lat="48.71736" lon="1.96924">
        <ele>122.8</ele>
        <time>2026-03-29T14:13:56Z</time>
      </trkpt>
      <trkpt lat="48.71737" lon="1.96928">
        <ele>122.4</ele>
        <time>2026-03-29T14:13:57Z</time>
      </trkpt>
      <trkpt lat="48.71737" lon="1.96933">
        <ele>121.8</ele>
        <time>2026-03-29T14:13:58Z</time>
      </trkpt>
      <trkpt lat="48.71738" lon="1.96937">
        <ele>121.8</ele>
        <time>2026-03-29T14:13:59Z</time>
      </trkpt>
      <trkpt lat="48.71738" lon="1.96941">
        <ele>121.8</ele>
        <time>2026-03-29T14:14:00Z</time>
      </trkpt>
      <trkpt lat="48.7174" lon="1.96946">
        <ele>122.8</ele>
        <time>2026-03-29T14:14:01Z</time>
      </trkpt>
      <trkpt lat="48.7174" lon="1.96951">
        <ele>122.4</ele>
        <time>2026-03-29T14:14:02Z</time>
      </trkpt>
      <trkpt lat="48.7174" lon="1.96955">
        <ele>122.4</ele>
        <time>2026-03-29T14:14:03Z</time>
      </trkpt>
      <trkpt lat="48.7174" lon="1.9696">
        <ele>122.4</ele>
        <time>2026-03-29T14:14:04Z</time>
      </trkpt>
      <trkpt lat="48.7174" lon="1.96966">
        <ele>122.4</ele>
        <time>2026-03-29T14:14:05Z</time>
      </trkpt>
      <trkpt lat="48.7174" lon="1.96974">
        <ele>121.6</ele>
        <time>2026-03-29T14:14:06Z</time>
      </trkpt>
      <trkpt lat="48.71738" lon="1.96981">
        <ele>121.6</ele>
        <time>2026-03-29T14:14:07Z</time>
      </trkpt>
      <trkpt lat="48.71737" lon="1.96986">
        <ele>121.6</ele>
        <time>2026-03-29T14:14:08Z</time>
      </trkpt>
      <trkpt lat="48.71736" lon="1.9699">
        <ele>120.6</ele>
        <time>2026-03-29T14:14:09Z</time>
      </trkpt>
      <trkpt lat="48.71734" lon="1.96995">
        <ele>120</ele>
        <time>2026-03-29T14:14:10Z</time>
      </trkpt>
      <trkpt lat="48.71732" lon="1.96999">
        <ele>120</ele>
        <time>2026-03-29T14:14:11Z</time>
      </trkpt>
      <trkpt lat="48.71729" lon="1.97003">
        <ele>120</ele>
        <time>2026-03-29T14:14:12Z</time>
      </trkpt>
      <trkpt lat="48.71726" lon="1.97007">
        <ele>120</ele>
        <time>2026-03-29T14:14:13Z</time>
      </trkpt>
      <trkpt lat="48.71724" lon="1.9701">
        <ele>120</ele>
        <time>2026-03-29T14:14:14Z</time>
      </trkpt>
      <trkpt lat="48.71724" lon="1.97011">
        <ele>120</ele>
        <time>2026-03-29T14:14:15Z</time>
      </trkpt>
      <trkpt lat="48.71724" lon="1.97012">
        <ele>120</ele>
        <time>2026-03-29T14:14:16Z</time>
      </trkpt>
      <trkpt lat="48.71724" lon="1.97012">
        <ele>120</ele>
        <time>2026-03-29T14:14:17Z</time>
      </trkpt>
      <trkpt lat="48.71726" lon="1.97013">
        <ele>120.2</ele>
        <time>2026-03-29T14:14:18Z</time>
      </trkpt>
      <trkpt lat="48.71726" lon="1.97015">
        <ele>120.2</ele>
        <time>2026-03-29T14:14:19Z</time>
      </trkpt>
      <trkpt lat="48.71727" lon="1.97017">
        <ele>120.2</ele>
        <time>2026-03-29T14:14:20Z</time>
      </trkpt>
      <trkpt lat="48.71727" lon="1.97019">
        <ele>120.2</ele>
        <time>2026-03-29T14:14:21Z</time>
      </trkpt>
      <trkpt lat="48.71728" lon="1.9702">
        <ele>120.4</ele>
        <time>2026-03-29T14:14:22Z</time>
      </trkpt>
      <trkpt lat="48.71728" lon="1.9702">
        <ele>120.4</ele>
        <time>2026-03-29T14:14:23Z</time>
      </trkpt>
      <trkpt lat="48.71728" lon="1.9702">
        <ele>120.4</ele>
        <time>2026-03-29T14:14:24Z</time>
      </trkpt>
      <trkpt lat="48.71774" lon="1.9708">
        <ele>125.6</ele>
        <time>2026-03-29T14:15:36Z</time>
      </trkpt>
      <trkpt lat="48.71776" lon="1.97082">
        <ele>125.6</ele>
        <time>2026-03-29T14:15:37Z</time>
      </trkpt>
      <trkpt lat="48.71778" lon="1.97084">
        <ele>126.2</ele>
        <time>2026-03-29T14:15:38Z</time>
      </trkpt>
      <trkpt lat="48.71779" lon="1.97085">
        <ele>126.2</ele>
        <time>2026-03-29T14:15:39Z</time>
      </trkpt>
      <trkpt lat="48.7178" lon="1.97085">
        <ele>126.2</ele>
        <time>2026-03-29T14:15:40Z</time>
      </trkpt>
      <trkpt lat="48.71782" lon="1.97086">
        <ele>126.6</ele>
        <time>2026-03-29T14:15:41Z</time>
      </trkpt>
      <trkpt lat="48.71783" lon="1.97087">
        <ele>126.8</ele>
        <time>2026-03-29T14:15:42Z</time>
      </trkpt>
      <trkpt lat="48.71785" lon="1.97088">
        <ele>126.8</ele>
        <time>2026-03-29T14:15:43Z</time>
      </trkpt>
      <trkpt lat="48.71786" lon="1.97089">
        <ele>126.8</ele>
        <time>2026-03-29T14:15:44Z</time>
      </trkpt>
      <trkpt lat="48.71787" lon="1.9709">
        <ele>126.8</ele>
        <time>2026-03-29T14:15:45Z</time>
      </trkpt>
      <trkpt lat="48.71789" lon="1.97092">
        <ele>127</ele>
        <time>2026-03-29T14:15:46Z</time>
      </trkpt>
      <trkpt lat="48.7179" lon="1.97092">
        <ele>127</ele>
        <time>2026-03-29T14:15:47Z</time>
      </trkpt>
      <trkpt lat="48.71792" lon="1.97093">
        <ele>127</ele>
        <time>2026-03-29T14:15:48Z</time>
      </trkpt>
      <trkpt lat="48.71793" lon="1.97094">
        <ele>128</ele>
        <time>2026-03-29T14:15:49Z</time>
      </trkpt>
      <trkpt lat="48.71795" lon="1.97095">
        <ele>127.8</ele>
        <time>2026-03-29T14:15:50Z</time>
      </trkpt>
      <trkpt lat="48.71796" lon="1.97095">
        <ele>127.8</ele>
        <time>2026-03-29T14:15:51Z</time>
      </trkpt>
      <trkpt lat="48.71798" lon="1.97097">
        <ele>127.8</ele>
        <time>2026-03-29T14:15:52Z</time>
      </trkpt>
      <trkpt lat="48.71799" lon="1.97098">
        <ele>128.2</ele>
        <time>2026-03-29T14:15:53Z</time>
      </trkpt>
      <trkpt lat="48.718" lon="1.97098">
        <ele>128.4</ele>
        <time>2026-03-29T14:15:54Z</time>
      </trkpt>
      <trkpt lat="48.71802" lon="1.97099">
        <ele>128.4</ele>
        <time>2026-03-29T14:15:55Z</time>
      </trkpt>
      <trkpt lat="48.71804" lon="1.97099">
        <ele>128.4</ele>
        <time>2026-03-29T14:15:56Z</time>
      </trkpt>
      <trkpt lat="48.71805" lon="1.971">
        <ele>128.4</ele>
        <time>2026-03-29T14:15:57Z</time>
      </trkpt>
      <trkpt lat="48.71807" lon="1.971">
        <ele>129</ele>
        <time>2026-03-29T14:15:58Z</time>
      </trkpt>
      <trkpt lat="48.71808" lon="1.971">
        <ele>129</ele>
        <time>2026-03-29T14:15:59Z</time>
      </trkpt>
      <trkpt lat="48.7181" lon="1.971">
        <ele>129</ele>
        <time>2026-03-29T14:16:00Z</time>
      </trkpt>
      <trkpt lat="48.71812" lon="1.971">
        <ele>129</ele>
        <time>2026-03-29T14:16:01Z</time>
      </trkpt>
      <trkpt lat="48.71813" lon="1.97101">
        <ele>129.6</ele>
        <time>2026-03-29T14:16:02Z</time>
      </trkpt>
      <trkpt lat="48.71815" lon="1.97102">
        <ele>129.6</ele>
        <time>2026-03-29T14:16:03Z</time>
      </trkpt>
      <trkpt lat="48.71817" lon="1.97102">
        <ele>129.6</ele>
        <time>2026-03-29T14:16:04Z</time>
      </trkpt>
      <trkpt lat="48.71818" lon="1.97102">
        <ele>129.6</ele>
        <time>2026-03-29T14:16:05Z</time>
      </trkpt>
      <trkpt lat="48.71819" lon="1.97103">
        <ele>130.4</ele>
        <time>2026-03-29T14:16:06Z</time>
      </trkpt>
      <trkpt lat="48.71821" lon="1.97103">
        <ele>130.4</ele>
        <time>2026-03-29T14:16:07Z</time>
      </trkpt>
      <trkpt lat="48.71822" lon="1.97103">
        <ele>130.4</ele>
        <time>2026-03-29T14:16:08Z</time>
      </trkpt>
      <trkpt lat="48.71823" lon="1.97104">
        <ele>130.4</ele>
        <time>2026-03-29T14:16:09Z</time>
      </trkpt>
      <trkpt lat="48.71824" lon="1.97104">
        <ele>131.4</ele>
        <time>2026-03-29T14:16:10Z</time>
      </trkpt>
      <trkpt lat="48.71826" lon="1.97104">
        <ele>131.4</ele>
        <time>2026-03-29T14:16:11Z</time>
      </trkpt>
      <trkpt lat="48.71827" lon="1.97104">
        <ele>131.4</ele>
        <time>2026-03-29T14:16:12Z</time>
      </trkpt>
      <trkpt lat="48.71828" lon="1.97104">
        <ele>131.6</ele>
        <time>2026-03-29T14:16:13Z</time>
      </trkpt>
      <trkpt lat="48.71828" lon="1.97104">
        <ele>132.6</ele>
        <time>2026-03-29T14:16:14Z</time>
      </trkpt>
      <trkpt lat="48.71828" lon="1.97105">
        <ele>132.6</ele>
        <time>2026-03-29T14:16:15Z</time>
      </trkpt>
      <trkpt lat="48.71829" lon="1.97105">
        <ele>132.6</ele>
        <time>2026-03-29T14:16:16Z</time>
      </trkpt>
      <trkpt lat="48.71829" lon="1.97105">
        <ele>132.6</ele>
        <time>2026-03-29T14:16:17Z</time>
      </trkpt>
      <trkpt lat="48.71831" lon="1.97105">
        <ele>133.2</ele>
        <time>2026-03-29T14:16:18Z</time>
      </trkpt>
      <trkpt lat="48.71833" lon="1.97106">
        <ele>133.2</ele>
        <time>2026-03-29T14:16:19Z</time>
      </trkpt>
      <trkpt lat="48.71835" lon="1.97105">
        <ele>133.2</ele>
        <time>2026-03-29T14:16:20Z</time>
      </trkpt>
      <trkpt lat="48.71836" lon="1.97105">
        <ele>133.2</ele>
        <time>2026-03-29T14:16:21Z</time>
      </trkpt>
      <trkpt lat="48.71837" lon="1.97106">
        <ele>134.2</ele>
        <time>2026-03-29T14:16:22Z</time>
      </trkpt>
      <trkpt lat="48.71886" lon="1.97101">
        <ele>139.4</ele>
        <time>2026-03-29T14:19:01Z</time>
      </trkpt>
      <trkpt lat="48.71887" lon="1.97098">
        <ele>139.6</ele>
        <time>2026-03-29T14:19:02Z</time>
      </trkpt>
      <trkpt lat="48.71889" lon="1.97097">
        <ele>139.6</ele>
        <time>2026-03-29T14:19:03Z</time>
      </trkpt>
      <trkpt lat="48.7189" lon="1.97095">
        <ele>139.6</ele>
        <time>2026-03-29T14:19:04Z</time>
      </trkpt>
      <trkpt lat="48.71891" lon="1.97095">
        <ele>140.4</ele>
        <time>2026-03-29T14:19:05Z</time>
      </trkpt>
      <trkpt lat="48.71893" lon="1.97094">
        <ele>140</ele>
        <time>2026-03-29T14:19:06Z</time>
      </trkpt>
      <trkpt lat="48.71893" lon="1.97094">
        <ele>140</ele>
        <time>2026-03-29T14:19:07Z</time>
      </trkpt>
      <trkpt lat="48.71894" lon="1.97093">
        <ele>140</ele>
        <time>2026-03-29T14:19:08Z</time>
      </trkpt>
      <trkpt lat="48.71896" lon="1.97091">
        <ele>140.2</ele>
        <time>2026-03-29T14:19:09Z</time>
      </trkpt>
      <trkpt lat="48.71897" lon="1.97088">
        <ele>140</ele>
        <time>2026-03-29T14:19:10Z</time>
      </trkpt>
      <trkpt lat="48.71899" lon="1.97086">
        <ele>140</ele>
        <time>2026-03-29T14:19:11Z</time>
      </trkpt>
      <trkpt lat="48.71901" lon="1.97084">
        <ele>140</ele>
        <time>2026-03-29T14:19:12Z</time>
      </trkpt>
      <trkpt lat="48.71902" lon="1.97083">
        <ele>140</ele>
        <time>2026-03-29T14:19:13Z</time>
      </trkpt>
      <trkpt lat="48.71903" lon="1.97082">
        <ele>140.8</ele>
        <time>2026-03-29T14:19:14Z</time>
      </trkpt>
      <trkpt lat="48.71904" lon="1.97081">
        <ele>140.8</ele>
        <time>2026-03-29T14:19:15Z</time>
      </trkpt>
      <trkpt lat="48.71905" lon="1.9708">
        <ele>140.8</ele>
        <time>2026-03-29T14:19:16Z</time>
      </trkpt>
      <trkpt lat="48.71906" lon="1.97078">
        <ele>140.8</ele>
        <time>2026-03-29T14:19:17Z</time>
      </trkpt>
      <trkpt lat="48.71908" lon="1.97077">
        <ele>141</ele>
        <time>2026-03-29T14:19:18Z</time>
      </trkpt>
      <trkpt lat="48.71909" lon="1.97075">
        <ele>141</ele>
        <time>2026-03-29T14:19:19Z</time>
      </trkpt>
      <trkpt lat="48.7191" lon="1.97073">
        <ele>141</ele>
        <time>2026-03-29T14:19:20Z</time>
      </trkpt>
      <trkpt lat="48.71912" lon="1.97071">
        <ele>142</ele>
        <time>2026-03-29T14:19:21Z</time>
      </trkpt>
      <trkpt lat="48.71912" lon="1.9707">
        <ele>142</ele>
        <time>2026-03-29T14:19:22Z</time>
      </trkpt>
      <trkpt lat="48.71913" lon="1.97069">
        <ele>142</ele>
        <time>2026-03-29T14:19:23Z</time>
      </trkpt>
      <trkpt lat="48.71915" lon="1.97068">
        <ele>142</ele>
        <time>2026-03-29T14:19:24Z</time>
      </trkpt>
      <trkpt lat="48.71917" lon="1.97067">
        <ele>142.6</ele>
        <time>2026-03-29T14:19:25Z</time>
      </trkpt>
      <trkpt lat="48.71918" lon="1.97067">
        <ele>142.8</ele>
        <time>2026-03-29T14:19:26Z</time>
      </trkpt>
      <trkpt lat="48.7192" lon="1.97067">
        <ele>142.8</ele>
        <time>2026-03-29T14:19:27Z</time>
      </trkpt>
      <trkpt lat="48.71921" lon="1.97066">
        <ele>142.8</ele>
        <time>2026-03-29T14:19:28Z</time>
      </trkpt>
      <trkpt lat="48.71922" lon="1.97066">
        <ele>143.2</ele>
        <time>2026-03-29T14:19:29Z</time>
      </trkpt>
      <trkpt lat="48.71924" lon="1.97066">
        <ele>143.4</ele>
        <time>2026-03-29T14:19:30Z</time>
      </trkpt>
      <trkpt lat="48.71926" lon="1.97066">
        <ele>143.4</ele>
        <time>2026-03-29T14:19:31Z</time>
      </trkpt>
      <trkpt lat="48.71928" lon="1.97067">
        <ele>143.4</ele>
        <time>2026-03-29T14:19:32Z</time>
      </trkpt>
      <trkpt lat="48.7193" lon="1.97067">
        <ele>143.4</ele>
        <time>2026-03-29T14:19:33Z</time>
      </trkpt>
      <trkpt lat="48.71933" lon="1.97067">
        <ele>143.4</ele>
        <time>2026-03-29T14:19:34Z</time>
      </trkpt>
      <trkpt lat="48.71934" lon="1.97068">
        <ele>143.4</ele>
        <time>2026-03-29T14:19:35Z</time>
      </trkpt>
      <trkpt lat="48.71936" lon="1.97069">
        <ele>143.4</ele>
        <time>2026-03-29T14:19:36Z</time>
      </trkpt>
      <trkpt lat="48.71938" lon="1.9707">
        <ele>143.4</ele>
        <time>2026-03-29T14:19:37Z</time>
      </trkpt>
      <trkpt lat="48.7194" lon="1.97071">
        <ele>144.2</ele>
        <time>2026-03-29T14:19:38Z</time>
      </trkpt>
      <trkpt lat="48.71942" lon="1.97073">
        <ele>144.2</ele>
        <time>2026-03-29T14:19:39Z</time>
      </trkpt>
      <trkpt lat="48.71944" lon="1.97074">
        <ele>144.2</ele>
        <time>2026-03-29T14:19:40Z</time>
      </trkpt>
      <trkpt lat="48.71945" lon="1.97075">
        <ele>144.8</ele>
        <time>2026-03-29T14:19:41Z</time>
      </trkpt>
      <trkpt lat="48.71947" lon="1.97076">
        <ele>145.4</ele>
        <time>2026-03-29T14:19:42Z</time>
      </trkpt>
      <trkpt lat="48.71949" lon="1.97077">
        <ele>145.4</ele>
        <time>2026-03-29T14:19:43Z</time>
      </trkpt>
      <trkpt lat="48.7195" lon="1.97079">
        <ele>145.4</ele>
        <time>2026-03-29T14:19:44Z</time>
      </trkpt>
      <trkpt lat="48.71952" lon="1.9708">
        <ele>145.4</ele>
        <time>2026-03-29T14:19:45Z</time>
      </trkpt>
      <trkpt lat="48.71953" lon="1.97081">
        <ele>146.2</ele>
        <time>2026-03-29T14:19:46Z</time>
      </trkpt>
      <trkpt lat="48.71955" lon="1.97082">
        <ele>146.2</ele>
        <time>2026-03-29T14:19:47Z</time>
      </trkpt>
      <trkpt lat="48.71958" lon="1.97083">
        <ele>146.2</ele>
        <time>2026-03-29T14:19:48Z</time>
      </trkpt>
      <trkpt lat="48.71959" lon="1.97085">
        <ele>146.2</ele>
        <time>2026-03-29T14:19:49Z</time>
      </trkpt>
      <trkpt lat="48.7196" lon="1.97086">
        <ele>146.4</ele>
        <time>2026-03-29T14:19:50Z</time>
      </trkpt>
      <trkpt lat="48.71962" lon="1.97087">
        <ele>146.4</ele>
        <time>2026-03-29T14:19:51Z</time>
      </trkpt>
      <trkpt lat="48.71963" lon="1.97088">
        <ele>146.4</ele>
        <time>2026-03-29T14:19:52Z</time>
      </trkpt>
      <trkpt lat="48.71965" lon="1.9709">
        <ele>146.4</ele>
        <time>2026-03-29T14:19:53Z</time>
      </trkpt>
      <trkpt lat="48.71967" lon="1.97091">
        <ele>146.8</ele>
        <time>2026-03-29T14:19:54Z</time>
      </trkpt>
      <trkpt lat="48.71969" lon="1.97092">
        <ele>146.8</ele>
        <time>2026-03-29T14:19:55Z</time>
      </trkpt>
      <trkpt lat="48.71971" lon="1.97094">
        <ele>146.8</ele>
        <time>2026-03-29T14:19:56Z</time>
      </trkpt>
      <trkpt lat="48.71972" lon="1.97096">
        <ele>146.4</ele>
        <time>2026-03-29T14:19:57Z</time>
      </trkpt>
      <trkpt lat="48.71974" lon="1.97098">
        <ele>147.2</ele>
        <time>2026-03-29T14:19:58Z</time>
      </trkpt>
      <trkpt lat="48.71976" lon="1.97099">
        <ele>147.2</ele>
        <time>2026-03-29T14:19:59Z</time>
      </trkpt>
      <trkpt lat="48.71978" lon="1.971">
        <ele>147.2</ele>
        <time>2026-03-29T14:20:00Z</time>
      </trkpt>
      <trkpt lat="48.7198" lon="1.97101">
        <ele>147.4</ele>
        <time>2026-03-29T14:20:01Z</time>
      </trkpt>
      <trkpt lat="48.71981" lon="1.97103">
        <ele>147</ele>
        <time>2026-03-29T14:20:02Z</time>
      </trkpt>
      <trkpt lat="48.71984" lon="1.97104">
        <ele>147</ele>
        <time>2026-03-29T14:20:03Z</time>
      </trkpt>
      <trkpt lat="48.71985" lon="1.97107">
        <ele>147</ele>
        <time>2026-03-29T14:20:04Z</time>
      </trkpt>
      <trkpt lat="48.71986" lon="1.97108">
        <ele>147.4</ele>
        <time>2026-03-29T14:20:05Z</time>
      </trkpt>
      <trkpt lat="48.71988" lon="1.9711">
        <ele>147.4</ele>
        <time>2026-03-29T14:20:06Z</time>
      </trkpt>
      <trkpt lat="48.7199" lon="1.97112">
        <ele>147.4</ele>
        <time>2026-03-29T14:20:07Z</time>
      </trkpt>
      <trkpt lat="48.71992" lon="1.97114">
        <ele>147.4</ele>
        <time>2026-03-29T14:20:08Z</time>
      </trkpt>
      <trkpt lat="48.71993" lon="1.97116">
        <ele>147.4</ele>
        <time>2026-03-29T14:20:09Z</time>
      </trkpt>
      <trkpt lat="48.71994" lon="1.97118">
        <ele>147.6</ele>
        <time>2026-03-29T14:20:10Z</time>
      </trkpt>
      <trkpt lat="48.71995" lon="1.97119">
        <ele>147.6</ele>
        <time>2026-03-29T14:20:11Z</time>
      </trkpt>
      <trkpt lat="48.71997" lon="1.9712">
        <ele>147.6</ele>
        <time>2026-03-29T14:20:12Z</time>
      </trkpt>
      <trkpt lat="48.71999" lon="1.97121">
        <ele>147.6</ele>
        <time>2026-03-29T14:20:13Z</time>
      </trkpt>
      <trkpt lat="48.72001" lon="1.97122">
        <ele>147.6</ele>
        <time>2026-03-29T14:20:14Z</time>
      </trkpt>
      <trkpt lat="48.72003" lon="1.97123">
        <ele>147.6</ele>
        <time>2026-03-29T14:20:15Z</time>
      </trkpt>
      <trkpt lat="48.72005" lon="1.97125">
        <ele>147.6</ele>
        <time>2026-03-29T14:20:16Z</time>
      </trkpt>
      <trkpt lat="48.72007" lon="1.97126">
        <ele>147.6</ele>
        <time>2026-03-29T14:20:17Z</time>
      </trkpt>
      <trkpt lat="48.72009" lon="1.97127">
        <ele>147.8</ele>
        <time>2026-03-29T14:20:18Z</time>
      </trkpt>
      <trkpt lat="48.72011" lon="1.97128">
        <ele>147.8</ele>
        <time>2026-03-29T14:20:19Z</time>
      </trkpt>
      <trkpt lat="48.72012" lon="1.9713">
        <ele>147.8</ele>
        <time>2026-03-29T14:20:20Z</time>
      </trkpt>
      <trkpt lat="48.72014" lon="1.97132">
        <ele>147.4</ele>
        <time>2026-03-29T14:20:21Z</time>
      </trkpt>
      <trkpt lat="48.72015" lon="1.97133">
        <ele>147.8</ele>
        <time>2026-03-29T14:20:22Z</time>
      </trkpt>
      <trkpt lat="48.72016" lon="1.97134">
        <ele>147.8</ele>
        <time>2026-03-29T14:20:23Z</time>
      </trkpt>
      <trkpt lat="48.72016" lon="1.97135">
        <ele>147.8</ele>
        <time>2026-03-29T14:20:24Z</time>
      </trkpt>
      <trkpt lat="48.72017" lon="1.97136">
        <ele>147.8</ele>
        <time>2026-03-29T14:20:25Z</time>
      </trkpt>
      <trkpt lat="48.72018" lon="1.97138">
        <ele>148.6</ele>
        <time>2026-03-29T14:20:26Z</time>
      </trkpt>
      <trkpt lat="48.72017" lon="1.9714">
        <ele>148.6</ele>
        <time>2026-03-29T14:20:27Z</time>
      </trkpt>
      <trkpt lat="48.72017" lon="1.97141">
        <ele>148.6</ele>
        <time>2026-03-29T14:20:28Z</time>
      </trkpt>
      <trkpt lat="48.72017" lon="1.97143">
        <ele>149.6</ele>
        <time>2026-03-29T14:20:29Z</time>
      </trkpt>
      <trkpt lat="48.72018" lon="1.97143">
        <ele>149.8</ele>
        <time>2026-03-29T14:20:30Z</time>
      </trkpt>
      <trkpt lat="48.72019" lon="1.97145">
        <ele>149.8</ele>
        <time>2026-03-29T14:20:31Z</time>
      </trkpt>
      <trkpt lat="48.72021" lon="1.97147">
        <ele>149.8</ele>
        <time>2026-03-29T14:20:32Z</time>
      </trkpt>
      <trkpt lat="48.72022" lon="1.97147">
        <ele>148.8</ele>
        <time>2026-03-29T14:20:33Z</time>
      </trkpt>
      <trkpt lat="48.72025" lon="1.97145">
        <ele>148.2</ele>
        <time>2026-03-29T14:20:34Z</time>
      </trkpt>
      <trkpt lat="48.72028" lon="1.97143">
        <ele>148.2</ele>
        <time>2026-03-29T14:20:35Z</time>
      </trkpt>
      <trkpt lat="48.7203" lon="1.97141">
        <ele>148.2</ele>
        <time>2026-03-29T14:20:36Z</time>
      </trkpt>
      <trkpt lat="48.72033" lon="1.97143">
        <ele>147.4</ele>
        <time>2026-03-29T14:20:37Z</time>
      </trkpt>
      <trkpt lat="48.72036" lon="1.97144">
        <ele>147.6</ele>
        <time>2026-03-29T14:20:38Z</time>
      </trkpt>
      <trkpt lat="48.72039" lon="1.97147">
        <ele>147.6</ele>
        <time>2026-03-29T14:20:39Z</time>
      </trkpt>
      <trkpt lat="48.7204" lon="1.9715">
        <ele>147.6</ele>
        <time>2026-03-29T14:20:40Z</time>
      </trkpt>
      <trkpt lat="48.72043" lon="1.97151">
        <ele>147.6</ele>
        <time>2026-03-29T14:20:41Z</time>
      </trkpt>
      <trkpt lat="48.72045" lon="1.97153">
        <ele>148</ele>
        <time>2026-03-29T14:20:42Z</time>
      </trkpt>
      <trkpt lat="48.72047" lon="1.97155">
        <ele>148</ele>
        <time>2026-03-29T14:20:43Z</time>
      </trkpt>
      <trkpt lat="48.72049" lon="1.97157">
        <ele>148</ele>
        <time>2026-03-29T14:20:44Z</time>
      </trkpt>
      <trkpt lat="48.72051" lon="1.9716">
        <ele>148</ele>
        <time>2026-03-29T14:20:45Z</time>
      </trkpt>
      <trkpt lat="48.72053" lon="1.97163">
        <ele>148.2</ele>
        <time>2026-03-29T14:20:46Z</time>
      </trkpt>
      <trkpt lat="48.72054" lon="1.97165">
        <ele>148.2</ele>
        <time>2026-03-29T14:20:47Z</time>
      </trkpt>
      <trkpt lat="48.72054" lon="1.97167">
        <ele>148.2</ele>
        <time>2026-03-29T14:20:48Z</time>
      </trkpt>
      <trkpt lat="48.72055" lon="1.97169">
        <ele>148.6</ele>
        <time>2026-03-29T14:20:49Z</time>
      </trkpt>
      <trkpt lat="48.72055" lon="1.97172">
        <ele>148.6</ele>
        <time>2026-03-29T14:20:50Z</time>
      </trkpt>
      <trkpt lat="48.72056" lon="1.97175">
        <ele>148.6</ele>
        <time>2026-03-29T14:20:51Z</time>
      </trkpt>
      <trkpt lat="48.72058" lon="1.97176">
        <ele>148.6</ele>
        <time>2026-03-29T14:20:52Z</time>
      </trkpt>
      <trkpt lat="48.72059" lon="1.97176">
        <ele>148.6</ele>
        <time>2026-03-29T14:20:53Z</time>
      </trkpt>
      <trkpt lat="48.72062" lon="1.97174">
        <ele>148.2</ele>
        <time>2026-03-29T14:20:54Z</time>
      </trkpt>
      <trkpt lat="48.72064" lon="1.97174">
        <ele>148.2</ele>
        <time>2026-03-29T14:20:55Z</time>
      </trkpt>
      <trkpt lat="48.72068" lon="1.97176">
        <ele>148.2</ele>
        <time>2026-03-29T14:20:56Z</time>
      </trkpt>
      <trkpt lat="48.72071" lon="1.97178">
        <ele>148</ele>
        <time>2026-03-29T14:20:57Z</time>
      </trkpt>
      <trkpt lat="48.72074" lon="1.97181">
        <ele>148.4</ele>
        <time>2026-03-29T14:20:58Z</time>
      </trkpt>
      <trkpt lat="48.72076" lon="1.97184">
        <ele>148.4</ele>
        <time>2026-03-29T14:20:59Z</time>
      </trkpt>
      <trkpt lat="48.72078" lon="1.97188">
        <ele>148.4</ele>
        <time>2026-03-29T14:21:00Z</time>
      </trkpt>
      <trkpt lat="48.72078" lon="1.9719">
        <ele>148.4</ele>
        <time>2026-03-29T14:21:01Z</time>
      </trkpt>
      <trkpt lat="48.72081" lon="1.97194">
        <ele>148</ele>
        <time>2026-03-29T14:21:02Z</time>
      </trkpt>
      <trkpt lat="48.72083" lon="1.97196">
        <ele>148</ele>
        <time>2026-03-29T14:21:03Z</time>
      </trkpt>
      <trkpt lat="48.72086" lon="1.97199">
        <ele>148</ele>
        <time>2026-03-29T14:21:04Z</time>
      </trkpt>
      <trkpt lat="48.72089" lon="1.97201">
        <ele>148</ele>
        <time>2026-03-29T14:21:05Z</time>
      </trkpt>
      <trkpt lat="48.72091" lon="1.97203">
        <ele>148.4</ele>
        <time>2026-03-29T14:21:06Z</time>
      </trkpt>
      <trkpt lat="48.72093" lon="1.97205">
        <ele>148.4</ele>
        <time>2026-03-29T14:21:07Z</time>
      </trkpt>
      <trkpt lat="48.72096" lon="1.97208">
        <ele>148.4</ele>
        <time>2026-03-29T14:21:08Z</time>
      </trkpt>
      <trkpt lat="48.72099" lon="1.9721">
        <ele>148.4</ele>
        <time>2026-03-29T14:21:09Z</time>
      </trkpt>
      <trkpt lat="48.72102" lon="1.97214">
        <ele>148.4</ele>
        <time>2026-03-29T14:21:10Z</time>
      </trkpt>
      <trkpt lat="48.72105" lon="1.97218">
        <ele>148.4</ele>
        <time>2026-03-29T14:21:11Z</time>
      </trkpt>
      <trkpt lat="48.72108" lon="1.97222">
        <ele>148.4</ele>
        <time>2026-03-29T14:21:12Z</time>
      </trkpt>
      <trkpt lat="48.72111" lon="1.97225">
        <ele>148.4</ele>
        <time>2026-03-29T14:21:13Z</time>
      </trkpt>
      <trkpt lat="48.72112" lon="1.97227">
        <ele>148.6</ele>
        <time>2026-03-29T14:21:14Z</time>
      </trkpt>
      <trkpt lat="48.72114" lon="1.9723">
        <ele>148.6</ele>
        <time>2026-03-29T14:21:15Z</time>
      </trkpt>
      <trkpt lat="48.72116" lon="1.97234">
        <ele>148.6</ele>
        <time>2026-03-29T14:21:16Z</time>
      </trkpt>
      <trkpt lat="48.72118" lon="1.97237">
        <ele>149</ele>
        <time>2026-03-29T14:21:17Z</time>
      </trkpt>
      <trkpt lat="48.7212" lon="1.97241">
        <ele>148.6</ele>
        <time>2026-03-29T14:21:18Z</time>
      </trkpt>
      <trkpt lat="48.72122" lon="1.97244">
        <ele>148.6</ele>
        <time>2026-03-29T14:21:19Z</time>
      </trkpt>
      <trkpt lat="48.72124" lon="1.97247">
        <ele>148.6</ele>
        <time>2026-03-29T14:21:20Z</time>
      </trkpt>
      <trkpt lat="48.72127" lon="1.97251">
        <ele>149.2</ele>
        <time>2026-03-29T14:21:21Z</time>
      </trkpt>
      <trkpt lat="48.72129" lon="1.97255">
        <ele>149.8</ele>
        <time>2026-03-29T14:21:22Z</time>
      </trkpt>
      <trkpt lat="48.7213" lon="1.97259">
        <ele>149.8</ele>
        <time>2026-03-29T14:21:23Z</time>
      </trkpt>
      <trkpt lat="48.72132" lon="1.97263">
        <ele>149.8</ele>
        <time>2026-03-29T14:21:24Z</time>
      </trkpt>
      <trkpt lat="48.72134" lon="1.97267">
        <ele>149.8</ele>
        <time>2026-03-29T14:21:25Z</time>
      </trkpt>
      <trkpt lat="48.72136" lon="1.97271">
        <ele>150.2</ele>
        <time>2026-03-29T14:21:26Z</time>
      </trkpt>
      <trkpt lat="48.72137" lon="1.97274">
        <ele>150.2</ele>
        <time>2026-03-29T14:21:27Z</time>
      </trkpt>
      <trkpt lat="48.72139" lon="1.97277">
        <ele>150.2</ele>
        <time>2026-03-29T14:21:28Z</time>
      </trkpt>
      <trkpt lat="48.72141" lon="1.97281">
        <ele>149.2</ele>
        <time>2026-03-29T14:21:29Z</time>
      </trkpt>
      <trkpt lat="48.72144" lon="1.97286">
        <ele>149.4</ele>
        <time>2026-03-29T14:21:30Z</time>
      </trkpt>
      <trkpt lat="48.72146" lon="1.97291">
        <ele>149.4</ele>
        <time>2026-03-29T14:21:31Z</time>
      </trkpt>
      <trkpt lat="48.72148" lon="1.97296">
        <ele>149.4</ele>
        <time>2026-03-29T14:21:32Z</time>
      </trkpt>
      <trkpt lat="48.72152" lon="1.97302">
        <ele>148.4</ele>
        <time>2026-03-29T14:21:33Z</time>
      </trkpt>
      <trkpt lat="48.72154" lon="1.97307">
        <ele>145.8</ele>
        <time>2026-03-29T14:21:34Z</time>
      </trkpt>
      <trkpt lat="48.72157" lon="1.97311">
        <ele>145.8</ele>
        <time>2026-03-29T14:21:35Z</time>
      </trkpt>
      <trkpt lat="48.72159" lon="1.97314">
        <ele>145.8</ele>
        <time>2026-03-29T14:21:36Z</time>
      </trkpt>
      <trkpt lat="48.72161" lon="1.97317">
        <ele>144.8</ele>
        <time>2026-03-29T14:21:37Z</time>
      </trkpt>
      <trkpt lat="48.72163" lon="1.9732">
        <ele>144.2</ele>
        <time>2026-03-29T14:21:38Z</time>
      </trkpt>
      <trkpt lat="48.72164" lon="1.97321">
        <ele>144.2</ele>
        <time>2026-03-29T14:21:39Z</time>
      </trkpt>
      <trkpt lat="48.72164" lon="1.97321">
        <ele>144.2</ele>
        <time>2026-03-29T14:21:40Z</time>
      </trkpt>
      <trkpt lat="48.72166" lon="1.97324">
        <ele>144.6</ele>
        <time>2026-03-29T14:21:41Z</time>
      </trkpt>
      <trkpt lat="48.72168" lon="1.97327">
        <ele>144</ele>
        <time>2026-03-29T14:21:42Z</time>
      </trkpt>
      <trkpt lat="48.72169" lon="1.97328">
        <ele>144</ele>
        <time>2026-03-29T14:21:43Z</time>
      </trkpt>
      <trkpt lat="48.72204" lon="1.97323">
        <ele>151.2</ele>
        <time>2026-03-29T14:22:28Z</time>
      </trkpt>
      <trkpt lat="48.72206" lon="1.97323">
        <ele>152</ele>
        <time>2026-03-29T14:22:29Z</time>
      </trkpt>
      <trkpt lat="48.72208" lon="1.97322">
        <ele>152.2</ele>
        <time>2026-03-29T14:22:30Z</time>
      </trkpt>
      <trkpt lat="48.7221" lon="1.97322">
        <ele>152.2</ele>
        <time>2026-03-29T14:22:31Z</time>
      </trkpt>
      <trkpt lat="48.72212" lon="1.97322">
        <ele>152.2</ele>
        <time>2026-03-29T14:22:32Z</time>
      </trkpt>
      <trkpt lat="48.72213" lon="1.97322">
        <ele>152.4</ele>
        <time>2026-03-29T14:22:33Z</time>
      </trkpt>
      <trkpt lat="48.72214" lon="1.9732">
        <ele>152.2</ele>
        <time>2026-03-29T14:22:34Z</time>
      </trkpt>
      <trkpt lat="48.72214" lon="1.97319">
        <ele>152.2</ele>
        <time>2026-03-29T14:22:35Z</time>
      </trkpt>
      <trkpt lat="48.72215" lon="1.97316">
        <ele>152.2</ele>
        <time>2026-03-29T14:22:36Z</time>
      </trkpt>
      <trkpt lat="48.72216" lon="1.97314">
        <ele>152.6</ele>
        <time>2026-03-29T14:22:37Z</time>
      </trkpt>
      <trkpt lat="48.72217" lon="1.97312">
        <ele>152.8</ele>
        <time>2026-03-29T14:22:38Z</time>
      </trkpt>
      <trkpt lat="48.72218" lon="1.9731">
        <ele>152.8</ele>
        <time>2026-03-29T14:22:39Z</time>
      </trkpt>
      <trkpt lat="48.7222" lon="1.97308">
        <ele>152.8</ele>
        <time>2026-03-29T14:22:40Z</time>
      </trkpt>
      <trkpt lat="48.72222" lon="1.97306">
        <ele>153.8</ele>
        <time>2026-03-29T14:22:41Z</time>
      </trkpt>
      <trkpt lat="48.72223" lon="1.97306">
        <ele>153.4</ele>
        <time>2026-03-29T14:22:42Z</time>
      </trkpt>
      <trkpt lat="48.72224" lon="1.97305">
        <ele>153.4</ele>
        <time>2026-03-29T14:22:43Z</time>
      </trkpt>
      <trkpt lat="48.72225" lon="1.97305">
        <ele>153.4</ele>
        <time>2026-03-29T14:22:44Z</time>
      </trkpt>
      <trkpt lat="48.72226" lon="1.97305">
        <ele>154</ele>
        <time>2026-03-29T14:22:45Z</time>
      </trkpt>
      <trkpt lat="48.72227" lon="1.97304">
        <ele>154.4</ele>
        <time>2026-03-29T14:22:46Z</time>
      </trkpt>
      <trkpt lat="48.72228" lon="1.97304">
        <ele>154.4</ele>
        <time>2026-03-29T14:22:47Z</time>
      </trkpt>
      <trkpt lat="48.72269" lon="1.97282">
        <ele>158.4</ele>
        <time>2026-03-29T14:23:23Z</time>
      </trkpt>
      <trkpt lat="48.7227" lon="1.9728">
        <ele>158.4</ele>
        <time>2026-03-29T14:23:24Z</time>
      </trkpt>
      <trkpt lat="48.72272" lon="1.97279">
        <ele>159.2</ele>
        <time>2026-03-29T14:23:25Z</time>
      </trkpt>
      <trkpt lat="48.72273" lon="1.97278">
        <ele>159.8</ele>
        <time>2026-03-29T14:23:26Z</time>
      </trkpt>
      <trkpt lat="48.72274" lon="1.97276">
        <ele>159.8</ele>
        <time>2026-03-29T14:23:27Z</time>
      </trkpt>
      <trkpt lat="48.72275" lon="1.97275">
        <ele>159.8</ele>
        <time>2026-03-29T14:23:28Z</time>
      </trkpt>
      <trkpt lat="48.72276" lon="1.97273">
        <ele>160</ele>
        <time>2026-03-29T14:23:29Z</time>
      </trkpt>
      <trkpt lat="48.72278" lon="1.97272">
        <ele>160.2</ele>
        <time>2026-03-29T14:23:30Z</time>
      </trkpt>
      <trkpt lat="48.72279" lon="1.97271">
        <ele>160.2</ele>
        <time>2026-03-29T14:23:31Z</time>
      </trkpt>
      <trkpt lat="48.7228" lon="1.9727">
        <ele>160.2</ele>
        <time>2026-03-29T14:23:32Z</time>
      </trkpt>
      <trkpt lat="48.72281" lon="1.97268">
        <ele>160.6</ele>
        <time>2026-03-29T14:23:33Z</time>
      </trkpt>
      <trkpt lat="48.72283" lon="1.97267">
        <ele>161.2</ele>
        <time>2026-03-29T14:23:34Z</time>
      </trkpt>
      <trkpt lat="48.72284" lon="1.97266">
        <ele>161.2</ele>
        <time>2026-03-29T14:23:35Z</time>
      </trkpt>
      <trkpt lat="48.72285" lon="1.97265">
        <ele>161.2</ele>
        <time>2026-03-29T14:23:36Z</time>
      </trkpt>
      <trkpt lat="48.72287" lon="1.97263">
        <ele>161.6</ele>
        <time>2026-03-29T14:23:37Z</time>
      </trkpt>
      <trkpt lat="48.72288" lon="1.97262">
        <ele>162.2</ele>
        <time>2026-03-29T14:23:38Z</time>
      </trkpt>
      <trkpt lat="48.72289" lon="1.97261">
        <ele>162.2</ele>
        <time>2026-03-29T14:23:39Z</time>
      </trkpt>
      <trkpt lat="48.72291" lon="1.9726">
        <ele>162.2</ele>
        <time>2026-03-29T14:23:40Z</time>
      </trkpt>
      <trkpt lat="48.72293" lon="1.97259">
        <ele>162.2</ele>
        <time>2026-03-29T14:23:41Z</time>
      </trkpt>
      <trkpt lat="48.72293" lon="1.97258">
        <ele>162.6</ele>
        <time>2026-03-29T14:23:42Z</time>
      </trkpt>
      <trkpt lat="48.72295" lon="1.97257">
        <ele>162.6</ele>
        <time>2026-03-29T14:23:43Z</time>
      </trkpt>
      <trkpt lat="48.72296" lon="1.97255">
        <ele>162.6</ele>
        <time>2026-03-29T14:23:44Z</time>
      </trkpt>
      <trkpt lat="48.72297" lon="1.97254">
        <ele>162.6</ele>
        <time>2026-03-29T14:23:45Z</time>
      </trkpt>
      <trkpt lat="48.72298" lon="1.97253">
        <ele>163</ele>
        <time>2026-03-29T14:23:46Z</time>
      </trkpt>
      <trkpt lat="48.723" lon="1.97252">
        <ele>163</ele>
        <time>2026-03-29T14:23:47Z</time>
      </trkpt>
      <trkpt lat="48.72301" lon="1.97252">
        <ele>163</ele>
        <time>2026-03-29T14:23:48Z</time>
      </trkpt>
      <trkpt lat="48.72302" lon="1.97251">
        <ele>163.6</ele>
        <time>2026-03-29T14:23:49Z</time>
      </trkpt>
      <trkpt lat="48.72304" lon="1.97251">
        <ele>164</ele>
        <time>2026-03-29T14:23:50Z</time>
      </trkpt>
      <trkpt lat="48.72305" lon="1.9725">
        <ele>164</ele>
        <time>2026-03-29T14:23:51Z</time>
      </trkpt>
      <trkpt lat="48.72307" lon="1.97249">
        <ele>164</ele>
        <time>2026-03-29T14:23:52Z</time>
      </trkpt>
      <trkpt lat="48.72308" lon="1.97249">
        <ele>164.6</ele>
        <time>2026-03-29T14:23:53Z</time>
      </trkpt>
      <trkpt lat="48.7231" lon="1.97248">
        <ele>164.4</ele>
        <time>2026-03-29T14:23:54Z</time>
      </trkpt>
      <trkpt lat="48.72311" lon="1.97246">
        <ele>164.4</ele>
        <time>2026-03-29T14:23:55Z</time>
      </trkpt>
      <trkpt lat="48.72312" lon="1.97245">
        <ele>164.4</ele>
        <time>2026-03-29T14:23:56Z</time>
      </trkpt>
      <trkpt lat="48.72314" lon="1.97244">
        <ele>164.4</ele>
        <time>2026-03-29T14:23:57Z</time>
      </trkpt>
      <trkpt lat="48.72315" lon="1.97243">
        <ele>165.6</ele>
        <time>2026-03-29T14:23:58Z</time>
      </trkpt>
      <trkpt lat="48.72317" lon="1.97241">
        <ele>165.6</ele>
        <time>2026-03-29T14:23:59Z</time>
      </trkpt>
      <trkpt lat="48.72318" lon="1.97241">
        <ele>165.6</ele>
        <time>2026-03-29T14:24:00Z</time>
      </trkpt>
      <trkpt lat="48.72319" lon="1.9724">
        <ele>165.6</ele>
        <time>2026-03-29T14:24:01Z</time>
      </trkpt>
      <trkpt lat="48.72321" lon="1.9724">
        <ele>166.4</ele>
        <time>2026-03-29T14:24:02Z</time>
      </trkpt>
      <trkpt lat="48.72322" lon="1.97239">
        <ele>166.4</ele>
        <time>2026-03-29T14:24:03Z</time>
      </trkpt>
      <trkpt lat="48.72323" lon="1.97238">
        <ele>166.4</ele>
        <time>2026-03-29T14:24:04Z</time>
      </trkpt>
      <trkpt lat="48.72324" lon="1.97237">
        <ele>167</ele>
        <time>2026-03-29T14:24:05Z</time>
      </trkpt>
      <trkpt lat="48.72325" lon="1.97236">
        <ele>166.8</ele>
        <time>2026-03-29T14:24:06Z</time>
      </trkpt>
      <trkpt lat="48.72325" lon="1.97236">
        <ele>166.8</ele>
        <time>2026-03-29T14:24:07Z</time>
      </trkpt>
      <trkpt lat="48.72325" lon="1.97236">
        <ele>166.8</ele>
        <time>2026-03-29T14:24:08Z</time>
      </trkpt>
      <trkpt lat="48.72326" lon="1.97235">
        <ele>166.8</ele>
        <time>2026-03-29T14:24:09Z</time>
      </trkpt>
      <trkpt lat="48.72368" lon="1.97209">
        <ele>172.4</ele>
        <time>2026-03-29T14:24:48Z</time>
      </trkpt>
      <trkpt lat="48.72369" lon="1.97208">
        <ele>173</ele>
        <time>2026-03-29T14:24:49Z</time>
      </trkpt>
      <trkpt lat="48.7237" lon="1.97207">
        <ele>173.2</ele>
        <time>2026-03-29T14:24:50Z</time>
      </trkpt>
      <trkpt lat="48.72372" lon="1.97207">
        <ele>173.2</ele>
        <time>2026-03-29T14:24:51Z</time>
      </trkpt>
      <trkpt lat="48.72373" lon="1.97206">
        <ele>173.2</ele>
        <time>2026-03-29T14:24:52Z</time>
      </trkpt>
      <trkpt lat="48.72375" lon="1.97205">
        <ele>173.2</ele>
        <time>2026-03-29T14:24:53Z</time>
      </trkpt>
      <trkpt lat="48.72377" lon="1.97205">
        <ele>173.8</ele>
        <time>2026-03-29T14:24:54Z</time>
      </trkpt>
      <trkpt lat="48.72378" lon="1.97204">
        <ele>173.8</ele>
        <time>2026-03-29T14:24:55Z</time>
      </trkpt>
      <trkpt lat="48.7238" lon="1.97203">
        <ele>173.8</ele>
        <time>2026-03-29T14:24:56Z</time>
      </trkpt>
      <trkpt lat="48.72381" lon="1.97202">
        <ele>173.8</ele>
        <time>2026-03-29T14:24:57Z</time>
      </trkpt>
      <trkpt lat="48.72383" lon="1.97202">
        <ele>174.2</ele>
        <time>2026-03-29T14:24:58Z</time>
      </trkpt>
      <trkpt lat="48.72385" lon="1.97201">
        <ele>174.2</ele>
        <time>2026-03-29T14:24:59Z</time>
      </trkpt>
      <trkpt lat="48.72386" lon="1.972">
        <ele>174.2</ele>
        <time>2026-03-29T14:25:00Z</time>
      </trkpt>
      <trkpt lat="48.72388" lon="1.97199">
        <ele>175</ele>
        <time>2026-03-29T14:25:01Z</time>
      </trkpt>
      <trkpt lat="48.72389" lon="1.97198">
        <ele>174.8</ele>
        <time>2026-03-29T14:25:02Z</time>
      </trkpt>
      <trkpt lat="48.72391" lon="1.97197">
        <ele>174.8</ele>
        <time>2026-03-29T14:25:03Z</time>
      </trkpt>
      <trkpt lat="48.72393" lon="1.97196">
        <ele>174.8</ele>
        <time>2026-03-29T14:25:04Z</time>
      </trkpt>
      <trkpt lat="48.72394" lon="1.97196">
        <ele>175.8</ele>
        <time>2026-03-29T14:25:05Z</time>
      </trkpt>
      <trkpt lat="48.72396" lon="1.97195">
        <ele>176</ele>
        <time>2026-03-29T14:25:06Z</time>
      </trkpt>
      <trkpt lat="48.72397" lon="1.97194">
        <ele>176</ele>
        <time>2026-03-29T14:25:07Z</time>
      </trkpt>
      <trkpt lat="48.72399" lon="1.97194">
        <ele>176</ele>
        <time>2026-03-29T14:25:08Z</time>
      </trkpt>
      <trkpt lat="48.724" lon="1.97193">
        <ele>177</ele>
        <time>2026-03-29T14:25:09Z</time>
      </trkpt>
      <trkpt lat="48.72402" lon="1.97192">
        <ele>176.8</ele>
        <time>2026-03-29T14:25:10Z</time>
      </trkpt>
      <trkpt lat="48.72403" lon="1.97192">
        <ele>176.8</ele>
        <time>2026-03-29T14:25:11Z</time>
      </trkpt>
      <trkpt lat="48.72405" lon="1.97191">
        <ele>176.8</ele>
        <time>2026-03-29T14:25:12Z</time>
      </trkpt>
      <trkpt lat="48.72406" lon="1.9719">
        <ele>177.8</ele>
        <time>2026-03-29T14:25:13Z</time>
      </trkpt>
      <trkpt lat="48.72408" lon="1.97189">
        <ele>177.8</ele>
        <time>2026-03-29T14:25:14Z</time>
      </trkpt>
      <trkpt lat="48.7241" lon="1.97189">
        <ele>177.8</ele>
        <time>2026-03-29T14:25:15Z</time>
      </trkpt>
      <trkpt lat="48.72411" lon="1.97189">
        <ele>177.8</ele>
        <time>2026-03-29T14:25:16Z</time>
      </trkpt>
      <trkpt lat="48.72413" lon="1.97188">
        <ele>178.4</ele>
        <time>2026-03-29T14:25:17Z</time>
      </trkpt>
      <trkpt lat="48.72414" lon="1.97188">
        <ele>178.4</ele>
        <time>2026-03-29T14:25:18Z</time>
      </trkpt>
      <trkpt lat="48.72416" lon="1.97187">
        <ele>178.4</ele>
        <time>2026-03-29T14:25:19Z</time>
      </trkpt>
      <trkpt lat="48.72418" lon="1.97186">
        <ele>178.4</ele>
        <time>2026-03-29T14:25:20Z</time>
      </trkpt>
      <trkpt lat="48.7242" lon="1.97185">
        <ele>178.6</ele>
        <time>2026-03-29T14:25:21Z</time>
      </trkpt>
      <trkpt lat="48.72422" lon="1.97185">
        <ele>178.8</ele>
        <time>2026-03-29T14:25:22Z</time>
      </trkpt>
      <trkpt lat="48.72424" lon="1.97184">
        <ele>178.8</ele>
        <time>2026-03-29T14:25:23Z</time>
      </trkpt>
      <trkpt lat="48.72425" lon="1.97183">
        <ele>178.8</ele>
        <time>2026-03-29T14:25:24Z</time>
      </trkpt>
      <trkpt lat="48.72427" lon="1.97182">
        <ele>178.8</ele>
        <time>2026-03-29T14:25:25Z</time>
      </trkpt>
      <trkpt lat="48.72429" lon="1.97182">
        <ele>179.4</ele>
        <time>2026-03-29T14:25:26Z</time>
      </trkpt>
      <trkpt lat="48.72431" lon="1.97181">
        <ele>179.4</ele>
        <time>2026-03-29T14:25:27Z</time>
      </trkpt>
      <trkpt lat="48.72433" lon="1.97181">
        <ele>179.4</ele>
        <time>2026-03-29T14:25:28Z</time>
      </trkpt>
      <trkpt lat="48.72435" lon="1.9718">
        <ele>179.4</ele>
        <time>2026-03-29T14:25:29Z</time>
      </trkpt>
      <trkpt lat="48.72436" lon="1.97179">
        <ele>179.6</ele>
        <time>2026-03-29T14:25:30Z</time>
      </trkpt>
      <trkpt lat="48.72438" lon="1.97179">
        <ele>179.6</ele>
        <time>2026-03-29T14:25:31Z</time>
      </trkpt>
      <trkpt lat="48.7244" lon="1.97178">
        <ele>179.6</ele>
        <time>2026-03-29T14:25:32Z</time>
      </trkpt>
      <trkpt lat="48.72442" lon="1.97177">
        <ele>179.6</ele>
        <time>2026-03-29T14:25:33Z</time>
      </trkpt>
      <trkpt lat="48.72444" lon="1.97177">
        <ele>179.6</ele>
        <time>2026-03-29T14:25:34Z</time>
      </trkpt>
      <trkpt lat="48.72446" lon="1.97176">
        <ele>179.6</ele>
        <time>2026-03-29T14:25:35Z</time>
      </trkpt>
      <trkpt lat="48.72448" lon="1.97176">
        <ele>179.6</ele>
        <time>2026-03-29T14:25:36Z</time>
      </trkpt>
      <trkpt lat="48.72449" lon="1.97175">
        <ele>180.2</ele>
        <time>2026-03-29T14:25:37Z</time>
      </trkpt>
      <trkpt lat="48.72451" lon="1.97174">
        <ele>180.2</ele>
        <time>2026-03-29T14:25:38Z</time>
      </trkpt>
      <trkpt lat="48.72453" lon="1.97174">
        <ele>180.2</ele>
        <time>2026-03-29T14:25:39Z</time>
      </trkpt>
      <trkpt lat="48.72455" lon="1.97173">
        <ele>180.2</ele>
        <time>2026-03-29T14:25:40Z</time>
      </trkpt>
      <trkpt lat="48.72457" lon="1.97173">
        <ele>181.2</ele>
        <time>2026-03-29T14:25:41Z</time>
      </trkpt>
      <trkpt lat="48.72459" lon="1.97172">
        <ele>181</ele>
        <time>2026-03-29T14:25:42Z</time>
      </trkpt>
      <trkpt lat="48.72461" lon="1.97172">
        <ele>181</ele>
        <time>2026-03-29T14:25:43Z</time>
      </trkpt>
      <trkpt lat="48.72463" lon="1.97172">
        <ele>181</ele>
        <time>2026-03-29T14:25:44Z</time>
      </trkpt>
      <trkpt lat="48.72465" lon="1.97171">
        <ele>181</ele>
        <time>2026-03-29T14:25:45Z</time>
      </trkpt>
      <trkpt lat="48.72467" lon="1.97171">
        <ele>181.6</ele>
        <time>2026-03-29T14:25:46Z</time>
      </trkpt>
      <trkpt lat="48.72469" lon="1.9717">
        <ele>181.6</ele>
        <time>2026-03-29T14:25:47Z</time>
      </trkpt>
      <trkpt lat="48.72471" lon="1.9717">
        <ele>181.6</ele>
        <time>2026-03-29T14:25:48Z</time>
      </trkpt>
      <trkpt lat="48.72472" lon="1.97169">
        <ele>181.6</ele>
        <time>2026-03-29T14:25:49Z</time>
      </trkpt>
      <trkpt lat="48.72474" lon="1.97169">
        <ele>182.2</ele>
        <time>2026-03-29T14:25:50Z</time>
      </trkpt>
      <trkpt lat="48.72476" lon="1.97168">
        <ele>182.2</ele>
        <time>2026-03-29T14:25:51Z</time>
      </trkpt>
      <trkpt lat="48.72478" lon="1.97168">
        <ele>182.2</ele>
        <time>2026-03-29T14:25:52Z</time>
      </trkpt>
      <trkpt lat="48.7248" lon="1.97167">
        <ele>183</ele>
        <time>2026-03-29T14:25:53Z</time>
      </trkpt>
      <trkpt lat="48.72482" lon="1.97167">
        <ele>183</ele>
        <time>2026-03-29T14:25:54Z</time>
      </trkpt>
      <trkpt lat="48.72484" lon="1.97166">
        <ele>183</ele>
        <time>2026-03-29T14:25:55Z</time>
      </trkpt>
      <trkpt lat="48.72486" lon="1.97166">
        <ele>183</ele>
        <time>2026-03-29T14:25:56Z</time>
      </trkpt>
      <trkpt lat="48.72488" lon="1.97165">
        <ele>183.8</ele>
        <time>2026-03-29T14:25:57Z</time>
      </trkpt>
      <trkpt lat="48.7249" lon="1.97165">
        <ele>184</ele>
        <time>2026-03-29T14:25:58Z</time>
      </trkpt>
      <trkpt lat="48.72492" lon="1.97165">
        <ele>184</ele>
        <time>2026-03-29T14:25:59Z</time>
      </trkpt>
      <trkpt lat="48.72494" lon="1.97164">
        <ele>184</ele>
        <time>2026-03-29T14:26:00Z</time>
      </trkpt>
      <trkpt lat="48.72496" lon="1.97164">
        <ele>184</ele>
        <time>2026-03-29T14:26:01Z</time>
      </trkpt>
      <trkpt lat="48.72498" lon="1.97163">
        <ele>185.2</ele>
        <time>2026-03-29T14:26:02Z</time>
      </trkpt>
      <trkpt lat="48.725" lon="1.97163">
        <ele>185.2</ele>
        <time>2026-03-29T14:26:03Z</time>
      </trkpt>
      <trkpt lat="48.72502" lon="1.97163">
        <ele>185.2</ele>
        <time>2026-03-29T14:26:04Z</time>
      </trkpt>
      <trkpt lat="48.72504" lon="1.97162">
        <ele>185.6</ele>
        <time>2026-03-29T14:26:05Z</time>
      </trkpt>
      <trkpt lat="48.72506" lon="1.97162">
        <ele>185.8</ele>
        <time>2026-03-29T14:26:06Z</time>
      </trkpt>
      <trkpt lat="48.72508" lon="1.97162">
        <ele>185.8</ele>
        <time>2026-03-29T14:26:07Z</time>
      </trkpt>
      <trkpt lat="48.7251" lon="1.97162">
        <ele>185.8</ele>
        <time>2026-03-29T14:26:08Z</time>
      </trkpt>
      <trkpt lat="48.72512" lon="1.97163">
        <ele>186.6</ele>
        <time>2026-03-29T14:26:09Z</time>
      </trkpt>
      <trkpt lat="48.72514" lon="1.97164">
        <ele>187</ele>
        <time>2026-03-29T14:26:10Z</time>
      </trkpt>
      <trkpt lat="48.72516" lon="1.97165">
        <ele>187</ele>
        <time>2026-03-29T14:26:11Z</time>
      </trkpt>
      <trkpt lat="48.72519" lon="1.97166">
        <ele>187</ele>
        <time>2026-03-29T14:26:12Z</time>
      </trkpt>
      <trkpt lat="48.72521" lon="1.97167">
        <ele>186.6</ele>
        <time>2026-03-29T14:26:13Z</time>
      </trkpt>
      <trkpt lat="48.72523" lon="1.97169">
        <ele>186.6</ele>
        <time>2026-03-29T14:26:14Z</time>
      </trkpt>
      <trkpt lat="48.72526" lon="1.97171">
        <ele>186.6</ele>
        <time>2026-03-29T14:26:15Z</time>
      </trkpt>
      <trkpt lat="48.72528" lon="1.97174">
        <ele>186.6</ele>
        <time>2026-03-29T14:26:16Z</time>
      </trkpt>
      <trkpt lat="48.72531" lon="1.97176">
        <ele>186.6</ele>
        <time>2026-03-29T14:26:17Z</time>
      </trkpt>
      <trkpt lat="48.72533" lon="1.97178">
        <ele>186.6</ele>
        <time>2026-03-29T14:26:18Z</time>
      </trkpt>
      <trkpt lat="48.72536" lon="1.9718">
        <ele>186.6</ele>
        <time>2026-03-29T14:26:19Z</time>
      </trkpt>
      <trkpt lat="48.72538" lon="1.97183">
        <ele>186.6</ele>
        <time>2026-03-29T14:26:20Z</time>
      </trkpt>
      <trkpt lat="48.7254" lon="1.97185">
        <ele>186.6</ele>
        <time>2026-03-29T14:26:21Z</time>
      </trkpt>
      <trkpt lat="48.72543" lon="1.97188">
        <ele>187</ele>
        <time>2026-03-29T14:26:22Z</time>
      </trkpt>
      <trkpt lat="48.72545" lon="1.9719">
        <ele>187</ele>
        <time>2026-03-29T14:26:23Z</time>
      </trkpt>
      <trkpt lat="48.72548" lon="1.97193">
        <ele>187</ele>
        <time>2026-03-29T14:26:24Z</time>
      </trkpt>
      <trkpt lat="48.7255" lon="1.97196">
        <ele>187</ele>
        <time>2026-03-29T14:26:25Z</time>
      </trkpt>
      <trkpt lat="48.72553" lon="1.97199">
        <ele>187</ele>
        <time>2026-03-29T14:26:26Z</time>
      </trkpt>
      <trkpt lat="48.72556" lon="1.97201">
        <ele>187</ele>
        <time>2026-03-29T14:26:27Z</time>
      </trkpt>
      <trkpt lat="48.72559" lon="1.97204">
        <ele>187</ele>
        <time>2026-03-29T14:26:28Z</time>
      </trkpt>
      <trkpt lat="48.72562" lon="1.97207">
        <ele>186.8</ele>
        <time>2026-03-29T14:26:29Z</time>
      </trkpt>
      <trkpt lat="48.72565" lon="1.9721">
        <ele>187.8</ele>
        <time>2026-03-29T14:26:30Z</time>
      </trkpt>
      <trkpt lat="48.72568" lon="1.97213">
        <ele>187.8</ele>
        <time>2026-03-29T14:26:31Z</time>
      </trkpt>
      <trkpt lat="48.72571" lon="1.97216">
        <ele>187.8</ele>
        <time>2026-03-29T14:26:32Z</time>
      </trkpt>
      <trkpt lat="48.72574" lon="1.97219">
        <ele>187.6</ele>
        <time>2026-03-29T14:26:33Z</time>
      </trkpt>
      <trkpt lat="48.72577" lon="1.97223">
        <ele>187.8</ele>
        <time>2026-03-29T14:26:34Z</time>
      </trkpt>
      <trkpt lat="48.7258" lon="1.97226">
        <ele>187.8</ele>
        <time>2026-03-29T14:26:35Z</time>
      </trkpt>
      <trkpt lat="48.72584" lon="1.97229">
        <ele>187.8</ele>
        <time>2026-03-29T14:26:36Z</time>
      </trkpt>
      <trkpt lat="48.72587" lon="1.97233">
        <ele>187.6</ele>
        <time>2026-03-29T14:26:37Z</time>
      </trkpt>
      <trkpt lat="48.7259" lon="1.97236">
        <ele>187.8</ele>
        <time>2026-03-29T14:26:38Z</time>
      </trkpt>
      <trkpt lat="48.72593" lon="1.97239">
        <ele>187.8</ele>
        <time>2026-03-29T14:26:39Z</time>
      </trkpt>
      <trkpt lat="48.72596" lon="1.97243">
        <ele>187.8</ele>
        <time>2026-03-29T14:26:40Z</time>
      </trkpt>
      <trkpt lat="48.726" lon="1.97246">
        <ele>187.8</ele>
        <time>2026-03-29T14:26:41Z</time>
      </trkpt>
      <trkpt lat="48.72603" lon="1.9725">
        <ele>188</ele>
        <time>2026-03-29T14:26:42Z</time>
      </trkpt>
      <trkpt lat="48.72607" lon="1.97253">
        <ele>188</ele>
        <time>2026-03-29T14:26:43Z</time>
      </trkpt>
      <trkpt lat="48.7261" lon="1.97256">
        <ele>188</ele>
        <time>2026-03-29T14:26:44Z</time>
      </trkpt>
      <trkpt lat="48.72614" lon="1.9726">
        <ele>188</ele>
        <time>2026-03-29T14:26:45Z</time>
      </trkpt>
      <trkpt lat="48.72617" lon="1.97263">
        <ele>187.6</ele>
        <time>2026-03-29T14:26:46Z</time>
      </trkpt>
      <trkpt lat="48.72621" lon="1.97267">
        <ele>187.6</ele>
        <time>2026-03-29T14:26:47Z</time>
      </trkpt>
      <trkpt lat="48.72624" lon="1.9727">
        <ele>187.6</ele>
        <time>2026-03-29T14:26:48Z</time>
      </trkpt>
      <trkpt lat="48.72628" lon="1.97274">
        <ele>187.8</ele>
        <time>2026-03-29T14:26:49Z</time>
      </trkpt>
      <trkpt lat="48.72631" lon="1.97278">
        <ele>187.6</ele>
        <time>2026-03-29T14:26:50Z</time>
      </trkpt>
      <trkpt lat="48.72635" lon="1.97282">
        <ele>187.6</ele>
        <time>2026-03-29T14:26:51Z</time>
      </trkpt>
      <trkpt lat="48.72639" lon="1.97285">
        <ele>187.6</ele>
        <time>2026-03-29T14:26:52Z</time>
      </trkpt>
      <trkpt lat="48.72642" lon="1.97289">
        <ele>187.2</ele>
        <time>2026-03-29T14:26:53Z</time>
      </trkpt>
      <trkpt lat="48.72646" lon="1.97293">
        <ele>187.6</ele>
        <time>2026-03-29T14:26:54Z</time>
      </trkpt>
      <trkpt lat="48.7265" lon="1.97297">
        <ele>187.6</ele>
        <time>2026-03-29T14:26:55Z</time>
      </trkpt>
      <trkpt lat="48.72654" lon="1.97301">
        <ele>187.6</ele>
        <time>2026-03-29T14:26:56Z</time>
      </trkpt>
      <trkpt lat="48.72658" lon="1.97305">
        <ele>188.6</ele>
        <time>2026-03-29T14:26:57Z</time>
      </trkpt>
      <trkpt lat="48.72662" lon="1.9731">
        <ele>187.8</ele>
        <time>2026-03-29T14:26:58Z</time>
      </trkpt>
      <trkpt lat="48.72666" lon="1.97314">
        <ele>187.8</ele>
        <time>2026-03-29T14:26:59Z</time>
      </trkpt>
      <trkpt lat="48.7267" lon="1.97318">
        <ele>187.8</ele>
        <time>2026-03-29T14:27:00Z</time>
      </trkpt>
      <trkpt lat="48.72674" lon="1.97322">
        <ele>187.8</ele>
        <time>2026-03-29T14:27:01Z</time>
      </trkpt>
      <trkpt lat="48.72678" lon="1.97326">
        <ele>188.2</ele>
        <time>2026-03-29T14:27:02Z</time>
      </trkpt>
      <trkpt lat="48.72682" lon="1.9733">
        <ele>188.2</ele>
        <time>2026-03-29T14:27:03Z</time>
      </trkpt>
      <trkpt lat="48.72686" lon="1.97334">
        <ele>188.2</ele>
        <time>2026-03-29T14:27:04Z</time>
      </trkpt>
      <trkpt lat="48.7269" lon="1.97338">
        <ele>187.4</ele>
        <time>2026-03-29T14:27:05Z</time>
      </trkpt>
      <trkpt lat="48.72694" lon="1.97343">
        <ele>188.2</ele>
        <time>2026-03-29T14:27:06Z</time>
      </trkpt>
      <trkpt lat="48.72697" lon="1.97347">
        <ele>188.2</ele>
        <time>2026-03-29T14:27:07Z</time>
      </trkpt>
      <trkpt lat="48.72702" lon="1.97351">
        <ele>188.2</ele>
        <time>2026-03-29T14:27:08Z</time>
      </trkpt>
      <trkpt lat="48.72706" lon="1.97355">
        <ele>187.4</ele>
        <time>2026-03-29T14:27:09Z</time>
      </trkpt>
      <trkpt lat="48.7271" lon="1.97359">
        <ele>187.6</ele>
        <time>2026-03-29T14:27:10Z</time>
      </trkpt>
      <trkpt lat="48.72714" lon="1.97362">
        <ele>187.6</ele>
        <time>2026-03-29T14:27:11Z</time>
      </trkpt>
      <trkpt lat="48.72718" lon="1.97366">
        <ele>187.6</ele>
        <time>2026-03-29T14:27:12Z</time>
      </trkpt>
      <trkpt lat="48.72722" lon="1.97368">
        <ele>187.6</ele>
        <time>2026-03-29T14:27:13Z</time>
      </trkpt>
      <trkpt lat="48.72725" lon="1.97371">
        <ele>187.6</ele>
        <time>2026-03-29T14:27:14Z</time>
      </trkpt>
      <trkpt lat="48.72729" lon="1.97374">
        <ele>187.6</ele>
        <time>2026-03-29T14:27:15Z</time>
      </trkpt>
      <trkpt lat="48.72732" lon="1.97378">
        <ele>187.6</ele>
        <time>2026-03-29T14:27:16Z</time>
      </trkpt>
      <trkpt lat="48.72735" lon="1.97382">
        <ele>187.4</ele>
        <time>2026-03-29T14:27:17Z</time>
      </trkpt>
      <trkpt lat="48.72739" lon="1.97386">
        <ele>187.4</ele>
        <time>2026-03-29T14:27:18Z</time>
      </trkpt>
      <trkpt lat="48.72743" lon="1.9739">
        <ele>187.4</ele>
        <time>2026-03-29T14:27:19Z</time>
      </trkpt>
      <trkpt lat="48.72748" lon="1.97393">
        <ele>187.4</ele>
        <time>2026-03-29T14:27:20Z</time>
      </trkpt>
      <trkpt lat="48.72752" lon="1.97397">
        <ele>187.4</ele>
        <time>2026-03-29T14:27:21Z</time>
      </trkpt>
      <trkpt lat="48.72756" lon="1.974">
        <ele>187.4</ele>
        <time>2026-03-29T14:27:22Z</time>
      </trkpt>
      <trkpt lat="48.72761" lon="1.97404">
        <ele>187.4</ele>
        <time>2026-03-29T14:27:23Z</time>
      </trkpt>
      <trkpt lat="48.72765" lon="1.97409">
        <ele>187.4</ele>
        <time>2026-03-29T14:27:24Z</time>
      </trkpt>
      <trkpt lat="48.7277" lon="1.97413">
        <ele>187.4</ele>
        <time>2026-03-29T14:27:25Z</time>
      </trkpt>
      <trkpt lat="48.72775" lon="1.97416">
        <ele>187.6</ele>
        <time>2026-03-29T14:27:26Z</time>
      </trkpt>
      <trkpt lat="48.7278" lon="1.9742">
        <ele>187.6</ele>
        <time>2026-03-29T14:27:27Z</time>
      </trkpt>
      <trkpt lat="48.72786" lon="1.97423">
        <ele>187.6</ele>
        <time>2026-03-29T14:27:28Z</time>
      </trkpt>
      <trkpt lat="48.72791" lon="1.97426">
        <ele>186.8</ele>
        <time>2026-03-29T14:27:29Z</time>
      </trkpt>
      <trkpt lat="48.72796" lon="1.9743">
        <ele>187.6</ele>
        <time>2026-03-29T14:27:30Z</time>
      </trkpt>
      <trkpt lat="48.72802" lon="1.97433">
        <ele>187.6</ele>
        <time>2026-03-29T14:27:31Z</time>
      </trkpt>
      <trkpt lat="48.72808" lon="1.97434">
        <ele>187.6</ele>
        <time>2026-03-29T14:27:32Z</time>
      </trkpt>
      <trkpt lat="48.72814" lon="1.97435">
        <ele>187.6</ele>
        <time>2026-03-29T14:27:33Z</time>
      </trkpt>
      <trkpt lat="48.72821" lon="1.97436">
        <ele>187.4</ele>
        <time>2026-03-29T14:27:34Z</time>
      </trkpt>
      <trkpt lat="48.72827" lon="1.97437">
        <ele>187.4</ele>
        <time>2026-03-29T14:27:35Z</time>
      </trkpt>
      <trkpt lat="48.72834" lon="1.97437">
        <ele>187.4</ele>
        <time>2026-03-29T14:27:36Z</time>
      </trkpt>
      <trkpt lat="48.7284" lon="1.97438">
        <ele>186.4</ele>
        <time>2026-03-29T14:27:37Z</time>
      </trkpt>
      <trkpt lat="48.72846" lon="1.9744">
        <ele>185.8</ele>
        <time>2026-03-29T14:27:38Z</time>
      </trkpt>
      <trkpt lat="48.72852" lon="1.97442">
        <ele>185.8</ele>
        <time>2026-03-29T14:27:39Z</time>
      </trkpt>
      <trkpt lat="48.72859" lon="1.97444">
        <ele>185.8</ele>
        <time>2026-03-29T14:27:40Z</time>
      </trkpt>
      <trkpt lat="48.72864" lon="1.97446">
        <ele>185.8</ele>
        <time>2026-03-29T14:27:41Z</time>
      </trkpt>
      <trkpt lat="48.72869" lon="1.97447">
        <ele>185.2</ele>
        <time>2026-03-29T14:27:42Z</time>
      </trkpt>
      <trkpt lat="48.72875" lon="1.97448">
        <ele>185.2</ele>
        <time>2026-03-29T14:27:43Z</time>
      </trkpt>
      <trkpt lat="48.72881" lon="1.97447">
        <ele>185.2</ele>
        <time>2026-03-29T14:27:44Z</time>
      </trkpt>
      <trkpt lat="48.72886" lon="1.97447">
        <ele>185.2</ele>
        <time>2026-03-29T14:27:45Z</time>
      </trkpt>
      <trkpt lat="48.72891" lon="1.97447">
        <ele>185.6</ele>
        <time>2026-03-29T14:27:46Z</time>
      </trkpt>
      <trkpt lat="48.72897" lon="1.97445">
        <ele>185.6</ele>
        <time>2026-03-29T14:27:47Z</time>
      </trkpt>
      <trkpt lat="48.72903" lon="1.97444">
        <ele>185.6</ele>
        <time>2026-03-29T14:27:48Z</time>
      </trkpt>
      <trkpt lat="48.72908" lon="1.97441">
        <ele>185.6</ele>
        <time>2026-03-29T14:27:49Z</time>
      </trkpt>
      <trkpt lat="48.72913" lon="1.97436">
        <ele>185.6</ele>
        <time>2026-03-29T14:27:50Z</time>
      </trkpt>
      <trkpt lat="48.72918" lon="1.97431">
        <ele>185.6</ele>
        <time>2026-03-29T14:27:51Z</time>
      </trkpt>
      <trkpt lat="48.72923" lon="1.97425">
        <ele>185.6</ele>
        <time>2026-03-29T14:27:52Z</time>
      </trkpt>
      <trkpt lat="48.72928" lon="1.9742">
        <ele>185.6</ele>
        <time>2026-03-29T14:27:53Z</time>
      </trkpt>
      <trkpt lat="48.72932" lon="1.97414">
        <ele>185.8</ele>
        <time>2026-03-29T14:27:54Z</time>
      </trkpt>
      <trkpt lat="48.72937" lon="1.97408">
        <ele>185.8</ele>
        <time>2026-03-29T14:27:55Z</time>
      </trkpt>
      <trkpt lat="48.72942" lon="1.97402">
        <ele>185.8</ele>
        <time>2026-03-29T14:27:56Z</time>
      </trkpt>
      <trkpt lat="48.72946" lon="1.97395">
        <ele>185.8</ele>
        <time>2026-03-29T14:27:57Z</time>
      </trkpt>
      <trkpt lat="48.7295" lon="1.97388">
        <ele>185.6</ele>
        <time>2026-03-29T14:27:58Z</time>
      </trkpt>
      <trkpt lat="48.72953" lon="1.97381">
        <ele>185.6</ele>
        <time>2026-03-29T14:27:59Z</time>
      </trkpt>
      <trkpt lat="48.72957" lon="1.97374">
        <ele>185.6</ele>
        <time>2026-03-29T14:28:00Z</time>
      </trkpt>
      <trkpt lat="48.7296" lon="1.97367">
        <ele>185.6</ele>
        <time>2026-03-29T14:28:01Z</time>
      </trkpt>
      <trkpt lat="48.72964" lon="1.97359">
        <ele>186</ele>
        <time>2026-03-29T14:28:02Z</time>
      </trkpt>
      <trkpt lat="48.72967" lon="1.97352">
        <ele>186</ele>
        <time>2026-03-29T14:28:03Z</time>
      </trkpt>
      <trkpt lat="48.7297" lon="1.97344">
        <ele>186</ele>
        <time>2026-03-29T14:28:04Z</time>
      </trkpt>
      <trkpt lat="48.72973" lon="1.97337">
        <ele>186</ele>
        <time>2026-03-29T14:28:05Z</time>
      </trkpt>
      <trkpt lat="48.72977" lon="1.97329">
        <ele>186</ele>
        <time>2026-03-29T14:28:06Z</time>
      </trkpt>
      <trkpt lat="48.7298" lon="1.97322">
        <ele>186</ele>
        <time>2026-03-29T14:28:07Z</time>
      </trkpt>
      <trkpt lat="48.72984" lon="1.97316">
        <ele>186</ele>
        <time>2026-03-29T14:28:08Z</time>
      </trkpt>
      <trkpt lat="48.72988" lon="1.97309">
        <ele>186</ele>
        <time>2026-03-29T14:28:09Z</time>
      </trkpt>
      <trkpt lat="48.72992" lon="1.97303">
        <ele>185.4</ele>
        <time>2026-03-29T14:28:10Z</time>
      </trkpt>
      <trkpt lat="48.72996" lon="1.97298">
        <ele>185.4</ele>
        <time>2026-03-29T14:28:11Z</time>
      </trkpt>
      <trkpt lat="48.73" lon="1.97295">
        <ele>185.4</ele>
        <time>2026-03-29T14:28:12Z</time>
      </trkpt>
      <trkpt lat="48.73004" lon="1.97295">
        <ele>185.4</ele>
        <time>2026-03-29T14:28:13Z</time>
      </trkpt>
      <trkpt lat="48.73007" lon="1.97298">
        <ele>185.4</ele>
        <time>2026-03-29T14:28:14Z</time>
      </trkpt>
      <trkpt lat="48.73008" lon="1.97302">
        <ele>185.4</ele>
        <time>2026-03-29T14:28:15Z</time>
      </trkpt>
      <trkpt lat="48.73007" lon="1.97305">
        <ele>185.4</ele>
        <time>2026-03-29T14:28:16Z</time>
      </trkpt>
      <trkpt lat="48.73005" lon="1.97309">
        <ele>185.4</ele>
        <time>2026-03-29T14:28:17Z</time>
      </trkpt>
      <trkpt lat="48.73003" lon="1.97314">
        <ele>185</ele>
        <time>2026-03-29T14:28:18Z</time>
      </trkpt>
      <trkpt lat="48.73002" lon="1.9732">
        <ele>185</ele>
        <time>2026-03-29T14:28:19Z</time>
      </trkpt>
      <trkpt lat="48.73001" lon="1.97327">
        <ele>185</ele>
        <time>2026-03-29T14:28:20Z</time>
      </trkpt>
      <trkpt lat="48.73" lon="1.97334">
        <ele>185</ele>
        <time>2026-03-29T14:28:21Z</time>
      </trkpt>
      <trkpt lat="48.72998" lon="1.97342">
        <ele>185.2</ele>
        <time>2026-03-29T14:28:22Z</time>
      </trkpt>
      <trkpt lat="48.72997" lon="1.97349">
        <ele>185.2</ele>
        <time>2026-03-29T14:28:23Z</time>
      </trkpt>
      <trkpt lat="48.72995" lon="1.97358">
        <ele>185.2</ele>
        <time>2026-03-29T14:28:24Z</time>
      </trkpt>
      <trkpt lat="48.72994" lon="1.97366">
        <ele>185.2</ele>
        <time>2026-03-29T14:28:25Z</time>
      </trkpt>
      <trkpt lat="48.72992" lon="1.97375">
        <ele>185</ele>
        <time>2026-03-29T14:28:26Z</time>
      </trkpt>
      <trkpt lat="48.7299" lon="1.97384">
        <ele>185</ele>
        <time>2026-03-29T14:28:27Z</time>
      </trkpt>
      <trkpt lat="48.72989" lon="1.97393">
        <ele>185</ele>
        <time>2026-03-29T14:28:28Z</time>
      </trkpt>
      <trkpt lat="48.72987" lon="1.97403">
        <ele>185</ele>
        <time>2026-03-29T14:28:29Z</time>
      </trkpt>
      <trkpt lat="48.72987" lon="1.97412">
        <ele>185</ele>
        <time>2026-03-29T14:28:30Z</time>
      </trkpt>
      <trkpt lat="48.72986" lon="1.97422">
        <ele>185</ele>
        <time>2026-03-29T14:28:31Z</time>
      </trkpt>
      <trkpt lat="48.72985" lon="1.97433">
        <ele>185</ele>
        <time>2026-03-29T14:28:32Z</time>
      </trkpt>
      <trkpt lat="48.72985" lon="1.97443">
        <ele>184.6</ele>
        <time>2026-03-29T14:28:33Z</time>
      </trkpt>
      <trkpt lat="48.72984" lon="1.97454">
        <ele>184.4</ele>
        <time>2026-03-29T14:28:34Z</time>
      </trkpt>
      <trkpt lat="48.72984" lon="1.97464">
        <ele>184.4</ele>
        <time>2026-03-29T14:28:35Z</time>
      </trkpt>
      <trkpt lat="48.72983" lon="1.97475">
        <ele>184.4</ele>
        <time>2026-03-29T14:28:36Z</time>
      </trkpt>
      <trkpt lat="48.72983" lon="1.97486">
        <ele>184.4</ele>
        <time>2026-03-29T14:28:37Z</time>
      </trkpt>
      <trkpt lat="48.72983" lon="1.97497">
        <ele>184.4</ele>
        <time>2026-03-29T14:28:38Z</time>
      </trkpt>
      <trkpt lat="48.72983" lon="1.97508">
        <ele>184.4</ele>
        <time>2026-03-29T14:28:39Z</time>
      </trkpt>
      <trkpt lat="48.72984" lon="1.97519">
        <ele>184.4</ele>
        <time>2026-03-29T14:28:40Z</time>
      </trkpt>
      <trkpt lat="48.72984" lon="1.9753">
        <ele>184.4</ele>
        <time>2026-03-29T14:28:41Z</time>
      </trkpt>
      <trkpt lat="48.72985" lon="1.97541">
        <ele>183.8</ele>
        <time>2026-03-29T14:28:42Z</time>
      </trkpt>
      <trkpt lat="48.72985" lon="1.97552">
        <ele>183.8</ele>
        <time>2026-03-29T14:28:43Z</time>
      </trkpt>
      <trkpt lat="48.72985" lon="1.97563">
        <ele>183.8</ele>
        <time>2026-03-29T14:28:44Z</time>
      </trkpt>
      <trkpt lat="48.72986" lon="1.97574">
        <ele>183.8</ele>
        <time>2026-03-29T14:28:45Z</time>
      </trkpt>
      <trkpt lat="48.72986" lon="1.97585">
        <ele>183.6</ele>
        <time>2026-03-29T14:28:46Z</time>
      </trkpt>
      <trkpt lat="48.72985" lon="1.97596">
        <ele>183.6</ele>
        <time>2026-03-29T14:28:47Z</time>
      </trkpt>
      <trkpt lat="48.72984" lon="1.97607">
        <ele>183.6</ele>
        <time>2026-03-29T14:28:48Z</time>
      </trkpt>
      <trkpt lat="48.72982" lon="1.97616">
        <ele>184.4</ele>
        <time>2026-03-29T14:28:49Z</time>
      </trkpt>
      <trkpt lat="48.72979" lon="1.97626">
        <ele>183.8</ele>
        <time>2026-03-29T14:28:50Z</time>
      </trkpt>
      <trkpt lat="48.72975" lon="1.97634">
        <ele>183.8</ele>
        <time>2026-03-29T14:28:51Z</time>
      </trkpt>
      <trkpt lat="48.72971" lon="1.97643">
        <ele>183.8</ele>
        <time>2026-03-29T14:28:52Z</time>
      </trkpt>
      <trkpt lat="48.72967" lon="1.97651">
        <ele>184</ele>
        <time>2026-03-29T14:28:53Z</time>
      </trkpt>
      <trkpt lat="48.72963" lon="1.97659">
        <ele>185.4</ele>
        <time>2026-03-29T14:28:54Z</time>
      </trkpt>
      <trkpt lat="48.72959" lon="1.97668">
        <ele>185.4</ele>
        <time>2026-03-29T14:28:55Z</time>
      </trkpt>
      <trkpt lat="48.72955" lon="1.97676">
        <ele>185.4</ele>
        <time>2026-03-29T14:28:56Z</time>
      </trkpt>
      <trkpt lat="48.7295" lon="1.97683">
        <ele>184.4</ele>
        <time>2026-03-29T14:28:57Z</time>
      </trkpt>
      <trkpt lat="48.72946" lon="1.97691">
        <ele>184.6</ele>
        <time>2026-03-29T14:28:58Z</time>
      </trkpt>
      <trkpt lat="48.72942" lon="1.97699">
        <ele>184.6</ele>
        <time>2026-03-29T14:28:59Z</time>
      </trkpt>
      <trkpt lat="48.72938" lon="1.97707">
        <ele>184.6</ele>
        <time>2026-03-29T14:29:00Z</time>
      </trkpt>
      <trkpt lat="48.72934" lon="1.97715">
        <ele>184.6</ele>
        <time>2026-03-29T14:29:01Z</time>
      </trkpt>
      <trkpt lat="48.7293" lon="1.97722">
        <ele>184</ele>
        <time>2026-03-29T14:29:02Z</time>
      </trkpt>
      <trkpt lat="48.72926" lon="1.9773">
        <ele>184</ele>
        <time>2026-03-29T14:29:03Z</time>
      </trkpt>
      <trkpt lat="48.72922" lon="1.97738">
        <ele>184</ele>
        <time>2026-03-29T14:29:04Z</time>
      </trkpt>
      <trkpt lat="48.72918" lon="1.97746">
        <ele>184</ele>
        <time>2026-03-29T14:29:05Z</time>
      </trkpt>
      <trkpt lat="48.72913" lon="1.97754">
        <ele>183.4</ele>
        <time>2026-03-29T14:29:06Z</time>
      </trkpt>
      <trkpt lat="48.72909" lon="1.97762">
        <ele>183.4</ele>
        <time>2026-03-29T14:29:07Z</time>
      </trkpt>
      <trkpt lat="48.72904" lon="1.9777">
        <ele>183.4</ele>
        <time>2026-03-29T14:29:08Z</time>
      </trkpt>
      <trkpt lat="48.729" lon="1.97779">
        <ele>183.4</ele>
        <time>2026-03-29T14:29:09Z</time>
      </trkpt>
      <trkpt lat="48.72897" lon="1.97787">
        <ele>183.6</ele>
        <time>2026-03-29T14:29:10Z</time>
      </trkpt>
      <trkpt lat="48.72893" lon="1.97795">
        <ele>183.6</ele>
        <time>2026-03-29T14:29:11Z</time>
      </trkpt>
      <trkpt lat="48.72889" lon="1.97803">
        <ele>183.6</ele>
        <time>2026-03-29T14:29:12Z</time>
      </trkpt>
      <trkpt lat="48.72885" lon="1.97812">
        <ele>183.6</ele>
        <time>2026-03-29T14:29:13Z</time>
      </trkpt>
      <trkpt lat="48.72881" lon="1.9782">
        <ele>182.8</ele>
        <time>2026-03-29T14:29:14Z</time>
      </trkpt>
      <trkpt lat="48.72876" lon="1.97828">
        <ele>182.8</ele>
        <time>2026-03-29T14:29:15Z</time>
      </trkpt>
      <trkpt lat="48.72871" lon="1.97837">
        <ele>182.8</ele>
        <time>2026-03-29T14:29:16Z</time>
      </trkpt>
      <trkpt lat="48.72867" lon="1.97845">
        <ele>183.6</ele>
        <time>2026-03-29T14:29:17Z</time>
      </trkpt>
      <trkpt lat="48.72862" lon="1.97853">
        <ele>182.6</ele>
        <time>2026-03-29T14:29:18Z</time>
      </trkpt>
      <trkpt lat="48.72858" lon="1.97861">
        <ele>182.6</ele>
        <time>2026-03-29T14:29:19Z</time>
      </trkpt>
      <trkpt lat="48.72854" lon="1.9787">
        <ele>182.6</ele>
        <time>2026-03-29T14:29:20Z</time>
      </trkpt>
      <trkpt lat="48.7285" lon="1.97877">
        <ele>182.8</ele>
        <time>2026-03-29T14:29:21Z</time>
      </trkpt>
      <trkpt lat="48.72846" lon="1.97885">
        <ele>182.8</ele>
        <time>2026-03-29T14:29:22Z</time>
      </trkpt>
      <trkpt lat="48.72842" lon="1.97893">
        <ele>182.8</ele>
        <time>2026-03-29T14:29:23Z</time>
      </trkpt>
      <trkpt lat="48.72837" lon="1.97901">
        <ele>182.8</ele>
        <time>2026-03-29T14:29:24Z</time>
      </trkpt>
      <trkpt lat="48.72833" lon="1.97909">
        <ele>182.8</ele>
        <time>2026-03-29T14:29:25Z</time>
      </trkpt>
      <trkpt lat="48.72829" lon="1.97917">
        <ele>182.8</ele>
        <time>2026-03-29T14:29:26Z</time>
      </trkpt>
      <trkpt lat="48.72825" lon="1.97925">
        <ele>182.8</ele>
        <time>2026-03-29T14:29:27Z</time>
      </trkpt>
      <trkpt lat="48.72821" lon="1.97932">
        <ele>182.8</ele>
        <time>2026-03-29T14:29:28Z</time>
      </trkpt>
      <trkpt lat="48.72817" lon="1.9794">
        <ele>182.8</ele>
        <time>2026-03-29T14:29:29Z</time>
      </trkpt>
      <trkpt lat="48.72813" lon="1.97947">
        <ele>182.6</ele>
        <time>2026-03-29T14:29:30Z</time>
      </trkpt>
      <trkpt lat="48.72809" lon="1.97955">
        <ele>182.6</ele>
        <time>2026-03-29T14:29:31Z</time>
      </trkpt>
      <trkpt lat="48.72805" lon="1.97962">
        <ele>182.6</ele>
        <time>2026-03-29T14:29:32Z</time>
      </trkpt>
      <trkpt lat="48.72801" lon="1.97968">
        <ele>182.6</ele>
        <time>2026-03-29T14:29:33Z</time>
      </trkpt>
      <trkpt lat="48.72797" lon="1.97975">
        <ele>181.6</ele>
        <time>2026-03-29T14:29:34Z</time>
      </trkpt>
      <trkpt lat="48.72793" lon="1.97983">
        <ele>181.6</ele>
        <time>2026-03-29T14:29:35Z</time>
      </trkpt>
      <trkpt lat="48.72789" lon="1.9799">
        <ele>181.6</ele>
        <time>2026-03-29T14:29:36Z</time>
      </trkpt>
      <trkpt lat="48.72785" lon="1.97998">
        <ele>181.6</ele>
        <time>2026-03-29T14:29:37Z</time>
      </trkpt>
      <trkpt lat="48.7278" lon="1.98006">
        <ele>180.8</ele>
        <time>2026-03-29T14:29:38Z</time>
      </trkpt>
      <trkpt lat="48.72776" lon="1.98014">
        <ele>180.8</ele>
        <time>2026-03-29T14:29:39Z</time>
      </trkpt>
      <trkpt lat="48.72772" lon="1.98023">
        <ele>180.8</ele>
        <time>2026-03-29T14:29:40Z</time>
      </trkpt>
      <trkpt lat="48.72768" lon="1.98032">
        <ele>179.8</ele>
        <time>2026-03-29T14:29:41Z</time>
      </trkpt>
      <trkpt lat="48.72764" lon="1.98041">
        <ele>179.8</ele>
        <time>2026-03-29T14:29:42Z</time>
      </trkpt>
      <trkpt lat="48.72761" lon="1.98051">
        <ele>179.8</ele>
        <time>2026-03-29T14:29:43Z</time>
      </trkpt>
      <trkpt lat="48.72757" lon="1.98061">
        <ele>179.8</ele>
        <time>2026-03-29T14:29:44Z</time>
      </trkpt>
      <trkpt lat="48.72755" lon="1.98072">
        <ele>179.8</ele>
        <time>2026-03-29T14:29:45Z</time>
      </trkpt>
      <trkpt lat="48.72752" lon="1.98084">
        <ele>178.8</ele>
        <time>2026-03-29T14:29:46Z</time>
      </trkpt>
      <trkpt lat="48.7275" lon="1.98096">
        <ele>178.8</ele>
        <time>2026-03-29T14:29:47Z</time>
      </trkpt>
      <trkpt lat="48.72748" lon="1.98108">
        <ele>178.8</ele>
        <time>2026-03-29T14:29:48Z</time>
      </trkpt>
      <trkpt lat="48.72745" lon="1.98119">
        <ele>178.8</ele>
        <time>2026-03-29T14:29:49Z</time>
      </trkpt>
      <trkpt lat="48.72741" lon="1.9813">
        <ele>179.2</ele>
        <time>2026-03-29T14:29:50Z</time>
      </trkpt>
      <trkpt lat="48.72737" lon="1.98138">
        <ele>179.2</ele>
        <time>2026-03-29T14:29:51Z</time>
      </trkpt>
      <trkpt lat="48.72731" lon="1.98145">
        <ele>179.2</ele>
        <time>2026-03-29T14:29:52Z</time>
      </trkpt>
      <trkpt lat="48.72725" lon="1.98151">
        <ele>179.2</ele>
        <time>2026-03-29T14:29:53Z</time>
      </trkpt>
      <trkpt lat="48.7272" lon="1.98156">
        <ele>179.2</ele>
        <time>2026-03-29T14:29:54Z</time>
      </trkpt>
      <trkpt lat="48.72714" lon="1.98161">
        <ele>179.2</ele>
        <time>2026-03-29T14:29:55Z</time>
      </trkpt>
      <trkpt lat="48.72709" lon="1.98166">
        <ele>179.2</ele>
        <time>2026-03-29T14:29:56Z</time>
      </trkpt>
      <trkpt lat="48.72704" lon="1.9817">
        <ele>179.8</ele>
        <time>2026-03-29T14:29:57Z</time>
      </trkpt>
      <trkpt lat="48.72699" lon="1.98175">
        <ele>180.2</ele>
        <time>2026-03-29T14:29:58Z</time>
      </trkpt>
      <trkpt lat="48.72694" lon="1.98178">
        <ele>180.2</ele>
        <time>2026-03-29T14:29:59Z</time>
      </trkpt>
      <trkpt lat="48.72689" lon="1.98183">
        <ele>180.2</ele>
        <time>2026-03-29T14:30:00Z</time>
      </trkpt>
      <trkpt lat="48.72685" lon="1.98187">
        <ele>180.8</ele>
        <time>2026-03-29T14:30:01Z</time>
      </trkpt>
      <trkpt lat="48.72681" lon="1.9819">
        <ele>180.8</ele>
        <time>2026-03-29T14:30:02Z</time>
      </trkpt>
      <trkpt lat="48.72676" lon="1.98193">
        <ele>180.8</ele>
        <time>2026-03-29T14:30:03Z</time>
      </trkpt>
      <trkpt lat="48.72672" lon="1.98196">
        <ele>180.8</ele>
        <time>2026-03-29T14:30:04Z</time>
      </trkpt>
      <trkpt lat="48.72669" lon="1.982">
        <ele>181</ele>
        <time>2026-03-29T14:30:05Z</time>
      </trkpt>
      <trkpt lat="48.72665" lon="1.98203">
        <ele>181.6</ele>
        <time>2026-03-29T14:30:06Z</time>
      </trkpt>
      <trkpt lat="48.7266" lon="1.98206">
        <ele>181.6</ele>
        <time>2026-03-29T14:30:07Z</time>
      </trkpt>
      <trkpt lat="48.72656" lon="1.9821">
        <ele>181.6</ele>
        <time>2026-03-29T14:30:08Z</time>
      </trkpt>
      <trkpt lat="48.72652" lon="1.98213">
        <ele>182.4</ele>
        <time>2026-03-29T14:30:09Z</time>
      </trkpt>
      <trkpt lat="48.72648" lon="1.98216">
        <ele>182.8</ele>
        <time>2026-03-29T14:30:10Z</time>
      </trkpt>
      <trkpt lat="48.72644" lon="1.98218">
        <ele>182.8</ele>
        <time>2026-03-29T14:30:11Z</time>
      </trkpt>
      <trkpt lat="48.7264" lon="1.98221">
        <ele>182.8</ele>
        <time>2026-03-29T14:30:12Z</time>
      </trkpt>
      <trkpt lat="48.72635" lon="1.98224">
        <ele>182.8</ele>
        <time>2026-03-29T14:30:13Z</time>
      </trkpt>
      <trkpt lat="48.72631" lon="1.98226">
        <ele>183.2</ele>
        <time>2026-03-29T14:30:14Z</time>
      </trkpt>
      <trkpt lat="48.72627" lon="1.9823">
        <ele>183.2</ele>
        <time>2026-03-29T14:30:15Z</time>
      </trkpt>
      <trkpt lat="48.72623" lon="1.98233">
        <ele>183.2</ele>
        <time>2026-03-29T14:30:16Z</time>
      </trkpt>
      <trkpt lat="48.72619" lon="1.98235">
        <ele>183.6</ele>
        <time>2026-03-29T14:30:17Z</time>
      </trkpt>
      <trkpt lat="48.72615" lon="1.98238">
        <ele>183.8</ele>
        <time>2026-03-29T14:30:18Z</time>
      </trkpt>
      <trkpt lat="48.72612" lon="1.98241">
        <ele>183.8</ele>
        <time>2026-03-29T14:30:19Z</time>
      </trkpt>
      <trkpt lat="48.72608" lon="1.98243">
        <ele>183.8</ele>
        <time>2026-03-29T14:30:20Z</time>
      </trkpt>
      <trkpt lat="48.72604" lon="1.98246">
        <ele>184.8</ele>
        <time>2026-03-29T14:30:21Z</time>
      </trkpt>
      <trkpt lat="48.726" lon="1.9825">
        <ele>184.6</ele>
        <time>2026-03-29T14:30:22Z</time>
      </trkpt>
      <trkpt lat="48.72596" lon="1.98252">
        <ele>184.6</ele>
        <time>2026-03-29T14:30:23Z</time>
      </trkpt>
      <trkpt lat="48.72592" lon="1.98255">
        <ele>184.6</ele>
        <time>2026-03-29T14:30:24Z</time>
      </trkpt>
      <trkpt lat="48.72588" lon="1.98258">
        <ele>185.2</ele>
        <time>2026-03-29T14:30:25Z</time>
      </trkpt>
      <trkpt lat="48.72584" lon="1.98261">
        <ele>185.2</ele>
        <time>2026-03-29T14:30:26Z</time>
      </trkpt>
      <trkpt lat="48.7258" lon="1.98264">
        <ele>185.2</ele>
        <time>2026-03-29T14:30:27Z</time>
      </trkpt>
      <trkpt lat="48.72575" lon="1.98267">
        <ele>185.2</ele>
        <time>2026-03-29T14:30:28Z</time>
      </trkpt>
      <trkpt lat="48.72571" lon="1.9827">
        <ele>185.2</ele>
        <time>2026-03-29T14:30:29Z</time>
      </trkpt>
      <trkpt lat="48.72567" lon="1.98273">
        <ele>185.4</ele>
        <time>2026-03-29T14:30:30Z</time>
      </trkpt>
      <trkpt lat="48.72563" lon="1.98276">
        <ele>185.4</ele>
        <time>2026-03-29T14:30:31Z</time>
      </trkpt>
      <trkpt lat="48.72558" lon="1.98279">
        <ele>185.4</ele>
        <time>2026-03-29T14:30:32Z</time>
      </trkpt>
      <trkpt lat="48.72554" lon="1.98282">
        <ele>185.4</ele>
        <time>2026-03-29T14:30:33Z</time>
      </trkpt>
      <trkpt lat="48.7255" lon="1.98284">
        <ele>185</ele>
        <time>2026-03-29T14:30:34Z</time>
      </trkpt>
      <trkpt lat="48.72546" lon="1.98287">
        <ele>185</ele>
        <time>2026-03-29T14:30:35Z</time>
      </trkpt>
      <trkpt lat="48.72543" lon="1.9829">
        <ele>185</ele>
        <time>2026-03-29T14:30:36Z</time>
      </trkpt>
      <trkpt lat="48.72539" lon="1.98293">
        <ele>184.4</ele>
        <time>2026-03-29T14:30:37Z</time>
      </trkpt>
      <trkpt lat="48.72535" lon="1.98296">
        <ele>184.2</ele>
        <time>2026-03-29T14:30:38Z</time>
      </trkpt>
      <trkpt lat="48.72531" lon="1.98299">
        <ele>184.2</ele>
        <time>2026-03-29T14:30:39Z</time>
      </trkpt>
      <trkpt lat="48.72529" lon="1.98301">
        <ele>184.2</ele>
        <time>2026-03-29T14:30:40Z</time>
      </trkpt>
      <trkpt lat="48.72526" lon="1.98302">
        <ele>184.4</ele>
        <time>2026-03-29T14:30:41Z</time>
      </trkpt>
      <trkpt lat="48.72523" lon="1.98304">
        <ele>184.4</ele>
        <time>2026-03-29T14:30:42Z</time>
      </trkpt>
      <trkpt lat="48.7252" lon="1.98307">
        <ele>184.4</ele>
        <time>2026-03-29T14:30:43Z</time>
      </trkpt>
      <trkpt lat="48.72516" lon="1.98311">
        <ele>184.4</ele>
        <time>2026-03-29T14:30:44Z</time>
      </trkpt>
      <trkpt lat="48.72512" lon="1.98314">
        <ele>184.4</ele>
        <time>2026-03-29T14:30:45Z</time>
      </trkpt>
      <trkpt lat="48.72507" lon="1.98318">
        <ele>184.2</ele>
        <time>2026-03-29T14:30:46Z</time>
      </trkpt>
      <trkpt lat="48.72503" lon="1.98321">
        <ele>184.2</ele>
        <time>2026-03-29T14:30:47Z</time>
      </trkpt>
      <trkpt lat="48.72498" lon="1.98323">
        <ele>184.2</ele>
        <time>2026-03-29T14:30:48Z</time>
      </trkpt>
      <trkpt lat="48.72493" lon="1.98326">
        <ele>184.2</ele>
        <time>2026-03-29T14:30:49Z</time>
      </trkpt>
      <trkpt lat="48.72489" lon="1.98329">
        <ele>183.8</ele>
        <time>2026-03-29T14:30:50Z</time>
      </trkpt>
      <trkpt lat="48.72484" lon="1.98332">
        <ele>183.8</ele>
        <time>2026-03-29T14:30:51Z</time>
      </trkpt>
      <trkpt lat="48.72479" lon="1.98335">
        <ele>183.8</ele>
        <time>2026-03-29T14:30:52Z</time>
      </trkpt>
      <trkpt lat="48.72474" lon="1.98336">
        <ele>183.8</ele>
        <time>2026-03-29T14:30:53Z</time>
      </trkpt>
      <trkpt lat="48.7247" lon="1.98334">
        <ele>183.6</ele>
        <time>2026-03-29T14:30:54Z</time>
      </trkpt>
      <trkpt lat="48.72466" lon="1.98329">
        <ele>183.6</ele>
        <time>2026-03-29T14:30:55Z</time>
      </trkpt>
      <trkpt lat="48.72464" lon="1.98323">
        <ele>183.6</ele>
        <time>2026-03-29T14:30:56Z</time>
      </trkpt>
      <trkpt lat="48.72461" lon="1.98316">
        <ele>183.4</ele>
        <time>2026-03-29T14:30:57Z</time>
      </trkpt>
      <trkpt lat="48.72459" lon="1.98309">
        <ele>183.4</ele>
        <time>2026-03-29T14:30:58Z</time>
      </trkpt>
      <trkpt lat="48.72457" lon="1.98301">
        <ele>183.4</ele>
        <time>2026-03-29T14:30:59Z</time>
      </trkpt>
      <trkpt lat="48.72454" lon="1.98294">
        <ele>183.4</ele>
        <time>2026-03-29T14:31:00Z</time>
      </trkpt>
      <trkpt lat="48.72452" lon="1.98286">
        <ele>183.4</ele>
        <time>2026-03-29T14:31:01Z</time>
      </trkpt>
      <trkpt lat="48.7245" lon="1.98279">
        <ele>183.6</ele>
        <time>2026-03-29T14:31:02Z</time>
      </trkpt>
      <trkpt lat="48.72447" lon="1.98271">
        <ele>183.6</ele>
        <time>2026-03-29T14:31:03Z</time>
      </trkpt>
      <trkpt lat="48.72445" lon="1.98264">
        <ele>183.6</ele>
        <time>2026-03-29T14:31:04Z</time>
      </trkpt>
      <trkpt lat="48.72443" lon="1.98256">
        <ele>183.6</ele>
        <time>2026-03-29T14:31:05Z</time>
      </trkpt>
      <trkpt lat="48.7244" lon="1.9825">
        <ele>183.4</ele>
        <time>2026-03-29T14:31:06Z</time>
      </trkpt>
      <trkpt lat="48.72437" lon="1.98243">
        <ele>183.4</ele>
        <time>2026-03-29T14:31:07Z</time>
      </trkpt>
      <trkpt lat="48.72435" lon="1.98236">
        <ele>183.4</ele>
        <time>2026-03-29T14:31:08Z</time>
      </trkpt>
      <trkpt lat="48.72433" lon="1.9823">
        <ele>183.4</ele>
        <time>2026-03-29T14:31:09Z</time>
      </trkpt>
      <trkpt lat="48.72431" lon="1.98225">
        <ele>183.2</ele>
        <time>2026-03-29T14:31:10Z</time>
      </trkpt>
      <trkpt lat="48.7243" lon="1.98222">
        <ele>183.2</ele>
        <time>2026-03-29T14:31:11Z</time>
      </trkpt>
      <trkpt lat="48.72427" lon="1.9822">
        <ele>183.2</ele>
        <time>2026-03-29T14:31:12Z</time>
      </trkpt>
      <trkpt lat="48.72426" lon="1.98218">
        <ele>182.8</ele>
        <time>2026-03-29T14:31:13Z</time>
      </trkpt>
      <trkpt lat="48.72425" lon="1.98214">
        <ele>183.2</ele>
        <time>2026-03-29T14:31:14Z</time>
      </trkpt>
      <trkpt lat="48.72423" lon="1.98212">
        <ele>183.2</ele>
        <time>2026-03-29T14:31:15Z</time>
      </trkpt>
      <trkpt lat="48.72422" lon="1.9821">
        <ele>183.2</ele>
        <time>2026-03-29T14:31:16Z</time>
      </trkpt>
      <trkpt lat="48.7242" lon="1.98208">
        <ele>183.2</ele>
        <time>2026-03-29T14:31:17Z</time>
      </trkpt>
      <trkpt lat="48.72418" lon="1.98207">
        <ele>183.2</ele>
        <time>2026-03-29T14:31:18Z</time>
      </trkpt>
      <trkpt lat="48.72415" lon="1.98206">
        <ele>183.2</ele>
        <time>2026-03-29T14:31:19Z</time>
      </trkpt>
      <trkpt lat="48.72411" lon="1.98205">
        <ele>183.2</ele>
        <time>2026-03-29T14:31:20Z</time>
      </trkpt>
      <trkpt lat="48.72408" lon="1.98205">
        <ele>183.2</ele>
        <time>2026-03-29T14:31:21Z</time>
      </trkpt>
      <trkpt lat="48.72405" lon="1.98205">
        <ele>184.2</ele>
        <time>2026-03-29T14:31:22Z</time>
      </trkpt>
      <trkpt lat="48.72401" lon="1.98205">
        <ele>184.2</ele>
        <time>2026-03-29T14:31:23Z</time>
      </trkpt>
      <trkpt lat="48.72398" lon="1.98204">
        <ele>184.2</ele>
        <time>2026-03-29T14:31:24Z</time>
      </trkpt>
      <trkpt lat="48.72394" lon="1.98204">
        <ele>184.4</ele>
        <time>2026-03-29T14:31:25Z</time>
      </trkpt>
      <trkpt lat="48.7239" lon="1.98203">
        <ele>184.6</ele>
        <time>2026-03-29T14:31:26Z</time>
      </trkpt>
      <trkpt lat="48.72386" lon="1.98202">
        <ele>184.6</ele>
        <time>2026-03-29T14:31:27Z</time>
      </trkpt>
      <trkpt lat="48.72382" lon="1.98202">
        <ele>184.6</ele>
        <time>2026-03-29T14:31:28Z</time>
      </trkpt>
      <trkpt lat="48.72379" lon="1.98202">
        <ele>184.6</ele>
        <time>2026-03-29T14:31:29Z</time>
      </trkpt>
      <trkpt lat="48.72375" lon="1.98202">
        <ele>185.2</ele>
        <time>2026-03-29T14:31:30Z</time>
      </trkpt>
      <trkpt lat="48.72372" lon="1.98201">
        <ele>185.2</ele>
        <time>2026-03-29T14:31:31Z</time>
      </trkpt>
      <trkpt lat="48.72368" lon="1.98201">
        <ele>185.2</ele>
        <time>2026-03-29T14:31:32Z</time>
      </trkpt>
      <trkpt lat="48.72364" lon="1.98199">
        <ele>185.2</ele>
        <time>2026-03-29T14:31:33Z</time>
      </trkpt>
      <trkpt lat="48.7236" lon="1.98199">
        <ele>186</ele>
        <time>2026-03-29T14:31:34Z</time>
      </trkpt>
      <trkpt lat="48.72357" lon="1.98198">
        <ele>186</ele>
        <time>2026-03-29T14:31:35Z</time>
      </trkpt>
      <trkpt lat="48.72354" lon="1.98198">
        <ele>186</ele>
        <time>2026-03-29T14:31:36Z</time>
      </trkpt>
      <trkpt lat="48.7235" lon="1.98197">
        <ele>186</ele>
        <time>2026-03-29T14:31:37Z</time>
      </trkpt>
      <trkpt lat="48.72346" lon="1.98197">
        <ele>186.6</ele>
        <time>2026-03-29T14:31:38Z</time>
      </trkpt>
      <trkpt lat="48.72342" lon="1.98196">
        <ele>186.6</ele>
        <time>2026-03-29T14:31:39Z</time>
      </trkpt>
      <trkpt lat="48.72339" lon="1.98195">
        <ele>186.6</ele>
        <time>2026-03-29T14:31:40Z</time>
      </trkpt>
      <trkpt lat="48.72336" lon="1.98195">
        <ele>186.6</ele>
        <time>2026-03-29T14:31:41Z</time>
      </trkpt>
      <trkpt lat="48.72331" lon="1.98194">
        <ele>187</ele>
        <time>2026-03-29T14:31:42Z</time>
      </trkpt>
      <trkpt lat="48.72327" lon="1.98193">
        <ele>187</ele>
        <time>2026-03-29T14:31:43Z</time>
      </trkpt>
      <trkpt lat="48.72323" lon="1.98192">
        <ele>187</ele>
        <time>2026-03-29T14:31:44Z</time>
      </trkpt>
      <trkpt lat="48.7232" lon="1.98192">
        <ele>187</ele>
        <time>2026-03-29T14:31:45Z</time>
      </trkpt>
      <trkpt lat="48.72316" lon="1.98191">
        <ele>187.4</ele>
        <time>2026-03-29T14:31:46Z</time>
      </trkpt>
      <trkpt lat="48.72311" lon="1.9819">
        <ele>187.4</ele>
        <time>2026-03-29T14:31:47Z</time>
      </trkpt>
      <trkpt lat="48.72307" lon="1.9819">
        <ele>187.4</ele>
        <time>2026-03-29T14:31:48Z</time>
      </trkpt>
      <trkpt lat="48.72302" lon="1.98188">
        <ele>187.4</ele>
        <time>2026-03-29T14:31:49Z</time>
      </trkpt>
      <trkpt lat="48.72297" lon="1.98188">
        <ele>187.2</ele>
        <time>2026-03-29T14:31:50Z</time>
      </trkpt>
      <trkpt lat="48.72293" lon="1.98187">
        <ele>187.2</ele>
        <time>2026-03-29T14:31:51Z</time>
      </trkpt>
      <trkpt lat="48.72288" lon="1.98186">
        <ele>187.2</ele>
        <time>2026-03-29T14:31:52Z</time>
      </trkpt>
      <trkpt lat="48.72284" lon="1.98185">
        <ele>187.2</ele>
        <time>2026-03-29T14:31:53Z</time>
      </trkpt>
      <trkpt lat="48.72279" lon="1.98184">
        <ele>187.8</ele>
        <time>2026-03-29T14:31:54Z</time>
      </trkpt>
      <trkpt lat="48.72275" lon="1.98183">
        <ele>187.8</ele>
        <time>2026-03-29T14:31:55Z</time>
      </trkpt>
      <trkpt lat="48.72272" lon="1.98182">
        <ele>187.8</ele>
        <time>2026-03-29T14:31:56Z</time>
      </trkpt>
      <trkpt lat="48.72267" lon="1.98181">
        <ele>188.4</ele>
        <time>2026-03-29T14:31:57Z</time>
      </trkpt>
      <trkpt lat="48.72263" lon="1.9818">
        <ele>188.2</ele>
        <time>2026-03-29T14:31:58Z</time>
      </trkpt>
      <trkpt lat="48.72259" lon="1.98179">
        <ele>188.2</ele>
        <time>2026-03-29T14:31:59Z</time>
      </trkpt>
      <trkpt lat="48.72255" lon="1.98178">
        <ele>188.2</ele>
        <time>2026-03-29T14:32:00Z</time>
      </trkpt>
      <trkpt lat="48.72251" lon="1.98177">
        <ele>188.2</ele>
        <time>2026-03-29T14:32:01Z</time>
      </trkpt>
      <trkpt lat="48.72246" lon="1.98176">
        <ele>188.4</ele>
        <time>2026-03-29T14:32:02Z</time>
      </trkpt>
      <trkpt lat="48.72242" lon="1.98175">
        <ele>188.4</ele>
        <time>2026-03-29T14:32:03Z</time>
      </trkpt>
      <trkpt lat="48.72238" lon="1.98174">
        <ele>188.4</ele>
        <time>2026-03-29T14:32:04Z</time>
      </trkpt>
      <trkpt lat="48.72233" lon="1.98172">
        <ele>188.4</ele>
        <time>2026-03-29T14:32:05Z</time>
      </trkpt>
      <trkpt lat="48.72228" lon="1.9817">
        <ele>188.2</ele>
        <time>2026-03-29T14:32:06Z</time>
      </trkpt>
      <trkpt lat="48.72223" lon="1.98169">
        <ele>188.2</ele>
        <time>2026-03-29T14:32:07Z</time>
      </trkpt>
      <trkpt lat="48.72219" lon="1.98167">
        <ele>188.2</ele>
        <time>2026-03-29T14:32:08Z</time>
      </trkpt>
      <trkpt lat="48.72214" lon="1.98167">
        <ele>188.2</ele>
        <time>2026-03-29T14:32:09Z</time>
      </trkpt>
      <trkpt lat="48.72209" lon="1.98165">
        <ele>188.4</ele>
        <time>2026-03-29T14:32:10Z</time>
      </trkpt>
      <trkpt lat="48.72205" lon="1.98164">
        <ele>188.4</ele>
        <time>2026-03-29T14:32:11Z</time>
      </trkpt>
      <trkpt lat="48.722" lon="1.98162">
        <ele>188.4</ele>
        <time>2026-03-29T14:32:12Z</time>
      </trkpt>
      <trkpt lat="48.72196" lon="1.98161">
        <ele>188.4</ele>
        <time>2026-03-29T14:32:13Z</time>
      </trkpt>
      <trkpt lat="48.7219" lon="1.9816">
        <ele>188.4</ele>
        <time>2026-03-29T14:32:14Z</time>
      </trkpt>
      <trkpt lat="48.72185" lon="1.98159">
        <ele>188.4</ele>
        <time>2026-03-29T14:32:15Z</time>
      </trkpt>
      <trkpt lat="48.72181" lon="1.98159">
        <ele>188.4</ele>
        <time>2026-03-29T14:32:16Z</time>
      </trkpt>
      <trkpt lat="48.72176" lon="1.98157">
        <ele>188.6</ele>
        <time>2026-03-29T14:32:17Z</time>
      </trkpt>
      <trkpt lat="48.72171" lon="1.98155">
        <ele>188.8</ele>
        <time>2026-03-29T14:32:18Z</time>
      </trkpt>
      <trkpt lat="48.72166" lon="1.98154">
        <ele>188.8</ele>
        <time>2026-03-29T14:32:19Z</time>
      </trkpt>
      <trkpt lat="48.72161" lon="1.98153">
        <ele>188.8</ele>
        <time>2026-03-29T14:32:20Z</time>
      </trkpt>
      <trkpt lat="48.72156" lon="1.98151">
        <ele>188.8</ele>
        <time>2026-03-29T14:32:21Z</time>
      </trkpt>
      <trkpt lat="48.72152" lon="1.9815">
        <ele>188.6</ele>
        <time>2026-03-29T14:32:22Z</time>
      </trkpt>
      <trkpt lat="48.72148" lon="1.98149">
        <ele>188.6</ele>
        <time>2026-03-29T14:32:23Z</time>
      </trkpt>
      <trkpt lat="48.72143" lon="1.98148">
        <ele>188.6</ele>
        <time>2026-03-29T14:32:24Z</time>
      </trkpt>
      <trkpt lat="48.72138" lon="1.98147">
        <ele>188.6</ele>
        <time>2026-03-29T14:32:25Z</time>
      </trkpt>
      <trkpt lat="48.72133" lon="1.98145">
        <ele>188.4</ele>
        <time>2026-03-29T14:32:26Z</time>
      </trkpt>
      <trkpt lat="48.72129" lon="1.98143">
        <ele>188.4</ele>
        <time>2026-03-29T14:32:27Z</time>
      </trkpt>
      <trkpt lat="48.72125" lon="1.98141">
        <ele>188.4</ele>
        <time>2026-03-29T14:32:28Z</time>
      </trkpt>
      <trkpt lat="48.72119" lon="1.9814">
        <ele>188.8</ele>
        <time>2026-03-29T14:32:29Z</time>
      </trkpt>
      <trkpt lat="48.72114" lon="1.98138">
        <ele>189</ele>
        <time>2026-03-29T14:32:30Z</time>
      </trkpt>
      <trkpt lat="48.72109" lon="1.98136">
        <ele>189</ele>
        <time>2026-03-29T14:32:31Z</time>
      </trkpt>
      <trkpt lat="48.72105" lon="1.98136">
        <ele>189</ele>
        <time>2026-03-29T14:32:32Z</time>
      </trkpt>
      <trkpt lat="48.721" lon="1.98135">
        <ele>188.8</ele>
        <time>2026-03-29T14:32:33Z</time>
      </trkpt>
      <trkpt lat="48.72095" lon="1.98133">
        <ele>189</ele>
        <time>2026-03-29T14:32:34Z</time>
      </trkpt>
      <trkpt lat="48.7209" lon="1.98132">
        <ele>189</ele>
        <time>2026-03-29T14:32:35Z</time>
      </trkpt>
      <trkpt lat="48.72085" lon="1.98131">
        <ele>189</ele>
        <time>2026-03-29T14:32:36Z</time>
      </trkpt>
      <trkpt lat="48.72082" lon="1.98129">
        <ele>189</ele>
        <time>2026-03-29T14:32:37Z</time>
      </trkpt>
      <trkpt lat="48.72076" lon="1.98128">
        <ele>188.8</ele>
        <time>2026-03-29T14:32:38Z</time>
      </trkpt>
      <trkpt lat="48.72071" lon="1.98126">
        <ele>188.8</ele>
        <time>2026-03-29T14:32:39Z</time>
      </trkpt>
      <trkpt lat="48.72066" lon="1.98125">
        <ele>188.8</ele>
        <time>2026-03-29T14:32:40Z</time>
      </trkpt>
      <trkpt lat="48.72061" lon="1.98124">
        <ele>188.8</ele>
        <time>2026-03-29T14:32:41Z</time>
      </trkpt>
      <trkpt lat="48.72056" lon="1.98123">
        <ele>188.4</ele>
        <time>2026-03-29T14:32:42Z</time>
      </trkpt>
      <trkpt lat="48.72051" lon="1.98121">
        <ele>188.4</ele>
        <time>2026-03-29T14:32:43Z</time>
      </trkpt>
      <trkpt lat="48.72045" lon="1.9812">
        <ele>188.4</ele>
        <time>2026-03-29T14:32:44Z</time>
      </trkpt>
      <trkpt lat="48.7204" lon="1.98119">
        <ele>188.4</ele>
        <time>2026-03-29T14:32:45Z</time>
      </trkpt>
      <trkpt lat="48.72035" lon="1.98118">
        <ele>188.4</ele>
        <time>2026-03-29T14:32:46Z</time>
      </trkpt>
      <trkpt lat="48.7203" lon="1.98116">
        <ele>188.4</ele>
        <time>2026-03-29T14:32:47Z</time>
      </trkpt>
      <trkpt lat="48.72025" lon="1.98116">
        <ele>188.4</ele>
        <time>2026-03-29T14:32:48Z</time>
      </trkpt>
      <trkpt lat="48.72021" lon="1.98117">
        <ele>188.4</ele>
        <time>2026-03-29T14:32:49Z</time>
      </trkpt>
      <trkpt lat="48.72018" lon="1.98121">
        <ele>187.8</ele>
        <time>2026-03-29T14:32:50Z</time>
      </trkpt>
      <trkpt lat="48.72016" lon="1.98126">
        <ele>187.8</ele>
        <time>2026-03-29T14:32:51Z</time>
      </trkpt>
      <trkpt lat="48.72015" lon="1.98133">
        <ele>187.8</ele>
        <time>2026-03-29T14:32:52Z</time>
      </trkpt>
      <trkpt lat="48.72014" lon="1.9814">
        <ele>188.4</ele>
        <time>2026-03-29T14:32:53Z</time>
      </trkpt>
      <trkpt lat="48.72014" lon="1.98147">
        <ele>188.8</ele>
        <time>2026-03-29T14:32:54Z</time>
      </trkpt>
      <trkpt lat="48.72012" lon="1.98154">
        <ele>188.8</ele>
        <time>2026-03-29T14:32:55Z</time>
      </trkpt>
      <trkpt lat="48.7201" lon="1.98161">
        <ele>188.8</ele>
        <time>2026-03-29T14:32:56Z</time>
      </trkpt>
      <trkpt lat="48.72008" lon="1.98168">
        <ele>188.6</ele>
        <time>2026-03-29T14:32:57Z</time>
      </trkpt>
      <trkpt lat="48.72006" lon="1.98176">
        <ele>188.4</ele>
        <time>2026-03-29T14:32:58Z</time>
      </trkpt>
      <trkpt lat="48.72004" lon="1.98184">
        <ele>188.4</ele>
        <time>2026-03-29T14:32:59Z</time>
      </trkpt>
      <trkpt lat="48.72001" lon="1.98191">
        <ele>188.4</ele>
        <time>2026-03-29T14:33:00Z</time>
      </trkpt>
      <trkpt lat="48.71997" lon="1.98198">
        <ele>188.4</ele>
        <time>2026-03-29T14:33:01Z</time>
      </trkpt>
      <trkpt lat="48.71993" lon="1.98204">
        <ele>188.4</ele>
        <time>2026-03-29T14:33:02Z</time>
      </trkpt>
      <trkpt lat="48.71989" lon="1.9821">
        <ele>188.4</ele>
        <time>2026-03-29T14:33:03Z</time>
      </trkpt>
      <trkpt lat="48.71985" lon="1.98215">
        <ele>188.4</ele>
        <time>2026-03-29T14:33:04Z</time>
      </trkpt>
      <trkpt lat="48.71981" lon="1.9822">
        <ele>188</ele>
        <time>2026-03-29T14:33:05Z</time>
      </trkpt>
      <trkpt lat="48.71977" lon="1.98226">
        <ele>187.8</ele>
        <time>2026-03-29T14:33:06Z</time>
      </trkpt>
      <trkpt lat="48.71973" lon="1.98231">
        <ele>187.8</ele>
        <time>2026-03-29T14:33:07Z</time>
      </trkpt>
      <trkpt lat="48.71969" lon="1.98237">
        <ele>187.8</ele>
        <time>2026-03-29T14:33:08Z</time>
      </trkpt>
      <trkpt lat="48.71965" lon="1.98243">
        <ele>188.4</ele>
        <time>2026-03-29T14:33:09Z</time>
      </trkpt>
      <trkpt lat="48.71961" lon="1.98248">
        <ele>187.6</ele>
        <time>2026-03-29T14:33:10Z</time>
      </trkpt>
      <trkpt lat="48.71958" lon="1.98254">
        <ele>187.6</ele>
        <time>2026-03-29T14:33:11Z</time>
      </trkpt>
      <trkpt lat="48.71954" lon="1.9826">
        <ele>187.6</ele>
        <time>2026-03-29T14:33:12Z</time>
      </trkpt>
      <trkpt lat="48.71951" lon="1.98265">
        <ele>187.6</ele>
        <time>2026-03-29T14:33:13Z</time>
      </trkpt>
      <trkpt lat="48.71948" lon="1.9827">
        <ele>187.6</ele>
        <time>2026-03-29T14:33:14Z</time>
      </trkpt>
      <trkpt lat="48.71945" lon="1.98276">
        <ele>187.6</ele>
        <time>2026-03-29T14:33:15Z</time>
      </trkpt>
      <trkpt lat="48.71941" lon="1.98281">
        <ele>187.6</ele>
        <time>2026-03-29T14:33:16Z</time>
      </trkpt>
      <trkpt lat="48.71938" lon="1.98286">
        <ele>187.6</ele>
        <time>2026-03-29T14:33:17Z</time>
      </trkpt>
      <trkpt lat="48.71935" lon="1.98291">
        <ele>187.6</ele>
        <time>2026-03-29T14:33:18Z</time>
      </trkpt>
      <trkpt lat="48.71932" lon="1.98296">
        <ele>187.6</ele>
        <time>2026-03-29T14:33:19Z</time>
      </trkpt>
      <trkpt lat="48.71929" lon="1.98301">
        <ele>187.6</ele>
        <time>2026-03-29T14:33:20Z</time>
      </trkpt>
      <trkpt lat="48.71925" lon="1.98307">
        <ele>187</ele>
        <time>2026-03-29T14:33:21Z</time>
      </trkpt>
      <trkpt lat="48.71923" lon="1.98311">
        <ele>187.8</ele>
        <time>2026-03-29T14:33:22Z</time>
      </trkpt>
      <trkpt lat="48.7192" lon="1.98315">
        <ele>187.8</ele>
        <time>2026-03-29T14:33:23Z</time>
      </trkpt>
      <trkpt lat="48.71917" lon="1.9832">
        <ele>187.8</ele>
        <time>2026-03-29T14:33:24Z</time>
      </trkpt>
      <trkpt lat="48.71915" lon="1.98324">
        <ele>187.2</ele>
        <time>2026-03-29T14:33:25Z</time>
      </trkpt>
      <trkpt lat="48.71913" lon="1.98329">
        <ele>186.8</ele>
        <time>2026-03-29T14:33:26Z</time>
      </trkpt>
      <trkpt lat="48.71911" lon="1.98334">
        <ele>186.8</ele>
        <time>2026-03-29T14:33:27Z</time>
      </trkpt>
      <trkpt lat="48.71909" lon="1.98339">
        <ele>186.8</ele>
        <time>2026-03-29T14:33:28Z</time>
      </trkpt>
      <trkpt lat="48.71906" lon="1.98343">
        <ele>186.8</ele>
        <time>2026-03-29T14:33:29Z</time>
      </trkpt>
      <trkpt lat="48.71903" lon="1.98349">
        <ele>186.6</ele>
        <time>2026-03-29T14:33:30Z</time>
      </trkpt>
      <trkpt lat="48.71901" lon="1.98354">
        <ele>186.6</ele>
        <time>2026-03-29T14:33:31Z</time>
      </trkpt>
      <trkpt lat="48.71898" lon="1.9836">
        <ele>186.6</ele>
        <time>2026-03-29T14:33:32Z</time>
      </trkpt>
      <trkpt lat="48.71894" lon="1.98365">
        <ele>186.6</ele>
        <time>2026-03-29T14:33:33Z</time>
      </trkpt>
      <trkpt lat="48.71891" lon="1.98371">
        <ele>186.6</ele>
        <time>2026-03-29T14:33:34Z</time>
      </trkpt>
      <trkpt lat="48.71888" lon="1.98376">
        <ele>186.6</ele>
        <time>2026-03-29T14:33:35Z</time>
      </trkpt>
      <trkpt lat="48.71885" lon="1.98382">
        <ele>186.6</ele>
        <time>2026-03-29T14:33:36Z</time>
      </trkpt>
      <trkpt lat="48.71881" lon="1.98388">
        <ele>186.6</ele>
        <time>2026-03-29T14:33:37Z</time>
      </trkpt>
      <trkpt lat="48.71878" lon="1.98393">
        <ele>186.8</ele>
        <time>2026-03-29T14:33:38Z</time>
      </trkpt>
      <trkpt lat="48.71874" lon="1.98398">
        <ele>186.8</ele>
        <time>2026-03-29T14:33:39Z</time>
      </trkpt>
      <trkpt lat="48.71869" lon="1.98404">
        <ele>186.8</ele>
        <time>2026-03-29T14:33:40Z</time>
      </trkpt>
      <trkpt lat="48.71864" lon="1.98409">
        <ele>186.6</ele>
        <time>2026-03-29T14:33:41Z</time>
      </trkpt>
      <trkpt lat="48.71861" lon="1.98414">
        <ele>186.8</ele>
        <time>2026-03-29T14:33:42Z</time>
      </trkpt>
      <trkpt lat="48.71856" lon="1.9842">
        <ele>186.8</ele>
        <time>2026-03-29T14:33:43Z</time>
      </trkpt>
      <trkpt lat="48.71852" lon="1.98426">
        <ele>186.8</ele>
        <time>2026-03-29T14:33:44Z</time>
      </trkpt>
      <trkpt lat="48.71849" lon="1.98431">
        <ele>186.8</ele>
        <time>2026-03-29T14:33:45Z</time>
      </trkpt>
      <trkpt lat="48.71844" lon="1.98437">
        <ele>186.8</ele>
        <time>2026-03-29T14:33:46Z</time>
      </trkpt>
      <trkpt lat="48.71841" lon="1.98442">
        <ele>186.8</ele>
        <time>2026-03-29T14:33:47Z</time>
      </trkpt>
      <trkpt lat="48.71838" lon="1.98447">
        <ele>186.8</ele>
        <time>2026-03-29T14:33:48Z</time>
      </trkpt>
      <trkpt lat="48.71835" lon="1.98453">
        <ele>186.8</ele>
        <time>2026-03-29T14:33:49Z</time>
      </trkpt>
      <trkpt lat="48.71832" lon="1.98459">
        <ele>187</ele>
        <time>2026-03-29T14:33:50Z</time>
      </trkpt>
      <trkpt lat="48.71828" lon="1.98466">
        <ele>187</ele>
        <time>2026-03-29T14:33:51Z</time>
      </trkpt>
      <trkpt lat="48.71824" lon="1.98473">
        <ele>187</ele>
        <time>2026-03-29T14:33:52Z</time>
      </trkpt>
      <trkpt lat="48.71821" lon="1.9848">
        <ele>187</ele>
        <time>2026-03-29T14:33:53Z</time>
      </trkpt>
      <trkpt lat="48.71818" lon="1.98487">
        <ele>186.6</ele>
        <time>2026-03-29T14:33:54Z</time>
      </trkpt>
      <trkpt lat="48.71815" lon="1.98495">
        <ele>186.6</ele>
        <time>2026-03-29T14:33:55Z</time>
      </trkpt>
      <trkpt lat="48.71811" lon="1.98504">
        <ele>186.6</ele>
        <time>2026-03-29T14:33:56Z</time>
      </trkpt>
      <trkpt lat="48.71807" lon="1.98512">
        <ele>186.4</ele>
        <time>2026-03-29T14:33:57Z</time>
      </trkpt>
      <trkpt lat="48.71803" lon="1.98521">
        <ele>186.6</ele>
        <time>2026-03-29T14:33:58Z</time>
      </trkpt>
      <trkpt lat="48.71799" lon="1.9853">
        <ele>186.6</ele>
        <time>2026-03-29T14:33:59Z</time>
      </trkpt>
      <trkpt lat="48.71795" lon="1.98539">
        <ele>186.6</ele>
        <time>2026-03-29T14:34:00Z</time>
      </trkpt>
      <trkpt lat="48.71791" lon="1.98547">
        <ele>186.2</ele>
        <time>2026-03-29T14:34:01Z</time>
      </trkpt>
      <trkpt lat="48.71787" lon="1.98555">
        <ele>186</ele>
        <time>2026-03-29T14:34:02Z</time>
      </trkpt>
      <trkpt lat="48.71783" lon="1.98563">
        <ele>186</ele>
        <time>2026-03-29T14:34:03Z</time>
      </trkpt>
      <trkpt lat="48.71779" lon="1.9857">
        <ele>186</ele>
        <time>2026-03-29T14:34:04Z</time>
      </trkpt>
      <trkpt lat="48.71775" lon="1.98577">
        <ele>186</ele>
        <time>2026-03-29T14:34:05Z</time>
      </trkpt>
      <trkpt lat="48.71771" lon="1.98584">
        <ele>186.4</ele>
        <time>2026-03-29T14:34:06Z</time>
      </trkpt>
      <trkpt lat="48.71767" lon="1.98591">
        <ele>186.4</ele>
        <time>2026-03-29T14:34:07Z</time>
      </trkpt>
      <trkpt lat="48.71762" lon="1.98598">
        <ele>186.4</ele>
        <time>2026-03-29T14:34:08Z</time>
      </trkpt>
      <trkpt lat="48.71758" lon="1.98605">
        <ele>186.4</ele>
        <time>2026-03-29T14:34:09Z</time>
      </trkpt>
      <trkpt lat="48.71754" lon="1.98613">
        <ele>187</ele>
        <time>2026-03-29T14:34:10Z</time>
      </trkpt>
      <trkpt lat="48.71751" lon="1.9862">
        <ele>187</ele>
        <time>2026-03-29T14:34:11Z</time>
      </trkpt>
      <trkpt lat="48.71747" lon="1.98627">
        <ele>187</ele>
        <time>2026-03-29T14:34:12Z</time>
      </trkpt>
      <trkpt lat="48.71744" lon="1.98634">
        <ele>187</ele>
        <time>2026-03-29T14:34:13Z</time>
      </trkpt>
      <trkpt lat="48.7174" lon="1.9864">
        <ele>187.2</ele>
        <time>2026-03-29T14:34:14Z</time>
      </trkpt>
      <trkpt lat="48.71737" lon="1.98647">
        <ele>187.2</ele>
        <time>2026-03-29T14:34:15Z</time>
      </trkpt>
      <trkpt lat="48.71733" lon="1.98653">
        <ele>187.2</ele>
        <time>2026-03-29T14:34:16Z</time>
      </trkpt>
      <trkpt lat="48.7173" lon="1.98659">
        <ele>187.2</ele>
        <time>2026-03-29T14:34:17Z</time>
      </trkpt>
      <trkpt lat="48.71727" lon="1.98665">
        <ele>187.6</ele>
        <time>2026-03-29T14:34:18Z</time>
      </trkpt>
      <trkpt lat="48.71724" lon="1.98671">
        <ele>187.6</ele>
        <time>2026-03-29T14:34:19Z</time>
      </trkpt>
      <trkpt lat="48.71721" lon="1.98677">
        <ele>187.6</ele>
        <time>2026-03-29T14:34:20Z</time>
      </trkpt>
      <trkpt lat="48.71718" lon="1.98682">
        <ele>187.4</ele>
        <time>2026-03-29T14:34:21Z</time>
      </trkpt>
      <trkpt lat="48.71715" lon="1.98687">
        <ele>187.6</ele>
        <time>2026-03-29T14:34:22Z</time>
      </trkpt>
      <trkpt lat="48.71712" lon="1.98692">
        <ele>187.6</ele>
        <time>2026-03-29T14:34:23Z</time>
      </trkpt>
      <trkpt lat="48.71709" lon="1.98697">
        <ele>187.6</ele>
        <time>2026-03-29T14:34:24Z</time>
      </trkpt>
      <trkpt lat="48.71706" lon="1.98703">
        <ele>187.4</ele>
        <time>2026-03-29T14:34:25Z</time>
      </trkpt>
      <trkpt lat="48.71703" lon="1.98708">
        <ele>187.6</ele>
        <time>2026-03-29T14:34:26Z</time>
      </trkpt>
      <trkpt lat="48.717" lon="1.98714">
        <ele>187.6</ele>
        <time>2026-03-29T14:34:27Z</time>
      </trkpt>
      <trkpt lat="48.71697" lon="1.9872">
        <ele>187.6</ele>
        <time>2026-03-29T14:34:28Z</time>
      </trkpt>
      <trkpt lat="48.71693" lon="1.98726">
        <ele>187.6</ele>
        <time>2026-03-29T14:34:29Z</time>
      </trkpt>
      <trkpt lat="48.7169" lon="1.98733">
        <ele>187.4</ele>
        <time>2026-03-29T14:34:30Z</time>
      </trkpt>
      <trkpt lat="48.71687" lon="1.98739">
        <ele>187.4</ele>
        <time>2026-03-29T14:34:31Z</time>
      </trkpt>
      <trkpt lat="48.71683" lon="1.98746">
        <ele>187.4</ele>
        <time>2026-03-29T14:34:32Z</time>
      </trkpt>
      <trkpt lat="48.7168" lon="1.98752">
        <ele>187.4</ele>
        <time>2026-03-29T14:34:33Z</time>
      </trkpt>
      <trkpt lat="48.71676" lon="1.98757">
        <ele>187</ele>
        <time>2026-03-29T14:34:34Z</time>
      </trkpt>
      <trkpt lat="48.71672" lon="1.98762">
        <ele>187</ele>
        <time>2026-03-29T14:34:35Z</time>
      </trkpt>
      <trkpt lat="48.71669" lon="1.98766">
        <ele>187</ele>
        <time>2026-03-29T14:34:36Z</time>
      </trkpt>
      <trkpt lat="48.71668" lon="1.98771">
        <ele>187</ele>
        <time>2026-03-29T14:34:37Z</time>
      </trkpt>
      <trkpt lat="48.71666" lon="1.98776">
        <ele>187</ele>
        <time>2026-03-29T14:34:38Z</time>
      </trkpt>
      <trkpt lat="48.71663" lon="1.9878">
        <ele>187</ele>
        <time>2026-03-29T14:34:39Z</time>
      </trkpt>
      <trkpt lat="48.7166" lon="1.98784">
        <ele>187</ele>
        <time>2026-03-29T14:34:40Z</time>
      </trkpt>
      <trkpt lat="48.71657" lon="1.98788">
        <ele>187</ele>
        <time>2026-03-29T14:34:41Z</time>
      </trkpt>
      <trkpt lat="48.71654" lon="1.98793">
        <ele>187.8</ele>
        <time>2026-03-29T14:34:42Z</time>
      </trkpt>
      <trkpt lat="48.71651" lon="1.98798">
        <ele>187.8</ele>
        <time>2026-03-29T14:34:43Z</time>
      </trkpt>
      <trkpt lat="48.71649" lon="1.98804">
        <ele>187.8</ele>
        <time>2026-03-29T14:34:44Z</time>
      </trkpt>
      <trkpt lat="48.71646" lon="1.9881">
        <ele>188.4</ele>
        <time>2026-03-29T14:34:45Z</time>
      </trkpt>
      <trkpt lat="48.71644" lon="1.98816">
        <ele>188.6</ele>
        <time>2026-03-29T14:34:46Z</time>
      </trkpt>
      <trkpt lat="48.71642" lon="1.98822">
        <ele>188.6</ele>
        <time>2026-03-29T14:34:47Z</time>
      </trkpt>
      <trkpt lat="48.7164" lon="1.98829">
        <ele>188.6</ele>
        <time>2026-03-29T14:34:48Z</time>
      </trkpt>
      <trkpt lat="48.71638" lon="1.98835">
        <ele>188.6</ele>
        <time>2026-03-29T14:34:49Z</time>
      </trkpt>
      <trkpt lat="48.71636" lon="1.98841">
        <ele>188.6</ele>
        <time>2026-03-29T14:34:50Z</time>
      </trkpt>
      <trkpt lat="48.71634" lon="1.98848">
        <ele>188.6</ele>
        <time>2026-03-29T14:34:51Z</time>
      </trkpt>
      <trkpt lat="48.71633" lon="1.98854">
        <ele>188.6</ele>
        <time>2026-03-29T14:34:52Z</time>
      </trkpt>
      <trkpt lat="48.71631" lon="1.98861">
        <ele>188.6</ele>
        <time>2026-03-29T14:34:53Z</time>
      </trkpt>
      <trkpt lat="48.71629" lon="1.98867">
        <ele>189</ele>
        <time>2026-03-29T14:34:54Z</time>
      </trkpt>
      <trkpt lat="48.71628" lon="1.98873">
        <ele>189</ele>
        <time>2026-03-29T14:34:55Z</time>
      </trkpt>
      <trkpt lat="48.71626" lon="1.98877">
        <ele>189</ele>
        <time>2026-03-29T14:34:56Z</time>
      </trkpt>
      <trkpt lat="48.71623" lon="1.98878">
        <ele>188.4</ele>
        <time>2026-03-29T14:34:57Z</time>
      </trkpt>
      <trkpt lat="48.71621" lon="1.98878">
        <ele>188</ele>
        <time>2026-03-29T14:34:58Z</time>
      </trkpt>
      <trkpt lat="48.7162" lon="1.98881">
        <ele>188</ele>
        <time>2026-03-29T14:34:59Z</time>
      </trkpt>
      <trkpt lat="48.7162" lon="1.98884">
        <ele>188</ele>
        <time>2026-03-29T14:35:00Z</time>
      </trkpt>
      <trkpt lat="48.71621" lon="1.98887">
        <ele>188</ele>
        <time>2026-03-29T14:35:01Z</time>
      </trkpt>
      <trkpt lat="48.71622" lon="1.98891">
        <ele>188.2</ele>
        <time>2026-03-29T14:35:02Z</time>
      </trkpt>
      <trkpt lat="48.71622" lon="1.98896">
        <ele>188.2</ele>
        <time>2026-03-29T14:35:03Z</time>
      </trkpt>
      <trkpt lat="48.71621" lon="1.98902">
        <ele>188.2</ele>
        <time>2026-03-29T14:35:04Z</time>
      </trkpt>
      <trkpt lat="48.71621" lon="1.98908">
        <ele>188.2</ele>
        <time>2026-03-29T14:35:05Z</time>
      </trkpt>
      <trkpt lat="48.7162" lon="1.98915">
        <ele>189</ele>
        <time>2026-03-29T14:35:06Z</time>
      </trkpt>
      <trkpt lat="48.71619" lon="1.98922">
        <ele>189</ele>
        <time>2026-03-29T14:35:07Z</time>
      </trkpt>
      <trkpt lat="48.71618" lon="1.98929">
        <ele>189</ele>
        <time>2026-03-29T14:35:08Z</time>
      </trkpt>
      <trkpt lat="48.71616" lon="1.98936">
        <ele>189</ele>
        <time>2026-03-29T14:35:09Z</time>
      </trkpt>
      <trkpt lat="48.71615" lon="1.98943">
        <ele>188.8</ele>
        <time>2026-03-29T14:35:10Z</time>
      </trkpt>
      <trkpt lat="48.71613" lon="1.98951">
        <ele>188.8</ele>
        <time>2026-03-29T14:35:11Z</time>
      </trkpt>
      <trkpt lat="48.71612" lon="1.98958">
        <ele>188.8</ele>
        <time>2026-03-29T14:35:12Z</time>
      </trkpt>
      <trkpt lat="48.71611" lon="1.98965">
        <ele>188.8</ele>
        <time>2026-03-29T14:35:13Z</time>
      </trkpt>
      <trkpt lat="48.7161" lon="1.98973">
        <ele>189.2</ele>
        <time>2026-03-29T14:35:14Z</time>
      </trkpt>
      <trkpt lat="48.71609" lon="1.9898">
        <ele>189.2</ele>
        <time>2026-03-29T14:35:15Z</time>
      </trkpt>
      <trkpt lat="48.71607" lon="1.98987">
        <ele>189.2</ele>
        <time>2026-03-29T14:35:16Z</time>
      </trkpt>
      <trkpt lat="48.71605" lon="1.98995">
        <ele>189.2</ele>
        <time>2026-03-29T14:35:17Z</time>
      </trkpt>
      <trkpt lat="48.71603" lon="1.99001">
        <ele>189</ele>
        <time>2026-03-29T14:35:18Z</time>
      </trkpt>
      <trkpt lat="48.71602" lon="1.99008">
        <ele>189</ele>
        <time>2026-03-29T14:35:19Z</time>
      </trkpt>
      <trkpt lat="48.716" lon="1.99015">
        <ele>189</ele>
        <time>2026-03-29T14:35:20Z</time>
      </trkpt>
      <trkpt lat="48.71598" lon="1.99023">
        <ele>189.4</ele>
        <time>2026-03-29T14:35:21Z</time>
      </trkpt>
      <trkpt lat="48.71596" lon="1.9903">
        <ele>189.4</ele>
        <time>2026-03-29T14:35:22Z</time>
      </trkpt>
      <trkpt lat="48.71595" lon="1.99038">
        <ele>189.4</ele>
        <time>2026-03-29T14:35:23Z</time>
      </trkpt>
      <trkpt lat="48.71593" lon="1.99046">
        <ele>189.4</ele>
        <time>2026-03-29T14:35:24Z</time>
      </trkpt>
      <trkpt lat="48.71591" lon="1.99054">
        <ele>190</ele>
        <time>2026-03-29T14:35:25Z</time>
      </trkpt>
      <trkpt lat="48.71589" lon="1.99062">
        <ele>190</ele>
        <time>2026-03-29T14:35:26Z</time>
      </trkpt>
      <trkpt lat="48.71587" lon="1.9907">
        <ele>190</ele>
        <time>2026-03-29T14:35:27Z</time>
      </trkpt>
      <trkpt lat="48.71585" lon="1.99078">
        <ele>190</ele>
        <time>2026-03-29T14:35:28Z</time>
      </trkpt>
      <trkpt lat="48.71583" lon="1.99087">
        <ele>190</ele>
        <time>2026-03-29T14:35:29Z</time>
      </trkpt>
      <trkpt lat="48.71581" lon="1.99095">
        <ele>190</ele>
        <time>2026-03-29T14:35:30Z</time>
      </trkpt>
      <trkpt lat="48.71579" lon="1.99104">
        <ele>190</ele>
        <time>2026-03-29T14:35:31Z</time>
      </trkpt>
      <trkpt lat="48.71577" lon="1.99112">
        <ele>190</ele>
        <time>2026-03-29T14:35:32Z</time>
      </trkpt>
      <trkpt lat="48.71574" lon="1.99121">
        <ele>190</ele>
        <time>2026-03-29T14:35:33Z</time>
      </trkpt>
      <trkpt lat="48.71572" lon="1.99129">
        <ele>190.8</ele>
        <time>2026-03-29T14:35:34Z</time>
      </trkpt>
      <trkpt lat="48.71569" lon="1.99137">
        <ele>190.8</ele>
        <time>2026-03-29T14:35:35Z</time>
      </trkpt>
      <trkpt lat="48.71566" lon="1.99146">
        <ele>190.8</ele>
        <time>2026-03-29T14:35:36Z</time>
      </trkpt>
      <trkpt lat="48.71563" lon="1.99155">
        <ele>189.8</ele>
        <time>2026-03-29T14:35:37Z</time>
      </trkpt>
      <trkpt lat="48.7156" lon="1.99163">
        <ele>189.8</ele>
        <time>2026-03-29T14:35:38Z</time>
      </trkpt>
      <trkpt lat="48.71557" lon="1.99172">
        <ele>189.8</ele>
        <time>2026-03-29T14:35:39Z</time>
      </trkpt>
      <trkpt lat="48.71554" lon="1.9918">
        <ele>189.8</ele>
        <time>2026-03-29T14:35:40Z</time>
      </trkpt>
      <trkpt lat="48.7155" lon="1.99189">
        <ele>189.4</ele>
        <time>2026-03-29T14:35:41Z</time>
      </trkpt>
      <trkpt lat="48.71547" lon="1.99197">
        <ele>189.2</ele>
        <time>2026-03-29T14:35:42Z</time>
      </trkpt>
      <trkpt lat="48.71543" lon="1.99205">
        <ele>189.2</ele>
        <time>2026-03-29T14:35:43Z</time>
      </trkpt>
      <trkpt lat="48.7154" lon="1.99214">
        <ele>189.2</ele>
        <time>2026-03-29T14:35:44Z</time>
      </trkpt>
      <trkpt lat="48.71536" lon="1.99223">
        <ele>189.2</ele>
        <time>2026-03-29T14:35:45Z</time>
      </trkpt>
      <trkpt lat="48.71533" lon="1.99232">
        <ele>189.8</ele>
        <time>2026-03-29T14:35:46Z</time>
      </trkpt>
      <trkpt lat="48.7153" lon="1.9924">
        <ele>189.8</ele>
        <time>2026-03-29T14:35:47Z</time>
      </trkpt>
      <trkpt lat="48.71526" lon="1.99249">
        <ele>189.8</ele>
        <time>2026-03-29T14:35:48Z</time>
      </trkpt>
      <trkpt lat="48.71523" lon="1.99258">
        <ele>189</ele>
        <time>2026-03-29T14:35:49Z</time>
      </trkpt>
      <trkpt lat="48.7152" lon="1.99267">
        <ele>189</ele>
        <time>2026-03-29T14:35:50Z</time>
      </trkpt>
      <trkpt lat="48.71517" lon="1.99275">
        <ele>189</ele>
        <time>2026-03-29T14:35:51Z</time>
      </trkpt>
      <trkpt lat="48.71515" lon="1.99284">
        <ele>189</ele>
        <time>2026-03-29T14:35:52Z</time>
      </trkpt>
      <trkpt lat="48.71513" lon="1.99293">
        <ele>189.2</ele>
        <time>2026-03-29T14:35:53Z</time>
      </trkpt>
      <trkpt lat="48.7151" lon="1.99302">
        <ele>189.4</ele>
        <time>2026-03-29T14:35:54Z</time>
      </trkpt>
      <trkpt lat="48.71508" lon="1.99311">
        <ele>189.4</ele>
        <time>2026-03-29T14:35:55Z</time>
      </trkpt>
      <trkpt lat="48.71506" lon="1.9932">
        <ele>189.4</ele>
        <time>2026-03-29T14:35:56Z</time>
      </trkpt>
      <trkpt lat="48.71504" lon="1.9933">
        <ele>189.4</ele>
        <time>2026-03-29T14:35:57Z</time>
      </trkpt>
      <trkpt lat="48.71502" lon="1.99339">
        <ele>188.8</ele>
        <time>2026-03-29T14:35:58Z</time>
      </trkpt>
      <trkpt lat="48.715" lon="1.99348">
        <ele>188.8</ele>
        <time>2026-03-29T14:35:59Z</time>
      </trkpt>
      <trkpt lat="48.71498" lon="1.99357">
        <ele>188.8</ele>
        <time>2026-03-29T14:36:00Z</time>
      </trkpt>
      <trkpt lat="48.71496" lon="1.99367">
        <ele>188.8</ele>
        <time>2026-03-29T14:36:01Z</time>
      </trkpt>
      <trkpt lat="48.71494" lon="1.99376">
        <ele>189</ele>
        <time>2026-03-29T14:36:02Z</time>
      </trkpt>
      <trkpt lat="48.71492" lon="1.99384">
        <ele>189</ele>
        <time>2026-03-29T14:36:03Z</time>
      </trkpt>
      <trkpt lat="48.71488" lon="1.99392">
        <ele>189</ele>
        <time>2026-03-29T14:36:04Z</time>
      </trkpt>
      <trkpt lat="48.71484" lon="1.99398">
        <ele>189</ele>
        <time>2026-03-29T14:36:05Z</time>
      </trkpt>
      <trkpt lat="48.71478" lon="1.99401">
        <ele>189.4</ele>
        <time>2026-03-29T14:36:06Z</time>
      </trkpt>
      <trkpt lat="48.71473" lon="1.99404">
        <ele>189.4</ele>
        <time>2026-03-29T14:36:07Z</time>
      </trkpt>
      <trkpt lat="48.71468" lon="1.99407">
        <ele>189.4</ele>
        <time>2026-03-29T14:36:08Z</time>
      </trkpt>
      <trkpt lat="48.71463" lon="1.99409">
        <ele>189.4</ele>
        <time>2026-03-29T14:36:09Z</time>
      </trkpt>
      <trkpt lat="48.71458" lon="1.99411">
        <ele>189.6</ele>
        <time>2026-03-29T14:36:10Z</time>
      </trkpt>
      <trkpt lat="48.71453" lon="1.99411">
        <ele>189.6</ele>
        <time>2026-03-29T14:36:11Z</time>
      </trkpt>
      <trkpt lat="48.71448" lon="1.99411">
        <ele>189.6</ele>
        <time>2026-03-29T14:36:12Z</time>
      </trkpt>
      <trkpt lat="48.71444" lon="1.99413">
        <ele>189.6</ele>
        <time>2026-03-29T14:36:13Z</time>
      </trkpt>
      <trkpt lat="48.7144" lon="1.99417">
        <ele>188</ele>
        <time>2026-03-29T14:36:14Z</time>
      </trkpt>
      <trkpt lat="48.71438" lon="1.99421">
        <ele>188</ele>
        <time>2026-03-29T14:36:15Z</time>
      </trkpt>
      <trkpt lat="48.71435" lon="1.99424">
        <ele>188</ele>
        <time>2026-03-29T14:36:16Z</time>
      </trkpt>
      <trkpt lat="48.71432" lon="1.99426">
        <ele>188.4</ele>
        <time>2026-03-29T14:36:17Z</time>
      </trkpt>
      <trkpt lat="48.71429" lon="1.99429">
        <ele>188.6</ele>
        <time>2026-03-29T14:36:18Z</time>
      </trkpt>
      <trkpt lat="48.71426" lon="1.99431">
        <ele>188.6</ele>
        <time>2026-03-29T14:36:19Z</time>
      </trkpt>
      <trkpt lat="48.71423" lon="1.99433">
        <ele>188.6</ele>
        <time>2026-03-29T14:36:20Z</time>
      </trkpt>
      <trkpt lat="48.71419" lon="1.99436">
        <ele>188.6</ele>
        <time>2026-03-29T14:36:21Z</time>
      </trkpt>
      <trkpt lat="48.71416" lon="1.99439">
        <ele>189.2</ele>
        <time>2026-03-29T14:36:22Z</time>
      </trkpt>
      <trkpt lat="48.71413" lon="1.99441">
        <ele>189.2</ele>
        <time>2026-03-29T14:36:23Z</time>
      </trkpt>
      <trkpt lat="48.71409" lon="1.99444">
        <ele>189.2</ele>
        <time>2026-03-29T14:36:24Z</time>
      </trkpt>
      <trkpt lat="48.71405" lon="1.99447">
        <ele>189.2</ele>
        <time>2026-03-29T14:36:25Z</time>
      </trkpt>
      <trkpt lat="48.71401" lon="1.99449">
        <ele>188.8</ele>
        <time>2026-03-29T14:36:26Z</time>
      </trkpt>
      <trkpt lat="48.71397" lon="1.99452">
        <ele>188.8</ele>
        <time>2026-03-29T14:36:27Z</time>
      </trkpt>
      <trkpt lat="48.71392" lon="1.99455">
        <ele>188.8</ele>
        <time>2026-03-29T14:36:28Z</time>
      </trkpt>
      <trkpt lat="48.7139" lon="1.99458">
        <ele>188.8</ele>
        <time>2026-03-29T14:36:29Z</time>
      </trkpt>
      <trkpt lat="48.71386" lon="1.99461">
        <ele>189</ele>
        <time>2026-03-29T14:36:30Z</time>
      </trkpt>
      <trkpt lat="48.71383" lon="1.99464">
        <ele>189</ele>
        <time>2026-03-29T14:36:31Z</time>
      </trkpt>
      <trkpt lat="48.71379" lon="1.99466">
        <ele>189</ele>
        <time>2026-03-29T14:36:32Z</time>
      </trkpt>
      <trkpt lat="48.71375" lon="1.99468">
        <ele>189</ele>
        <time>2026-03-29T14:36:33Z</time>
      </trkpt>
      <trkpt lat="48.71371" lon="1.9947">
        <ele>189.2</ele>
        <time>2026-03-29T14:36:34Z</time>
      </trkpt>
      <trkpt lat="48.71367" lon="1.99472">
        <ele>189.2</ele>
        <time>2026-03-29T14:36:35Z</time>
      </trkpt>
      <trkpt lat="48.71364" lon="1.99473">
        <ele>189.2</ele>
        <time>2026-03-29T14:36:36Z</time>
      </trkpt>
      <trkpt lat="48.7136" lon="1.99475">
        <ele>189.2</ele>
        <time>2026-03-29T14:36:37Z</time>
      </trkpt>
      <trkpt lat="48.71355" lon="1.99477">
        <ele>189.6</ele>
        <time>2026-03-29T14:36:38Z</time>
      </trkpt>
      <trkpt lat="48.71352" lon="1.99479">
        <ele>189.6</ele>
        <time>2026-03-29T14:36:39Z</time>
      </trkpt>
      <trkpt lat="48.71349" lon="1.99481">
        <ele>189.6</ele>
        <time>2026-03-29T14:36:40Z</time>
      </trkpt>
      <trkpt lat="48.71345" lon="1.99483">
        <ele>189</ele>
        <time>2026-03-29T14:36:41Z</time>
      </trkpt>
      <trkpt lat="48.71343" lon="1.99485">
        <ele>189.8</ele>
        <time>2026-03-29T14:36:42Z</time>
      </trkpt>
      <trkpt lat="48.71339" lon="1.99487">
        <ele>189.8</ele>
        <time>2026-03-29T14:36:43Z</time>
      </trkpt>
      <trkpt lat="48.71335" lon="1.99488">
        <ele>189.8</ele>
        <time>2026-03-29T14:36:44Z</time>
      </trkpt>
      <trkpt lat="48.71333" lon="1.99489">
        <ele>188.8</ele>
        <time>2026-03-29T14:36:45Z</time>
      </trkpt>
      <trkpt lat="48.71332" lon="1.9949">
        <ele>188.6</ele>
        <time>2026-03-29T14:36:46Z</time>
      </trkpt>
      <trkpt lat="48.71332" lon="1.9949">
        <ele>188.6</ele>
        <time>2026-03-29T14:36:47Z</time>
      </trkpt>
      <trkpt lat="48.71314" lon="1.99505">
        <ele>189</ele>
        <time>2026-03-29T14:37:00Z</time>
      </trkpt>
      <trkpt lat="48.7131" lon="1.99508">
        <ele>189</ele>
        <time>2026-03-29T14:37:01Z</time>
      </trkpt>
      <trkpt lat="48.71308" lon="1.99509">
        <ele>189</ele>
        <time>2026-03-29T14:37:02Z</time>
      </trkpt>
      <trkpt lat="48.71304" lon="1.99511">
        <ele>189</ele>
        <time>2026-03-29T14:37:03Z</time>
      </trkpt>
      <trkpt lat="48.71299" lon="1.99513">
        <ele>189</ele>
        <time>2026-03-29T14:37:04Z</time>
      </trkpt>
      <trkpt lat="48.71296" lon="1.99515">
        <ele>189</ele>
        <time>2026-03-29T14:37:05Z</time>
      </trkpt>
      <trkpt lat="48.71293" lon="1.99517">
        <ele>188.8</ele>
        <time>2026-03-29T14:37:06Z</time>
      </trkpt>
      <trkpt lat="48.7129" lon="1.9952">
        <ele>188.8</ele>
        <time>2026-03-29T14:37:07Z</time>
      </trkpt>
      <trkpt lat="48.71287" lon="1.99523">
        <ele>188.8</ele>
        <time>2026-03-29T14:37:08Z</time>
      </trkpt>
      <trkpt lat="48.71283" lon="1.99526">
        <ele>189.4</ele>
        <time>2026-03-29T14:37:09Z</time>
      </trkpt>
      <trkpt lat="48.71279" lon="1.99528">
        <ele>189</ele>
        <time>2026-03-29T14:37:10Z</time>
      </trkpt>
      <trkpt lat="48.71275" lon="1.99531">
        <ele>189</ele>
        <time>2026-03-29T14:37:11Z</time>
      </trkpt>
      <trkpt lat="48.71272" lon="1.99534">
        <ele>189</ele>
        <time>2026-03-29T14:37:12Z</time>
      </trkpt>
      <trkpt lat="48.71269" lon="1.99537">
        <ele>189</ele>
        <time>2026-03-29T14:37:13Z</time>
      </trkpt>
      <trkpt lat="48.71264" lon="1.9954">
        <ele>189.2</ele>
        <time>2026-03-29T14:37:14Z</time>
      </trkpt>
      <trkpt lat="48.7126" lon="1.99544">
        <ele>189.2</ele>
        <time>2026-03-29T14:37:15Z</time>
      </trkpt>
      <trkpt lat="48.71255" lon="1.99548">
        <ele>189.2</ele>
        <time>2026-03-29T14:37:16Z</time>
      </trkpt>
      <trkpt lat="48.7125" lon="1.99552">
        <ele>189.2</ele>
        <time>2026-03-29T14:37:17Z</time>
      </trkpt>
      <trkpt lat="48.71246" lon="1.99556">
        <ele>189.4</ele>
        <time>2026-03-29T14:37:18Z</time>
      </trkpt>
      <trkpt lat="48.71245" lon="1.9956">
        <ele>189.4</ele>
        <time>2026-03-29T14:37:19Z</time>
      </trkpt>
      <trkpt lat="48.71241" lon="1.99564">
        <ele>189.4</ele>
        <time>2026-03-29T14:37:20Z</time>
      </trkpt>
      <trkpt lat="48.71237" lon="1.99568">
        <ele>189</ele>
        <time>2026-03-29T14:37:21Z</time>
      </trkpt>
      <trkpt lat="48.71232" lon="1.99573">
        <ele>189.2</ele>
        <time>2026-03-29T14:37:22Z</time>
      </trkpt>
      <trkpt lat="48.7123" lon="1.99577">
        <ele>189.2</ele>
        <time>2026-03-29T14:37:23Z</time>
      </trkpt>
      <trkpt lat="48.71225" lon="1.99581">
        <ele>189.2</ele>
        <time>2026-03-29T14:37:24Z</time>
      </trkpt>
      <trkpt lat="48.71221" lon="1.99585">
        <ele>189.2</ele>
        <time>2026-03-29T14:37:25Z</time>
      </trkpt>
      <trkpt lat="48.71217" lon="1.9959">
        <ele>189.2</ele>
        <time>2026-03-29T14:37:26Z</time>
      </trkpt>
      <trkpt lat="48.71213" lon="1.99595">
        <ele>189.2</ele>
        <time>2026-03-29T14:37:27Z</time>
      </trkpt>
      <trkpt lat="48.71208" lon="1.996">
        <ele>189.2</ele>
        <time>2026-03-29T14:37:28Z</time>
      </trkpt>
      <trkpt lat="48.71205" lon="1.99605">
        <ele>188.4</ele>
        <time>2026-03-29T14:37:29Z</time>
      </trkpt>
      <trkpt lat="48.71201" lon="1.9961">
        <ele>188.6</ele>
        <time>2026-03-29T14:37:30Z</time>
      </trkpt>
      <trkpt lat="48.71198" lon="1.99616">
        <ele>188.6</ele>
        <time>2026-03-29T14:37:31Z</time>
      </trkpt>
      <trkpt lat="48.71193" lon="1.99621">
        <ele>188.6</ele>
        <time>2026-03-29T14:37:32Z</time>
      </trkpt>
      <trkpt lat="48.7119" lon="1.99625">
        <ele>189</ele>
        <time>2026-03-29T14:37:33Z</time>
      </trkpt>
      <trkpt lat="48.71187" lon="1.9963">
        <ele>188.6</ele>
        <time>2026-03-29T14:37:34Z</time>
      </trkpt>
      <trkpt lat="48.71184" lon="1.99635">
        <ele>188.6</ele>
        <time>2026-03-29T14:37:35Z</time>
      </trkpt>
      <trkpt lat="48.7118" lon="1.99641">
        <ele>188.6</ele>
        <time>2026-03-29T14:37:36Z</time>
      </trkpt>
      <trkpt lat="48.71176" lon="1.99645">
        <ele>188</ele>
        <time>2026-03-29T14:37:37Z</time>
      </trkpt>
      <trkpt lat="48.71172" lon="1.99649">
        <ele>187.4</ele>
        <time>2026-03-29T14:37:38Z</time>
      </trkpt>
      <trkpt lat="48.71169" lon="1.99652">
        <ele>187.4</ele>
        <time>2026-03-29T14:37:39Z</time>
      </trkpt>
      <trkpt lat="48.71167" lon="1.99655">
        <ele>187.4</ele>
        <time>2026-03-29T14:37:40Z</time>
      </trkpt>
      <trkpt lat="48.71164" lon="1.99658">
        <ele>188.2</ele>
        <time>2026-03-29T14:37:41Z</time>
      </trkpt>
      <trkpt lat="48.71161" lon="1.99661">
        <ele>188.8</ele>
        <time>2026-03-29T14:37:42Z</time>
      </trkpt>
      <trkpt lat="48.71157" lon="1.99664">
        <ele>188.8</ele>
        <time>2026-03-29T14:37:43Z</time>
      </trkpt>
      <trkpt lat="48.71153" lon="1.99668">
        <ele>188.8</ele>
        <time>2026-03-29T14:37:44Z</time>
      </trkpt>
      <trkpt lat="48.7115" lon="1.99672">
        <ele>188</ele>
        <time>2026-03-29T14:37:45Z</time>
      </trkpt>
      <trkpt lat="48.71146" lon="1.99676">
        <ele>188.6</ele>
        <time>2026-03-29T14:37:46Z</time>
      </trkpt>
      <trkpt lat="48.71143" lon="1.9968">
        <ele>188.6</ele>
        <time>2026-03-29T14:37:47Z</time>
      </trkpt>
      <trkpt lat="48.7114" lon="1.99685">
        <ele>188.6</ele>
        <time>2026-03-29T14:37:48Z</time>
      </trkpt>
      <trkpt lat="48.71136" lon="1.9969">
        <ele>188.2</ele>
        <time>2026-03-29T14:37:49Z</time>
      </trkpt>
      <trkpt lat="48.71132" lon="1.99696">
        <ele>188.4</ele>
        <time>2026-03-29T14:37:50Z</time>
      </trkpt>
      <trkpt lat="48.71128" lon="1.99702">
        <ele>188.4</ele>
        <time>2026-03-29T14:37:51Z</time>
      </trkpt>
      <trkpt lat="48.71124" lon="1.99709">
        <ele>188.4</ele>
        <time>2026-03-29T14:37:52Z</time>
      </trkpt>
      <trkpt lat="48.7112" lon="1.99715">
        <ele>188.4</ele>
        <time>2026-03-29T14:37:53Z</time>
      </trkpt>
      <trkpt lat="48.71115" lon="1.99721">
        <ele>187.8</ele>
        <time>2026-03-29T14:37:54Z</time>
      </trkpt>
      <trkpt lat="48.71112" lon="1.99728">
        <ele>187.8</ele>
        <time>2026-03-29T14:37:55Z</time>
      </trkpt>
      <trkpt lat="48.71108" lon="1.99733">
        <ele>187.8</ele>
        <time>2026-03-29T14:37:56Z</time>
      </trkpt>
      <trkpt lat="48.71105" lon="1.9974">
        <ele>187.8</ele>
        <time>2026-03-29T14:37:57Z</time>
      </trkpt>
      <trkpt lat="48.71101" lon="1.99746">
        <ele>188.8</ele>
        <time>2026-03-29T14:37:58Z</time>
      </trkpt>
      <trkpt lat="48.71099" lon="1.9975">
        <ele>188.8</ele>
        <time>2026-03-29T14:37:59Z</time>
      </trkpt>
      <trkpt lat="48.71096" lon="1.99756">
        <ele>188.8</ele>
        <time>2026-03-29T14:38:00Z</time>
      </trkpt>
      <trkpt lat="48.71092" lon="1.99761">
        <ele>188.4</ele>
        <time>2026-03-29T14:38:01Z</time>
      </trkpt>
      <trkpt lat="48.71087" lon="1.99766">
        <ele>188</ele>
        <time>2026-03-29T14:38:02Z</time>
      </trkpt>
      <trkpt lat="48.71085" lon="1.99771">
        <ele>188</ele>
        <time>2026-03-29T14:38:03Z</time>
      </trkpt>
      <trkpt lat="48.71082" lon="1.99777">
        <ele>188</ele>
        <time>2026-03-29T14:38:04Z</time>
      </trkpt>
      <trkpt lat="48.71078" lon="1.99782">
        <ele>188.6</ele>
        <time>2026-03-29T14:38:05Z</time>
      </trkpt>
      <trkpt lat="48.71074" lon="1.99787">
        <ele>188.2</ele>
        <time>2026-03-29T14:38:06Z</time>
      </trkpt>
      <trkpt lat="48.7107" lon="1.99791">
        <ele>188.2</ele>
        <time>2026-03-29T14:38:07Z</time>
      </trkpt>
      <trkpt lat="48.71067" lon="1.99796">
        <ele>188.2</ele>
        <time>2026-03-29T14:38:08Z</time>
      </trkpt>
      <trkpt lat="48.71063" lon="1.99801">
        <ele>188.4</ele>
        <time>2026-03-29T14:38:09Z</time>
      </trkpt>
      <trkpt lat="48.7106" lon="1.99807">
        <ele>188.8</ele>
        <time>2026-03-29T14:38:10Z</time>
      </trkpt>
      <trkpt lat="48.71057" lon="1.99812">
        <ele>188.8</ele>
        <time>2026-03-29T14:38:11Z</time>
      </trkpt>
      <trkpt lat="48.71055" lon="1.99817">
        <ele>188.8</ele>
        <time>2026-03-29T14:38:12Z</time>
      </trkpt>
      <trkpt lat="48.71053" lon="1.9982">
        <ele>188.8</ele>
        <time>2026-03-29T14:38:13Z</time>
      </trkpt>
      <trkpt lat="48.71049" lon="1.99825">
        <ele>189</ele>
        <time>2026-03-29T14:38:14Z</time>
      </trkpt>
      <trkpt lat="48.71047" lon="1.9983">
        <ele>189</ele>
        <time>2026-03-29T14:38:15Z</time>
      </trkpt>
      <trkpt lat="48.71042" lon="1.99835">
        <ele>189</ele>
        <time>2026-03-29T14:38:16Z</time>
      </trkpt>
      <trkpt lat="48.71037" lon="1.99841">
        <ele>188.8</ele>
        <time>2026-03-29T14:38:17Z</time>
      </trkpt>
      <trkpt lat="48.71034" lon="1.99847">
        <ele>189</ele>
        <time>2026-03-29T14:38:18Z</time>
      </trkpt>
      <trkpt lat="48.71031" lon="1.99852">
        <ele>189</ele>
        <time>2026-03-29T14:38:19Z</time>
      </trkpt>
      <trkpt lat="48.71028" lon="1.99857">
        <ele>189</ele>
        <time>2026-03-29T14:38:20Z</time>
      </trkpt>
      <trkpt lat="48.71024" lon="1.99863">
        <ele>189</ele>
        <time>2026-03-29T14:38:21Z</time>
      </trkpt>
      <trkpt lat="48.7102" lon="1.99869">
        <ele>189.4</ele>
        <time>2026-03-29T14:38:22Z</time>
      </trkpt>
      <trkpt lat="48.71017" lon="1.99875">
        <ele>189.4</ele>
        <time>2026-03-29T14:38:23Z</time>
      </trkpt>
      <trkpt lat="48.71015" lon="1.99879">
        <ele>189.4</ele>
        <time>2026-03-29T14:38:24Z</time>
      </trkpt>
      <trkpt lat="48.71011" lon="1.99885">
        <ele>188.4</ele>
        <time>2026-03-29T14:38:25Z</time>
      </trkpt>
      <trkpt lat="48.71008" lon="1.99891">
        <ele>189</ele>
        <time>2026-03-29T14:38:26Z</time>
      </trkpt>
      <trkpt lat="48.71004" lon="1.99897">
        <ele>189</ele>
        <time>2026-03-29T14:38:27Z</time>
      </trkpt>
      <trkpt lat="48.71003" lon="1.999">
        <ele>189</ele>
        <time>2026-03-29T14:38:28Z</time>
      </trkpt>
      <trkpt lat="48.70999" lon="1.99907">
        <ele>189</ele>
        <time>2026-03-29T14:38:29Z</time>
      </trkpt>
      <trkpt lat="48.70995" lon="1.99912">
        <ele>188.6</ele>
        <time>2026-03-29T14:38:30Z</time>
      </trkpt>
      <trkpt lat="48.70993" lon="1.99917">
        <ele>188.6</ele>
        <time>2026-03-29T14:38:31Z</time>
      </trkpt>
      <trkpt lat="48.70989" lon="1.99922">
        <ele>188.6</ele>
        <time>2026-03-29T14:38:32Z</time>
      </trkpt>
      <trkpt lat="48.70986" lon="1.99927">
        <ele>189.2</ele>
        <time>2026-03-29T14:38:33Z</time>
      </trkpt>
      <trkpt lat="48.70983" lon="1.99933">
        <ele>189.2</ele>
        <time>2026-03-29T14:38:34Z</time>
      </trkpt>
      <trkpt lat="48.7098" lon="1.99937">
        <ele>189.2</ele>
        <time>2026-03-29T14:38:35Z</time>
      </trkpt>
      <trkpt lat="48.70976" lon="1.99943">
        <ele>189.2</ele>
        <time>2026-03-29T14:38:36Z</time>
      </trkpt>
      <trkpt lat="48.70973" lon="1.99949">
        <ele>189.2</ele>
        <time>2026-03-29T14:38:37Z</time>
      </trkpt>
      <trkpt lat="48.7097" lon="1.99955">
        <ele>188.8</ele>
        <time>2026-03-29T14:38:38Z</time>
      </trkpt>
      <trkpt lat="48.70966" lon="1.9996">
        <ele>188.8</ele>
        <time>2026-03-29T14:38:39Z</time>
      </trkpt>
      <trkpt lat="48.70963" lon="1.99966">
        <ele>188.8</ele>
        <time>2026-03-29T14:38:40Z</time>
      </trkpt>
      <trkpt lat="48.7096" lon="1.99971">
        <ele>189</ele>
        <time>2026-03-29T14:38:41Z</time>
      </trkpt>
      <trkpt lat="48.70957" lon="1.99977">
        <ele>189</ele>
        <time>2026-03-29T14:38:42Z</time>
      </trkpt>
      <trkpt lat="48.70953" lon="1.99984">
        <ele>189</ele>
        <time>2026-03-29T14:38:43Z</time>
      </trkpt>
      <trkpt lat="48.7095" lon="1.99989">
        <ele>189</ele>
        <time>2026-03-29T14:38:44Z</time>
      </trkpt>
      <trkpt lat="48.70947" lon="1.99994">
        <ele>188.6</ele>
        <time>2026-03-29T14:38:45Z</time>
      </trkpt>
      <trkpt lat="48.70943" lon="2">
        <ele>188.6</ele>
        <time>2026-03-29T14:38:46Z</time>
      </trkpt>
      <trkpt lat="48.70939" lon="2.00005">
        <ele>188.6</ele>
        <time>2026-03-29T14:38:47Z</time>
      </trkpt>
      <trkpt lat="48.70935" lon="2.00011">
        <ele>188.6</ele>
        <time>2026-03-29T14:38:48Z</time>
      </trkpt>
      <trkpt lat="48.70932" lon="2.00016">
        <ele>188.6</ele>
        <time>2026-03-29T14:38:49Z</time>
      </trkpt>
      <trkpt lat="48.70928" lon="2.00021">
        <ele>189.2</ele>
        <time>2026-03-29T14:38:50Z</time>
      </trkpt>
      <trkpt lat="48.70925" lon="2.00027">
        <ele>189.2</ele>
        <time>2026-03-29T14:38:51Z</time>
      </trkpt>
      <trkpt lat="48.70921" lon="2.00033">
        <ele>189.2</ele>
        <time>2026-03-29T14:38:52Z</time>
      </trkpt>
      <trkpt lat="48.70918" lon="2.00038">
        <ele>189.2</ele>
        <time>2026-03-29T14:38:53Z</time>
      </trkpt>
      <trkpt lat="48.70915" lon="2.00044">
        <ele>188.8</ele>
        <time>2026-03-29T14:38:54Z</time>
      </trkpt>
      <trkpt lat="48.70912" lon="2.00049">
        <ele>188.8</ele>
        <time>2026-03-29T14:38:55Z</time>
      </trkpt>
      <trkpt lat="48.70909" lon="2.00055">
        <ele>188.8</ele>
        <time>2026-03-29T14:38:56Z</time>
      </trkpt>
      <trkpt lat="48.70906" lon="2.00059">
        <ele>188.8</ele>
        <time>2026-03-29T14:38:57Z</time>
      </trkpt>
      <trkpt lat="48.70903" lon="2.00064">
        <ele>189</ele>
        <time>2026-03-29T14:38:58Z</time>
      </trkpt>
      <trkpt lat="48.709" lon="2.0007">
        <ele>189</ele>
        <time>2026-03-29T14:38:59Z</time>
      </trkpt>
      <trkpt lat="48.70898" lon="2.00075">
        <ele>189</ele>
        <time>2026-03-29T14:39:00Z</time>
      </trkpt>
      <trkpt lat="48.70896" lon="2.00082">
        <ele>188.6</ele>
        <time>2026-03-29T14:39:01Z</time>
      </trkpt>
      <trkpt lat="48.70895" lon="2.00089">
        <ele>189</ele>
        <time>2026-03-29T14:39:02Z</time>
      </trkpt>
      <trkpt lat="48.70896" lon="2.00096">
        <ele>189</ele>
        <time>2026-03-29T14:39:03Z</time>
      </trkpt>
      <trkpt lat="48.70897" lon="2.00102">
        <ele>189</ele>
        <time>2026-03-29T14:39:04Z</time>
      </trkpt>
      <trkpt lat="48.70899" lon="2.00106">
        <ele>190</ele>
        <time>2026-03-29T14:39:05Z</time>
      </trkpt>
      <trkpt lat="48.70902" lon="2.00109">
        <ele>189.2</ele>
        <time>2026-03-29T14:39:06Z</time>
      </trkpt>
      <trkpt lat="48.70906" lon="2.00111">
        <ele>189.2</ele>
        <time>2026-03-29T14:39:07Z</time>
      </trkpt>
      <trkpt lat="48.70908" lon="2.00113">
        <ele>189.2</ele>
        <time>2026-03-29T14:39:08Z</time>
      </trkpt>
      <trkpt lat="48.7091" lon="2.00115">
        <ele>189.2</ele>
        <time>2026-03-29T14:39:09Z</time>
      </trkpt>
      <trkpt lat="48.70911" lon="2.00118">
        <ele>188.8</ele>
        <time>2026-03-29T14:39:10Z</time>
      </trkpt>
      <trkpt lat="48.70911" lon="2.00121">
        <ele>188.8</ele>
        <time>2026-03-29T14:39:11Z</time>
      </trkpt>
      <trkpt lat="48.70911" lon="2.00123">
        <ele>188.8</ele>
        <time>2026-03-29T14:39:12Z</time>
      </trkpt>
      <trkpt lat="48.7091" lon="2.00124">
        <ele>188.4</ele>
        <time>2026-03-29T14:39:13Z</time>
      </trkpt>
      <trkpt lat="48.70907" lon="2.00136">
        <ele>189</ele>
        <time>2026-03-29T14:39:39Z</time>
      </trkpt>
      <trkpt lat="48.70908" lon="2.00139">
        <ele>189</ele>
        <time>2026-03-29T14:39:40Z</time>
      </trkpt>
      <trkpt lat="48.7091" lon="2.00141">
        <ele>189.2</ele>
        <time>2026-03-29T14:39:41Z</time>
      </trkpt>
      <trkpt lat="48.70912" lon="2.00144">
        <ele>188.8</ele>
        <time>2026-03-29T14:39:42Z</time>
      </trkpt>
      <trkpt lat="48.70915" lon="2.00145">
        <ele>188.8</ele>
        <time>2026-03-29T14:39:43Z</time>
      </trkpt>
      <trkpt lat="48.70919" lon="2.00146">
        <ele>188.8</ele>
        <time>2026-03-29T14:39:44Z</time>
      </trkpt>
      <trkpt lat="48.70922" lon="2.00146">
        <ele>189.8</ele>
        <time>2026-03-29T14:39:45Z</time>
      </trkpt>
      <trkpt lat="48.70925" lon="2.00146">
        <ele>190</ele>
        <time>2026-03-29T14:39:46Z</time>
      </trkpt>
      <trkpt lat="48.70928" lon="2.00147">
        <ele>190</ele>
        <time>2026-03-29T14:39:47Z</time>
      </trkpt>
      <trkpt lat="48.70931" lon="2.00148">
        <ele>190</ele>
        <time>2026-03-29T14:39:48Z</time>
      </trkpt>
      <trkpt lat="48.70934" lon="2.00148">
        <ele>190</ele>
        <time>2026-03-29T14:39:49Z</time>
      </trkpt>
      <trkpt lat="48.70937" lon="2.00151">
        <ele>190</ele>
        <time>2026-03-29T14:39:50Z</time>
      </trkpt>
      <trkpt lat="48.7094" lon="2.00154">
        <ele>190</ele>
        <time>2026-03-29T14:39:51Z</time>
      </trkpt>
      <trkpt lat="48.70942" lon="2.00157">
        <ele>190</ele>
        <time>2026-03-29T14:39:52Z</time>
      </trkpt>
      <trkpt lat="48.70941" lon="2.00161">
        <ele>190</ele>
        <time>2026-03-29T14:39:53Z</time>
      </trkpt>
      <trkpt lat="48.70941" lon="2.00164">
        <ele>189.8</ele>
        <time>2026-03-29T14:39:54Z</time>
      </trkpt>
      <trkpt lat="48.7094" lon="2.00168">
        <ele>189.8</ele>
        <time>2026-03-29T14:39:55Z</time>
      </trkpt>
      <trkpt lat="48.70939" lon="2.00172">
        <ele>189.8</ele>
        <time>2026-03-29T14:39:56Z</time>
      </trkpt>
      <trkpt lat="48.70937" lon="2.00177">
        <ele>189.8</ele>
        <time>2026-03-29T14:39:57Z</time>
      </trkpt>
      <trkpt lat="48.70935" lon="2.00183">
        <ele>189.8</ele>
        <time>2026-03-29T14:39:58Z</time>
      </trkpt>
      <trkpt lat="48.70934" lon="2.00188">
        <ele>189.8</ele>
        <time>2026-03-29T14:39:59Z</time>
      </trkpt>
      <trkpt lat="48.70933" lon="2.00193">
        <ele>189.8</ele>
        <time>2026-03-29T14:40:00Z</time>
      </trkpt>
      <trkpt lat="48.70932" lon="2.00198">
        <ele>189.8</ele>
        <time>2026-03-29T14:40:01Z</time>
      </trkpt>
      <trkpt lat="48.70932" lon="2.00203">
        <ele>190</ele>
        <time>2026-03-29T14:40:02Z</time>
      </trkpt>
      <trkpt lat="48.70931" lon="2.00209">
        <ele>190</ele>
        <time>2026-03-29T14:40:03Z</time>
      </trkpt>
      <trkpt lat="48.7093" lon="2.00215">
        <ele>190</ele>
        <time>2026-03-29T14:40:04Z</time>
      </trkpt>
      <trkpt lat="48.70928" lon="2.00219">
        <ele>190.2</ele>
        <time>2026-03-29T14:40:05Z</time>
      </trkpt>
      <trkpt lat="48.70928" lon="2.00225">
        <ele>189.8</ele>
        <time>2026-03-29T14:40:06Z</time>
      </trkpt>
      <trkpt lat="48.70927" lon="2.00232">
        <ele>189.8</ele>
        <time>2026-03-29T14:40:07Z</time>
      </trkpt>
      <trkpt lat="48.70926" lon="2.00238">
        <ele>189.8</ele>
        <time>2026-03-29T14:40:08Z</time>
      </trkpt>
      <trkpt lat="48.70925" lon="2.00243">
        <ele>190.2</ele>
        <time>2026-03-29T14:40:09Z</time>
      </trkpt>
      <trkpt lat="48.70923" lon="2.00249">
        <ele>190.2</ele>
        <time>2026-03-29T14:40:10Z</time>
      </trkpt>
      <trkpt lat="48.70921" lon="2.00254">
        <ele>190.2</ele>
        <time>2026-03-29T14:40:11Z</time>
      </trkpt>
      <trkpt lat="48.7092" lon="2.00259">
        <ele>190.2</ele>
        <time>2026-03-29T14:40:12Z</time>
      </trkpt>
      <trkpt lat="48.70919" lon="2.00264">
        <ele>190.2</ele>
        <time>2026-03-29T14:40:13Z</time>
      </trkpt>
      <trkpt lat="48.70918" lon="2.0027">
        <ele>190.4</ele>
        <time>2026-03-29T14:40:14Z</time>
      </trkpt>
      <trkpt lat="48.70917" lon="2.00275">
        <ele>190.4</ele>
        <time>2026-03-29T14:40:15Z</time>
      </trkpt>
      <trkpt lat="48.70915" lon="2.00279">
        <ele>190.4</ele>
        <time>2026-03-29T14:40:16Z</time>
      </trkpt>
      <trkpt lat="48.70914" lon="2.00284">
        <ele>190.4</ele>
        <time>2026-03-29T14:40:17Z</time>
      </trkpt>
      <trkpt lat="48.70911" lon="2.0029">
        <ele>190.6</ele>
        <time>2026-03-29T14:40:18Z</time>
      </trkpt>
      <trkpt lat="48.70909" lon="2.00297">
        <ele>190.6</ele>
        <time>2026-03-29T14:40:19Z</time>
      </trkpt>
      <trkpt lat="48.70908" lon="2.00302">
        <ele>190.6</ele>
        <time>2026-03-29T14:40:20Z</time>
      </trkpt>
      <trkpt lat="48.70906" lon="2.0031">
        <ele>190.4</ele>
        <time>2026-03-29T14:40:21Z</time>
      </trkpt>
      <trkpt lat="48.70906" lon="2.00316">
        <ele>190.2</ele>
        <time>2026-03-29T14:40:22Z</time>
      </trkpt>
      <trkpt lat="48.70905" lon="2.00322">
        <ele>190.2</ele>
        <time>2026-03-29T14:40:23Z</time>
      </trkpt>
      <trkpt lat="48.70902" lon="2.00329">
        <ele>190.2</ele>
        <time>2026-03-29T14:40:24Z</time>
      </trkpt>
      <trkpt lat="48.709" lon="2.00336">
        <ele>190.2</ele>
        <time>2026-03-29T14:40:25Z</time>
      </trkpt>
      <trkpt lat="48.70897" lon="2.00342">
        <ele>190.4</ele>
        <time>2026-03-29T14:40:26Z</time>
      </trkpt>
      <trkpt lat="48.70896" lon="2.00349">
        <ele>190.4</ele>
        <time>2026-03-29T14:40:27Z</time>
      </trkpt>
      <trkpt lat="48.70895" lon="2.00355">
        <ele>190.4</ele>
        <time>2026-03-29T14:40:28Z</time>
      </trkpt>
      <trkpt lat="48.70894" lon="2.00363">
        <ele>190.4</ele>
        <time>2026-03-29T14:40:29Z</time>
      </trkpt>
      <trkpt lat="48.70893" lon="2.00369">
        <ele>190</ele>
        <time>2026-03-29T14:40:30Z</time>
      </trkpt>
      <trkpt lat="48.70893" lon="2.00377">
        <ele>190</ele>
        <time>2026-03-29T14:40:31Z</time>
      </trkpt>
      <trkpt lat="48.70893" lon="2.00386">
        <ele>190</ele>
        <time>2026-03-29T14:40:32Z</time>
      </trkpt>
      <trkpt lat="48.70894" lon="2.00394">
        <ele>190</ele>
        <time>2026-03-29T14:40:33Z</time>
      </trkpt>
      <trkpt lat="48.70894" lon="2.00402">
        <ele>190.4</ele>
        <time>2026-03-29T14:40:34Z</time>
      </trkpt>
      <trkpt lat="48.70894" lon="2.0041">
        <ele>190.4</ele>
        <time>2026-03-29T14:40:35Z</time>
      </trkpt>
      <trkpt lat="48.70894" lon="2.00418">
        <ele>190.4</ele>
        <time>2026-03-29T14:40:36Z</time>
      </trkpt>
      <trkpt lat="48.70896" lon="2.00426">
        <ele>190.6</ele>
        <time>2026-03-29T14:40:37Z</time>
      </trkpt>
      <trkpt lat="48.70897" lon="2.00434">
        <ele>190.2</ele>
        <time>2026-03-29T14:40:38Z</time>
      </trkpt>
      <trkpt lat="48.70899" lon="2.00441">
        <ele>190.2</ele>
        <time>2026-03-29T14:40:39Z</time>
      </trkpt>
      <trkpt lat="48.709" lon="2.00449">
        <ele>190.2</ele>
        <time>2026-03-29T14:40:40Z</time>
      </trkpt>
      <trkpt lat="48.709" lon="2.00456">
        <ele>190.8</ele>
        <time>2026-03-29T14:40:41Z</time>
      </trkpt>
      <trkpt lat="48.70901" lon="2.00464">
        <ele>190.8</ele>
        <time>2026-03-29T14:40:42Z</time>
      </trkpt>
      <trkpt lat="48.70902" lon="2.00471">
        <ele>190.8</ele>
        <time>2026-03-29T14:40:43Z</time>
      </trkpt>
      <trkpt lat="48.70903" lon="2.00479">
        <ele>190.8</ele>
        <time>2026-03-29T14:40:44Z</time>
      </trkpt>
      <trkpt lat="48.70903" lon="2.00486">
        <ele>190.8</ele>
        <time>2026-03-29T14:40:45Z</time>
      </trkpt>
      <trkpt lat="48.70904" lon="2.00494">
        <ele>190.8</ele>
        <time>2026-03-29T14:40:46Z</time>
      </trkpt>
      <trkpt lat="48.70906" lon="2.00502">
        <ele>190.8</ele>
        <time>2026-03-29T14:40:47Z</time>
      </trkpt>
      <trkpt lat="48.70908" lon="2.0051">
        <ele>190.8</ele>
        <time>2026-03-29T14:40:48Z</time>
      </trkpt>
      <trkpt lat="48.7091" lon="2.00516">
        <ele>190.8</ele>
        <time>2026-03-29T14:40:49Z</time>
      </trkpt>
      <trkpt lat="48.70911" lon="2.00523">
        <ele>191.2</ele>
        <time>2026-03-29T14:40:50Z</time>
      </trkpt>
      <trkpt lat="48.70914" lon="2.0053">
        <ele>191.2</ele>
        <time>2026-03-29T14:40:51Z</time>
      </trkpt>
      <trkpt lat="48.70915" lon="2.00537">
        <ele>191.2</ele>
        <time>2026-03-29T14:40:52Z</time>
      </trkpt>
      <trkpt lat="48.70917" lon="2.00544">
        <ele>191.2</ele>
        <time>2026-03-29T14:40:53Z</time>
      </trkpt>
      <trkpt lat="48.70918" lon="2.0055">
        <ele>191.4</ele>
        <time>2026-03-29T14:40:54Z</time>
      </trkpt>
      <trkpt lat="48.70919" lon="2.00556">
        <ele>191.4</ele>
        <time>2026-03-29T14:40:55Z</time>
      </trkpt>
      <trkpt lat="48.70921" lon="2.00562">
        <ele>191.4</ele>
        <time>2026-03-29T14:40:56Z</time>
      </trkpt>
      <trkpt lat="48.70922" lon="2.00569">
        <ele>191.4</ele>
        <time>2026-03-29T14:40:57Z</time>
      </trkpt>
      <trkpt lat="48.70924" lon="2.00576">
        <ele>191.4</ele>
        <time>2026-03-29T14:40:58Z</time>
      </trkpt>
      <trkpt lat="48.70925" lon="2.00584">
        <ele>191.4</ele>
        <time>2026-03-29T14:40:59Z</time>
      </trkpt>
      <trkpt lat="48.70927" lon="2.00591">
        <ele>191.4</ele>
        <time>2026-03-29T14:41:00Z</time>
      </trkpt>
      <trkpt lat="48.70929" lon="2.00598">
        <ele>192</ele>
        <time>2026-03-29T14:41:01Z</time>
      </trkpt>
      <trkpt lat="48.70931" lon="2.00606">
        <ele>191.8</ele>
        <time>2026-03-29T14:41:02Z</time>
      </trkpt>
      <trkpt lat="48.70933" lon="2.00613">
        <ele>191.8</ele>
        <time>2026-03-29T14:41:03Z</time>
      </trkpt>
      <trkpt lat="48.70937" lon="2.00619">
        <ele>191.8</ele>
        <time>2026-03-29T14:41:04Z</time>
      </trkpt>
      <trkpt lat="48.7094" lon="2.00625">
        <ele>191.8</ele>
        <time>2026-03-29T14:41:05Z</time>
      </trkpt>
      <trkpt lat="48.70943" lon="2.0063">
        <ele>191.8</ele>
        <time>2026-03-29T14:41:06Z</time>
      </trkpt>
      <trkpt lat="48.70947" lon="2.00636">
        <ele>191.8</ele>
        <time>2026-03-29T14:41:07Z</time>
      </trkpt>
      <trkpt lat="48.70951" lon="2.00643">
        <ele>191.8</ele>
        <time>2026-03-29T14:41:08Z</time>
      </trkpt>
      <trkpt lat="48.70955" lon="2.00649">
        <ele>191.8</ele>
        <time>2026-03-29T14:41:09Z</time>
      </trkpt>
      <trkpt lat="48.7096" lon="2.00655">
        <ele>192.6</ele>
        <time>2026-03-29T14:41:10Z</time>
      </trkpt>
      <trkpt lat="48.70964" lon="2.0066">
        <ele>192.6</ele>
        <time>2026-03-29T14:41:11Z</time>
      </trkpt>
      <trkpt lat="48.70968" lon="2.00666">
        <ele>192.6</ele>
        <time>2026-03-29T14:41:12Z</time>
      </trkpt>
      <trkpt lat="48.70972" lon="2.00671">
        <ele>192.2</ele>
        <time>2026-03-29T14:41:13Z</time>
      </trkpt>
      <trkpt lat="48.70976" lon="2.00675">
        <ele>191.8</ele>
        <time>2026-03-29T14:41:14Z</time>
      </trkpt>
      <trkpt lat="48.70981" lon="2.0068">
        <ele>191.8</ele>
        <time>2026-03-29T14:41:15Z</time>
      </trkpt>
      <trkpt lat="48.70985" lon="2.00684">
        <ele>191.8</ele>
        <time>2026-03-29T14:41:16Z</time>
      </trkpt>
      <trkpt lat="48.70989" lon="2.00689">
        <ele>191.8</ele>
        <time>2026-03-29T14:41:17Z</time>
      </trkpt>
      <trkpt lat="48.70994" lon="2.00694">
        <ele>191.6</ele>
        <time>2026-03-29T14:41:18Z</time>
      </trkpt>
      <trkpt lat="48.70998" lon="2.00699">
        <ele>191.6</ele>
        <time>2026-03-29T14:41:19Z</time>
      </trkpt>
      <trkpt lat="48.71001" lon="2.00705">
        <ele>191.6</ele>
        <time>2026-03-29T14:41:20Z</time>
      </trkpt>
      <trkpt lat="48.71003" lon="2.00712">
        <ele>191.6</ele>
        <time>2026-03-29T14:41:21Z</time>
      </trkpt>
      <trkpt lat="48.71003" lon="2.00719">
        <ele>191.8</ele>
        <time>2026-03-29T14:41:22Z</time>
      </trkpt>
      <trkpt lat="48.71002" lon="2.00725">
        <ele>191.8</ele>
        <time>2026-03-29T14:41:23Z</time>
      </trkpt>
      <trkpt lat="48.70999" lon="2.0073">
        <ele>191.8</ele>
        <time>2026-03-29T14:41:24Z</time>
      </trkpt>
      <trkpt lat="48.70997" lon="2.00735">
        <ele>191.8</ele>
        <time>2026-03-29T14:41:25Z</time>
      </trkpt>
      <trkpt lat="48.70996" lon="2.0074">
        <ele>192.4</ele>
        <time>2026-03-29T14:41:26Z</time>
      </trkpt>
      <trkpt lat="48.70994" lon="2.00746">
        <ele>192.4</ele>
        <time>2026-03-29T14:41:27Z</time>
      </trkpt>
      <trkpt lat="48.70992" lon="2.00752">
        <ele>192.4</ele>
        <time>2026-03-29T14:41:28Z</time>
      </trkpt>
      <trkpt lat="48.7099" lon="2.00758">
        <ele>192.2</ele>
        <time>2026-03-29T14:41:29Z</time>
      </trkpt>
      <trkpt lat="48.70988" lon="2.00764">
        <ele>192</ele>
        <time>2026-03-29T14:41:30Z</time>
      </trkpt>
      <trkpt lat="48.70985" lon="2.0077">
        <ele>192</ele>
        <time>2026-03-29T14:41:31Z</time>
      </trkpt>
      <trkpt lat="48.70983" lon="2.00777">
        <ele>192</ele>
        <time>2026-03-29T14:41:32Z</time>
      </trkpt>
      <trkpt lat="48.70981" lon="2.00784">
        <ele>192.4</ele>
        <time>2026-03-29T14:41:33Z</time>
      </trkpt>
      <trkpt lat="48.70978" lon="2.0079">
        <ele>191.8</ele>
        <time>2026-03-29T14:41:34Z</time>
      </trkpt>
      <trkpt lat="48.70977" lon="2.00797">
        <ele>191.8</ele>
        <time>2026-03-29T14:41:35Z</time>
      </trkpt>
      <trkpt lat="48.70976" lon="2.00803">
        <ele>191.8</ele>
        <time>2026-03-29T14:41:36Z</time>
      </trkpt>
      <trkpt lat="48.70974" lon="2.0081">
        <ele>192.4</ele>
        <time>2026-03-29T14:41:37Z</time>
      </trkpt>
      <trkpt lat="48.70972" lon="2.00816">
        <ele>192.4</ele>
        <time>2026-03-29T14:41:38Z</time>
      </trkpt>
      <trkpt lat="48.70971" lon="2.00822">
        <ele>192.4</ele>
        <time>2026-03-29T14:41:39Z</time>
      </trkpt>
      <trkpt lat="48.7097" lon="2.00829">
        <ele>192.4</ele>
        <time>2026-03-29T14:41:40Z</time>
      </trkpt>
      <trkpt lat="48.70968" lon="2.00836">
        <ele>192</ele>
        <time>2026-03-29T14:41:41Z</time>
      </trkpt>
      <trkpt lat="48.70967" lon="2.00843">
        <ele>192.2</ele>
        <time>2026-03-29T14:41:42Z</time>
      </trkpt>
      <trkpt lat="48.70965" lon="2.0085">
        <ele>192.2</ele>
        <time>2026-03-29T14:41:43Z</time>
      </trkpt>
      <trkpt lat="48.70963" lon="2.00857">
        <ele>192.2</ele>
        <time>2026-03-29T14:41:44Z</time>
      </trkpt>
      <trkpt lat="48.70961" lon="2.00865">
        <ele>192.2</ele>
        <time>2026-03-29T14:41:45Z</time>
      </trkpt>
      <trkpt lat="48.70958" lon="2.00873">
        <ele>192</ele>
        <time>2026-03-29T14:41:46Z</time>
      </trkpt>
      <trkpt lat="48.70956" lon="2.00879">
        <ele>192</ele>
        <time>2026-03-29T14:41:47Z</time>
      </trkpt>
      <trkpt lat="48.70954" lon="2.00885">
        <ele>192</ele>
        <time>2026-03-29T14:41:48Z</time>
      </trkpt>
      <trkpt lat="48.70952" lon="2.00892">
        <ele>192.6</ele>
        <time>2026-03-29T14:41:49Z</time>
      </trkpt>
      <trkpt lat="48.7095" lon="2.009">
        <ele>192.6</ele>
        <time>2026-03-29T14:41:50Z</time>
      </trkpt>
      <trkpt lat="48.70948" lon="2.00906">
        <ele>192.6</ele>
        <time>2026-03-29T14:41:51Z</time>
      </trkpt>
      <trkpt lat="48.70946" lon="2.00914">
        <ele>192.6</ele>
        <time>2026-03-29T14:41:52Z</time>
      </trkpt>
      <trkpt lat="48.70945" lon="2.00922">
        <ele>192.6</ele>
        <time>2026-03-29T14:41:53Z</time>
      </trkpt>
      <trkpt lat="48.70943" lon="2.00929">
        <ele>192.8</ele>
        <time>2026-03-29T14:41:54Z</time>
      </trkpt>
      <trkpt lat="48.70942" lon="2.00937">
        <ele>192.8</ele>
        <time>2026-03-29T14:41:55Z</time>
      </trkpt>
      <trkpt lat="48.7094" lon="2.00943">
        <ele>192.8</ele>
        <time>2026-03-29T14:41:56Z</time>
      </trkpt>
      <trkpt lat="48.70938" lon="2.00951">
        <ele>192.8</ele>
        <time>2026-03-29T14:41:57Z</time>
      </trkpt>
      <trkpt lat="48.70936" lon="2.00957">
        <ele>193.4</ele>
        <time>2026-03-29T14:41:58Z</time>
      </trkpt>
      <trkpt lat="48.70936" lon="2.00962">
        <ele>193.4</ele>
        <time>2026-03-29T14:41:59Z</time>
      </trkpt>
      <trkpt lat="48.70933" lon="2.0097">
        <ele>193.4</ele>
        <time>2026-03-29T14:42:00Z</time>
      </trkpt>
      <trkpt lat="48.70933" lon="2.00979">
        <ele>192.8</ele>
        <time>2026-03-29T14:42:01Z</time>
      </trkpt>
      <trkpt lat="48.70931" lon="2.00988">
        <ele>193.4</ele>
        <time>2026-03-29T14:42:02Z</time>
      </trkpt>
      <trkpt lat="48.7093" lon="2.00996">
        <ele>193.4</ele>
        <time>2026-03-29T14:42:03Z</time>
      </trkpt>
      <trkpt lat="48.70928" lon="2.01005">
        <ele>193.4</ele>
        <time>2026-03-29T14:42:04Z</time>
      </trkpt>
      <trkpt lat="48.70925" lon="2.01014">
        <ele>193</ele>
        <time>2026-03-29T14:42:05Z</time>
      </trkpt>
      <trkpt lat="48.70923" lon="2.01023">
        <ele>192.8</ele>
        <time>2026-03-29T14:42:06Z</time>
      </trkpt>
      <trkpt lat="48.7092" lon="2.01031">
        <ele>192.8</ele>
        <time>2026-03-29T14:42:07Z</time>
      </trkpt>
      <trkpt lat="48.70918" lon="2.01039">
        <ele>192.8</ele>
        <time>2026-03-29T14:42:08Z</time>
      </trkpt>
      <trkpt lat="48.70915" lon="2.01047">
        <ele>192.8</ele>
        <time>2026-03-29T14:42:09Z</time>
      </trkpt>
      <trkpt lat="48.70914" lon="2.01056">
        <ele>192.2</ele>
        <time>2026-03-29T14:42:10Z</time>
      </trkpt>
      <trkpt lat="48.70912" lon="2.01064">
        <ele>192.2</ele>
        <time>2026-03-29T14:42:11Z</time>
      </trkpt>
      <trkpt lat="48.7091" lon="2.01072">
        <ele>192.2</ele>
        <time>2026-03-29T14:42:12Z</time>
      </trkpt>
      <trkpt lat="48.70909" lon="2.01079">
        <ele>192.2</ele>
        <time>2026-03-29T14:42:13Z</time>
      </trkpt>
      <trkpt lat="48.70907" lon="2.01087">
        <ele>192.8</ele>
        <time>2026-03-29T14:42:14Z</time>
      </trkpt>
      <trkpt lat="48.70904" lon="2.01097">
        <ele>192.8</ele>
        <time>2026-03-29T14:42:15Z</time>
      </trkpt>
      <trkpt lat="48.70901" lon="2.01107">
        <ele>192.8</ele>
        <time>2026-03-29T14:42:16Z</time>
      </trkpt>
      <trkpt lat="48.70899" lon="2.01116">
        <ele>192.4</ele>
        <time>2026-03-29T14:42:17Z</time>
      </trkpt>
      <trkpt lat="48.70897" lon="2.01126">
        <ele>192.4</ele>
        <time>2026-03-29T14:42:18Z</time>
      </trkpt>
      <trkpt lat="48.70895" lon="2.01135">
        <ele>192.4</ele>
        <time>2026-03-29T14:42:19Z</time>
      </trkpt>
      <trkpt lat="48.70894" lon="2.01144">
        <ele>192.4</ele>
        <time>2026-03-29T14:42:20Z</time>
      </trkpt>
      <trkpt lat="48.70892" lon="2.01154">
        <ele>192.4</ele>
        <time>2026-03-29T14:42:21Z</time>
      </trkpt>
      <trkpt lat="48.70889" lon="2.01164">
        <ele>192.8</ele>
        <time>2026-03-29T14:42:22Z</time>
      </trkpt>
      <trkpt lat="48.70887" lon="2.01173">
        <ele>192.8</ele>
        <time>2026-03-29T14:42:23Z</time>
      </trkpt>
      <trkpt lat="48.70885" lon="2.01182">
        <ele>192.8</ele>
        <time>2026-03-29T14:42:24Z</time>
      </trkpt>
      <trkpt lat="48.70882" lon="2.01192">
        <ele>192</ele>
        <time>2026-03-29T14:42:25Z</time>
      </trkpt>
      <trkpt lat="48.7088" lon="2.01202">
        <ele>192.4</ele>
        <time>2026-03-29T14:42:26Z</time>
      </trkpt>
      <trkpt lat="48.70878" lon="2.01212">
        <ele>192.4</ele>
        <time>2026-03-29T14:42:27Z</time>
      </trkpt>
      <trkpt lat="48.70875" lon="2.01221">
        <ele>192.4</ele>
        <time>2026-03-29T14:42:28Z</time>
      </trkpt>
      <trkpt lat="48.70873" lon="2.01231">
        <ele>191.8</ele>
        <time>2026-03-29T14:42:29Z</time>
      </trkpt>
      <trkpt lat="48.7087" lon="2.01241">
        <ele>191.2</ele>
        <time>2026-03-29T14:42:30Z</time>
      </trkpt>
      <trkpt lat="48.70868" lon="2.01251">
        <ele>191.2</ele>
        <time>2026-03-29T14:42:31Z</time>
      </trkpt>
      <trkpt lat="48.70865" lon="2.01261">
        <ele>191.2</ele>
        <time>2026-03-29T14:42:32Z</time>
      </trkpt>
      <trkpt lat="48.70863" lon="2.01271">
        <ele>191.8</ele>
        <time>2026-03-29T14:42:33Z</time>
      </trkpt>
      <trkpt lat="48.70859" lon="2.01281">
        <ele>191.4</ele>
        <time>2026-03-29T14:42:34Z</time>
      </trkpt>
      <trkpt lat="48.70857" lon="2.01291">
        <ele>191.4</ele>
        <time>2026-03-29T14:42:35Z</time>
      </trkpt>
      <trkpt lat="48.70854" lon="2.013">
        <ele>191.4</ele>
        <time>2026-03-29T14:42:36Z</time>
      </trkpt>
      <trkpt lat="48.70851" lon="2.01308">
        <ele>191.4</ele>
        <time>2026-03-29T14:42:37Z</time>
      </trkpt>
      <trkpt lat="48.70849" lon="2.01317">
        <ele>191.8</ele>
        <time>2026-03-29T14:42:38Z</time>
      </trkpt>
      <trkpt lat="48.70847" lon="2.01325">
        <ele>191.8</ele>
        <time>2026-03-29T14:42:39Z</time>
      </trkpt>
      <trkpt lat="48.70844" lon="2.01333">
        <ele>191.8</ele>
        <time>2026-03-29T14:42:40Z</time>
      </trkpt>
      <trkpt lat="48.70842" lon="2.01341">
        <ele>190.8</ele>
        <time>2026-03-29T14:42:41Z</time>
      </trkpt>
      <trkpt lat="48.7084" lon="2.0135">
        <ele>191.4</ele>
        <time>2026-03-29T14:42:42Z</time>
      </trkpt>
      <trkpt lat="48.70838" lon="2.01358">
        <ele>191.4</ele>
        <time>2026-03-29T14:42:43Z</time>
      </trkpt>
      <trkpt lat="48.70836" lon="2.01366">
        <ele>191.4</ele>
        <time>2026-03-29T14:42:44Z</time>
      </trkpt>
      <trkpt lat="48.70834" lon="2.01374">
        <ele>191</ele>
        <time>2026-03-29T14:42:45Z</time>
      </trkpt>
      <trkpt lat="48.70831" lon="2.01381">
        <ele>191</ele>
        <time>2026-03-29T14:42:46Z</time>
      </trkpt>
      <trkpt lat="48.7083" lon="2.01388">
        <ele>191</ele>
        <time>2026-03-29T14:42:47Z</time>
      </trkpt>
      <trkpt lat="48.70829" lon="2.01396">
        <ele>191</ele>
        <time>2026-03-29T14:42:48Z</time>
      </trkpt>
      <trkpt lat="48.70827" lon="2.01404">
        <ele>191</ele>
        <time>2026-03-29T14:42:49Z</time>
      </trkpt>
      <trkpt lat="48.70826" lon="2.01412">
        <ele>191</ele>
        <time>2026-03-29T14:42:50Z</time>
      </trkpt>
      <trkpt lat="48.70824" lon="2.01419">
        <ele>191</ele>
        <time>2026-03-29T14:42:51Z</time>
      </trkpt>
      <trkpt lat="48.70823" lon="2.01429">
        <ele>191</ele>
        <time>2026-03-29T14:42:52Z</time>
      </trkpt>
      <trkpt lat="48.70822" lon="2.01437">
        <ele>191</ele>
        <time>2026-03-29T14:42:53Z</time>
      </trkpt>
      <trkpt lat="48.70821" lon="2.01446">
        <ele>191</ele>
        <time>2026-03-29T14:42:54Z</time>
      </trkpt>
      <trkpt lat="48.7082" lon="2.01454">
        <ele>191</ele>
        <time>2026-03-29T14:42:55Z</time>
      </trkpt>
      <trkpt lat="48.70819" lon="2.01463">
        <ele>191</ele>
        <time>2026-03-29T14:42:56Z</time>
      </trkpt>
      <trkpt lat="48.70817" lon="2.01472">
        <ele>190.8</ele>
        <time>2026-03-29T14:42:57Z</time>
      </trkpt>
      <trkpt lat="48.70815" lon="2.01482">
        <ele>191</ele>
        <time>2026-03-29T14:42:58Z</time>
      </trkpt>
      <trkpt lat="48.70813" lon="2.01491">
        <ele>191</ele>
        <time>2026-03-29T14:42:59Z</time>
      </trkpt>
      <trkpt lat="48.7081" lon="2.015">
        <ele>191</ele>
        <time>2026-03-29T14:43:00Z</time>
      </trkpt>
      <trkpt lat="48.70808" lon="2.01508">
        <ele>191</ele>
        <time>2026-03-29T14:43:01Z</time>
      </trkpt>
      <trkpt lat="48.70806" lon="2.01517">
        <ele>191.4</ele>
        <time>2026-03-29T14:43:02Z</time>
      </trkpt>
      <trkpt lat="48.70804" lon="2.01525">
        <ele>191.4</ele>
        <time>2026-03-29T14:43:03Z</time>
      </trkpt>
      <trkpt lat="48.70802" lon="2.01534">
        <ele>191.4</ele>
        <time>2026-03-29T14:43:04Z</time>
      </trkpt>
      <trkpt lat="48.708" lon="2.01541">
        <ele>190.8</ele>
        <time>2026-03-29T14:43:05Z</time>
      </trkpt>
      <trkpt lat="48.70798" lon="2.0155">
        <ele>190.6</ele>
        <time>2026-03-29T14:43:06Z</time>
      </trkpt>
      <trkpt lat="48.70796" lon="2.01559">
        <ele>190.6</ele>
        <time>2026-03-29T14:43:07Z</time>
      </trkpt>
      <trkpt lat="48.70794" lon="2.01567">
        <ele>190.6</ele>
        <time>2026-03-29T14:43:08Z</time>
      </trkpt>
      <trkpt lat="48.70792" lon="2.01575">
        <ele>190.6</ele>
        <time>2026-03-29T14:43:09Z</time>
      </trkpt>
      <trkpt lat="48.7079" lon="2.01584">
        <ele>190.6</ele>
        <time>2026-03-29T14:43:10Z</time>
      </trkpt>
      <trkpt lat="48.70789" lon="2.01592">
        <ele>190.6</ele>
        <time>2026-03-29T14:43:11Z</time>
      </trkpt>
      <trkpt lat="48.70787" lon="2.01601">
        <ele>190.6</ele>
        <time>2026-03-29T14:43:12Z</time>
      </trkpt>
      <trkpt lat="48.70785" lon="2.0161">
        <ele>190.6</ele>
        <time>2026-03-29T14:43:13Z</time>
      </trkpt>
      <trkpt lat="48.70784" lon="2.01619">
        <ele>190.4</ele>
        <time>2026-03-29T14:43:14Z</time>
      </trkpt>
      <trkpt lat="48.70781" lon="2.01628">
        <ele>190.4</ele>
        <time>2026-03-29T14:43:15Z</time>
      </trkpt>
      <trkpt lat="48.70778" lon="2.01638">
        <ele>190.4</ele>
        <time>2026-03-29T14:43:16Z</time>
      </trkpt>
      <trkpt lat="48.70776" lon="2.01647">
        <ele>190.4</ele>
        <time>2026-03-29T14:43:17Z</time>
      </trkpt>
      <trkpt lat="48.70774" lon="2.01656">
        <ele>190.4</ele>
        <time>2026-03-29T14:43:18Z</time>
      </trkpt>
      <trkpt lat="48.70771" lon="2.01664">
        <ele>190.4</ele>
        <time>2026-03-29T14:43:19Z</time>
      </trkpt>
      <trkpt lat="48.70769" lon="2.01673">
        <ele>190.4</ele>
        <time>2026-03-29T14:43:20Z</time>
      </trkpt>
      <trkpt lat="48.70766" lon="2.01681">
        <ele>189.6</ele>
        <time>2026-03-29T14:43:21Z</time>
      </trkpt>
      <trkpt lat="48.70765" lon="2.01689">
        <ele>189.8</ele>
        <time>2026-03-29T14:43:22Z</time>
      </trkpt>
      <trkpt lat="48.70762" lon="2.01697">
        <ele>189.8</ele>
        <time>2026-03-29T14:43:23Z</time>
      </trkpt>
      <trkpt lat="48.70762" lon="2.01707">
        <ele>189.8</ele>
        <time>2026-03-29T14:43:24Z</time>
      </trkpt>
      <trkpt lat="48.7076" lon="2.01716">
        <ele>189.8</ele>
        <time>2026-03-29T14:43:25Z</time>
      </trkpt>
      <trkpt lat="48.70759" lon="2.01725">
        <ele>189.6</ele>
        <time>2026-03-29T14:43:26Z</time>
      </trkpt>
      <trkpt lat="48.70758" lon="2.01734">
        <ele>189.6</ele>
        <time>2026-03-29T14:43:27Z</time>
      </trkpt>
      <trkpt lat="48.70756" lon="2.01744">
        <ele>189.6</ele>
        <time>2026-03-29T14:43:28Z</time>
      </trkpt>
      <trkpt lat="48.70754" lon="2.01754">
        <ele>189.2</ele>
        <time>2026-03-29T14:43:29Z</time>
      </trkpt>
      <trkpt lat="48.70751" lon="2.01764">
        <ele>189.4</ele>
        <time>2026-03-29T14:43:30Z</time>
      </trkpt>
      <trkpt lat="48.70747" lon="2.01774">
        <ele>189.4</ele>
        <time>2026-03-29T14:43:31Z</time>
      </trkpt>
      <trkpt lat="48.70744" lon="2.01784">
        <ele>189.4</ele>
        <time>2026-03-29T14:43:32Z</time>
      </trkpt>
      <trkpt lat="48.70741" lon="2.01794">
        <ele>189</ele>
        <time>2026-03-29T14:43:33Z</time>
      </trkpt>
      <trkpt lat="48.70738" lon="2.01805">
        <ele>188.4</ele>
        <time>2026-03-29T14:43:34Z</time>
      </trkpt>
      <trkpt lat="48.70734" lon="2.01817">
        <ele>188.4</ele>
        <time>2026-03-29T14:43:35Z</time>
      </trkpt>
      <trkpt lat="48.70732" lon="2.01829">
        <ele>188.4</ele>
        <time>2026-03-29T14:43:36Z</time>
      </trkpt>
      <trkpt lat="48.70729" lon="2.01841">
        <ele>189.2</ele>
        <time>2026-03-29T14:43:37Z</time>
      </trkpt>
      <trkpt lat="48.70727" lon="2.01852">
        <ele>188.8</ele>
        <time>2026-03-29T14:43:38Z</time>
      </trkpt>
      <trkpt lat="48.70724" lon="2.01864">
        <ele>188.8</ele>
        <time>2026-03-29T14:43:39Z</time>
      </trkpt>
      <trkpt lat="48.70721" lon="2.01875">
        <ele>188.8</ele>
        <time>2026-03-29T14:43:40Z</time>
      </trkpt>
      <trkpt lat="48.70718" lon="2.01887">
        <ele>188.8</ele>
        <time>2026-03-29T14:43:41Z</time>
      </trkpt>
      <trkpt lat="48.70716" lon="2.01898">
        <ele>188.6</ele>
        <time>2026-03-29T14:43:42Z</time>
      </trkpt>
      <trkpt lat="48.70714" lon="2.0191">
        <ele>188.6</ele>
        <time>2026-03-29T14:43:43Z</time>
      </trkpt>
      <trkpt lat="48.70712" lon="2.01921">
        <ele>188.6</ele>
        <time>2026-03-29T14:43:44Z</time>
      </trkpt>
      <trkpt lat="48.70711" lon="2.01933">
        <ele>188</ele>
        <time>2026-03-29T14:43:45Z</time>
      </trkpt>
      <trkpt lat="48.7071" lon="2.01944">
        <ele>188.2</ele>
        <time>2026-03-29T14:43:46Z</time>
      </trkpt>
      <trkpt lat="48.70709" lon="2.01955">
        <ele>188.2</ele>
        <time>2026-03-29T14:43:47Z</time>
      </trkpt>
      <trkpt lat="48.70709" lon="2.01966">
        <ele>188.2</ele>
        <time>2026-03-29T14:43:48Z</time>
      </trkpt>
      <trkpt lat="48.7071" lon="2.01978">
        <ele>187.6</ele>
        <time>2026-03-29T14:43:49Z</time>
      </trkpt>
      <trkpt lat="48.7071" lon="2.01988">
        <ele>186.8</ele>
        <time>2026-03-29T14:43:50Z</time>
      </trkpt>
      <trkpt lat="48.70709" lon="2.01998">
        <ele>186.8</ele>
        <time>2026-03-29T14:43:51Z</time>
      </trkpt>
      <trkpt lat="48.70709" lon="2.02007">
        <ele>186.8</ele>
        <time>2026-03-29T14:43:52Z</time>
      </trkpt>
      <trkpt lat="48.70709" lon="2.02018">
        <ele>186.8</ele>
        <time>2026-03-29T14:43:53Z</time>
      </trkpt>
      <trkpt lat="48.7071" lon="2.02028">
        <ele>186.8</ele>
        <time>2026-03-29T14:43:54Z</time>
      </trkpt>
      <trkpt lat="48.70711" lon="2.02039">
        <ele>186.8</ele>
        <time>2026-03-29T14:43:55Z</time>
      </trkpt>
      <trkpt lat="48.70711" lon="2.02049">
        <ele>186.8</ele>
        <time>2026-03-29T14:43:56Z</time>
      </trkpt>
      <trkpt lat="48.70711" lon="2.02059">
        <ele>186.6</ele>
        <time>2026-03-29T14:43:57Z</time>
      </trkpt>
      <trkpt lat="48.70712" lon="2.0207">
        <ele>186.4</ele>
        <time>2026-03-29T14:43:58Z</time>
      </trkpt>
      <trkpt lat="48.70711" lon="2.0208">
        <ele>186.4</ele>
        <time>2026-03-29T14:43:59Z</time>
      </trkpt>
      <trkpt lat="48.70712" lon="2.0209">
        <ele>186.4</ele>
        <time>2026-03-29T14:44:00Z</time>
      </trkpt>
      <trkpt lat="48.70711" lon="2.02099">
        <ele>186.4</ele>
        <time>2026-03-29T14:44:01Z</time>
      </trkpt>
      <trkpt lat="48.70712" lon="2.02108">
        <ele>186.6</ele>
        <time>2026-03-29T14:44:02Z</time>
      </trkpt>
      <trkpt lat="48.70711" lon="2.02116">
        <ele>186.6</ele>
        <time>2026-03-29T14:44:03Z</time>
      </trkpt>
      <trkpt lat="48.70711" lon="2.02125">
        <ele>186.6</ele>
        <time>2026-03-29T14:44:04Z</time>
      </trkpt>
      <trkpt lat="48.70711" lon="2.02134">
        <ele>186.6</ele>
        <time>2026-03-29T14:44:05Z</time>
      </trkpt>
      <trkpt lat="48.70711" lon="2.02144">
        <ele>186.4</ele>
        <time>2026-03-29T14:44:06Z</time>
      </trkpt>
      <trkpt lat="48.70711" lon="2.02155">
        <ele>186.4</ele>
        <time>2026-03-29T14:44:07Z</time>
      </trkpt>
      <trkpt lat="48.7071" lon="2.02166">
        <ele>186.4</ele>
        <time>2026-03-29T14:44:08Z</time>
      </trkpt>
      <trkpt lat="48.70711" lon="2.02176">
        <ele>186.4</ele>
        <time>2026-03-29T14:44:09Z</time>
      </trkpt>
      <trkpt lat="48.70709" lon="2.02186">
        <ele>185.6</ele>
        <time>2026-03-29T14:44:10Z</time>
      </trkpt>
      <trkpt lat="48.70708" lon="2.02197">
        <ele>185.6</ele>
        <time>2026-03-29T14:44:11Z</time>
      </trkpt>
      <trkpt lat="48.70707" lon="2.02207">
        <ele>185.6</ele>
        <time>2026-03-29T14:44:12Z</time>
      </trkpt>
      <trkpt lat="48.70705" lon="2.02217">
        <ele>186.4</ele>
        <time>2026-03-29T14:44:13Z</time>
      </trkpt>
      <trkpt lat="48.70705" lon="2.02227">
        <ele>186</ele>
        <time>2026-03-29T14:44:14Z</time>
      </trkpt>
      <trkpt lat="48.70704" lon="2.02237">
        <ele>186</ele>
        <time>2026-03-29T14:44:15Z</time>
      </trkpt>
      <trkpt lat="48.70702" lon="2.02248">
        <ele>186</ele>
        <time>2026-03-29T14:44:16Z</time>
      </trkpt>
      <trkpt lat="48.70701" lon="2.02259">
        <ele>186</ele>
        <time>2026-03-29T14:44:17Z</time>
      </trkpt>
      <trkpt lat="48.707" lon="2.0227">
        <ele>185.4</ele>
        <time>2026-03-29T14:44:18Z</time>
      </trkpt>
      <trkpt lat="48.70699" lon="2.02282">
        <ele>185.4</ele>
        <time>2026-03-29T14:44:19Z</time>
      </trkpt>
      <trkpt lat="48.70698" lon="2.02294">
        <ele>185.4</ele>
        <time>2026-03-29T14:44:20Z</time>
      </trkpt>
      <trkpt lat="48.70697" lon="2.02306">
        <ele>185.4</ele>
        <time>2026-03-29T14:44:21Z</time>
      </trkpt>
      <trkpt lat="48.70696" lon="2.02317">
        <ele>185.6</ele>
        <time>2026-03-29T14:44:22Z</time>
      </trkpt>
      <trkpt lat="48.70695" lon="2.02328">
        <ele>185.6</ele>
        <time>2026-03-29T14:44:23Z</time>
      </trkpt>
      <trkpt lat="48.70694" lon="2.02339">
        <ele>185.6</ele>
        <time>2026-03-29T14:44:24Z</time>
      </trkpt>
      <trkpt lat="48.70694" lon="2.0235">
        <ele>184.8</ele>
        <time>2026-03-29T14:44:25Z</time>
      </trkpt>
      <trkpt lat="48.70693" lon="2.0236">
        <ele>184.2</ele>
        <time>2026-03-29T14:44:26Z</time>
      </trkpt>
      <trkpt lat="48.70692" lon="2.02371">
        <ele>184.2</ele>
        <time>2026-03-29T14:44:27Z</time>
      </trkpt>
      <trkpt lat="48.70691" lon="2.02382">
        <ele>184.2</ele>
        <time>2026-03-29T14:44:28Z</time>
      </trkpt>
      <trkpt lat="48.70691" lon="2.02393">
        <ele>184.6</ele>
        <time>2026-03-29T14:44:29Z</time>
      </trkpt>
      <trkpt lat="48.7069" lon="2.02405">
        <ele>184</ele>
        <time>2026-03-29T14:44:30Z</time>
      </trkpt>
      <trkpt lat="48.7069" lon="2.02416">
        <ele>184</ele>
        <time>2026-03-29T14:44:31Z</time>
      </trkpt>
      <trkpt lat="48.70691" lon="2.02427">
        <ele>184</ele>
        <time>2026-03-29T14:44:32Z</time>
      </trkpt>
      <trkpt lat="48.70692" lon="2.02439">
        <ele>184</ele>
        <time>2026-03-29T14:44:33Z</time>
      </trkpt>
      <trkpt lat="48.70695" lon="2.0245">
        <ele>183.4</ele>
        <time>2026-03-29T14:44:34Z</time>
      </trkpt>
      <trkpt lat="48.70698" lon="2.02461">
        <ele>183.4</ele>
        <time>2026-03-29T14:44:35Z</time>
      </trkpt>
      <trkpt lat="48.70701" lon="2.02472">
        <ele>183.4</ele>
        <time>2026-03-29T14:44:36Z</time>
      </trkpt>
      <trkpt lat="48.70704" lon="2.02484">
        <ele>183.4</ele>
        <time>2026-03-29T14:44:37Z</time>
      </trkpt>
      <trkpt lat="48.70707" lon="2.02495">
        <ele>182.6</ele>
        <time>2026-03-29T14:44:38Z</time>
      </trkpt>
      <trkpt lat="48.7071" lon="2.02506">
        <ele>182.6</ele>
        <time>2026-03-29T14:44:39Z</time>
      </trkpt>
      <trkpt lat="48.70714" lon="2.02517">
        <ele>182.6</ele>
        <time>2026-03-29T14:44:40Z</time>
      </trkpt>
      <trkpt lat="48.70718" lon="2.02528">
        <ele>181.8</ele>
        <time>2026-03-29T14:44:41Z</time>
      </trkpt>
      <trkpt lat="48.70721" lon="2.02539">
        <ele>181.2</ele>
        <time>2026-03-29T14:44:42Z</time>
      </trkpt>
      <trkpt lat="48.70723" lon="2.0255">
        <ele>181.2</ele>
        <time>2026-03-29T14:44:43Z</time>
      </trkpt>
      <trkpt lat="48.70724" lon="2.02562">
        <ele>181.2</ele>
        <time>2026-03-29T14:44:44Z</time>
      </trkpt>
      <trkpt lat="48.70725" lon="2.02575">
        <ele>180.2</ele>
        <time>2026-03-29T14:44:45Z</time>
      </trkpt>
      <trkpt lat="48.70727" lon="2.02589">
        <ele>179.6</ele>
        <time>2026-03-29T14:44:46Z</time>
      </trkpt>
      <trkpt lat="48.70728" lon="2.02602">
        <ele>179.6</ele>
        <time>2026-03-29T14:44:47Z</time>
      </trkpt>
      <trkpt lat="48.70729" lon="2.02611">
        <ele>179.6</ele>
        <time>2026-03-29T14:44:48Z</time>
      </trkpt>
      <trkpt lat="48.7073" lon="2.02621">
        <ele>178.6</ele>
        <time>2026-03-29T14:44:49Z</time>
      </trkpt>
      <trkpt lat="48.70731" lon="2.02632">
        <ele>175.2</ele>
        <time>2026-03-29T14:44:50Z</time>
      </trkpt>
      <trkpt lat="48.70732" lon="2.02644">
        <ele>175.2</ele>
        <time>2026-03-29T14:44:51Z</time>
      </trkpt>
      <trkpt lat="48.70732" lon="2.02654">
        <ele>175.2</ele>
        <time>2026-03-29T14:44:52Z</time>
      </trkpt>
      <trkpt lat="48.70731" lon="2.02663">
        <ele>174.2</ele>
        <time>2026-03-29T14:44:53Z</time>
      </trkpt>
      <trkpt lat="48.70731" lon="2.02671">
        <ele>170.8</ele>
        <time>2026-03-29T14:44:54Z</time>
      </trkpt>
      <trkpt lat="48.70732" lon="2.02682">
        <ele>170.8</ele>
        <time>2026-03-29T14:44:55Z</time>
      </trkpt>
      <trkpt lat="48.70734" lon="2.02692">
        <ele>170.8</ele>
        <time>2026-03-29T14:44:56Z</time>
      </trkpt>
      <trkpt lat="48.70736" lon="2.02703">
        <ele>169.8</ele>
        <time>2026-03-29T14:44:57Z</time>
      </trkpt>
      <trkpt lat="48.70738" lon="2.02712">
        <ele>165.6</ele>
        <time>2026-03-29T14:44:58Z</time>
      </trkpt>
      <trkpt lat="48.70741" lon="2.02721">
        <ele>165.6</ele>
        <time>2026-03-29T14:44:59Z</time>
      </trkpt>
      <trkpt lat="48.70743" lon="2.02732">
        <ele>165.6</ele>
        <time>2026-03-29T14:45:00Z</time>
      </trkpt>
      <trkpt lat="48.70744" lon="2.02743">
        <ele>164.6</ele>
        <time>2026-03-29T14:45:01Z</time>
      </trkpt>
      <trkpt lat="48.70746" lon="2.02754">
        <ele>161.2</ele>
        <time>2026-03-29T14:45:02Z</time>
      </trkpt>
      <trkpt lat="48.70749" lon="2.02762">
        <ele>161.2</ele>
        <time>2026-03-29T14:45:03Z</time>
      </trkpt>
      <trkpt lat="48.70751" lon="2.02769">
        <ele>161.2</ele>
        <time>2026-03-29T14:45:04Z</time>
      </trkpt>
      <trkpt lat="48.70753" lon="2.02775">
        <ele>160.2</ele>
        <time>2026-03-29T14:45:05Z</time>
      </trkpt>
      <trkpt lat="48.70755" lon="2.0278">
        <ele>157.6</ele>
        <time>2026-03-29T14:45:06Z</time>
      </trkpt>
      <trkpt lat="48.70757" lon="2.02786">
        <ele>157.6</ele>
        <time>2026-03-29T14:45:07Z</time>
      </trkpt>
      <trkpt lat="48.7076" lon="2.02794">
        <ele>157.6</ele>
        <time>2026-03-29T14:45:08Z</time>
      </trkpt>
      <trkpt lat="48.70763" lon="2.02805">
        <ele>156.6</ele>
        <time>2026-03-29T14:45:09Z</time>
      </trkpt>
      <trkpt lat="48.70767" lon="2.02816">
        <ele>155</ele>
        <time>2026-03-29T14:45:10Z</time>
      </trkpt>
      <trkpt lat="48.70771" lon="2.02829">
        <ele>155</ele>
        <time>2026-03-29T14:45:11Z</time>
      </trkpt>
      <trkpt lat="48.70776" lon="2.02842">
        <ele>155</ele>
        <time>2026-03-29T14:45:12Z</time>
      </trkpt>
      <trkpt lat="48.70781" lon="2.02857">
        <ele>154</ele>
        <time>2026-03-29T14:45:13Z</time>
      </trkpt>
      <trkpt lat="48.70785" lon="2.02869">
        <ele>148</ele>
        <time>2026-03-29T14:45:14Z</time>
      </trkpt>
      <trkpt lat="48.70788" lon="2.02879">
        <ele>148</ele>
        <time>2026-03-29T14:45:15Z</time>
      </trkpt>
      <trkpt lat="48.70793" lon="2.02891">
        <ele>148</ele>
        <time>2026-03-29T14:45:16Z</time>
      </trkpt>
      <trkpt lat="48.70796" lon="2.02904">
        <ele>147</ele>
        <time>2026-03-29T14:45:17Z</time>
      </trkpt>
      <trkpt lat="48.708" lon="2.02914">
        <ele>141.4</ele>
        <time>2026-03-29T14:45:18Z</time>
      </trkpt>
      <trkpt lat="48.70803" lon="2.02924">
        <ele>141.4</ele>
        <time>2026-03-29T14:45:19Z</time>
      </trkpt>
      <trkpt lat="48.70805" lon="2.02935">
        <ele>141.4</ele>
        <time>2026-03-29T14:45:20Z</time>
      </trkpt>
      <trkpt lat="48.70803" lon="2.02948">
        <ele>140.4</ele>
        <time>2026-03-29T14:45:21Z</time>
      </trkpt>
      <trkpt lat="48.70802" lon="2.0296">
        <ele>137</ele>
        <time>2026-03-29T14:45:22Z</time>
      </trkpt>
      <trkpt lat="48.708" lon="2.02972">
        <ele>137</ele>
        <time>2026-03-29T14:45:23Z</time>
      </trkpt>
      <trkpt lat="48.70797" lon="2.02985">
        <ele>137</ele>
        <time>2026-03-29T14:45:24Z</time>
      </trkpt>
      <trkpt lat="48.70792" lon="2.02999">
        <ele>136</ele>
        <time>2026-03-29T14:45:25Z</time>
      </trkpt>
      <trkpt lat="48.70787" lon="2.03013">
        <ele>132.8</ele>
        <time>2026-03-29T14:45:26Z</time>
      </trkpt>
      <trkpt lat="48.70783" lon="2.03027">
        <ele>132.8</ele>
        <time>2026-03-29T14:45:27Z</time>
      </trkpt>
      <trkpt lat="48.70778" lon="2.03038">
        <ele>132.8</ele>
        <time>2026-03-29T14:45:28Z</time>
      </trkpt>
      <trkpt lat="48.70772" lon="2.0305">
        <ele>131.8</ele>
        <time>2026-03-29T14:45:29Z</time>
      </trkpt>
      <trkpt lat="48.70765" lon="2.03063">
        <ele>128.4</ele>
        <time>2026-03-29T14:45:30Z</time>
      </trkpt>
      <trkpt lat="48.70759" lon="2.03074">
        <ele>128.4</ele>
        <time>2026-03-29T14:45:31Z</time>
      </trkpt>
      <trkpt lat="48.70753" lon="2.03085">
        <ele>128.4</ele>
        <time>2026-03-29T14:45:32Z</time>
      </trkpt>
      <trkpt lat="48.70746" lon="2.03096">
        <ele>127.4</ele>
        <time>2026-03-29T14:45:33Z</time>
      </trkpt>
      <trkpt lat="48.7074" lon="2.03106">
        <ele>125.8</ele>
        <time>2026-03-29T14:45:34Z</time>
      </trkpt>
      <trkpt lat="48.70733" lon="2.03116">
        <ele>125.8</ele>
        <time>2026-03-29T14:45:35Z</time>
      </trkpt>
      <trkpt lat="48.70726" lon="2.03126">
        <ele>125.8</ele>
        <time>2026-03-29T14:45:36Z</time>
      </trkpt>
      <trkpt lat="48.70718" lon="2.03136">
        <ele>124.8</ele>
        <time>2026-03-29T14:45:37Z</time>
      </trkpt>
      <trkpt lat="48.70711" lon="2.03144">
        <ele>122</ele>
        <time>2026-03-29T14:45:38Z</time>
      </trkpt>
      <trkpt lat="48.70703" lon="2.03151">
        <ele>122</ele>
        <time>2026-03-29T14:45:39Z</time>
      </trkpt>
      <trkpt lat="48.70695" lon="2.03158">
        <ele>122</ele>
        <time>2026-03-29T14:45:40Z</time>
      </trkpt>
      <trkpt lat="48.70687" lon="2.03164">
        <ele>121</ele>
        <time>2026-03-29T14:45:41Z</time>
      </trkpt>
      <trkpt lat="48.70679" lon="2.03169">
        <ele>119.8</ele>
        <time>2026-03-29T14:45:42Z</time>
      </trkpt>
      <trkpt lat="48.7067" lon="2.03174">
        <ele>119.8</ele>
        <time>2026-03-29T14:45:43Z</time>
      </trkpt>
      <trkpt lat="48.7066" lon="2.03179">
        <ele>119.8</ele>
        <time>2026-03-29T14:45:44Z</time>
      </trkpt>
      <trkpt lat="48.70651" lon="2.03183">
        <ele>118.8</ele>
        <time>2026-03-29T14:45:45Z</time>
      </trkpt>
      <trkpt lat="48.70642" lon="2.03188">
        <ele>116.6</ele>
        <time>2026-03-29T14:45:46Z</time>
      </trkpt>
      <trkpt lat="48.70634" lon="2.03193">
        <ele>116.6</ele>
        <time>2026-03-29T14:45:47Z</time>
      </trkpt>
      <trkpt lat="48.70625" lon="2.03197">
        <ele>116.6</ele>
        <time>2026-03-29T14:45:48Z</time>
      </trkpt>
      <trkpt lat="48.70619" lon="2.03203">
        <ele>115.6</ele>
        <time>2026-03-29T14:45:49Z</time>
      </trkpt>
      <trkpt lat="48.70613" lon="2.03208">
        <ele>113.4</ele>
        <time>2026-03-29T14:45:50Z</time>
      </trkpt>
      <trkpt lat="48.70607" lon="2.03212">
        <ele>113.4</ele>
        <time>2026-03-29T14:45:51Z</time>
      </trkpt>
      <trkpt lat="48.70602" lon="2.03216">
        <ele>113.4</ele>
        <time>2026-03-29T14:45:52Z</time>
      </trkpt>
      <trkpt lat="48.70598" lon="2.03221">
        <ele>113.4</ele>
        <time>2026-03-29T14:45:53Z</time>
      </trkpt>
      <trkpt lat="48.70595" lon="2.03224">
        <ele>112.4</ele>
        <time>2026-03-29T14:45:54Z</time>
      </trkpt>
      <trkpt lat="48.70593" lon="2.03227">
        <ele>112.4</ele>
        <time>2026-03-29T14:45:55Z</time>
      </trkpt>
      <trkpt lat="48.70592" lon="2.03229">
        <ele>112.4</ele>
        <time>2026-03-29T14:45:56Z</time>
      </trkpt>
      <trkpt lat="48.70591" lon="2.03233">
        <ele>111.4</ele>
        <time>2026-03-29T14:45:57Z</time>
      </trkpt>
      <trkpt lat="48.7059" lon="2.03237">
        <ele>112.4</ele>
        <time>2026-03-29T14:45:58Z</time>
      </trkpt>
      <trkpt lat="48.7059" lon="2.03242">
        <ele>112.4</ele>
        <time>2026-03-29T14:45:59Z</time>
      </trkpt>
      <trkpt lat="48.7059" lon="2.03247">
        <ele>112.4</ele>
        <time>2026-03-29T14:46:00Z</time>
      </trkpt>
      <trkpt lat="48.70591" lon="2.03253">
        <ele>112</ele>
        <time>2026-03-29T14:46:01Z</time>
      </trkpt>
      <trkpt lat="48.70593" lon="2.03259">
        <ele>111.8</ele>
        <time>2026-03-29T14:46:02Z</time>
      </trkpt>
      <trkpt lat="48.70595" lon="2.03265">
        <ele>111.8</ele>
        <time>2026-03-29T14:46:03Z</time>
      </trkpt>
      <trkpt lat="48.70597" lon="2.03272">
        <ele>111.8</ele>
        <time>2026-03-29T14:46:04Z</time>
      </trkpt>
      <trkpt lat="48.706" lon="2.0328">
        <ele>112</ele>
        <time>2026-03-29T14:46:05Z</time>
      </trkpt>
      <trkpt lat="48.70602" lon="2.03288">
        <ele>111.6</ele>
        <time>2026-03-29T14:46:06Z</time>
      </trkpt>
      <trkpt lat="48.70604" lon="2.03296">
        <ele>111.6</ele>
        <time>2026-03-29T14:46:07Z</time>
      </trkpt>
      <trkpt lat="48.70606" lon="2.03304">
        <ele>111.6</ele>
        <time>2026-03-29T14:46:08Z</time>
      </trkpt>
      <trkpt lat="48.70609" lon="2.03312">
        <ele>111.6</ele>
        <time>2026-03-29T14:46:09Z</time>
      </trkpt>
      <trkpt lat="48.70612" lon="2.0332">
        <ele>111.4</ele>
        <time>2026-03-29T14:46:10Z</time>
      </trkpt>
      <trkpt lat="48.70614" lon="2.03328">
        <ele>111.4</ele>
        <time>2026-03-29T14:46:11Z</time>
      </trkpt>
      <trkpt lat="48.70617" lon="2.03336">
        <ele>111.4</ele>
        <time>2026-03-29T14:46:12Z</time>
      </trkpt>
      <trkpt lat="48.70619" lon="2.03344">
        <ele>111.4</ele>
        <time>2026-03-29T14:46:13Z</time>
      </trkpt>
      <trkpt lat="48.70622" lon="2.03352">
        <ele>111.4</ele>
        <time>2026-03-29T14:46:14Z</time>
      </trkpt>
      <trkpt lat="48.70625" lon="2.03359">
        <ele>111.4</ele>
        <time>2026-03-29T14:46:15Z</time>
      </trkpt>
      <trkpt lat="48.70627" lon="2.03367">
        <ele>111.4</ele>
        <time>2026-03-29T14:46:16Z</time>
      </trkpt>
      <trkpt lat="48.7063" lon="2.03375">
        <ele>111.4</ele>
        <time>2026-03-29T14:46:17Z</time>
      </trkpt>
      <trkpt lat="48.70632" lon="2.03383">
        <ele>111.4</ele>
        <time>2026-03-29T14:46:18Z</time>
      </trkpt>
      <trkpt lat="48.70635" lon="2.0339">
        <ele>111.4</ele>
        <time>2026-03-29T14:46:19Z</time>
      </trkpt>
      <trkpt lat="48.70637" lon="2.03398">
        <ele>111.4</ele>
        <time>2026-03-29T14:46:20Z</time>
      </trkpt>
      <trkpt lat="48.70638" lon="2.03406">
        <ele>110.6</ele>
        <time>2026-03-29T14:46:21Z</time>
      </trkpt>
      <trkpt lat="48.7064" lon="2.03414">
        <ele>110.6</ele>
        <time>2026-03-29T14:46:22Z</time>
      </trkpt>
      <trkpt lat="48.70641" lon="2.03422">
        <ele>110.6</ele>
        <time>2026-03-29T14:46:23Z</time>
      </trkpt>
      <trkpt lat="48.70641" lon="2.03431">
        <ele>110.6</ele>
        <time>2026-03-29T14:46:24Z</time>
      </trkpt>
      <trkpt lat="48.70642" lon="2.0344">
        <ele>109.6</ele>
        <time>2026-03-29T14:46:25Z</time>
      </trkpt>
      <trkpt lat="48.70643" lon="2.0345">
        <ele>109.4</ele>
        <time>2026-03-29T14:46:26Z</time>
      </trkpt>
      <trkpt lat="48.70644" lon="2.03459">
        <ele>109.4</ele>
        <time>2026-03-29T14:46:27Z</time>
      </trkpt>
      <trkpt lat="48.70645" lon="2.03469">
        <ele>109.4</ele>
        <time>2026-03-29T14:46:28Z</time>
      </trkpt>
      <trkpt lat="48.70646" lon="2.03479">
        <ele>108.6</ele>
        <time>2026-03-29T14:46:29Z</time>
      </trkpt>
      <trkpt lat="48.70646" lon="2.0349">
        <ele>108.4</ele>
        <time>2026-03-29T14:46:30Z</time>
      </trkpt>
      <trkpt lat="48.70647" lon="2.035">
        <ele>108.4</ele>
        <time>2026-03-29T14:46:31Z</time>
      </trkpt>
      <trkpt lat="48.70648" lon="2.03511">
        <ele>108.4</ele>
        <time>2026-03-29T14:46:32Z</time>
      </trkpt>
      <trkpt lat="48.7065" lon="2.03522">
        <ele>107.4</ele>
        <time>2026-03-29T14:46:33Z</time>
      </trkpt>
      <trkpt lat="48.70651" lon="2.03533">
        <ele>107.2</ele>
        <time>2026-03-29T14:46:34Z</time>
      </trkpt>
      <trkpt lat="48.70652" lon="2.03544">
        <ele>107.2</ele>
        <time>2026-03-29T14:46:35Z</time>
      </trkpt>
      <trkpt lat="48.70653" lon="2.03556">
        <ele>107.2</ele>
        <time>2026-03-29T14:46:36Z</time>
      </trkpt>
      <trkpt lat="48.70654" lon="2.03567">
        <ele>107.2</ele>
        <time>2026-03-29T14:46:37Z</time>
      </trkpt>
      <trkpt lat="48.70656" lon="2.03578">
        <ele>107</ele>
        <time>2026-03-29T14:46:38Z</time>
      </trkpt>
      <trkpt lat="48.70657" lon="2.03589">
        <ele>107</ele>
        <time>2026-03-29T14:46:39Z</time>
      </trkpt>
      <trkpt lat="48.70659" lon="2.03599">
        <ele>107</ele>
        <time>2026-03-29T14:46:40Z</time>
      </trkpt>
      <trkpt lat="48.70661" lon="2.03609">
        <ele>106.2</ele>
        <time>2026-03-29T14:46:41Z</time>
      </trkpt>
      <trkpt lat="48.70664" lon="2.03619">
        <ele>106</ele>
        <time>2026-03-29T14:46:42Z</time>
      </trkpt>
      <trkpt lat="48.70667" lon="2.03628">
        <ele>106</ele>
        <time>2026-03-29T14:46:43Z</time>
      </trkpt>
      <trkpt lat="48.7067" lon="2.03637">
        <ele>106</ele>
        <time>2026-03-29T14:46:44Z</time>
      </trkpt>
      <trkpt lat="48.70674" lon="2.03644">
        <ele>106.2</ele>
        <time>2026-03-29T14:46:45Z</time>
      </trkpt>
      <trkpt lat="48.70678" lon="2.03651">
        <ele>105.4</ele>
        <time>2026-03-29T14:46:46Z</time>
      </trkpt>
      <trkpt lat="48.70683" lon="2.03657">
        <ele>105.4</ele>
        <time>2026-03-29T14:46:47Z</time>
      </trkpt>
      <trkpt lat="48.70687" lon="2.03664">
        <ele>105.4</ele>
        <time>2026-03-29T14:46:48Z</time>
      </trkpt>
      <trkpt lat="48.70691" lon="2.0367">
        <ele>105.4</ele>
        <time>2026-03-29T14:46:49Z</time>
      </trkpt>
      <trkpt lat="48.70696" lon="2.03677">
        <ele>105.6</ele>
        <time>2026-03-29T14:46:50Z</time>
      </trkpt>
      <trkpt lat="48.70701" lon="2.03683">
        <ele>105.6</ele>
        <time>2026-03-29T14:46:51Z</time>
      </trkpt>
      <trkpt lat="48.70705" lon="2.03689">
        <ele>105.6</ele>
        <time>2026-03-29T14:46:52Z</time>
      </trkpt>
      <trkpt lat="48.70709" lon="2.03695">
        <ele>105.6</ele>
        <time>2026-03-29T14:46:53Z</time>
      </trkpt>
      <trkpt lat="48.70713" lon="2.03701">
        <ele>106.6</ele>
        <time>2026-03-29T14:46:54Z</time>
      </trkpt>
      <trkpt lat="48.70717" lon="2.03706">
        <ele>106.6</ele>
        <time>2026-03-29T14:46:55Z</time>
      </trkpt>
      <trkpt lat="48.70721" lon="2.03711">
        <ele>106.6</ele>
        <time>2026-03-29T14:46:56Z</time>
      </trkpt>
      <trkpt lat="48.70724" lon="2.03715">
        <ele>106.6</ele>
        <time>2026-03-29T14:46:57Z</time>
      </trkpt>
      <trkpt lat="48.70728" lon="2.03719">
        <ele>106.2</ele>
        <time>2026-03-29T14:46:58Z</time>
      </trkpt>
      <trkpt lat="48.7073" lon="2.03723">
        <ele>106.2</ele>
        <time>2026-03-29T14:46:59Z</time>
      </trkpt>
      <trkpt lat="48.70733" lon="2.03728">
        <ele>106.2</ele>
        <time>2026-03-29T14:47:00Z</time>
      </trkpt>
      <trkpt lat="48.70733" lon="2.03734">
        <ele>106.2</ele>
        <time>2026-03-29T14:47:01Z</time>
      </trkpt>
      <trkpt lat="48.70732" lon="2.03741">
        <ele>105.6</ele>
        <time>2026-03-29T14:47:02Z</time>
      </trkpt>
      <trkpt lat="48.70729" lon="2.03747">
        <ele>105.6</ele>
        <time>2026-03-29T14:47:03Z</time>
      </trkpt>
      <trkpt lat="48.70725" lon="2.0375">
        <ele>105.6</ele>
        <time>2026-03-29T14:47:04Z</time>
      </trkpt>
      <trkpt lat="48.70719" lon="2.03753">
        <ele>104.6</ele>
        <time>2026-03-29T14:47:05Z</time>
      </trkpt>
      <trkpt lat="48.70713" lon="2.03755">
        <ele>104.6</ele>
        <time>2026-03-29T14:47:06Z</time>
      </trkpt>
      <trkpt lat="48.70707" lon="2.03758">
        <ele>104.6</ele>
        <time>2026-03-29T14:47:07Z</time>
      </trkpt>
      <trkpt lat="48.70701" lon="2.0376">
        <ele>104.6</ele>
        <time>2026-03-29T14:47:08Z</time>
      </trkpt>
      <trkpt lat="48.70695" lon="2.03763">
        <ele>104.6</ele>
        <time>2026-03-29T14:47:09Z</time>
      </trkpt>
      <trkpt lat="48.70689" lon="2.03764">
        <ele>104</ele>
        <time>2026-03-29T14:47:10Z</time>
      </trkpt>
      <trkpt lat="48.70683" lon="2.03766">
        <ele>104</ele>
        <time>2026-03-29T14:47:11Z</time>
      </trkpt>
      <trkpt lat="48.70676" lon="2.03767">
        <ele>104</ele>
        <time>2026-03-29T14:47:12Z</time>
      </trkpt>
      <trkpt lat="48.7067" lon="2.03769">
        <ele>104</ele>
        <time>2026-03-29T14:47:13Z</time>
      </trkpt>
      <trkpt lat="48.70664" lon="2.03771">
        <ele>103.6</ele>
        <time>2026-03-29T14:47:14Z</time>
      </trkpt>
      <trkpt lat="48.70659" lon="2.03774">
        <ele>103.6</ele>
        <time>2026-03-29T14:47:15Z</time>
      </trkpt>
      <trkpt lat="48.70654" lon="2.03775">
        <ele>103.6</ele>
        <time>2026-03-29T14:47:16Z</time>
      </trkpt>
      <trkpt lat="48.70651" lon="2.03776">
        <ele>103.6</ele>
        <time>2026-03-29T14:47:17Z</time>
      </trkpt>
      <trkpt lat="48.70648" lon="2.03777">
        <ele>103</ele>
        <time>2026-03-29T14:47:18Z</time>
      </trkpt>
      <trkpt lat="48.70647" lon="2.03778">
        <ele>103</ele>
        <time>2026-03-29T14:47:19Z</time>
      </trkpt>
      <trkpt lat="48.70647" lon="2.03778">
        <ele>103</ele>
        <time>2026-03-29T14:47:20Z</time>
      </trkpt>
      <trkpt lat="48.70647" lon="2.03778">
        <ele>103</ele>
        <time>2026-03-29T14:47:21Z</time>
      </trkpt>
      <trkpt lat="48.70643" lon="2.03781">
        <ele>103.4</ele>
        <time>2026-03-29T14:47:43Z</time>
      </trkpt>
      <trkpt lat="48.70641" lon="2.03782">
        <ele>103.4</ele>
        <time>2026-03-29T14:47:44Z</time>
      </trkpt>
      <trkpt lat="48.70638" lon="2.03783">
        <ele>103</ele>
        <time>2026-03-29T14:47:45Z</time>
      </trkpt>
      <trkpt lat="48.70634" lon="2.03784">
        <ele>103</ele>
        <time>2026-03-29T14:47:46Z</time>
      </trkpt>
      <trkpt lat="48.7063" lon="2.03785">
        <ele>103</ele>
        <time>2026-03-29T14:47:47Z</time>
      </trkpt>
      <trkpt lat="48.70626" lon="2.03785">
        <ele>103</ele>
        <time>2026-03-29T14:47:48Z</time>
      </trkpt>
      <trkpt lat="48.70621" lon="2.03783">
        <ele>103</ele>
        <time>2026-03-29T14:47:49Z</time>
      </trkpt>
      <trkpt lat="48.70617" lon="2.03781">
        <ele>103</ele>
        <time>2026-03-29T14:47:50Z</time>
      </trkpt>
      <trkpt lat="48.70612" lon="2.0378">
        <ele>103</ele>
        <time>2026-03-29T14:47:51Z</time>
      </trkpt>
      <trkpt lat="48.70607" lon="2.03778">
        <ele>103</ele>
        <time>2026-03-29T14:47:52Z</time>
      </trkpt>
      <trkpt lat="48.70602" lon="2.03776">
        <ele>103</ele>
        <time>2026-03-29T14:47:53Z</time>
      </trkpt>
      <trkpt lat="48.70597" lon="2.03774">
        <ele>103.2</ele>
        <time>2026-03-29T14:47:54Z</time>
      </trkpt>
      <trkpt lat="48.70591" lon="2.03772">
        <ele>103.2</ele>
        <time>2026-03-29T14:47:55Z</time>
      </trkpt>
      <trkpt lat="48.70586" lon="2.03771">
        <ele>103.2</ele>
        <time>2026-03-29T14:47:56Z</time>
      </trkpt>
      <trkpt lat="48.7058" lon="2.03771">
        <ele>103.2</ele>
        <time>2026-03-29T14:47:57Z</time>
      </trkpt>
      <trkpt lat="48.70575" lon="2.0377">
        <ele>102.8</ele>
        <time>2026-03-29T14:47:58Z</time>
      </trkpt>
      <trkpt lat="48.70569" lon="2.03769">
        <ele>102.8</ele>
        <time>2026-03-29T14:47:59Z</time>
      </trkpt>
      <trkpt lat="48.70564" lon="2.03768">
        <ele>102.8</ele>
        <time>2026-03-29T14:48:00Z</time>
      </trkpt>
      <trkpt lat="48.70558" lon="2.03768">
        <ele>102.8</ele>
        <time>2026-03-29T14:48:01Z</time>
      </trkpt>
      <trkpt lat="48.70553" lon="2.03768">
        <ele>102.2</ele>
        <time>2026-03-29T14:48:02Z</time>
      </trkpt>
      <trkpt lat="48.70548" lon="2.03767">
        <ele>102.2</ele>
        <time>2026-03-29T14:48:03Z</time>
      </trkpt>
      <trkpt lat="48.70542" lon="2.03767">
        <ele>102.2</ele>
        <time>2026-03-29T14:48:04Z</time>
      </trkpt>
      <trkpt lat="48.70537" lon="2.03767">
        <ele>103.2</ele>
        <time>2026-03-29T14:48:05Z</time>
      </trkpt>
      <trkpt lat="48.70533" lon="2.03767">
        <ele>103</ele>
        <time>2026-03-29T14:48:06Z</time>
      </trkpt>
      <trkpt lat="48.70528" lon="2.03768">
        <ele>103</ele>
        <time>2026-03-29T14:48:07Z</time>
      </trkpt>
      <trkpt lat="48.70524" lon="2.03768">
        <ele>103</ele>
        <time>2026-03-29T14:48:08Z</time>
      </trkpt>
      <trkpt lat="48.7052" lon="2.03768">
        <ele>103.8</ele>
        <time>2026-03-29T14:48:09Z</time>
      </trkpt>
      <trkpt lat="48.70515" lon="2.03769">
        <ele>103.6</ele>
        <time>2026-03-29T14:48:10Z</time>
      </trkpt>
      <trkpt lat="48.70512" lon="2.03771">
        <ele>103.6</ele>
        <time>2026-03-29T14:48:11Z</time>
      </trkpt>
      <trkpt lat="48.70508" lon="2.03773">
        <ele>103.6</ele>
        <time>2026-03-29T14:48:12Z</time>
      </trkpt>
      <trkpt lat="48.70505" lon="2.03777">
        <ele>103.6</ele>
        <time>2026-03-29T14:48:13Z</time>
      </trkpt>
      <trkpt lat="48.70504" lon="2.03782">
        <ele>104.4</ele>
        <time>2026-03-29T14:48:14Z</time>
      </trkpt>
      <trkpt lat="48.70503" lon="2.03787">
        <ele>104.4</ele>
        <time>2026-03-29T14:48:15Z</time>
      </trkpt>
      <trkpt lat="48.70502" lon="2.03793">
        <ele>104.4</ele>
        <time>2026-03-29T14:48:16Z</time>
      </trkpt>
      <trkpt lat="48.70502" lon="2.038">
        <ele>103.4</ele>
        <time>2026-03-29T14:48:17Z</time>
      </trkpt>
      <trkpt lat="48.70501" lon="2.03806">
        <ele>103</ele>
        <time>2026-03-29T14:48:18Z</time>
      </trkpt>
      <trkpt lat="48.70501" lon="2.03814">
        <ele>103</ele>
        <time>2026-03-29T14:48:19Z</time>
      </trkpt>
      <trkpt lat="48.705" lon="2.03822">
        <ele>103</ele>
        <time>2026-03-29T14:48:20Z</time>
      </trkpt>
      <trkpt lat="48.70497" lon="2.03828">
        <ele>103</ele>
        <time>2026-03-29T14:48:21Z</time>
      </trkpt>
      <trkpt lat="48.70494" lon="2.03836">
        <ele>103.4</ele>
        <time>2026-03-29T14:48:22Z</time>
      </trkpt>
      <trkpt lat="48.70494" lon="2.03843">
        <ele>103.4</ele>
        <time>2026-03-29T14:48:23Z</time>
      </trkpt>
      <trkpt lat="48.70493" lon="2.03851">
        <ele>103.4</ele>
        <time>2026-03-29T14:48:24Z</time>
      </trkpt>
      <trkpt lat="48.70493" lon="2.0386">
        <ele>102.4</ele>
        <time>2026-03-29T14:48:25Z</time>
      </trkpt>
      <trkpt lat="48.70493" lon="2.03869">
        <ele>102</ele>
        <time>2026-03-29T14:48:26Z</time>
      </trkpt>
      <trkpt lat="48.70492" lon="2.03879">
        <ele>102</ele>
        <time>2026-03-29T14:48:27Z</time>
      </trkpt>
      <trkpt lat="48.7049" lon="2.03888">
        <ele>102</ele>
        <time>2026-03-29T14:48:28Z</time>
      </trkpt>
      <trkpt lat="48.70487" lon="2.03896">
        <ele>102</ele>
        <time>2026-03-29T14:48:29Z</time>
      </trkpt>
      <trkpt lat="48.70483" lon="2.03903">
        <ele>102.6</ele>
        <time>2026-03-29T14:48:30Z</time>
      </trkpt>
      <trkpt lat="48.70479" lon="2.03907">
        <ele>102.6</ele>
        <time>2026-03-29T14:48:31Z</time>
      </trkpt>
      <trkpt lat="48.70474" lon="2.03911">
        <ele>102.6</ele>
        <time>2026-03-29T14:48:32Z</time>
      </trkpt>
      <trkpt lat="48.7047" lon="2.03914">
        <ele>103.2</ele>
        <time>2026-03-29T14:48:33Z</time>
      </trkpt>
      <trkpt lat="48.70466" lon="2.03916">
        <ele>103.6</ele>
        <time>2026-03-29T14:48:34Z</time>
      </trkpt>
      <trkpt lat="48.70463" lon="2.0392">
        <ele>103.6</ele>
        <time>2026-03-29T14:48:35Z</time>
      </trkpt>
      <trkpt lat="48.70461" lon="2.03925">
        <ele>103.6</ele>
        <time>2026-03-29T14:48:36Z</time>
      </trkpt>
      <trkpt lat="48.70459" lon="2.0393">
        <ele>103.6</ele>
        <time>2026-03-29T14:48:37Z</time>
      </trkpt>
      <trkpt lat="48.70458" lon="2.03935">
        <ele>104.2</ele>
        <time>2026-03-29T14:48:38Z</time>
      </trkpt>
      <trkpt lat="48.70456" lon="2.0394">
        <ele>104.2</ele>
        <time>2026-03-29T14:48:39Z</time>
      </trkpt>
      <trkpt lat="48.70454" lon="2.03946">
        <ele>104.2</ele>
        <time>2026-03-29T14:48:40Z</time>
      </trkpt>
      <trkpt lat="48.70452" lon="2.0395">
        <ele>104.2</ele>
        <time>2026-03-29T14:48:41Z</time>
      </trkpt>
      <trkpt lat="48.7045" lon="2.03955">
        <ele>105</ele>
        <time>2026-03-29T14:48:42Z</time>
      </trkpt>
      <trkpt lat="48.70448" lon="2.0396">
        <ele>105</ele>
        <time>2026-03-29T14:48:43Z</time>
      </trkpt>
      <trkpt lat="48.70446" lon="2.03965">
        <ele>105</ele>
        <time>2026-03-29T14:48:44Z</time>
      </trkpt>
      <trkpt lat="48.70444" lon="2.03969">
        <ele>105</ele>
        <time>2026-03-29T14:48:45Z</time>
      </trkpt>
      <trkpt lat="48.70443" lon="2.03974">
        <ele>105.4</ele>
        <time>2026-03-29T14:48:46Z</time>
      </trkpt>
      <trkpt lat="48.70442" lon="2.03978">
        <ele>105.4</ele>
        <time>2026-03-29T14:48:47Z</time>
      </trkpt>
      <trkpt lat="48.70442" lon="2.03983">
        <ele>105.4</ele>
        <time>2026-03-29T14:48:48Z</time>
      </trkpt>
      <trkpt lat="48.70441" lon="2.03989">
        <ele>105.8</ele>
        <time>2026-03-29T14:48:49Z</time>
      </trkpt>
      <trkpt lat="48.70439" lon="2.03994">
        <ele>106</ele>
        <time>2026-03-29T14:48:50Z</time>
      </trkpt>
      <trkpt lat="48.70438" lon="2.03999">
        <ele>106</ele>
        <time>2026-03-29T14:48:51Z</time>
      </trkpt>
      <trkpt lat="48.70436" lon="2.04004">
        <ele>106</ele>
        <time>2026-03-29T14:48:52Z</time>
      </trkpt>
      <trkpt lat="48.70435" lon="2.04009">
        <ele>106.8</ele>
        <time>2026-03-29T14:48:53Z</time>
      </trkpt>
      <trkpt lat="48.70433" lon="2.04014">
        <ele>107</ele>
        <time>2026-03-29T14:48:54Z</time>
      </trkpt>
      <trkpt lat="48.70431" lon="2.04019">
        <ele>107</ele>
        <time>2026-03-29T14:48:55Z</time>
      </trkpt>
      <trkpt lat="48.7043" lon="2.04025">
        <ele>107</ele>
        <time>2026-03-29T14:48:56Z</time>
      </trkpt>
      <trkpt lat="48.70428" lon="2.0403">
        <ele>107.2</ele>
        <time>2026-03-29T14:48:57Z</time>
      </trkpt>
      <trkpt lat="48.70427" lon="2.04036">
        <ele>107.2</ele>
        <time>2026-03-29T14:48:58Z</time>
      </trkpt>
      <trkpt lat="48.70427" lon="2.04042">
        <ele>107.2</ele>
        <time>2026-03-29T14:48:59Z</time>
      </trkpt>
      <trkpt lat="48.70427" lon="2.04049">
        <ele>107.2</ele>
        <time>2026-03-29T14:49:00Z</time>
      </trkpt>
      <trkpt lat="48.70426" lon="2.04055">
        <ele>107.8</ele>
        <time>2026-03-29T14:49:01Z</time>
      </trkpt>
      <trkpt lat="48.70425" lon="2.04061">
        <ele>107.4</ele>
        <time>2026-03-29T14:49:02Z</time>
      </trkpt>
      <trkpt lat="48.70425" lon="2.04066">
        <ele>107.4</ele>
        <time>2026-03-29T14:49:03Z</time>
      </trkpt>
      <trkpt lat="48.70424" lon="2.04072">
        <ele>107.4</ele>
        <time>2026-03-29T14:49:04Z</time>
      </trkpt>
      <trkpt lat="48.70424" lon="2.04077">
        <ele>107.4</ele>
        <time>2026-03-29T14:49:05Z</time>
      </trkpt>
      <trkpt lat="48.70423" lon="2.04082">
        <ele>107</ele>
        <time>2026-03-29T14:49:06Z</time>
      </trkpt>
      <trkpt lat="48.70422" lon="2.04088">
        <ele>107</ele>
        <time>2026-03-29T14:49:07Z</time>
      </trkpt>
      <trkpt lat="48.70421" lon="2.04094">
        <ele>107</ele>
        <time>2026-03-29T14:49:08Z</time>
      </trkpt>
      <trkpt lat="48.7042" lon="2.04101">
        <ele>107</ele>
        <time>2026-03-29T14:49:09Z</time>
      </trkpt>
      <trkpt lat="48.70419" lon="2.04108">
        <ele>107.2</ele>
        <time>2026-03-29T14:49:10Z</time>
      </trkpt>
      <trkpt lat="48.70418" lon="2.04115">
        <ele>107.2</ele>
        <time>2026-03-29T14:49:11Z</time>
      </trkpt>
      <trkpt lat="48.70418" lon="2.04122">
        <ele>107.2</ele>
        <time>2026-03-29T14:49:12Z</time>
      </trkpt>
      <trkpt lat="48.70417" lon="2.0413">
        <ele>107.2</ele>
        <time>2026-03-29T14:49:13Z</time>
      </trkpt>
      <trkpt lat="48.70416" lon="2.04138">
        <ele>107.2</ele>
        <time>2026-03-29T14:49:14Z</time>
      </trkpt>
      <trkpt lat="48.70415" lon="2.04146">
        <ele>107.2</ele>
        <time>2026-03-29T14:49:15Z</time>
      </trkpt>
      <trkpt lat="48.70414" lon="2.04154">
        <ele>107.2</ele>
        <time>2026-03-29T14:49:16Z</time>
      </trkpt>
      <trkpt lat="48.70414" lon="2.04162">
        <ele>107.2</ele>
        <time>2026-03-29T14:49:17Z</time>
      </trkpt>
      <trkpt lat="48.70413" lon="2.0417">
        <ele>107.2</ele>
        <time>2026-03-29T14:49:18Z</time>
      </trkpt>
      <trkpt lat="48.70412" lon="2.04178">
        <ele>107.2</ele>
        <time>2026-03-29T14:49:19Z</time>
      </trkpt>
      <trkpt lat="48.70411" lon="2.04186">
        <ele>107.2</ele>
        <time>2026-03-29T14:49:20Z</time>
      </trkpt>
      <trkpt lat="48.70411" lon="2.04194">
        <ele>107.2</ele>
        <time>2026-03-29T14:49:21Z</time>
      </trkpt>
      <trkpt lat="48.7041" lon="2.04202">
        <ele>107.8</ele>
        <time>2026-03-29T14:49:22Z</time>
      </trkpt>
      <trkpt lat="48.70409" lon="2.04209">
        <ele>107.8</ele>
        <time>2026-03-29T14:49:23Z</time>
      </trkpt>
      <trkpt lat="48.70409" lon="2.04216">
        <ele>107.8</ele>
        <time>2026-03-29T14:49:24Z</time>
      </trkpt>
      <trkpt lat="48.70408" lon="2.04222">
        <ele>107.8</ele>
        <time>2026-03-29T14:49:25Z</time>
      </trkpt>
      <trkpt lat="48.70407" lon="2.04227">
        <ele>108.6</ele>
        <time>2026-03-29T14:49:26Z</time>
      </trkpt>
      <trkpt lat="48.70406" lon="2.04232">
        <ele>108.6</ele>
        <time>2026-03-29T14:49:27Z</time>
      </trkpt>
      <trkpt lat="48.70405" lon="2.04237">
        <ele>108.6</ele>
        <time>2026-03-29T14:49:28Z</time>
      </trkpt>
      <trkpt lat="48.70404" lon="2.04242">
        <ele>109.2</ele>
        <time>2026-03-29T14:49:29Z</time>
      </trkpt>
      <trkpt lat="48.70404" lon="2.04248">
        <ele>108.8</ele>
        <time>2026-03-29T14:49:30Z</time>
      </trkpt>
      <trkpt lat="48.70405" lon="2.04254">
        <ele>108.8</ele>
        <time>2026-03-29T14:49:31Z</time>
      </trkpt>
      <trkpt lat="48.70405" lon="2.0426">
        <ele>108.8</ele>
        <time>2026-03-29T14:49:32Z</time>
      </trkpt>
      <trkpt lat="48.70406" lon="2.04265">
        <ele>109.2</ele>
        <time>2026-03-29T14:49:33Z</time>
      </trkpt>
      <trkpt lat="48.70407" lon="2.04271">
        <ele>108.4</ele>
        <time>2026-03-29T14:49:34Z</time>
      </trkpt>
      <trkpt lat="48.70408" lon="2.04277">
        <ele>108.4</ele>
        <time>2026-03-29T14:49:35Z</time>
      </trkpt>
      <trkpt lat="48.70409" lon="2.04283">
        <ele>108.4</ele>
        <time>2026-03-29T14:49:36Z</time>
      </trkpt>
      <trkpt lat="48.7041" lon="2.04289">
        <ele>108.8</ele>
        <time>2026-03-29T14:49:37Z</time>
      </trkpt>
      <trkpt lat="48.70412" lon="2.04296">
        <ele>109</ele>
        <time>2026-03-29T14:49:38Z</time>
      </trkpt>
      <trkpt lat="48.70413" lon="2.04302">
        <ele>109</ele>
        <time>2026-03-29T14:49:39Z</time>
      </trkpt>
      <trkpt lat="48.70414" lon="2.04308">
        <ele>109</ele>
        <time>2026-03-29T14:49:40Z</time>
      </trkpt>
      <trkpt lat="48.70414" lon="2.04314">
        <ele>109</ele>
        <time>2026-03-29T14:49:41Z</time>
      </trkpt>
      <trkpt lat="48.70415" lon="2.04321">
        <ele>109.6</ele>
        <time>2026-03-29T14:49:42Z</time>
      </trkpt>
      <trkpt lat="48.70415" lon="2.04328">
        <ele>109.6</ele>
        <time>2026-03-29T14:49:43Z</time>
      </trkpt>
      <trkpt lat="48.70416" lon="2.04334">
        <ele>109.6</ele>
        <time>2026-03-29T14:49:44Z</time>
      </trkpt>
      <trkpt lat="48.70416" lon="2.04341">
        <ele>109.8</ele>
        <time>2026-03-29T14:49:45Z</time>
      </trkpt>
      <trkpt lat="48.70417" lon="2.04348">
        <ele>110.2</ele>
        <time>2026-03-29T14:49:46Z</time>
      </trkpt>
      <trkpt lat="48.70417" lon="2.04354">
        <ele>110.2</ele>
        <time>2026-03-29T14:49:47Z</time>
      </trkpt>
      <trkpt lat="48.70417" lon="2.04361">
        <ele>110.2</ele>
        <time>2026-03-29T14:49:48Z</time>
      </trkpt>
      <trkpt lat="48.70416" lon="2.04368">
        <ele>110</ele>
        <time>2026-03-29T14:49:49Z</time>
      </trkpt>
      <trkpt lat="48.70416" lon="2.04375">
        <ele>109.4</ele>
        <time>2026-03-29T14:49:50Z</time>
      </trkpt>
      <trkpt lat="48.70414" lon="2.04381">
        <ele>109.4</ele>
        <time>2026-03-29T14:49:51Z</time>
      </trkpt>
      <trkpt lat="48.70413" lon="2.04387">
        <ele>109.4</ele>
        <time>2026-03-29T14:49:52Z</time>
      </trkpt>
      <trkpt lat="48.70411" lon="2.04393">
        <ele>110.4</ele>
        <time>2026-03-29T14:49:53Z</time>
      </trkpt>
      <trkpt lat="48.7041" lon="2.04399">
        <ele>110.2</ele>
        <time>2026-03-29T14:49:54Z</time>
      </trkpt>
      <trkpt lat="48.70408" lon="2.04405">
        <ele>110.2</ele>
        <time>2026-03-29T14:49:55Z</time>
      </trkpt>
      <trkpt lat="48.70408" lon="2.0441">
        <ele>110.2</ele>
        <time>2026-03-29T14:49:56Z</time>
      </trkpt>
      <trkpt lat="48.70409" lon="2.04415">
        <ele>110.4</ele>
        <time>2026-03-29T14:49:57Z</time>
      </trkpt>
      <trkpt lat="48.70411" lon="2.04419">
        <ele>110</ele>
        <time>2026-03-29T14:49:58Z</time>
      </trkpt>
      <trkpt lat="48.70415" lon="2.04423">
        <ele>110</ele>
        <time>2026-03-29T14:49:59Z</time>
      </trkpt>
      <trkpt lat="48.70419" lon="2.04429">
        <ele>110</ele>
        <time>2026-03-29T14:50:00Z</time>
      </trkpt>
      <trkpt lat="48.70423" lon="2.04436">
        <ele>109</ele>
        <time>2026-03-29T14:50:01Z</time>
      </trkpt>
      <trkpt lat="48.70429" lon="2.04443">
        <ele>106.4</ele>
        <time>2026-03-29T14:50:02Z</time>
      </trkpt>
      <trkpt lat="48.70434" lon="2.0445">
        <ele>106.4</ele>
        <time>2026-03-29T14:50:03Z</time>
      </trkpt>
      <trkpt lat="48.70439" lon="2.04453">
        <ele>106.4</ele>
        <time>2026-03-29T14:50:04Z</time>
      </trkpt>
      <trkpt lat="48.70444" lon="2.04453">
        <ele>106.4</ele>
        <time>2026-03-29T14:50:05Z</time>
      </trkpt>
      <trkpt lat="48.70449" lon="2.04451">
        <ele>106</ele>
        <time>2026-03-29T14:50:06Z</time>
      </trkpt>
      <trkpt lat="48.70454" lon="2.04452">
        <ele>106</ele>
        <time>2026-03-29T14:50:07Z</time>
      </trkpt>
      <trkpt lat="48.70459" lon="2.04454">
        <ele>106</ele>
        <time>2026-03-29T14:50:08Z</time>
      </trkpt>
      <trkpt lat="48.70464" lon="2.04457">
        <ele>105.6</ele>
        <time>2026-03-29T14:50:09Z</time>
      </trkpt>
      <trkpt lat="48.70469" lon="2.0446">
        <ele>105</ele>
        <time>2026-03-29T14:50:10Z</time>
      </trkpt>
      <trkpt lat="48.70475" lon="2.04463">
        <ele>105</ele>
        <time>2026-03-29T14:50:11Z</time>
      </trkpt>
      <trkpt lat="48.7048" lon="2.04465">
        <ele>105</ele>
        <time>2026-03-29T14:50:12Z</time>
      </trkpt>
      <trkpt lat="48.70486" lon="2.04469">
        <ele>105</ele>
        <time>2026-03-29T14:50:13Z</time>
      </trkpt>
      <trkpt lat="48.70492" lon="2.04472">
        <ele>104</ele>
        <time>2026-03-29T14:50:14Z</time>
      </trkpt>
      <trkpt lat="48.70497" lon="2.04475">
        <ele>104</ele>
        <time>2026-03-29T14:50:15Z</time>
      </trkpt>
      <trkpt lat="48.70502" lon="2.04479">
        <ele>104</ele>
        <time>2026-03-29T14:50:16Z</time>
      </trkpt>
      <trkpt lat="48.70507" lon="2.04483">
        <ele>103</ele>
        <time>2026-03-29T14:50:17Z</time>
      </trkpt>
      <trkpt lat="48.70512" lon="2.04489">
        <ele>101.8</ele>
        <time>2026-03-29T14:50:18Z</time>
      </trkpt>
      <trkpt lat="48.70516" lon="2.04495">
        <ele>101.8</ele>
        <time>2026-03-29T14:50:19Z</time>
      </trkpt>
      <trkpt lat="48.7052" lon="2.045">
        <ele>101.8</ele>
        <time>2026-03-29T14:50:20Z</time>
      </trkpt>
      <trkpt lat="48.70524" lon="2.04502">
        <ele>102</ele>
        <time>2026-03-29T14:50:21Z</time>
      </trkpt>
      <trkpt lat="48.70529" lon="2.04502">
        <ele>102</ele>
        <time>2026-03-29T14:50:22Z</time>
      </trkpt>
      <trkpt lat="48.70533" lon="2.04502">
        <ele>102</ele>
        <time>2026-03-29T14:50:23Z</time>
      </trkpt>
      <trkpt lat="48.70538" lon="2.04501">
        <ele>102</ele>
        <time>2026-03-29T14:50:24Z</time>
      </trkpt>
      <trkpt lat="48.70542" lon="2.04501">
        <ele>102</ele>
        <time>2026-03-29T14:50:25Z</time>
      </trkpt>
      <trkpt lat="48.70547" lon="2.045">
        <ele>101.8</ele>
        <time>2026-03-29T14:50:26Z</time>
      </trkpt>
      <trkpt lat="48.70551" lon="2.045">
        <ele>101.8</ele>
        <time>2026-03-29T14:50:27Z</time>
      </trkpt>
      <trkpt lat="48.70554" lon="2.04499">
        <ele>101.8</ele>
        <time>2026-03-29T14:50:28Z</time>
      </trkpt>
      <trkpt lat="48.70557" lon="2.04499">
        <ele>101.8</ele>
        <time>2026-03-29T14:50:29Z</time>
      </trkpt>
      <trkpt lat="48.7056" lon="2.04499">
        <ele>101</ele>
        <time>2026-03-29T14:50:30Z</time>
      </trkpt>
      <trkpt lat="48.70563" lon="2.04498">
        <ele>101</ele>
        <time>2026-03-29T14:50:31Z</time>
      </trkpt>
      <trkpt lat="48.70565" lon="2.04497">
        <ele>101</ele>
        <time>2026-03-29T14:50:32Z</time>
      </trkpt>
      <trkpt lat="48.70569" lon="2.04496">
        <ele>101.2</ele>
        <time>2026-03-29T14:50:33Z</time>
      </trkpt>
      <trkpt lat="48.70572" lon="2.04495">
        <ele>101.2</ele>
        <time>2026-03-29T14:50:34Z</time>
      </trkpt>
      <trkpt lat="48.70576" lon="2.04494">
        <ele>101.2</ele>
        <time>2026-03-29T14:50:35Z</time>
      </trkpt>
      <trkpt lat="48.70579" lon="2.04493">
        <ele>101.2</ele>
        <time>2026-03-29T14:50:36Z</time>
      </trkpt>
      <trkpt lat="48.70583" lon="2.04492">
        <ele>101.2</ele>
        <time>2026-03-29T14:50:37Z</time>
      </trkpt>
      <trkpt lat="48.70586" lon="2.04492">
        <ele>101</ele>
        <time>2026-03-29T14:50:38Z</time>
      </trkpt>
      <trkpt lat="48.7059" lon="2.04491">
        <ele>101</ele>
        <time>2026-03-29T14:50:39Z</time>
      </trkpt>
      <trkpt lat="48.70593" lon="2.04491">
        <ele>101</ele>
        <time>2026-03-29T14:50:40Z</time>
      </trkpt>
      <trkpt lat="48.70596" lon="2.0449">
        <ele>101.4</ele>
        <time>2026-03-29T14:50:41Z</time>
      </trkpt>
      <trkpt lat="48.70599" lon="2.0449">
        <ele>101.2</ele>
        <time>2026-03-29T14:50:42Z</time>
      </trkpt>
      <trkpt lat="48.70602" lon="2.0449">
        <ele>101.2</ele>
        <time>2026-03-29T14:50:43Z</time>
      </trkpt>
      <trkpt lat="48.70605" lon="2.0449">
        <ele>101.2</ele>
        <time>2026-03-29T14:50:44Z</time>
      </trkpt>
      <trkpt lat="48.70608" lon="2.04489">
        <ele>101.8</ele>
        <time>2026-03-29T14:50:45Z</time>
      </trkpt>
      <trkpt lat="48.7061" lon="2.04488">
        <ele>100.8</ele>
        <time>2026-03-29T14:50:46Z</time>
      </trkpt>
      <trkpt lat="48.70613" lon="2.04486">
        <ele>100.8</ele>
        <time>2026-03-29T14:50:47Z</time>
      </trkpt>
      <trkpt lat="48.70614" lon="2.04484">
        <ele>100.8</ele>
        <time>2026-03-29T14:50:48Z</time>
      </trkpt>
      <trkpt lat="48.70615" lon="2.04481">
        <ele>101</ele>
        <time>2026-03-29T14:50:49Z</time>
      </trkpt>
      <trkpt lat="48.70615" lon="2.0448">
        <ele>101.4</ele>
        <time>2026-03-29T14:50:50Z</time>
      </trkpt>
      <trkpt lat="48.70616" lon="2.0448">
        <ele>101.4</ele>
        <time>2026-03-29T14:50:51Z</time>
      </trkpt>
      <trkpt lat="48.70616" lon="2.04481">
        <ele>101.4</ele>
        <time>2026-03-29T14:50:52Z</time>
      </trkpt>
      <trkpt lat="48.70617" lon="2.04482">
        <ele>100.8</ele>
        <time>2026-03-29T14:50:53Z</time>
      </trkpt>
      <trkpt lat="48.70617" lon="2.04484">
        <ele>100.8</ele>
        <time>2026-03-29T14:50:54Z</time>
      </trkpt>
      <trkpt lat="48.70618" lon="2.04486">
        <ele>100.8</ele>
        <time>2026-03-29T14:50:55Z</time>
      </trkpt>
      <trkpt lat="48.70619" lon="2.04488">
        <ele>100.8</ele>
        <time>2026-03-29T14:50:56Z</time>
      </trkpt>
      <trkpt lat="48.70621" lon="2.0449">
        <ele>101.2</ele>
        <time>2026-03-29T14:50:57Z</time>
      </trkpt>
      <trkpt lat="48.70622" lon="2.04493">
        <ele>101.2</ele>
        <time>2026-03-29T14:50:58Z</time>
      </trkpt>
      <trkpt lat="48.70624" lon="2.04497">
        <ele>101.2</ele>
        <time>2026-03-29T14:50:59Z</time>
      </trkpt>
      <trkpt lat="48.70624" lon="2.04502">
        <ele>101.2</ele>
        <time>2026-03-29T14:51:00Z</time>
      </trkpt>
      <trkpt lat="48.70624" lon="2.04507">
        <ele>101.2</ele>
        <time>2026-03-29T14:51:01Z</time>
      </trkpt>
      <trkpt lat="48.70624" lon="2.04513">
        <ele>101.2</ele>
        <time>2026-03-29T14:51:02Z</time>
      </trkpt>
      <trkpt lat="48.70622" lon="2.04518">
        <ele>101.2</ele>
        <time>2026-03-29T14:51:03Z</time>
      </trkpt>
      <trkpt lat="48.70621" lon="2.04524">
        <ele>101.2</ele>
        <time>2026-03-29T14:51:04Z</time>
      </trkpt>
      <trkpt lat="48.7062" lon="2.04529">
        <ele>101.2</ele>
        <time>2026-03-29T14:51:05Z</time>
      </trkpt>
      <trkpt lat="48.70618" lon="2.04535">
        <ele>100.8</ele>
        <time>2026-03-29T14:51:06Z</time>
      </trkpt>
      <trkpt lat="48.70616" lon="2.04541">
        <ele>100.8</ele>
        <time>2026-03-29T14:51:07Z</time>
      </trkpt>
      <trkpt lat="48.70614" lon="2.04546">
        <ele>100.8</ele>
        <time>2026-03-29T14:51:08Z</time>
      </trkpt>
      <trkpt lat="48.70612" lon="2.04551">
        <ele>101.2</ele>
        <time>2026-03-29T14:51:09Z</time>
      </trkpt>
      <trkpt lat="48.7061" lon="2.04556">
        <ele>101.2</ele>
        <time>2026-03-29T14:51:10Z</time>
      </trkpt>
      <trkpt lat="48.70609" lon="2.04561">
        <ele>101.2</ele>
        <time>2026-03-29T14:51:11Z</time>
      </trkpt>
      <trkpt lat="48.70607" lon="2.04565">
        <ele>101.2</ele>
        <time>2026-03-29T14:51:12Z</time>
      </trkpt>
      <trkpt lat="48.70605" lon="2.04568">
        <ele>101.2</ele>
        <time>2026-03-29T14:51:13Z</time>
      </trkpt>
      <trkpt lat="48.70602" lon="2.04571">
        <ele>101.6</ele>
        <time>2026-03-29T14:51:14Z</time>
      </trkpt>
      <trkpt lat="48.706" lon="2.04574">
        <ele>101.6</ele>
        <time>2026-03-29T14:51:15Z</time>
      </trkpt>
      <trkpt lat="48.70597" lon="2.04579">
        <ele>101.6</ele>
        <time>2026-03-29T14:51:16Z</time>
      </trkpt>
      <trkpt lat="48.70595" lon="2.04584">
        <ele>101.6</ele>
        <time>2026-03-29T14:51:17Z</time>
      </trkpt>
      <trkpt lat="48.70592" lon="2.04589">
        <ele>101.6</ele>
        <time>2026-03-29T14:51:18Z</time>
      </trkpt>
      <trkpt lat="48.7059" lon="2.04595">
        <ele>101.6</ele>
        <time>2026-03-29T14:51:19Z</time>
      </trkpt>
      <trkpt lat="48.70587" lon="2.04601">
        <ele>101.6</ele>
        <time>2026-03-29T14:51:20Z</time>
      </trkpt>
      <trkpt lat="48.70585" lon="2.04607">
        <ele>101.6</ele>
        <time>2026-03-29T14:51:21Z</time>
      </trkpt>
      <trkpt lat="48.70582" lon="2.04613">
        <ele>101.6</ele>
        <time>2026-03-29T14:51:22Z</time>
      </trkpt>
      <trkpt lat="48.7058" lon="2.04619">
        <ele>101.6</ele>
        <time>2026-03-29T14:51:23Z</time>
      </trkpt>
      <trkpt lat="48.70578" lon="2.04623">
        <ele>101.6</ele>
        <time>2026-03-29T14:51:24Z</time>
      </trkpt>
      <trkpt lat="48.70577" lon="2.04627">
        <ele>101</ele>
        <time>2026-03-29T14:51:25Z</time>
      </trkpt>
      <trkpt lat="48.70575" lon="2.0463">
        <ele>101</ele>
        <time>2026-03-29T14:51:26Z</time>
      </trkpt>
      <trkpt lat="48.70575" lon="2.04634">
        <ele>101</ele>
        <time>2026-03-29T14:51:27Z</time>
      </trkpt>
      <trkpt lat="48.70574" lon="2.04638">
        <ele>101</ele>
        <time>2026-03-29T14:51:28Z</time>
      </trkpt>
      <trkpt lat="48.70572" lon="2.04642">
        <ele>101</ele>
        <time>2026-03-29T14:51:29Z</time>
      </trkpt>
      <trkpt lat="48.70569" lon="2.04647">
        <ele>101</ele>
        <time>2026-03-29T14:51:30Z</time>
      </trkpt>
      <trkpt lat="48.70566" lon="2.04651">
        <ele>101</ele>
        <time>2026-03-29T14:51:31Z</time>
      </trkpt>
      <trkpt lat="48.70563" lon="2.04656">
        <ele>101</ele>
        <time>2026-03-29T14:51:32Z</time>
      </trkpt>
      <trkpt lat="48.7056" lon="2.04662">
        <ele>101</ele>
        <time>2026-03-29T14:51:33Z</time>
      </trkpt>
      <trkpt lat="48.70557" lon="2.04667">
        <ele>101.2</ele>
        <time>2026-03-29T14:51:34Z</time>
      </trkpt>
      <trkpt lat="48.70554" lon="2.04672">
        <ele>101.2</ele>
        <time>2026-03-29T14:51:35Z</time>
      </trkpt>
      <trkpt lat="48.7055" lon="2.04677">
        <ele>101.2</ele>
        <time>2026-03-29T14:51:36Z</time>
      </trkpt>
      <trkpt lat="48.70546" lon="2.04681">
        <ele>101.2</ele>
        <time>2026-03-29T14:51:37Z</time>
      </trkpt>
      <trkpt lat="48.70542" lon="2.04685">
        <ele>101.2</ele>
        <time>2026-03-29T14:51:38Z</time>
      </trkpt>
      <trkpt lat="48.70538" lon="2.04688">
        <ele>101.2</ele>
        <time>2026-03-29T14:51:39Z</time>
      </trkpt>
      <trkpt lat="48.70533" lon="2.04691">
        <ele>101.2</ele>
        <time>2026-03-29T14:51:40Z</time>
      </trkpt>
      <trkpt lat="48.70528" lon="2.04694">
        <ele>101.2</ele>
        <time>2026-03-29T14:51:41Z</time>
      </trkpt>
      <trkpt lat="48.70524" lon="2.04697">
        <ele>101.6</ele>
        <time>2026-03-29T14:51:42Z</time>
      </trkpt>
      <trkpt lat="48.70519" lon="2.04699">
        <ele>101.6</ele>
        <time>2026-03-29T14:51:43Z</time>
      </trkpt>
      <trkpt lat="48.70515" lon="2.04703">
        <ele>101.6</ele>
        <time>2026-03-29T14:51:44Z</time>
      </trkpt>
      <trkpt lat="48.70511" lon="2.04706">
        <ele>101.6</ele>
        <time>2026-03-29T14:51:45Z</time>
      </trkpt>
      <trkpt lat="48.70507" lon="2.04711">
        <ele>102</ele>
        <time>2026-03-29T14:51:46Z</time>
      </trkpt>
      <trkpt lat="48.70503" lon="2.04715">
        <ele>102</ele>
        <time>2026-03-29T14:51:47Z</time>
      </trkpt>
      <trkpt lat="48.70499" lon="2.04718">
        <ele>102</ele>
        <time>2026-03-29T14:51:48Z</time>
      </trkpt>
      <trkpt lat="48.70495" lon="2.04721">
        <ele>102</ele>
        <time>2026-03-29T14:51:49Z</time>
      </trkpt>
      <trkpt lat="48.70492" lon="2.04725">
        <ele>102</ele>
        <time>2026-03-29T14:51:50Z</time>
      </trkpt>
      <trkpt lat="48.70488" lon="2.04729">
        <ele>102</ele>
        <time>2026-03-29T14:51:51Z</time>
      </trkpt>
      <trkpt lat="48.70484" lon="2.04732">
        <ele>102</ele>
        <time>2026-03-29T14:51:52Z</time>
      </trkpt>
      <trkpt lat="48.7048" lon="2.04736">
        <ele>102.8</ele>
        <time>2026-03-29T14:51:53Z</time>
      </trkpt>
      <trkpt lat="48.70475" lon="2.0474">
        <ele>103</ele>
        <time>2026-03-29T14:51:54Z</time>
      </trkpt>
      <trkpt lat="48.70472" lon="2.04744">
        <ele>103</ele>
        <time>2026-03-29T14:51:55Z</time>
      </trkpt>
      <trkpt lat="48.70468" lon="2.04748">
        <ele>103</ele>
        <time>2026-03-29T14:51:56Z</time>
      </trkpt>
      <trkpt lat="48.70465" lon="2.04751">
        <ele>103</ele>
        <time>2026-03-29T14:51:57Z</time>
      </trkpt>
      <trkpt lat="48.70461" lon="2.04754">
        <ele>103.6</ele>
        <time>2026-03-29T14:51:58Z</time>
      </trkpt>
      <trkpt lat="48.70458" lon="2.04757">
        <ele>103.6</ele>
        <time>2026-03-29T14:51:59Z</time>
      </trkpt>
      <trkpt lat="48.70455" lon="2.04759">
        <ele>103.6</ele>
        <time>2026-03-29T14:52:00Z</time>
      </trkpt>
      <trkpt lat="48.70452" lon="2.04761">
        <ele>104.6</ele>
        <time>2026-03-29T14:52:01Z</time>
      </trkpt>
      <trkpt lat="48.70449" lon="2.04763">
        <ele>104.6</ele>
        <time>2026-03-29T14:52:02Z</time>
      </trkpt>
      <trkpt lat="48.70446" lon="2.04765">
        <ele>104.6</ele>
        <time>2026-03-29T14:52:03Z</time>
      </trkpt>
      <trkpt lat="48.70444" lon="2.04767">
        <ele>104.6</ele>
        <time>2026-03-29T14:52:04Z</time>
      </trkpt>
      <trkpt lat="48.70441" lon="2.0477">
        <ele>105.6</ele>
        <time>2026-03-29T14:52:05Z</time>
      </trkpt>
      <trkpt lat="48.70438" lon="2.04772">
        <ele>106.2</ele>
        <time>2026-03-29T14:52:06Z</time>
      </trkpt>
      <trkpt lat="48.70436" lon="2.04775">
        <ele>106.2</ele>
        <time>2026-03-29T14:52:07Z</time>
      </trkpt>
      <trkpt lat="48.70434" lon="2.04778">
        <ele>106.2</ele>
        <time>2026-03-29T14:52:08Z</time>
      </trkpt>
      <trkpt lat="48.70432" lon="2.04782">
        <ele>106.2</ele>
        <time>2026-03-29T14:52:09Z</time>
      </trkpt>
      <trkpt lat="48.70431" lon="2.04786">
        <ele>106.6</ele>
        <time>2026-03-29T14:52:10Z</time>
      </trkpt>
      <trkpt lat="48.70429" lon="2.0479">
        <ele>106.6</ele>
        <time>2026-03-29T14:52:11Z</time>
      </trkpt>
      <trkpt lat="48.70428" lon="2.04795">
        <ele>106.6</ele>
        <time>2026-03-29T14:52:12Z</time>
      </trkpt>
      <trkpt lat="48.70427" lon="2.04799">
        <ele>106.6</ele>
        <time>2026-03-29T14:52:13Z</time>
      </trkpt>
      <trkpt lat="48.70426" lon="2.04803">
        <ele>107.4</ele>
        <time>2026-03-29T14:52:14Z</time>
      </trkpt>
      <trkpt lat="48.70425" lon="2.04807">
        <ele>107.4</ele>
        <time>2026-03-29T14:52:15Z</time>
      </trkpt>
      <trkpt lat="48.70424" lon="2.04812">
        <ele>107.4</ele>
        <time>2026-03-29T14:52:16Z</time>
      </trkpt>
      <trkpt lat="48.70423" lon="2.04816">
        <ele>107.4</ele>
        <time>2026-03-29T14:52:17Z</time>
      </trkpt>
      <trkpt lat="48.70423" lon="2.04821">
        <ele>108.2</ele>
        <time>2026-03-29T14:52:18Z</time>
      </trkpt>
      <trkpt lat="48.70421" lon="2.04825">
        <ele>108.2</ele>
        <time>2026-03-29T14:52:19Z</time>
      </trkpt>
      <trkpt lat="48.7042" lon="2.04829">
        <ele>108.2</ele>
        <time>2026-03-29T14:52:20Z</time>
      </trkpt>
      <trkpt lat="48.70418" lon="2.04833">
        <ele>108</ele>
        <time>2026-03-29T14:52:21Z</time>
      </trkpt>
      <trkpt lat="48.70416" lon="2.04839">
        <ele>107.8</ele>
        <time>2026-03-29T14:52:22Z</time>
      </trkpt>
      <trkpt lat="48.70414" lon="2.04845">
        <ele>107.8</ele>
        <time>2026-03-29T14:52:23Z</time>
      </trkpt>
      <trkpt lat="48.70413" lon="2.04851">
        <ele>107.8</ele>
        <time>2026-03-29T14:52:24Z</time>
      </trkpt>
      <trkpt lat="48.70411" lon="2.04856">
        <ele>107.8</ele>
        <time>2026-03-29T14:52:25Z</time>
      </trkpt>
      <trkpt lat="48.70409" lon="2.04861">
        <ele>107.6</ele>
        <time>2026-03-29T14:52:26Z</time>
      </trkpt>
      <trkpt lat="48.70407" lon="2.04867">
        <ele>107.6</ele>
        <time>2026-03-29T14:52:27Z</time>
      </trkpt>
      <trkpt lat="48.70405" lon="2.04872">
        <ele>107.6</ele>
        <time>2026-03-29T14:52:28Z</time>
      </trkpt>
      <trkpt lat="48.70402" lon="2.04877">
        <ele>107.6</ele>
        <time>2026-03-29T14:52:29Z</time>
      </trkpt>
      <trkpt lat="48.704" lon="2.04881">
        <ele>108.2</ele>
        <time>2026-03-29T14:52:30Z</time>
      </trkpt>
      <trkpt lat="48.70398" lon="2.04886">
        <ele>108.2</ele>
        <time>2026-03-29T14:52:31Z</time>
      </trkpt>
      <trkpt lat="48.70396" lon="2.04891">
        <ele>108.2</ele>
        <time>2026-03-29T14:52:32Z</time>
      </trkpt>
      <trkpt lat="48.70394" lon="2.04896">
        <ele>108.2</ele>
        <time>2026-03-29T14:52:33Z</time>
      </trkpt>
      <trkpt lat="48.70391" lon="2.049">
        <ele>108.6</ele>
        <time>2026-03-29T14:52:34Z</time>
      </trkpt>
      <trkpt lat="48.70389" lon="2.04905">
        <ele>108.6</ele>
        <time>2026-03-29T14:52:35Z</time>
      </trkpt>
      <trkpt lat="48.70387" lon="2.0491">
        <ele>108.6</ele>
        <time>2026-03-29T14:52:36Z</time>
      </trkpt>
      <trkpt lat="48.70384" lon="2.04915">
        <ele>108.6</ele>
        <time>2026-03-29T14:52:37Z</time>
      </trkpt>
      <trkpt lat="48.70382" lon="2.0492">
        <ele>108.8</ele>
        <time>2026-03-29T14:52:38Z</time>
      </trkpt>
      <trkpt lat="48.7038" lon="2.04925">
        <ele>108.8</ele>
        <time>2026-03-29T14:52:39Z</time>
      </trkpt>
      <trkpt lat="48.70378" lon="2.0493">
        <ele>108.8</ele>
        <time>2026-03-29T14:52:40Z</time>
      </trkpt>
      <trkpt lat="48.70376" lon="2.04935">
        <ele>109.4</ele>
        <time>2026-03-29T14:52:41Z</time>
      </trkpt>
      <trkpt lat="48.70374" lon="2.0494">
        <ele>109</ele>
        <time>2026-03-29T14:52:42Z</time>
      </trkpt>
      <trkpt lat="48.70372" lon="2.04946">
        <ele>109</ele>
        <time>2026-03-29T14:52:43Z</time>
      </trkpt>
      <trkpt lat="48.70371" lon="2.04951">
        <ele>109</ele>
        <time>2026-03-29T14:52:44Z</time>
      </trkpt>
      <trkpt lat="48.70369" lon="2.04957">
        <ele>109.8</ele>
        <time>2026-03-29T14:52:45Z</time>
      </trkpt>
      <trkpt lat="48.70367" lon="2.04963">
        <ele>110</ele>
        <time>2026-03-29T14:52:46Z</time>
      </trkpt>
      <trkpt lat="48.70365" lon="2.04969">
        <ele>110</ele>
        <time>2026-03-29T14:52:47Z</time>
      </trkpt>
      <trkpt lat="48.70364" lon="2.04974">
        <ele>110</ele>
        <time>2026-03-29T14:52:48Z</time>
      </trkpt>
      <trkpt lat="48.70362" lon="2.0498">
        <ele>109.2</ele>
        <time>2026-03-29T14:52:49Z</time>
      </trkpt>
      <trkpt lat="48.70361" lon="2.04986">
        <ele>109.6</ele>
        <time>2026-03-29T14:52:50Z</time>
      </trkpt>
      <trkpt lat="48.70359" lon="2.04991">
        <ele>109.6</ele>
        <time>2026-03-29T14:52:51Z</time>
      </trkpt>
      <trkpt lat="48.70358" lon="2.04997">
        <ele>109.6</ele>
        <time>2026-03-29T14:52:52Z</time>
      </trkpt>
      <trkpt lat="48.70357" lon="2.05003">
        <ele>110.2</ele>
        <time>2026-03-29T14:52:53Z</time>
      </trkpt>
      <trkpt lat="48.70355" lon="2.05008">
        <ele>110.4</ele>
        <time>2026-03-29T14:52:54Z</time>
      </trkpt>
      <trkpt lat="48.70354" lon="2.05014">
        <ele>110.4</ele>
        <time>2026-03-29T14:52:55Z</time>
      </trkpt>
      <trkpt lat="48.70352" lon="2.05019">
        <ele>110.4</ele>
        <time>2026-03-29T14:52:56Z</time>
      </trkpt>
      <trkpt lat="48.7035" lon="2.05025">
        <ele>110.4</ele>
        <time>2026-03-29T14:52:57Z</time>
      </trkpt>
      <trkpt lat="48.70347" lon="2.0503">
        <ele>110.2</ele>
        <time>2026-03-29T14:52:58Z</time>
      </trkpt>
      <trkpt lat="48.70345" lon="2.05034">
        <ele>110.2</ele>
        <time>2026-03-29T14:52:59Z</time>
      </trkpt>
      <trkpt lat="48.70343" lon="2.0504">
        <ele>110.2</ele>
        <time>2026-03-29T14:53:00Z</time>
      </trkpt>
      <trkpt lat="48.70341" lon="2.05046">
        <ele>110</ele>
        <time>2026-03-29T14:53:01Z</time>
      </trkpt>
      <trkpt lat="48.70339" lon="2.05051">
        <ele>111.4</ele>
        <time>2026-03-29T14:53:02Z</time>
      </trkpt>
      <trkpt lat="48.70336" lon="2.05057">
        <ele>111.4</ele>
        <time>2026-03-29T14:53:03Z</time>
      </trkpt>
      <trkpt lat="48.70334" lon="2.05062">
        <ele>111.4</ele>
        <time>2026-03-29T14:53:04Z</time>
      </trkpt>
      <trkpt lat="48.70331" lon="2.05067">
        <ele>110.6</ele>
        <time>2026-03-29T14:53:05Z</time>
      </trkpt>
      <trkpt lat="48.70329" lon="2.05072">
        <ele>110.2</ele>
        <time>2026-03-29T14:53:06Z</time>
      </trkpt>
      <trkpt lat="48.70326" lon="2.05078">
        <ele>110.2</ele>
        <time>2026-03-29T14:53:07Z</time>
      </trkpt>
      <trkpt lat="48.70324" lon="2.05083">
        <ele>110.2</ele>
        <time>2026-03-29T14:53:08Z</time>
      </trkpt>
      <trkpt lat="48.70321" lon="2.05088">
        <ele>110.2</ele>
        <time>2026-03-29T14:53:09Z</time>
      </trkpt>
      <trkpt lat="48.70319" lon="2.05094">
        <ele>110.2</ele>
        <time>2026-03-29T14:53:10Z</time>
      </trkpt>
      <trkpt lat="48.70316" lon="2.051">
        <ele>110.2</ele>
        <time>2026-03-29T14:53:11Z</time>
      </trkpt>
      <trkpt lat="48.70314" lon="2.05106">
        <ele>110.2</ele>
        <time>2026-03-29T14:53:12Z</time>
      </trkpt>
      <trkpt lat="48.70312" lon="2.05112">
        <ele>110.2</ele>
        <time>2026-03-29T14:53:13Z</time>
      </trkpt>
      <trkpt lat="48.70311" lon="2.05117">
        <ele>110</ele>
        <time>2026-03-29T14:53:14Z</time>
      </trkpt>
      <trkpt lat="48.7031" lon="2.05122">
        <ele>110</ele>
        <time>2026-03-29T14:53:15Z</time>
      </trkpt>
      <trkpt lat="48.70308" lon="2.05128">
        <ele>110</ele>
        <time>2026-03-29T14:53:16Z</time>
      </trkpt>
      <trkpt lat="48.70306" lon="2.05134">
        <ele>110.4</ele>
        <time>2026-03-29T14:53:17Z</time>
      </trkpt>
      <trkpt lat="48.70304" lon="2.05139">
        <ele>110</ele>
        <time>2026-03-29T14:53:18Z</time>
      </trkpt>
      <trkpt lat="48.70302" lon="2.05145">
        <ele>110</ele>
        <time>2026-03-29T14:53:19Z</time>
      </trkpt>
      <trkpt lat="48.703" lon="2.0515">
        <ele>110</ele>
        <time>2026-03-29T14:53:20Z</time>
      </trkpt>
      <trkpt lat="48.70298" lon="2.05155">
        <ele>110</ele>
        <time>2026-03-29T14:53:21Z</time>
      </trkpt>
      <trkpt lat="48.70296" lon="2.05158">
        <ele>110.4</ele>
        <time>2026-03-29T14:53:22Z</time>
      </trkpt>
      <trkpt lat="48.70294" lon="2.05163">
        <ele>110.4</ele>
        <time>2026-03-29T14:53:23Z</time>
      </trkpt>
      <trkpt lat="48.70292" lon="2.05167">
        <ele>110.4</ele>
        <time>2026-03-29T14:53:24Z</time>
      </trkpt>
      <trkpt lat="48.70292" lon="2.0517">
        <ele>110.4</ele>
        <time>2026-03-29T14:53:25Z</time>
      </trkpt>
      <trkpt lat="48.7029" lon="2.05175">
        <ele>110.2</ele>
        <time>2026-03-29T14:53:26Z</time>
      </trkpt>
      <trkpt lat="48.70288" lon="2.05179">
        <ele>110.2</ele>
        <time>2026-03-29T14:53:27Z</time>
      </trkpt>
      <trkpt lat="48.70284" lon="2.05183">
        <ele>110.2</ele>
        <time>2026-03-29T14:53:28Z</time>
      </trkpt>
      <trkpt lat="48.70282" lon="2.05188">
        <ele>110.2</ele>
        <time>2026-03-29T14:53:29Z</time>
      </trkpt>
      <trkpt lat="48.70279" lon="2.05193">
        <ele>110.6</ele>
        <time>2026-03-29T14:53:30Z</time>
      </trkpt>
      <trkpt lat="48.70276" lon="2.05198">
        <ele>110.6</ele>
        <time>2026-03-29T14:53:31Z</time>
      </trkpt>
      <trkpt lat="48.70273" lon="2.05202">
        <ele>110.6</ele>
        <time>2026-03-29T14:53:32Z</time>
      </trkpt>
      <trkpt lat="48.7027" lon="2.05208">
        <ele>110.4</ele>
        <time>2026-03-29T14:53:33Z</time>
      </trkpt>
      <trkpt lat="48.70267" lon="2.05214">
        <ele>110</ele>
        <time>2026-03-29T14:53:34Z</time>
      </trkpt>
      <trkpt lat="48.70264" lon="2.05221">
        <ele>110</ele>
        <time>2026-03-29T14:53:35Z</time>
      </trkpt>
      <trkpt lat="48.70262" lon="2.05228">
        <ele>110</ele>
        <time>2026-03-29T14:53:36Z</time>
      </trkpt>
      <trkpt lat="48.70259" lon="2.05235">
        <ele>110.4</ele>
        <time>2026-03-29T14:53:37Z</time>
      </trkpt>
      <trkpt lat="48.70256" lon="2.05241">
        <ele>109.8</ele>
        <time>2026-03-29T14:53:38Z</time>
      </trkpt>
      <trkpt lat="48.70253" lon="2.05248">
        <ele>109.8</ele>
        <time>2026-03-29T14:53:39Z</time>
      </trkpt>
      <trkpt lat="48.7025" lon="2.05255">
        <ele>109.8</ele>
        <time>2026-03-29T14:53:40Z</time>
      </trkpt>
      <trkpt lat="48.70247" lon="2.05262">
        <ele>109.4</ele>
        <time>2026-03-29T14:53:41Z</time>
      </trkpt>
      <trkpt lat="48.70245" lon="2.05267">
        <ele>108.6</ele>
        <time>2026-03-29T14:53:42Z</time>
      </trkpt>
      <trkpt lat="48.70243" lon="2.05272">
        <ele>108.6</ele>
        <time>2026-03-29T14:53:43Z</time>
      </trkpt>
      <trkpt lat="48.70241" lon="2.05275">
        <ele>108.6</ele>
        <time>2026-03-29T14:53:44Z</time>
      </trkpt>
      <trkpt lat="48.7024" lon="2.05277">
        <ele>108.6</ele>
        <time>2026-03-29T14:53:45Z</time>
      </trkpt>
      <trkpt lat="48.70239" lon="2.05279">
        <ele>108.6</ele>
        <time>2026-03-29T14:53:46Z</time>
      </trkpt>
      <trkpt lat="48.70238" lon="2.05281">
        <ele>108.6</ele>
        <time>2026-03-29T14:53:47Z</time>
      </trkpt>
      <trkpt lat="48.70236" lon="2.05284">
        <ele>108.6</ele>
        <time>2026-03-29T14:53:48Z</time>
      </trkpt>
      <trkpt lat="48.70235" lon="2.05287">
        <ele>108.6</ele>
        <time>2026-03-29T14:53:49Z</time>
      </trkpt>
      <trkpt lat="48.70233" lon="2.05289">
        <ele>109</ele>
        <time>2026-03-29T14:53:50Z</time>
      </trkpt>
      <trkpt lat="48.7023" lon="2.05292">
        <ele>109</ele>
        <time>2026-03-29T14:53:51Z</time>
      </trkpt>
      <trkpt lat="48.70227" lon="2.05292">
        <ele>109</ele>
        <time>2026-03-29T14:53:52Z</time>
      </trkpt>
      <trkpt lat="48.70224" lon="2.05293">
        <ele>109</ele>
        <time>2026-03-29T14:53:53Z</time>
      </trkpt>
      <trkpt lat="48.70222" lon="2.05295">
        <ele>109.2</ele>
        <time>2026-03-29T14:53:54Z</time>
      </trkpt>
      <trkpt lat="48.70221" lon="2.05296">
        <ele>109.2</ele>
        <time>2026-03-29T14:53:55Z</time>
      </trkpt>
      <trkpt lat="48.7022" lon="2.05299">
        <ele>109.2</ele>
        <time>2026-03-29T14:53:56Z</time>
      </trkpt>
      <trkpt lat="48.70219" lon="2.05303">
        <ele>109.2</ele>
        <time>2026-03-29T14:53:57Z</time>
      </trkpt>
      <trkpt lat="48.70218" lon="2.05308">
        <ele>108.6</ele>
        <time>2026-03-29T14:53:58Z</time>
      </trkpt>
      <trkpt lat="48.70218" lon="2.05315">
        <ele>108.6</ele>
        <time>2026-03-29T14:53:59Z</time>
      </trkpt>
      <trkpt lat="48.70217" lon="2.05322">
        <ele>108.6</ele>
        <time>2026-03-29T14:54:00Z</time>
      </trkpt>
      <trkpt lat="48.70216" lon="2.0533">
        <ele>108.6</ele>
        <time>2026-03-29T14:54:01Z</time>
      </trkpt>
      <trkpt lat="48.70215" lon="2.05338">
        <ele>108</ele>
        <time>2026-03-29T14:54:02Z</time>
      </trkpt>
      <trkpt lat="48.70214" lon="2.05347">
        <ele>108</ele>
        <time>2026-03-29T14:54:03Z</time>
      </trkpt>
      <trkpt lat="48.70214" lon="2.05355">
        <ele>108</ele>
        <time>2026-03-29T14:54:04Z</time>
      </trkpt>
      <trkpt lat="48.70214" lon="2.05365">
        <ele>108</ele>
        <time>2026-03-29T14:54:05Z</time>
      </trkpt>
      <trkpt lat="48.70215" lon="2.05374">
        <ele>107.8</ele>
        <time>2026-03-29T14:54:06Z</time>
      </trkpt>
      <trkpt lat="48.70215" lon="2.05383">
        <ele>107.8</ele>
        <time>2026-03-29T14:54:07Z</time>
      </trkpt>
      <trkpt lat="48.70216" lon="2.05393">
        <ele>107.8</ele>
        <time>2026-03-29T14:54:08Z</time>
      </trkpt>
      <trkpt lat="48.70217" lon="2.05402">
        <ele>107.2</ele>
        <time>2026-03-29T14:54:09Z</time>
      </trkpt>
      <trkpt lat="48.70217" lon="2.05412">
        <ele>107.4</ele>
        <time>2026-03-29T14:54:10Z</time>
      </trkpt>
      <trkpt lat="48.70217" lon="2.05421">
        <ele>107.4</ele>
        <time>2026-03-29T14:54:11Z</time>
      </trkpt>
      <trkpt lat="48.70218" lon="2.05431">
        <ele>107.4</ele>
        <time>2026-03-29T14:54:12Z</time>
      </trkpt>
      <trkpt lat="48.70218" lon="2.05441">
        <ele>107.4</ele>
        <time>2026-03-29T14:54:13Z</time>
      </trkpt>
      <trkpt lat="48.70219" lon="2.0545">
        <ele>106.6</ele>
        <time>2026-03-29T14:54:14Z</time>
      </trkpt>
      <trkpt lat="48.70219" lon="2.0546">
        <ele>106.6</ele>
        <time>2026-03-29T14:54:15Z</time>
      </trkpt>
      <trkpt lat="48.7022" lon="2.0547">
        <ele>106.6</ele>
        <time>2026-03-29T14:54:16Z</time>
      </trkpt>
      <trkpt lat="48.7022" lon="2.0548">
        <ele>105.6</ele>
        <time>2026-03-29T14:54:17Z</time>
      </trkpt>
      <trkpt lat="48.70221" lon="2.05489">
        <ele>106</ele>
        <time>2026-03-29T14:54:18Z</time>
      </trkpt>
      <trkpt lat="48.70223" lon="2.05499">
        <ele>106</ele>
        <time>2026-03-29T14:54:19Z</time>
      </trkpt>
      <trkpt lat="48.70226" lon="2.05507">
        <ele>106</ele>
        <time>2026-03-29T14:54:20Z</time>
      </trkpt>
      <trkpt lat="48.70231" lon="2.05514">
        <ele>105</ele>
        <time>2026-03-29T14:54:21Z</time>
      </trkpt>
      <trkpt lat="48.70236" lon="2.05521">
        <ele>104.6</ele>
        <time>2026-03-29T14:54:22Z</time>
      </trkpt>
      <trkpt lat="48.70239" lon="2.0553">
        <ele>104.6</ele>
        <time>2026-03-29T14:54:23Z</time>
      </trkpt>
      <trkpt lat="48.7024" lon="2.05541">
        <ele>104.6</ele>
        <time>2026-03-29T14:54:24Z</time>
      </trkpt>
      <trkpt lat="48.7024" lon="2.05551">
        <ele>104.6</ele>
        <time>2026-03-29T14:54:25Z</time>
      </trkpt>
      <trkpt lat="48.70238" lon="2.05561">
        <ele>104.4</ele>
        <time>2026-03-29T14:54:26Z</time>
      </trkpt>
      <trkpt lat="48.70236" lon="2.05569">
        <ele>104.4</ele>
        <time>2026-03-29T14:54:27Z</time>
      </trkpt>
      <trkpt lat="48.70234" lon="2.05577">
        <ele>104.4</ele>
        <time>2026-03-29T14:54:28Z</time>
      </trkpt>
      <trkpt lat="48.70234" lon="2.05585">
        <ele>105.4</ele>
        <time>2026-03-29T14:54:29Z</time>
      </trkpt>
      <trkpt lat="48.70235" lon="2.05593">
        <ele>105.2</ele>
        <time>2026-03-29T14:54:30Z</time>
      </trkpt>
      <trkpt lat="48.70236" lon="2.05601">
        <ele>105.2</ele>
        <time>2026-03-29T14:54:31Z</time>
      </trkpt>
      <trkpt lat="48.70238" lon="2.05609">
        <ele>105.2</ele>
        <time>2026-03-29T14:54:32Z</time>
      </trkpt>
      <trkpt lat="48.70239" lon="2.05617">
        <ele>105.6</ele>
        <time>2026-03-29T14:54:33Z</time>
      </trkpt>
      <trkpt lat="48.70241" lon="2.05625">
        <ele>105.8</ele>
        <time>2026-03-29T14:54:34Z</time>
      </trkpt>
      <trkpt lat="48.70243" lon="2.05633">
        <ele>105.8</ele>
        <time>2026-03-29T14:54:35Z</time>
      </trkpt>
      <trkpt lat="48.70245" lon="2.05641">
        <ele>105.8</ele>
        <time>2026-03-29T14:54:36Z</time>
      </trkpt>
      <trkpt lat="48.70247" lon="2.05649">
        <ele>105.8</ele>
        <time>2026-03-29T14:54:37Z</time>
      </trkpt>
      <trkpt lat="48.70249" lon="2.05657">
        <ele>106.8</ele>
        <time>2026-03-29T14:54:38Z</time>
      </trkpt>
      <trkpt lat="48.70251" lon="2.05665">
        <ele>106.8</ele>
        <time>2026-03-29T14:54:39Z</time>
      </trkpt>
      <trkpt lat="48.70253" lon="2.05673">
        <ele>106.8</ele>
        <time>2026-03-29T14:54:40Z</time>
      </trkpt>
      <trkpt lat="48.70255" lon="2.05681">
        <ele>105.8</ele>
        <time>2026-03-29T14:54:41Z</time>
      </trkpt>
      <trkpt lat="48.70257" lon="2.05688">
        <ele>106.4</ele>
        <time>2026-03-29T14:54:42Z</time>
      </trkpt>
      <trkpt lat="48.70259" lon="2.05695">
        <ele>106.4</ele>
        <time>2026-03-29T14:54:43Z</time>
      </trkpt>
      <trkpt lat="48.7026" lon="2.05702">
        <ele>106.4</ele>
        <time>2026-03-29T14:54:44Z</time>
      </trkpt>
      <trkpt lat="48.70262" lon="2.05709">
        <ele>106.4</ele>
        <time>2026-03-29T14:54:45Z</time>
      </trkpt>
      <trkpt lat="48.70264" lon="2.05717">
        <ele>106</ele>
        <time>2026-03-29T14:54:46Z</time>
      </trkpt>
      <trkpt lat="48.70265" lon="2.05725">
        <ele>106</ele>
        <time>2026-03-29T14:54:47Z</time>
      </trkpt>
      <trkpt lat="48.70266" lon="2.05734">
        <ele>106</ele>
        <time>2026-03-29T14:54:48Z</time>
      </trkpt>
      <trkpt lat="48.70267" lon="2.05743">
        <ele>106</ele>
        <time>2026-03-29T14:54:49Z</time>
      </trkpt>
      <trkpt lat="48.70268" lon="2.05752">
        <ele>105.2</ele>
        <time>2026-03-29T14:54:50Z</time>
      </trkpt>
      <trkpt lat="48.70269" lon="2.05761">
        <ele>105.2</ele>
        <time>2026-03-29T14:54:51Z</time>
      </trkpt>
      <trkpt lat="48.7027" lon="2.05771">
        <ele>105.2</ele>
        <time>2026-03-29T14:54:52Z</time>
      </trkpt>
      <trkpt lat="48.7027" lon="2.0578">
        <ele>105.2</ele>
        <time>2026-03-29T14:54:53Z</time>
      </trkpt>
      <trkpt lat="48.70271" lon="2.05789">
        <ele>104.8</ele>
        <time>2026-03-29T14:54:54Z</time>
      </trkpt>
      <trkpt lat="48.7027" lon="2.05798">
        <ele>104.8</ele>
        <time>2026-03-29T14:54:55Z</time>
      </trkpt>
      <trkpt lat="48.7027" lon="2.05807">
        <ele>104.8</ele>
        <time>2026-03-29T14:54:56Z</time>
      </trkpt>
      <trkpt lat="48.7027" lon="2.05816">
        <ele>104.8</ele>
        <time>2026-03-29T14:54:57Z</time>
      </trkpt>
      <trkpt lat="48.70271" lon="2.05825">
        <ele>104.2</ele>
        <time>2026-03-29T14:54:58Z</time>
      </trkpt>
      <trkpt lat="48.70271" lon="2.05834">
        <ele>104.2</ele>
        <time>2026-03-29T14:54:59Z</time>
      </trkpt>
      <trkpt lat="48.70271" lon="2.05843">
        <ele>104.2</ele>
        <time>2026-03-29T14:55:00Z</time>
      </trkpt>
      <trkpt lat="48.7027" lon="2.05853">
        <ele>104.8</ele>
        <time>2026-03-29T14:55:01Z</time>
      </trkpt>
      <trkpt lat="48.7027" lon="2.05862">
        <ele>104.8</ele>
        <time>2026-03-29T14:55:02Z</time>
      </trkpt>
      <trkpt lat="48.70269" lon="2.05871">
        <ele>104.8</ele>
        <time>2026-03-29T14:55:03Z</time>
      </trkpt>
      <trkpt lat="48.70268" lon="2.0588">
        <ele>104.8</ele>
        <time>2026-03-29T14:55:04Z</time>
      </trkpt>
      <trkpt lat="48.70268" lon="2.05889">
        <ele>104.8</ele>
        <time>2026-03-29T14:55:05Z</time>
      </trkpt>
      <trkpt lat="48.70267" lon="2.05898">
        <ele>106</ele>
        <time>2026-03-29T14:55:06Z</time>
      </trkpt>
      <trkpt lat="48.70267" lon="2.05907">
        <ele>106</ele>
        <time>2026-03-29T14:55:07Z</time>
      </trkpt>
      <trkpt lat="48.70267" lon="2.05916">
        <ele>106</ele>
        <time>2026-03-29T14:55:08Z</time>
      </trkpt>
      <trkpt lat="48.70267" lon="2.05924">
        <ele>106</ele>
        <time>2026-03-29T14:55:09Z</time>
      </trkpt>
      <trkpt lat="48.70266" lon="2.05933">
        <ele>106.4</ele>
        <time>2026-03-29T14:55:10Z</time>
      </trkpt>
      <trkpt lat="48.70266" lon="2.05942">
        <ele>106.4</ele>
        <time>2026-03-29T14:55:11Z</time>
      </trkpt>
      <trkpt lat="48.70265" lon="2.0595">
        <ele>106.4</ele>
        <time>2026-03-29T14:55:12Z</time>
      </trkpt>
      <trkpt lat="48.70265" lon="2.05959">
        <ele>105.4</ele>
        <time>2026-03-29T14:55:13Z</time>
      </trkpt>
      <trkpt lat="48.70265" lon="2.05968">
        <ele>105.6</ele>
        <time>2026-03-29T14:55:14Z</time>
      </trkpt>
      <trkpt lat="48.70264" lon="2.05977">
        <ele>105.6</ele>
        <time>2026-03-29T14:55:15Z</time>
      </trkpt>
      <trkpt lat="48.70264" lon="2.05985">
        <ele>105.6</ele>
        <time>2026-03-29T14:55:16Z</time>
      </trkpt>
      <trkpt lat="48.70263" lon="2.05994">
        <ele>105</ele>
        <time>2026-03-29T14:55:17Z</time>
      </trkpt>
      <trkpt lat="48.70263" lon="2.06002">
        <ele>104.6</ele>
        <time>2026-03-29T14:55:18Z</time>
      </trkpt>
      <trkpt lat="48.70263" lon="2.06011">
        <ele>104.6</ele>
        <time>2026-03-29T14:55:19Z</time>
      </trkpt>
      <trkpt lat="48.70263" lon="2.06019">
        <ele>104.6</ele>
        <time>2026-03-29T14:55:20Z</time>
      </trkpt>
      <trkpt lat="48.70263" lon="2.06028">
        <ele>104.6</ele>
        <time>2026-03-29T14:55:21Z</time>
      </trkpt>
      <trkpt lat="48.70264" lon="2.06036">
        <ele>105.8</ele>
        <time>2026-03-29T14:55:22Z</time>
      </trkpt>
      <trkpt lat="48.70263" lon="2.06044">
        <ele>105.8</ele>
        <time>2026-03-29T14:55:23Z</time>
      </trkpt>
      <trkpt lat="48.70262" lon="2.06052">
        <ele>105.8</ele>
        <time>2026-03-29T14:55:24Z</time>
      </trkpt>
      <trkpt lat="48.70261" lon="2.06061">
        <ele>105.4</ele>
        <time>2026-03-29T14:55:25Z</time>
      </trkpt>
      <trkpt lat="48.70261" lon="2.06069">
        <ele>105.8</ele>
        <time>2026-03-29T14:55:26Z</time>
      </trkpt>
      <trkpt lat="48.70261" lon="2.06078">
        <ele>105.8</ele>
        <time>2026-03-29T14:55:27Z</time>
      </trkpt>
      <trkpt lat="48.70261" lon="2.06087">
        <ele>105.8</ele>
        <time>2026-03-29T14:55:28Z</time>
      </trkpt>
      <trkpt lat="48.70261" lon="2.06095">
        <ele>105.8</ele>
        <time>2026-03-29T14:55:29Z</time>
      </trkpt>
      <trkpt lat="48.70261" lon="2.06104">
        <ele>104.4</ele>
        <time>2026-03-29T14:55:30Z</time>
      </trkpt>
      <trkpt lat="48.7026" lon="2.06114">
        <ele>104.4</ele>
        <time>2026-03-29T14:55:31Z</time>
      </trkpt>
      <trkpt lat="48.70259" lon="2.06123">
        <ele>104.4</ele>
        <time>2026-03-29T14:55:32Z</time>
      </trkpt>
      <trkpt lat="48.70259" lon="2.06133">
        <ele>104.4</ele>
        <time>2026-03-29T14:55:33Z</time>
      </trkpt>
      <trkpt lat="48.7026" lon="2.06143">
        <ele>103.8</ele>
        <time>2026-03-29T14:55:34Z</time>
      </trkpt>
      <trkpt lat="48.7026" lon="2.06153">
        <ele>103.8</ele>
        <time>2026-03-29T14:55:35Z</time>
      </trkpt>
      <trkpt lat="48.70259" lon="2.06164">
        <ele>103.8</ele>
        <time>2026-03-29T14:55:36Z</time>
      </trkpt>
      <trkpt lat="48.70259" lon="2.06174">
        <ele>103.8</ele>
        <time>2026-03-29T14:55:37Z</time>
      </trkpt>
      <trkpt lat="48.70258" lon="2.06183">
        <ele>104.2</ele>
        <time>2026-03-29T14:55:38Z</time>
      </trkpt>
      <trkpt lat="48.70257" lon="2.06192">
        <ele>104.2</ele>
        <time>2026-03-29T14:55:39Z</time>
      </trkpt>
      <trkpt lat="48.70256" lon="2.062">
        <ele>104.2</ele>
        <time>2026-03-29T14:55:40Z</time>
      </trkpt>
      <trkpt lat="48.70254" lon="2.06208">
        <ele>104.2</ele>
        <time>2026-03-29T14:55:41Z</time>
      </trkpt>
      <trkpt lat="48.70252" lon="2.06216">
        <ele>104</ele>
        <time>2026-03-29T14:55:42Z</time>
      </trkpt>
      <trkpt lat="48.7025" lon="2.06224">
        <ele>104</ele>
        <time>2026-03-29T14:55:43Z</time>
      </trkpt>
      <trkpt lat="48.70248" lon="2.06232">
        <ele>104</ele>
        <time>2026-03-29T14:55:44Z</time>
      </trkpt>
      <trkpt lat="48.70246" lon="2.0624">
        <ele>104</ele>
        <time>2026-03-29T14:55:45Z</time>
      </trkpt>
      <trkpt lat="48.70244" lon="2.06247">
        <ele>104.4</ele>
        <time>2026-03-29T14:55:46Z</time>
      </trkpt>
      <trkpt lat="48.70243" lon="2.06255">
        <ele>104.4</ele>
        <time>2026-03-29T14:55:47Z</time>
      </trkpt>
      <trkpt lat="48.70242" lon="2.06263">
        <ele>104.4</ele>
        <time>2026-03-29T14:55:48Z</time>
      </trkpt>
      <trkpt lat="48.70239" lon="2.0627">
        <ele>104.4</ele>
        <time>2026-03-29T14:55:49Z</time>
      </trkpt>
      <trkpt lat="48.70237" lon="2.06278">
        <ele>104.4</ele>
        <time>2026-03-29T14:55:50Z</time>
      </trkpt>
      <trkpt lat="48.70235" lon="2.06286">
        <ele>104.4</ele>
        <time>2026-03-29T14:55:51Z</time>
      </trkpt>
      <trkpt lat="48.70234" lon="2.06295">
        <ele>104.4</ele>
        <time>2026-03-29T14:55:52Z</time>
      </trkpt>
      <trkpt lat="48.70232" lon="2.06303">
        <ele>104.4</ele>
        <time>2026-03-29T14:55:53Z</time>
      </trkpt>
      <trkpt lat="48.70232" lon="2.06313">
        <ele>104.6</ele>
        <time>2026-03-29T14:55:54Z</time>
      </trkpt>
      <trkpt lat="48.70231" lon="2.06322">
        <ele>104.6</ele>
        <time>2026-03-29T14:55:55Z</time>
      </trkpt>
      <trkpt lat="48.70231" lon="2.06332">
        <ele>104.6</ele>
        <time>2026-03-29T14:55:56Z</time>
      </trkpt>
      <trkpt lat="48.70231" lon="2.06342">
        <ele>103.6</ele>
        <time>2026-03-29T14:55:57Z</time>
      </trkpt>
      <trkpt lat="48.7023" lon="2.06352">
        <ele>103</ele>
        <time>2026-03-29T14:55:58Z</time>
      </trkpt>
      <trkpt lat="48.7023" lon="2.06363">
        <ele>103</ele>
        <time>2026-03-29T14:55:59Z</time>
      </trkpt>
      <trkpt lat="48.7023" lon="2.06373">
        <ele>103</ele>
        <time>2026-03-29T14:56:00Z</time>
      </trkpt>
      <trkpt lat="48.7023" lon="2.06384">
        <ele>103</ele>
        <time>2026-03-29T14:56:01Z</time>
      </trkpt>
      <trkpt lat="48.7023" lon="2.06395">
        <ele>102.2</ele>
        <time>2026-03-29T14:56:02Z</time>
      </trkpt>
      <trkpt lat="48.7023" lon="2.06406">
        <ele>102.2</ele>
        <time>2026-03-29T14:56:03Z</time>
      </trkpt>
      <trkpt lat="48.7023" lon="2.06417">
        <ele>102.2</ele>
        <time>2026-03-29T14:56:04Z</time>
      </trkpt>
      <trkpt lat="48.70229" lon="2.06428">
        <ele>102.2</ele>
        <time>2026-03-29T14:56:05Z</time>
      </trkpt>
      <trkpt lat="48.70229" lon="2.06439">
        <ele>101.6</ele>
        <time>2026-03-29T14:56:06Z</time>
      </trkpt>
      <trkpt lat="48.70229" lon="2.06451">
        <ele>101.6</ele>
        <time>2026-03-29T14:56:07Z</time>
      </trkpt>
      <trkpt lat="48.70229" lon="2.06462">
        <ele>101.6</ele>
        <time>2026-03-29T14:56:08Z</time>
      </trkpt>
      <trkpt lat="48.70228" lon="2.06473">
        <ele>101.6</ele>
        <time>2026-03-29T14:56:09Z</time>
      </trkpt>
      <trkpt lat="48.70228" lon="2.06485">
        <ele>102.2</ele>
        <time>2026-03-29T14:56:10Z</time>
      </trkpt>
      <trkpt lat="48.70228" lon="2.06496">
        <ele>102.2</ele>
        <time>2026-03-29T14:56:11Z</time>
      </trkpt>
      <trkpt lat="48.70228" lon="2.06507">
        <ele>102.2</ele>
        <time>2026-03-29T14:56:12Z</time>
      </trkpt>
      <trkpt lat="48.70227" lon="2.06519">
        <ele>102</ele>
        <time>2026-03-29T14:56:13Z</time>
      </trkpt>
      <trkpt lat="48.70227" lon="2.06531">
        <ele>101</ele>
        <time>2026-03-29T14:56:14Z</time>
      </trkpt>
      <trkpt lat="48.70227" lon="2.06542">
        <ele>101</ele>
        <time>2026-03-29T14:56:15Z</time>
      </trkpt>
      <trkpt lat="48.70227" lon="2.06554">
        <ele>101</ele>
        <time>2026-03-29T14:56:16Z</time>
      </trkpt>
      <trkpt lat="48.70229" lon="2.06566">
        <ele>101</ele>
        <time>2026-03-29T14:56:17Z</time>
      </trkpt>
      <trkpt lat="48.70231" lon="2.06578">
        <ele>101.2</ele>
        <time>2026-03-29T14:56:18Z</time>
      </trkpt>
      <trkpt lat="48.70234" lon="2.0659">
        <ele>101.2</ele>
        <time>2026-03-29T14:56:19Z</time>
      </trkpt>
      <trkpt lat="48.70236" lon="2.06601">
        <ele>101.2</ele>
        <time>2026-03-29T14:56:20Z</time>
      </trkpt>
      <trkpt lat="48.70238" lon="2.06613">
        <ele>101.2</ele>
        <time>2026-03-29T14:56:21Z</time>
      </trkpt>
      <trkpt lat="48.70241" lon="2.06624">
        <ele>101.2</ele>
        <time>2026-03-29T14:56:22Z</time>
      </trkpt>
      <trkpt lat="48.70244" lon="2.06635">
        <ele>101.2</ele>
        <time>2026-03-29T14:56:23Z</time>
      </trkpt>
      <trkpt lat="48.70246" lon="2.06645">
        <ele>101.2</ele>
        <time>2026-03-29T14:56:24Z</time>
      </trkpt>
      <trkpt lat="48.70248" lon="2.06656">
        <ele>101.2</ele>
        <time>2026-03-29T14:56:25Z</time>
      </trkpt>
      <trkpt lat="48.70251" lon="2.06665">
        <ele>100.4</ele>
        <time>2026-03-29T14:56:26Z</time>
      </trkpt>
      <trkpt lat="48.70253" lon="2.06674">
        <ele>100.4</ele>
        <time>2026-03-29T14:56:27Z</time>
      </trkpt>
      <trkpt lat="48.70255" lon="2.06683">
        <ele>100.4</ele>
        <time>2026-03-29T14:56:28Z</time>
      </trkpt>
      <trkpt lat="48.70256" lon="2.06691">
        <ele>100.4</ele>
        <time>2026-03-29T14:56:29Z</time>
      </trkpt>
      <trkpt lat="48.70258" lon="2.067">
        <ele>100.6</ele>
        <time>2026-03-29T14:56:30Z</time>
      </trkpt>
      <trkpt lat="48.70259" lon="2.06707">
        <ele>100.6</ele>
        <time>2026-03-29T14:56:31Z</time>
      </trkpt>
      <trkpt lat="48.7026" lon="2.06716">
        <ele>100.6</ele>
        <time>2026-03-29T14:56:32Z</time>
      </trkpt>
      <trkpt lat="48.70261" lon="2.06725">
        <ele>100.4</ele>
        <time>2026-03-29T14:56:33Z</time>
      </trkpt>
      <trkpt lat="48.70261" lon="2.06734">
        <ele>100.6</ele>
        <time>2026-03-29T14:56:34Z</time>
      </trkpt>
      <trkpt lat="48.70262" lon="2.06743">
        <ele>100.6</ele>
        <time>2026-03-29T14:56:35Z</time>
      </trkpt>
      <trkpt lat="48.70263" lon="2.06753">
        <ele>100.6</ele>
        <time>2026-03-29T14:56:36Z</time>
      </trkpt>
      <trkpt lat="48.70264" lon="2.06762">
        <ele>100.6</ele>
        <time>2026-03-29T14:56:37Z</time>
      </trkpt>
      <trkpt lat="48.70265" lon="2.06772">
        <ele>100.8</ele>
        <time>2026-03-29T14:56:38Z</time>
      </trkpt>
      <trkpt lat="48.70266" lon="2.06781">
        <ele>100.8</ele>
        <time>2026-03-29T14:56:39Z</time>
      </trkpt>
      <trkpt lat="48.70268" lon="2.0679">
        <ele>100.8</ele>
        <time>2026-03-29T14:56:40Z</time>
      </trkpt>
      <trkpt lat="48.70269" lon="2.068">
        <ele>100.8</ele>
        <time>2026-03-29T14:56:41Z</time>
      </trkpt>
      <trkpt lat="48.70271" lon="2.06809">
        <ele>101</ele>
        <time>2026-03-29T14:56:42Z</time>
      </trkpt>
      <trkpt lat="48.70273" lon="2.06818">
        <ele>101</ele>
        <time>2026-03-29T14:56:43Z</time>
      </trkpt>
      <trkpt lat="48.70276" lon="2.06827">
        <ele>101</ele>
        <time>2026-03-29T14:56:44Z</time>
      </trkpt>
      <trkpt lat="48.70278" lon="2.06835">
        <ele>101</ele>
        <time>2026-03-29T14:56:45Z</time>
      </trkpt>
      <trkpt lat="48.70281" lon="2.06843">
        <ele>100.2</ele>
        <time>2026-03-29T14:56:46Z</time>
      </trkpt>
      <trkpt lat="48.70284" lon="2.0685">
        <ele>100.2</ele>
        <time>2026-03-29T14:56:47Z</time>
      </trkpt>
      <trkpt lat="48.70286" lon="2.06856">
        <ele>100.2</ele>
        <time>2026-03-29T14:56:48Z</time>
      </trkpt>
      <trkpt lat="48.7029" lon="2.06863">
        <ele>100.2</ele>
        <time>2026-03-29T14:56:49Z</time>
      </trkpt>
      <trkpt lat="48.70293" lon="2.0687">
        <ele>100.4</ele>
        <time>2026-03-29T14:56:50Z</time>
      </trkpt>
      <trkpt lat="48.70297" lon="2.06877">
        <ele>100.4</ele>
        <time>2026-03-29T14:56:51Z</time>
      </trkpt>
      <trkpt lat="48.703" lon="2.06884">
        <ele>100.4</ele>
        <time>2026-03-29T14:56:52Z</time>
      </trkpt>
      <trkpt lat="48.70303" lon="2.06892">
        <ele>100.4</ele>
        <time>2026-03-29T14:56:53Z</time>
      </trkpt>
      <trkpt lat="48.70306" lon="2.06899">
        <ele>100.6</ele>
        <time>2026-03-29T14:56:54Z</time>
      </trkpt>
      <trkpt lat="48.70308" lon="2.06906">
        <ele>100.6</ele>
        <time>2026-03-29T14:56:55Z</time>
      </trkpt>
      <trkpt lat="48.70311" lon="2.06913">
        <ele>100.6</ele>
        <time>2026-03-29T14:56:56Z</time>
      </trkpt>
      <trkpt lat="48.70313" lon="2.0692">
        <ele>100.6</ele>
        <time>2026-03-29T14:56:57Z</time>
      </trkpt>
      <trkpt lat="48.70316" lon="2.06927">
        <ele>100.6</ele>
        <time>2026-03-29T14:56:58Z</time>
      </trkpt>
      <trkpt lat="48.70319" lon="2.06933">
        <ele>100.6</ele>
        <time>2026-03-29T14:56:59Z</time>
      </trkpt>
      <trkpt lat="48.7032" lon="2.06939">
        <ele>100.6</ele>
        <time>2026-03-29T14:57:00Z</time>
      </trkpt>
      <trkpt lat="48.70318" lon="2.06943">
        <ele>100.6</ele>
        <time>2026-03-29T14:57:01Z</time>
      </trkpt>
      <trkpt lat="48.70316" lon="2.06944">
        <ele>101</ele>
        <time>2026-03-29T14:57:02Z</time>
      </trkpt>
      <trkpt lat="48.70315" lon="2.06944">
        <ele>101</ele>
        <time>2026-03-29T14:57:03Z</time>
      </trkpt>
      <trkpt lat="48.70315" lon="2.06944">
        <ele>101</ele>
        <time>2026-03-29T14:57:04Z</time>
      </trkpt>
      <trkpt lat="48.70315" lon="2.06944">
        <ele>101</ele>
        <time>2026-03-29T14:57:05Z</time>
      </trkpt>
      <trkpt lat="48.70313" lon="2.06944">
        <ele>101.2</ele>
        <time>2026-03-29T14:57:20Z</time>
      </trkpt>
      <trkpt lat="48.70311" lon="2.06943">
        <ele>101.2</ele>
        <time>2026-03-29T14:57:21Z</time>
      </trkpt>
      <trkpt lat="48.70309" lon="2.06945">
        <ele>101.2</ele>
        <time>2026-03-29T14:57:22Z</time>
      </trkpt>
      <trkpt lat="48.70307" lon="2.06947">
        <ele>101.2</ele>
        <time>2026-03-29T14:57:23Z</time>
      </trkpt>
      <trkpt lat="48.70304" lon="2.0695">
        <ele>101.2</ele>
        <time>2026-03-29T14:57:24Z</time>
      </trkpt>
      <trkpt lat="48.70302" lon="2.06952">
        <ele>102.2</ele>
        <time>2026-03-29T14:57:25Z</time>
      </trkpt>
      <trkpt lat="48.70299" lon="2.06955">
        <ele>102.6</ele>
        <time>2026-03-29T14:57:26Z</time>
      </trkpt>
      <trkpt lat="48.70297" lon="2.06957">
        <ele>102.6</ele>
        <time>2026-03-29T14:57:27Z</time>
      </trkpt>
      <trkpt lat="48.70295" lon="2.06959">
        <ele>102.6</ele>
        <time>2026-03-29T14:57:28Z</time>
      </trkpt>
      <trkpt lat="48.70292" lon="2.06959">
        <ele>103.2</ele>
        <time>2026-03-29T14:57:29Z</time>
      </trkpt>
      <trkpt lat="48.70289" lon="2.06959">
        <ele>103.4</ele>
        <time>2026-03-29T14:57:30Z</time>
      </trkpt>
      <trkpt lat="48.70286" lon="2.06958">
        <ele>103.4</ele>
        <time>2026-03-29T14:57:31Z</time>
      </trkpt>
      <trkpt lat="48.70283" lon="2.06958">
        <ele>103.4</ele>
        <time>2026-03-29T14:57:32Z</time>
      </trkpt>
      <trkpt lat="48.7028" lon="2.06958">
        <ele>104.4</ele>
        <time>2026-03-29T14:57:33Z</time>
      </trkpt>
      <trkpt lat="48.70276" lon="2.06958">
        <ele>104.2</ele>
        <time>2026-03-29T14:57:34Z</time>
      </trkpt>
      <trkpt lat="48.70273" lon="2.06958">
        <ele>104.2</ele>
        <time>2026-03-29T14:57:35Z</time>
      </trkpt>
      <trkpt lat="48.7027" lon="2.06958">
        <ele>104.2</ele>
        <time>2026-03-29T14:57:36Z</time>
      </trkpt>
      <trkpt lat="48.70267" lon="2.06958">
        <ele>104.8</ele>
        <time>2026-03-29T14:57:37Z</time>
      </trkpt>
      <trkpt lat="48.70265" lon="2.06957">
        <ele>104.8</ele>
        <time>2026-03-29T14:57:38Z</time>
      </trkpt>
      <trkpt lat="48.70264" lon="2.06956">
        <ele>104.8</ele>
        <time>2026-03-29T14:57:39Z</time>
      </trkpt>
      <trkpt lat="48.70263" lon="2.06956">
        <ele>104.8</ele>
        <time>2026-03-29T14:57:40Z</time>
      </trkpt>
      <trkpt lat="48.70261" lon="2.06954">
        <ele>104.4</ele>
        <time>2026-03-29T14:57:47Z</time>
      </trkpt>
      <trkpt lat="48.7026" lon="2.0695">
        <ele>104.4</ele>
        <time>2026-03-29T14:57:48Z</time>
      </trkpt>
      <trkpt lat="48.7026" lon="2.06946">
        <ele>104.4</ele>
        <time>2026-03-29T14:57:49Z</time>
      </trkpt>
      <trkpt lat="48.7026" lon="2.06941">
        <ele>105.2</ele>
        <time>2026-03-29T14:57:50Z</time>
      </trkpt>
      <trkpt lat="48.7026" lon="2.06935">
        <ele>105.2</ele>
        <time>2026-03-29T14:57:51Z</time>
      </trkpt>
      <trkpt lat="48.7026" lon="2.0693">
        <ele>105.2</ele>
        <time>2026-03-29T14:57:52Z</time>
      </trkpt>
      <trkpt lat="48.70259" lon="2.06924">
        <ele>105</ele>
        <time>2026-03-29T14:57:53Z</time>
      </trkpt>
      <trkpt lat="48.70259" lon="2.06918">
        <ele>104.6</ele>
        <time>2026-03-29T14:57:54Z</time>
      </trkpt>
      <trkpt lat="48.70259" lon="2.06912">
        <ele>104.6</ele>
        <time>2026-03-29T14:57:55Z</time>
      </trkpt>
      <trkpt lat="48.70258" lon="2.06906">
        <ele>104.6</ele>
        <time>2026-03-29T14:57:56Z</time>
      </trkpt>
      <trkpt lat="48.70258" lon="2.069">
        <ele>104.6</ele>
        <time>2026-03-29T14:57:57Z</time>
      </trkpt>
      <trkpt lat="48.70258" lon="2.06894">
        <ele>104.8</ele>
        <time>2026-03-29T14:57:58Z</time>
      </trkpt>
      <trkpt lat="48.70257" lon="2.06888">
        <ele>104.8</ele>
        <time>2026-03-29T14:57:59Z</time>
      </trkpt>
      <trkpt lat="48.70256" lon="2.06881">
        <ele>104.8</ele>
        <time>2026-03-29T14:58:00Z</time>
      </trkpt>
      <trkpt lat="48.70256" lon="2.06875">
        <ele>104.8</ele>
        <time>2026-03-29T14:58:01Z</time>
      </trkpt>
      <trkpt lat="48.70255" lon="2.06869">
        <ele>105</ele>
        <time>2026-03-29T14:58:02Z</time>
      </trkpt>
      <trkpt lat="48.70255" lon="2.06864">
        <ele>105</ele>
        <time>2026-03-29T14:58:03Z</time>
      </trkpt>
      <trkpt lat="48.70254" lon="2.06858">
        <ele>105</ele>
        <time>2026-03-29T14:58:04Z</time>
      </trkpt>
      <trkpt lat="48.70253" lon="2.06853">
        <ele>105.2</ele>
        <time>2026-03-29T14:58:05Z</time>
      </trkpt>
      <trkpt lat="48.70253" lon="2.06847">
        <ele>105.4</ele>
        <time>2026-03-29T14:58:06Z</time>
      </trkpt>
      <trkpt lat="48.70252" lon="2.06842">
        <ele>105.4</ele>
        <time>2026-03-29T14:58:07Z</time>
      </trkpt>
      <trkpt lat="48.70251" lon="2.06837">
        <ele>105.4</ele>
        <time>2026-03-29T14:58:08Z</time>
      </trkpt>
      <trkpt lat="48.70251" lon="2.06832">
        <ele>105.8</ele>
        <time>2026-03-29T14:58:09Z</time>
      </trkpt>
      <trkpt lat="48.70251" lon="2.06826">
        <ele>105.4</ele>
        <time>2026-03-29T14:58:10Z</time>
      </trkpt>
      <trkpt lat="48.7025" lon="2.06821">
        <ele>105.4</ele>
        <time>2026-03-29T14:58:11Z</time>
      </trkpt>
      <trkpt lat="48.7025" lon="2.06817">
        <ele>105.4</ele>
        <time>2026-03-29T14:58:12Z</time>
      </trkpt>
      <trkpt lat="48.70249" lon="2.06813">
        <ele>106.4</ele>
        <time>2026-03-29T14:58:13Z</time>
      </trkpt>
      <trkpt lat="48.70249" lon="2.06808">
        <ele>106.4</ele>
        <time>2026-03-29T14:58:14Z</time>
      </trkpt>
      <trkpt lat="48.70248" lon="2.06802">
        <ele>106.4</ele>
        <time>2026-03-29T14:58:15Z</time>
      </trkpt>
      <trkpt lat="48.70248" lon="2.06797">
        <ele>106.4</ele>
        <time>2026-03-29T14:58:16Z</time>
      </trkpt>
      <trkpt lat="48.70247" lon="2.06792">
        <ele>106</ele>
        <time>2026-03-29T14:58:17Z</time>
      </trkpt>
      <trkpt lat="48.70246" lon="2.06786">
        <ele>106.2</ele>
        <time>2026-03-29T14:58:18Z</time>
      </trkpt>
      <trkpt lat="48.70245" lon="2.06781">
        <ele>106.2</ele>
        <time>2026-03-29T14:58:19Z</time>
      </trkpt>
      <trkpt lat="48.70244" lon="2.06776">
        <ele>106.2</ele>
        <time>2026-03-29T14:58:20Z</time>
      </trkpt>
      <trkpt lat="48.70243" lon="2.0677">
        <ele>106.2</ele>
        <time>2026-03-29T14:58:21Z</time>
      </trkpt>
      <trkpt lat="48.70243" lon="2.06765">
        <ele>106.8</ele>
        <time>2026-03-29T14:58:22Z</time>
      </trkpt>
      <trkpt lat="48.70242" lon="2.0676">
        <ele>106.8</ele>
        <time>2026-03-29T14:58:23Z</time>
      </trkpt>
      <trkpt lat="48.70241" lon="2.06754">
        <ele>106.8</ele>
        <time>2026-03-29T14:58:24Z</time>
      </trkpt>
      <trkpt lat="48.7024" lon="2.06749">
        <ele>106.8</ele>
        <time>2026-03-29T14:58:25Z</time>
      </trkpt>
      <trkpt lat="48.70239" lon="2.06745">
        <ele>106.8</ele>
        <time>2026-03-29T14:58:26Z</time>
      </trkpt>
      <trkpt lat="48.70238" lon="2.06739">
        <ele>106.8</ele>
        <time>2026-03-29T14:58:27Z</time>
      </trkpt>
      <trkpt lat="48.70238" lon="2.06735">
        <ele>106.8</ele>
        <time>2026-03-29T14:58:28Z</time>
      </trkpt>
      <trkpt lat="48.70237" lon="2.0673">
        <ele>107</ele>
        <time>2026-03-29T14:58:29Z</time>
      </trkpt>
      <trkpt lat="48.70237" lon="2.06726">
        <ele>107</ele>
        <time>2026-03-29T14:58:30Z</time>
      </trkpt>
      <trkpt lat="48.70236" lon="2.06721">
        <ele>107</ele>
        <time>2026-03-29T14:58:31Z</time>
      </trkpt>
      <trkpt lat="48.70235" lon="2.06716">
        <ele>107</ele>
        <time>2026-03-29T14:58:32Z</time>
      </trkpt>
      <trkpt lat="48.70234" lon="2.0671">
        <ele>108</ele>
        <time>2026-03-29T14:58:33Z</time>
      </trkpt>
      <trkpt lat="48.70234" lon="2.06705">
        <ele>108.2</ele>
        <time>2026-03-29T14:58:34Z</time>
      </trkpt>
      <trkpt lat="48.70233" lon="2.067">
        <ele>108.2</ele>
        <time>2026-03-29T14:58:35Z</time>
      </trkpt>
      <trkpt lat="48.70232" lon="2.06696">
        <ele>108.2</ele>
        <time>2026-03-29T14:58:36Z</time>
      </trkpt>
      <trkpt lat="48.70231" lon="2.06691">
        <ele>107.8</ele>
        <time>2026-03-29T14:58:37Z</time>
      </trkpt>
      <trkpt lat="48.7023" lon="2.06686">
        <ele>108.2</ele>
        <time>2026-03-29T14:58:38Z</time>
      </trkpt>
      <trkpt lat="48.70228" lon="2.0668">
        <ele>108.2</ele>
        <time>2026-03-29T14:58:39Z</time>
      </trkpt>
      <trkpt lat="48.70228" lon="2.06677">
        <ele>108.2</ele>
        <time>2026-03-29T14:58:40Z</time>
      </trkpt>
      <trkpt lat="48.70227" lon="2.06672">
        <ele>108.6</ele>
        <time>2026-03-29T14:58:41Z</time>
      </trkpt>
      <trkpt lat="48.70225" lon="2.06667">
        <ele>108.6</ele>
        <time>2026-03-29T14:58:42Z</time>
      </trkpt>
      <trkpt lat="48.70224" lon="2.06661">
        <ele>108.6</ele>
        <time>2026-03-29T14:58:43Z</time>
      </trkpt>
      <trkpt lat="48.70222" lon="2.06656">
        <ele>108.6</ele>
        <time>2026-03-29T14:58:44Z</time>
      </trkpt>
      <trkpt lat="48.70222" lon="2.06651">
        <ele>108.6</ele>
        <time>2026-03-29T14:58:45Z</time>
      </trkpt>
      <trkpt lat="48.70221" lon="2.06646">
        <ele>108.8</ele>
        <time>2026-03-29T14:58:46Z</time>
      </trkpt>
      <trkpt lat="48.7022" lon="2.06641">
        <ele>108.8</ele>
        <time>2026-03-29T14:58:47Z</time>
      </trkpt>
      <trkpt lat="48.70218" lon="2.06636">
        <ele>108.8</ele>
        <time>2026-03-29T14:58:48Z</time>
      </trkpt>
      <trkpt lat="48.70217" lon="2.06631">
        <ele>108.8</ele>
        <time>2026-03-29T14:58:49Z</time>
      </trkpt>
      <trkpt lat="48.70215" lon="2.06625">
        <ele>109.2</ele>
        <time>2026-03-29T14:58:50Z</time>
      </trkpt>
      <trkpt lat="48.70213" lon="2.0662">
        <ele>109.2</ele>
        <time>2026-03-29T14:58:51Z</time>
      </trkpt>
      <trkpt lat="48.70211" lon="2.06614">
        <ele>109.2</ele>
        <time>2026-03-29T14:58:52Z</time>
      </trkpt>
      <trkpt lat="48.70209" lon="2.06609">
        <ele>109.2</ele>
        <time>2026-03-29T14:58:53Z</time>
      </trkpt>
      <trkpt lat="48.70206" lon="2.06603">
        <ele>109.8</ele>
        <time>2026-03-29T14:58:54Z</time>
      </trkpt>
      <trkpt lat="48.70204" lon="2.06598">
        <ele>109.8</ele>
        <time>2026-03-29T14:58:55Z</time>
      </trkpt>
      <trkpt lat="48.70202" lon="2.06593">
        <ele>109.8</ele>
        <time>2026-03-29T14:58:56Z</time>
      </trkpt>
      <trkpt lat="48.702" lon="2.06587">
        <ele>109.8</ele>
        <time>2026-03-29T14:58:57Z</time>
      </trkpt>
      <trkpt lat="48.70199" lon="2.06582">
        <ele>109.6</ele>
        <time>2026-03-29T14:58:58Z</time>
      </trkpt>
      <trkpt lat="48.70197" lon="2.06577">
        <ele>109.6</ele>
        <time>2026-03-29T14:58:59Z</time>
      </trkpt>
      <trkpt lat="48.70195" lon="2.06572">
        <ele>109.6</ele>
        <time>2026-03-29T14:59:00Z</time>
      </trkpt>
      <trkpt lat="48.70194" lon="2.06567">
        <ele>109.6</ele>
        <time>2026-03-29T14:59:01Z</time>
      </trkpt>
      <trkpt lat="48.70192" lon="2.06562">
        <ele>110.4</ele>
        <time>2026-03-29T14:59:02Z</time>
      </trkpt>
      <trkpt lat="48.70191" lon="2.06556">
        <ele>110.4</ele>
        <time>2026-03-29T14:59:03Z</time>
      </trkpt>
      <trkpt lat="48.70189" lon="2.06551">
        <ele>110.4</ele>
        <time>2026-03-29T14:59:04Z</time>
      </trkpt>
      <trkpt lat="48.70188" lon="2.06547">
        <ele>110.4</ele>
        <time>2026-03-29T14:59:05Z</time>
      </trkpt>
      <trkpt lat="48.70187" lon="2.06542">
        <ele>110.4</ele>
        <time>2026-03-29T14:59:06Z</time>
      </trkpt>
      <trkpt lat="48.70185" lon="2.06537">
        <ele>110.4</ele>
        <time>2026-03-29T14:59:07Z</time>
      </trkpt>
      <trkpt lat="48.70184" lon="2.06532">
        <ele>110.4</ele>
        <time>2026-03-29T14:59:08Z</time>
      </trkpt>
      <trkpt lat="48.70182" lon="2.06528">
        <ele>111</ele>
        <time>2026-03-29T14:59:09Z</time>
      </trkpt>
      <trkpt lat="48.70181" lon="2.06523">
        <ele>110.2</ele>
        <time>2026-03-29T14:59:10Z</time>
      </trkpt>
      <trkpt lat="48.70179" lon="2.06518">
        <ele>110.2</ele>
        <time>2026-03-29T14:59:11Z</time>
      </trkpt>
      <trkpt lat="48.70177" lon="2.06513">
        <ele>110.2</ele>
        <time>2026-03-29T14:59:12Z</time>
      </trkpt>
      <trkpt lat="48.70175" lon="2.06508">
        <ele>111.2</ele>
        <time>2026-03-29T14:59:13Z</time>
      </trkpt>
      <trkpt lat="48.70173" lon="2.06504">
        <ele>111.4</ele>
        <time>2026-03-29T14:59:14Z</time>
      </trkpt>
      <trkpt lat="48.70171" lon="2.06499">
        <ele>111.4</ele>
        <time>2026-03-29T14:59:15Z</time>
      </trkpt>
      <trkpt lat="48.70169" lon="2.06495">
        <ele>111.4</ele>
        <time>2026-03-29T14:59:16Z</time>
      </trkpt>
      <trkpt lat="48.70168" lon="2.06491">
        <ele>111.4</ele>
        <time>2026-03-29T14:59:17Z</time>
      </trkpt>
      <trkpt lat="48.70166" lon="2.06487">
        <ele>111.4</ele>
        <time>2026-03-29T14:59:18Z</time>
      </trkpt>
      <trkpt lat="48.70165" lon="2.06482">
        <ele>111.4</ele>
        <time>2026-03-29T14:59:19Z</time>
      </trkpt>
      <trkpt lat="48.70164" lon="2.06479">
        <ele>111.4</ele>
        <time>2026-03-29T14:59:20Z</time>
      </trkpt>
      <trkpt lat="48.70162" lon="2.06474">
        <ele>111.4</ele>
        <time>2026-03-29T14:59:21Z</time>
      </trkpt>
      <trkpt lat="48.70161" lon="2.06469">
        <ele>111.2</ele>
        <time>2026-03-29T14:59:22Z</time>
      </trkpt>
      <trkpt lat="48.70159" lon="2.06465">
        <ele>111.2</ele>
        <time>2026-03-29T14:59:23Z</time>
      </trkpt>
      <trkpt lat="48.70157" lon="2.06461">
        <ele>111.2</ele>
        <time>2026-03-29T14:59:24Z</time>
      </trkpt>
      <trkpt lat="48.70156" lon="2.06457">
        <ele>111.2</ele>
        <time>2026-03-29T14:59:25Z</time>
      </trkpt>
      <trkpt lat="48.70154" lon="2.06453">
        <ele>111.6</ele>
        <time>2026-03-29T14:59:26Z</time>
      </trkpt>
      <trkpt lat="48.70152" lon="2.06448">
        <ele>111.6</ele>
        <time>2026-03-29T14:59:27Z</time>
      </trkpt>
      <trkpt lat="48.7015" lon="2.06444">
        <ele>111.6</ele>
        <time>2026-03-29T14:59:28Z</time>
      </trkpt>
      <trkpt lat="48.70148" lon="2.06439">
        <ele>111.6</ele>
        <time>2026-03-29T14:59:29Z</time>
      </trkpt>
      <trkpt lat="48.70146" lon="2.06434">
        <ele>112.4</ele>
        <time>2026-03-29T14:59:30Z</time>
      </trkpt>
      <trkpt lat="48.70145" lon="2.06429">
        <ele>112.4</ele>
        <time>2026-03-29T14:59:31Z</time>
      </trkpt>
      <trkpt lat="48.70143" lon="2.06424">
        <ele>112.4</ele>
        <time>2026-03-29T14:59:32Z</time>
      </trkpt>
      <trkpt lat="48.70142" lon="2.0642">
        <ele>112.4</ele>
        <time>2026-03-29T14:59:33Z</time>
      </trkpt>
      <trkpt lat="48.7014" lon="2.06416">
        <ele>112.4</ele>
        <time>2026-03-29T14:59:34Z</time>
      </trkpt>
      <trkpt lat="48.70138" lon="2.06412">
        <ele>112.4</ele>
        <time>2026-03-29T14:59:35Z</time>
      </trkpt>
      <trkpt lat="48.70136" lon="2.06408">
        <ele>112.4</ele>
        <time>2026-03-29T14:59:36Z</time>
      </trkpt>
      <trkpt lat="48.70134" lon="2.06403">
        <ele>112.4</ele>
        <time>2026-03-29T14:59:37Z</time>
      </trkpt>
      <trkpt lat="48.70132" lon="2.06399">
        <ele>112.6</ele>
        <time>2026-03-29T14:59:38Z</time>
      </trkpt>
      <trkpt lat="48.7013" lon="2.06395">
        <ele>112.6</ele>
        <time>2026-03-29T14:59:39Z</time>
      </trkpt>
      <trkpt lat="48.70129" lon="2.06391">
        <ele>112.6</ele>
        <time>2026-03-29T14:59:40Z</time>
      </trkpt>
      <trkpt lat="48.70127" lon="2.06388">
        <ele>112.6</ele>
        <time>2026-03-29T14:59:41Z</time>
      </trkpt>
      <trkpt lat="48.70125" lon="2.06384">
        <ele>112.8</ele>
        <time>2026-03-29T14:59:42Z</time>
      </trkpt>
      <trkpt lat="48.70124" lon="2.0638">
        <ele>112.8</ele>
        <time>2026-03-29T14:59:43Z</time>
      </trkpt>
      <trkpt lat="48.70123" lon="2.06377">
        <ele>112.8</ele>
        <time>2026-03-29T14:59:44Z</time>
      </trkpt>
      <trkpt lat="48.70121" lon="2.06373">
        <ele>112.8</ele>
        <time>2026-03-29T14:59:45Z</time>
      </trkpt>
      <trkpt lat="48.70119" lon="2.0637">
        <ele>112.8</ele>
        <time>2026-03-29T14:59:46Z</time>
      </trkpt>
      <trkpt lat="48.70118" lon="2.06367">
        <ele>112.8</ele>
        <time>2026-03-29T14:59:47Z</time>
      </trkpt>
      <trkpt lat="48.70116" lon="2.06363">
        <ele>112.8</ele>
        <time>2026-03-29T14:59:48Z</time>
      </trkpt>
      <trkpt lat="48.70114" lon="2.0636">
        <ele>113.4</ele>
        <time>2026-03-29T14:59:49Z</time>
      </trkpt>
      <trkpt lat="48.70112" lon="2.06356">
        <ele>113.8</ele>
        <time>2026-03-29T14:59:50Z</time>
      </trkpt>
      <trkpt lat="48.70109" lon="2.06353">
        <ele>113.8</ele>
        <time>2026-03-29T14:59:51Z</time>
      </trkpt>
      <trkpt lat="48.70107" lon="2.06349">
        <ele>113.8</ele>
        <time>2026-03-29T14:59:52Z</time>
      </trkpt>
      <trkpt lat="48.70105" lon="2.06344">
        <ele>113.2</ele>
        <time>2026-03-29T14:59:53Z</time>
      </trkpt>
      <trkpt lat="48.70102" lon="2.06339">
        <ele>113.8</ele>
        <time>2026-03-29T14:59:54Z</time>
      </trkpt>
      <trkpt lat="48.701" lon="2.06335">
        <ele>113.8</ele>
        <time>2026-03-29T14:59:55Z</time>
      </trkpt>
      <trkpt lat="48.70098" lon="2.06331">
        <ele>113.8</ele>
        <time>2026-03-29T14:59:56Z</time>
      </trkpt>
      <trkpt lat="48.70096" lon="2.06327">
        <ele>113.8</ele>
        <time>2026-03-29T14:59:57Z</time>
      </trkpt>
      <trkpt lat="48.70094" lon="2.06324">
        <ele>113.6</ele>
        <time>2026-03-29T14:59:58Z</time>
      </trkpt>
      <trkpt lat="48.70092" lon="2.0632">
        <ele>113.6</ele>
        <time>2026-03-29T14:59:59Z</time>
      </trkpt>
      <trkpt lat="48.7009" lon="2.06317">
        <ele>113.6</ele>
        <time>2026-03-29T15:00:00Z</time>
      </trkpt>
      <trkpt lat="48.70088" lon="2.06314">
        <ele>113.6</ele>
        <time>2026-03-29T15:00:01Z</time>
      </trkpt>
      <trkpt lat="48.70086" lon="2.0631">
        <ele>113.6</ele>
        <time>2026-03-29T15:00:02Z</time>
      </trkpt>
      <trkpt lat="48.70084" lon="2.06306">
        <ele>113.6</ele>
        <time>2026-03-29T15:00:03Z</time>
      </trkpt>
      <trkpt lat="48.70083" lon="2.06302">
        <ele>113.6</ele>
        <time>2026-03-29T15:00:04Z</time>
      </trkpt>
      <trkpt lat="48.7008" lon="2.06298">
        <ele>114.2</ele>
        <time>2026-03-29T15:00:05Z</time>
      </trkpt>
      <trkpt lat="48.70079" lon="2.06294">
        <ele>114.6</ele>
        <time>2026-03-29T15:00:06Z</time>
      </trkpt>
      <trkpt lat="48.70077" lon="2.06291">
        <ele>114.6</ele>
        <time>2026-03-29T15:00:07Z</time>
      </trkpt>
      <trkpt lat="48.70074" lon="2.06287">
        <ele>114.6</ele>
        <time>2026-03-29T15:00:08Z</time>
      </trkpt>
      <trkpt lat="48.70072" lon="2.06283">
        <ele>114.6</ele>
        <time>2026-03-29T15:00:09Z</time>
      </trkpt>
      <trkpt lat="48.70069" lon="2.06279">
        <ele>115.2</ele>
        <time>2026-03-29T15:00:10Z</time>
      </trkpt>
      <trkpt lat="48.70067" lon="2.06274">
        <ele>115.2</ele>
        <time>2026-03-29T15:00:11Z</time>
      </trkpt>
      <trkpt lat="48.70064" lon="2.0627">
        <ele>115.2</ele>
        <time>2026-03-29T15:00:12Z</time>
      </trkpt>
      <trkpt lat="48.70062" lon="2.06266">
        <ele>115.2</ele>
        <time>2026-03-29T15:00:13Z</time>
      </trkpt>
      <trkpt lat="48.70059" lon="2.06262">
        <ele>114.4</ele>
        <time>2026-03-29T15:00:14Z</time>
      </trkpt>
      <trkpt lat="48.70056" lon="2.06258">
        <ele>114.4</ele>
        <time>2026-03-29T15:00:15Z</time>
      </trkpt>
      <trkpt lat="48.70054" lon="2.06255">
        <ele>114.4</ele>
        <time>2026-03-29T15:00:16Z</time>
      </trkpt>
      <trkpt lat="48.70052" lon="2.06251">
        <ele>115.4</ele>
        <time>2026-03-29T15:00:17Z</time>
      </trkpt>
      <trkpt lat="48.7005" lon="2.06247">
        <ele>116</ele>
        <time>2026-03-29T15:00:18Z</time>
      </trkpt>
      <trkpt lat="48.70047" lon="2.06244">
        <ele>116</ele>
        <time>2026-03-29T15:00:19Z</time>
      </trkpt>
      <trkpt lat="48.70045" lon="2.0624">
        <ele>116</ele>
        <time>2026-03-29T15:00:20Z</time>
      </trkpt>
      <trkpt lat="48.70042" lon="2.06237">
        <ele>116</ele>
        <time>2026-03-29T15:00:21Z</time>
      </trkpt>
      <trkpt lat="48.7004" lon="2.06234">
        <ele>115.6</ele>
        <time>2026-03-29T15:00:22Z</time>
      </trkpt>
      <trkpt lat="48.70038" lon="2.06231">
        <ele>115.6</ele>
        <time>2026-03-29T15:00:23Z</time>
      </trkpt>
      <trkpt lat="48.70035" lon="2.06227">
        <ele>115.6</ele>
        <time>2026-03-29T15:00:24Z</time>
      </trkpt>
      <trkpt lat="48.70033" lon="2.06224">
        <ele>116</ele>
        <time>2026-03-29T15:00:25Z</time>
      </trkpt>
      <trkpt lat="48.70031" lon="2.06222">
        <ele>116.4</ele>
        <time>2026-03-29T15:00:26Z</time>
      </trkpt>
      <trkpt lat="48.70029" lon="2.06219">
        <ele>116.4</ele>
        <time>2026-03-29T15:00:27Z</time>
      </trkpt>
      <trkpt lat="48.70026" lon="2.06215">
        <ele>116.4</ele>
        <time>2026-03-29T15:00:28Z</time>
      </trkpt>
      <trkpt lat="48.70024" lon="2.06212">
        <ele>116.4</ele>
        <time>2026-03-29T15:00:29Z</time>
      </trkpt>
      <trkpt lat="48.70022" lon="2.06209">
        <ele>116.4</ele>
        <time>2026-03-29T15:00:30Z</time>
      </trkpt>
      <trkpt lat="48.70019" lon="2.06205">
        <ele>116.4</ele>
        <time>2026-03-29T15:00:31Z</time>
      </trkpt>
      <trkpt lat="48.70017" lon="2.06202">
        <ele>116.4</ele>
        <time>2026-03-29T15:00:32Z</time>
      </trkpt>
      <trkpt lat="48.70015" lon="2.062">
        <ele>116.4</ele>
        <time>2026-03-29T15:00:33Z</time>
      </trkpt>
      <trkpt lat="48.70013" lon="2.06197">
        <ele>117</ele>
        <time>2026-03-29T15:00:34Z</time>
      </trkpt>
      <trkpt lat="48.70011" lon="2.06194">
        <ele>117</ele>
        <time>2026-03-29T15:00:35Z</time>
      </trkpt>
      <trkpt lat="48.70008" lon="2.06191">
        <ele>117</ele>
        <time>2026-03-29T15:00:36Z</time>
      </trkpt>
      <trkpt lat="48.70006" lon="2.06188">
        <ele>117</ele>
        <time>2026-03-29T15:00:37Z</time>
      </trkpt>
      <trkpt lat="48.70004" lon="2.06184">
        <ele>117.2</ele>
        <time>2026-03-29T15:00:38Z</time>
      </trkpt>
      <trkpt lat="48.70002" lon="2.06182">
        <ele>117.2</ele>
        <time>2026-03-29T15:00:39Z</time>
      </trkpt>
      <trkpt lat="48.7" lon="2.06179">
        <ele>117.2</ele>
        <time>2026-03-29T15:00:40Z</time>
      </trkpt>
      <trkpt lat="48.69997" lon="2.06175">
        <ele>117.8</ele>
        <time>2026-03-29T15:00:41Z</time>
      </trkpt>
      <trkpt lat="48.69995" lon="2.06172">
        <ele>117.8</ele>
        <time>2026-03-29T15:00:42Z</time>
      </trkpt>
      <trkpt lat="48.69991" lon="2.06169">
        <ele>117.8</ele>
        <time>2026-03-29T15:00:43Z</time>
      </trkpt>
      <trkpt lat="48.69988" lon="2.06166">
        <ele>117.8</ele>
        <time>2026-03-29T15:00:44Z</time>
      </trkpt>
      <trkpt lat="48.69985" lon="2.06162">
        <ele>117.8</ele>
        <time>2026-03-29T15:00:45Z</time>
      </trkpt>
      <trkpt lat="48.69983" lon="2.0616">
        <ele>117.8</ele>
        <time>2026-03-29T15:00:46Z</time>
      </trkpt>
      <trkpt lat="48.6998" lon="2.06157">
        <ele>117.8</ele>
        <time>2026-03-29T15:00:47Z</time>
      </trkpt>
      <trkpt lat="48.69977" lon="2.06154">
        <ele>117.8</ele>
        <time>2026-03-29T15:00:48Z</time>
      </trkpt>
      <trkpt lat="48.69974" lon="2.0615">
        <ele>117.8</ele>
        <time>2026-03-29T15:00:49Z</time>
      </trkpt>
      <trkpt lat="48.6997" lon="2.06147">
        <ele>118.6</ele>
        <time>2026-03-29T15:00:50Z</time>
      </trkpt>
      <trkpt lat="48.69968" lon="2.06143">
        <ele>118.6</ele>
        <time>2026-03-29T15:00:51Z</time>
      </trkpt>
      <trkpt lat="48.69966" lon="2.06141">
        <ele>118.6</ele>
        <time>2026-03-29T15:00:52Z</time>
      </trkpt>
      <trkpt lat="48.69962" lon="2.06138">
        <ele>118.6</ele>
        <time>2026-03-29T15:00:53Z</time>
      </trkpt>
      <trkpt lat="48.69959" lon="2.06135">
        <ele>119</ele>
        <time>2026-03-29T15:00:54Z</time>
      </trkpt>
      <trkpt lat="48.69956" lon="2.06131">
        <ele>119</ele>
        <time>2026-03-29T15:00:55Z</time>
      </trkpt>
      <trkpt lat="48.69953" lon="2.06128">
        <ele>119</ele>
        <time>2026-03-29T15:00:56Z</time>
      </trkpt>
      <trkpt lat="48.6995" lon="2.06124">
        <ele>118.8</ele>
        <time>2026-03-29T15:00:57Z</time>
      </trkpt>
      <trkpt lat="48.69946" lon="2.06121">
        <ele>118.6</ele>
        <time>2026-03-29T15:00:58Z</time>
      </trkpt>
      <trkpt lat="48.69942" lon="2.06117">
        <ele>118.6</ele>
        <time>2026-03-29T15:00:59Z</time>
      </trkpt>
      <trkpt lat="48.6994" lon="2.06114">
        <ele>118.6</ele>
        <time>2026-03-29T15:01:00Z</time>
      </trkpt>
      <trkpt lat="48.69936" lon="2.0611">
        <ele>118.6</ele>
        <time>2026-03-29T15:01:01Z</time>
      </trkpt>
      <trkpt lat="48.69933" lon="2.06107">
        <ele>119.2</ele>
        <time>2026-03-29T15:01:02Z</time>
      </trkpt>
      <trkpt lat="48.6993" lon="2.06104">
        <ele>119.2</ele>
        <time>2026-03-29T15:01:03Z</time>
      </trkpt>
      <trkpt lat="48.69927" lon="2.061">
        <ele>119.2</ele>
        <time>2026-03-29T15:01:04Z</time>
      </trkpt>
      <trkpt lat="48.69924" lon="2.06097">
        <ele>119.2</ele>
        <time>2026-03-29T15:01:05Z</time>
      </trkpt>
      <trkpt lat="48.69921" lon="2.06094">
        <ele>120</ele>
        <time>2026-03-29T15:01:06Z</time>
      </trkpt>
      <trkpt lat="48.69917" lon="2.0609">
        <ele>120</ele>
        <time>2026-03-29T15:01:07Z</time>
      </trkpt>
      <trkpt lat="48.69914" lon="2.06087">
        <ele>120</ele>
        <time>2026-03-29T15:01:08Z</time>
      </trkpt>
      <trkpt lat="48.69912" lon="2.06084">
        <ele>119.6</ele>
        <time>2026-03-29T15:01:09Z</time>
      </trkpt>
      <trkpt lat="48.69908" lon="2.06081">
        <ele>119.8</ele>
        <time>2026-03-29T15:01:10Z</time>
      </trkpt>
      <trkpt lat="48.69905" lon="2.06079">
        <ele>119.8</ele>
        <time>2026-03-29T15:01:11Z</time>
      </trkpt>
      <trkpt lat="48.69902" lon="2.06076">
        <ele>119.8</ele>
        <time>2026-03-29T15:01:12Z</time>
      </trkpt>
      <trkpt lat="48.69899" lon="2.06073">
        <ele>120.6</ele>
        <time>2026-03-29T15:01:13Z</time>
      </trkpt>
      <trkpt lat="48.69897" lon="2.06071">
        <ele>120</ele>
        <time>2026-03-29T15:01:14Z</time>
      </trkpt>
      <trkpt lat="48.69893" lon="2.06067">
        <ele>120</ele>
        <time>2026-03-29T15:01:15Z</time>
      </trkpt>
      <trkpt lat="48.6989" lon="2.06066">
        <ele>120</ele>
        <time>2026-03-29T15:01:16Z</time>
      </trkpt>
      <trkpt lat="48.69887" lon="2.06063">
        <ele>120.6</ele>
        <time>2026-03-29T15:01:17Z</time>
      </trkpt>
      <trkpt lat="48.69884" lon="2.06061">
        <ele>120.8</ele>
        <time>2026-03-29T15:01:18Z</time>
      </trkpt>
      <trkpt lat="48.69881" lon="2.06058">
        <ele>120.8</ele>
        <time>2026-03-29T15:01:19Z</time>
      </trkpt>
      <trkpt lat="48.69878" lon="2.06056">
        <ele>120.8</ele>
        <time>2026-03-29T15:01:20Z</time>
      </trkpt>
      <trkpt lat="48.69875" lon="2.06054">
        <ele>120.8</ele>
        <time>2026-03-29T15:01:21Z</time>
      </trkpt>
      <trkpt lat="48.69871" lon="2.06052">
        <ele>121.2</ele>
        <time>2026-03-29T15:01:22Z</time>
      </trkpt>
      <trkpt lat="48.69868" lon="2.06049">
        <ele>121.2</ele>
        <time>2026-03-29T15:01:23Z</time>
      </trkpt>
      <trkpt lat="48.69865" lon="2.06047">
        <ele>121.2</ele>
        <time>2026-03-29T15:01:24Z</time>
      </trkpt>
      <trkpt lat="48.69862" lon="2.06045">
        <ele>121.2</ele>
        <time>2026-03-29T15:01:25Z</time>
      </trkpt>
      <trkpt lat="48.69859" lon="2.06041">
        <ele>121.2</ele>
        <time>2026-03-29T15:01:26Z</time>
      </trkpt>
      <trkpt lat="48.69856" lon="2.06038">
        <ele>121.2</ele>
        <time>2026-03-29T15:01:27Z</time>
      </trkpt>
      <trkpt lat="48.69854" lon="2.06036">
        <ele>121.2</ele>
        <time>2026-03-29T15:01:28Z</time>
      </trkpt>
      <trkpt lat="48.69851" lon="2.06034">
        <ele>121.2</ele>
        <time>2026-03-29T15:01:29Z</time>
      </trkpt>
      <trkpt lat="48.69848" lon="2.06032">
        <ele>121.8</ele>
        <time>2026-03-29T15:01:30Z</time>
      </trkpt>
      <trkpt lat="48.69845" lon="2.06029">
        <ele>121.8</ele>
        <time>2026-03-29T15:01:31Z</time>
      </trkpt>
      <trkpt lat="48.69842" lon="2.06027">
        <ele>121.8</ele>
        <time>2026-03-29T15:01:32Z</time>
      </trkpt>
      <trkpt lat="48.69838" lon="2.06024">
        <ele>121.6</ele>
        <time>2026-03-29T15:01:33Z</time>
      </trkpt>
      <trkpt lat="48.69835" lon="2.06022">
        <ele>122</ele>
        <time>2026-03-29T15:01:34Z</time>
      </trkpt>
      <trkpt lat="48.69833" lon="2.0602">
        <ele>122</ele>
        <time>2026-03-29T15:01:35Z</time>
      </trkpt>
      <trkpt lat="48.69829" lon="2.06018">
        <ele>122</ele>
        <time>2026-03-29T15:01:36Z</time>
      </trkpt>
      <trkpt lat="48.69826" lon="2.06016">
        <ele>122</ele>
        <time>2026-03-29T15:01:37Z</time>
      </trkpt>
      <trkpt lat="48.69824" lon="2.06015">
        <ele>122.2</ele>
        <time>2026-03-29T15:01:38Z</time>
      </trkpt>
      <trkpt lat="48.69822" lon="2.06014">
        <ele>122.2</ele>
        <time>2026-03-29T15:01:39Z</time>
      </trkpt>
      <trkpt lat="48.69818" lon="2.06013">
        <ele>122.2</ele>
        <time>2026-03-29T15:01:40Z</time>
      </trkpt>
      <trkpt lat="48.69815" lon="2.06011">
        <ele>122.2</ele>
        <time>2026-03-29T15:01:41Z</time>
      </trkpt>
      <trkpt lat="48.69812" lon="2.06009">
        <ele>122.6</ele>
        <time>2026-03-29T15:01:42Z</time>
      </trkpt>
      <trkpt lat="48.69809" lon="2.06007">
        <ele>122.6</ele>
        <time>2026-03-29T15:01:43Z</time>
      </trkpt>
      <trkpt lat="48.69806" lon="2.06005">
        <ele>122.6</ele>
        <time>2026-03-29T15:01:44Z</time>
      </trkpt>
      <trkpt lat="48.69803" lon="2.06004">
        <ele>122.4</ele>
        <time>2026-03-29T15:01:45Z</time>
      </trkpt>
      <trkpt lat="48.698" lon="2.06002">
        <ele>122.6</ele>
        <time>2026-03-29T15:01:46Z</time>
      </trkpt>
      <trkpt lat="48.69797" lon="2.06001">
        <ele>122.6</ele>
        <time>2026-03-29T15:01:47Z</time>
      </trkpt>
      <trkpt lat="48.69795" lon="2.05999">
        <ele>122.6</ele>
        <time>2026-03-29T15:01:48Z</time>
      </trkpt>
      <trkpt lat="48.69793" lon="2.05998">
        <ele>122.8</ele>
        <time>2026-03-29T15:01:49Z</time>
      </trkpt>
      <trkpt lat="48.69789" lon="2.05997">
        <ele>122.6</ele>
        <time>2026-03-29T15:01:50Z</time>
      </trkpt>
      <trkpt lat="48.69787" lon="2.05996">
        <ele>122.6</ele>
        <time>2026-03-29T15:01:51Z</time>
      </trkpt>
      <trkpt lat="48.69783" lon="2.05994">
        <ele>122.6</ele>
        <time>2026-03-29T15:01:52Z</time>
      </trkpt>
      <trkpt lat="48.6978" lon="2.05993">
        <ele>122.6</ele>
        <time>2026-03-29T15:01:53Z</time>
      </trkpt>
      <trkpt lat="48.69776" lon="2.05991">
        <ele>123</ele>
        <time>2026-03-29T15:01:54Z</time>
      </trkpt>
      <trkpt lat="48.69773" lon="2.0599">
        <ele>123</ele>
        <time>2026-03-29T15:01:55Z</time>
      </trkpt>
      <trkpt lat="48.6977" lon="2.05989">
        <ele>123</ele>
        <time>2026-03-29T15:01:56Z</time>
      </trkpt>
      <trkpt lat="48.69766" lon="2.05987">
        <ele>123</ele>
        <time>2026-03-29T15:01:57Z</time>
      </trkpt>
      <trkpt lat="48.69764" lon="2.05985">
        <ele>123.4</ele>
        <time>2026-03-29T15:01:58Z</time>
      </trkpt>
      <trkpt lat="48.69761" lon="2.05983">
        <ele>123.4</ele>
        <time>2026-03-29T15:01:59Z</time>
      </trkpt>
      <trkpt lat="48.69758" lon="2.05982">
        <ele>123.4</ele>
        <time>2026-03-29T15:02:00Z</time>
      </trkpt>
      <trkpt lat="48.69755" lon="2.05981">
        <ele>123.4</ele>
        <time>2026-03-29T15:02:01Z</time>
      </trkpt>
      <trkpt lat="48.69752" lon="2.0598">
        <ele>123.4</ele>
        <time>2026-03-29T15:02:02Z</time>
      </trkpt>
      <trkpt lat="48.69748" lon="2.05979">
        <ele>123.4</ele>
        <time>2026-03-29T15:02:03Z</time>
      </trkpt>
      <trkpt lat="48.69745" lon="2.05978">
        <ele>123.4</ele>
        <time>2026-03-29T15:02:04Z</time>
      </trkpt>
      <trkpt lat="48.69742" lon="2.05977">
        <ele>124</ele>
        <time>2026-03-29T15:02:05Z</time>
      </trkpt>
      <trkpt lat="48.6974" lon="2.05977">
        <ele>124.6</ele>
        <time>2026-03-29T15:02:06Z</time>
      </trkpt>
      <trkpt lat="48.69737" lon="2.05975">
        <ele>124.6</ele>
        <time>2026-03-29T15:02:07Z</time>
      </trkpt>
      <trkpt lat="48.69734" lon="2.05975">
        <ele>124.6</ele>
        <time>2026-03-29T15:02:08Z</time>
      </trkpt>
      <trkpt lat="48.69732" lon="2.05974">
        <ele>124.4</ele>
        <time>2026-03-29T15:02:09Z</time>
      </trkpt>
      <trkpt lat="48.69729" lon="2.05972">
        <ele>124.6</ele>
        <time>2026-03-29T15:02:10Z</time>
      </trkpt>
      <trkpt lat="48.69725" lon="2.0597">
        <ele>124.6</ele>
        <time>2026-03-29T15:02:11Z</time>
      </trkpt>
      <trkpt lat="48.69722" lon="2.0597">
        <ele>124.6</ele>
        <time>2026-03-29T15:02:12Z</time>
      </trkpt>
      <trkpt lat="48.69718" lon="2.05969">
        <ele>124.6</ele>
        <time>2026-03-29T15:02:13Z</time>
      </trkpt>
      <trkpt lat="48.69715" lon="2.05967">
        <ele>125.2</ele>
        <time>2026-03-29T15:02:14Z</time>
      </trkpt>
      <trkpt lat="48.69712" lon="2.05966">
        <ele>125.2</ele>
        <time>2026-03-29T15:02:15Z</time>
      </trkpt>
      <trkpt lat="48.69708" lon="2.05965">
        <ele>125.2</ele>
        <time>2026-03-29T15:02:16Z</time>
      </trkpt>
      <trkpt lat="48.69704" lon="2.05964">
        <ele>125.2</ele>
        <time>2026-03-29T15:02:17Z</time>
      </trkpt>
      <trkpt lat="48.697" lon="2.05962">
        <ele>125</ele>
        <time>2026-03-29T15:02:18Z</time>
      </trkpt>
      <trkpt lat="48.69696" lon="2.05962">
        <ele>125</ele>
        <time>2026-03-29T15:02:19Z</time>
      </trkpt>
      <trkpt lat="48.69692" lon="2.05961">
        <ele>125</ele>
        <time>2026-03-29T15:02:20Z</time>
      </trkpt>
      <trkpt lat="48.69688" lon="2.05959">
        <ele>125.4</ele>
        <time>2026-03-29T15:02:21Z</time>
      </trkpt>
      <trkpt lat="48.69684" lon="2.05958">
        <ele>125.6</ele>
        <time>2026-03-29T15:02:22Z</time>
      </trkpt>
      <trkpt lat="48.6968" lon="2.05957">
        <ele>125.6</ele>
        <time>2026-03-29T15:02:23Z</time>
      </trkpt>
      <trkpt lat="48.69677" lon="2.05955">
        <ele>125.6</ele>
        <time>2026-03-29T15:02:24Z</time>
      </trkpt>
      <trkpt lat="48.69673" lon="2.05953">
        <ele>125.6</ele>
        <time>2026-03-29T15:02:25Z</time>
      </trkpt>
      <trkpt lat="48.6967" lon="2.05952">
        <ele>126.2</ele>
        <time>2026-03-29T15:02:26Z</time>
      </trkpt>
      <trkpt lat="48.69666" lon="2.0595">
        <ele>126.2</ele>
        <time>2026-03-29T15:02:27Z</time>
      </trkpt>
      <trkpt lat="48.69662" lon="2.05949">
        <ele>126.2</ele>
        <time>2026-03-29T15:02:28Z</time>
      </trkpt>
      <trkpt lat="48.69659" lon="2.05947">
        <ele>126.2</ele>
        <time>2026-03-29T15:02:29Z</time>
      </trkpt>
      <trkpt lat="48.69656" lon="2.05946">
        <ele>126.6</ele>
        <time>2026-03-29T15:02:30Z</time>
      </trkpt>
      <trkpt lat="48.69653" lon="2.05945">
        <ele>126.6</ele>
        <time>2026-03-29T15:02:31Z</time>
      </trkpt>
      <trkpt lat="48.69651" lon="2.05944">
        <ele>126.6</ele>
        <time>2026-03-29T15:02:32Z</time>
      </trkpt>
      <trkpt lat="48.69647" lon="2.05943">
        <ele>126.6</ele>
        <time>2026-03-29T15:02:33Z</time>
      </trkpt>
      <trkpt lat="48.69644" lon="2.05941">
        <ele>126.8</ele>
        <time>2026-03-29T15:02:34Z</time>
      </trkpt>
      <trkpt lat="48.69641" lon="2.0594">
        <ele>126.8</ele>
        <time>2026-03-29T15:02:35Z</time>
      </trkpt>
      <trkpt lat="48.69637" lon="2.05939">
        <ele>126.8</ele>
        <time>2026-03-29T15:02:36Z</time>
      </trkpt>
      <trkpt lat="48.69634" lon="2.05938">
        <ele>127</ele>
        <time>2026-03-29T15:02:37Z</time>
      </trkpt>
      <trkpt lat="48.6963" lon="2.05937">
        <ele>128.2</ele>
        <time>2026-03-29T15:02:38Z</time>
      </trkpt>
      <trkpt lat="48.69626" lon="2.05936">
        <ele>128.2</ele>
        <time>2026-03-29T15:02:39Z</time>
      </trkpt>
      <trkpt lat="48.69622" lon="2.05934">
        <ele>128.2</ele>
        <time>2026-03-29T15:02:40Z</time>
      </trkpt>
      <trkpt lat="48.69618" lon="2.05932">
        <ele>127.6</ele>
        <time>2026-03-29T15:02:41Z</time>
      </trkpt>
      <trkpt lat="48.69615" lon="2.05931">
        <ele>127.6</ele>
        <time>2026-03-29T15:02:42Z</time>
      </trkpt>
      <trkpt lat="48.69612" lon="2.0593">
        <ele>127.6</ele>
        <time>2026-03-29T15:02:43Z</time>
      </trkpt>
      <trkpt lat="48.69608" lon="2.05929">
        <ele>127.6</ele>
        <time>2026-03-29T15:02:44Z</time>
      </trkpt>
      <trkpt lat="48.69605" lon="2.05927">
        <ele>127.8</ele>
        <time>2026-03-29T15:02:45Z</time>
      </trkpt>
      <trkpt lat="48.69602" lon="2.05926">
        <ele>128</ele>
        <time>2026-03-29T15:02:46Z</time>
      </trkpt>
      <trkpt lat="48.69598" lon="2.05925">
        <ele>128</ele>
        <time>2026-03-29T15:02:47Z</time>
      </trkpt>
      <trkpt lat="48.69595" lon="2.05923">
        <ele>128</ele>
        <time>2026-03-29T15:02:48Z</time>
      </trkpt>
      <trkpt lat="48.69592" lon="2.05922">
        <ele>127.8</ele>
        <time>2026-03-29T15:02:49Z</time>
      </trkpt>
      <trkpt lat="48.69588" lon="2.05922">
        <ele>128</ele>
        <time>2026-03-29T15:02:50Z</time>
      </trkpt>
      <trkpt lat="48.69584" lon="2.05922">
        <ele>128</ele>
        <time>2026-03-29T15:02:51Z</time>
      </trkpt>
      <trkpt lat="48.6958" lon="2.0592">
        <ele>128</ele>
        <time>2026-03-29T15:02:52Z</time>
      </trkpt>
      <trkpt lat="48.69577" lon="2.05919">
        <ele>128.4</ele>
        <time>2026-03-29T15:02:53Z</time>
      </trkpt>
      <trkpt lat="48.69573" lon="2.05919">
        <ele>129</ele>
        <time>2026-03-29T15:02:54Z</time>
      </trkpt>
      <trkpt lat="48.69568" lon="2.05919">
        <ele>129</ele>
        <time>2026-03-29T15:02:55Z</time>
      </trkpt>
      <trkpt lat="48.69564" lon="2.05919">
        <ele>129</ele>
        <time>2026-03-29T15:02:56Z</time>
      </trkpt>
      <trkpt lat="48.6956" lon="2.05918">
        <ele>128.2</ele>
        <time>2026-03-29T15:02:57Z</time>
      </trkpt>
      <trkpt lat="48.69556" lon="2.05918">
        <ele>128.4</ele>
        <time>2026-03-29T15:02:58Z</time>
      </trkpt>
      <trkpt lat="48.69553" lon="2.05919">
        <ele>128.4</ele>
        <time>2026-03-29T15:02:59Z</time>
      </trkpt>
      <trkpt lat="48.69549" lon="2.0592">
        <ele>128.4</ele>
        <time>2026-03-29T15:03:00Z</time>
      </trkpt>
      <trkpt lat="48.69546" lon="2.0592">
        <ele>129</ele>
        <time>2026-03-29T15:03:01Z</time>
      </trkpt>
      <trkpt lat="48.69542" lon="2.0592">
        <ele>128.8</ele>
        <time>2026-03-29T15:03:02Z</time>
      </trkpt>
      <trkpt lat="48.69538" lon="2.05921">
        <ele>128.8</ele>
        <time>2026-03-29T15:03:03Z</time>
      </trkpt>
      <trkpt lat="48.69534" lon="2.0592">
        <ele>128.8</ele>
        <time>2026-03-29T15:03:04Z</time>
      </trkpt>
      <trkpt lat="48.69531" lon="2.0592">
        <ele>129.2</ele>
        <time>2026-03-29T15:03:05Z</time>
      </trkpt>
      <trkpt lat="48.69527" lon="2.05921">
        <ele>129.2</ele>
        <time>2026-03-29T15:03:06Z</time>
      </trkpt>
      <trkpt lat="48.69524" lon="2.05922">
        <ele>129.2</ele>
        <time>2026-03-29T15:03:07Z</time>
      </trkpt>
      <trkpt lat="48.6952" lon="2.05922">
        <ele>129.2</ele>
        <time>2026-03-29T15:03:08Z</time>
      </trkpt>
      <trkpt lat="48.69516" lon="2.05923">
        <ele>129.6</ele>
        <time>2026-03-29T15:03:09Z</time>
      </trkpt>
      <trkpt lat="48.69512" lon="2.05923">
        <ele>129.4</ele>
        <time>2026-03-29T15:03:10Z</time>
      </trkpt>
      <trkpt lat="48.69509" lon="2.05923">
        <ele>129.4</ele>
        <time>2026-03-29T15:03:11Z</time>
      </trkpt>
      <trkpt lat="48.69505" lon="2.05922">
        <ele>129.4</ele>
        <time>2026-03-29T15:03:12Z</time>
      </trkpt>
      <trkpt lat="48.69501" lon="2.05923">
        <ele>129.4</ele>
        <time>2026-03-29T15:03:13Z</time>
      </trkpt>
      <trkpt lat="48.69498" lon="2.05923">
        <ele>129.6</ele>
        <time>2026-03-29T15:03:14Z</time>
      </trkpt>
      <trkpt lat="48.69495" lon="2.05924">
        <ele>129.6</ele>
        <time>2026-03-29T15:03:15Z</time>
      </trkpt>
      <trkpt lat="48.69491" lon="2.05924">
        <ele>129.6</ele>
        <time>2026-03-29T15:03:16Z</time>
      </trkpt>
      <trkpt lat="48.69488" lon="2.05925">
        <ele>129.6</ele>
        <time>2026-03-29T15:03:17Z</time>
      </trkpt>
      <trkpt lat="48.69484" lon="2.05925">
        <ele>129.8</ele>
        <time>2026-03-29T15:03:18Z</time>
      </trkpt>
      <trkpt lat="48.69481" lon="2.05925">
        <ele>129.8</ele>
        <time>2026-03-29T15:03:19Z</time>
      </trkpt>
      <trkpt lat="48.69477" lon="2.05925">
        <ele>129.8</ele>
        <time>2026-03-29T15:03:20Z</time>
      </trkpt>
      <trkpt lat="48.69474" lon="2.05926">
        <ele>130.2</ele>
        <time>2026-03-29T15:03:21Z</time>
      </trkpt>
      <trkpt lat="48.69471" lon="2.05926">
        <ele>130.4</ele>
        <time>2026-03-29T15:03:22Z</time>
      </trkpt>
      <trkpt lat="48.69468" lon="2.05927">
        <ele>130.4</ele>
        <time>2026-03-29T15:03:23Z</time>
      </trkpt>
      <trkpt lat="48.69465" lon="2.05927">
        <ele>130.4</ele>
        <time>2026-03-29T15:03:24Z</time>
      </trkpt>
      <trkpt lat="48.69461" lon="2.05928">
        <ele>130.4</ele>
        <time>2026-03-29T15:03:25Z</time>
      </trkpt>
      <trkpt lat="48.69458" lon="2.05929">
        <ele>130.8</ele>
        <time>2026-03-29T15:03:26Z</time>
      </trkpt>
      <trkpt lat="48.69455" lon="2.05931">
        <ele>130.8</ele>
        <time>2026-03-29T15:03:27Z</time>
      </trkpt>
      <trkpt lat="48.69453" lon="2.05932">
        <ele>130.8</ele>
        <time>2026-03-29T15:03:28Z</time>
      </trkpt>
      <trkpt lat="48.6945" lon="2.05933">
        <ele>130.8</ele>
        <time>2026-03-29T15:03:29Z</time>
      </trkpt>
      <trkpt lat="48.69447" lon="2.05935">
        <ele>130.2</ele>
        <time>2026-03-29T15:03:30Z</time>
      </trkpt>
      <trkpt lat="48.69445" lon="2.05937">
        <ele>130.2</ele>
        <time>2026-03-29T15:03:31Z</time>
      </trkpt>
      <trkpt lat="48.69441" lon="2.05939">
        <ele>130.2</ele>
        <time>2026-03-29T15:03:32Z</time>
      </trkpt>
      <trkpt lat="48.69438" lon="2.0594">
        <ele>131.2</ele>
        <time>2026-03-29T15:03:33Z</time>
      </trkpt>
      <trkpt lat="48.69435" lon="2.05942">
        <ele>131.4</ele>
        <time>2026-03-29T15:03:34Z</time>
      </trkpt>
      <trkpt lat="48.69432" lon="2.05944">
        <ele>131.4</ele>
        <time>2026-03-29T15:03:35Z</time>
      </trkpt>
      <trkpt lat="48.69429" lon="2.05946">
        <ele>131.4</ele>
        <time>2026-03-29T15:03:36Z</time>
      </trkpt>
      <trkpt lat="48.69425" lon="2.05948">
        <ele>131.4</ele>
        <time>2026-03-29T15:03:37Z</time>
      </trkpt>
      <trkpt lat="48.69422" lon="2.0595">
        <ele>131.4</ele>
        <time>2026-03-29T15:03:38Z</time>
      </trkpt>
      <trkpt lat="48.69419" lon="2.05952">
        <ele>131.4</ele>
        <time>2026-03-29T15:03:39Z</time>
      </trkpt>
      <trkpt lat="48.69416" lon="2.05953">
        <ele>131.4</ele>
        <time>2026-03-29T15:03:40Z</time>
      </trkpt>
      <trkpt lat="48.69412" lon="2.05954">
        <ele>131.4</ele>
        <time>2026-03-29T15:03:41Z</time>
      </trkpt>
      <trkpt lat="48.6941" lon="2.05954">
        <ele>131.8</ele>
        <time>2026-03-29T15:03:42Z</time>
      </trkpt>
      <trkpt lat="48.69406" lon="2.05955">
        <ele>131.8</ele>
        <time>2026-03-29T15:03:43Z</time>
      </trkpt>
      <trkpt lat="48.69405" lon="2.05956">
        <ele>131.8</ele>
        <time>2026-03-29T15:03:44Z</time>
      </trkpt>
      <trkpt lat="48.69402" lon="2.05957">
        <ele>132</ele>
        <time>2026-03-29T15:03:45Z</time>
      </trkpt>
      <trkpt lat="48.69399" lon="2.05959">
        <ele>132.4</ele>
        <time>2026-03-29T15:03:46Z</time>
      </trkpt>
      <trkpt lat="48.69396" lon="2.05961">
        <ele>132.4</ele>
        <time>2026-03-29T15:03:47Z</time>
      </trkpt>
      <trkpt lat="48.69393" lon="2.05963">
        <ele>132.4</ele>
        <time>2026-03-29T15:03:48Z</time>
      </trkpt>
      <trkpt lat="48.69391" lon="2.05964">
        <ele>132.2</ele>
        <time>2026-03-29T15:03:49Z</time>
      </trkpt>
      <trkpt lat="48.69387" lon="2.05966">
        <ele>132.4</ele>
        <time>2026-03-29T15:03:50Z</time>
      </trkpt>
      <trkpt lat="48.69385" lon="2.05967">
        <ele>132.4</ele>
        <time>2026-03-29T15:03:51Z</time>
      </trkpt>
      <trkpt lat="48.69382" lon="2.05969">
        <ele>132.4</ele>
        <time>2026-03-29T15:03:52Z</time>
      </trkpt>
      <trkpt lat="48.6938" lon="2.05971">
        <ele>132.4</ele>
        <time>2026-03-29T15:03:53Z</time>
      </trkpt>
      <trkpt lat="48.69378" lon="2.05973">
        <ele>132.8</ele>
        <time>2026-03-29T15:03:54Z</time>
      </trkpt>
      <trkpt lat="48.69375" lon="2.05974">
        <ele>132.8</ele>
        <time>2026-03-29T15:03:55Z</time>
      </trkpt>
      <trkpt lat="48.69372" lon="2.05976">
        <ele>132.8</ele>
        <time>2026-03-29T15:03:56Z</time>
      </trkpt>
      <trkpt lat="48.69369" lon="2.05977">
        <ele>132.8</ele>
        <time>2026-03-29T15:03:57Z</time>
      </trkpt>
      <trkpt lat="48.69366" lon="2.05979">
        <ele>132.6</ele>
        <time>2026-03-29T15:03:58Z</time>
      </trkpt>
      <trkpt lat="48.69364" lon="2.0598">
        <ele>132.6</ele>
        <time>2026-03-29T15:03:59Z</time>
      </trkpt>
      <trkpt lat="48.6936" lon="2.05981">
        <ele>132.6</ele>
        <time>2026-03-29T15:04:00Z</time>
      </trkpt>
      <trkpt lat="48.69357" lon="2.05983">
        <ele>133.2</ele>
        <time>2026-03-29T15:04:01Z</time>
      </trkpt>
      <trkpt lat="48.69354" lon="2.05984">
        <ele>133.2</ele>
        <time>2026-03-29T15:04:02Z</time>
      </trkpt>
      <trkpt lat="48.69352" lon="2.05986">
        <ele>133.2</ele>
        <time>2026-03-29T15:04:03Z</time>
      </trkpt>
      <trkpt lat="48.69349" lon="2.05988">
        <ele>133.2</ele>
        <time>2026-03-29T15:04:04Z</time>
      </trkpt>
      <trkpt lat="48.69346" lon="2.0599">
        <ele>133.2</ele>
        <time>2026-03-29T15:04:05Z</time>
      </trkpt>
      <trkpt lat="48.69343" lon="2.05992">
        <ele>133.2</ele>
        <time>2026-03-29T15:04:06Z</time>
      </trkpt>
      <trkpt lat="48.6934" lon="2.05994">
        <ele>133.2</ele>
        <time>2026-03-29T15:04:07Z</time>
      </trkpt>
      <trkpt lat="48.69337" lon="2.05997">
        <ele>133.2</ele>
        <time>2026-03-29T15:04:08Z</time>
      </trkpt>
      <trkpt lat="48.69335" lon="2.05999">
        <ele>133.8</ele>
        <time>2026-03-29T15:04:09Z</time>
      </trkpt>
      <trkpt lat="48.69332" lon="2.06">
        <ele>133.6</ele>
        <time>2026-03-29T15:04:10Z</time>
      </trkpt>
      <trkpt lat="48.69331" lon="2.06003">
        <ele>133.6</ele>
        <time>2026-03-29T15:04:11Z</time>
      </trkpt>
      <trkpt lat="48.69328" lon="2.06005">
        <ele>133.6</ele>
        <time>2026-03-29T15:04:12Z</time>
      </trkpt>
      <trkpt lat="48.69326" lon="2.06006">
        <ele>134</ele>
        <time>2026-03-29T15:04:13Z</time>
      </trkpt>
      <trkpt lat="48.69323" lon="2.06008">
        <ele>133.8</ele>
        <time>2026-03-29T15:04:14Z</time>
      </trkpt>
      <trkpt lat="48.6932" lon="2.0601">
        <ele>133.8</ele>
        <time>2026-03-29T15:04:15Z</time>
      </trkpt>
      <trkpt lat="48.69316" lon="2.06012">
        <ele>133.8</ele>
        <time>2026-03-29T15:04:16Z</time>
      </trkpt>
      <trkpt lat="48.69313" lon="2.06014">
        <ele>134.2</ele>
        <time>2026-03-29T15:04:17Z</time>
      </trkpt>
      <trkpt lat="48.6931" lon="2.06015">
        <ele>134</ele>
        <time>2026-03-29T15:04:18Z</time>
      </trkpt>
      <trkpt lat="48.69306" lon="2.06016">
        <ele>134</ele>
        <time>2026-03-29T15:04:19Z</time>
      </trkpt>
      <trkpt lat="48.69303" lon="2.06018">
        <ele>134</ele>
        <time>2026-03-29T15:04:20Z</time>
      </trkpt>
      <trkpt lat="48.69298" lon="2.0602">
        <ele>134.6</ele>
        <time>2026-03-29T15:04:21Z</time>
      </trkpt>
      <trkpt lat="48.69295" lon="2.06022">
        <ele>134.6</ele>
        <time>2026-03-29T15:04:22Z</time>
      </trkpt>
      <trkpt lat="48.69291" lon="2.06024">
        <ele>134.6</ele>
        <time>2026-03-29T15:04:23Z</time>
      </trkpt>
      <trkpt lat="48.69288" lon="2.06026">
        <ele>134.6</ele>
        <time>2026-03-29T15:04:24Z</time>
      </trkpt>
      <trkpt lat="48.69285" lon="2.06027">
        <ele>135.2</ele>
        <time>2026-03-29T15:04:25Z</time>
      </trkpt>
      <trkpt lat="48.69282" lon="2.0603">
        <ele>135</ele>
        <time>2026-03-29T15:04:26Z</time>
      </trkpt>
      <trkpt lat="48.69279" lon="2.06031">
        <ele>135</ele>
        <time>2026-03-29T15:04:27Z</time>
      </trkpt>
      <trkpt lat="48.69276" lon="2.06032">
        <ele>135</ele>
        <time>2026-03-29T15:04:28Z</time>
      </trkpt>
      <trkpt lat="48.69273" lon="2.06033">
        <ele>135</ele>
        <time>2026-03-29T15:04:29Z</time>
      </trkpt>
      <trkpt lat="48.69271" lon="2.06034">
        <ele>135.2</ele>
        <time>2026-03-29T15:04:30Z</time>
      </trkpt>
      <trkpt lat="48.69268" lon="2.06035">
        <ele>135.2</ele>
        <time>2026-03-29T15:04:31Z</time>
      </trkpt>
      <trkpt lat="48.69265" lon="2.06036">
        <ele>135.2</ele>
        <time>2026-03-29T15:04:32Z</time>
      </trkpt>
      <trkpt lat="48.69264" lon="2.06037">
        <ele>135.2</ele>
        <time>2026-03-29T15:04:33Z</time>
      </trkpt>
      <trkpt lat="48.69262" lon="2.06037">
        <ele>135.2</ele>
        <time>2026-03-29T15:04:34Z</time>
      </trkpt>
      <trkpt lat="48.69259" lon="2.06039">
        <ele>135.2</ele>
        <time>2026-03-29T15:04:35Z</time>
      </trkpt>
      <trkpt lat="48.69255" lon="2.0604">
        <ele>135.2</ele>
        <time>2026-03-29T15:04:36Z</time>
      </trkpt>
      <trkpt lat="48.6925" lon="2.06042">
        <ele>135.4</ele>
        <time>2026-03-29T15:04:37Z</time>
      </trkpt>
      <trkpt lat="48.69248" lon="2.06043">
        <ele>135.6</ele>
        <time>2026-03-29T15:04:38Z</time>
      </trkpt>
      <trkpt lat="48.69245" lon="2.06044">
        <ele>135.6</ele>
        <time>2026-03-29T15:04:39Z</time>
      </trkpt>
      <trkpt lat="48.69243" lon="2.06045">
        <ele>135.6</ele>
        <time>2026-03-29T15:04:40Z</time>
      </trkpt>
      <trkpt lat="48.69239" lon="2.06046">
        <ele>136</ele>
        <time>2026-03-29T15:04:41Z</time>
      </trkpt>
      <trkpt lat="48.69235" lon="2.06048">
        <ele>136</ele>
        <time>2026-03-29T15:04:42Z</time>
      </trkpt>
      <trkpt lat="48.69231" lon="2.0605">
        <ele>136</ele>
        <time>2026-03-29T15:04:43Z</time>
      </trkpt>
      <trkpt lat="48.69228" lon="2.06052">
        <ele>136</ele>
        <time>2026-03-29T15:04:44Z</time>
      </trkpt>
      <trkpt lat="48.69225" lon="2.06053">
        <ele>136.4</ele>
        <time>2026-03-29T15:04:45Z</time>
      </trkpt>
      <trkpt lat="48.69223" lon="2.06055">
        <ele>136.6</ele>
        <time>2026-03-29T15:04:46Z</time>
      </trkpt>
      <trkpt lat="48.6922" lon="2.06058">
        <ele>136.6</ele>
        <time>2026-03-29T15:04:47Z</time>
      </trkpt>
      <trkpt lat="48.69217" lon="2.0606">
        <ele>136.6</ele>
        <time>2026-03-29T15:04:48Z</time>
      </trkpt>
      <trkpt lat="48.69213" lon="2.06061">
        <ele>136.6</ele>
        <time>2026-03-29T15:04:49Z</time>
      </trkpt>
      <trkpt lat="48.6921" lon="2.06063">
        <ele>136.6</ele>
        <time>2026-03-29T15:04:50Z</time>
      </trkpt>
      <trkpt lat="48.69207" lon="2.06065">
        <ele>136.6</ele>
        <time>2026-03-29T15:04:51Z</time>
      </trkpt>
      <trkpt lat="48.69205" lon="2.06066">
        <ele>136.6</ele>
        <time>2026-03-29T15:04:52Z</time>
      </trkpt>
      <trkpt lat="48.69201" lon="2.06069">
        <ele>137.2</ele>
        <time>2026-03-29T15:04:53Z</time>
      </trkpt>
      <trkpt lat="48.69198" lon="2.0607">
        <ele>137.2</ele>
        <time>2026-03-29T15:04:54Z</time>
      </trkpt>
      <trkpt lat="48.69194" lon="2.06072">
        <ele>137.2</ele>
        <time>2026-03-29T15:04:55Z</time>
      </trkpt>
      <trkpt lat="48.69191" lon="2.06073">
        <ele>137.2</ele>
        <time>2026-03-29T15:04:56Z</time>
      </trkpt>
      <trkpt lat="48.69188" lon="2.06073">
        <ele>137.2</ele>
        <time>2026-03-29T15:04:57Z</time>
      </trkpt>
      <trkpt lat="48.69184" lon="2.06075">
        <ele>137.6</ele>
        <time>2026-03-29T15:04:58Z</time>
      </trkpt>
      <trkpt lat="48.69181" lon="2.06076">
        <ele>137.6</ele>
        <time>2026-03-29T15:04:59Z</time>
      </trkpt>
      <trkpt lat="48.69178" lon="2.06078">
        <ele>137.6</ele>
        <time>2026-03-29T15:05:00Z</time>
      </trkpt>
      <trkpt lat="48.69176" lon="2.06079">
        <ele>138.4</ele>
        <time>2026-03-29T15:05:01Z</time>
      </trkpt>
      <trkpt lat="48.69174" lon="2.0608">
        <ele>138.2</ele>
        <time>2026-03-29T15:05:02Z</time>
      </trkpt>
      <trkpt lat="48.6917" lon="2.06082">
        <ele>138.2</ele>
        <time>2026-03-29T15:05:03Z</time>
      </trkpt>
      <trkpt lat="48.69167" lon="2.06082">
        <ele>138.2</ele>
        <time>2026-03-29T15:05:04Z</time>
      </trkpt>
      <trkpt lat="48.69164" lon="2.06082">
        <ele>138.2</ele>
        <time>2026-03-29T15:05:05Z</time>
      </trkpt>
      <trkpt lat="48.6916" lon="2.06083">
        <ele>138.4</ele>
        <time>2026-03-29T15:05:06Z</time>
      </trkpt>
      <trkpt lat="48.69156" lon="2.06084">
        <ele>138.4</ele>
        <time>2026-03-29T15:05:07Z</time>
      </trkpt>
      <trkpt lat="48.69151" lon="2.06086">
        <ele>138.4</ele>
        <time>2026-03-29T15:05:08Z</time>
      </trkpt>
      <trkpt lat="48.69147" lon="2.06086">
        <ele>138.6</ele>
        <time>2026-03-29T15:05:09Z</time>
      </trkpt>
      <trkpt lat="48.69143" lon="2.06087">
        <ele>138.6</ele>
        <time>2026-03-29T15:05:10Z</time>
      </trkpt>
      <trkpt lat="48.69139" lon="2.06088">
        <ele>138.6</ele>
        <time>2026-03-29T15:05:11Z</time>
      </trkpt>
      <trkpt lat="48.69135" lon="2.06088">
        <ele>138.6</ele>
        <time>2026-03-29T15:05:12Z</time>
      </trkpt>
      <trkpt lat="48.69131" lon="2.06089">
        <ele>138.6</ele>
        <time>2026-03-29T15:05:13Z</time>
      </trkpt>
      <trkpt lat="48.69128" lon="2.0609">
        <ele>139</ele>
        <time>2026-03-29T15:05:14Z</time>
      </trkpt>
      <trkpt lat="48.69125" lon="2.0609">
        <ele>139</ele>
        <time>2026-03-29T15:05:15Z</time>
      </trkpt>
      <trkpt lat="48.69122" lon="2.06091">
        <ele>139</ele>
        <time>2026-03-29T15:05:16Z</time>
      </trkpt>
      <trkpt lat="48.69119" lon="2.06093">
        <ele>139</ele>
        <time>2026-03-29T15:05:17Z</time>
      </trkpt>
      <trkpt lat="48.69114" lon="2.06094">
        <ele>139</ele>
        <time>2026-03-29T15:05:18Z</time>
      </trkpt>
      <trkpt lat="48.6911" lon="2.06095">
        <ele>139</ele>
        <time>2026-03-29T15:05:19Z</time>
      </trkpt>
      <trkpt lat="48.69107" lon="2.06095">
        <ele>139</ele>
        <time>2026-03-29T15:05:20Z</time>
      </trkpt>
      <trkpt lat="48.69103" lon="2.06095">
        <ele>139.6</ele>
        <time>2026-03-29T15:05:21Z</time>
      </trkpt>
      <trkpt lat="48.69098" lon="2.06095">
        <ele>139.6</ele>
        <time>2026-03-29T15:05:22Z</time>
      </trkpt>
      <trkpt lat="48.69094" lon="2.06096">
        <ele>139.6</ele>
        <time>2026-03-29T15:05:23Z</time>
      </trkpt>
      <trkpt lat="48.6909" lon="2.06096">
        <ele>139.6</ele>
        <time>2026-03-29T15:05:24Z</time>
      </trkpt>
      <trkpt lat="48.69086" lon="2.06096">
        <ele>139.6</ele>
        <time>2026-03-29T15:05:25Z</time>
      </trkpt>
      <trkpt lat="48.69082" lon="2.06096">
        <ele>140</ele>
        <time>2026-03-29T15:05:26Z</time>
      </trkpt>
      <trkpt lat="48.69079" lon="2.06096">
        <ele>140</ele>
        <time>2026-03-29T15:05:27Z</time>
      </trkpt>
      <trkpt lat="48.69074" lon="2.06097">
        <ele>140</ele>
        <time>2026-03-29T15:05:28Z</time>
      </trkpt>
      <trkpt lat="48.69071" lon="2.06097">
        <ele>140</ele>
        <time>2026-03-29T15:05:29Z</time>
      </trkpt>
      <trkpt lat="48.69066" lon="2.06097">
        <ele>140.4</ele>
        <time>2026-03-29T15:05:30Z</time>
      </trkpt>
      <trkpt lat="48.69064" lon="2.06098">
        <ele>140.4</ele>
        <time>2026-03-29T15:05:31Z</time>
      </trkpt>
      <trkpt lat="48.6906" lon="2.06098">
        <ele>140.4</ele>
        <time>2026-03-29T15:05:32Z</time>
      </trkpt>
      <trkpt lat="48.69056" lon="2.06098">
        <ele>140.4</ele>
        <time>2026-03-29T15:05:33Z</time>
      </trkpt>
      <trkpt lat="48.69052" lon="2.06098">
        <ele>140.4</ele>
        <time>2026-03-29T15:05:34Z</time>
      </trkpt>
      <trkpt lat="48.69048" lon="2.06098">
        <ele>140.4</ele>
        <time>2026-03-29T15:05:35Z</time>
      </trkpt>
      <trkpt lat="48.69043" lon="2.06098">
        <ele>140.4</ele>
        <time>2026-03-29T15:05:36Z</time>
      </trkpt>
      <trkpt lat="48.6904" lon="2.06099">
        <ele>140.4</ele>
        <time>2026-03-29T15:05:37Z</time>
      </trkpt>
      <trkpt lat="48.69036" lon="2.061">
        <ele>140.8</ele>
        <time>2026-03-29T15:05:38Z</time>
      </trkpt>
      <trkpt lat="48.69032" lon="2.06101">
        <ele>140.8</ele>
        <time>2026-03-29T15:05:39Z</time>
      </trkpt>
      <trkpt lat="48.69028" lon="2.06102">
        <ele>140.8</ele>
        <time>2026-03-29T15:05:40Z</time>
      </trkpt>
      <trkpt lat="48.69024" lon="2.06103">
        <ele>140.8</ele>
        <time>2026-03-29T15:05:41Z</time>
      </trkpt>
      <trkpt lat="48.6902" lon="2.06103">
        <ele>140.8</ele>
        <time>2026-03-29T15:05:42Z</time>
      </trkpt>
      <trkpt lat="48.69017" lon="2.06104">
        <ele>140.8</ele>
        <time>2026-03-29T15:05:43Z</time>
      </trkpt>
      <trkpt lat="48.69013" lon="2.06105">
        <ele>140.8</ele>
        <time>2026-03-29T15:05:44Z</time>
      </trkpt>
      <trkpt lat="48.6901" lon="2.06106">
        <ele>140.8</ele>
        <time>2026-03-29T15:05:45Z</time>
      </trkpt>
      <trkpt lat="48.69007" lon="2.06107">
        <ele>141.6</ele>
        <time>2026-03-29T15:05:46Z</time>
      </trkpt>
      <trkpt lat="48.69002" lon="2.06107">
        <ele>141.6</ele>
        <time>2026-03-29T15:05:47Z</time>
      </trkpt>
      <trkpt lat="48.68998" lon="2.06107">
        <ele>141.6</ele>
        <time>2026-03-29T15:05:48Z</time>
      </trkpt>
      <trkpt lat="48.68995" lon="2.06107">
        <ele>141.6</ele>
        <time>2026-03-29T15:05:49Z</time>
      </trkpt>
      <trkpt lat="48.68991" lon="2.06108">
        <ele>142.2</ele>
        <time>2026-03-29T15:05:50Z</time>
      </trkpt>
      <trkpt lat="48.68987" lon="2.0611">
        <ele>142.2</ele>
        <time>2026-03-29T15:05:51Z</time>
      </trkpt>
      <trkpt lat="48.68984" lon="2.06109">
        <ele>142.2</ele>
        <time>2026-03-29T15:05:52Z</time>
      </trkpt>
      <trkpt lat="48.68982" lon="2.0611">
        <ele>143.2</ele>
        <time>2026-03-29T15:05:53Z</time>
      </trkpt>
      <trkpt lat="48.68978" lon="2.0611">
        <ele>142.8</ele>
        <time>2026-03-29T15:05:54Z</time>
      </trkpt>
      <trkpt lat="48.68975" lon="2.0611">
        <ele>142.8</ele>
        <time>2026-03-29T15:05:55Z</time>
      </trkpt>
      <trkpt lat="48.68971" lon="2.0611">
        <ele>142.8</ele>
        <time>2026-03-29T15:05:56Z</time>
      </trkpt>
      <trkpt lat="48.68967" lon="2.06111">
        <ele>142.8</ele>
        <time>2026-03-29T15:05:57Z</time>
      </trkpt>
      <trkpt lat="48.68964" lon="2.0611">
        <ele>143</ele>
        <time>2026-03-29T15:05:58Z</time>
      </trkpt>
      <trkpt lat="48.6896" lon="2.0611">
        <ele>143</ele>
        <time>2026-03-29T15:05:59Z</time>
      </trkpt>
      <trkpt lat="48.68956" lon="2.0611">
        <ele>143</ele>
        <time>2026-03-29T15:06:00Z</time>
      </trkpt>
      <trkpt lat="48.68953" lon="2.0611">
        <ele>143</ele>
        <time>2026-03-29T15:06:01Z</time>
      </trkpt>
      <trkpt lat="48.68948" lon="2.06111">
        <ele>143</ele>
        <time>2026-03-29T15:06:02Z</time>
      </trkpt>
      <trkpt lat="48.68944" lon="2.06112">
        <ele>143</ele>
        <time>2026-03-29T15:06:03Z</time>
      </trkpt>
      <trkpt lat="48.68941" lon="2.06112">
        <ele>143</ele>
        <time>2026-03-29T15:06:04Z</time>
      </trkpt>
      <trkpt lat="48.68937" lon="2.06113">
        <ele>144</ele>
        <time>2026-03-29T15:06:05Z</time>
      </trkpt>
      <trkpt lat="48.68933" lon="2.06113">
        <ele>143.8</ele>
        <time>2026-03-29T15:06:06Z</time>
      </trkpt>
      <trkpt lat="48.68929" lon="2.06113">
        <ele>143.8</ele>
        <time>2026-03-29T15:06:07Z</time>
      </trkpt>
      <trkpt lat="48.68925" lon="2.06113">
        <ele>143.8</ele>
        <time>2026-03-29T15:06:08Z</time>
      </trkpt>
      <trkpt lat="48.68922" lon="2.06114">
        <ele>144</ele>
        <time>2026-03-29T15:06:09Z</time>
      </trkpt>
      <trkpt lat="48.68918" lon="2.06114">
        <ele>143.6</ele>
        <time>2026-03-29T15:06:10Z</time>
      </trkpt>
      <trkpt lat="48.68913" lon="2.06116">
        <ele>143.6</ele>
        <time>2026-03-29T15:06:11Z</time>
      </trkpt>
      <trkpt lat="48.68909" lon="2.06116">
        <ele>143.6</ele>
        <time>2026-03-29T15:06:12Z</time>
      </trkpt>
      <trkpt lat="48.68905" lon="2.06117">
        <ele>144</ele>
        <time>2026-03-29T15:06:13Z</time>
      </trkpt>
      <trkpt lat="48.68901" lon="2.06118">
        <ele>144.2</ele>
        <time>2026-03-29T15:06:14Z</time>
      </trkpt>
      <trkpt lat="48.68897" lon="2.06118">
        <ele>144.2</ele>
        <time>2026-03-29T15:06:15Z</time>
      </trkpt>
      <trkpt lat="48.68893" lon="2.06119">
        <ele>144.2</ele>
        <time>2026-03-29T15:06:16Z</time>
      </trkpt>
      <trkpt lat="48.68888" lon="2.0612">
        <ele>144.2</ele>
        <time>2026-03-29T15:06:17Z</time>
      </trkpt>
      <trkpt lat="48.68885" lon="2.0612">
        <ele>144</ele>
        <time>2026-03-29T15:06:18Z</time>
      </trkpt>
      <trkpt lat="48.68882" lon="2.0612">
        <ele>144</ele>
        <time>2026-03-29T15:06:19Z</time>
      </trkpt>
      <trkpt lat="48.68879" lon="2.0612">
        <ele>144</ele>
        <time>2026-03-29T15:06:20Z</time>
      </trkpt>
      <trkpt lat="48.68875" lon="2.06121">
        <ele>144.6</ele>
        <time>2026-03-29T15:06:21Z</time>
      </trkpt>
      <trkpt lat="48.68871" lon="2.06122">
        <ele>144.4</ele>
        <time>2026-03-29T15:06:22Z</time>
      </trkpt>
      <trkpt lat="48.68867" lon="2.06123">
        <ele>144.4</ele>
        <time>2026-03-29T15:06:23Z</time>
      </trkpt>
      <trkpt lat="48.68862" lon="2.06124">
        <ele>144.4</ele>
        <time>2026-03-29T15:06:24Z</time>
      </trkpt>
      <trkpt lat="48.68858" lon="2.06125">
        <ele>144.4</ele>
        <time>2026-03-29T15:06:25Z</time>
      </trkpt>
      <trkpt lat="48.68855" lon="2.06126">
        <ele>144.6</ele>
        <time>2026-03-29T15:06:26Z</time>
      </trkpt>
      <trkpt lat="48.6885" lon="2.06128">
        <ele>144.6</ele>
        <time>2026-03-29T15:06:27Z</time>
      </trkpt>
      <trkpt lat="48.68846" lon="2.06129">
        <ele>144.6</ele>
        <time>2026-03-29T15:06:28Z</time>
      </trkpt>
      <trkpt lat="48.68843" lon="2.0613">
        <ele>144.6</ele>
        <time>2026-03-29T15:06:29Z</time>
      </trkpt>
      <trkpt lat="48.6884" lon="2.06131">
        <ele>145</ele>
        <time>2026-03-29T15:06:30Z</time>
      </trkpt>
      <trkpt lat="48.68837" lon="2.06133">
        <ele>145</ele>
        <time>2026-03-29T15:06:31Z</time>
      </trkpt>
      <trkpt lat="48.68834" lon="2.06134">
        <ele>145</ele>
        <time>2026-03-29T15:06:32Z</time>
      </trkpt>
      <trkpt lat="48.6883" lon="2.06135">
        <ele>145</ele>
        <time>2026-03-29T15:06:33Z</time>
      </trkpt>
      <trkpt lat="48.68828" lon="2.06136">
        <ele>145.4</ele>
        <time>2026-03-29T15:06:34Z</time>
      </trkpt>
      <trkpt lat="48.68824" lon="2.06137">
        <ele>145.4</ele>
        <time>2026-03-29T15:06:35Z</time>
      </trkpt>
      <trkpt lat="48.6882" lon="2.06138">
        <ele>145.4</ele>
        <time>2026-03-29T15:06:36Z</time>
      </trkpt>
      <trkpt lat="48.68816" lon="2.06139">
        <ele>145.4</ele>
        <time>2026-03-29T15:06:37Z</time>
      </trkpt>
      <trkpt lat="48.68812" lon="2.0614">
        <ele>145.6</ele>
        <time>2026-03-29T15:06:38Z</time>
      </trkpt>
      <trkpt lat="48.68809" lon="2.06141">
        <ele>145.6</ele>
        <time>2026-03-29T15:06:39Z</time>
      </trkpt>
      <trkpt lat="48.68805" lon="2.06143">
        <ele>145.6</ele>
        <time>2026-03-29T15:06:40Z</time>
      </trkpt>
      <trkpt lat="48.68802" lon="2.06143">
        <ele>145.6</ele>
        <time>2026-03-29T15:06:41Z</time>
      </trkpt>
      <trkpt lat="48.68799" lon="2.06145">
        <ele>145.8</ele>
        <time>2026-03-29T15:06:42Z</time>
      </trkpt>
      <trkpt lat="48.68795" lon="2.06145">
        <ele>145.8</ele>
        <time>2026-03-29T15:06:43Z</time>
      </trkpt>
      <trkpt lat="48.6879" lon="2.06147">
        <ele>145.8</ele>
        <time>2026-03-29T15:06:44Z</time>
      </trkpt>
      <trkpt lat="48.68787" lon="2.06149">
        <ele>146</ele>
        <time>2026-03-29T15:06:45Z</time>
      </trkpt>
      <trkpt lat="48.68783" lon="2.06151">
        <ele>146</ele>
        <time>2026-03-29T15:06:46Z</time>
      </trkpt>
      <trkpt lat="48.68779" lon="2.06152">
        <ele>146</ele>
        <time>2026-03-29T15:06:47Z</time>
      </trkpt>
      <trkpt lat="48.68776" lon="2.06154">
        <ele>146</ele>
        <time>2026-03-29T15:06:48Z</time>
      </trkpt>
      <trkpt lat="48.68772" lon="2.06156">
        <ele>147</ele>
        <time>2026-03-29T15:06:49Z</time>
      </trkpt>
      <trkpt lat="48.68767" lon="2.06159">
        <ele>147</ele>
        <time>2026-03-29T15:06:50Z</time>
      </trkpt>
      <trkpt lat="48.68763" lon="2.06161">
        <ele>147</ele>
        <time>2026-03-29T15:06:51Z</time>
      </trkpt>
      <trkpt lat="48.68759" lon="2.06162">
        <ele>147</ele>
        <time>2026-03-29T15:06:52Z</time>
      </trkpt>
      <trkpt lat="48.68755" lon="2.06162">
        <ele>147</ele>
        <time>2026-03-29T15:06:53Z</time>
      </trkpt>
      <trkpt lat="48.68751" lon="2.06164">
        <ele>146.8</ele>
        <time>2026-03-29T15:06:54Z</time>
      </trkpt>
      <trkpt lat="48.68746" lon="2.06166">
        <ele>146.8</ele>
        <time>2026-03-29T15:06:55Z</time>
      </trkpt>
      <trkpt lat="48.68743" lon="2.06166">
        <ele>146.8</ele>
        <time>2026-03-29T15:06:56Z</time>
      </trkpt>
      <trkpt lat="48.68738" lon="2.06168">
        <ele>147</ele>
        <time>2026-03-29T15:06:57Z</time>
      </trkpt>
      <trkpt lat="48.68733" lon="2.06169">
        <ele>147.6</ele>
        <time>2026-03-29T15:06:58Z</time>
      </trkpt>
      <trkpt lat="48.68728" lon="2.0617">
        <ele>147.6</ele>
        <time>2026-03-29T15:06:59Z</time>
      </trkpt>
      <trkpt lat="48.68724" lon="2.06171">
        <ele>147.6</ele>
        <time>2026-03-29T15:07:00Z</time>
      </trkpt>
      <trkpt lat="48.68719" lon="2.06172">
        <ele>147.6</ele>
        <time>2026-03-29T15:07:01Z</time>
      </trkpt>
      <trkpt lat="48.68716" lon="2.06173">
        <ele>148</ele>
        <time>2026-03-29T15:07:02Z</time>
      </trkpt>
      <trkpt lat="48.68711" lon="2.06174">
        <ele>148</ele>
        <time>2026-03-29T15:07:03Z</time>
      </trkpt>
      <trkpt lat="48.68707" lon="2.06176">
        <ele>148</ele>
        <time>2026-03-29T15:07:04Z</time>
      </trkpt>
      <trkpt lat="48.68703" lon="2.06177">
        <ele>148</ele>
        <time>2026-03-29T15:07:05Z</time>
      </trkpt>
      <trkpt lat="48.68698" lon="2.06177">
        <ele>148</ele>
        <time>2026-03-29T15:07:06Z</time>
      </trkpt>
      <trkpt lat="48.68694" lon="2.06179">
        <ele>148</ele>
        <time>2026-03-29T15:07:07Z</time>
      </trkpt>
      <trkpt lat="48.6869" lon="2.0618">
        <ele>148</ele>
        <time>2026-03-29T15:07:08Z</time>
      </trkpt>
      <trkpt lat="48.68686" lon="2.06181">
        <ele>148.6</ele>
        <time>2026-03-29T15:07:09Z</time>
      </trkpt>
      <trkpt lat="48.68683" lon="2.06183">
        <ele>148.6</ele>
        <time>2026-03-29T15:07:10Z</time>
      </trkpt>
      <trkpt lat="48.6868" lon="2.06184">
        <ele>148.6</ele>
        <time>2026-03-29T15:07:11Z</time>
      </trkpt>
      <trkpt lat="48.68676" lon="2.06184">
        <ele>148.6</ele>
        <time>2026-03-29T15:07:12Z</time>
      </trkpt>
      <trkpt lat="48.68672" lon="2.06184">
        <ele>149</ele>
        <time>2026-03-29T15:07:13Z</time>
      </trkpt>
      <trkpt lat="48.6867" lon="2.06184">
        <ele>149</ele>
        <time>2026-03-29T15:07:14Z</time>
      </trkpt>
      <trkpt lat="48.68665" lon="2.06184">
        <ele>149</ele>
        <time>2026-03-29T15:07:15Z</time>
      </trkpt>
      <trkpt lat="48.68661" lon="2.06184">
        <ele>149</ele>
        <time>2026-03-29T15:07:16Z</time>
      </trkpt>
      <trkpt lat="48.68657" lon="2.06185">
        <ele>149.2</ele>
        <time>2026-03-29T15:07:17Z</time>
      </trkpt>
      <trkpt lat="48.68652" lon="2.06186">
        <ele>149.4</ele>
        <time>2026-03-29T15:07:18Z</time>
      </trkpt>
      <trkpt lat="48.68648" lon="2.06186">
        <ele>149.4</ele>
        <time>2026-03-29T15:07:19Z</time>
      </trkpt>
      <trkpt lat="48.68644" lon="2.06187">
        <ele>149.4</ele>
        <time>2026-03-29T15:07:20Z</time>
      </trkpt>
      <trkpt lat="48.6864" lon="2.06187">
        <ele>149.8</ele>
        <time>2026-03-29T15:07:21Z</time>
      </trkpt>
      <trkpt lat="48.68636" lon="2.06186">
        <ele>149.8</ele>
        <time>2026-03-29T15:07:22Z</time>
      </trkpt>
      <trkpt lat="48.68632" lon="2.06186">
        <ele>149.8</ele>
        <time>2026-03-29T15:07:23Z</time>
      </trkpt>
      <trkpt lat="48.68629" lon="2.06185">
        <ele>149.8</ele>
        <time>2026-03-29T15:07:24Z</time>
      </trkpt>
      <trkpt lat="48.68625" lon="2.06185">
        <ele>149.8</ele>
        <time>2026-03-29T15:07:25Z</time>
      </trkpt>
      <trkpt lat="48.68622" lon="2.06185">
        <ele>149.8</ele>
        <time>2026-03-29T15:07:26Z</time>
      </trkpt>
      <trkpt lat="48.68618" lon="2.06185">
        <ele>149.8</ele>
        <time>2026-03-29T15:07:27Z</time>
      </trkpt>
      <trkpt lat="48.68614" lon="2.06185">
        <ele>149.8</ele>
        <time>2026-03-29T15:07:28Z</time>
      </trkpt>
      <trkpt lat="48.6861" lon="2.06184">
        <ele>150.4</ele>
        <time>2026-03-29T15:07:29Z</time>
      </trkpt>
      <trkpt lat="48.68606" lon="2.06184">
        <ele>150.6</ele>
        <time>2026-03-29T15:07:30Z</time>
      </trkpt>
      <trkpt lat="48.68603" lon="2.06183">
        <ele>150.6</ele>
        <time>2026-03-29T15:07:31Z</time>
      </trkpt>
      <trkpt lat="48.68599" lon="2.06184">
        <ele>150.6</ele>
        <time>2026-03-29T15:07:32Z</time>
      </trkpt>
      <trkpt lat="48.68595" lon="2.06184">
        <ele>151.2</ele>
        <time>2026-03-29T15:07:33Z</time>
      </trkpt>
      <trkpt lat="48.68591" lon="2.06183">
        <ele>151.2</ele>
        <time>2026-03-29T15:07:34Z</time>
      </trkpt>
      <trkpt lat="48.68587" lon="2.06182">
        <ele>151.2</ele>
        <time>2026-03-29T15:07:35Z</time>
      </trkpt>
      <trkpt lat="48.68582" lon="2.06181">
        <ele>151.2</ele>
        <time>2026-03-29T15:07:36Z</time>
      </trkpt>
      <trkpt lat="48.68578" lon="2.0618">
        <ele>151.2</ele>
        <time>2026-03-29T15:07:37Z</time>
      </trkpt>
      <trkpt lat="48.68574" lon="2.06179">
        <ele>151.8</ele>
        <time>2026-03-29T15:07:38Z</time>
      </trkpt>
      <trkpt lat="48.6857" lon="2.06178">
        <ele>151.8</ele>
        <time>2026-03-29T15:07:39Z</time>
      </trkpt>
      <trkpt lat="48.68567" lon="2.06178">
        <ele>151.8</ele>
        <time>2026-03-29T15:07:40Z</time>
      </trkpt>
      <trkpt lat="48.68563" lon="2.06176">
        <ele>152</ele>
        <time>2026-03-29T15:07:41Z</time>
      </trkpt>
      <trkpt lat="48.68559" lon="2.06174">
        <ele>151.8</ele>
        <time>2026-03-29T15:07:42Z</time>
      </trkpt>
      <trkpt lat="48.68555" lon="2.06173">
        <ele>151.8</ele>
        <time>2026-03-29T15:07:43Z</time>
      </trkpt>
      <trkpt lat="48.68551" lon="2.06171">
        <ele>151.8</ele>
        <time>2026-03-29T15:07:44Z</time>
      </trkpt>
      <trkpt lat="48.68548" lon="2.06169">
        <ele>152</ele>
        <time>2026-03-29T15:07:45Z</time>
      </trkpt>
      <trkpt lat="48.68543" lon="2.06168">
        <ele>152.4</ele>
        <time>2026-03-29T15:07:46Z</time>
      </trkpt>
      <trkpt lat="48.68539" lon="2.06166">
        <ele>152.4</ele>
        <time>2026-03-29T15:07:47Z</time>
      </trkpt>
      <trkpt lat="48.68535" lon="2.06165">
        <ele>152.4</ele>
        <time>2026-03-29T15:07:48Z</time>
      </trkpt>
      <trkpt lat="48.68532" lon="2.06163">
        <ele>152.4</ele>
        <time>2026-03-29T15:07:49Z</time>
      </trkpt>
      <trkpt lat="48.68528" lon="2.06162">
        <ele>153</ele>
        <time>2026-03-29T15:07:50Z</time>
      </trkpt>
      <trkpt lat="48.68524" lon="2.0616">
        <ele>153</ele>
        <time>2026-03-29T15:07:51Z</time>
      </trkpt>
      <trkpt lat="48.6852" lon="2.06158">
        <ele>153</ele>
        <time>2026-03-29T15:07:52Z</time>
      </trkpt>
      <trkpt lat="48.68515" lon="2.06156">
        <ele>153</ele>
        <time>2026-03-29T15:07:53Z</time>
      </trkpt>
      <trkpt lat="48.68512" lon="2.06154">
        <ele>153</ele>
        <time>2026-03-29T15:07:54Z</time>
      </trkpt>
      <trkpt lat="48.68508" lon="2.06152">
        <ele>153</ele>
        <time>2026-03-29T15:07:55Z</time>
      </trkpt>
      <trkpt lat="48.68504" lon="2.0615">
        <ele>153</ele>
        <time>2026-03-29T15:07:56Z</time>
      </trkpt>
      <trkpt lat="48.685" lon="2.06148">
        <ele>153.6</ele>
        <time>2026-03-29T15:07:57Z</time>
      </trkpt>
      <trkpt lat="48.68495" lon="2.06146">
        <ele>153.6</ele>
        <time>2026-03-29T15:07:58Z</time>
      </trkpt>
      <trkpt lat="48.6849" lon="2.06143">
        <ele>153.6</ele>
        <time>2026-03-29T15:07:59Z</time>
      </trkpt>
      <trkpt lat="48.68485" lon="2.0614">
        <ele>153.6</ele>
        <time>2026-03-29T15:08:00Z</time>
      </trkpt>
      <trkpt lat="48.68481" lon="2.06137">
        <ele>154</ele>
        <time>2026-03-29T15:08:01Z</time>
      </trkpt>
      <trkpt lat="48.68476" lon="2.06133">
        <ele>153.8</ele>
        <time>2026-03-29T15:08:02Z</time>
      </trkpt>
      <trkpt lat="48.68472" lon="2.06129">
        <ele>153.8</ele>
        <time>2026-03-29T15:08:03Z</time>
      </trkpt>
      <trkpt lat="48.68467" lon="2.06124">
        <ele>153.8</ele>
        <time>2026-03-29T15:08:04Z</time>
      </trkpt>
      <trkpt lat="48.68462" lon="2.0612">
        <ele>154</ele>
        <time>2026-03-29T15:08:05Z</time>
      </trkpt>
      <trkpt lat="48.68457" lon="2.06116">
        <ele>154.4</ele>
        <time>2026-03-29T15:08:06Z</time>
      </trkpt>
      <trkpt lat="48.68453" lon="2.06112">
        <ele>154.4</ele>
        <time>2026-03-29T15:08:07Z</time>
      </trkpt>
      <trkpt lat="48.68449" lon="2.06107">
        <ele>154.4</ele>
        <time>2026-03-29T15:08:08Z</time>
      </trkpt>
      <trkpt lat="48.68445" lon="2.06102">
        <ele>154.4</ele>
        <time>2026-03-29T15:08:09Z</time>
      </trkpt>
      <trkpt lat="48.68441" lon="2.06097">
        <ele>154.6</ele>
        <time>2026-03-29T15:08:10Z</time>
      </trkpt>
      <trkpt lat="48.68437" lon="2.06093">
        <ele>154.6</ele>
        <time>2026-03-29T15:08:11Z</time>
      </trkpt>
      <trkpt lat="48.68433" lon="2.06089">
        <ele>154.6</ele>
        <time>2026-03-29T15:08:12Z</time>
      </trkpt>
      <trkpt lat="48.6843" lon="2.06085">
        <ele>154.6</ele>
        <time>2026-03-29T15:08:13Z</time>
      </trkpt>
      <trkpt lat="48.68427" lon="2.06081">
        <ele>154.8</ele>
        <time>2026-03-29T15:08:14Z</time>
      </trkpt>
      <trkpt lat="48.68424" lon="2.06078">
        <ele>154.8</ele>
        <time>2026-03-29T15:08:15Z</time>
      </trkpt>
      <trkpt lat="48.68421" lon="2.06074">
        <ele>154.8</ele>
        <time>2026-03-29T15:08:16Z</time>
      </trkpt>
      <trkpt lat="48.68419" lon="2.06071">
        <ele>154.8</ele>
        <time>2026-03-29T15:08:17Z</time>
      </trkpt>
      <trkpt lat="48.68417" lon="2.06069">
        <ele>155</ele>
        <time>2026-03-29T15:08:18Z</time>
      </trkpt>
      <trkpt lat="48.68415" lon="2.06066">
        <ele>155</ele>
        <time>2026-03-29T15:08:19Z</time>
      </trkpt>
      <trkpt lat="48.68412" lon="2.06064">
        <ele>155</ele>
        <time>2026-03-29T15:08:20Z</time>
      </trkpt>
      <trkpt lat="48.68409" lon="2.0606">
        <ele>156</ele>
        <time>2026-03-29T15:08:21Z</time>
      </trkpt>
      <trkpt lat="48.68406" lon="2.06057">
        <ele>156.4</ele>
        <time>2026-03-29T15:08:22Z</time>
      </trkpt>
      <trkpt lat="48.68404" lon="2.06053">
        <ele>156.4</ele>
        <time>2026-03-29T15:08:23Z</time>
      </trkpt>
      <trkpt lat="48.68402" lon="2.06049">
        <ele>156.4</ele>
        <time>2026-03-29T15:08:24Z</time>
      </trkpt>
      <trkpt lat="48.684" lon="2.06044">
        <ele>156</ele>
        <time>2026-03-29T15:08:25Z</time>
      </trkpt>
      <trkpt lat="48.68398" lon="2.06039">
        <ele>156</ele>
        <time>2026-03-29T15:08:26Z</time>
      </trkpt>
      <trkpt lat="48.68395" lon="2.06036">
        <ele>156</ele>
        <time>2026-03-29T15:08:27Z</time>
      </trkpt>
      <trkpt lat="48.68392" lon="2.06033">
        <ele>156</ele>
        <time>2026-03-29T15:08:28Z</time>
      </trkpt>
      <trkpt lat="48.6839" lon="2.06029">
        <ele>156</ele>
        <time>2026-03-29T15:08:29Z</time>
      </trkpt>
      <trkpt lat="48.68387" lon="2.06026">
        <ele>156</ele>
        <time>2026-03-29T15:08:30Z</time>
      </trkpt>
      <trkpt lat="48.68386" lon="2.06022">
        <ele>156</ele>
        <time>2026-03-29T15:08:31Z</time>
      </trkpt>
      <trkpt lat="48.68383" lon="2.06018">
        <ele>156</ele>
        <time>2026-03-29T15:08:32Z</time>
      </trkpt>
      <trkpt lat="48.68381" lon="2.06014">
        <ele>156</ele>
        <time>2026-03-29T15:08:33Z</time>
      </trkpt>
      <trkpt lat="48.68378" lon="2.06009">
        <ele>156</ele>
        <time>2026-03-29T15:08:34Z</time>
      </trkpt>
      <trkpt lat="48.68376" lon="2.06005">
        <ele>156</ele>
        <time>2026-03-29T15:08:35Z</time>
      </trkpt>
      <trkpt lat="48.68373" lon="2.06">
        <ele>156</ele>
        <time>2026-03-29T15:08:36Z</time>
      </trkpt>
      <trkpt lat="48.68371" lon="2.05995">
        <ele>156.4</ele>
        <time>2026-03-29T15:08:37Z</time>
      </trkpt>
      <trkpt lat="48.68368" lon="2.0599">
        <ele>156.4</ele>
        <time>2026-03-29T15:08:38Z</time>
      </trkpt>
      <trkpt lat="48.68366" lon="2.05986">
        <ele>156.4</ele>
        <time>2026-03-29T15:08:39Z</time>
      </trkpt>
      <trkpt lat="48.68363" lon="2.05981">
        <ele>156.4</ele>
        <time>2026-03-29T15:08:40Z</time>
      </trkpt>
      <trkpt lat="48.68362" lon="2.05976">
        <ele>156.8</ele>
        <time>2026-03-29T15:08:41Z</time>
      </trkpt>
      <trkpt lat="48.6836" lon="2.0597">
        <ele>156.8</ele>
        <time>2026-03-29T15:08:42Z</time>
      </trkpt>
      <trkpt lat="48.68357" lon="2.05965">
        <ele>156.8</ele>
        <time>2026-03-29T15:08:43Z</time>
      </trkpt>
      <trkpt lat="48.68354" lon="2.05959">
        <ele>156.8</ele>
        <time>2026-03-29T15:08:44Z</time>
      </trkpt>
      <trkpt lat="48.68352" lon="2.05955">
        <ele>157</ele>
        <time>2026-03-29T15:08:45Z</time>
      </trkpt>
      <trkpt lat="48.68349" lon="2.05949">
        <ele>157.2</ele>
        <time>2026-03-29T15:08:46Z</time>
      </trkpt>
      <trkpt lat="48.68347" lon="2.05944">
        <ele>157.2</ele>
        <time>2026-03-29T15:08:47Z</time>
      </trkpt>
      <trkpt lat="48.68345" lon="2.05939">
        <ele>157.2</ele>
        <time>2026-03-29T15:08:48Z</time>
      </trkpt>
      <trkpt lat="48.68343" lon="2.05935">
        <ele>157.6</ele>
        <time>2026-03-29T15:08:49Z</time>
      </trkpt>
      <trkpt lat="48.68341" lon="2.0593">
        <ele>157.2</ele>
        <time>2026-03-29T15:08:50Z</time>
      </trkpt>
      <trkpt lat="48.68339" lon="2.05925">
        <ele>157.2</ele>
        <time>2026-03-29T15:08:51Z</time>
      </trkpt>
      <trkpt lat="48.68337" lon="2.0592">
        <ele>157.2</ele>
        <time>2026-03-29T15:08:52Z</time>
      </trkpt>
      <trkpt lat="48.68335" lon="2.05914">
        <ele>157.8</ele>
        <time>2026-03-29T15:08:53Z</time>
      </trkpt>
      <trkpt lat="48.68333" lon="2.05909">
        <ele>157.8</ele>
        <time>2026-03-29T15:08:54Z</time>
      </trkpt>
      <trkpt lat="48.68331" lon="2.05905">
        <ele>157.8</ele>
        <time>2026-03-29T15:08:55Z</time>
      </trkpt>
      <trkpt lat="48.6833" lon="2.05901">
        <ele>157.8</ele>
        <time>2026-03-29T15:08:56Z</time>
      </trkpt>
      <trkpt lat="48.68328" lon="2.05897">
        <ele>157.8</ele>
        <time>2026-03-29T15:08:57Z</time>
      </trkpt>
      <trkpt lat="48.68326" lon="2.05892">
        <ele>158.2</ele>
        <time>2026-03-29T15:08:58Z</time>
      </trkpt>
      <trkpt lat="48.68324" lon="2.05888">
        <ele>158.2</ele>
        <time>2026-03-29T15:08:59Z</time>
      </trkpt>
      <trkpt lat="48.68322" lon="2.05883">
        <ele>158.2</ele>
        <time>2026-03-29T15:09:00Z</time>
      </trkpt>
      <trkpt lat="48.6832" lon="2.05879">
        <ele>158.2</ele>
        <time>2026-03-29T15:09:01Z</time>
      </trkpt>
      <trkpt lat="48.68318" lon="2.05873">
        <ele>158</ele>
        <time>2026-03-29T15:09:02Z</time>
      </trkpt>
      <trkpt lat="48.68316" lon="2.05868">
        <ele>158</ele>
        <time>2026-03-29T15:09:03Z</time>
      </trkpt>
      <trkpt lat="48.68314" lon="2.05863">
        <ele>158</ele>
        <time>2026-03-29T15:09:04Z</time>
      </trkpt>
      <trkpt lat="48.68312" lon="2.05858">
        <ele>158</ele>
        <time>2026-03-29T15:09:05Z</time>
      </trkpt>
      <trkpt lat="48.6831" lon="2.05853">
        <ele>158.4</ele>
        <time>2026-03-29T15:09:06Z</time>
      </trkpt>
      <trkpt lat="48.68308" lon="2.05848">
        <ele>158.4</ele>
        <time>2026-03-29T15:09:07Z</time>
      </trkpt>
      <trkpt lat="48.68305" lon="2.05843">
        <ele>158.4</ele>
        <time>2026-03-29T15:09:08Z</time>
      </trkpt>
      <trkpt lat="48.68303" lon="2.05838">
        <ele>159</ele>
        <time>2026-03-29T15:09:09Z</time>
      </trkpt>
      <trkpt lat="48.68301" lon="2.05834">
        <ele>159.2</ele>
        <time>2026-03-29T15:09:10Z</time>
      </trkpt>
      <trkpt lat="48.68299" lon="2.05829">
        <ele>159.2</ele>
        <time>2026-03-29T15:09:11Z</time>
      </trkpt>
      <trkpt lat="48.68297" lon="2.05824">
        <ele>159.2</ele>
        <time>2026-03-29T15:09:12Z</time>
      </trkpt>
      <trkpt lat="48.68295" lon="2.05819">
        <ele>159.2</ele>
        <time>2026-03-29T15:09:13Z</time>
      </trkpt>
      <trkpt lat="48.68293" lon="2.05814">
        <ele>159.6</ele>
        <time>2026-03-29T15:09:14Z</time>
      </trkpt>
      <trkpt lat="48.68292" lon="2.05809">
        <ele>159.6</ele>
        <time>2026-03-29T15:09:15Z</time>
      </trkpt>
      <trkpt lat="48.6829" lon="2.05804">
        <ele>159.6</ele>
        <time>2026-03-29T15:09:16Z</time>
      </trkpt>
      <trkpt lat="48.68288" lon="2.05799">
        <ele>159.6</ele>
        <time>2026-03-29T15:09:17Z</time>
      </trkpt>
      <trkpt lat="48.68286" lon="2.05794">
        <ele>159.8</ele>
        <time>2026-03-29T15:09:18Z</time>
      </trkpt>
      <trkpt lat="48.68283" lon="2.05789">
        <ele>159.8</ele>
        <time>2026-03-29T15:09:19Z</time>
      </trkpt>
      <trkpt lat="48.68282" lon="2.05783">
        <ele>159.8</ele>
        <time>2026-03-29T15:09:20Z</time>
      </trkpt>
      <trkpt lat="48.68279" lon="2.05779">
        <ele>159.8</ele>
        <time>2026-03-29T15:09:21Z</time>
      </trkpt>
      <trkpt lat="48.68277" lon="2.05775">
        <ele>160.2</ele>
        <time>2026-03-29T15:09:22Z</time>
      </trkpt>
      <trkpt lat="48.68276" lon="2.0577">
        <ele>160.2</ele>
        <time>2026-03-29T15:09:23Z</time>
      </trkpt>
      <trkpt lat="48.68274" lon="2.05766">
        <ele>160.2</ele>
        <time>2026-03-29T15:09:24Z</time>
      </trkpt>
      <trkpt lat="48.68272" lon="2.05761">
        <ele>160.2</ele>
        <time>2026-03-29T15:09:25Z</time>
      </trkpt>
      <trkpt lat="48.6827" lon="2.05756">
        <ele>160.4</ele>
        <time>2026-03-29T15:09:26Z</time>
      </trkpt>
      <trkpt lat="48.68268" lon="2.05751">
        <ele>160.4</ele>
        <time>2026-03-29T15:09:27Z</time>
      </trkpt>
      <trkpt lat="48.68266" lon="2.05747">
        <ele>160.4</ele>
        <time>2026-03-29T15:09:28Z</time>
      </trkpt>
      <trkpt lat="48.68264" lon="2.05742">
        <ele>160.4</ele>
        <time>2026-03-29T15:09:29Z</time>
      </trkpt>
      <trkpt lat="48.68262" lon="2.05737">
        <ele>160.6</ele>
        <time>2026-03-29T15:09:30Z</time>
      </trkpt>
      <trkpt lat="48.68261" lon="2.05734">
        <ele>160.6</ele>
        <time>2026-03-29T15:09:31Z</time>
      </trkpt>
      <trkpt lat="48.68259" lon="2.05728">
        <ele>160.6</ele>
        <time>2026-03-29T15:09:32Z</time>
      </trkpt>
      <trkpt lat="48.68257" lon="2.05724">
        <ele>161.2</ele>
        <time>2026-03-29T15:09:33Z</time>
      </trkpt>
      <trkpt lat="48.68256" lon="2.05719">
        <ele>161</ele>
        <time>2026-03-29T15:09:34Z</time>
      </trkpt>
      <trkpt lat="48.68255" lon="2.05716">
        <ele>161</ele>
        <time>2026-03-29T15:09:35Z</time>
      </trkpt>
      <trkpt lat="48.68253" lon="2.05712">
        <ele>161</ele>
        <time>2026-03-29T15:09:36Z</time>
      </trkpt>
      <trkpt lat="48.68252" lon="2.05708">
        <ele>161.4</ele>
        <time>2026-03-29T15:09:37Z</time>
      </trkpt>
      <trkpt lat="48.6825" lon="2.05704">
        <ele>161.6</ele>
        <time>2026-03-29T15:09:38Z</time>
      </trkpt>
      <trkpt lat="48.68248" lon="2.05699">
        <ele>161.6</ele>
        <time>2026-03-29T15:09:39Z</time>
      </trkpt>
      <trkpt lat="48.68246" lon="2.05695">
        <ele>161.6</ele>
        <time>2026-03-29T15:09:40Z</time>
      </trkpt>
      <trkpt lat="48.68244" lon="2.05691">
        <ele>162</ele>
        <time>2026-03-29T15:09:41Z</time>
      </trkpt>
      <trkpt lat="48.68242" lon="2.05687">
        <ele>162</ele>
        <time>2026-03-29T15:09:42Z</time>
      </trkpt>
      <trkpt lat="48.6824" lon="2.05684">
        <ele>162</ele>
        <time>2026-03-29T15:09:43Z</time>
      </trkpt>
      <trkpt lat="48.68237" lon="2.0568">
        <ele>162</ele>
        <time>2026-03-29T15:09:44Z</time>
      </trkpt>
      <trkpt lat="48.68236" lon="2.05677">
        <ele>162</ele>
        <time>2026-03-29T15:09:45Z</time>
      </trkpt>
      <trkpt lat="48.68234" lon="2.05673">
        <ele>162.2</ele>
        <time>2026-03-29T15:09:46Z</time>
      </trkpt>
      <trkpt lat="48.68231" lon="2.05668">
        <ele>162.2</ele>
        <time>2026-03-29T15:09:47Z</time>
      </trkpt>
      <trkpt lat="48.68228" lon="2.05663">
        <ele>162.2</ele>
        <time>2026-03-29T15:09:48Z</time>
      </trkpt>
      <trkpt lat="48.68225" lon="2.05659">
        <ele>162.4</ele>
        <time>2026-03-29T15:09:49Z</time>
      </trkpt>
      <trkpt lat="48.68223" lon="2.05655">
        <ele>162.6</ele>
        <time>2026-03-29T15:09:50Z</time>
      </trkpt>
      <trkpt lat="48.68221" lon="2.0565">
        <ele>162.6</ele>
        <time>2026-03-29T15:09:51Z</time>
      </trkpt>
      <trkpt lat="48.68219" lon="2.05646">
        <ele>162.6</ele>
        <time>2026-03-29T15:09:52Z</time>
      </trkpt>
      <trkpt lat="48.68217" lon="2.05642">
        <ele>162.6</ele>
        <time>2026-03-29T15:09:53Z</time>
      </trkpt>
      <trkpt lat="48.68214" lon="2.05638">
        <ele>163</ele>
        <time>2026-03-29T15:09:54Z</time>
      </trkpt>
      <trkpt lat="48.68212" lon="2.05635">
        <ele>163</ele>
        <time>2026-03-29T15:09:55Z</time>
      </trkpt>
      <trkpt lat="48.6821" lon="2.05631">
        <ele>163</ele>
        <time>2026-03-29T15:09:56Z</time>
      </trkpt>
      <trkpt lat="48.68209" lon="2.05629">
        <ele>163</ele>
        <time>2026-03-29T15:09:57Z</time>
      </trkpt>
      <trkpt lat="48.68206" lon="2.05624">
        <ele>163</ele>
        <time>2026-03-29T15:09:58Z</time>
      </trkpt>
      <trkpt lat="48.68204" lon="2.0562">
        <ele>163</ele>
        <time>2026-03-29T15:09:59Z</time>
      </trkpt>
      <trkpt lat="48.68203" lon="2.05617">
        <ele>163</ele>
        <time>2026-03-29T15:10:00Z</time>
      </trkpt>
      <trkpt lat="48.682" lon="2.05612">
        <ele>163.6</ele>
        <time>2026-03-29T15:10:01Z</time>
      </trkpt>
      <trkpt lat="48.68198" lon="2.05609">
        <ele>163.4</ele>
        <time>2026-03-29T15:10:02Z</time>
      </trkpt>
      <trkpt lat="48.68195" lon="2.05605">
        <ele>163.4</ele>
        <time>2026-03-29T15:10:03Z</time>
      </trkpt>
      <trkpt lat="48.68192" lon="2.05602">
        <ele>163.4</ele>
        <time>2026-03-29T15:10:04Z</time>
      </trkpt>
      <trkpt lat="48.6819" lon="2.05597">
        <ele>164.2</ele>
        <time>2026-03-29T15:10:05Z</time>
      </trkpt>
      <trkpt lat="48.68187" lon="2.05592">
        <ele>164</ele>
        <time>2026-03-29T15:10:06Z</time>
      </trkpt>
      <trkpt lat="48.68184" lon="2.05588">
        <ele>164</ele>
        <time>2026-03-29T15:10:07Z</time>
      </trkpt>
      <trkpt lat="48.68181" lon="2.05584">
        <ele>164</ele>
        <time>2026-03-29T15:10:08Z</time>
      </trkpt>
      <trkpt lat="48.68178" lon="2.05581">
        <ele>164</ele>
        <time>2026-03-29T15:10:09Z</time>
      </trkpt>
      <trkpt lat="48.68176" lon="2.05575">
        <ele>164.4</ele>
        <time>2026-03-29T15:10:10Z</time>
      </trkpt>
      <trkpt lat="48.68173" lon="2.0557">
        <ele>164.4</ele>
        <time>2026-03-29T15:10:11Z</time>
      </trkpt>
      <trkpt lat="48.6817" lon="2.05566">
        <ele>164.4</ele>
        <time>2026-03-29T15:10:12Z</time>
      </trkpt>
      <trkpt lat="48.68167" lon="2.05564">
        <ele>164.4</ele>
        <time>2026-03-29T15:10:13Z</time>
      </trkpt>
      <trkpt lat="48.68164" lon="2.0556">
        <ele>164.8</ele>
        <time>2026-03-29T15:10:14Z</time>
      </trkpt>
      <trkpt lat="48.68162" lon="2.05558">
        <ele>164.8</ele>
        <time>2026-03-29T15:10:15Z</time>
      </trkpt>
      <trkpt lat="48.6816" lon="2.05556">
        <ele>164.8</ele>
        <time>2026-03-29T15:10:16Z</time>
      </trkpt>
      <trkpt lat="48.68158" lon="2.05554">
        <ele>165</ele>
        <time>2026-03-29T15:10:17Z</time>
      </trkpt>
      <trkpt lat="48.68154" lon="2.0555">
        <ele>164.8</ele>
        <time>2026-03-29T15:10:18Z</time>
      </trkpt>
      <trkpt lat="48.6815" lon="2.05547">
        <ele>164.8</ele>
        <time>2026-03-29T15:10:19Z</time>
      </trkpt>
      <trkpt lat="48.68146" lon="2.05543">
        <ele>164.8</ele>
        <time>2026-03-29T15:10:20Z</time>
      </trkpt>
      <trkpt lat="48.68142" lon="2.05539">
        <ele>164.8</ele>
        <time>2026-03-29T15:10:21Z</time>
      </trkpt>
      <trkpt lat="48.68138" lon="2.05535">
        <ele>165.4</ele>
        <time>2026-03-29T15:10:22Z</time>
      </trkpt>
      <trkpt lat="48.68135" lon="2.05531">
        <ele>165.4</ele>
        <time>2026-03-29T15:10:23Z</time>
      </trkpt>
      <trkpt lat="48.6813" lon="2.05527">
        <ele>165.4</ele>
        <time>2026-03-29T15:10:24Z</time>
      </trkpt>
      <trkpt lat="48.68128" lon="2.05524">
        <ele>165.8</ele>
        <time>2026-03-29T15:10:25Z</time>
      </trkpt>
      <trkpt lat="48.68124" lon="2.0552">
        <ele>166</ele>
        <time>2026-03-29T15:10:26Z</time>
      </trkpt>
      <trkpt lat="48.68122" lon="2.05517">
        <ele>166</ele>
        <time>2026-03-29T15:10:27Z</time>
      </trkpt>
      <trkpt lat="48.68118" lon="2.05514">
        <ele>166</ele>
        <time>2026-03-29T15:10:28Z</time>
      </trkpt>
      <trkpt lat="48.68115" lon="2.05512">
        <ele>165.8</ele>
        <time>2026-03-29T15:10:29Z</time>
      </trkpt>
      <trkpt lat="48.68112" lon="2.0551">
        <ele>166.6</ele>
        <time>2026-03-29T15:10:30Z</time>
      </trkpt>
      <trkpt lat="48.68108" lon="2.05507">
        <ele>166.6</ele>
        <time>2026-03-29T15:10:31Z</time>
      </trkpt>
      <trkpt lat="48.68104" lon="2.05505">
        <ele>166.6</ele>
        <time>2026-03-29T15:10:32Z</time>
      </trkpt>
      <trkpt lat="48.68101" lon="2.05503">
        <ele>166.6</ele>
        <time>2026-03-29T15:10:33Z</time>
      </trkpt>
      <trkpt lat="48.68097" lon="2.05499">
        <ele>166.2</ele>
        <time>2026-03-29T15:10:34Z</time>
      </trkpt>
      <trkpt lat="48.68093" lon="2.05496">
        <ele>166.2</ele>
        <time>2026-03-29T15:10:35Z</time>
      </trkpt>
      <trkpt lat="48.68089" lon="2.05493">
        <ele>166.2</ele>
        <time>2026-03-29T15:10:36Z</time>
      </trkpt>
      <trkpt lat="48.68086" lon="2.0549">
        <ele>166.4</ele>
        <time>2026-03-29T15:10:37Z</time>
      </trkpt>
      <trkpt lat="48.68082" lon="2.05487">
        <ele>166.6</ele>
        <time>2026-03-29T15:10:38Z</time>
      </trkpt>
      <trkpt lat="48.68078" lon="2.05483">
        <ele>166.6</ele>
        <time>2026-03-29T15:10:39Z</time>
      </trkpt>
      <trkpt lat="48.68075" lon="2.0548">
        <ele>166.6</ele>
        <time>2026-03-29T15:10:40Z</time>
      </trkpt>
      <trkpt lat="48.68072" lon="2.05478">
        <ele>166.6</ele>
        <time>2026-03-29T15:10:41Z</time>
      </trkpt>
      <trkpt lat="48.68069" lon="2.05475">
        <ele>166.4</ele>
        <time>2026-03-29T15:10:42Z</time>
      </trkpt>
      <trkpt lat="48.68064" lon="2.05472">
        <ele>166.4</ele>
        <time>2026-03-29T15:10:43Z</time>
      </trkpt>
      <trkpt lat="48.6806" lon="2.05469">
        <ele>166.4</ele>
        <time>2026-03-29T15:10:44Z</time>
      </trkpt>
      <trkpt lat="48.68056" lon="2.05466">
        <ele>167.4</ele>
        <time>2026-03-29T15:10:45Z</time>
      </trkpt>
      <trkpt lat="48.68053" lon="2.05463">
        <ele>167</ele>
        <time>2026-03-29T15:10:46Z</time>
      </trkpt>
      <trkpt lat="48.68049" lon="2.0546">
        <ele>167</ele>
        <time>2026-03-29T15:10:47Z</time>
      </trkpt>
      <trkpt lat="48.68045" lon="2.05456">
        <ele>167</ele>
        <time>2026-03-29T15:10:48Z</time>
      </trkpt>
      <trkpt lat="48.68042" lon="2.05454">
        <ele>167.2</ele>
        <time>2026-03-29T15:10:49Z</time>
      </trkpt>
      <trkpt lat="48.68038" lon="2.05451">
        <ele>167.4</ele>
        <time>2026-03-29T15:10:50Z</time>
      </trkpt>
      <trkpt lat="48.68034" lon="2.05448">
        <ele>167.4</ele>
        <time>2026-03-29T15:10:51Z</time>
      </trkpt>
      <trkpt lat="48.6803" lon="2.05445">
        <ele>167.4</ele>
        <time>2026-03-29T15:10:52Z</time>
      </trkpt>
      <trkpt lat="48.68027" lon="2.05442">
        <ele>167.8</ele>
        <time>2026-03-29T15:10:53Z</time>
      </trkpt>
      <trkpt lat="48.68022" lon="2.05439">
        <ele>167.6</ele>
        <time>2026-03-29T15:10:54Z</time>
      </trkpt>
      <trkpt lat="48.68018" lon="2.05436">
        <ele>167.6</ele>
        <time>2026-03-29T15:10:55Z</time>
      </trkpt>
      <trkpt lat="48.68015" lon="2.05431">
        <ele>167.6</ele>
        <time>2026-03-29T15:10:56Z</time>
      </trkpt>
      <trkpt lat="48.68011" lon="2.05428">
        <ele>168</ele>
        <time>2026-03-29T15:10:57Z</time>
      </trkpt>
      <trkpt lat="48.68007" lon="2.05425">
        <ele>168</ele>
        <time>2026-03-29T15:10:58Z</time>
      </trkpt>
      <trkpt lat="48.68003" lon="2.05422">
        <ele>168</ele>
        <time>2026-03-29T15:10:59Z</time>
      </trkpt>
      <trkpt lat="48.68" lon="2.0542">
        <ele>168</ele>
        <time>2026-03-29T15:11:00Z</time>
      </trkpt>
      <trkpt lat="48.67996" lon="2.05418">
        <ele>168.2</ele>
        <time>2026-03-29T15:11:01Z</time>
      </trkpt>
      <trkpt lat="48.67992" lon="2.05415">
        <ele>168.4</ele>
        <time>2026-03-29T15:11:02Z</time>
      </trkpt>
      <trkpt lat="48.67989" lon="2.05412">
        <ele>168.4</ele>
        <time>2026-03-29T15:11:03Z</time>
      </trkpt>
      <trkpt lat="48.67986" lon="2.0541">
        <ele>168.4</ele>
        <time>2026-03-29T15:11:04Z</time>
      </trkpt>
      <trkpt lat="48.67983" lon="2.05408">
        <ele>168.8</ele>
        <time>2026-03-29T15:11:05Z</time>
      </trkpt>
      <trkpt lat="48.6798" lon="2.05406">
        <ele>169.2</ele>
        <time>2026-03-29T15:11:06Z</time>
      </trkpt>
      <trkpt lat="48.67977" lon="2.05404">
        <ele>169.2</ele>
        <time>2026-03-29T15:11:07Z</time>
      </trkpt>
      <trkpt lat="48.67973" lon="2.05403">
        <ele>169.2</ele>
        <time>2026-03-29T15:11:08Z</time>
      </trkpt>
      <trkpt lat="48.6797" lon="2.05401">
        <ele>169.8</ele>
        <time>2026-03-29T15:11:09Z</time>
      </trkpt>
      <trkpt lat="48.67967" lon="2.05398">
        <ele>169.8</ele>
        <time>2026-03-29T15:11:10Z</time>
      </trkpt>
      <trkpt lat="48.67964" lon="2.05396">
        <ele>169.8</ele>
        <time>2026-03-29T15:11:11Z</time>
      </trkpt>
      <trkpt lat="48.67961" lon="2.05394">
        <ele>169.8</ele>
        <time>2026-03-29T15:11:12Z</time>
      </trkpt>
      <trkpt lat="48.67957" lon="2.05391">
        <ele>169.8</ele>
        <time>2026-03-29T15:11:13Z</time>
      </trkpt>
      <trkpt lat="48.67954" lon="2.05389">
        <ele>169.8</ele>
        <time>2026-03-29T15:11:14Z</time>
      </trkpt>
      <trkpt lat="48.6795" lon="2.05386">
        <ele>169.8</ele>
        <time>2026-03-29T15:11:15Z</time>
      </trkpt>
      <trkpt lat="48.67947" lon="2.05383">
        <ele>169.8</ele>
        <time>2026-03-29T15:11:16Z</time>
      </trkpt>
      <trkpt lat="48.67943" lon="2.05381">
        <ele>169.8</ele>
        <time>2026-03-29T15:11:17Z</time>
      </trkpt>
      <trkpt lat="48.67939" lon="2.05379">
        <ele>170</ele>
        <time>2026-03-29T15:11:18Z</time>
      </trkpt>
      <trkpt lat="48.67935" lon="2.05377">
        <ele>170</ele>
        <time>2026-03-29T15:11:19Z</time>
      </trkpt>
      <trkpt lat="48.67932" lon="2.05375">
        <ele>170</ele>
        <time>2026-03-29T15:11:20Z</time>
      </trkpt>
      <trkpt lat="48.67928" lon="2.05373">
        <ele>170.2</ele>
        <time>2026-03-29T15:11:21Z</time>
      </trkpt>
      <trkpt lat="48.67924" lon="2.05371">
        <ele>170.4</ele>
        <time>2026-03-29T15:11:22Z</time>
      </trkpt>
      <trkpt lat="48.67921" lon="2.05369">
        <ele>170.4</ele>
        <time>2026-03-29T15:11:23Z</time>
      </trkpt>
      <trkpt lat="48.67917" lon="2.05366">
        <ele>170.4</ele>
        <time>2026-03-29T15:11:24Z</time>
      </trkpt>
      <trkpt lat="48.67914" lon="2.05364">
        <ele>170.4</ele>
        <time>2026-03-29T15:11:25Z</time>
      </trkpt>
      <trkpt lat="48.6791" lon="2.05362">
        <ele>170.6</ele>
        <time>2026-03-29T15:11:26Z</time>
      </trkpt>
      <trkpt lat="48.67907" lon="2.05359">
        <ele>170.6</ele>
        <time>2026-03-29T15:11:27Z</time>
      </trkpt>
      <trkpt lat="48.67903" lon="2.05356">
        <ele>170.6</ele>
        <time>2026-03-29T15:11:28Z</time>
      </trkpt>
      <trkpt lat="48.679" lon="2.05354">
        <ele>171.2</ele>
        <time>2026-03-29T15:11:29Z</time>
      </trkpt>
      <trkpt lat="48.67896" lon="2.05351">
        <ele>171.4</ele>
        <time>2026-03-29T15:11:30Z</time>
      </trkpt>
      <trkpt lat="48.67893" lon="2.05349">
        <ele>171.4</ele>
        <time>2026-03-29T15:11:31Z</time>
      </trkpt>
      <trkpt lat="48.67889" lon="2.05346">
        <ele>171.4</ele>
        <time>2026-03-29T15:11:32Z</time>
      </trkpt>
      <trkpt lat="48.67886" lon="2.05344">
        <ele>171.4</ele>
        <time>2026-03-29T15:11:33Z</time>
      </trkpt>
      <trkpt lat="48.67882" lon="2.05341">
        <ele>171.8</ele>
        <time>2026-03-29T15:11:34Z</time>
      </trkpt>
      <trkpt lat="48.67879" lon="2.05338">
        <ele>171.8</ele>
        <time>2026-03-29T15:11:35Z</time>
      </trkpt>
      <trkpt lat="48.67875" lon="2.05335">
        <ele>171.8</ele>
        <time>2026-03-29T15:11:36Z</time>
      </trkpt>
      <trkpt lat="48.67871" lon="2.05331">
        <ele>171.8</ele>
        <time>2026-03-29T15:11:37Z</time>
      </trkpt>
      <trkpt lat="48.67867" lon="2.05328">
        <ele>172</ele>
        <time>2026-03-29T15:11:38Z</time>
      </trkpt>
      <trkpt lat="48.67864" lon="2.05325">
        <ele>172</ele>
        <time>2026-03-29T15:11:39Z</time>
      </trkpt>
      <trkpt lat="48.6786" lon="2.05322">
        <ele>172</ele>
        <time>2026-03-29T15:11:40Z</time>
      </trkpt>
      <trkpt lat="48.67856" lon="2.0532">
        <ele>172.4</ele>
        <time>2026-03-29T15:11:41Z</time>
      </trkpt>
      <trkpt lat="48.67853" lon="2.05316">
        <ele>172.6</ele>
        <time>2026-03-29T15:11:42Z</time>
      </trkpt>
      <trkpt lat="48.67849" lon="2.05314">
        <ele>172.6</ele>
        <time>2026-03-29T15:11:43Z</time>
      </trkpt>
      <trkpt lat="48.67846" lon="2.0531">
        <ele>172.6</ele>
        <time>2026-03-29T15:11:44Z</time>
      </trkpt>
      <trkpt lat="48.67843" lon="2.05307">
        <ele>172.6</ele>
        <time>2026-03-29T15:11:45Z</time>
      </trkpt>
      <trkpt lat="48.67839" lon="2.05304">
        <ele>173</ele>
        <time>2026-03-29T15:11:46Z</time>
      </trkpt>
      <trkpt lat="48.67836" lon="2.05302">
        <ele>173</ele>
        <time>2026-03-29T15:11:47Z</time>
      </trkpt>
      <trkpt lat="48.67832" lon="2.05298">
        <ele>173</ele>
        <time>2026-03-29T15:11:48Z</time>
      </trkpt>
      <trkpt lat="48.67828" lon="2.05294">
        <ele>173</ele>
        <time>2026-03-29T15:11:49Z</time>
      </trkpt>
      <trkpt lat="48.67823" lon="2.05291">
        <ele>173</ele>
        <time>2026-03-29T15:11:50Z</time>
      </trkpt>
      <trkpt lat="48.67819" lon="2.05289">
        <ele>173</ele>
        <time>2026-03-29T15:11:51Z</time>
      </trkpt>
      <trkpt lat="48.67815" lon="2.05286">
        <ele>173</ele>
        <time>2026-03-29T15:11:52Z</time>
      </trkpt>
      <trkpt lat="48.67811" lon="2.05283">
        <ele>173.4</ele>
        <time>2026-03-29T15:11:53Z</time>
      </trkpt>
      <trkpt lat="48.67808" lon="2.0528">
        <ele>173.6</ele>
        <time>2026-03-29T15:11:54Z</time>
      </trkpt>
      <trkpt lat="48.67804" lon="2.05277">
        <ele>173.6</ele>
        <time>2026-03-29T15:11:55Z</time>
      </trkpt>
      <trkpt lat="48.678" lon="2.05274">
        <ele>173.6</ele>
        <time>2026-03-29T15:11:56Z</time>
      </trkpt>
      <trkpt lat="48.67796" lon="2.05271">
        <ele>174</ele>
        <time>2026-03-29T15:11:57Z</time>
      </trkpt>
      <trkpt lat="48.67792" lon="2.05269">
        <ele>174.2</ele>
        <time>2026-03-29T15:11:58Z</time>
      </trkpt>
      <trkpt lat="48.67788" lon="2.05266">
        <ele>174.2</ele>
        <time>2026-03-29T15:11:59Z</time>
      </trkpt>
      <trkpt lat="48.67784" lon="2.05264">
        <ele>174.2</ele>
        <time>2026-03-29T15:12:00Z</time>
      </trkpt>
      <trkpt lat="48.6778" lon="2.05262">
        <ele>174.2</ele>
        <time>2026-03-29T15:12:01Z</time>
      </trkpt>
      <trkpt lat="48.67777" lon="2.0526">
        <ele>174.4</ele>
        <time>2026-03-29T15:12:02Z</time>
      </trkpt>
      <trkpt lat="48.67773" lon="2.05257">
        <ele>174.4</ele>
        <time>2026-03-29T15:12:03Z</time>
      </trkpt>
      <trkpt lat="48.67769" lon="2.05254">
        <ele>174.4</ele>
        <time>2026-03-29T15:12:04Z</time>
      </trkpt>
      <trkpt lat="48.67765" lon="2.05253">
        <ele>174.8</ele>
        <time>2026-03-29T15:12:05Z</time>
      </trkpt>
      <trkpt lat="48.67762" lon="2.05251">
        <ele>174.6</ele>
        <time>2026-03-29T15:12:06Z</time>
      </trkpt>
      <trkpt lat="48.67758" lon="2.05249">
        <ele>174.6</ele>
        <time>2026-03-29T15:12:07Z</time>
      </trkpt>
      <trkpt lat="48.67754" lon="2.05247">
        <ele>174.6</ele>
        <time>2026-03-29T15:12:08Z</time>
      </trkpt>
      <trkpt lat="48.67751" lon="2.05245">
        <ele>174.6</ele>
        <time>2026-03-29T15:12:09Z</time>
      </trkpt>
      <trkpt lat="48.67747" lon="2.05244">
        <ele>175.2</ele>
        <time>2026-03-29T15:12:10Z</time>
      </trkpt>
      <trkpt lat="48.67744" lon="2.05242">
        <ele>175.2</ele>
        <time>2026-03-29T15:12:11Z</time>
      </trkpt>
      <trkpt lat="48.6774" lon="2.05241">
        <ele>175.2</ele>
        <time>2026-03-29T15:12:12Z</time>
      </trkpt>
      <trkpt lat="48.67736" lon="2.05239">
        <ele>175.4</ele>
        <time>2026-03-29T15:12:13Z</time>
      </trkpt>
      <trkpt lat="48.67732" lon="2.05238">
        <ele>175.4</ele>
        <time>2026-03-29T15:12:14Z</time>
      </trkpt>
      <trkpt lat="48.67728" lon="2.05237">
        <ele>175.4</ele>
        <time>2026-03-29T15:12:15Z</time>
      </trkpt>
      <trkpt lat="48.67724" lon="2.05235">
        <ele>175.4</ele>
        <time>2026-03-29T15:12:16Z</time>
      </trkpt>
      <trkpt lat="48.6772" lon="2.05234">
        <ele>176</ele>
        <time>2026-03-29T15:12:17Z</time>
      </trkpt>
      <trkpt lat="48.67716" lon="2.05232">
        <ele>176.2</ele>
        <time>2026-03-29T15:12:18Z</time>
      </trkpt>
      <trkpt lat="48.67712" lon="2.0523">
        <ele>176.2</ele>
        <time>2026-03-29T15:12:19Z</time>
      </trkpt>
      <trkpt lat="48.67708" lon="2.05229">
        <ele>176.2</ele>
        <time>2026-03-29T15:12:20Z</time>
      </trkpt>
      <trkpt lat="48.67704" lon="2.05227">
        <ele>176.2</ele>
        <time>2026-03-29T15:12:21Z</time>
      </trkpt>
      <trkpt lat="48.677" lon="2.05226">
        <ele>175.8</ele>
        <time>2026-03-29T15:12:22Z</time>
      </trkpt>
      <trkpt lat="48.67698" lon="2.05225">
        <ele>175.8</ele>
        <time>2026-03-29T15:12:23Z</time>
      </trkpt>
      <trkpt lat="48.67694" lon="2.05223">
        <ele>175.8</ele>
        <time>2026-03-29T15:12:24Z</time>
      </trkpt>
      <trkpt lat="48.6769" lon="2.05222">
        <ele>176.4</ele>
        <time>2026-03-29T15:12:25Z</time>
      </trkpt>
      <trkpt lat="48.67686" lon="2.05222">
        <ele>176.2</ele>
        <time>2026-03-29T15:12:26Z</time>
      </trkpt>
      <trkpt lat="48.67682" lon="2.05221">
        <ele>176.2</ele>
        <time>2026-03-29T15:12:27Z</time>
      </trkpt>
      <trkpt lat="48.67678" lon="2.0522">
        <ele>176.2</ele>
        <time>2026-03-29T15:12:28Z</time>
      </trkpt>
      <trkpt lat="48.67674" lon="2.05219">
        <ele>176.6</ele>
        <time>2026-03-29T15:12:29Z</time>
      </trkpt>
      <trkpt lat="48.67671" lon="2.05219">
        <ele>177.2</ele>
        <time>2026-03-29T15:12:30Z</time>
      </trkpt>
      <trkpt lat="48.67666" lon="2.05219">
        <ele>177.2</ele>
        <time>2026-03-29T15:12:31Z</time>
      </trkpt>
      <trkpt lat="48.67663" lon="2.05219">
        <ele>177.2</ele>
        <time>2026-03-29T15:12:32Z</time>
      </trkpt>
      <trkpt lat="48.67659" lon="2.05218">
        <ele>177</ele>
        <time>2026-03-29T15:12:33Z</time>
      </trkpt>
      <trkpt lat="48.67655" lon="2.05218">
        <ele>177</ele>
        <time>2026-03-29T15:12:34Z</time>
      </trkpt>
      <trkpt lat="48.67652" lon="2.05218">
        <ele>177</ele>
        <time>2026-03-29T15:12:35Z</time>
      </trkpt>
      <trkpt lat="48.67648" lon="2.05218">
        <ele>177</ele>
        <time>2026-03-29T15:12:36Z</time>
      </trkpt>
      <trkpt lat="48.67644" lon="2.05218">
        <ele>177</ele>
        <time>2026-03-29T15:12:37Z</time>
      </trkpt>
      <trkpt lat="48.6764" lon="2.05218">
        <ele>177.4</ele>
        <time>2026-03-29T15:12:38Z</time>
      </trkpt>
      <trkpt lat="48.67637" lon="2.05218">
        <ele>177.4</ele>
        <time>2026-03-29T15:12:39Z</time>
      </trkpt>
      <trkpt lat="48.67633" lon="2.05219">
        <ele>177.4</ele>
        <time>2026-03-29T15:12:40Z</time>
      </trkpt>
      <trkpt lat="48.6763" lon="2.05219">
        <ele>177.6</ele>
        <time>2026-03-29T15:12:41Z</time>
      </trkpt>
      <trkpt lat="48.67626" lon="2.05219">
        <ele>177.8</ele>
        <time>2026-03-29T15:12:42Z</time>
      </trkpt>
      <trkpt lat="48.67622" lon="2.0522">
        <ele>177.8</ele>
        <time>2026-03-29T15:12:43Z</time>
      </trkpt>
      <trkpt lat="48.67619" lon="2.0522">
        <ele>177.8</ele>
        <time>2026-03-29T15:12:44Z</time>
      </trkpt>
      <trkpt lat="48.67615" lon="2.05221">
        <ele>178</ele>
        <time>2026-03-29T15:12:45Z</time>
      </trkpt>
      <trkpt lat="48.67611" lon="2.05222">
        <ele>178.2</ele>
        <time>2026-03-29T15:12:46Z</time>
      </trkpt>
      <trkpt lat="48.67607" lon="2.05222">
        <ele>178.2</ele>
        <time>2026-03-29T15:12:47Z</time>
      </trkpt>
      <trkpt lat="48.67603" lon="2.05223">
        <ele>178.2</ele>
        <time>2026-03-29T15:12:48Z</time>
      </trkpt>
      <trkpt lat="48.67599" lon="2.05224">
        <ele>178.2</ele>
        <time>2026-03-29T15:12:49Z</time>
      </trkpt>
      <trkpt lat="48.67595" lon="2.05225">
        <ele>178.4</ele>
        <time>2026-03-29T15:12:50Z</time>
      </trkpt>
      <trkpt lat="48.67592" lon="2.05226">
        <ele>178.4</ele>
        <time>2026-03-29T15:12:51Z</time>
      </trkpt>
      <trkpt lat="48.67588" lon="2.05227">
        <ele>178.4</ele>
        <time>2026-03-29T15:12:52Z</time>
      </trkpt>
      <trkpt lat="48.67585" lon="2.05228">
        <ele>178.4</ele>
        <time>2026-03-29T15:12:53Z</time>
      </trkpt>
      <trkpt lat="48.67581" lon="2.05229">
        <ele>178.6</ele>
        <time>2026-03-29T15:12:54Z</time>
      </trkpt>
      <trkpt lat="48.67577" lon="2.0523">
        <ele>178.6</ele>
        <time>2026-03-29T15:12:55Z</time>
      </trkpt>
      <trkpt lat="48.67573" lon="2.05232">
        <ele>178.6</ele>
        <time>2026-03-29T15:12:56Z</time>
      </trkpt>
      <trkpt lat="48.67569" lon="2.05233">
        <ele>179.4</ele>
        <time>2026-03-29T15:12:57Z</time>
      </trkpt>
      <trkpt lat="48.67565" lon="2.05235">
        <ele>179.4</ele>
        <time>2026-03-29T15:12:58Z</time>
      </trkpt>
      <trkpt lat="48.67561" lon="2.05237">
        <ele>179.4</ele>
        <time>2026-03-29T15:12:59Z</time>
      </trkpt>
      <trkpt lat="48.67557" lon="2.05238">
        <ele>179.4</ele>
        <time>2026-03-29T15:13:00Z</time>
      </trkpt>
      <trkpt lat="48.67553" lon="2.05239">
        <ele>179.4</ele>
        <time>2026-03-29T15:13:01Z</time>
      </trkpt>
      <trkpt lat="48.67549" lon="2.0524">
        <ele>179.4</ele>
        <time>2026-03-29T15:13:02Z</time>
      </trkpt>
      <trkpt lat="48.67545" lon="2.05242">
        <ele>179.4</ele>
        <time>2026-03-29T15:13:03Z</time>
      </trkpt>
      <trkpt lat="48.67541" lon="2.05244">
        <ele>179.4</ele>
        <time>2026-03-29T15:13:04Z</time>
      </trkpt>
      <trkpt lat="48.67537" lon="2.05245">
        <ele>179.8</ele>
        <time>2026-03-29T15:13:05Z</time>
      </trkpt>
      <trkpt lat="48.67533" lon="2.05247">
        <ele>179.8</ele>
        <time>2026-03-29T15:13:06Z</time>
      </trkpt>
      <trkpt lat="48.67529" lon="2.05249">
        <ele>179.8</ele>
        <time>2026-03-29T15:13:07Z</time>
      </trkpt>
      <trkpt lat="48.67526" lon="2.0525">
        <ele>179.8</ele>
        <time>2026-03-29T15:13:08Z</time>
      </trkpt>
      <trkpt lat="48.67522" lon="2.05251">
        <ele>180.2</ele>
        <time>2026-03-29T15:13:09Z</time>
      </trkpt>
      <trkpt lat="48.67519" lon="2.05252">
        <ele>180.4</ele>
        <time>2026-03-29T15:13:10Z</time>
      </trkpt>
      <trkpt lat="48.67515" lon="2.05254">
        <ele>180.4</ele>
        <time>2026-03-29T15:13:11Z</time>
      </trkpt>
      <trkpt lat="48.67512" lon="2.05255">
        <ele>180.4</ele>
        <time>2026-03-29T15:13:12Z</time>
      </trkpt>
      <trkpt lat="48.67508" lon="2.05257">
        <ele>180.4</ele>
        <time>2026-03-29T15:13:13Z</time>
      </trkpt>
      <trkpt lat="48.67505" lon="2.05259">
        <ele>180.6</ele>
        <time>2026-03-29T15:13:14Z</time>
      </trkpt>
      <trkpt lat="48.67501" lon="2.0526">
        <ele>180.6</ele>
        <time>2026-03-29T15:13:15Z</time>
      </trkpt>
      <trkpt lat="48.67498" lon="2.05262">
        <ele>180.6</ele>
        <time>2026-03-29T15:13:16Z</time>
      </trkpt>
      <trkpt lat="48.67494" lon="2.05263">
        <ele>181</ele>
        <time>2026-03-29T15:13:17Z</time>
      </trkpt>
      <trkpt lat="48.67491" lon="2.05264">
        <ele>181.2</ele>
        <time>2026-03-29T15:13:18Z</time>
      </trkpt>
      <trkpt lat="48.67488" lon="2.05266">
        <ele>181.2</ele>
        <time>2026-03-29T15:13:19Z</time>
      </trkpt>
      <trkpt lat="48.67484" lon="2.05267">
        <ele>181.2</ele>
        <time>2026-03-29T15:13:20Z</time>
      </trkpt>
      <trkpt lat="48.6748" lon="2.05269">
        <ele>181.6</ele>
        <time>2026-03-29T15:13:21Z</time>
      </trkpt>
      <trkpt lat="48.67476" lon="2.0527">
        <ele>182.2</ele>
        <time>2026-03-29T15:13:22Z</time>
      </trkpt>
      <trkpt lat="48.67473" lon="2.05272">
        <ele>182.2</ele>
        <time>2026-03-29T15:13:23Z</time>
      </trkpt>
      <trkpt lat="48.67469" lon="2.05274">
        <ele>182.2</ele>
        <time>2026-03-29T15:13:24Z</time>
      </trkpt>
      <trkpt lat="48.67466" lon="2.05276">
        <ele>182.2</ele>
        <time>2026-03-29T15:13:25Z</time>
      </trkpt>
      <trkpt lat="48.67462" lon="2.05278">
        <ele>182.4</ele>
        <time>2026-03-29T15:13:26Z</time>
      </trkpt>
      <trkpt lat="48.67458" lon="2.05279">
        <ele>182.4</ele>
        <time>2026-03-29T15:13:27Z</time>
      </trkpt>
      <trkpt lat="48.67454" lon="2.05282">
        <ele>182.4</ele>
        <time>2026-03-29T15:13:28Z</time>
      </trkpt>
      <trkpt lat="48.67451" lon="2.05284">
        <ele>182.4</ele>
        <time>2026-03-29T15:13:29Z</time>
      </trkpt>
      <trkpt lat="48.67446" lon="2.05286">
        <ele>182.4</ele>
        <time>2026-03-29T15:13:30Z</time>
      </trkpt>
      <trkpt lat="48.67442" lon="2.05289">
        <ele>182.4</ele>
        <time>2026-03-29T15:13:31Z</time>
      </trkpt>
      <trkpt lat="48.67439" lon="2.05291">
        <ele>182.4</ele>
        <time>2026-03-29T15:13:32Z</time>
      </trkpt>
      <trkpt lat="48.67435" lon="2.05293">
        <ele>182.8</ele>
        <time>2026-03-29T15:13:33Z</time>
      </trkpt>
      <trkpt lat="48.67432" lon="2.05294">
        <ele>182.8</ele>
        <time>2026-03-29T15:13:34Z</time>
      </trkpt>
      <trkpt lat="48.67428" lon="2.05296">
        <ele>182.8</ele>
        <time>2026-03-29T15:13:35Z</time>
      </trkpt>
      <trkpt lat="48.67424" lon="2.05297">
        <ele>182.8</ele>
        <time>2026-03-29T15:13:36Z</time>
      </trkpt>
      <trkpt lat="48.6742" lon="2.05299">
        <ele>183.4</ele>
        <time>2026-03-29T15:13:37Z</time>
      </trkpt>
      <trkpt lat="48.67416" lon="2.05301">
        <ele>183.4</ele>
        <time>2026-03-29T15:13:38Z</time>
      </trkpt>
      <trkpt lat="48.67412" lon="2.05302">
        <ele>183.4</ele>
        <time>2026-03-29T15:13:39Z</time>
      </trkpt>
      <trkpt lat="48.67408" lon="2.05304">
        <ele>183.4</ele>
        <time>2026-03-29T15:13:40Z</time>
      </trkpt>
      <trkpt lat="48.67404" lon="2.05305">
        <ele>183.8</ele>
        <time>2026-03-29T15:13:41Z</time>
      </trkpt>
      <trkpt lat="48.67399" lon="2.05307">
        <ele>183.8</ele>
        <time>2026-03-29T15:13:42Z</time>
      </trkpt>
      <trkpt lat="48.67396" lon="2.05309">
        <ele>183.8</ele>
        <time>2026-03-29T15:13:43Z</time>
      </trkpt>
      <trkpt lat="48.67393" lon="2.05311">
        <ele>183.8</ele>
        <time>2026-03-29T15:13:44Z</time>
      </trkpt>
      <trkpt lat="48.67392" lon="2.05312">
        <ele>184</ele>
        <time>2026-03-29T15:13:45Z</time>
      </trkpt>
      <trkpt lat="48.67388" lon="2.05314">
        <ele>184.4</ele>
        <time>2026-03-29T15:13:46Z</time>
      </trkpt>
      <trkpt lat="48.67384" lon="2.05316">
        <ele>184.4</ele>
        <time>2026-03-29T15:13:47Z</time>
      </trkpt>
      <trkpt lat="48.67379" lon="2.05317">
        <ele>184.4</ele>
        <time>2026-03-29T15:13:48Z</time>
      </trkpt>
      <trkpt lat="48.67376" lon="2.05319">
        <ele>184.4</ele>
        <time>2026-03-29T15:13:49Z</time>
      </trkpt>
      <trkpt lat="48.67372" lon="2.0532">
        <ele>184.4</ele>
        <time>2026-03-29T15:13:50Z</time>
      </trkpt>
      <trkpt lat="48.67367" lon="2.05322">
        <ele>184.4</ele>
        <time>2026-03-29T15:13:51Z</time>
      </trkpt>
      <trkpt lat="48.67364" lon="2.05323">
        <ele>184.4</ele>
        <time>2026-03-29T15:13:52Z</time>
      </trkpt>
      <trkpt lat="48.6736" lon="2.05324">
        <ele>185</ele>
        <time>2026-03-29T15:13:53Z</time>
      </trkpt>
      <trkpt lat="48.67356" lon="2.05325">
        <ele>184.6</ele>
        <time>2026-03-29T15:13:54Z</time>
      </trkpt>
      <trkpt lat="48.67353" lon="2.05327">
        <ele>184.6</ele>
        <time>2026-03-29T15:13:55Z</time>
      </trkpt>
      <trkpt lat="48.67349" lon="2.05328">
        <ele>184.6</ele>
        <time>2026-03-29T15:13:56Z</time>
      </trkpt>
      <trkpt lat="48.67345" lon="2.0533">
        <ele>185</ele>
        <time>2026-03-29T15:13:57Z</time>
      </trkpt>
      <trkpt lat="48.67341" lon="2.05331">
        <ele>185.4</ele>
        <time>2026-03-29T15:13:58Z</time>
      </trkpt>
      <trkpt lat="48.67337" lon="2.05332">
        <ele>185.4</ele>
        <time>2026-03-29T15:13:59Z</time>
      </trkpt>
      <trkpt lat="48.67333" lon="2.05333">
        <ele>185.4</ele>
        <time>2026-03-29T15:14:00Z</time>
      </trkpt>
      <trkpt lat="48.67329" lon="2.05334">
        <ele>185.4</ele>
        <time>2026-03-29T15:14:01Z</time>
      </trkpt>
      <trkpt lat="48.67325" lon="2.05335">
        <ele>185.8</ele>
        <time>2026-03-29T15:14:02Z</time>
      </trkpt>
      <trkpt lat="48.6732" lon="2.05336">
        <ele>185.8</ele>
        <time>2026-03-29T15:14:03Z</time>
      </trkpt>
      <trkpt lat="48.67316" lon="2.05336">
        <ele>185.8</ele>
        <time>2026-03-29T15:14:04Z</time>
      </trkpt>
      <trkpt lat="48.67313" lon="2.05337">
        <ele>185.8</ele>
        <time>2026-03-29T15:14:05Z</time>
      </trkpt>
      <trkpt lat="48.67308" lon="2.05339">
        <ele>186</ele>
        <time>2026-03-29T15:14:06Z</time>
      </trkpt>
      <trkpt lat="48.67303" lon="2.05341">
        <ele>186</ele>
        <time>2026-03-29T15:14:07Z</time>
      </trkpt>
      <trkpt lat="48.67299" lon="2.05342">
        <ele>186</ele>
        <time>2026-03-29T15:14:08Z</time>
      </trkpt>
      <trkpt lat="48.67294" lon="2.05343">
        <ele>186</ele>
        <time>2026-03-29T15:14:09Z</time>
      </trkpt>
      <trkpt lat="48.6729" lon="2.05344">
        <ele>186.8</ele>
        <time>2026-03-29T15:14:10Z</time>
      </trkpt>
      <trkpt lat="48.67286" lon="2.05344">
        <ele>186.8</ele>
        <time>2026-03-29T15:14:11Z</time>
      </trkpt>
      <trkpt lat="48.67281" lon="2.05345">
        <ele>186.8</ele>
        <time>2026-03-29T15:14:12Z</time>
      </trkpt>
      <trkpt lat="48.67276" lon="2.05345">
        <ele>186.8</ele>
        <time>2026-03-29T15:14:13Z</time>
      </trkpt>
      <trkpt lat="48.67272" lon="2.05345">
        <ele>186.6</ele>
        <time>2026-03-29T15:14:14Z</time>
      </trkpt>
      <trkpt lat="48.67268" lon="2.05344">
        <ele>186.6</ele>
        <time>2026-03-29T15:14:15Z</time>
      </trkpt>
      <trkpt lat="48.67263" lon="2.05344">
        <ele>186.6</ele>
        <time>2026-03-29T15:14:16Z</time>
      </trkpt>
      <trkpt lat="48.67259" lon="2.05344">
        <ele>187.2</ele>
        <time>2026-03-29T15:14:17Z</time>
      </trkpt>
      <trkpt lat="48.67256" lon="2.05343">
        <ele>187.6</ele>
        <time>2026-03-29T15:14:18Z</time>
      </trkpt>
      <trkpt lat="48.67251" lon="2.05343">
        <ele>187.6</ele>
        <time>2026-03-29T15:14:19Z</time>
      </trkpt>
      <trkpt lat="48.67247" lon="2.05344">
        <ele>187.6</ele>
        <time>2026-03-29T15:14:20Z</time>
      </trkpt>
      <trkpt lat="48.67242" lon="2.05344">
        <ele>187.2</ele>
        <time>2026-03-29T15:14:21Z</time>
      </trkpt>
      <trkpt lat="48.67238" lon="2.05344">
        <ele>187.6</ele>
        <time>2026-03-29T15:14:22Z</time>
      </trkpt>
      <trkpt lat="48.67233" lon="2.05344">
        <ele>187.6</ele>
        <time>2026-03-29T15:14:23Z</time>
      </trkpt>
      <trkpt lat="48.67228" lon="2.05344">
        <ele>187.6</ele>
        <time>2026-03-29T15:14:24Z</time>
      </trkpt>
      <trkpt lat="48.67223" lon="2.05345">
        <ele>187.6</ele>
        <time>2026-03-29T15:14:25Z</time>
      </trkpt>
      <trkpt lat="48.67219" lon="2.05345">
        <ele>188</ele>
        <time>2026-03-29T15:14:26Z</time>
      </trkpt>
      <trkpt lat="48.67214" lon="2.05345">
        <ele>188</ele>
        <time>2026-03-29T15:14:27Z</time>
      </trkpt>
      <trkpt lat="48.67211" lon="2.05344">
        <ele>188</ele>
        <time>2026-03-29T15:14:28Z</time>
      </trkpt>
      <trkpt lat="48.67207" lon="2.05344">
        <ele>188.4</ele>
        <time>2026-03-29T15:14:29Z</time>
      </trkpt>
      <trkpt lat="48.67204" lon="2.05343">
        <ele>188</ele>
        <time>2026-03-29T15:14:30Z</time>
      </trkpt>
      <trkpt lat="48.672" lon="2.05342">
        <ele>188</ele>
        <time>2026-03-29T15:14:31Z</time>
      </trkpt>
      <trkpt lat="48.67196" lon="2.05341">
        <ele>188</ele>
        <time>2026-03-29T15:14:32Z</time>
      </trkpt>
      <trkpt lat="48.67191" lon="2.05341">
        <ele>188.6</ele>
        <time>2026-03-29T15:14:33Z</time>
      </trkpt>
      <trkpt lat="48.67188" lon="2.05339">
        <ele>188.6</ele>
        <time>2026-03-29T15:14:34Z</time>
      </trkpt>
      <trkpt lat="48.67183" lon="2.05339">
        <ele>188.6</ele>
        <time>2026-03-29T15:14:35Z</time>
      </trkpt>
      <trkpt lat="48.67179" lon="2.05338">
        <ele>188.6</ele>
        <time>2026-03-29T15:14:36Z</time>
      </trkpt>
      <trkpt lat="48.67177" lon="2.05338">
        <ele>189.2</ele>
        <time>2026-03-29T15:14:37Z</time>
      </trkpt>
      <trkpt lat="48.67173" lon="2.05337">
        <ele>189</ele>
        <time>2026-03-29T15:14:38Z</time>
      </trkpt>
      <trkpt lat="48.6717" lon="2.05336">
        <ele>189</ele>
        <time>2026-03-29T15:14:39Z</time>
      </trkpt>
      <trkpt lat="48.67166" lon="2.05336">
        <ele>189</ele>
        <time>2026-03-29T15:14:40Z</time>
      </trkpt>
      <trkpt lat="48.67162" lon="2.05335">
        <ele>189.4</ele>
        <time>2026-03-29T15:14:41Z</time>
      </trkpt>
      <trkpt lat="48.67158" lon="2.05334">
        <ele>189.4</ele>
        <time>2026-03-29T15:14:42Z</time>
      </trkpt>
      <trkpt lat="48.67154" lon="2.05333">
        <ele>189.4</ele>
        <time>2026-03-29T15:14:43Z</time>
      </trkpt>
      <trkpt lat="48.67149" lon="2.05332">
        <ele>189.4</ele>
        <time>2026-03-29T15:14:44Z</time>
      </trkpt>
      <trkpt lat="48.67145" lon="2.05331">
        <ele>189.4</ele>
        <time>2026-03-29T15:14:45Z</time>
      </trkpt>
      <trkpt lat="48.67141" lon="2.0533">
        <ele>190</ele>
        <time>2026-03-29T15:14:46Z</time>
      </trkpt>
      <trkpt lat="48.67136" lon="2.05328">
        <ele>190</ele>
        <time>2026-03-29T15:14:47Z</time>
      </trkpt>
      <trkpt lat="48.67131" lon="2.05327">
        <ele>190</ele>
        <time>2026-03-29T15:14:48Z</time>
      </trkpt>
      <trkpt lat="48.67126" lon="2.05326">
        <ele>190</ele>
        <time>2026-03-29T15:14:49Z</time>
      </trkpt>
      <trkpt lat="48.67122" lon="2.05324">
        <ele>190</ele>
        <time>2026-03-29T15:14:50Z</time>
      </trkpt>
      <trkpt lat="48.67117" lon="2.05323">
        <ele>190</ele>
        <time>2026-03-29T15:14:51Z</time>
      </trkpt>
      <trkpt lat="48.67113" lon="2.05321">
        <ele>190</ele>
        <time>2026-03-29T15:14:52Z</time>
      </trkpt>
      <trkpt lat="48.67109" lon="2.0532">
        <ele>190.8</ele>
        <time>2026-03-29T15:14:53Z</time>
      </trkpt>
      <trkpt lat="48.67105" lon="2.05318">
        <ele>190.6</ele>
        <time>2026-03-29T15:14:54Z</time>
      </trkpt>
      <trkpt lat="48.671" lon="2.05316">
        <ele>190.6</ele>
        <time>2026-03-29T15:14:55Z</time>
      </trkpt>
      <trkpt lat="48.67095" lon="2.05314">
        <ele>190.6</ele>
        <time>2026-03-29T15:14:56Z</time>
      </trkpt>
      <trkpt lat="48.6709" lon="2.05311">
        <ele>191</ele>
        <time>2026-03-29T15:14:57Z</time>
      </trkpt>
      <trkpt lat="48.67086" lon="2.05309">
        <ele>190.8</ele>
        <time>2026-03-29T15:14:58Z</time>
      </trkpt>
      <trkpt lat="48.67082" lon="2.05307">
        <ele>190.8</ele>
        <time>2026-03-29T15:14:59Z</time>
      </trkpt>
      <trkpt lat="48.67077" lon="2.05305">
        <ele>190.8</ele>
        <time>2026-03-29T15:15:00Z</time>
      </trkpt>
      <trkpt lat="48.67073" lon="2.05302">
        <ele>191.4</ele>
        <time>2026-03-29T15:15:01Z</time>
      </trkpt>
      <trkpt lat="48.67068" lon="2.05299">
        <ele>191.8</ele>
        <time>2026-03-29T15:15:02Z</time>
      </trkpt>
      <trkpt lat="48.67064" lon="2.05297">
        <ele>191.8</ele>
        <time>2026-03-29T15:15:03Z</time>
      </trkpt>
      <trkpt lat="48.6706" lon="2.05294">
        <ele>191.8</ele>
        <time>2026-03-29T15:15:04Z</time>
      </trkpt>
      <trkpt lat="48.67056" lon="2.05292">
        <ele>191.8</ele>
        <time>2026-03-29T15:15:05Z</time>
      </trkpt>
      <trkpt lat="48.67052" lon="2.05288">
        <ele>192</ele>
        <time>2026-03-29T15:15:06Z</time>
      </trkpt>
      <trkpt lat="48.67048" lon="2.05285">
        <ele>192</ele>
        <time>2026-03-29T15:15:07Z</time>
      </trkpt>
      <trkpt lat="48.67044" lon="2.05282">
        <ele>192</ele>
        <time>2026-03-29T15:15:08Z</time>
      </trkpt>
      <trkpt lat="48.6704" lon="2.0528">
        <ele>192</ele>
        <time>2026-03-29T15:15:09Z</time>
      </trkpt>
      <trkpt lat="48.67036" lon="2.05277">
        <ele>192.2</ele>
        <time>2026-03-29T15:15:10Z</time>
      </trkpt>
      <trkpt lat="48.67031" lon="2.05274">
        <ele>192.2</ele>
        <time>2026-03-29T15:15:11Z</time>
      </trkpt>
      <trkpt lat="48.67027" lon="2.05271">
        <ele>192.2</ele>
        <time>2026-03-29T15:15:12Z</time>
      </trkpt>
      <trkpt lat="48.67023" lon="2.05267">
        <ele>192.4</ele>
        <time>2026-03-29T15:15:13Z</time>
      </trkpt>
      <trkpt lat="48.67019" lon="2.05264">
        <ele>192.8</ele>
        <time>2026-03-29T15:15:14Z</time>
      </trkpt>
      <trkpt lat="48.67015" lon="2.05261">
        <ele>192.8</ele>
        <time>2026-03-29T15:15:15Z</time>
      </trkpt>
      <trkpt lat="48.67011" lon="2.05258">
        <ele>192.8</ele>
        <time>2026-03-29T15:15:16Z</time>
      </trkpt>
      <trkpt lat="48.67007" lon="2.05254">
        <ele>192.8</ele>
        <time>2026-03-29T15:15:17Z</time>
      </trkpt>
      <trkpt lat="48.67003" lon="2.05251">
        <ele>193.2</ele>
        <time>2026-03-29T15:15:18Z</time>
      </trkpt>
      <trkpt lat="48.66999" lon="2.05247">
        <ele>193.2</ele>
        <time>2026-03-29T15:15:19Z</time>
      </trkpt>
      <trkpt lat="48.66995" lon="2.05244">
        <ele>193.2</ele>
        <time>2026-03-29T15:15:20Z</time>
      </trkpt>
      <trkpt lat="48.66991" lon="2.0524">
        <ele>193</ele>
        <time>2026-03-29T15:15:21Z</time>
      </trkpt>
      <trkpt lat="48.66987" lon="2.05236">
        <ele>193</ele>
        <time>2026-03-29T15:15:22Z</time>
      </trkpt>
      <trkpt lat="48.66982" lon="2.05232">
        <ele>193</ele>
        <time>2026-03-29T15:15:23Z</time>
      </trkpt>
      <trkpt lat="48.66978" lon="2.05229">
        <ele>193</ele>
        <time>2026-03-29T15:15:24Z</time>
      </trkpt>
      <trkpt lat="48.66973" lon="2.05225">
        <ele>193.6</ele>
        <time>2026-03-29T15:15:25Z</time>
      </trkpt>
      <trkpt lat="48.66969" lon="2.05222">
        <ele>193.8</ele>
        <time>2026-03-29T15:15:26Z</time>
      </trkpt>
      <trkpt lat="48.66965" lon="2.05218">
        <ele>193.8</ele>
        <time>2026-03-29T15:15:27Z</time>
      </trkpt>
      <trkpt lat="48.66961" lon="2.05215">
        <ele>193.8</ele>
        <time>2026-03-29T15:15:28Z</time>
      </trkpt>
      <trkpt lat="48.66957" lon="2.05211">
        <ele>194.4</ele>
        <time>2026-03-29T15:15:29Z</time>
      </trkpt>
      <trkpt lat="48.66953" lon="2.05208">
        <ele>194.4</ele>
        <time>2026-03-29T15:15:30Z</time>
      </trkpt>
      <trkpt lat="48.66948" lon="2.05205">
        <ele>194.4</ele>
        <time>2026-03-29T15:15:31Z</time>
      </trkpt>
      <trkpt lat="48.66944" lon="2.05202">
        <ele>194.4</ele>
        <time>2026-03-29T15:15:32Z</time>
      </trkpt>
      <trkpt lat="48.6694" lon="2.05199">
        <ele>194.4</ele>
        <time>2026-03-29T15:15:33Z</time>
      </trkpt>
      <trkpt lat="48.66936" lon="2.05196">
        <ele>194.8</ele>
        <time>2026-03-29T15:15:34Z</time>
      </trkpt>
      <trkpt lat="48.66932" lon="2.05192">
        <ele>194.8</ele>
        <time>2026-03-29T15:15:35Z</time>
      </trkpt>
      <trkpt lat="48.66928" lon="2.05189">
        <ele>194.8</ele>
        <time>2026-03-29T15:15:36Z</time>
      </trkpt>
      <trkpt lat="48.66924" lon="2.05185">
        <ele>194.4</ele>
        <time>2026-03-29T15:15:37Z</time>
      </trkpt>
      <trkpt lat="48.6692" lon="2.05181">
        <ele>195.2</ele>
        <time>2026-03-29T15:15:38Z</time>
      </trkpt>
      <trkpt lat="48.66916" lon="2.05178">
        <ele>195.2</ele>
        <time>2026-03-29T15:15:39Z</time>
      </trkpt>
      <trkpt lat="48.66913" lon="2.05175">
        <ele>195.2</ele>
        <time>2026-03-29T15:15:40Z</time>
      </trkpt>
      <trkpt lat="48.66909" lon="2.05173">
        <ele>195.2</ele>
        <time>2026-03-29T15:15:41Z</time>
      </trkpt>
      <trkpt lat="48.66906" lon="2.05171">
        <ele>195.4</ele>
        <time>2026-03-29T15:15:42Z</time>
      </trkpt>
      <trkpt lat="48.66903" lon="2.05169">
        <ele>195.4</ele>
        <time>2026-03-29T15:15:43Z</time>
      </trkpt>
      <trkpt lat="48.66902" lon="2.05165">
        <ele>195.4</ele>
        <time>2026-03-29T15:15:44Z</time>
      </trkpt>
      <trkpt lat="48.66901" lon="2.05161">
        <ele>195.4</ele>
        <time>2026-03-29T15:15:45Z</time>
      </trkpt>
      <trkpt lat="48.66901" lon="2.05158">
        <ele>195.6</ele>
        <time>2026-03-29T15:15:46Z</time>
      </trkpt>
      <trkpt lat="48.66901" lon="2.05156">
        <ele>195.6</ele>
        <time>2026-03-29T15:15:47Z</time>
      </trkpt>
      <trkpt lat="48.66901" lon="2.05156">
        <ele>195.6</ele>
        <time>2026-03-29T15:15:48Z</time>
      </trkpt>
      <trkpt lat="48.66901" lon="2.05156">
        <ele>195.2</ele>
        <time>2026-03-29T15:15:49Z</time>
      </trkpt>
      <trkpt lat="48.66897" lon="2.05155">
        <ele>195.2</ele>
        <time>2026-03-29T15:15:55Z</time>
      </trkpt>
      <trkpt lat="48.66895" lon="2.05157">
        <ele>195.2</ele>
        <time>2026-03-29T15:15:56Z</time>
      </trkpt>
      <trkpt lat="48.66893" lon="2.0516">
        <ele>195.6</ele>
        <time>2026-03-29T15:15:57Z</time>
      </trkpt>
      <trkpt lat="48.66892" lon="2.05164">
        <ele>195.4</ele>
        <time>2026-03-29T15:15:58Z</time>
      </trkpt>
      <trkpt lat="48.6689" lon="2.05169">
        <ele>195.4</ele>
        <time>2026-03-29T15:15:59Z</time>
      </trkpt>
      <trkpt lat="48.66888" lon="2.05174">
        <ele>195.4</ele>
        <time>2026-03-29T15:16:00Z</time>
      </trkpt>
      <trkpt lat="48.66886" lon="2.05178">
        <ele>195.4</ele>
        <time>2026-03-29T15:16:01Z</time>
      </trkpt>
      <trkpt lat="48.66884" lon="2.05183">
        <ele>195.8</ele>
        <time>2026-03-29T15:16:02Z</time>
      </trkpt>
      <trkpt lat="48.66881" lon="2.05187">
        <ele>195.8</ele>
        <time>2026-03-29T15:16:03Z</time>
      </trkpt>
      <trkpt lat="48.66879" lon="2.05192">
        <ele>195.8</ele>
        <time>2026-03-29T15:16:04Z</time>
      </trkpt>
      <trkpt lat="48.66877" lon="2.05198">
        <ele>195.8</ele>
        <time>2026-03-29T15:16:05Z</time>
      </trkpt>
      <trkpt lat="48.66875" lon="2.05203">
        <ele>196</ele>
        <time>2026-03-29T15:16:06Z</time>
      </trkpt>
      <trkpt lat="48.66873" lon="2.05207">
        <ele>196</ele>
        <time>2026-03-29T15:16:07Z</time>
      </trkpt>
      <trkpt lat="48.66871" lon="2.05213">
        <ele>196</ele>
        <time>2026-03-29T15:16:08Z</time>
      </trkpt>
      <trkpt lat="48.66869" lon="2.05218">
        <ele>196</ele>
        <time>2026-03-29T15:16:09Z</time>
      </trkpt>
      <trkpt lat="48.66866" lon="2.05223">
        <ele>195.8</ele>
        <time>2026-03-29T15:16:10Z</time>
      </trkpt>
      <trkpt lat="48.66864" lon="2.05228">
        <ele>195.8</ele>
        <time>2026-03-29T15:16:11Z</time>
      </trkpt>
      <trkpt lat="48.66863" lon="2.05233">
        <ele>195.8</ele>
        <time>2026-03-29T15:16:12Z</time>
      </trkpt>
      <trkpt lat="48.66861" lon="2.05239">
        <ele>196.4</ele>
        <time>2026-03-29T15:16:13Z</time>
      </trkpt>
      <trkpt lat="48.6686" lon="2.05244">
        <ele>195.8</ele>
        <time>2026-03-29T15:16:14Z</time>
      </trkpt>
      <trkpt lat="48.66859" lon="2.05249">
        <ele>195.8</ele>
        <time>2026-03-29T15:16:15Z</time>
      </trkpt>
      <trkpt lat="48.66857" lon="2.05253">
        <ele>195.8</ele>
        <time>2026-03-29T15:16:16Z</time>
      </trkpt>
      <trkpt lat="48.66855" lon="2.05257">
        <ele>196.2</ele>
        <time>2026-03-29T15:16:17Z</time>
      </trkpt>
      <trkpt lat="48.66852" lon="2.0526">
        <ele>196.4</ele>
        <time>2026-03-29T15:16:18Z</time>
      </trkpt>
      <trkpt lat="48.66849" lon="2.0526">
        <ele>196.4</ele>
        <time>2026-03-29T15:16:19Z</time>
      </trkpt>
      <trkpt lat="48.66846" lon="2.05258">
        <ele>196.4</ele>
        <time>2026-03-29T15:16:20Z</time>
      </trkpt>
      <trkpt lat="48.66842" lon="2.05256">
        <ele>195.8</ele>
        <time>2026-03-29T15:16:21Z</time>
      </trkpt>
      <trkpt lat="48.66839" lon="2.05254">
        <ele>196.2</ele>
        <time>2026-03-29T15:16:22Z</time>
      </trkpt>
      <trkpt lat="48.66835" lon="2.05252">
        <ele>196.2</ele>
        <time>2026-03-29T15:16:23Z</time>
      </trkpt>
      <trkpt lat="48.6683" lon="2.0525">
        <ele>196.2</ele>
        <time>2026-03-29T15:16:24Z</time>
      </trkpt>
      <trkpt lat="48.66826" lon="2.05249">
        <ele>196.8</ele>
        <time>2026-03-29T15:16:25Z</time>
      </trkpt>
      <trkpt lat="48.66822" lon="2.05247">
        <ele>196.6</ele>
        <time>2026-03-29T15:16:26Z</time>
      </trkpt>
      <trkpt lat="48.66817" lon="2.05245">
        <ele>196.6</ele>
        <time>2026-03-29T15:16:27Z</time>
      </trkpt>
      <trkpt lat="48.66813" lon="2.05244">
        <ele>196.6</ele>
        <time>2026-03-29T15:16:28Z</time>
      </trkpt>
      <trkpt lat="48.66809" lon="2.05242">
        <ele>197.2</ele>
        <time>2026-03-29T15:16:29Z</time>
      </trkpt>
      <trkpt lat="48.66805" lon="2.05241">
        <ele>197</ele>
        <time>2026-03-29T15:16:30Z</time>
      </trkpt>
      <trkpt lat="48.66801" lon="2.05239">
        <ele>197</ele>
        <time>2026-03-29T15:16:31Z</time>
      </trkpt>
      <trkpt lat="48.66796" lon="2.05238">
        <ele>197</ele>
        <time>2026-03-29T15:16:32Z</time>
      </trkpt>
      <trkpt lat="48.66792" lon="2.05237">
        <ele>197.4</ele>
        <time>2026-03-29T15:16:33Z</time>
      </trkpt>
      <trkpt lat="48.66788" lon="2.05235">
        <ele>197.4</ele>
        <time>2026-03-29T15:16:34Z</time>
      </trkpt>
      <trkpt lat="48.66783" lon="2.05233">
        <ele>197.4</ele>
        <time>2026-03-29T15:16:35Z</time>
      </trkpt>
      <trkpt lat="48.66779" lon="2.05231">
        <ele>197.4</ele>
        <time>2026-03-29T15:16:36Z</time>
      </trkpt>
      <trkpt lat="48.66774" lon="2.0523">
        <ele>197.4</ele>
        <time>2026-03-29T15:16:37Z</time>
      </trkpt>
      <trkpt lat="48.66769" lon="2.05228">
        <ele>197.4</ele>
        <time>2026-03-29T15:16:38Z</time>
      </trkpt>
      <trkpt lat="48.66765" lon="2.05226">
        <ele>197.4</ele>
        <time>2026-03-29T15:16:39Z</time>
      </trkpt>
      <trkpt lat="48.6676" lon="2.05225">
        <ele>197.4</ele>
        <time>2026-03-29T15:16:40Z</time>
      </trkpt>
      <trkpt lat="48.66756" lon="2.05224">
        <ele>198.2</ele>
        <time>2026-03-29T15:16:41Z</time>
      </trkpt>
      <trkpt lat="48.66751" lon="2.05222">
        <ele>198.2</ele>
        <time>2026-03-29T15:16:42Z</time>
      </trkpt>
      <trkpt lat="48.66746" lon="2.0522">
        <ele>198.2</ele>
        <time>2026-03-29T15:16:43Z</time>
      </trkpt>
      <trkpt lat="48.66742" lon="2.05218">
        <ele>198.2</ele>
        <time>2026-03-29T15:16:44Z</time>
      </trkpt>
      <trkpt lat="48.66737" lon="2.05216">
        <ele>198.2</ele>
        <time>2026-03-29T15:16:45Z</time>
      </trkpt>
      <trkpt lat="48.66733" lon="2.05215">
        <ele>198.8</ele>
        <time>2026-03-29T15:16:46Z</time>
      </trkpt>
      <trkpt lat="48.66728" lon="2.05214">
        <ele>198.8</ele>
        <time>2026-03-29T15:16:47Z</time>
      </trkpt>
      <trkpt lat="48.66724" lon="2.05212">
        <ele>198.8</ele>
        <time>2026-03-29T15:16:48Z</time>
      </trkpt>
      <trkpt lat="48.66719" lon="2.05211">
        <ele>198.8</ele>
        <time>2026-03-29T15:16:49Z</time>
      </trkpt>
      <trkpt lat="48.66715" lon="2.05209">
        <ele>198.2</ele>
        <time>2026-03-29T15:16:50Z</time>
      </trkpt>
      <trkpt lat="48.6671" lon="2.05207">
        <ele>198.2</ele>
        <time>2026-03-29T15:16:51Z</time>
      </trkpt>
      <trkpt lat="48.66706" lon="2.05206">
        <ele>198.2</ele>
        <time>2026-03-29T15:16:52Z</time>
      </trkpt>
      <trkpt lat="48.66701" lon="2.05204">
        <ele>198.2</ele>
        <time>2026-03-29T15:16:53Z</time>
      </trkpt>
      <trkpt lat="48.66697" lon="2.05202">
        <ele>198.2</ele>
        <time>2026-03-29T15:16:54Z</time>
      </trkpt>
      <trkpt lat="48.66692" lon="2.05201">
        <ele>198.2</ele>
        <time>2026-03-29T15:16:55Z</time>
      </trkpt>
      <trkpt lat="48.66688" lon="2.05199">
        <ele>198.2</ele>
        <time>2026-03-29T15:16:56Z</time>
      </trkpt>
      <trkpt lat="48.66683" lon="2.05198">
        <ele>198.2</ele>
        <time>2026-03-29T15:16:57Z</time>
      </trkpt>
      <trkpt lat="48.66678" lon="2.05196">
        <ele>198.2</ele>
        <time>2026-03-29T15:16:58Z</time>
      </trkpt>
      <trkpt lat="48.66674" lon="2.05194">
        <ele>198.2</ele>
        <time>2026-03-29T15:16:59Z</time>
      </trkpt>
      <trkpt lat="48.66669" lon="2.05192">
        <ele>198.2</ele>
        <time>2026-03-29T15:17:00Z</time>
      </trkpt>
      <trkpt lat="48.66664" lon="2.0519">
        <ele>198.2</ele>
        <time>2026-03-29T15:17:01Z</time>
      </trkpt>
      <trkpt lat="48.6666" lon="2.05189">
        <ele>198.4</ele>
        <time>2026-03-29T15:17:02Z</time>
      </trkpt>
      <trkpt lat="48.66655" lon="2.05187">
        <ele>198.4</ele>
        <time>2026-03-29T15:17:03Z</time>
      </trkpt>
      <trkpt lat="48.6665" lon="2.05186">
        <ele>198.4</ele>
        <time>2026-03-29T15:17:04Z</time>
      </trkpt>
      <trkpt lat="48.66645" lon="2.05184">
        <ele>198.4</ele>
        <time>2026-03-29T15:17:05Z</time>
      </trkpt>
      <trkpt lat="48.6664" lon="2.05182">
        <ele>197.6</ele>
        <time>2026-03-29T15:17:06Z</time>
      </trkpt>
      <trkpt lat="48.66635" lon="2.0518">
        <ele>197.6</ele>
        <time>2026-03-29T15:17:07Z</time>
      </trkpt>
      <trkpt lat="48.6663" lon="2.05179">
        <ele>197.6</ele>
        <time>2026-03-29T15:17:08Z</time>
      </trkpt>
      <trkpt lat="48.66626" lon="2.05177">
        <ele>197.8</ele>
        <time>2026-03-29T15:17:09Z</time>
      </trkpt>
      <trkpt lat="48.66621" lon="2.05175">
        <ele>197.8</ele>
        <time>2026-03-29T15:17:10Z</time>
      </trkpt>
      <trkpt lat="48.66616" lon="2.05174">
        <ele>197.8</ele>
        <time>2026-03-29T15:17:11Z</time>
      </trkpt>
      <trkpt lat="48.66611" lon="2.05172">
        <ele>197.8</ele>
        <time>2026-03-29T15:17:12Z</time>
      </trkpt>
      <trkpt lat="48.66606" lon="2.0517">
        <ele>197.8</ele>
        <time>2026-03-29T15:17:13Z</time>
      </trkpt>
      <trkpt lat="48.66601" lon="2.05169">
        <ele>197.8</ele>
        <time>2026-03-29T15:17:14Z</time>
      </trkpt>
      <trkpt lat="48.66596" lon="2.05167">
        <ele>197.8</ele>
        <time>2026-03-29T15:17:15Z</time>
      </trkpt>
      <trkpt lat="48.66592" lon="2.05165">
        <ele>197.8</ele>
        <time>2026-03-29T15:17:16Z</time>
      </trkpt>
      <trkpt lat="48.66587" lon="2.05163">
        <ele>197.8</ele>
        <time>2026-03-29T15:17:17Z</time>
      </trkpt>
      <trkpt lat="48.66582" lon="2.05162">
        <ele>198.2</ele>
        <time>2026-03-29T15:17:18Z</time>
      </trkpt>
      <trkpt lat="48.66577" lon="2.0516">
        <ele>198.2</ele>
        <time>2026-03-29T15:17:19Z</time>
      </trkpt>
      <trkpt lat="48.66572" lon="2.05159">
        <ele>198.2</ele>
        <time>2026-03-29T15:17:20Z</time>
      </trkpt>
      <trkpt lat="48.66567" lon="2.05157">
        <ele>198.2</ele>
        <time>2026-03-29T15:17:21Z</time>
      </trkpt>
      <trkpt lat="48.66562" lon="2.05155">
        <ele>198.4</ele>
        <time>2026-03-29T15:17:22Z</time>
      </trkpt>
      <trkpt lat="48.66557" lon="2.05153">
        <ele>198.4</ele>
        <time>2026-03-29T15:17:23Z</time>
      </trkpt>
      <trkpt lat="48.66552" lon="2.05151">
        <ele>198.4</ele>
        <time>2026-03-29T15:17:24Z</time>
      </trkpt>
      <trkpt lat="48.66547" lon="2.05149">
        <ele>198.4</ele>
        <time>2026-03-29T15:17:25Z</time>
      </trkpt>
      <trkpt lat="48.66542" lon="2.05148">
        <ele>198.6</ele>
        <time>2026-03-29T15:17:26Z</time>
      </trkpt>
      <trkpt lat="48.66537" lon="2.05146">
        <ele>198.6</ele>
        <time>2026-03-29T15:17:27Z</time>
      </trkpt>
      <trkpt lat="48.66532" lon="2.05145">
        <ele>198.6</ele>
        <time>2026-03-29T15:17:28Z</time>
      </trkpt>
      <trkpt lat="48.66527" lon="2.05143">
        <ele>198.6</ele>
        <time>2026-03-29T15:17:29Z</time>
      </trkpt>
      <trkpt lat="48.66522" lon="2.05141">
        <ele>198.6</ele>
        <time>2026-03-29T15:17:30Z</time>
      </trkpt>
      <trkpt lat="48.66518" lon="2.05139">
        <ele>198.6</ele>
        <time>2026-03-29T15:17:31Z</time>
      </trkpt>
      <trkpt lat="48.66513" lon="2.05137">
        <ele>198.6</ele>
        <time>2026-03-29T15:17:32Z</time>
      </trkpt>
      <trkpt lat="48.66508" lon="2.05136">
        <ele>198.6</ele>
        <time>2026-03-29T15:17:33Z</time>
      </trkpt>
      <trkpt lat="48.66504" lon="2.05135">
        <ele>198.4</ele>
        <time>2026-03-29T15:17:34Z</time>
      </trkpt>
      <trkpt lat="48.66499" lon="2.05134">
        <ele>198.4</ele>
        <time>2026-03-29T15:17:35Z</time>
      </trkpt>
      <trkpt lat="48.66494" lon="2.05132">
        <ele>198.4</ele>
        <time>2026-03-29T15:17:36Z</time>
      </trkpt>
      <trkpt lat="48.6649" lon="2.05129">
        <ele>198.8</ele>
        <time>2026-03-29T15:17:37Z</time>
      </trkpt>
      <trkpt lat="48.66485" lon="2.05127">
        <ele>199</ele>
        <time>2026-03-29T15:17:38Z</time>
      </trkpt>
      <trkpt lat="48.6648" lon="2.05126">
        <ele>199</ele>
        <time>2026-03-29T15:17:39Z</time>
      </trkpt>
      <trkpt lat="48.66475" lon="2.05125">
        <ele>199</ele>
        <time>2026-03-29T15:17:40Z</time>
      </trkpt>
      <trkpt lat="48.6647" lon="2.05124">
        <ele>199</ele>
        <time>2026-03-29T15:17:41Z</time>
      </trkpt>
      <trkpt lat="48.66465" lon="2.05122">
        <ele>199</ele>
        <time>2026-03-29T15:17:42Z</time>
      </trkpt>
      <trkpt lat="48.66461" lon="2.0512">
        <ele>199</ele>
        <time>2026-03-29T15:17:43Z</time>
      </trkpt>
      <trkpt lat="48.66456" lon="2.05118">
        <ele>199</ele>
        <time>2026-03-29T15:17:44Z</time>
      </trkpt>
      <trkpt lat="48.66451" lon="2.05116">
        <ele>199</ele>
        <time>2026-03-29T15:17:45Z</time>
      </trkpt>
      <trkpt lat="48.66446" lon="2.05114">
        <ele>199.2</ele>
        <time>2026-03-29T15:17:46Z</time>
      </trkpt>
      <trkpt lat="48.66441" lon="2.05113">
        <ele>199.2</ele>
        <time>2026-03-29T15:17:47Z</time>
      </trkpt>
      <trkpt lat="48.66436" lon="2.05112">
        <ele>199.2</ele>
        <time>2026-03-29T15:17:48Z</time>
      </trkpt>
      <trkpt lat="48.66431" lon="2.0511">
        <ele>199.2</ele>
        <time>2026-03-29T15:17:49Z</time>
      </trkpt>
      <trkpt lat="48.66427" lon="2.05108">
        <ele>198.8</ele>
        <time>2026-03-29T15:17:50Z</time>
      </trkpt>
      <trkpt lat="48.66422" lon="2.05107">
        <ele>198.8</ele>
        <time>2026-03-29T15:17:51Z</time>
      </trkpt>
      <trkpt lat="48.66417" lon="2.05105">
        <ele>198.8</ele>
        <time>2026-03-29T15:17:52Z</time>
      </trkpt>
      <trkpt lat="48.66412" lon="2.05103">
        <ele>199.6</ele>
        <time>2026-03-29T15:17:53Z</time>
      </trkpt>
      <trkpt lat="48.66407" lon="2.05101">
        <ele>199.4</ele>
        <time>2026-03-29T15:17:54Z</time>
      </trkpt>
      <trkpt lat="48.66403" lon="2.05099">
        <ele>199.4</ele>
        <time>2026-03-29T15:17:55Z</time>
      </trkpt>
      <trkpt lat="48.66398" lon="2.05097">
        <ele>199.4</ele>
        <time>2026-03-29T15:17:56Z</time>
      </trkpt>
      <trkpt lat="48.66393" lon="2.05095">
        <ele>199.4</ele>
        <time>2026-03-29T15:17:57Z</time>
      </trkpt>
      <trkpt lat="48.66388" lon="2.05093">
        <ele>199.4</ele>
        <time>2026-03-29T15:17:58Z</time>
      </trkpt>
      <trkpt lat="48.66383" lon="2.05092">
        <ele>199.4</ele>
        <time>2026-03-29T15:17:59Z</time>
      </trkpt>
      <trkpt lat="48.66379" lon="2.0509">
        <ele>199.4</ele>
        <time>2026-03-29T15:18:00Z</time>
      </trkpt>
      <trkpt lat="48.66374" lon="2.05089">
        <ele>200.2</ele>
        <time>2026-03-29T15:18:01Z</time>
      </trkpt>
      <trkpt lat="48.66369" lon="2.05087">
        <ele>200.6</ele>
        <time>2026-03-29T15:18:02Z</time>
      </trkpt>
      <trkpt lat="48.66365" lon="2.05086">
        <ele>200.6</ele>
        <time>2026-03-29T15:18:03Z</time>
      </trkpt>
      <trkpt lat="48.6636" lon="2.05084">
        <ele>200.6</ele>
        <time>2026-03-29T15:18:04Z</time>
      </trkpt>
      <trkpt lat="48.66355" lon="2.05083">
        <ele>200.6</ele>
        <time>2026-03-29T15:18:05Z</time>
      </trkpt>
      <trkpt lat="48.66351" lon="2.05081">
        <ele>200.6</ele>
        <time>2026-03-29T15:18:06Z</time>
      </trkpt>
      <trkpt lat="48.66346" lon="2.05079">
        <ele>200.6</ele>
        <time>2026-03-29T15:18:07Z</time>
      </trkpt>
      <trkpt lat="48.66342" lon="2.05078">
        <ele>200.6</ele>
        <time>2026-03-29T15:18:08Z</time>
      </trkpt>
      <trkpt lat="48.66337" lon="2.05076">
        <ele>200.6</ele>
        <time>2026-03-29T15:18:09Z</time>
      </trkpt>
      <trkpt lat="48.66332" lon="2.05075">
        <ele>201</ele>
        <time>2026-03-29T15:18:10Z</time>
      </trkpt>
      <trkpt lat="48.66327" lon="2.05073">
        <ele>201</ele>
        <time>2026-03-29T15:18:11Z</time>
      </trkpt>
      <trkpt lat="48.66322" lon="2.05071">
        <ele>201</ele>
        <time>2026-03-29T15:18:12Z</time>
      </trkpt>
      <trkpt lat="48.66318" lon="2.05069">
        <ele>201</ele>
        <time>2026-03-29T15:18:13Z</time>
      </trkpt>
      <trkpt lat="48.66313" lon="2.05068">
        <ele>200.6</ele>
        <time>2026-03-29T15:18:14Z</time>
      </trkpt>
      <trkpt lat="48.66308" lon="2.05066">
        <ele>200.6</ele>
        <time>2026-03-29T15:18:15Z</time>
      </trkpt>
      <trkpt lat="48.66303" lon="2.05064">
        <ele>200.6</ele>
        <time>2026-03-29T15:18:16Z</time>
      </trkpt>
      <trkpt lat="48.66298" lon="2.05062">
        <ele>200.6</ele>
        <time>2026-03-29T15:18:17Z</time>
      </trkpt>
      <trkpt lat="48.66293" lon="2.05061">
        <ele>201</ele>
        <time>2026-03-29T15:18:18Z</time>
      </trkpt>
      <trkpt lat="48.66288" lon="2.05059">
        <ele>201</ele>
        <time>2026-03-29T15:18:19Z</time>
      </trkpt>
      <trkpt lat="48.66284" lon="2.05058">
        <ele>201</ele>
        <time>2026-03-29T15:18:20Z</time>
      </trkpt>
      <trkpt lat="48.66279" lon="2.05057">
        <ele>201.4</ele>
        <time>2026-03-29T15:18:21Z</time>
      </trkpt>
      <trkpt lat="48.66274" lon="2.05055">
        <ele>201.2</ele>
        <time>2026-03-29T15:18:22Z</time>
      </trkpt>
      <trkpt lat="48.66269" lon="2.05052">
        <ele>201.2</ele>
        <time>2026-03-29T15:18:23Z</time>
      </trkpt>
      <trkpt lat="48.66264" lon="2.0505">
        <ele>201.2</ele>
        <time>2026-03-29T15:18:24Z</time>
      </trkpt>
      <trkpt lat="48.66259" lon="2.05049">
        <ele>201.4</ele>
        <time>2026-03-29T15:18:25Z</time>
      </trkpt>
      <trkpt lat="48.66254" lon="2.05047">
        <ele>201.4</ele>
        <time>2026-03-29T15:18:26Z</time>
      </trkpt>
      <trkpt lat="48.66249" lon="2.05045">
        <ele>201.4</ele>
        <time>2026-03-29T15:18:27Z</time>
      </trkpt>
      <trkpt lat="48.66244" lon="2.05044">
        <ele>201.4</ele>
        <time>2026-03-29T15:18:28Z</time>
      </trkpt>
      <trkpt lat="48.66239" lon="2.05042">
        <ele>201.4</ele>
        <time>2026-03-29T15:18:29Z</time>
      </trkpt>
      <trkpt lat="48.66234" lon="2.0504">
        <ele>202.2</ele>
        <time>2026-03-29T15:18:30Z</time>
      </trkpt>
      <trkpt lat="48.66229" lon="2.05039">
        <ele>202.2</ele>
        <time>2026-03-29T15:18:31Z</time>
      </trkpt>
      <trkpt lat="48.66225" lon="2.05037">
        <ele>202.2</ele>
        <time>2026-03-29T15:18:32Z</time>
      </trkpt>
      <trkpt lat="48.6622" lon="2.05035">
        <ele>202.2</ele>
        <time>2026-03-29T15:18:33Z</time>
      </trkpt>
      <trkpt lat="48.66215" lon="2.05034">
        <ele>201.6</ele>
        <time>2026-03-29T15:18:34Z</time>
      </trkpt>
      <trkpt lat="48.6621" lon="2.05032">
        <ele>201.6</ele>
        <time>2026-03-29T15:18:35Z</time>
      </trkpt>
      <trkpt lat="48.66205" lon="2.0503">
        <ele>201.6</ele>
        <time>2026-03-29T15:18:36Z</time>
      </trkpt>
      <trkpt lat="48.662" lon="2.05029">
        <ele>201.8</ele>
        <time>2026-03-29T15:18:37Z</time>
      </trkpt>
      <trkpt lat="48.66195" lon="2.05027">
        <ele>202.2</ele>
        <time>2026-03-29T15:18:38Z</time>
      </trkpt>
      <trkpt lat="48.66191" lon="2.05026">
        <ele>202.2</ele>
        <time>2026-03-29T15:18:39Z</time>
      </trkpt>
      <trkpt lat="48.66186" lon="2.05024">
        <ele>202.2</ele>
        <time>2026-03-29T15:18:40Z</time>
      </trkpt>
      <trkpt lat="48.66181" lon="2.05023">
        <ele>202.8</ele>
        <time>2026-03-29T15:18:41Z</time>
      </trkpt>
      <trkpt lat="48.66176" lon="2.05021">
        <ele>202.4</ele>
        <time>2026-03-29T15:18:42Z</time>
      </trkpt>
      <trkpt lat="48.66171" lon="2.05019">
        <ele>202.4</ele>
        <time>2026-03-29T15:18:43Z</time>
      </trkpt>
      <trkpt lat="48.66167" lon="2.05017">
        <ele>202.4</ele>
        <time>2026-03-29T15:18:44Z</time>
      </trkpt>
      <trkpt lat="48.66162" lon="2.05016">
        <ele>202.4</ele>
        <time>2026-03-29T15:18:45Z</time>
      </trkpt>
      <trkpt lat="48.66157" lon="2.05014">
        <ele>202.2</ele>
        <time>2026-03-29T15:18:46Z</time>
      </trkpt>
      <trkpt lat="48.66152" lon="2.05012">
        <ele>202.2</ele>
        <time>2026-03-29T15:18:47Z</time>
      </trkpt>
      <trkpt lat="48.66147" lon="2.05011">
        <ele>202.2</ele>
        <time>2026-03-29T15:18:48Z</time>
      </trkpt>
      <trkpt lat="48.66143" lon="2.05009">
        <ele>202.2</ele>
        <time>2026-03-29T15:18:49Z</time>
      </trkpt>
      <trkpt lat="48.66138" lon="2.05007">
        <ele>202.6</ele>
        <time>2026-03-29T15:18:50Z</time>
      </trkpt>
      <trkpt lat="48.66133" lon="2.05006">
        <ele>202.6</ele>
        <time>2026-03-29T15:18:51Z</time>
      </trkpt>
      <trkpt lat="48.66128" lon="2.05004">
        <ele>202.6</ele>
        <time>2026-03-29T15:18:52Z</time>
      </trkpt>
      <trkpt lat="48.66123" lon="2.05002">
        <ele>202.6</ele>
        <time>2026-03-29T15:18:53Z</time>
      </trkpt>
      <trkpt lat="48.66118" lon="2.05001">
        <ele>202.6</ele>
        <time>2026-03-29T15:18:54Z</time>
      </trkpt>
      <trkpt lat="48.66113" lon="2.04998">
        <ele>202.6</ele>
        <time>2026-03-29T15:18:55Z</time>
      </trkpt>
      <trkpt lat="48.66109" lon="2.04996">
        <ele>202.6</ele>
        <time>2026-03-29T15:18:56Z</time>
      </trkpt>
      <trkpt lat="48.66104" lon="2.04994">
        <ele>202.6</ele>
        <time>2026-03-29T15:18:57Z</time>
      </trkpt>
      <trkpt lat="48.66099" lon="2.04993">
        <ele>202.6</ele>
        <time>2026-03-29T15:18:58Z</time>
      </trkpt>
      <trkpt lat="48.66094" lon="2.04991">
        <ele>202.6</ele>
        <time>2026-03-29T15:18:59Z</time>
      </trkpt>
      <trkpt lat="48.66089" lon="2.0499">
        <ele>202.6</ele>
        <time>2026-03-29T15:19:00Z</time>
      </trkpt>
      <trkpt lat="48.66084" lon="2.04988">
        <ele>202.6</ele>
        <time>2026-03-29T15:19:01Z</time>
      </trkpt>
      <trkpt lat="48.66079" lon="2.04986">
        <ele>202.6</ele>
        <time>2026-03-29T15:19:02Z</time>
      </trkpt>
      <trkpt lat="48.66074" lon="2.04985">
        <ele>202.6</ele>
        <time>2026-03-29T15:19:03Z</time>
      </trkpt>
      <trkpt lat="48.66069" lon="2.04983">
        <ele>202.6</ele>
        <time>2026-03-29T15:19:04Z</time>
      </trkpt>
      <trkpt lat="48.66064" lon="2.04982">
        <ele>202.6</ele>
        <time>2026-03-29T15:19:05Z</time>
      </trkpt>
      <trkpt lat="48.66059" lon="2.0498">
        <ele>202.6</ele>
        <time>2026-03-29T15:19:06Z</time>
      </trkpt>
      <trkpt lat="48.66054" lon="2.04978">
        <ele>202.6</ele>
        <time>2026-03-29T15:19:07Z</time>
      </trkpt>
      <trkpt lat="48.66049" lon="2.04976">
        <ele>202.6</ele>
        <time>2026-03-29T15:19:08Z</time>
      </trkpt>
      <trkpt lat="48.66043" lon="2.04975">
        <ele>202.2</ele>
        <time>2026-03-29T15:19:09Z</time>
      </trkpt>
      <trkpt lat="48.66038" lon="2.04973">
        <ele>202.2</ele>
        <time>2026-03-29T15:19:10Z</time>
      </trkpt>
      <trkpt lat="48.66033" lon="2.04971">
        <ele>202.2</ele>
        <time>2026-03-29T15:19:11Z</time>
      </trkpt>
      <trkpt lat="48.66029" lon="2.04969">
        <ele>202.2</ele>
        <time>2026-03-29T15:19:12Z</time>
      </trkpt>
      <trkpt lat="48.66024" lon="2.04967">
        <ele>202.2</ele>
        <time>2026-03-29T15:19:13Z</time>
      </trkpt>
      <trkpt lat="48.66018" lon="2.04966">
        <ele>202.6</ele>
        <time>2026-03-29T15:19:14Z</time>
      </trkpt>
      <trkpt lat="48.66013" lon="2.04964">
        <ele>202.6</ele>
        <time>2026-03-29T15:19:15Z</time>
      </trkpt>
      <trkpt lat="48.66008" lon="2.04962">
        <ele>202.6</ele>
        <time>2026-03-29T15:19:16Z</time>
      </trkpt>
      <trkpt lat="48.66003" lon="2.04961">
        <ele>202.6</ele>
        <time>2026-03-29T15:19:17Z</time>
      </trkpt>
      <trkpt lat="48.65998" lon="2.04959">
        <ele>201.6</ele>
        <time>2026-03-29T15:19:18Z</time>
      </trkpt>
      <trkpt lat="48.65994" lon="2.04956">
        <ele>201.6</ele>
        <time>2026-03-29T15:19:19Z</time>
      </trkpt>
      <trkpt lat="48.65989" lon="2.04954">
        <ele>201.6</ele>
        <time>2026-03-29T15:19:20Z</time>
      </trkpt>
      <trkpt lat="48.65984" lon="2.04952">
        <ele>202</ele>
        <time>2026-03-29T15:19:21Z</time>
      </trkpt>
      <trkpt lat="48.6598" lon="2.0495">
        <ele>201.8</ele>
        <time>2026-03-29T15:19:22Z</time>
      </trkpt>
      <trkpt lat="48.65975" lon="2.04949">
        <ele>201.8</ele>
        <time>2026-03-29T15:19:23Z</time>
      </trkpt>
      <trkpt lat="48.65971" lon="2.04948">
        <ele>201.8</ele>
        <time>2026-03-29T15:19:24Z</time>
      </trkpt>
      <trkpt lat="48.65967" lon="2.04946">
        <ele>201.8</ele>
        <time>2026-03-29T15:19:25Z</time>
      </trkpt>
      <trkpt lat="48.65963" lon="2.04944">
        <ele>201.8</ele>
        <time>2026-03-29T15:19:26Z</time>
      </trkpt>
      <trkpt lat="48.65958" lon="2.04943">
        <ele>201.8</ele>
        <time>2026-03-29T15:19:27Z</time>
      </trkpt>
      <trkpt lat="48.65954" lon="2.04941">
        <ele>201.8</ele>
        <time>2026-03-29T15:19:28Z</time>
      </trkpt>
      <trkpt lat="48.6595" lon="2.04939">
        <ele>201.8</ele>
        <time>2026-03-29T15:19:29Z</time>
      </trkpt>
      <trkpt lat="48.65946" lon="2.04939">
        <ele>202.4</ele>
        <time>2026-03-29T15:19:30Z</time>
      </trkpt>
      <trkpt lat="48.65943" lon="2.0494">
        <ele>202.4</ele>
        <time>2026-03-29T15:19:31Z</time>
      </trkpt>
      <trkpt lat="48.65942" lon="2.04944">
        <ele>202.4</ele>
        <time>2026-03-29T15:19:32Z</time>
      </trkpt>
      <trkpt lat="48.65942" lon="2.04949">
        <ele>202.4</ele>
        <time>2026-03-29T15:19:33Z</time>
      </trkpt>
      <trkpt lat="48.65942" lon="2.04954">
        <ele>202.2</ele>
        <time>2026-03-29T15:19:34Z</time>
      </trkpt>
      <trkpt lat="48.65943" lon="2.04959">
        <ele>202.2</ele>
        <time>2026-03-29T15:19:35Z</time>
      </trkpt>
      <trkpt lat="48.65944" lon="2.04965">
        <ele>202.2</ele>
        <time>2026-03-29T15:19:36Z</time>
      </trkpt>
      <trkpt lat="48.65944" lon="2.04971">
        <ele>202.2</ele>
        <time>2026-03-29T15:19:37Z</time>
      </trkpt>
      <trkpt lat="48.65944" lon="2.04977">
        <ele>203.6</ele>
        <time>2026-03-29T15:19:38Z</time>
      </trkpt>
      <trkpt lat="48.65945" lon="2.04983">
        <ele>203.6</ele>
        <time>2026-03-29T15:19:39Z</time>
      </trkpt>
      <trkpt lat="48.65945" lon="2.0499">
        <ele>203.6</ele>
        <time>2026-03-29T15:19:40Z</time>
      </trkpt>
      <trkpt lat="48.65944" lon="2.04996">
        <ele>203</ele>
        <time>2026-03-29T15:19:41Z</time>
      </trkpt>
      <trkpt lat="48.65945" lon="2.05003">
        <ele>201.6</ele>
        <time>2026-03-29T15:19:42Z</time>
      </trkpt>
      <trkpt lat="48.65945" lon="2.0501">
        <ele>201.6</ele>
        <time>2026-03-29T15:19:43Z</time>
      </trkpt>
      <trkpt lat="48.65944" lon="2.05017">
        <ele>201.6</ele>
        <time>2026-03-29T15:19:44Z</time>
      </trkpt>
      <trkpt lat="48.65943" lon="2.05024">
        <ele>201.6</ele>
        <time>2026-03-29T15:19:45Z</time>
      </trkpt>
      <trkpt lat="48.65942" lon="2.05031">
        <ele>202.6</ele>
        <time>2026-03-29T15:19:46Z</time>
      </trkpt>
      <trkpt lat="48.65942" lon="2.05039">
        <ele>202.6</ele>
        <time>2026-03-29T15:19:47Z</time>
      </trkpt>
      <trkpt lat="48.65942" lon="2.05047">
        <ele>202.6</ele>
        <time>2026-03-29T15:19:48Z</time>
      </trkpt>
      <trkpt lat="48.65942" lon="2.05055">
        <ele>202.6</ele>
        <time>2026-03-29T15:19:49Z</time>
      </trkpt>
      <trkpt lat="48.65942" lon="2.05063">
        <ele>202.8</ele>
        <time>2026-03-29T15:19:50Z</time>
      </trkpt>
      <trkpt lat="48.65942" lon="2.05071">
        <ele>202.8</ele>
        <time>2026-03-29T15:19:51Z</time>
      </trkpt>
      <trkpt lat="48.65943" lon="2.05079">
        <ele>202.8</ele>
        <time>2026-03-29T15:19:52Z</time>
      </trkpt>
      <trkpt lat="48.65943" lon="2.05087">
        <ele>202.8</ele>
        <time>2026-03-29T15:19:53Z</time>
      </trkpt>
      <trkpt lat="48.65943" lon="2.05095">
        <ele>202</ele>
        <time>2026-03-29T15:19:54Z</time>
      </trkpt>
      <trkpt lat="48.65943" lon="2.05103">
        <ele>202</ele>
        <time>2026-03-29T15:19:55Z</time>
      </trkpt>
      <trkpt lat="48.65943" lon="2.05111">
        <ele>202</ele>
        <time>2026-03-29T15:19:56Z</time>
      </trkpt>
      <trkpt lat="48.65944" lon="2.05119">
        <ele>202</ele>
        <time>2026-03-29T15:19:57Z</time>
      </trkpt>
      <trkpt lat="48.65945" lon="2.05127">
        <ele>202</ele>
        <time>2026-03-29T15:19:58Z</time>
      </trkpt>
      <trkpt lat="48.65947" lon="2.05134">
        <ele>202</ele>
        <time>2026-03-29T15:19:59Z</time>
      </trkpt>
      <trkpt lat="48.65948" lon="2.05141">
        <ele>202</ele>
        <time>2026-03-29T15:20:00Z</time>
      </trkpt>
      <trkpt lat="48.6595" lon="2.05149">
        <ele>202.4</ele>
        <time>2026-03-29T15:20:01Z</time>
      </trkpt>
      <trkpt lat="48.65951" lon="2.05156">
        <ele>202</ele>
        <time>2026-03-29T15:20:02Z</time>
      </trkpt>
      <trkpt lat="48.65953" lon="2.05163">
        <ele>202</ele>
        <time>2026-03-29T15:20:03Z</time>
      </trkpt>
      <trkpt lat="48.65955" lon="2.0517">
        <ele>202</ele>
        <time>2026-03-29T15:20:04Z</time>
      </trkpt>
      <trkpt lat="48.65956" lon="2.05178">
        <ele>203</ele>
        <time>2026-03-29T15:20:05Z</time>
      </trkpt>
      <trkpt lat="48.65958" lon="2.05185">
        <ele>203</ele>
        <time>2026-03-29T15:20:06Z</time>
      </trkpt>
      <trkpt lat="48.65959" lon="2.05193">
        <ele>203</ele>
        <time>2026-03-29T15:20:07Z</time>
      </trkpt>
      <trkpt lat="48.6596" lon="2.052">
        <ele>203</ele>
        <time>2026-03-29T15:20:08Z</time>
      </trkpt>
      <trkpt lat="48.65961" lon="2.05208">
        <ele>203</ele>
        <time>2026-03-29T15:20:09Z</time>
      </trkpt>
      <trkpt lat="48.65962" lon="2.05215">
        <ele>201.8</ele>
        <time>2026-03-29T15:20:10Z</time>
      </trkpt>
      <trkpt lat="48.65962" lon="2.05223">
        <ele>201.8</ele>
        <time>2026-03-29T15:20:11Z</time>
      </trkpt>
      <trkpt lat="48.65962" lon="2.05231">
        <ele>201.8</ele>
        <time>2026-03-29T15:20:12Z</time>
      </trkpt>
      <trkpt lat="48.65962" lon="2.05239">
        <ele>202.2</ele>
        <time>2026-03-29T15:20:13Z</time>
      </trkpt>
      <trkpt lat="48.65961" lon="2.05247">
        <ele>203</ele>
        <time>2026-03-29T15:20:14Z</time>
      </trkpt>
      <trkpt lat="48.6596" lon="2.05255">
        <ele>203</ele>
        <time>2026-03-29T15:20:15Z</time>
      </trkpt>
      <trkpt lat="48.65959" lon="2.05263">
        <ele>203</ele>
        <time>2026-03-29T15:20:16Z</time>
      </trkpt>
      <trkpt lat="48.65958" lon="2.0527">
        <ele>203</ele>
        <time>2026-03-29T15:20:17Z</time>
      </trkpt>
      <trkpt lat="48.65958" lon="2.05277">
        <ele>203.6</ele>
        <time>2026-03-29T15:20:18Z</time>
      </trkpt>
      <trkpt lat="48.65956" lon="2.05285">
        <ele>203.6</ele>
        <time>2026-03-29T15:20:19Z</time>
      </trkpt>
      <trkpt lat="48.65956" lon="2.05292">
        <ele>203.6</ele>
        <time>2026-03-29T15:20:20Z</time>
      </trkpt>
      <trkpt lat="48.65955" lon="2.053">
        <ele>202.6</ele>
        <time>2026-03-29T15:20:21Z</time>
      </trkpt>
      <trkpt lat="48.65954" lon="2.05308">
        <ele>201.6</ele>
        <time>2026-03-29T15:20:22Z</time>
      </trkpt>
      <trkpt lat="48.65953" lon="2.05315">
        <ele>201.6</ele>
        <time>2026-03-29T15:20:23Z</time>
      </trkpt>
      <trkpt lat="48.65952" lon="2.05323">
        <ele>201.6</ele>
        <time>2026-03-29T15:20:24Z</time>
      </trkpt>
      <trkpt lat="48.65951" lon="2.05331">
        <ele>201.6</ele>
        <time>2026-03-29T15:20:25Z</time>
      </trkpt>
      <trkpt lat="48.6595" lon="2.05339">
        <ele>201.6</ele>
        <time>2026-03-29T15:20:26Z</time>
      </trkpt>
      <trkpt lat="48.65949" lon="2.05346">
        <ele>201.6</ele>
        <time>2026-03-29T15:20:27Z</time>
      </trkpt>
      <trkpt lat="48.65948" lon="2.05354">
        <ele>201.6</ele>
        <time>2026-03-29T15:20:28Z</time>
      </trkpt>
      <trkpt lat="48.65947" lon="2.05361">
        <ele>201.6</ele>
        <time>2026-03-29T15:20:29Z</time>
      </trkpt>
      <trkpt lat="48.65946" lon="2.05368">
        <ele>201.8</ele>
        <time>2026-03-29T15:20:30Z</time>
      </trkpt>
      <trkpt lat="48.65945" lon="2.05375">
        <ele>201.8</ele>
        <time>2026-03-29T15:20:31Z</time>
      </trkpt>
      <trkpt lat="48.65944" lon="2.05381">
        <ele>201.8</ele>
        <time>2026-03-29T15:20:32Z</time>
      </trkpt>
      <trkpt lat="48.65943" lon="2.05388">
        <ele>201.6</ele>
        <time>2026-03-29T15:20:33Z</time>
      </trkpt>
      <trkpt lat="48.65941" lon="2.05393">
        <ele>201.6</ele>
        <time>2026-03-29T15:20:34Z</time>
      </trkpt>
      <trkpt lat="48.65937" lon="2.05397">
        <ele>201.6</ele>
        <time>2026-03-29T15:20:35Z</time>
      </trkpt>
      <trkpt lat="48.65933" lon="2.05398">
        <ele>201.6</ele>
        <time>2026-03-29T15:20:36Z</time>
      </trkpt>
      <trkpt lat="48.65928" lon="2.05397">
        <ele>201</ele>
        <time>2026-03-29T15:20:37Z</time>
      </trkpt>
      <trkpt lat="48.65923" lon="2.05396">
        <ele>201.6</ele>
        <time>2026-03-29T15:20:38Z</time>
      </trkpt>
      <trkpt lat="48.65918" lon="2.05394">
        <ele>201.6</ele>
        <time>2026-03-29T15:20:39Z</time>
      </trkpt>
      <trkpt lat="48.65913" lon="2.05392">
        <ele>201.6</ele>
        <time>2026-03-29T15:20:40Z</time>
      </trkpt>
      <trkpt lat="48.65908" lon="2.05391">
        <ele>201.6</ele>
        <time>2026-03-29T15:20:41Z</time>
      </trkpt>
      <trkpt lat="48.65902" lon="2.05389">
        <ele>202.6</ele>
        <time>2026-03-29T15:20:42Z</time>
      </trkpt>
      <trkpt lat="48.65897" lon="2.05386">
        <ele>202.6</ele>
        <time>2026-03-29T15:20:43Z</time>
      </trkpt>
      <trkpt lat="48.65892" lon="2.05384">
        <ele>202.6</ele>
        <time>2026-03-29T15:20:44Z</time>
      </trkpt>
      <trkpt lat="48.65887" lon="2.05382">
        <ele>201.8</ele>
        <time>2026-03-29T15:20:45Z</time>
      </trkpt>
      <trkpt lat="48.65882" lon="2.05379">
        <ele>201.6</ele>
        <time>2026-03-29T15:20:46Z</time>
      </trkpt>
      <trkpt lat="48.65877" lon="2.05377">
        <ele>201.6</ele>
        <time>2026-03-29T15:20:47Z</time>
      </trkpt>
      <trkpt lat="48.65872" lon="2.05375">
        <ele>201.6</ele>
        <time>2026-03-29T15:20:48Z</time>
      </trkpt>
      <trkpt lat="48.65867" lon="2.05373">
        <ele>201.6</ele>
        <time>2026-03-29T15:20:49Z</time>
      </trkpt>
      <trkpt lat="48.65862" lon="2.05371">
        <ele>202.2</ele>
        <time>2026-03-29T15:20:50Z</time>
      </trkpt>
      <trkpt lat="48.65857" lon="2.05369">
        <ele>202.2</ele>
        <time>2026-03-29T15:20:51Z</time>
      </trkpt>
      <trkpt lat="48.65852" lon="2.05367">
        <ele>202.2</ele>
        <time>2026-03-29T15:20:52Z</time>
      </trkpt>
      <trkpt lat="48.65847" lon="2.05365">
        <ele>201.4</ele>
        <time>2026-03-29T15:20:53Z</time>
      </trkpt>
      <trkpt lat="48.65842" lon="2.05362">
        <ele>201.6</ele>
        <time>2026-03-29T15:20:54Z</time>
      </trkpt>
      <trkpt lat="48.65838" lon="2.0536">
        <ele>201.6</ele>
        <time>2026-03-29T15:20:55Z</time>
      </trkpt>
      <trkpt lat="48.65833" lon="2.05358">
        <ele>201.6</ele>
        <time>2026-03-29T15:20:56Z</time>
      </trkpt>
      <trkpt lat="48.65828" lon="2.05356">
        <ele>201.6</ele>
        <time>2026-03-29T15:20:57Z</time>
      </trkpt>
      <trkpt lat="48.65823" lon="2.05354">
        <ele>202</ele>
        <time>2026-03-29T15:20:58Z</time>
      </trkpt>
      <trkpt lat="48.65818" lon="2.05352">
        <ele>202</ele>
        <time>2026-03-29T15:20:59Z</time>
      </trkpt>
      <trkpt lat="48.65814" lon="2.0535">
        <ele>202</ele>
        <time>2026-03-29T15:21:00Z</time>
      </trkpt>
      <trkpt lat="48.65809" lon="2.05348">
        <ele>202</ele>
        <time>2026-03-29T15:21:01Z</time>
      </trkpt>
      <trkpt lat="48.65804" lon="2.05345">
        <ele>202.6</ele>
        <time>2026-03-29T15:21:02Z</time>
      </trkpt>
      <trkpt lat="48.65799" lon="2.05343">
        <ele>202.6</ele>
        <time>2026-03-29T15:21:03Z</time>
      </trkpt>
      <trkpt lat="48.65794" lon="2.05341">
        <ele>202.6</ele>
        <time>2026-03-29T15:21:04Z</time>
      </trkpt>
      <trkpt lat="48.65789" lon="2.05338">
        <ele>201.6</ele>
        <time>2026-03-29T15:21:05Z</time>
      </trkpt>
      <trkpt lat="48.65784" lon="2.05336">
        <ele>202</ele>
        <time>2026-03-29T15:21:06Z</time>
      </trkpt>
      <trkpt lat="48.65779" lon="2.05334">
        <ele>202</ele>
        <time>2026-03-29T15:21:07Z</time>
      </trkpt>
      <trkpt lat="48.65774" lon="2.05332">
        <ele>202</ele>
        <time>2026-03-29T15:21:08Z</time>
      </trkpt>
      <trkpt lat="48.65769" lon="2.0533">
        <ele>202</ele>
        <time>2026-03-29T15:21:09Z</time>
      </trkpt>
      <trkpt lat="48.65764" lon="2.05327">
        <ele>201.4</ele>
        <time>2026-03-29T15:21:10Z</time>
      </trkpt>
      <trkpt lat="48.65759" lon="2.05325">
        <ele>201.4</ele>
        <time>2026-03-29T15:21:11Z</time>
      </trkpt>
      <trkpt lat="48.65754" lon="2.05322">
        <ele>201.4</ele>
        <time>2026-03-29T15:21:12Z</time>
      </trkpt>
      <trkpt lat="48.65749" lon="2.05319">
        <ele>201.4</ele>
        <time>2026-03-29T15:21:13Z</time>
      </trkpt>
      <trkpt lat="48.65744" lon="2.05317">
        <ele>202.2</ele>
        <time>2026-03-29T15:21:14Z</time>
      </trkpt>
      <trkpt lat="48.65739" lon="2.05314">
        <ele>202.2</ele>
        <time>2026-03-29T15:21:15Z</time>
      </trkpt>
      <trkpt lat="48.65735" lon="2.05312">
        <ele>202.2</ele>
        <time>2026-03-29T15:21:16Z</time>
      </trkpt>
      <trkpt lat="48.6573" lon="2.05309">
        <ele>202.2</ele>
        <time>2026-03-29T15:21:17Z</time>
      </trkpt>
      <trkpt lat="48.65726" lon="2.05307">
        <ele>202</ele>
        <time>2026-03-29T15:21:18Z</time>
      </trkpt>
      <trkpt lat="48.65721" lon="2.05304">
        <ele>202</ele>
        <time>2026-03-29T15:21:19Z</time>
      </trkpt>
      <trkpt lat="48.65717" lon="2.05301">
        <ele>202</ele>
        <time>2026-03-29T15:21:20Z</time>
      </trkpt>
      <trkpt lat="48.65712" lon="2.05297">
        <ele>201</ele>
        <time>2026-03-29T15:21:21Z</time>
      </trkpt>
      <trkpt lat="48.65708" lon="2.05294">
        <ele>201.6</ele>
        <time>2026-03-29T15:21:22Z</time>
      </trkpt>
      <trkpt lat="48.65703" lon="2.05291">
        <ele>201.6</ele>
        <time>2026-03-29T15:21:23Z</time>
      </trkpt>
      <trkpt lat="48.65698" lon="2.05288">
        <ele>201.6</ele>
        <time>2026-03-29T15:21:24Z</time>
      </trkpt>
      <trkpt lat="48.65694" lon="2.05285">
        <ele>202</ele>
        <time>2026-03-29T15:21:25Z</time>
      </trkpt>
      <trkpt lat="48.65689" lon="2.05281">
        <ele>201.8</ele>
        <time>2026-03-29T15:21:26Z</time>
      </trkpt>
      <trkpt lat="48.65685" lon="2.05278">
        <ele>201.8</ele>
        <time>2026-03-29T15:21:27Z</time>
      </trkpt>
      <trkpt lat="48.6568" lon="2.05275">
        <ele>201.8</ele>
        <time>2026-03-29T15:21:28Z</time>
      </trkpt>
      <trkpt lat="48.65676" lon="2.05271">
        <ele>201.6</ele>
        <time>2026-03-29T15:21:29Z</time>
      </trkpt>
      <trkpt lat="48.65672" lon="2.05268">
        <ele>201.4</ele>
        <time>2026-03-29T15:21:30Z</time>
      </trkpt>
      <trkpt lat="48.65668" lon="2.05265">
        <ele>201.4</ele>
        <time>2026-03-29T15:21:31Z</time>
      </trkpt>
      <trkpt lat="48.65665" lon="2.05262">
        <ele>201.4</ele>
        <time>2026-03-29T15:21:32Z</time>
      </trkpt>
      <trkpt lat="48.65661" lon="2.05258">
        <ele>201.8</ele>
        <time>2026-03-29T15:21:33Z</time>
      </trkpt>
      <trkpt lat="48.65657" lon="2.05256">
        <ele>202.4</ele>
        <time>2026-03-29T15:21:34Z</time>
      </trkpt>
      <trkpt lat="48.65653" lon="2.05254">
        <ele>202.4</ele>
        <time>2026-03-29T15:21:35Z</time>
      </trkpt>
      <trkpt lat="48.65649" lon="2.05253">
        <ele>202.4</ele>
        <time>2026-03-29T15:21:36Z</time>
      </trkpt>
      <trkpt lat="48.65645" lon="2.05254">
        <ele>201.4</ele>
        <time>2026-03-29T15:21:37Z</time>
      </trkpt>
      <trkpt lat="48.65642" lon="2.05257">
        <ele>201.6</ele>
        <time>2026-03-29T15:21:38Z</time>
      </trkpt>
      <trkpt lat="48.65639" lon="2.05262">
        <ele>201.6</ele>
        <time>2026-03-29T15:21:39Z</time>
      </trkpt>
      <trkpt lat="48.65638" lon="2.05268">
        <ele>201.6</ele>
        <time>2026-03-29T15:21:40Z</time>
      </trkpt>
      <trkpt lat="48.65637" lon="2.05274">
        <ele>201.6</ele>
        <time>2026-03-29T15:21:41Z</time>
      </trkpt>
      <trkpt lat="48.65636" lon="2.0528">
        <ele>202</ele>
        <time>2026-03-29T15:21:42Z</time>
      </trkpt>
      <trkpt lat="48.65635" lon="2.05287">
        <ele>202</ele>
        <time>2026-03-29T15:21:43Z</time>
      </trkpt>
      <trkpt lat="48.65634" lon="2.05293">
        <ele>202</ele>
        <time>2026-03-29T15:21:44Z</time>
      </trkpt>
      <trkpt lat="48.65634" lon="2.053">
        <ele>201.4</ele>
        <time>2026-03-29T15:21:45Z</time>
      </trkpt>
      <trkpt lat="48.65633" lon="2.05308">
        <ele>202</ele>
        <time>2026-03-29T15:21:46Z</time>
      </trkpt>
      <trkpt lat="48.65633" lon="2.05315">
        <ele>202</ele>
        <time>2026-03-29T15:21:47Z</time>
      </trkpt>
      <trkpt lat="48.65633" lon="2.05323">
        <ele>202</ele>
        <time>2026-03-29T15:21:48Z</time>
      </trkpt>
      <trkpt lat="48.65632" lon="2.0533">
        <ele>202</ele>
        <time>2026-03-29T15:21:49Z</time>
      </trkpt>
      <trkpt lat="48.65632" lon="2.05338">
        <ele>201.6</ele>
        <time>2026-03-29T15:21:50Z</time>
      </trkpt>
      <trkpt lat="48.65631" lon="2.05346">
        <ele>201.6</ele>
        <time>2026-03-29T15:21:51Z</time>
      </trkpt>
      <trkpt lat="48.6563" lon="2.05354">
        <ele>201.6</ele>
        <time>2026-03-29T15:21:52Z</time>
      </trkpt>
      <trkpt lat="48.6563" lon="2.05362">
        <ele>201.6</ele>
        <time>2026-03-29T15:21:53Z</time>
      </trkpt>
      <trkpt lat="48.6563" lon="2.0537">
        <ele>201.8</ele>
        <time>2026-03-29T15:21:54Z</time>
      </trkpt>
      <trkpt lat="48.6563" lon="2.05378">
        <ele>201.8</ele>
        <time>2026-03-29T15:21:55Z</time>
      </trkpt>
      <trkpt lat="48.6563" lon="2.05386">
        <ele>201.8</ele>
        <time>2026-03-29T15:21:56Z</time>
      </trkpt>
      <trkpt lat="48.6563" lon="2.05394">
        <ele>201.8</ele>
        <time>2026-03-29T15:21:57Z</time>
      </trkpt>
      <trkpt lat="48.65629" lon="2.05403">
        <ele>201.4</ele>
        <time>2026-03-29T15:21:58Z</time>
      </trkpt>
      <trkpt lat="48.65629" lon="2.05411">
        <ele>201.4</ele>
        <time>2026-03-29T15:21:59Z</time>
      </trkpt>
      <trkpt lat="48.65629" lon="2.05418">
        <ele>201.4</ele>
        <time>2026-03-29T15:22:00Z</time>
      </trkpt>
      <trkpt lat="48.65629" lon="2.05426">
        <ele>202</ele>
        <time>2026-03-29T15:22:01Z</time>
      </trkpt>
      <trkpt lat="48.65628" lon="2.05433">
        <ele>202.6</ele>
        <time>2026-03-29T15:22:02Z</time>
      </trkpt>
      <trkpt lat="48.65628" lon="2.0544">
        <ele>202.6</ele>
        <time>2026-03-29T15:22:03Z</time>
      </trkpt>
      <trkpt lat="48.65628" lon="2.05448">
        <ele>202.6</ele>
        <time>2026-03-29T15:22:04Z</time>
      </trkpt>
      <trkpt lat="48.65628" lon="2.05455">
        <ele>202</ele>
        <time>2026-03-29T15:22:05Z</time>
      </trkpt>
      <trkpt lat="48.65628" lon="2.05463">
        <ele>202</ele>
        <time>2026-03-29T15:22:06Z</time>
      </trkpt>
      <trkpt lat="48.65627" lon="2.0547">
        <ele>202</ele>
        <time>2026-03-29T15:22:07Z</time>
      </trkpt>
      <trkpt lat="48.65626" lon="2.05478">
        <ele>202</ele>
        <time>2026-03-29T15:22:08Z</time>
      </trkpt>
      <trkpt lat="48.65626" lon="2.05485">
        <ele>202</ele>
        <time>2026-03-29T15:22:09Z</time>
      </trkpt>
      <trkpt lat="48.65625" lon="2.05493">
        <ele>202.4</ele>
        <time>2026-03-29T15:22:10Z</time>
      </trkpt>
      <trkpt lat="48.65625" lon="2.05501">
        <ele>202.4</ele>
        <time>2026-03-29T15:22:11Z</time>
      </trkpt>
      <trkpt lat="48.65625" lon="2.05509">
        <ele>202.4</ele>
        <time>2026-03-29T15:22:12Z</time>
      </trkpt>
      <trkpt lat="48.65624" lon="2.05517">
        <ele>202.4</ele>
        <time>2026-03-29T15:22:13Z</time>
      </trkpt>
      <trkpt lat="48.65624" lon="2.05524">
        <ele>203.4</ele>
        <time>2026-03-29T15:22:14Z</time>
      </trkpt>
      <trkpt lat="48.65623" lon="2.05532">
        <ele>203.4</ele>
        <time>2026-03-29T15:22:15Z</time>
      </trkpt>
      <trkpt lat="48.65623" lon="2.05539">
        <ele>203.4</ele>
        <time>2026-03-29T15:22:16Z</time>
      </trkpt>
      <trkpt lat="48.65623" lon="2.05546">
        <ele>203.4</ele>
        <time>2026-03-29T15:22:17Z</time>
      </trkpt>
      <trkpt lat="48.65623" lon="2.05554">
        <ele>202.4</ele>
        <time>2026-03-29T15:22:18Z</time>
      </trkpt>
      <trkpt lat="48.65622" lon="2.05561">
        <ele>202.4</ele>
        <time>2026-03-29T15:22:19Z</time>
      </trkpt>
      <trkpt lat="48.65622" lon="2.05569">
        <ele>202.4</ele>
        <time>2026-03-29T15:22:20Z</time>
      </trkpt>
      <trkpt lat="48.65621" lon="2.05577">
        <ele>202.6</ele>
        <time>2026-03-29T15:22:21Z</time>
      </trkpt>
      <trkpt lat="48.65621" lon="2.05584">
        <ele>202.4</ele>
        <time>2026-03-29T15:22:22Z</time>
      </trkpt>
      <trkpt lat="48.65621" lon="2.05592">
        <ele>202.4</ele>
        <time>2026-03-29T15:22:23Z</time>
      </trkpt>
      <trkpt lat="48.6562" lon="2.056">
        <ele>202.4</ele>
        <time>2026-03-29T15:22:24Z</time>
      </trkpt>
      <trkpt lat="48.6562" lon="2.05608">
        <ele>202.4</ele>
        <time>2026-03-29T15:22:25Z</time>
      </trkpt>
      <trkpt lat="48.65619" lon="2.05617">
        <ele>202.4</ele>
        <time>2026-03-29T15:22:26Z</time>
      </trkpt>
      <trkpt lat="48.65619" lon="2.05625">
        <ele>202.4</ele>
        <time>2026-03-29T15:22:27Z</time>
      </trkpt>
      <trkpt lat="48.65618" lon="2.05633">
        <ele>202.4</ele>
        <time>2026-03-29T15:22:28Z</time>
      </trkpt>
      <trkpt lat="48.65618" lon="2.05641">
        <ele>202.4</ele>
        <time>2026-03-29T15:22:29Z</time>
      </trkpt>
      <trkpt lat="48.65618" lon="2.05649">
        <ele>202.4</ele>
        <time>2026-03-29T15:22:30Z</time>
      </trkpt>
      <trkpt lat="48.65617" lon="2.05657">
        <ele>202.4</ele>
        <time>2026-03-29T15:22:31Z</time>
      </trkpt>
      <trkpt lat="48.65617" lon="2.05666">
        <ele>202.4</ele>
        <time>2026-03-29T15:22:32Z</time>
      </trkpt>
      <trkpt lat="48.65617" lon="2.05674">
        <ele>202.4</ele>
        <time>2026-03-29T15:22:33Z</time>
      </trkpt>
      <trkpt lat="48.65616" lon="2.05683">
        <ele>202.6</ele>
        <time>2026-03-29T15:22:34Z</time>
      </trkpt>
      <trkpt lat="48.65615" lon="2.05692">
        <ele>202.6</ele>
        <time>2026-03-29T15:22:35Z</time>
      </trkpt>
      <trkpt lat="48.65614" lon="2.057">
        <ele>202.6</ele>
        <time>2026-03-29T15:22:36Z</time>
      </trkpt>
      <trkpt lat="48.65613" lon="2.05709">
        <ele>202.6</ele>
        <time>2026-03-29T15:22:37Z</time>
      </trkpt>
      <trkpt lat="48.65613" lon="2.05717">
        <ele>202.6</ele>
        <time>2026-03-29T15:22:38Z</time>
      </trkpt>
      <trkpt lat="48.65612" lon="2.05725">
        <ele>202.6</ele>
        <time>2026-03-29T15:22:39Z</time>
      </trkpt>
      <trkpt lat="48.6561" lon="2.05734">
        <ele>202.6</ele>
        <time>2026-03-29T15:22:40Z</time>
      </trkpt>
      <trkpt lat="48.6561" lon="2.05742">
        <ele>202.6</ele>
        <time>2026-03-29T15:22:41Z</time>
      </trkpt>
      <trkpt lat="48.65608" lon="2.0575">
        <ele>202.8</ele>
        <time>2026-03-29T15:22:42Z</time>
      </trkpt>
      <trkpt lat="48.65605" lon="2.05758">
        <ele>202.8</ele>
        <time>2026-03-29T15:22:43Z</time>
      </trkpt>
      <trkpt lat="48.65603" lon="2.05766">
        <ele>202.8</ele>
        <time>2026-03-29T15:22:44Z</time>
      </trkpt>
      <trkpt lat="48.65601" lon="2.05774">
        <ele>202.8</ele>
        <time>2026-03-29T15:22:45Z</time>
      </trkpt>
      <trkpt lat="48.656" lon="2.05783">
        <ele>203</ele>
        <time>2026-03-29T15:22:46Z</time>
      </trkpt>
      <trkpt lat="48.65598" lon="2.05791">
        <ele>203</ele>
        <time>2026-03-29T15:22:47Z</time>
      </trkpt>
      <trkpt lat="48.65596" lon="2.058">
        <ele>203</ele>
        <time>2026-03-29T15:22:48Z</time>
      </trkpt>
      <trkpt lat="48.65595" lon="2.05808">
        <ele>202.6</ele>
        <time>2026-03-29T15:22:49Z</time>
      </trkpt>
      <trkpt lat="48.65593" lon="2.05817">
        <ele>202.6</ele>
        <time>2026-03-29T15:22:50Z</time>
      </trkpt>
      <trkpt lat="48.65591" lon="2.05826">
        <ele>202.6</ele>
        <time>2026-03-29T15:22:51Z</time>
      </trkpt>
      <trkpt lat="48.65589" lon="2.05835">
        <ele>202.6</ele>
        <time>2026-03-29T15:22:52Z</time>
      </trkpt>
      <trkpt lat="48.65587" lon="2.05843">
        <ele>202.6</ele>
        <time>2026-03-29T15:22:53Z</time>
      </trkpt>
      <trkpt lat="48.65585" lon="2.05852">
        <ele>203</ele>
        <time>2026-03-29T15:22:54Z</time>
      </trkpt>
      <trkpt lat="48.65583" lon="2.05861">
        <ele>203</ele>
        <time>2026-03-29T15:22:55Z</time>
      </trkpt>
      <trkpt lat="48.65582" lon="2.05869">
        <ele>203</ele>
        <time>2026-03-29T15:22:56Z</time>
      </trkpt>
      <trkpt lat="48.6558" lon="2.05878">
        <ele>202.6</ele>
        <time>2026-03-29T15:22:57Z</time>
      </trkpt>
      <trkpt lat="48.65578" lon="2.05887">
        <ele>203</ele>
        <time>2026-03-29T15:22:58Z</time>
      </trkpt>
      <trkpt lat="48.65576" lon="2.05896">
        <ele>203</ele>
        <time>2026-03-29T15:22:59Z</time>
      </trkpt>
      <trkpt lat="48.65575" lon="2.05905">
        <ele>203</ele>
        <time>2026-03-29T15:23:00Z</time>
      </trkpt>
      <trkpt lat="48.65573" lon="2.05914">
        <ele>202.2</ele>
        <time>2026-03-29T15:23:01Z</time>
      </trkpt>
      <trkpt lat="48.65572" lon="2.05922">
        <ele>202.2</ele>
        <time>2026-03-29T15:23:02Z</time>
      </trkpt>
      <trkpt lat="48.6557" lon="2.05931">
        <ele>202.2</ele>
        <time>2026-03-29T15:23:03Z</time>
      </trkpt>
      <trkpt lat="48.65568" lon="2.05939">
        <ele>202.2</ele>
        <time>2026-03-29T15:23:04Z</time>
      </trkpt>
      <trkpt lat="48.65567" lon="2.05948">
        <ele>202.6</ele>
        <time>2026-03-29T15:23:05Z</time>
      </trkpt>
      <trkpt lat="48.65565" lon="2.05955">
        <ele>202.2</ele>
        <time>2026-03-29T15:23:06Z</time>
      </trkpt>
      <trkpt lat="48.65563" lon="2.05963">
        <ele>202.2</ele>
        <time>2026-03-29T15:23:07Z</time>
      </trkpt>
      <trkpt lat="48.65561" lon="2.0597">
        <ele>202.2</ele>
        <time>2026-03-29T15:23:08Z</time>
      </trkpt>
      <trkpt lat="48.6556" lon="2.05977">
        <ele>202.2</ele>
        <time>2026-03-29T15:23:09Z</time>
      </trkpt>
      <trkpt lat="48.65558" lon="2.05984">
        <ele>202.2</ele>
        <time>2026-03-29T15:23:10Z</time>
      </trkpt>
      <trkpt lat="48.65557" lon="2.05991">
        <ele>202.2</ele>
        <time>2026-03-29T15:23:11Z</time>
      </trkpt>
      <trkpt lat="48.65557" lon="2.05997">
        <ele>202.2</ele>
        <time>2026-03-29T15:23:12Z</time>
      </trkpt>
      <trkpt lat="48.65556" lon="2.06004">
        <ele>202.2</ele>
        <time>2026-03-29T15:23:13Z</time>
      </trkpt>
      <trkpt lat="48.65555" lon="2.06011">
        <ele>202.6</ele>
        <time>2026-03-29T15:23:14Z</time>
      </trkpt>
      <trkpt lat="48.65554" lon="2.06017">
        <ele>202.6</ele>
        <time>2026-03-29T15:23:15Z</time>
      </trkpt>
      <trkpt lat="48.65553" lon="2.06024">
        <ele>202.6</ele>
        <time>2026-03-29T15:23:16Z</time>
      </trkpt>
      <trkpt lat="48.65551" lon="2.06031">
        <ele>202.6</ele>
        <time>2026-03-29T15:23:17Z</time>
      </trkpt>
      <trkpt lat="48.65549" lon="2.06038">
        <ele>202.4</ele>
        <time>2026-03-29T15:23:18Z</time>
      </trkpt>
      <trkpt lat="48.65548" lon="2.06045">
        <ele>202.4</ele>
        <time>2026-03-29T15:23:19Z</time>
      </trkpt>
      <trkpt lat="48.65546" lon="2.06053">
        <ele>202.4</ele>
        <time>2026-03-29T15:23:20Z</time>
      </trkpt>
      <trkpt lat="48.65545" lon="2.06061">
        <ele>202.4</ele>
        <time>2026-03-29T15:23:21Z</time>
      </trkpt>
      <trkpt lat="48.65543" lon="2.06069">
        <ele>202</ele>
        <time>2026-03-29T15:23:22Z</time>
      </trkpt>
      <trkpt lat="48.65542" lon="2.06077">
        <ele>202</ele>
        <time>2026-03-29T15:23:23Z</time>
      </trkpt>
      <trkpt lat="48.6554" lon="2.06086">
        <ele>202</ele>
        <time>2026-03-29T15:23:24Z</time>
      </trkpt>
      <trkpt lat="48.65539" lon="2.06094">
        <ele>203</ele>
        <time>2026-03-29T15:23:25Z</time>
      </trkpt>
      <trkpt lat="48.65537" lon="2.06103">
        <ele>202.2</ele>
        <time>2026-03-29T15:23:26Z</time>
      </trkpt>
      <trkpt lat="48.65535" lon="2.06111">
        <ele>202.2</ele>
        <time>2026-03-29T15:23:27Z</time>
      </trkpt>
      <trkpt lat="48.65533" lon="2.06119">
        <ele>202.2</ele>
        <time>2026-03-29T15:23:28Z</time>
      </trkpt>
      <trkpt lat="48.65531" lon="2.06128">
        <ele>203.2</ele>
        <time>2026-03-29T15:23:29Z</time>
      </trkpt>
      <trkpt lat="48.6553" lon="2.06137">
        <ele>203.2</ele>
        <time>2026-03-29T15:23:30Z</time>
      </trkpt>
      <trkpt lat="48.65528" lon="2.06145">
        <ele>203.2</ele>
        <time>2026-03-29T15:23:31Z</time>
      </trkpt>
      <trkpt lat="48.65526" lon="2.06154">
        <ele>203.2</ele>
        <time>2026-03-29T15:23:32Z</time>
      </trkpt>
      <trkpt lat="48.65524" lon="2.06162">
        <ele>203.2</ele>
        <time>2026-03-29T15:23:33Z</time>
      </trkpt>
      <trkpt lat="48.65523" lon="2.06171">
        <ele>203.6</ele>
        <time>2026-03-29T15:23:34Z</time>
      </trkpt>
      <trkpt lat="48.65521" lon="2.06179">
        <ele>203.6</ele>
        <time>2026-03-29T15:23:35Z</time>
      </trkpt>
      <trkpt lat="48.6552" lon="2.06188">
        <ele>203.6</ele>
        <time>2026-03-29T15:23:36Z</time>
      </trkpt>
      <trkpt lat="48.65518" lon="2.06197">
        <ele>203.6</ele>
        <time>2026-03-29T15:23:37Z</time>
      </trkpt>
      <trkpt lat="48.65516" lon="2.06206">
        <ele>204</ele>
        <time>2026-03-29T15:23:38Z</time>
      </trkpt>
      <trkpt lat="48.65514" lon="2.06215">
        <ele>204</ele>
        <time>2026-03-29T15:23:39Z</time>
      </trkpt>
      <trkpt lat="48.65512" lon="2.06224">
        <ele>204</ele>
        <time>2026-03-29T15:23:40Z</time>
      </trkpt>
      <trkpt lat="48.65511" lon="2.06233">
        <ele>203</ele>
        <time>2026-03-29T15:23:41Z</time>
      </trkpt>
      <trkpt lat="48.65509" lon="2.06242">
        <ele>203.2</ele>
        <time>2026-03-29T15:23:42Z</time>
      </trkpt>
      <trkpt lat="48.65507" lon="2.06251">
        <ele>203.2</ele>
        <time>2026-03-29T15:23:43Z</time>
      </trkpt>
      <trkpt lat="48.65505" lon="2.0626">
        <ele>203.2</ele>
        <time>2026-03-29T15:23:44Z</time>
      </trkpt>
      <trkpt lat="48.65503" lon="2.06269">
        <ele>202.8</ele>
        <time>2026-03-29T15:23:45Z</time>
      </trkpt>
      <trkpt lat="48.65501" lon="2.06279">
        <ele>202.6</ele>
        <time>2026-03-29T15:23:46Z</time>
      </trkpt>
      <trkpt lat="48.655" lon="2.06289">
        <ele>202.6</ele>
        <time>2026-03-29T15:23:47Z</time>
      </trkpt>
      <trkpt lat="48.65498" lon="2.06298">
        <ele>202.6</ele>
        <time>2026-03-29T15:23:48Z</time>
      </trkpt>
      <trkpt lat="48.65496" lon="2.06307">
        <ele>202.6</ele>
        <time>2026-03-29T15:23:49Z</time>
      </trkpt>
      <trkpt lat="48.65495" lon="2.06316">
        <ele>201.8</ele>
        <time>2026-03-29T15:23:50Z</time>
      </trkpt>
      <trkpt lat="48.65493" lon="2.06325">
        <ele>201.8</ele>
        <time>2026-03-29T15:23:51Z</time>
      </trkpt>
      <trkpt lat="48.65491" lon="2.06334">
        <ele>201.8</ele>
        <time>2026-03-29T15:23:52Z</time>
      </trkpt>
      <trkpt lat="48.65489" lon="2.06342">
        <ele>201.8</ele>
        <time>2026-03-29T15:23:53Z</time>
      </trkpt>
      <trkpt lat="48.65487" lon="2.0635">
        <ele>201.8</ele>
        <time>2026-03-29T15:23:54Z</time>
      </trkpt>
      <trkpt lat="48.65486" lon="2.06358">
        <ele>201.8</ele>
        <time>2026-03-29T15:23:55Z</time>
      </trkpt>
      <trkpt lat="48.65484" lon="2.06366">
        <ele>201.8</ele>
        <time>2026-03-29T15:23:56Z</time>
      </trkpt>
      <trkpt lat="48.65482" lon="2.06373">
        <ele>201.8</ele>
        <time>2026-03-29T15:23:57Z</time>
      </trkpt>
      <trkpt lat="48.65481" lon="2.06381">
        <ele>201.8</ele>
        <time>2026-03-29T15:23:58Z</time>
      </trkpt>
      <trkpt lat="48.6548" lon="2.06388">
        <ele>201.8</ele>
        <time>2026-03-29T15:23:59Z</time>
      </trkpt>
      <trkpt lat="48.65478" lon="2.06395">
        <ele>201.8</ele>
        <time>2026-03-29T15:24:00Z</time>
      </trkpt>
      <trkpt lat="48.65476" lon="2.06403">
        <ele>202.2</ele>
        <time>2026-03-29T15:24:01Z</time>
      </trkpt>
      <trkpt lat="48.65475" lon="2.06411">
        <ele>202.6</ele>
        <time>2026-03-29T15:24:02Z</time>
      </trkpt>
      <trkpt lat="48.65473" lon="2.06419">
        <ele>202.6</ele>
        <time>2026-03-29T15:24:03Z</time>
      </trkpt>
      <trkpt lat="48.65472" lon="2.06428">
        <ele>202.6</ele>
        <time>2026-03-29T15:24:04Z</time>
      </trkpt>
      <trkpt lat="48.6547" lon="2.06436">
        <ele>202.4</ele>
        <time>2026-03-29T15:24:05Z</time>
      </trkpt>
      <trkpt lat="48.65468" lon="2.06445">
        <ele>202.6</ele>
        <time>2026-03-29T15:24:06Z</time>
      </trkpt>
      <trkpt lat="48.65467" lon="2.06454">
        <ele>202.6</ele>
        <time>2026-03-29T15:24:07Z</time>
      </trkpt>
      <trkpt lat="48.65465" lon="2.06463">
        <ele>202.6</ele>
        <time>2026-03-29T15:24:08Z</time>
      </trkpt>
      <trkpt lat="48.65463" lon="2.06472">
        <ele>202.6</ele>
        <time>2026-03-29T15:24:09Z</time>
      </trkpt>
      <trkpt lat="48.65461" lon="2.06481">
        <ele>202.6</ele>
        <time>2026-03-29T15:24:10Z</time>
      </trkpt>
      <trkpt lat="48.6546" lon="2.0649">
        <ele>202.6</ele>
        <time>2026-03-29T15:24:11Z</time>
      </trkpt>
      <trkpt lat="48.65458" lon="2.06499">
        <ele>202.6</ele>
        <time>2026-03-29T15:24:12Z</time>
      </trkpt>
      <trkpt lat="48.65456" lon="2.06508">
        <ele>202.6</ele>
        <time>2026-03-29T15:24:13Z</time>
      </trkpt>
      <trkpt lat="48.65454" lon="2.06517">
        <ele>202.8</ele>
        <time>2026-03-29T15:24:14Z</time>
      </trkpt>
      <trkpt lat="48.65452" lon="2.06526">
        <ele>202.8</ele>
        <time>2026-03-29T15:24:15Z</time>
      </trkpt>
      <trkpt lat="48.65449" lon="2.06534">
        <ele>202.8</ele>
        <time>2026-03-29T15:24:16Z</time>
      </trkpt>
      <trkpt lat="48.65445" lon="2.06541">
        <ele>202.6</ele>
        <time>2026-03-29T15:24:17Z</time>
      </trkpt>
      <trkpt lat="48.6544" lon="2.06546">
        <ele>202.8</ele>
        <time>2026-03-29T15:24:18Z</time>
      </trkpt>
      <trkpt lat="48.65434" lon="2.06549">
        <ele>202.8</ele>
        <time>2026-03-29T15:24:19Z</time>
      </trkpt>
      <trkpt lat="48.65428" lon="2.0655">
        <ele>202.8</ele>
        <time>2026-03-29T15:24:20Z</time>
      </trkpt>
      <trkpt lat="48.65422" lon="2.06551">
        <ele>203</ele>
        <time>2026-03-29T15:24:21Z</time>
      </trkpt>
      <trkpt lat="48.65416" lon="2.06551">
        <ele>203.4</ele>
        <time>2026-03-29T15:24:22Z</time>
      </trkpt>
      <trkpt lat="48.6541" lon="2.06551">
        <ele>203.4</ele>
        <time>2026-03-29T15:24:23Z</time>
      </trkpt>
      <trkpt lat="48.65404" lon="2.06551">
        <ele>203.4</ele>
        <time>2026-03-29T15:24:24Z</time>
      </trkpt>
      <trkpt lat="48.65398" lon="2.06551">
        <ele>202.4</ele>
        <time>2026-03-29T15:24:25Z</time>
      </trkpt>
      <trkpt lat="48.65391" lon="2.06552">
        <ele>202.8</ele>
        <time>2026-03-29T15:24:26Z</time>
      </trkpt>
      <trkpt lat="48.65385" lon="2.06552">
        <ele>202.8</ele>
        <time>2026-03-29T15:24:27Z</time>
      </trkpt>
      <trkpt lat="48.65379" lon="2.06552">
        <ele>202.8</ele>
        <time>2026-03-29T15:24:28Z</time>
      </trkpt>
      <trkpt lat="48.65372" lon="2.06554">
        <ele>202.8</ele>
        <time>2026-03-29T15:24:29Z</time>
      </trkpt>
      <trkpt lat="48.65366" lon="2.06555">
        <ele>202.2</ele>
        <time>2026-03-29T15:24:30Z</time>
      </trkpt>
      <trkpt lat="48.6536" lon="2.06557">
        <ele>202.2</ele>
        <time>2026-03-29T15:24:31Z</time>
      </trkpt>
      <trkpt lat="48.65355" lon="2.06557">
        <ele>202.2</ele>
        <time>2026-03-29T15:24:32Z</time>
      </trkpt>
      <trkpt lat="48.65349" lon="2.06557">
        <ele>203.2</ele>
        <time>2026-03-29T15:24:33Z</time>
      </trkpt>
      <trkpt lat="48.65343" lon="2.06556">
        <ele>203</ele>
        <time>2026-03-29T15:24:34Z</time>
      </trkpt>
      <trkpt lat="48.65338" lon="2.06554">
        <ele>203</ele>
        <time>2026-03-29T15:24:35Z</time>
      </trkpt>
      <trkpt lat="48.65333" lon="2.06551">
        <ele>203</ele>
        <time>2026-03-29T15:24:36Z</time>
      </trkpt>
      <trkpt lat="48.65328" lon="2.06546">
        <ele>203</ele>
        <time>2026-03-29T15:24:37Z</time>
      </trkpt>
      <trkpt lat="48.65324" lon="2.0654">
        <ele>203</ele>
        <time>2026-03-29T15:24:38Z</time>
      </trkpt>
      <trkpt lat="48.6532" lon="2.06534">
        <ele>203</ele>
        <time>2026-03-29T15:24:39Z</time>
      </trkpt>
      <trkpt lat="48.65316" lon="2.06527">
        <ele>203</ele>
        <time>2026-03-29T15:24:40Z</time>
      </trkpt>
      <trkpt lat="48.65313" lon="2.06519">
        <ele>203</ele>
        <time>2026-03-29T15:24:41Z</time>
      </trkpt>
      <trkpt lat="48.65311" lon="2.06511">
        <ele>203.4</ele>
        <time>2026-03-29T15:24:42Z</time>
      </trkpt>
      <trkpt lat="48.65309" lon="2.06503">
        <ele>203.4</ele>
        <time>2026-03-29T15:24:43Z</time>
      </trkpt>
      <trkpt lat="48.65306" lon="2.06496">
        <ele>203.4</ele>
        <time>2026-03-29T15:24:44Z</time>
      </trkpt>
      <trkpt lat="48.65304" lon="2.06489">
        <ele>203.4</ele>
        <time>2026-03-29T15:24:45Z</time>
      </trkpt>
      <trkpt lat="48.65302" lon="2.06481">
        <ele>203</ele>
        <time>2026-03-29T15:24:46Z</time>
      </trkpt>
      <trkpt lat="48.653" lon="2.06473">
        <ele>203</ele>
        <time>2026-03-29T15:24:47Z</time>
      </trkpt>
      <trkpt lat="48.65297" lon="2.06466">
        <ele>203</ele>
        <time>2026-03-29T15:24:48Z</time>
      </trkpt>
      <trkpt lat="48.65294" lon="2.06458">
        <ele>203</ele>
        <time>2026-03-29T15:24:49Z</time>
      </trkpt>
      <trkpt lat="48.65292" lon="2.0645">
        <ele>203.2</ele>
        <time>2026-03-29T15:24:50Z</time>
      </trkpt>
      <trkpt lat="48.65289" lon="2.06443">
        <ele>203.2</ele>
        <time>2026-03-29T15:24:51Z</time>
      </trkpt>
      <trkpt lat="48.65284" lon="2.06437">
        <ele>203.2</ele>
        <time>2026-03-29T15:24:52Z</time>
      </trkpt>
      <trkpt lat="48.65279" lon="2.06432">
        <ele>203.2</ele>
        <time>2026-03-29T15:24:53Z</time>
      </trkpt>
      <trkpt lat="48.65274" lon="2.06427">
        <ele>203.6</ele>
        <time>2026-03-29T15:24:54Z</time>
      </trkpt>
      <trkpt lat="48.65269" lon="2.06422">
        <ele>203.6</ele>
        <time>2026-03-29T15:24:55Z</time>
      </trkpt>
      <trkpt lat="48.65264" lon="2.06418">
        <ele>203.6</ele>
        <time>2026-03-29T15:24:56Z</time>
      </trkpt>
      <trkpt lat="48.65259" lon="2.06414">
        <ele>203.2</ele>
        <time>2026-03-29T15:24:57Z</time>
      </trkpt>
      <trkpt lat="48.65254" lon="2.0641">
        <ele>203</ele>
        <time>2026-03-29T15:24:58Z</time>
      </trkpt>
      <trkpt lat="48.65249" lon="2.06406">
        <ele>203</ele>
        <time>2026-03-29T15:24:59Z</time>
      </trkpt>
      <trkpt lat="48.65245" lon="2.06403">
        <ele>203</ele>
        <time>2026-03-29T15:25:00Z</time>
      </trkpt>
      <trkpt lat="48.65241" lon="2.06399">
        <ele>203</ele>
        <time>2026-03-29T15:25:01Z</time>
      </trkpt>
      <trkpt lat="48.65237" lon="2.06396">
        <ele>202.4</ele>
        <time>2026-03-29T15:25:02Z</time>
      </trkpt>
      <trkpt lat="48.65232" lon="2.06392">
        <ele>202.4</ele>
        <time>2026-03-29T15:25:03Z</time>
      </trkpt>
      <trkpt lat="48.65227" lon="2.06389">
        <ele>202.4</ele>
        <time>2026-03-29T15:25:04Z</time>
      </trkpt>
      <trkpt lat="48.65223" lon="2.06385">
        <ele>203.2</ele>
        <time>2026-03-29T15:25:05Z</time>
      </trkpt>
      <trkpt lat="48.65218" lon="2.06381">
        <ele>203.2</ele>
        <time>2026-03-29T15:25:06Z</time>
      </trkpt>
      <trkpt lat="48.65213" lon="2.06377">
        <ele>203.2</ele>
        <time>2026-03-29T15:25:07Z</time>
      </trkpt>
      <trkpt lat="48.65208" lon="2.06374">
        <ele>203.2</ele>
        <time>2026-03-29T15:25:08Z</time>
      </trkpt>
      <trkpt lat="48.65202" lon="2.0637">
        <ele>203.2</ele>
        <time>2026-03-29T15:25:09Z</time>
      </trkpt>
      <trkpt lat="48.65197" lon="2.06366">
        <ele>203</ele>
        <time>2026-03-29T15:25:10Z</time>
      </trkpt>
      <trkpt lat="48.65192" lon="2.06362">
        <ele>203</ele>
        <time>2026-03-29T15:25:11Z</time>
      </trkpt>
      <trkpt lat="48.65187" lon="2.06359">
        <ele>203</ele>
        <time>2026-03-29T15:25:12Z</time>
      </trkpt>
      <trkpt lat="48.65182" lon="2.06355">
        <ele>203</ele>
        <time>2026-03-29T15:25:13Z</time>
      </trkpt>
      <trkpt lat="48.65177" lon="2.06351">
        <ele>202.8</ele>
        <time>2026-03-29T15:25:14Z</time>
      </trkpt>
      <trkpt lat="48.65172" lon="2.06347">
        <ele>202.8</ele>
        <time>2026-03-29T15:25:15Z</time>
      </trkpt>
      <trkpt lat="48.65167" lon="2.06343">
        <ele>202.8</ele>
        <time>2026-03-29T15:25:16Z</time>
      </trkpt>
      <trkpt lat="48.65162" lon="2.06339">
        <ele>202</ele>
        <time>2026-03-29T15:25:17Z</time>
      </trkpt>
      <trkpt lat="48.65156" lon="2.06335">
        <ele>201.4</ele>
        <time>2026-03-29T15:25:18Z</time>
      </trkpt>
      <trkpt lat="48.65151" lon="2.06331">
        <ele>201.4</ele>
        <time>2026-03-29T15:25:19Z</time>
      </trkpt>
      <trkpt lat="48.65145" lon="2.06326">
        <ele>201.4</ele>
        <time>2026-03-29T15:25:20Z</time>
      </trkpt>
      <trkpt lat="48.6514" lon="2.06322">
        <ele>202.4</ele>
        <time>2026-03-29T15:25:21Z</time>
      </trkpt>
      <trkpt lat="48.65135" lon="2.06317">
        <ele>202.8</ele>
        <time>2026-03-29T15:25:22Z</time>
      </trkpt>
      <trkpt lat="48.65129" lon="2.06312">
        <ele>202.8</ele>
        <time>2026-03-29T15:25:23Z</time>
      </trkpt>
      <trkpt lat="48.65124" lon="2.06308">
        <ele>202.8</ele>
        <time>2026-03-29T15:25:24Z</time>
      </trkpt>
      <trkpt lat="48.65118" lon="2.06304">
        <ele>202.6</ele>
        <time>2026-03-29T15:25:25Z</time>
      </trkpt>
      <trkpt lat="48.65113" lon="2.063">
        <ele>201.6</ele>
        <time>2026-03-29T15:25:26Z</time>
      </trkpt>
      <trkpt lat="48.65108" lon="2.06296">
        <ele>201.6</ele>
        <time>2026-03-29T15:25:27Z</time>
      </trkpt>
      <trkpt lat="48.65103" lon="2.06292">
        <ele>201.6</ele>
        <time>2026-03-29T15:25:28Z</time>
      </trkpt>
      <trkpt lat="48.65098" lon="2.06288">
        <ele>201.6</ele>
        <time>2026-03-29T15:25:29Z</time>
      </trkpt>
      <trkpt lat="48.65093" lon="2.06284">
        <ele>201</ele>
        <time>2026-03-29T15:25:30Z</time>
      </trkpt>
      <trkpt lat="48.65088" lon="2.06281">
        <ele>201</ele>
        <time>2026-03-29T15:25:31Z</time>
      </trkpt>
      <trkpt lat="48.65083" lon="2.0628">
        <ele>201</ele>
        <time>2026-03-29T15:25:32Z</time>
      </trkpt>
      <trkpt lat="48.65078" lon="2.06279">
        <ele>201</ele>
        <time>2026-03-29T15:25:33Z</time>
      </trkpt>
      <trkpt lat="48.65073" lon="2.06278">
        <ele>200.8</ele>
        <time>2026-03-29T15:25:34Z</time>
      </trkpt>
      <trkpt lat="48.65068" lon="2.06276">
        <ele>200.8</ele>
        <time>2026-03-29T15:25:35Z</time>
      </trkpt>
      <trkpt lat="48.65064" lon="2.06274">
        <ele>200.8</ele>
        <time>2026-03-29T15:25:36Z</time>
      </trkpt>
      <trkpt lat="48.6506" lon="2.06273">
        <ele>200.8</ele>
        <time>2026-03-29T15:25:37Z</time>
      </trkpt>
      <trkpt lat="48.65056" lon="2.06275">
        <ele>200.4</ele>
        <time>2026-03-29T15:25:38Z</time>
      </trkpt>
      <trkpt lat="48.65053" lon="2.06278">
        <ele>200.4</ele>
        <time>2026-03-29T15:25:39Z</time>
      </trkpt>
      <trkpt lat="48.65053" lon="2.06283">
        <ele>200.4</ele>
        <time>2026-03-29T15:25:40Z</time>
      </trkpt>
      <trkpt lat="48.65054" lon="2.06287">
        <ele>200.4</ele>
        <time>2026-03-29T15:25:41Z</time>
      </trkpt>
      <trkpt lat="48.65055" lon="2.06291">
        <ele>200.8</ele>
        <time>2026-03-29T15:25:42Z</time>
      </trkpt>
      <trkpt lat="48.65056" lon="2.06296">
        <ele>200.8</ele>
        <time>2026-03-29T15:25:43Z</time>
      </trkpt>
      <trkpt lat="48.65057" lon="2.06301">
        <ele>200.8</ele>
        <time>2026-03-29T15:25:44Z</time>
      </trkpt>
      <trkpt lat="48.65058" lon="2.06307">
        <ele>200.8</ele>
        <time>2026-03-29T15:25:45Z</time>
      </trkpt>
      <trkpt lat="48.65058" lon="2.06313">
        <ele>200.6</ele>
        <time>2026-03-29T15:25:46Z</time>
      </trkpt>
      <trkpt lat="48.65059" lon="2.06319">
        <ele>200.6</ele>
        <time>2026-03-29T15:25:47Z</time>
      </trkpt>
      <trkpt lat="48.6506" lon="2.06324">
        <ele>200.6</ele>
        <time>2026-03-29T15:25:48Z</time>
      </trkpt>
      <trkpt lat="48.6506" lon="2.06331">
        <ele>200.6</ele>
        <time>2026-03-29T15:25:49Z</time>
      </trkpt>
      <trkpt lat="48.65061" lon="2.06337">
        <ele>200</ele>
        <time>2026-03-29T15:25:50Z</time>
      </trkpt>
      <trkpt lat="48.65061" lon="2.06343">
        <ele>200</ele>
        <time>2026-03-29T15:25:51Z</time>
      </trkpt>
      <trkpt lat="48.65062" lon="2.0635">
        <ele>200</ele>
        <time>2026-03-29T15:25:52Z</time>
      </trkpt>
      <trkpt lat="48.65062" lon="2.06357">
        <ele>200.6</ele>
        <time>2026-03-29T15:25:53Z</time>
      </trkpt>
      <trkpt lat="48.65063" lon="2.06364">
        <ele>201</ele>
        <time>2026-03-29T15:25:54Z</time>
      </trkpt>
      <trkpt lat="48.65063" lon="2.06371">
        <ele>201</ele>
        <time>2026-03-29T15:25:55Z</time>
      </trkpt>
      <trkpt lat="48.65064" lon="2.06378">
        <ele>201</ele>
        <time>2026-03-29T15:25:56Z</time>
      </trkpt>
      <trkpt lat="48.65064" lon="2.06385">
        <ele>201</ele>
        <time>2026-03-29T15:25:57Z</time>
      </trkpt>
      <trkpt lat="48.65065" lon="2.06392">
        <ele>201</ele>
        <time>2026-03-29T15:25:58Z</time>
      </trkpt>
      <trkpt lat="48.65065" lon="2.06399">
        <ele>201</ele>
        <time>2026-03-29T15:25:59Z</time>
      </trkpt>
      <trkpt lat="48.65066" lon="2.06407">
        <ele>201</ele>
        <time>2026-03-29T15:26:00Z</time>
      </trkpt>
      <trkpt lat="48.65066" lon="2.06414">
        <ele>201</ele>
        <time>2026-03-29T15:26:01Z</time>
      </trkpt>
      <trkpt lat="48.65066" lon="2.06421">
        <ele>201</ele>
        <time>2026-03-29T15:26:02Z</time>
      </trkpt>
      <trkpt lat="48.65067" lon="2.06428">
        <ele>201</ele>
        <time>2026-03-29T15:26:03Z</time>
      </trkpt>
      <trkpt lat="48.65068" lon="2.06435">
        <ele>201</ele>
        <time>2026-03-29T15:26:04Z</time>
      </trkpt>
      <trkpt lat="48.65069" lon="2.06442">
        <ele>202</ele>
        <time>2026-03-29T15:26:05Z</time>
      </trkpt>
      <trkpt lat="48.6507" lon="2.06448">
        <ele>201</ele>
        <time>2026-03-29T15:26:06Z</time>
      </trkpt>
      <trkpt lat="48.65071" lon="2.06455">
        <ele>201</ele>
        <time>2026-03-29T15:26:07Z</time>
      </trkpt>
      <trkpt lat="48.65071" lon="2.06461">
        <ele>201</ele>
        <time>2026-03-29T15:26:08Z</time>
      </trkpt>
      <trkpt lat="48.65072" lon="2.06467">
        <ele>200.8</ele>
        <time>2026-03-29T15:26:09Z</time>
      </trkpt>
      <trkpt lat="48.65073" lon="2.06474">
        <ele>201</ele>
        <time>2026-03-29T15:26:10Z</time>
      </trkpt>
      <trkpt lat="48.65073" lon="2.06481">
        <ele>201</ele>
        <time>2026-03-29T15:26:11Z</time>
      </trkpt>
      <trkpt lat="48.65074" lon="2.06488">
        <ele>201</ele>
        <time>2026-03-29T15:26:12Z</time>
      </trkpt>
      <trkpt lat="48.65075" lon="2.06495">
        <ele>201</ele>
        <time>2026-03-29T15:26:13Z</time>
      </trkpt>
      <trkpt lat="48.65076" lon="2.06502">
        <ele>200.6</ele>
        <time>2026-03-29T15:26:14Z</time>
      </trkpt>
      <trkpt lat="48.65076" lon="2.06509">
        <ele>200.6</ele>
        <time>2026-03-29T15:26:15Z</time>
      </trkpt>
      <trkpt lat="48.65077" lon="2.06516">
        <ele>200.6</ele>
        <time>2026-03-29T15:26:16Z</time>
      </trkpt>
      <trkpt lat="48.65078" lon="2.06524">
        <ele>200.6</ele>
        <time>2026-03-29T15:26:17Z</time>
      </trkpt>
      <trkpt lat="48.65079" lon="2.06531">
        <ele>200.8</ele>
        <time>2026-03-29T15:26:18Z</time>
      </trkpt>
      <trkpt lat="48.65079" lon="2.06539">
        <ele>200.8</ele>
        <time>2026-03-29T15:26:19Z</time>
      </trkpt>
      <trkpt lat="48.6508" lon="2.06546">
        <ele>200.8</ele>
        <time>2026-03-29T15:26:20Z</time>
      </trkpt>
      <trkpt lat="48.6508" lon="2.06554">
        <ele>200.8</ele>
        <time>2026-03-29T15:26:21Z</time>
      </trkpt>
      <trkpt lat="48.6508" lon="2.06561">
        <ele>200.4</ele>
        <time>2026-03-29T15:26:22Z</time>
      </trkpt>
      <trkpt lat="48.6508" lon="2.06569">
        <ele>200.4</ele>
        <time>2026-03-29T15:26:23Z</time>
      </trkpt>
      <trkpt lat="48.6508" lon="2.06577">
        <ele>200.4</ele>
        <time>2026-03-29T15:26:24Z</time>
      </trkpt>
      <trkpt lat="48.6508" lon="2.06585">
        <ele>200.4</ele>
        <time>2026-03-29T15:26:25Z</time>
      </trkpt>
      <trkpt lat="48.6508" lon="2.06592">
        <ele>200.4</ele>
        <time>2026-03-29T15:26:26Z</time>
      </trkpt>
      <trkpt lat="48.6508" lon="2.066">
        <ele>200.4</ele>
        <time>2026-03-29T15:26:27Z</time>
      </trkpt>
      <trkpt lat="48.6508" lon="2.06608">
        <ele>200.4</ele>
        <time>2026-03-29T15:26:28Z</time>
      </trkpt>
      <trkpt lat="48.6508" lon="2.06615">
        <ele>200.4</ele>
        <time>2026-03-29T15:26:29Z</time>
      </trkpt>
      <trkpt lat="48.6508" lon="2.06623">
        <ele>200.2</ele>
        <time>2026-03-29T15:26:30Z</time>
      </trkpt>
      <trkpt lat="48.6508" lon="2.06631">
        <ele>200.2</ele>
        <time>2026-03-29T15:26:31Z</time>
      </trkpt>
      <trkpt lat="48.6508" lon="2.06638">
        <ele>200.2</ele>
        <time>2026-03-29T15:26:32Z</time>
      </trkpt>
      <trkpt lat="48.6508" lon="2.06646">
        <ele>200.4</ele>
        <time>2026-03-29T15:26:33Z</time>
      </trkpt>
      <trkpt lat="48.6508" lon="2.06654">
        <ele>200.2</ele>
        <time>2026-03-29T15:26:34Z</time>
      </trkpt>
      <trkpt lat="48.6508" lon="2.06662">
        <ele>200.2</ele>
        <time>2026-03-29T15:26:35Z</time>
      </trkpt>
      <trkpt lat="48.6508" lon="2.0667">
        <ele>200.2</ele>
        <time>2026-03-29T15:26:36Z</time>
      </trkpt>
      <trkpt lat="48.6508" lon="2.06678">
        <ele>200.2</ele>
        <time>2026-03-29T15:26:37Z</time>
      </trkpt>
      <trkpt lat="48.65081" lon="2.06686">
        <ele>200.8</ele>
        <time>2026-03-29T15:26:38Z</time>
      </trkpt>
      <trkpt lat="48.65081" lon="2.06695">
        <ele>200.8</ele>
        <time>2026-03-29T15:26:39Z</time>
      </trkpt>
      <trkpt lat="48.65081" lon="2.06703">
        <ele>200.8</ele>
        <time>2026-03-29T15:26:40Z</time>
      </trkpt>
      <trkpt lat="48.65081" lon="2.06712">
        <ele>200.6</ele>
        <time>2026-03-29T15:26:41Z</time>
      </trkpt>
      <trkpt lat="48.65081" lon="2.0672">
        <ele>200.6</ele>
        <time>2026-03-29T15:26:42Z</time>
      </trkpt>
      <trkpt lat="48.65081" lon="2.06729">
        <ele>200.6</ele>
        <time>2026-03-29T15:26:43Z</time>
      </trkpt>
      <trkpt lat="48.65081" lon="2.06737">
        <ele>200.6</ele>
        <time>2026-03-29T15:26:44Z</time>
      </trkpt>
      <trkpt lat="48.65081" lon="2.06746">
        <ele>200.2</ele>
        <time>2026-03-29T15:26:45Z</time>
      </trkpt>
      <trkpt lat="48.6508" lon="2.06755">
        <ele>199.2</ele>
        <time>2026-03-29T15:26:46Z</time>
      </trkpt>
      <trkpt lat="48.65079" lon="2.06764">
        <ele>199.2</ele>
        <time>2026-03-29T15:26:47Z</time>
      </trkpt>
      <trkpt lat="48.65079" lon="2.06773">
        <ele>199.2</ele>
        <time>2026-03-29T15:26:48Z</time>
      </trkpt>
      <trkpt lat="48.65079" lon="2.06782">
        <ele>200</ele>
        <time>2026-03-29T15:26:49Z</time>
      </trkpt>
      <trkpt lat="48.6508" lon="2.06791">
        <ele>199.2</ele>
        <time>2026-03-29T15:26:50Z</time>
      </trkpt>
      <trkpt lat="48.6508" lon="2.068">
        <ele>199.2</ele>
        <time>2026-03-29T15:26:51Z</time>
      </trkpt>
      <trkpt lat="48.6508" lon="2.06809">
        <ele>199.2</ele>
        <time>2026-03-29T15:26:52Z</time>
      </trkpt>
      <trkpt lat="48.6508" lon="2.06818">
        <ele>199.6</ele>
        <time>2026-03-29T15:26:53Z</time>
      </trkpt>
      <trkpt lat="48.65079" lon="2.06826">
        <ele>199.6</ele>
        <time>2026-03-29T15:26:54Z</time>
      </trkpt>
      <trkpt lat="48.65079" lon="2.06835">
        <ele>199.6</ele>
        <time>2026-03-29T15:26:55Z</time>
      </trkpt>
      <trkpt lat="48.65079" lon="2.06843">
        <ele>199.6</ele>
        <time>2026-03-29T15:26:56Z</time>
      </trkpt>
      <trkpt lat="48.65078" lon="2.06851">
        <ele>199.6</ele>
        <time>2026-03-29T15:26:57Z</time>
      </trkpt>
      <trkpt lat="48.65077" lon="2.06858">
        <ele>199.8</ele>
        <time>2026-03-29T15:26:58Z</time>
      </trkpt>
      <trkpt lat="48.65075" lon="2.06866">
        <ele>199.8</ele>
        <time>2026-03-29T15:26:59Z</time>
      </trkpt>
      <trkpt lat="48.65072" lon="2.06872">
        <ele>199.8</ele>
        <time>2026-03-29T15:27:00Z</time>
      </trkpt>
      <trkpt lat="48.65068" lon="2.06877">
        <ele>200.6</ele>
        <time>2026-03-29T15:27:01Z</time>
      </trkpt>
      <trkpt lat="48.65064" lon="2.0688">
        <ele>199.8</ele>
        <time>2026-03-29T15:27:02Z</time>
      </trkpt>
      <trkpt lat="48.65059" lon="2.06881">
        <ele>199.8</ele>
        <time>2026-03-29T15:27:03Z</time>
      </trkpt>
      <trkpt lat="48.65054" lon="2.0688">
        <ele>199.8</ele>
        <time>2026-03-29T15:27:04Z</time>
      </trkpt>
      <trkpt lat="48.6505" lon="2.06879">
        <ele>200.4</ele>
        <time>2026-03-29T15:27:05Z</time>
      </trkpt>
      <trkpt lat="48.65045" lon="2.06877">
        <ele>200.4</ele>
        <time>2026-03-29T15:27:06Z</time>
      </trkpt>
      <trkpt lat="48.65041" lon="2.06874">
        <ele>200.4</ele>
        <time>2026-03-29T15:27:07Z</time>
      </trkpt>
      <trkpt lat="48.65036" lon="2.06872">
        <ele>200.4</ele>
        <time>2026-03-29T15:27:08Z</time>
      </trkpt>
      <trkpt lat="48.65033" lon="2.06868">
        <ele>200.2</ele>
        <time>2026-03-29T15:27:09Z</time>
      </trkpt>
      <trkpt lat="48.65028" lon="2.06864">
        <ele>199.8</ele>
        <time>2026-03-29T15:27:10Z</time>
      </trkpt>
      <trkpt lat="48.65023" lon="2.06859">
        <ele>199.8</ele>
        <time>2026-03-29T15:27:11Z</time>
      </trkpt>
      <trkpt lat="48.65018" lon="2.06855">
        <ele>199.8</ele>
        <time>2026-03-29T15:27:12Z</time>
      </trkpt>
      <trkpt lat="48.65013" lon="2.0685">
        <ele>198.8</ele>
        <time>2026-03-29T15:27:13Z</time>
      </trkpt>
      <trkpt lat="48.65008" lon="2.06845">
        <ele>197.6</ele>
        <time>2026-03-29T15:27:14Z</time>
      </trkpt>
      <trkpt lat="48.65002" lon="2.06841">
        <ele>197.6</ele>
        <time>2026-03-29T15:27:15Z</time>
      </trkpt>
      <trkpt lat="48.64995" lon="2.06837">
        <ele>197.6</ele>
        <time>2026-03-29T15:27:16Z</time>
      </trkpt>
      <trkpt lat="48.64985" lon="2.06834">
        <ele>196.6</ele>
        <time>2026-03-29T15:27:17Z</time>
      </trkpt>
      <trkpt lat="48.64976" lon="2.06827">
        <ele>194.4</ele>
        <time>2026-03-29T15:27:18Z</time>
      </trkpt>
      <trkpt lat="48.64968" lon="2.06821">
        <ele>194.4</ele>
        <time>2026-03-29T15:27:19Z</time>
      </trkpt>
      <trkpt lat="48.6496" lon="2.06814">
        <ele>194.4</ele>
        <time>2026-03-29T15:27:20Z</time>
      </trkpt>
      <trkpt lat="48.64952" lon="2.06807">
        <ele>194.4</ele>
        <time>2026-03-29T15:27:21Z</time>
      </trkpt>
      <trkpt lat="48.64945" lon="2.06801">
        <ele>194.4</ele>
        <time>2026-03-29T15:27:22Z</time>
      </trkpt>
      <trkpt lat="48.64937" lon="2.06795">
        <ele>194.4</ele>
        <time>2026-03-29T15:27:23Z</time>
      </trkpt>
      <trkpt lat="48.6493" lon="2.06788">
        <ele>194.4</ele>
        <time>2026-03-29T15:27:24Z</time>
      </trkpt>
      <trkpt lat="48.64923" lon="2.06783">
        <ele>194.4</ele>
        <time>2026-03-29T15:27:25Z</time>
      </trkpt>
      <trkpt lat="48.64916" lon="2.06776">
        <ele>193.8</ele>
        <time>2026-03-29T15:27:26Z</time>
      </trkpt>
      <trkpt lat="48.64909" lon="2.06769">
        <ele>193.8</ele>
        <time>2026-03-29T15:27:27Z</time>
      </trkpt>
      <trkpt lat="48.64902" lon="2.06763">
        <ele>193.8</ele>
        <time>2026-03-29T15:27:28Z</time>
      </trkpt>
      <trkpt lat="48.64896" lon="2.06757">
        <ele>193.8</ele>
        <time>2026-03-29T15:27:29Z</time>
      </trkpt>
      <trkpt lat="48.64889" lon="2.06751">
        <ele>193.8</ele>
        <time>2026-03-29T15:27:30Z</time>
      </trkpt>
      <trkpt lat="48.64882" lon="2.06746">
        <ele>193.8</ele>
        <time>2026-03-29T15:27:31Z</time>
      </trkpt>
      <trkpt lat="48.64875" lon="2.0674">
        <ele>193.8</ele>
        <time>2026-03-29T15:27:32Z</time>
      </trkpt>
      <trkpt lat="48.64869" lon="2.06734">
        <ele>193.8</ele>
        <time>2026-03-29T15:27:33Z</time>
      </trkpt>
      <trkpt lat="48.64862" lon="2.06728">
        <ele>193.6</ele>
        <time>2026-03-29T15:27:34Z</time>
      </trkpt>
      <trkpt lat="48.64856" lon="2.06723">
        <ele>193.6</ele>
        <time>2026-03-29T15:27:35Z</time>
      </trkpt>
      <trkpt lat="48.6485" lon="2.06718">
        <ele>193.6</ele>
        <time>2026-03-29T15:27:36Z</time>
      </trkpt>
      <trkpt lat="48.64844" lon="2.06714">
        <ele>193.6</ele>
        <time>2026-03-29T15:27:37Z</time>
      </trkpt>
      <trkpt lat="48.64837" lon="2.06712">
        <ele>192.8</ele>
        <time>2026-03-29T15:27:38Z</time>
      </trkpt>
      <trkpt lat="48.64831" lon="2.06709">
        <ele>192.8</ele>
        <time>2026-03-29T15:27:39Z</time>
      </trkpt>
      <trkpt lat="48.64825" lon="2.06705">
        <ele>192.8</ele>
        <time>2026-03-29T15:27:40Z</time>
      </trkpt>
      <trkpt lat="48.64819" lon="2.06702">
        <ele>192.8</ele>
        <time>2026-03-29T15:27:41Z</time>
      </trkpt>
      <trkpt lat="48.64813" lon="2.06698">
        <ele>192.8</ele>
        <time>2026-03-29T15:27:42Z</time>
      </trkpt>
      <trkpt lat="48.64807" lon="2.06695">
        <ele>192.8</ele>
        <time>2026-03-29T15:27:43Z</time>
      </trkpt>
      <trkpt lat="48.64802" lon="2.0669">
        <ele>192.8</ele>
        <time>2026-03-29T15:27:44Z</time>
      </trkpt>
      <trkpt lat="48.64796" lon="2.06685">
        <ele>192.8</ele>
        <time>2026-03-29T15:27:45Z</time>
      </trkpt>
      <trkpt lat="48.64791" lon="2.0668">
        <ele>193.4</ele>
        <time>2026-03-29T15:27:46Z</time>
      </trkpt>
      <trkpt lat="48.64785" lon="2.06675">
        <ele>193.4</ele>
        <time>2026-03-29T15:27:47Z</time>
      </trkpt>
      <trkpt lat="48.6478" lon="2.0667">
        <ele>193.4</ele>
        <time>2026-03-29T15:27:48Z</time>
      </trkpt>
      <trkpt lat="48.64775" lon="2.06666">
        <ele>193.2</ele>
        <time>2026-03-29T15:27:49Z</time>
      </trkpt>
      <trkpt lat="48.64769" lon="2.06662">
        <ele>192.8</ele>
        <time>2026-03-29T15:27:50Z</time>
      </trkpt>
      <trkpt lat="48.64764" lon="2.06657">
        <ele>192.8</ele>
        <time>2026-03-29T15:27:51Z</time>
      </trkpt>
      <trkpt lat="48.64759" lon="2.06653">
        <ele>192.8</ele>
        <time>2026-03-29T15:27:52Z</time>
      </trkpt>
      <trkpt lat="48.64753" lon="2.06649">
        <ele>193.4</ele>
        <time>2026-03-29T15:27:53Z</time>
      </trkpt>
      <trkpt lat="48.64748" lon="2.06645">
        <ele>193.2</ele>
        <time>2026-03-29T15:27:54Z</time>
      </trkpt>
      <trkpt lat="48.64743" lon="2.06641">
        <ele>193.2</ele>
        <time>2026-03-29T15:27:55Z</time>
      </trkpt>
      <trkpt lat="48.64738" lon="2.06636">
        <ele>193.2</ele>
        <time>2026-03-29T15:27:56Z</time>
      </trkpt>
      <trkpt lat="48.64733" lon="2.06632">
        <ele>192.6</ele>
        <time>2026-03-29T15:27:57Z</time>
      </trkpt>
      <trkpt lat="48.64728" lon="2.06628">
        <ele>193.2</ele>
        <time>2026-03-29T15:27:58Z</time>
      </trkpt>
      <trkpt lat="48.64724" lon="2.06624">
        <ele>193.2</ele>
        <time>2026-03-29T15:27:59Z</time>
      </trkpt>
      <trkpt lat="48.64719" lon="2.0662">
        <ele>193.2</ele>
        <time>2026-03-29T15:28:00Z</time>
      </trkpt>
      <trkpt lat="48.64714" lon="2.06616">
        <ele>193.2</ele>
        <time>2026-03-29T15:28:01Z</time>
      </trkpt>
      <trkpt lat="48.64709" lon="2.06612">
        <ele>192</ele>
        <time>2026-03-29T15:28:02Z</time>
      </trkpt>
      <trkpt lat="48.64704" lon="2.06608">
        <ele>192</ele>
        <time>2026-03-29T15:28:03Z</time>
      </trkpt>
      <trkpt lat="48.64699" lon="2.06605">
        <ele>192</ele>
        <time>2026-03-29T15:28:04Z</time>
      </trkpt>
      <trkpt lat="48.64694" lon="2.06601">
        <ele>192.4</ele>
        <time>2026-03-29T15:28:05Z</time>
      </trkpt>
      <trkpt lat="48.6469" lon="2.06596">
        <ele>192.4</ele>
        <time>2026-03-29T15:28:06Z</time>
      </trkpt>
      <trkpt lat="48.64686" lon="2.06592">
        <ele>192.4</ele>
        <time>2026-03-29T15:28:07Z</time>
      </trkpt>
      <trkpt lat="48.64681" lon="2.06588">
        <ele>192.4</ele>
        <time>2026-03-29T15:28:08Z</time>
      </trkpt>
      <trkpt lat="48.64676" lon="2.06585">
        <ele>192.4</ele>
        <time>2026-03-29T15:28:09Z</time>
      </trkpt>
      <trkpt lat="48.64671" lon="2.06581">
        <ele>192.2</ele>
        <time>2026-03-29T15:28:10Z</time>
      </trkpt>
      <trkpt lat="48.64665" lon="2.06576">
        <ele>192.2</ele>
        <time>2026-03-29T15:28:11Z</time>
      </trkpt>
      <trkpt lat="48.64659" lon="2.06572">
        <ele>192.2</ele>
        <time>2026-03-29T15:28:12Z</time>
      </trkpt>
      <trkpt lat="48.64653" lon="2.06567">
        <ele>191.2</ele>
        <time>2026-03-29T15:28:13Z</time>
      </trkpt>
      <trkpt lat="48.64647" lon="2.06561">
        <ele>190.6</ele>
        <time>2026-03-29T15:28:14Z</time>
      </trkpt>
      <trkpt lat="48.6464" lon="2.06555">
        <ele>190.6</ele>
        <time>2026-03-29T15:28:15Z</time>
      </trkpt>
      <trkpt lat="48.64633" lon="2.06549">
        <ele>190.6</ele>
        <time>2026-03-29T15:28:16Z</time>
      </trkpt>
      <trkpt lat="48.64627" lon="2.06542">
        <ele>190.6</ele>
        <time>2026-03-29T15:28:17Z</time>
      </trkpt>
      <trkpt lat="48.6462" lon="2.06535">
        <ele>190.2</ele>
        <time>2026-03-29T15:28:18Z</time>
      </trkpt>
      <trkpt lat="48.64613" lon="2.06527">
        <ele>190.2</ele>
        <time>2026-03-29T15:28:19Z</time>
      </trkpt>
      <trkpt lat="48.64607" lon="2.06519">
        <ele>190.2</ele>
        <time>2026-03-29T15:28:20Z</time>
      </trkpt>
      <trkpt lat="48.64601" lon="2.06512">
        <ele>190.2</ele>
        <time>2026-03-29T15:28:21Z</time>
      </trkpt>
      <trkpt lat="48.64595" lon="2.06503">
        <ele>188</ele>
        <time>2026-03-29T15:28:22Z</time>
      </trkpt>
      <trkpt lat="48.6459" lon="2.06492">
        <ele>188</ele>
        <time>2026-03-29T15:28:23Z</time>
      </trkpt>
      <trkpt lat="48.64585" lon="2.06481">
        <ele>188</ele>
        <time>2026-03-29T15:28:24Z</time>
      </trkpt>
      <trkpt lat="48.6458" lon="2.06471">
        <ele>187</ele>
        <time>2026-03-29T15:28:25Z</time>
      </trkpt>
      <trkpt lat="48.64573" lon="2.06462">
        <ele>185.2</ele>
        <time>2026-03-29T15:28:26Z</time>
      </trkpt>
      <trkpt lat="48.64566" lon="2.06456">
        <ele>185.2</ele>
        <time>2026-03-29T15:28:27Z</time>
      </trkpt>
      <trkpt lat="48.64559" lon="2.0645">
        <ele>185.2</ele>
        <time>2026-03-29T15:28:28Z</time>
      </trkpt>
      <trkpt lat="48.64552" lon="2.06445">
        <ele>185.8</ele>
        <time>2026-03-29T15:28:29Z</time>
      </trkpt>
      <trkpt lat="48.64545" lon="2.0644">
        <ele>186</ele>
        <time>2026-03-29T15:28:30Z</time>
      </trkpt>
      <trkpt lat="48.64539" lon="2.06435">
        <ele>186</ele>
        <time>2026-03-29T15:28:31Z</time>
      </trkpt>
      <trkpt lat="48.64533" lon="2.0643">
        <ele>186</ele>
        <time>2026-03-29T15:28:32Z</time>
      </trkpt>
      <trkpt lat="48.64528" lon="2.06426">
        <ele>186</ele>
        <time>2026-03-29T15:28:33Z</time>
      </trkpt>
      <trkpt lat="48.64522" lon="2.06421">
        <ele>185.8</ele>
        <time>2026-03-29T15:28:34Z</time>
      </trkpt>
      <trkpt lat="48.64517" lon="2.06417">
        <ele>185.8</ele>
        <time>2026-03-29T15:28:35Z</time>
      </trkpt>
      <trkpt lat="48.64512" lon="2.06414">
        <ele>185.8</ele>
        <time>2026-03-29T15:28:36Z</time>
      </trkpt>
      <trkpt lat="48.64508" lon="2.0641">
        <ele>185.8</ele>
        <time>2026-03-29T15:28:37Z</time>
      </trkpt>
      <trkpt lat="48.64503" lon="2.06408">
        <ele>185</ele>
        <time>2026-03-29T15:28:38Z</time>
      </trkpt>
      <trkpt lat="48.645" lon="2.06408">
        <ele>185</ele>
        <time>2026-03-29T15:28:39Z</time>
      </trkpt>
      <trkpt lat="48.64497" lon="2.06412">
        <ele>185</ele>
        <time>2026-03-29T15:28:40Z</time>
      </trkpt>
      <trkpt lat="48.64497" lon="2.06415">
        <ele>185</ele>
        <time>2026-03-29T15:28:41Z</time>
      </trkpt>
      <trkpt lat="48.64496" lon="2.06417">
        <ele>184.6</ele>
        <time>2026-03-29T15:28:42Z</time>
      </trkpt>
      <trkpt lat="48.64494" lon="2.06419">
        <ele>184.6</ele>
        <time>2026-03-29T15:28:43Z</time>
      </trkpt>
      <trkpt lat="48.64491" lon="2.06419">
        <ele>184.6</ele>
        <time>2026-03-29T15:28:44Z</time>
      </trkpt>
      <trkpt lat="48.64489" lon="2.06419">
        <ele>185</ele>
        <time>2026-03-29T15:28:45Z</time>
      </trkpt>
      <trkpt lat="48.64489" lon="2.06422">
        <ele>184.6</ele>
        <time>2026-03-29T15:28:46Z</time>
      </trkpt>
      <trkpt lat="48.64488" lon="2.06426">
        <ele>184.6</ele>
        <time>2026-03-29T15:28:47Z</time>
      </trkpt>
      <trkpt lat="48.64488" lon="2.06428">
        <ele>184.6</ele>
        <time>2026-03-29T15:28:48Z</time>
      </trkpt>
      <trkpt lat="48.64488" lon="2.0643">
        <ele>184.2</ele>
        <time>2026-03-29T15:28:49Z</time>
      </trkpt>
      <trkpt lat="48.64486" lon="2.06431">
        <ele>184.4</ele>
        <time>2026-03-29T15:28:50Z</time>
      </trkpt>
      <trkpt lat="48.64484" lon="2.06432">
        <ele>184.4</ele>
        <time>2026-03-29T15:28:51Z</time>
      </trkpt>
      <trkpt lat="48.64481" lon="2.06432">
        <ele>184.4</ele>
        <time>2026-03-29T15:28:52Z</time>
      </trkpt>
      <trkpt lat="48.64479" lon="2.06432">
        <ele>184.4</ele>
        <time>2026-03-29T15:28:53Z</time>
      </trkpt>
      <trkpt lat="48.64476" lon="2.06432">
        <ele>184.8</ele>
        <time>2026-03-29T15:28:54Z</time>
      </trkpt>
      <trkpt lat="48.64473" lon="2.06431">
        <ele>184.8</ele>
        <time>2026-03-29T15:28:55Z</time>
      </trkpt>
      <trkpt lat="48.6447" lon="2.06429">
        <ele>184.8</ele>
        <time>2026-03-29T15:28:56Z</time>
      </trkpt>
      <trkpt lat="48.64468" lon="2.06427">
        <ele>185.6</ele>
        <time>2026-03-29T15:28:57Z</time>
      </trkpt>
      <trkpt lat="48.64465" lon="2.06424">
        <ele>185.8</ele>
        <time>2026-03-29T15:28:58Z</time>
      </trkpt>
      <trkpt lat="48.64462" lon="2.06422">
        <ele>185.8</ele>
        <time>2026-03-29T15:28:59Z</time>
      </trkpt>
      <trkpt lat="48.64459" lon="2.0642">
        <ele>185.8</ele>
        <time>2026-03-29T15:29:00Z</time>
      </trkpt>
      <trkpt lat="48.64456" lon="2.06418">
        <ele>185.8</ele>
        <time>2026-03-29T15:29:01Z</time>
      </trkpt>
      <trkpt lat="48.64453" lon="2.06416">
        <ele>186.8</ele>
        <time>2026-03-29T15:29:02Z</time>
      </trkpt>
      <trkpt lat="48.6445" lon="2.06413">
        <ele>186.8</ele>
        <time>2026-03-29T15:29:03Z</time>
      </trkpt>
      <trkpt lat="48.64448" lon="2.06411">
        <ele>186.8</ele>
        <time>2026-03-29T15:29:04Z</time>
      </trkpt>
      <trkpt lat="48.64445" lon="2.06409">
        <ele>186.8</ele>
        <time>2026-03-29T15:29:05Z</time>
      </trkpt>
      <trkpt lat="48.64442" lon="2.06406">
        <ele>189</ele>
        <time>2026-03-29T15:29:06Z</time>
      </trkpt>
      <trkpt lat="48.64439" lon="2.06404">
        <ele>189</ele>
        <time>2026-03-29T15:29:07Z</time>
      </trkpt>
      <trkpt lat="48.64437" lon="2.06401">
        <ele>189</ele>
        <time>2026-03-29T15:29:08Z</time>
      </trkpt>
      <trkpt lat="48.64434" lon="2.06399">
        <ele>189</ele>
        <time>2026-03-29T15:29:09Z</time>
      </trkpt>
      <trkpt lat="48.64431" lon="2.06397">
        <ele>189.2</ele>
        <time>2026-03-29T15:29:10Z</time>
      </trkpt>
      <trkpt lat="48.64428" lon="2.06395">
        <ele>189.2</ele>
        <time>2026-03-29T15:29:11Z</time>
      </trkpt>
      <trkpt lat="48.64425" lon="2.06392">
        <ele>189.2</ele>
        <time>2026-03-29T15:29:12Z</time>
      </trkpt>
      <trkpt lat="48.64423" lon="2.0639">
        <ele>189.6</ele>
        <time>2026-03-29T15:29:13Z</time>
      </trkpt>
      <trkpt lat="48.64419" lon="2.06388">
        <ele>190</ele>
        <time>2026-03-29T15:29:14Z</time>
      </trkpt>
      <trkpt lat="48.64417" lon="2.06387">
        <ele>190</ele>
        <time>2026-03-29T15:29:15Z</time>
      </trkpt>
      <trkpt lat="48.64414" lon="2.06385">
        <ele>190</ele>
        <time>2026-03-29T15:29:16Z</time>
      </trkpt>
      <trkpt lat="48.64411" lon="2.06383">
        <ele>190.2</ele>
        <time>2026-03-29T15:29:17Z</time>
      </trkpt>
      <trkpt lat="48.64408" lon="2.0638">
        <ele>190.8</ele>
        <time>2026-03-29T15:29:18Z</time>
      </trkpt>
      <trkpt lat="48.64404" lon="2.06378">
        <ele>190.8</ele>
        <time>2026-03-29T15:29:19Z</time>
      </trkpt>
      <trkpt lat="48.64401" lon="2.06376">
        <ele>190.8</ele>
        <time>2026-03-29T15:29:20Z</time>
      </trkpt>
      <trkpt lat="48.64398" lon="2.06374">
        <ele>191.6</ele>
        <time>2026-03-29T15:29:21Z</time>
      </trkpt>
      <trkpt lat="48.64395" lon="2.06371">
        <ele>191.8</ele>
        <time>2026-03-29T15:29:22Z</time>
      </trkpt>
      <trkpt lat="48.64392" lon="2.06369">
        <ele>191.8</ele>
        <time>2026-03-29T15:29:23Z</time>
      </trkpt>
      <trkpt lat="48.64389" lon="2.06366">
        <ele>191.8</ele>
        <time>2026-03-29T15:29:24Z</time>
      </trkpt>
      <trkpt lat="48.64385" lon="2.06364">
        <ele>191.6</ele>
        <time>2026-03-29T15:29:25Z</time>
      </trkpt>
      <trkpt lat="48.64382" lon="2.06361">
        <ele>192.2</ele>
        <time>2026-03-29T15:29:26Z</time>
      </trkpt>
      <trkpt lat="48.64379" lon="2.06359">
        <ele>192.2</ele>
        <time>2026-03-29T15:29:27Z</time>
      </trkpt>
      <trkpt lat="48.64376" lon="2.06356">
        <ele>192.2</ele>
        <time>2026-03-29T15:29:28Z</time>
      </trkpt>
      <trkpt lat="48.64373" lon="2.06354">
        <ele>191.2</ele>
        <time>2026-03-29T15:29:29Z</time>
      </trkpt>
      <trkpt lat="48.6437" lon="2.0635">
        <ele>191.6</ele>
        <time>2026-03-29T15:29:30Z</time>
      </trkpt>
      <trkpt lat="48.64367" lon="2.06347">
        <ele>191.6</ele>
        <time>2026-03-29T15:29:31Z</time>
      </trkpt>
      <trkpt lat="48.64364" lon="2.06344">
        <ele>191.6</ele>
        <time>2026-03-29T15:29:32Z</time>
      </trkpt>
      <trkpt lat="48.64361" lon="2.06341">
        <ele>191.6</ele>
        <time>2026-03-29T15:29:33Z</time>
      </trkpt>
      <trkpt lat="48.64358" lon="2.06337">
        <ele>191.8</ele>
        <time>2026-03-29T15:29:34Z</time>
      </trkpt>
      <trkpt lat="48.64355" lon="2.06334">
        <ele>191.8</ele>
        <time>2026-03-29T15:29:35Z</time>
      </trkpt>
      <trkpt lat="48.64352" lon="2.06331">
        <ele>191.8</ele>
        <time>2026-03-29T15:29:36Z</time>
      </trkpt>
      <trkpt lat="48.64349" lon="2.06328">
        <ele>192.2</ele>
        <time>2026-03-29T15:29:37Z</time>
      </trkpt>
      <trkpt lat="48.64345" lon="2.06325">
        <ele>192.8</ele>
        <time>2026-03-29T15:29:38Z</time>
      </trkpt>
      <trkpt lat="48.64342" lon="2.06321">
        <ele>192.8</ele>
        <time>2026-03-29T15:29:39Z</time>
      </trkpt>
      <trkpt lat="48.64339" lon="2.06318">
        <ele>192.8</ele>
        <time>2026-03-29T15:29:40Z</time>
      </trkpt>
      <trkpt lat="48.64335" lon="2.06315">
        <ele>192.8</ele>
        <time>2026-03-29T15:29:41Z</time>
      </trkpt>
      <trkpt lat="48.64332" lon="2.06311">
        <ele>192.8</ele>
        <time>2026-03-29T15:29:42Z</time>
      </trkpt>
      <trkpt lat="48.64329" lon="2.06308">
        <ele>192.8</ele>
        <time>2026-03-29T15:29:43Z</time>
      </trkpt>
      <trkpt lat="48.64325" lon="2.06305">
        <ele>192.8</ele>
        <time>2026-03-29T15:29:44Z</time>
      </trkpt>
      <trkpt lat="48.64322" lon="2.06301">
        <ele>193.6</ele>
        <time>2026-03-29T15:29:45Z</time>
      </trkpt>
      <trkpt lat="48.64318" lon="2.06298">
        <ele>192.6</ele>
        <time>2026-03-29T15:29:46Z</time>
      </trkpt>
      <trkpt lat="48.64315" lon="2.06295">
        <ele>192.6</ele>
        <time>2026-03-29T15:29:47Z</time>
      </trkpt>
      <trkpt lat="48.64311" lon="2.06292">
        <ele>192.6</ele>
        <time>2026-03-29T15:29:48Z</time>
      </trkpt>
      <trkpt lat="48.64307" lon="2.06289">
        <ele>193.6</ele>
        <time>2026-03-29T15:29:49Z</time>
      </trkpt>
      <trkpt lat="48.64303" lon="2.06286">
        <ele>193.2</ele>
        <time>2026-03-29T15:29:50Z</time>
      </trkpt>
      <trkpt lat="48.643" lon="2.06283">
        <ele>193.2</ele>
        <time>2026-03-29T15:29:51Z</time>
      </trkpt>
      <trkpt lat="48.64296" lon="2.0628">
        <ele>193.2</ele>
        <time>2026-03-29T15:29:52Z</time>
      </trkpt>
      <trkpt lat="48.64292" lon="2.06278">
        <ele>193.6</ele>
        <time>2026-03-29T15:29:53Z</time>
      </trkpt>
      <trkpt lat="48.64289" lon="2.06275">
        <ele>193.8</ele>
        <time>2026-03-29T15:29:54Z</time>
      </trkpt>
      <trkpt lat="48.64285" lon="2.06272">
        <ele>193.8</ele>
        <time>2026-03-29T15:29:55Z</time>
      </trkpt>
      <trkpt lat="48.64281" lon="2.0627">
        <ele>193.8</ele>
        <time>2026-03-29T15:29:56Z</time>
      </trkpt>
      <trkpt lat="48.64277" lon="2.06267">
        <ele>194.4</ele>
        <time>2026-03-29T15:29:57Z</time>
      </trkpt>
      <trkpt lat="48.64273" lon="2.06263">
        <ele>193.8</ele>
        <time>2026-03-29T15:29:58Z</time>
      </trkpt>
      <trkpt lat="48.64269" lon="2.0626">
        <ele>193.8</ele>
        <time>2026-03-29T15:29:59Z</time>
      </trkpt>
      <trkpt lat="48.64264" lon="2.06257">
        <ele>193.8</ele>
        <time>2026-03-29T15:30:00Z</time>
      </trkpt>
      <trkpt lat="48.6426" lon="2.06254">
        <ele>193.8</ele>
        <time>2026-03-29T15:30:01Z</time>
      </trkpt>
      <trkpt lat="48.64256" lon="2.0625">
        <ele>194</ele>
        <time>2026-03-29T15:30:02Z</time>
      </trkpt>
      <trkpt lat="48.64252" lon="2.06247">
        <ele>194</ele>
        <time>2026-03-29T15:30:03Z</time>
      </trkpt>
      <trkpt lat="48.64248" lon="2.06244">
        <ele>194</ele>
        <time>2026-03-29T15:30:04Z</time>
      </trkpt>
      <trkpt lat="48.64243" lon="2.0624">
        <ele>194.4</ele>
        <time>2026-03-29T15:30:05Z</time>
      </trkpt>
      <trkpt lat="48.64239" lon="2.06237">
        <ele>194.2</ele>
        <time>2026-03-29T15:30:06Z</time>
      </trkpt>
      <trkpt lat="48.64236" lon="2.06232">
        <ele>194.2</ele>
        <time>2026-03-29T15:30:07Z</time>
      </trkpt>
      <trkpt lat="48.64232" lon="2.06229">
        <ele>194.2</ele>
        <time>2026-03-29T15:30:08Z</time>
      </trkpt>
      <trkpt lat="48.64227" lon="2.06225">
        <ele>195</ele>
        <time>2026-03-29T15:30:09Z</time>
      </trkpt>
      <trkpt lat="48.64223" lon="2.06222">
        <ele>194.4</ele>
        <time>2026-03-29T15:30:10Z</time>
      </trkpt>
      <trkpt lat="48.64219" lon="2.06218">
        <ele>194.4</ele>
        <time>2026-03-29T15:30:11Z</time>
      </trkpt>
      <trkpt lat="48.64215" lon="2.06215">
        <ele>194.4</ele>
        <time>2026-03-29T15:30:12Z</time>
      </trkpt>
      <trkpt lat="48.64211" lon="2.06211">
        <ele>194.4</ele>
        <time>2026-03-29T15:30:13Z</time>
      </trkpt>
      <trkpt lat="48.64207" lon="2.06208">
        <ele>194.4</ele>
        <time>2026-03-29T15:30:14Z</time>
      </trkpt>
      <trkpt lat="48.64203" lon="2.06205">
        <ele>194.4</ele>
        <time>2026-03-29T15:30:15Z</time>
      </trkpt>
      <trkpt lat="48.64199" lon="2.06201">
        <ele>194.4</ele>
        <time>2026-03-29T15:30:16Z</time>
      </trkpt>
      <trkpt lat="48.64195" lon="2.06197">
        <ele>195</ele>
        <time>2026-03-29T15:30:17Z</time>
      </trkpt>
      <trkpt lat="48.64191" lon="2.06194">
        <ele>194.4</ele>
        <time>2026-03-29T15:30:18Z</time>
      </trkpt>
      <trkpt lat="48.64187" lon="2.0619">
        <ele>194.4</ele>
        <time>2026-03-29T15:30:19Z</time>
      </trkpt>
      <trkpt lat="48.64182" lon="2.06187">
        <ele>194.4</ele>
        <time>2026-03-29T15:30:20Z</time>
      </trkpt>
      <trkpt lat="48.64178" lon="2.06184">
        <ele>194.4</ele>
        <time>2026-03-29T15:30:21Z</time>
      </trkpt>
      <trkpt lat="48.64173" lon="2.06181">
        <ele>195.6</ele>
        <time>2026-03-29T15:30:22Z</time>
      </trkpt>
      <trkpt lat="48.64169" lon="2.06178">
        <ele>195.6</ele>
        <time>2026-03-29T15:30:23Z</time>
      </trkpt>
      <trkpt lat="48.64165" lon="2.06174">
        <ele>195.6</ele>
        <time>2026-03-29T15:30:24Z</time>
      </trkpt>
      <trkpt lat="48.6416" lon="2.06171">
        <ele>195.6</ele>
        <time>2026-03-29T15:30:25Z</time>
      </trkpt>
      <trkpt lat="48.64156" lon="2.06167">
        <ele>195.6</ele>
        <time>2026-03-29T15:30:26Z</time>
      </trkpt>
      <trkpt lat="48.64152" lon="2.06163">
        <ele>195.6</ele>
        <time>2026-03-29T15:30:27Z</time>
      </trkpt>
      <trkpt lat="48.64148" lon="2.06159">
        <ele>195.6</ele>
        <time>2026-03-29T15:30:28Z</time>
      </trkpt>
      <trkpt lat="48.64143" lon="2.06155">
        <ele>195.6</ele>
        <time>2026-03-29T15:30:29Z</time>
      </trkpt>
      <trkpt lat="48.64139" lon="2.06151">
        <ele>195.4</ele>
        <time>2026-03-29T15:30:30Z</time>
      </trkpt>
      <trkpt lat="48.64134" lon="2.06147">
        <ele>195.4</ele>
        <time>2026-03-29T15:30:31Z</time>
      </trkpt>
      <trkpt lat="48.64129" lon="2.06143">
        <ele>195.4</ele>
        <time>2026-03-29T15:30:32Z</time>
      </trkpt>
      <trkpt lat="48.64124" lon="2.06139">
        <ele>195.4</ele>
        <time>2026-03-29T15:30:33Z</time>
      </trkpt>
      <trkpt lat="48.64119" lon="2.06135">
        <ele>194.6</ele>
        <time>2026-03-29T15:30:34Z</time>
      </trkpt>
      <trkpt lat="48.64114" lon="2.06131">
        <ele>194.6</ele>
        <time>2026-03-29T15:30:35Z</time>
      </trkpt>
      <trkpt lat="48.6411" lon="2.06126">
        <ele>194.6</ele>
        <time>2026-03-29T15:30:36Z</time>
      </trkpt>
      <trkpt lat="48.64105" lon="2.06122">
        <ele>195</ele>
        <time>2026-03-29T15:30:37Z</time>
      </trkpt>
      <trkpt lat="48.641" lon="2.06119">
        <ele>195</ele>
        <time>2026-03-29T15:30:38Z</time>
      </trkpt>
      <trkpt lat="48.64095" lon="2.06115">
        <ele>195</ele>
        <time>2026-03-29T15:30:39Z</time>
      </trkpt>
      <trkpt lat="48.6409" lon="2.06111">
        <ele>195</ele>
        <time>2026-03-29T15:30:40Z</time>
      </trkpt>
      <trkpt lat="48.64086" lon="2.06107">
        <ele>195</ele>
        <time>2026-03-29T15:30:41Z</time>
      </trkpt>
      <trkpt lat="48.64081" lon="2.06104">
        <ele>195.2</ele>
        <time>2026-03-29T15:30:42Z</time>
      </trkpt>
      <trkpt lat="48.64076" lon="2.06099">
        <ele>195.2</ele>
        <time>2026-03-29T15:30:43Z</time>
      </trkpt>
      <trkpt lat="48.64071" lon="2.06095">
        <ele>195.2</ele>
        <time>2026-03-29T15:30:44Z</time>
      </trkpt>
      <trkpt lat="48.64066" lon="2.0609">
        <ele>195.2</ele>
        <time>2026-03-29T15:30:45Z</time>
      </trkpt>
      <trkpt lat="48.64061" lon="2.06086">
        <ele>195.2</ele>
        <time>2026-03-29T15:30:46Z</time>
      </trkpt>
      <trkpt lat="48.64056" lon="2.06081">
        <ele>195.2</ele>
        <time>2026-03-29T15:30:47Z</time>
      </trkpt>
      <trkpt lat="48.64051" lon="2.06077">
        <ele>195.2</ele>
        <time>2026-03-29T15:30:48Z</time>
      </trkpt>
      <trkpt lat="48.64046" lon="2.06072">
        <ele>195.2</ele>
        <time>2026-03-29T15:30:49Z</time>
      </trkpt>
      <trkpt lat="48.64041" lon="2.06067">
        <ele>194.8</ele>
        <time>2026-03-29T15:30:50Z</time>
      </trkpt>
      <trkpt lat="48.64035" lon="2.06062">
        <ele>194.8</ele>
        <time>2026-03-29T15:30:51Z</time>
      </trkpt>
      <trkpt lat="48.6403" lon="2.06058">
        <ele>194.8</ele>
        <time>2026-03-29T15:30:52Z</time>
      </trkpt>
      <trkpt lat="48.64025" lon="2.06053">
        <ele>194.8</ele>
        <time>2026-03-29T15:30:53Z</time>
      </trkpt>
      <trkpt lat="48.64019" lon="2.06048">
        <ele>194.6</ele>
        <time>2026-03-29T15:30:54Z</time>
      </trkpt>
      <trkpt lat="48.64014" lon="2.06044">
        <ele>194.6</ele>
        <time>2026-03-29T15:30:55Z</time>
      </trkpt>
      <trkpt lat="48.64009" lon="2.06039">
        <ele>194.6</ele>
        <time>2026-03-29T15:30:56Z</time>
      </trkpt>
      <trkpt lat="48.64004" lon="2.06035">
        <ele>194.6</ele>
        <time>2026-03-29T15:30:57Z</time>
      </trkpt>
      <trkpt lat="48.63999" lon="2.06031">
        <ele>194.4</ele>
        <time>2026-03-29T15:30:58Z</time>
      </trkpt>
      <trkpt lat="48.63994" lon="2.06027">
        <ele>194.4</ele>
        <time>2026-03-29T15:30:59Z</time>
      </trkpt>
      <trkpt lat="48.63989" lon="2.06023">
        <ele>194.4</ele>
        <time>2026-03-29T15:31:00Z</time>
      </trkpt>
      <trkpt lat="48.63984" lon="2.06019">
        <ele>194.4</ele>
        <time>2026-03-29T15:31:01Z</time>
      </trkpt>
      <trkpt lat="48.63979" lon="2.06015">
        <ele>193.8</ele>
        <time>2026-03-29T15:31:02Z</time>
      </trkpt>
      <trkpt lat="48.63974" lon="2.06011">
        <ele>193.8</ele>
        <time>2026-03-29T15:31:03Z</time>
      </trkpt>
      <trkpt lat="48.6397" lon="2.06007">
        <ele>193.8</ele>
        <time>2026-03-29T15:31:04Z</time>
      </trkpt>
      <trkpt lat="48.63965" lon="2.06003">
        <ele>193.8</ele>
        <time>2026-03-29T15:31:05Z</time>
      </trkpt>
      <trkpt lat="48.63961" lon="2.05999">
        <ele>192.8</ele>
        <time>2026-03-29T15:31:06Z</time>
      </trkpt>
      <trkpt lat="48.63957" lon="2.05995">
        <ele>192.8</ele>
        <time>2026-03-29T15:31:07Z</time>
      </trkpt>
      <trkpt lat="48.63953" lon="2.0599">
        <ele>192.8</ele>
        <time>2026-03-29T15:31:08Z</time>
      </trkpt>
      <trkpt lat="48.63948" lon="2.05987">
        <ele>192.8</ele>
        <time>2026-03-29T15:31:09Z</time>
      </trkpt>
      <trkpt lat="48.63943" lon="2.05983">
        <ele>193</ele>
        <time>2026-03-29T15:31:10Z</time>
      </trkpt>
      <trkpt lat="48.63939" lon="2.05979">
        <ele>193</ele>
        <time>2026-03-29T15:31:11Z</time>
      </trkpt>
      <trkpt lat="48.63934" lon="2.05975">
        <ele>193</ele>
        <time>2026-03-29T15:31:12Z</time>
      </trkpt>
      <trkpt lat="48.6393" lon="2.05971">
        <ele>192.8</ele>
        <time>2026-03-29T15:31:13Z</time>
      </trkpt>
      <trkpt lat="48.63925" lon="2.05967">
        <ele>192.6</ele>
        <time>2026-03-29T15:31:14Z</time>
      </trkpt>
      <trkpt lat="48.6392" lon="2.05962">
        <ele>192.6</ele>
        <time>2026-03-29T15:31:15Z</time>
      </trkpt>
      <trkpt lat="48.63915" lon="2.05958">
        <ele>192.6</ele>
        <time>2026-03-29T15:31:16Z</time>
      </trkpt>
      <trkpt lat="48.6391" lon="2.05954">
        <ele>192.6</ele>
        <time>2026-03-29T15:31:17Z</time>
      </trkpt>
      <trkpt lat="48.63905" lon="2.05949">
        <ele>192.6</ele>
        <time>2026-03-29T15:31:18Z</time>
      </trkpt>
      <trkpt lat="48.63901" lon="2.05945">
        <ele>192.6</ele>
        <time>2026-03-29T15:31:19Z</time>
      </trkpt>
      <trkpt lat="48.63896" lon="2.0594">
        <ele>192.6</ele>
        <time>2026-03-29T15:31:20Z</time>
      </trkpt>
      <trkpt lat="48.63892" lon="2.05934">
        <ele>192</ele>
        <time>2026-03-29T15:31:21Z</time>
      </trkpt>
      <trkpt lat="48.63888" lon="2.05929">
        <ele>192.2</ele>
        <time>2026-03-29T15:31:22Z</time>
      </trkpt>
      <trkpt lat="48.63883" lon="2.05924">
        <ele>192.2</ele>
        <time>2026-03-29T15:31:23Z</time>
      </trkpt>
      <trkpt lat="48.63878" lon="2.05919">
        <ele>192.2</ele>
        <time>2026-03-29T15:31:24Z</time>
      </trkpt>
      <trkpt lat="48.63873" lon="2.05914">
        <ele>192.2</ele>
        <time>2026-03-29T15:31:25Z</time>
      </trkpt>
      <trkpt lat="48.63868" lon="2.05908">
        <ele>191.8</ele>
        <time>2026-03-29T15:31:26Z</time>
      </trkpt>
      <trkpt lat="48.63864" lon="2.05902">
        <ele>191.8</ele>
        <time>2026-03-29T15:31:27Z</time>
      </trkpt>
      <trkpt lat="48.63859" lon="2.05896">
        <ele>191.8</ele>
        <time>2026-03-29T15:31:28Z</time>
      </trkpt>
      <trkpt lat="48.63854" lon="2.0589">
        <ele>191.8</ele>
        <time>2026-03-29T15:31:29Z</time>
      </trkpt>
      <trkpt lat="48.63849" lon="2.05884">
        <ele>192</ele>
        <time>2026-03-29T15:31:30Z</time>
      </trkpt>
      <trkpt lat="48.63844" lon="2.05878">
        <ele>192</ele>
        <time>2026-03-29T15:31:31Z</time>
      </trkpt>
      <trkpt lat="48.63839" lon="2.05872">
        <ele>192</ele>
        <time>2026-03-29T15:31:32Z</time>
      </trkpt>
      <trkpt lat="48.63834" lon="2.05867">
        <ele>191.4</ele>
        <time>2026-03-29T15:31:33Z</time>
      </trkpt>
      <trkpt lat="48.63829" lon="2.0586">
        <ele>192.2</ele>
        <time>2026-03-29T15:31:34Z</time>
      </trkpt>
      <trkpt lat="48.63824" lon="2.05855">
        <ele>192.2</ele>
        <time>2026-03-29T15:31:35Z</time>
      </trkpt>
      <trkpt lat="48.63819" lon="2.0585">
        <ele>192.2</ele>
        <time>2026-03-29T15:31:36Z</time>
      </trkpt>
      <trkpt lat="48.63814" lon="2.05844">
        <ele>191.6</ele>
        <time>2026-03-29T15:31:37Z</time>
      </trkpt>
      <trkpt lat="48.63809" lon="2.05838">
        <ele>191.2</ele>
        <time>2026-03-29T15:31:38Z</time>
      </trkpt>
      <trkpt lat="48.63805" lon="2.05832">
        <ele>191.2</ele>
        <time>2026-03-29T15:31:39Z</time>
      </trkpt>
      <trkpt lat="48.638" lon="2.05825">
        <ele>191.2</ele>
        <time>2026-03-29T15:31:40Z</time>
      </trkpt>
      <trkpt lat="48.63796" lon="2.05818">
        <ele>191.2</ele>
        <time>2026-03-29T15:31:41Z</time>
      </trkpt>
      <trkpt lat="48.63791" lon="2.05811">
        <ele>191</ele>
        <time>2026-03-29T15:31:42Z</time>
      </trkpt>
      <trkpt lat="48.63787" lon="2.05804">
        <ele>191</ele>
        <time>2026-03-29T15:31:43Z</time>
      </trkpt>
      <trkpt lat="48.63782" lon="2.05796">
        <ele>191</ele>
        <time>2026-03-29T15:31:44Z</time>
      </trkpt>
      <trkpt lat="48.63778" lon="2.05789">
        <ele>191</ele>
        <time>2026-03-29T15:31:45Z</time>
      </trkpt>
      <trkpt lat="48.63774" lon="2.05782">
        <ele>190.8</ele>
        <time>2026-03-29T15:31:46Z</time>
      </trkpt>
      <trkpt lat="48.6377" lon="2.05775">
        <ele>190.8</ele>
        <time>2026-03-29T15:31:47Z</time>
      </trkpt>
      <trkpt lat="48.63765" lon="2.05767">
        <ele>190.8</ele>
        <time>2026-03-29T15:31:48Z</time>
      </trkpt>
      <trkpt lat="48.6376" lon="2.0576">
        <ele>190.8</ele>
        <time>2026-03-29T15:31:49Z</time>
      </trkpt>
      <trkpt lat="48.63756" lon="2.05753">
        <ele>190</ele>
        <time>2026-03-29T15:31:50Z</time>
      </trkpt>
      <trkpt lat="48.63751" lon="2.05745">
        <ele>190</ele>
        <time>2026-03-29T15:31:51Z</time>
      </trkpt>
      <trkpt lat="48.63747" lon="2.05738">
        <ele>190</ele>
        <time>2026-03-29T15:31:52Z</time>
      </trkpt>
      <trkpt lat="48.63742" lon="2.0573">
        <ele>190</ele>
        <time>2026-03-29T15:31:53Z</time>
      </trkpt>
      <trkpt lat="48.63737" lon="2.05723">
        <ele>190</ele>
        <time>2026-03-29T15:31:54Z</time>
      </trkpt>
      <trkpt lat="48.63733" lon="2.05716">
        <ele>190</ele>
        <time>2026-03-29T15:31:55Z</time>
      </trkpt>
      <trkpt lat="48.63729" lon="2.05709">
        <ele>190</ele>
        <time>2026-03-29T15:31:56Z</time>
      </trkpt>
      <trkpt lat="48.63725" lon="2.05702">
        <ele>190</ele>
        <time>2026-03-29T15:31:57Z</time>
      </trkpt>
      <trkpt lat="48.63721" lon="2.05695">
        <ele>188.4</ele>
        <time>2026-03-29T15:31:58Z</time>
      </trkpt>
      <trkpt lat="48.63716" lon="2.05688">
        <ele>188.4</ele>
        <time>2026-03-29T15:31:59Z</time>
      </trkpt>
      <trkpt lat="48.63712" lon="2.05681">
        <ele>188.4</ele>
        <time>2026-03-29T15:32:00Z</time>
      </trkpt>
      <trkpt lat="48.63707" lon="2.05673">
        <ele>189</ele>
        <time>2026-03-29T15:32:01Z</time>
      </trkpt>
      <trkpt lat="48.63703" lon="2.05666">
        <ele>189</ele>
        <time>2026-03-29T15:32:02Z</time>
      </trkpt>
      <trkpt lat="48.63698" lon="2.05657">
        <ele>189</ele>
        <time>2026-03-29T15:32:03Z</time>
      </trkpt>
      <trkpt lat="48.63695" lon="2.05648">
        <ele>189</ele>
        <time>2026-03-29T15:32:04Z</time>
      </trkpt>
      <trkpt lat="48.63692" lon="2.05638">
        <ele>189</ele>
        <time>2026-03-29T15:32:05Z</time>
      </trkpt>
      <trkpt lat="48.63689" lon="2.05629">
        <ele>189.2</ele>
        <time>2026-03-29T15:32:06Z</time>
      </trkpt>
      <trkpt lat="48.63686" lon="2.0562">
        <ele>189.2</ele>
        <time>2026-03-29T15:32:07Z</time>
      </trkpt>
      <trkpt lat="48.63683" lon="2.05611">
        <ele>189.2</ele>
        <time>2026-03-29T15:32:08Z</time>
      </trkpt>
      <trkpt lat="48.63679" lon="2.05601">
        <ele>189.2</ele>
        <time>2026-03-29T15:32:09Z</time>
      </trkpt>
      <trkpt lat="48.63676" lon="2.05592">
        <ele>189.4</ele>
        <time>2026-03-29T15:32:10Z</time>
      </trkpt>
      <trkpt lat="48.63673" lon="2.05582">
        <ele>189.4</ele>
        <time>2026-03-29T15:32:11Z</time>
      </trkpt>
      <trkpt lat="48.6367" lon="2.05573">
        <ele>189.4</ele>
        <time>2026-03-29T15:32:12Z</time>
      </trkpt>
      <trkpt lat="48.63667" lon="2.05565">
        <ele>189.4</ele>
        <time>2026-03-29T15:32:13Z</time>
      </trkpt>
      <trkpt lat="48.63663" lon="2.05556">
        <ele>189.2</ele>
        <time>2026-03-29T15:32:14Z</time>
      </trkpt>
      <trkpt lat="48.6366" lon="2.05546">
        <ele>189.2</ele>
        <time>2026-03-29T15:32:15Z</time>
      </trkpt>
      <trkpt lat="48.63657" lon="2.05536">
        <ele>189.2</ele>
        <time>2026-03-29T15:32:16Z</time>
      </trkpt>
      <trkpt lat="48.63654" lon="2.05526">
        <ele>189.2</ele>
        <time>2026-03-29T15:32:17Z</time>
      </trkpt>
      <trkpt lat="48.63651" lon="2.05517">
        <ele>188.8</ele>
        <time>2026-03-29T15:32:18Z</time>
      </trkpt>
      <trkpt lat="48.63648" lon="2.05508">
        <ele>188.8</ele>
        <time>2026-03-29T15:32:19Z</time>
      </trkpt>
      <trkpt lat="48.63645" lon="2.05499">
        <ele>188.8</ele>
        <time>2026-03-29T15:32:20Z</time>
      </trkpt>
      <trkpt lat="48.63642" lon="2.0549">
        <ele>188.4</ele>
        <time>2026-03-29T15:32:21Z</time>
      </trkpt>
      <trkpt lat="48.63639" lon="2.05481">
        <ele>188.8</ele>
        <time>2026-03-29T15:32:22Z</time>
      </trkpt>
      <trkpt lat="48.63636" lon="2.05472">
        <ele>188.8</ele>
        <time>2026-03-29T15:32:23Z</time>
      </trkpt>
      <trkpt lat="48.63633" lon="2.05463">
        <ele>188.8</ele>
        <time>2026-03-29T15:32:24Z</time>
      </trkpt>
      <trkpt lat="48.63632" lon="2.05453">
        <ele>188</ele>
        <time>2026-03-29T15:32:25Z</time>
      </trkpt>
      <trkpt lat="48.6363" lon="2.05444">
        <ele>188.6</ele>
        <time>2026-03-29T15:32:26Z</time>
      </trkpt>
      <trkpt lat="48.63628" lon="2.05435">
        <ele>188.6</ele>
        <time>2026-03-29T15:32:27Z</time>
      </trkpt>
      <trkpt lat="48.63626" lon="2.05427">
        <ele>188.6</ele>
        <time>2026-03-29T15:32:28Z</time>
      </trkpt>
      <trkpt lat="48.63624" lon="2.05419">
        <ele>188.4</ele>
        <time>2026-03-29T15:32:29Z</time>
      </trkpt>
      <trkpt lat="48.63622" lon="2.05411">
        <ele>187.6</ele>
        <time>2026-03-29T15:32:30Z</time>
      </trkpt>
      <trkpt lat="48.6362" lon="2.05404">
        <ele>187.6</ele>
        <time>2026-03-29T15:32:31Z</time>
      </trkpt>
      <trkpt lat="48.63618" lon="2.05397">
        <ele>187.6</ele>
        <time>2026-03-29T15:32:32Z</time>
      </trkpt>
      <trkpt lat="48.63617" lon="2.0539">
        <ele>187.6</ele>
        <time>2026-03-29T15:32:33Z</time>
      </trkpt>
      <trkpt lat="48.63615" lon="2.05383">
        <ele>187.6</ele>
        <time>2026-03-29T15:32:34Z</time>
      </trkpt>
      <trkpt lat="48.63614" lon="2.05376">
        <ele>187.6</ele>
        <time>2026-03-29T15:32:35Z</time>
      </trkpt>
      <trkpt lat="48.63612" lon="2.05369">
        <ele>187.6</ele>
        <time>2026-03-29T15:32:36Z</time>
      </trkpt>
      <trkpt lat="48.6361" lon="2.05362">
        <ele>187.4</ele>
        <time>2026-03-29T15:32:37Z</time>
      </trkpt>
      <trkpt lat="48.63608" lon="2.05354">
        <ele>187.6</ele>
        <time>2026-03-29T15:32:38Z</time>
      </trkpt>
      <trkpt lat="48.63606" lon="2.05347">
        <ele>187.6</ele>
        <time>2026-03-29T15:32:39Z</time>
      </trkpt>
      <trkpt lat="48.63604" lon="2.05339">
        <ele>187.6</ele>
        <time>2026-03-29T15:32:40Z</time>
      </trkpt>
      <trkpt lat="48.63603" lon="2.05331">
        <ele>187.2</ele>
        <time>2026-03-29T15:32:41Z</time>
      </trkpt>
      <trkpt lat="48.63601" lon="2.05323">
        <ele>187.4</ele>
        <time>2026-03-29T15:32:42Z</time>
      </trkpt>
      <trkpt lat="48.63599" lon="2.05315">
        <ele>187.4</ele>
        <time>2026-03-29T15:32:43Z</time>
      </trkpt>
      <trkpt lat="48.63597" lon="2.05307">
        <ele>187.4</ele>
        <time>2026-03-29T15:32:44Z</time>
      </trkpt>
      <trkpt lat="48.63595" lon="2.05298">
        <ele>186.8</ele>
        <time>2026-03-29T15:32:45Z</time>
      </trkpt>
      <trkpt lat="48.63593" lon="2.0529">
        <ele>187</ele>
        <time>2026-03-29T15:32:46Z</time>
      </trkpt>
      <trkpt lat="48.6359" lon="2.05281">
        <ele>187</ele>
        <time>2026-03-29T15:32:47Z</time>
      </trkpt>
      <trkpt lat="48.63588" lon="2.05272">
        <ele>187</ele>
        <time>2026-03-29T15:32:48Z</time>
      </trkpt>
      <trkpt lat="48.63587" lon="2.05266">
        <ele>187</ele>
        <time>2026-03-29T15:32:49Z</time>
      </trkpt>
      <trkpt lat="48.63585" lon="2.05258">
        <ele>186.8</ele>
        <time>2026-03-29T15:32:50Z</time>
      </trkpt>
      <trkpt lat="48.63582" lon="2.05249">
        <ele>186.8</ele>
        <time>2026-03-29T15:32:51Z</time>
      </trkpt>
      <trkpt lat="48.6358" lon="2.0524">
        <ele>186.8</ele>
        <time>2026-03-29T15:32:52Z</time>
      </trkpt>
      <trkpt lat="48.63578" lon="2.05231">
        <ele>186.2</ele>
        <time>2026-03-29T15:32:53Z</time>
      </trkpt>
      <trkpt lat="48.63576" lon="2.05223">
        <ele>186.6</ele>
        <time>2026-03-29T15:32:54Z</time>
      </trkpt>
      <trkpt lat="48.63573" lon="2.05214">
        <ele>186.6</ele>
        <time>2026-03-29T15:32:55Z</time>
      </trkpt>
      <trkpt lat="48.63571" lon="2.05205">
        <ele>186.6</ele>
        <time>2026-03-29T15:32:56Z</time>
      </trkpt>
      <trkpt lat="48.63569" lon="2.05196">
        <ele>186.4</ele>
        <time>2026-03-29T15:32:57Z</time>
      </trkpt>
      <trkpt lat="48.63567" lon="2.05187">
        <ele>186.6</ele>
        <time>2026-03-29T15:32:58Z</time>
      </trkpt>
      <trkpt lat="48.63565" lon="2.05178">
        <ele>186.6</ele>
        <time>2026-03-29T15:32:59Z</time>
      </trkpt>
      <trkpt lat="48.63562" lon="2.05169">
        <ele>186.6</ele>
        <time>2026-03-29T15:33:00Z</time>
      </trkpt>
      <trkpt lat="48.6356" lon="2.0516">
        <ele>186.2</ele>
        <time>2026-03-29T15:33:01Z</time>
      </trkpt>
      <trkpt lat="48.63558" lon="2.05151">
        <ele>185.6</ele>
        <time>2026-03-29T15:33:02Z</time>
      </trkpt>
      <trkpt lat="48.63556" lon="2.05143">
        <ele>185.6</ele>
        <time>2026-03-29T15:33:03Z</time>
      </trkpt>
      <trkpt lat="48.63553" lon="2.05134">
        <ele>185.6</ele>
        <time>2026-03-29T15:33:04Z</time>
      </trkpt>
      <trkpt lat="48.63551" lon="2.05125">
        <ele>185.6</ele>
        <time>2026-03-29T15:33:05Z</time>
      </trkpt>
      <trkpt lat="48.63549" lon="2.05117">
        <ele>185.6</ele>
        <time>2026-03-29T15:33:06Z</time>
      </trkpt>
      <trkpt lat="48.63547" lon="2.05108">
        <ele>185.6</ele>
        <time>2026-03-29T15:33:07Z</time>
      </trkpt>
      <trkpt lat="48.63544" lon="2.05098">
        <ele>185.6</ele>
        <time>2026-03-29T15:33:08Z</time>
      </trkpt>
      <trkpt lat="48.63542" lon="2.05089">
        <ele>185.6</ele>
        <time>2026-03-29T15:33:09Z</time>
      </trkpt>
      <trkpt lat="48.6354" lon="2.0508">
        <ele>185.6</ele>
        <time>2026-03-29T15:33:10Z</time>
      </trkpt>
      <trkpt lat="48.63538" lon="2.05071">
        <ele>185.6</ele>
        <time>2026-03-29T15:33:11Z</time>
      </trkpt>
      <trkpt lat="48.63535" lon="2.05063">
        <ele>185.6</ele>
        <time>2026-03-29T15:33:12Z</time>
      </trkpt>
      <trkpt lat="48.63532" lon="2.05055">
        <ele>185.2</ele>
        <time>2026-03-29T15:33:13Z</time>
      </trkpt>
      <trkpt lat="48.6353" lon="2.05045">
        <ele>185.2</ele>
        <time>2026-03-29T15:33:14Z</time>
      </trkpt>
      <trkpt lat="48.63527" lon="2.05035">
        <ele>185.2</ele>
        <time>2026-03-29T15:33:15Z</time>
      </trkpt>
      <trkpt lat="48.63525" lon="2.05026">
        <ele>185.2</ele>
        <time>2026-03-29T15:33:16Z</time>
      </trkpt>
      <trkpt lat="48.63522" lon="2.05016">
        <ele>184.6</ele>
        <time>2026-03-29T15:33:17Z</time>
      </trkpt>
      <trkpt lat="48.6352" lon="2.05007">
        <ele>185</ele>
        <time>2026-03-29T15:33:18Z</time>
      </trkpt>
      <trkpt lat="48.63517" lon="2.04998">
        <ele>185</ele>
        <time>2026-03-29T15:33:19Z</time>
      </trkpt>
      <trkpt lat="48.63515" lon="2.04988">
        <ele>185</ele>
        <time>2026-03-29T15:33:20Z</time>
      </trkpt>
      <trkpt lat="48.63513" lon="2.04979">
        <ele>184.2</ele>
        <time>2026-03-29T15:33:21Z</time>
      </trkpt>
      <trkpt lat="48.63511" lon="2.0497">
        <ele>184.2</ele>
        <time>2026-03-29T15:33:22Z</time>
      </trkpt>
      <trkpt lat="48.63509" lon="2.0496">
        <ele>184.2</ele>
        <time>2026-03-29T15:33:23Z</time>
      </trkpt>
      <trkpt lat="48.63507" lon="2.0495">
        <ele>184.2</ele>
        <time>2026-03-29T15:33:24Z</time>
      </trkpt>
      <trkpt lat="48.63505" lon="2.0494">
        <ele>184.2</ele>
        <time>2026-03-29T15:33:25Z</time>
      </trkpt>
      <trkpt lat="48.63503" lon="2.0493">
        <ele>184</ele>
        <time>2026-03-29T15:33:26Z</time>
      </trkpt>
      <trkpt lat="48.635" lon="2.0492">
        <ele>184</ele>
        <time>2026-03-29T15:33:27Z</time>
      </trkpt>
      <trkpt lat="48.63498" lon="2.04909">
        <ele>184</ele>
        <time>2026-03-29T15:33:28Z</time>
      </trkpt>
      <trkpt lat="48.63496" lon="2.04899">
        <ele>184</ele>
        <time>2026-03-29T15:33:29Z</time>
      </trkpt>
      <trkpt lat="48.63493" lon="2.04889">
        <ele>183.6</ele>
        <time>2026-03-29T15:33:30Z</time>
      </trkpt>
      <trkpt lat="48.63491" lon="2.0488">
        <ele>183.6</ele>
        <time>2026-03-29T15:33:31Z</time>
      </trkpt>
      <trkpt lat="48.63488" lon="2.0487">
        <ele>183.6</ele>
        <time>2026-03-29T15:33:32Z</time>
      </trkpt>
      <trkpt lat="48.63486" lon="2.0486">
        <ele>183.6</ele>
        <time>2026-03-29T15:33:33Z</time>
      </trkpt>
      <trkpt lat="48.63483" lon="2.0485">
        <ele>183.4</ele>
        <time>2026-03-29T15:33:34Z</time>
      </trkpt>
      <trkpt lat="48.6348" lon="2.04841">
        <ele>183.4</ele>
        <time>2026-03-29T15:33:35Z</time>
      </trkpt>
      <trkpt lat="48.63478" lon="2.04831">
        <ele>183.4</ele>
        <time>2026-03-29T15:33:36Z</time>
      </trkpt>
      <trkpt lat="48.63475" lon="2.04821">
        <ele>183.4</ele>
        <time>2026-03-29T15:33:37Z</time>
      </trkpt>
      <trkpt lat="48.63473" lon="2.04811">
        <ele>183.2</ele>
        <time>2026-03-29T15:33:38Z</time>
      </trkpt>
      <trkpt lat="48.6347" lon="2.04802">
        <ele>183.2</ele>
        <time>2026-03-29T15:33:39Z</time>
      </trkpt>
      <trkpt lat="48.63467" lon="2.04792">
        <ele>183.2</ele>
        <time>2026-03-29T15:33:40Z</time>
      </trkpt>
      <trkpt lat="48.63464" lon="2.04783">
        <ele>182.8</ele>
        <time>2026-03-29T15:33:41Z</time>
      </trkpt>
      <trkpt lat="48.63461" lon="2.04774">
        <ele>182.6</ele>
        <time>2026-03-29T15:33:42Z</time>
      </trkpt>
      <trkpt lat="48.63458" lon="2.04764">
        <ele>182.6</ele>
        <time>2026-03-29T15:33:43Z</time>
      </trkpt>
      <trkpt lat="48.63455" lon="2.04755">
        <ele>182.6</ele>
        <time>2026-03-29T15:33:44Z</time>
      </trkpt>
      <trkpt lat="48.63452" lon="2.04746">
        <ele>182.6</ele>
        <time>2026-03-29T15:33:45Z</time>
      </trkpt>
      <trkpt lat="48.63448" lon="2.04737">
        <ele>182.6</ele>
        <time>2026-03-29T15:33:46Z</time>
      </trkpt>
      <trkpt lat="48.63445" lon="2.04727">
        <ele>182.6</ele>
        <time>2026-03-29T15:33:47Z</time>
      </trkpt>
      <trkpt lat="48.63441" lon="2.04718">
        <ele>182.6</ele>
        <time>2026-03-29T15:33:48Z</time>
      </trkpt>
      <trkpt lat="48.63437" lon="2.04709">
        <ele>182.6</ele>
        <time>2026-03-29T15:33:49Z</time>
      </trkpt>
      <trkpt lat="48.63434" lon="2.047">
        <ele>181.8</ele>
        <time>2026-03-29T15:33:50Z</time>
      </trkpt>
      <trkpt lat="48.6343" lon="2.04691">
        <ele>181.8</ele>
        <time>2026-03-29T15:33:51Z</time>
      </trkpt>
      <trkpt lat="48.63426" lon="2.04683">
        <ele>181.8</ele>
        <time>2026-03-29T15:33:52Z</time>
      </trkpt>
      <trkpt lat="48.63422" lon="2.04674">
        <ele>181.8</ele>
        <time>2026-03-29T15:33:53Z</time>
      </trkpt>
      <trkpt lat="48.63418" lon="2.04665">
        <ele>181.8</ele>
        <time>2026-03-29T15:33:54Z</time>
      </trkpt>
      <trkpt lat="48.63414" lon="2.04656">
        <ele>181.8</ele>
        <time>2026-03-29T15:33:55Z</time>
      </trkpt>
      <trkpt lat="48.6341" lon="2.04648">
        <ele>181.8</ele>
        <time>2026-03-29T15:33:56Z</time>
      </trkpt>
      <trkpt lat="48.63405" lon="2.04639">
        <ele>181.8</ele>
        <time>2026-03-29T15:33:57Z</time>
      </trkpt>
      <trkpt lat="48.63401" lon="2.0463">
        <ele>181</ele>
        <time>2026-03-29T15:33:58Z</time>
      </trkpt>
      <trkpt lat="48.63397" lon="2.04622">
        <ele>181</ele>
        <time>2026-03-29T15:33:59Z</time>
      </trkpt>
      <trkpt lat="48.63393" lon="2.04613">
        <ele>181</ele>
        <time>2026-03-29T15:34:00Z</time>
      </trkpt>
      <trkpt lat="48.63389" lon="2.04606">
        <ele>181</ele>
        <time>2026-03-29T15:34:01Z</time>
      </trkpt>
      <trkpt lat="48.63385" lon="2.04598">
        <ele>181.2</ele>
        <time>2026-03-29T15:34:02Z</time>
      </trkpt>
      <trkpt lat="48.6338" lon="2.0459">
        <ele>181.2</ele>
        <time>2026-03-29T15:34:03Z</time>
      </trkpt>
      <trkpt lat="48.63376" lon="2.04583">
        <ele>181.2</ele>
        <time>2026-03-29T15:34:04Z</time>
      </trkpt>
      <trkpt lat="48.63371" lon="2.04575">
        <ele>181.2</ele>
        <time>2026-03-29T15:34:05Z</time>
      </trkpt>
      <trkpt lat="48.63367" lon="2.04568">
        <ele>180.8</ele>
        <time>2026-03-29T15:34:06Z</time>
      </trkpt>
      <trkpt lat="48.63362" lon="2.0456">
        <ele>180.8</ele>
        <time>2026-03-29T15:34:07Z</time>
      </trkpt>
      <trkpt lat="48.63358" lon="2.04553">
        <ele>180.8</ele>
        <time>2026-03-29T15:34:08Z</time>
      </trkpt>
      <trkpt lat="48.63354" lon="2.04545">
        <ele>180.2</ele>
        <time>2026-03-29T15:34:09Z</time>
      </trkpt>
      <trkpt lat="48.63349" lon="2.04538">
        <ele>180.2</ele>
        <time>2026-03-29T15:34:10Z</time>
      </trkpt>
      <trkpt lat="48.63345" lon="2.0453">
        <ele>180.2</ele>
        <time>2026-03-29T15:34:11Z</time>
      </trkpt>
      <trkpt lat="48.6334" lon="2.04523">
        <ele>180.2</ele>
        <time>2026-03-29T15:34:12Z</time>
      </trkpt>
      <trkpt lat="48.63335" lon="2.04516">
        <ele>180.2</ele>
        <time>2026-03-29T15:34:13Z</time>
      </trkpt>
      <trkpt lat="48.63331" lon="2.04509">
        <ele>179.8</ele>
        <time>2026-03-29T15:34:14Z</time>
      </trkpt>
      <trkpt lat="48.63326" lon="2.04502">
        <ele>179.8</ele>
        <time>2026-03-29T15:34:15Z</time>
      </trkpt>
      <trkpt lat="48.63322" lon="2.04496">
        <ele>179.8</ele>
        <time>2026-03-29T15:34:16Z</time>
      </trkpt>
      <trkpt lat="48.63317" lon="2.04489">
        <ele>179.8</ele>
        <time>2026-03-29T15:34:17Z</time>
      </trkpt>
      <trkpt lat="48.63312" lon="2.04482">
        <ele>180</ele>
        <time>2026-03-29T15:34:18Z</time>
      </trkpt>
      <trkpt lat="48.63307" lon="2.04476">
        <ele>180</ele>
        <time>2026-03-29T15:34:19Z</time>
      </trkpt>
      <trkpt lat="48.63302" lon="2.04469">
        <ele>180</ele>
        <time>2026-03-29T15:34:20Z</time>
      </trkpt>
      <trkpt lat="48.63297" lon="2.04463">
        <ele>180</ele>
        <time>2026-03-29T15:34:21Z</time>
      </trkpt>
      <trkpt lat="48.63292" lon="2.04457">
        <ele>179.8</ele>
        <time>2026-03-29T15:34:22Z</time>
      </trkpt>
      <trkpt lat="48.63287" lon="2.04451">
        <ele>179.8</ele>
        <time>2026-03-29T15:34:23Z</time>
      </trkpt>
      <trkpt lat="48.63282" lon="2.04444">
        <ele>179.8</ele>
        <time>2026-03-29T15:34:24Z</time>
      </trkpt>
      <trkpt lat="48.63277" lon="2.04439">
        <ele>178.8</ele>
        <time>2026-03-29T15:34:25Z</time>
      </trkpt>
      <trkpt lat="48.63272" lon="2.04433">
        <ele>178.8</ele>
        <time>2026-03-29T15:34:26Z</time>
      </trkpt>
      <trkpt lat="48.63268" lon="2.04428">
        <ele>178.8</ele>
        <time>2026-03-29T15:34:27Z</time>
      </trkpt>
      <trkpt lat="48.63263" lon="2.04422">
        <ele>178.8</ele>
        <time>2026-03-29T15:34:28Z</time>
      </trkpt>
      <trkpt lat="48.63259" lon="2.04417">
        <ele>178.4</ele>
        <time>2026-03-29T15:34:29Z</time>
      </trkpt>
      <trkpt lat="48.63255" lon="2.04412">
        <ele>177.8</ele>
        <time>2026-03-29T15:34:30Z</time>
      </trkpt>
      <trkpt lat="48.63251" lon="2.04407">
        <ele>177.8</ele>
        <time>2026-03-29T15:34:31Z</time>
      </trkpt>
      <trkpt lat="48.63247" lon="2.04402">
        <ele>177.8</ele>
        <time>2026-03-29T15:34:32Z</time>
      </trkpt>
      <trkpt lat="48.63243" lon="2.04397">
        <ele>178.8</ele>
        <time>2026-03-29T15:34:33Z</time>
      </trkpt>
      <trkpt lat="48.63239" lon="2.04392">
        <ele>178.4</ele>
        <time>2026-03-29T15:34:34Z</time>
      </trkpt>
      <trkpt lat="48.63234" lon="2.04387">
        <ele>178.4</ele>
        <time>2026-03-29T15:34:35Z</time>
      </trkpt>
      <trkpt lat="48.6323" lon="2.04382">
        <ele>178.4</ele>
        <time>2026-03-29T15:34:36Z</time>
      </trkpt>
      <trkpt lat="48.63225" lon="2.04377">
        <ele>178.4</ele>
        <time>2026-03-29T15:34:37Z</time>
      </trkpt>
      <trkpt lat="48.6322" lon="2.04372">
        <ele>178.4</ele>
        <time>2026-03-29T15:34:38Z</time>
      </trkpt>
      <trkpt lat="48.63215" lon="2.04366">
        <ele>178.4</ele>
        <time>2026-03-29T15:34:39Z</time>
      </trkpt>
      <trkpt lat="48.6321" lon="2.04361">
        <ele>178.4</ele>
        <time>2026-03-29T15:34:40Z</time>
      </trkpt>
      <trkpt lat="48.63205" lon="2.04355">
        <ele>178.4</ele>
        <time>2026-03-29T15:34:41Z</time>
      </trkpt>
      <trkpt lat="48.632" lon="2.04352">
        <ele>178.2</ele>
        <time>2026-03-29T15:34:42Z</time>
      </trkpt>
      <trkpt lat="48.63195" lon="2.04346">
        <ele>178.2</ele>
        <time>2026-03-29T15:34:43Z</time>
      </trkpt>
      <trkpt lat="48.6319" lon="2.04341">
        <ele>178.2</ele>
        <time>2026-03-29T15:34:44Z</time>
      </trkpt>
      <trkpt lat="48.63185" lon="2.04335">
        <ele>178.2</ele>
        <time>2026-03-29T15:34:45Z</time>
      </trkpt>
      <trkpt lat="48.63179" lon="2.04329">
        <ele>177.8</ele>
        <time>2026-03-29T15:34:46Z</time>
      </trkpt>
      <trkpt lat="48.63174" lon="2.04322">
        <ele>177.8</ele>
        <time>2026-03-29T15:34:47Z</time>
      </trkpt>
      <trkpt lat="48.63168" lon="2.04316">
        <ele>177.8</ele>
        <time>2026-03-29T15:34:48Z</time>
      </trkpt>
      <trkpt lat="48.63163" lon="2.0431">
        <ele>177.8</ele>
        <time>2026-03-29T15:34:49Z</time>
      </trkpt>
      <trkpt lat="48.63157" lon="2.04303">
        <ele>177.6</ele>
        <time>2026-03-29T15:34:50Z</time>
      </trkpt>
      <trkpt lat="48.63152" lon="2.04297">
        <ele>177.6</ele>
        <time>2026-03-29T15:34:51Z</time>
      </trkpt>
      <trkpt lat="48.63146" lon="2.0429">
        <ele>177.6</ele>
        <time>2026-03-29T15:34:52Z</time>
      </trkpt>
      <trkpt lat="48.63141" lon="2.04284">
        <ele>177.6</ele>
        <time>2026-03-29T15:34:53Z</time>
      </trkpt>
      <trkpt lat="48.63135" lon="2.04278">
        <ele>177.8</ele>
        <time>2026-03-29T15:34:54Z</time>
      </trkpt>
      <trkpt lat="48.6313" lon="2.04272">
        <ele>177.8</ele>
        <time>2026-03-29T15:34:55Z</time>
      </trkpt>
      <trkpt lat="48.63124" lon="2.04266">
        <ele>177.8</ele>
        <time>2026-03-29T15:34:56Z</time>
      </trkpt>
      <trkpt lat="48.63118" lon="2.04259">
        <ele>177.4</ele>
        <time>2026-03-29T15:34:57Z</time>
      </trkpt>
      <trkpt lat="48.63113" lon="2.04253">
        <ele>177.4</ele>
        <time>2026-03-29T15:34:58Z</time>
      </trkpt>
      <trkpt lat="48.63108" lon="2.04247">
        <ele>177.4</ele>
        <time>2026-03-29T15:34:59Z</time>
      </trkpt>
      <trkpt lat="48.63103" lon="2.04241">
        <ele>177.4</ele>
        <time>2026-03-29T15:35:00Z</time>
      </trkpt>
      <trkpt lat="48.63097" lon="2.04234">
        <ele>177</ele>
        <time>2026-03-29T15:35:01Z</time>
      </trkpt>
      <trkpt lat="48.63092" lon="2.04228">
        <ele>177</ele>
        <time>2026-03-29T15:35:02Z</time>
      </trkpt>
      <trkpt lat="48.63087" lon="2.04223">
        <ele>177</ele>
        <time>2026-03-29T15:35:03Z</time>
      </trkpt>
      <trkpt lat="48.63081" lon="2.04217">
        <ele>177</ele>
        <time>2026-03-29T15:35:04Z</time>
      </trkpt>
      <trkpt lat="48.63076" lon="2.04212">
        <ele>177</ele>
        <time>2026-03-29T15:35:05Z</time>
      </trkpt>
      <trkpt lat="48.63071" lon="2.04206">
        <ele>176.8</ele>
        <time>2026-03-29T15:35:06Z</time>
      </trkpt>
      <trkpt lat="48.63066" lon="2.042">
        <ele>176.8</ele>
        <time>2026-03-29T15:35:07Z</time>
      </trkpt>
      <trkpt lat="48.6306" lon="2.04194">
        <ele>176.8</ele>
        <time>2026-03-29T15:35:08Z</time>
      </trkpt>
      <trkpt lat="48.63055" lon="2.04188">
        <ele>176.8</ele>
        <time>2026-03-29T15:35:09Z</time>
      </trkpt>
      <trkpt lat="48.6305" lon="2.04182">
        <ele>177.2</ele>
        <time>2026-03-29T15:35:10Z</time>
      </trkpt>
      <trkpt lat="48.63045" lon="2.04177">
        <ele>177.2</ele>
        <time>2026-03-29T15:35:11Z</time>
      </trkpt>
      <trkpt lat="48.6304" lon="2.04172">
        <ele>177.2</ele>
        <time>2026-03-29T15:35:12Z</time>
      </trkpt>
      <trkpt lat="48.63034" lon="2.04167">
        <ele>176.6</ele>
        <time>2026-03-29T15:35:13Z</time>
      </trkpt>
      <trkpt lat="48.6303" lon="2.04161">
        <ele>176.4</ele>
        <time>2026-03-29T15:35:14Z</time>
      </trkpt>
      <trkpt lat="48.63026" lon="2.04156">
        <ele>176.4</ele>
        <time>2026-03-29T15:35:15Z</time>
      </trkpt>
      <trkpt lat="48.63021" lon="2.04151">
        <ele>176.4</ele>
        <time>2026-03-29T15:35:16Z</time>
      </trkpt>
      <trkpt lat="48.63016" lon="2.04146">
        <ele>176.4</ele>
        <time>2026-03-29T15:35:17Z</time>
      </trkpt>
      <trkpt lat="48.63011" lon="2.04141">
        <ele>176.4</ele>
        <time>2026-03-29T15:35:18Z</time>
      </trkpt>
      <trkpt lat="48.63008" lon="2.04135">
        <ele>176.4</ele>
        <time>2026-03-29T15:35:19Z</time>
      </trkpt>
      <trkpt lat="48.63003" lon="2.04128">
        <ele>176.4</ele>
        <time>2026-03-29T15:35:20Z</time>
      </trkpt>
      <trkpt lat="48.62999" lon="2.04121">
        <ele>176</ele>
        <time>2026-03-29T15:35:21Z</time>
      </trkpt>
      <trkpt lat="48.62994" lon="2.04114">
        <ele>176.4</ele>
        <time>2026-03-29T15:35:22Z</time>
      </trkpt>
      <trkpt lat="48.6299" lon="2.04107">
        <ele>176.4</ele>
        <time>2026-03-29T15:35:23Z</time>
      </trkpt>
      <trkpt lat="48.62985" lon="2.041">
        <ele>176.4</ele>
        <time>2026-03-29T15:35:24Z</time>
      </trkpt>
      <trkpt lat="48.6298" lon="2.04093">
        <ele>176</ele>
        <time>2026-03-29T15:35:25Z</time>
      </trkpt>
      <trkpt lat="48.62975" lon="2.04086">
        <ele>176.2</ele>
        <time>2026-03-29T15:35:26Z</time>
      </trkpt>
      <trkpt lat="48.6297" lon="2.04079">
        <ele>176.2</ele>
        <time>2026-03-29T15:35:27Z</time>
      </trkpt>
      <trkpt lat="48.62965" lon="2.04072">
        <ele>176.2</ele>
        <time>2026-03-29T15:35:28Z</time>
      </trkpt>
      <trkpt lat="48.62961" lon="2.04065">
        <ele>176.2</ele>
        <time>2026-03-29T15:35:29Z</time>
      </trkpt>
      <trkpt lat="48.62956" lon="2.04058">
        <ele>176</ele>
        <time>2026-03-29T15:35:30Z</time>
      </trkpt>
      <trkpt lat="48.62951" lon="2.04052">
        <ele>176</ele>
        <time>2026-03-29T15:35:31Z</time>
      </trkpt>
      <trkpt lat="48.62947" lon="2.04045">
        <ele>176</ele>
        <time>2026-03-29T15:35:32Z</time>
      </trkpt>
      <trkpt lat="48.62943" lon="2.04038">
        <ele>176</ele>
        <time>2026-03-29T15:35:33Z</time>
      </trkpt>
      <trkpt lat="48.62938" lon="2.04031">
        <ele>175.8</ele>
        <time>2026-03-29T15:35:34Z</time>
      </trkpt>
      <trkpt lat="48.62934" lon="2.04023">
        <ele>175.8</ele>
        <time>2026-03-29T15:35:35Z</time>
      </trkpt>
      <trkpt lat="48.62929" lon="2.04017">
        <ele>175.8</ele>
        <time>2026-03-29T15:35:36Z</time>
      </trkpt>
      <trkpt lat="48.62925" lon="2.04009">
        <ele>175.2</ele>
        <time>2026-03-29T15:35:37Z</time>
      </trkpt>
      <trkpt lat="48.62921" lon="2.04002">
        <ele>175.8</ele>
        <time>2026-03-29T15:35:38Z</time>
      </trkpt>
      <trkpt lat="48.62917" lon="2.03996">
        <ele>175.8</ele>
        <time>2026-03-29T15:35:39Z</time>
      </trkpt>
      <trkpt lat="48.62913" lon="2.03989">
        <ele>175.8</ele>
        <time>2026-03-29T15:35:40Z</time>
      </trkpt>
      <trkpt lat="48.62913" lon="2.0398">
        <ele>174.8</ele>
        <time>2026-03-29T15:35:41Z</time>
      </trkpt>
      <trkpt lat="48.6291" lon="2.03973">
        <ele>175</ele>
        <time>2026-03-29T15:35:42Z</time>
      </trkpt>
      <trkpt lat="48.62906" lon="2.03967">
        <ele>175</ele>
        <time>2026-03-29T15:35:43Z</time>
      </trkpt>
      <trkpt lat="48.62903" lon="2.0396">
        <ele>175</ele>
        <time>2026-03-29T15:35:44Z</time>
      </trkpt>
      <trkpt lat="48.629" lon="2.03952">
        <ele>174.4</ele>
        <time>2026-03-29T15:35:45Z</time>
      </trkpt>
      <trkpt lat="48.62896" lon="2.03945">
        <ele>174.2</ele>
        <time>2026-03-29T15:35:46Z</time>
      </trkpt>
      <trkpt lat="48.62893" lon="2.03938">
        <ele>174.2</ele>
        <time>2026-03-29T15:35:47Z</time>
      </trkpt>
      <trkpt lat="48.62889" lon="2.03931">
        <ele>174.2</ele>
        <time>2026-03-29T15:35:48Z</time>
      </trkpt>
      <trkpt lat="48.62886" lon="2.03924">
        <ele>174</ele>
        <time>2026-03-29T15:35:49Z</time>
      </trkpt>
      <trkpt lat="48.62883" lon="2.03918">
        <ele>173.6</ele>
        <time>2026-03-29T15:35:50Z</time>
      </trkpt>
      <trkpt lat="48.6288" lon="2.03913">
        <ele>173.6</ele>
        <time>2026-03-29T15:35:51Z</time>
      </trkpt>
      <trkpt lat="48.62878" lon="2.03908">
        <ele>173.6</ele>
        <time>2026-03-29T15:35:52Z</time>
      </trkpt>
      <trkpt lat="48.62875" lon="2.03902">
        <ele>173.6</ele>
        <time>2026-03-29T15:35:53Z</time>
      </trkpt>
      <trkpt lat="48.62871" lon="2.03895">
        <ele>174.8</ele>
        <time>2026-03-29T15:35:54Z</time>
      </trkpt>
      <trkpt lat="48.62868" lon="2.03888">
        <ele>174.8</ele>
        <time>2026-03-29T15:35:55Z</time>
      </trkpt>
      <trkpt lat="48.62865" lon="2.03881">
        <ele>174.8</ele>
        <time>2026-03-29T15:35:56Z</time>
      </trkpt>
      <trkpt lat="48.62862" lon="2.03873">
        <ele>174.2</ele>
        <time>2026-03-29T15:35:57Z</time>
      </trkpt>
      <trkpt lat="48.6286" lon="2.03866">
        <ele>174.6</ele>
        <time>2026-03-29T15:35:58Z</time>
      </trkpt>
      <trkpt lat="48.62858" lon="2.03859">
        <ele>174.6</ele>
        <time>2026-03-29T15:35:59Z</time>
      </trkpt>
      <trkpt lat="48.62855" lon="2.03852">
        <ele>174.6</ele>
        <time>2026-03-29T15:36:00Z</time>
      </trkpt>
      <trkpt lat="48.62852" lon="2.03846">
        <ele>175.6</ele>
        <time>2026-03-29T15:36:01Z</time>
      </trkpt>
      <trkpt lat="48.62848" lon="2.03839">
        <ele>174.4</ele>
        <time>2026-03-29T15:36:02Z</time>
      </trkpt>
      <trkpt lat="48.62845" lon="2.03833">
        <ele>174.4</ele>
        <time>2026-03-29T15:36:03Z</time>
      </trkpt>
      <trkpt lat="48.62841" lon="2.03826">
        <ele>174.4</ele>
        <time>2026-03-29T15:36:04Z</time>
      </trkpt>
      <trkpt lat="48.62838" lon="2.03819">
        <ele>174.4</ele>
        <time>2026-03-29T15:36:05Z</time>
      </trkpt>
      <trkpt lat="48.62834" lon="2.0381">
        <ele>173.8</ele>
        <time>2026-03-29T15:36:06Z</time>
      </trkpt>
      <trkpt lat="48.62831" lon="2.03801">
        <ele>173.8</ele>
        <time>2026-03-29T15:36:07Z</time>
      </trkpt>
      <trkpt lat="48.62828" lon="2.03793">
        <ele>173.8</ele>
        <time>2026-03-29T15:36:08Z</time>
      </trkpt>
      <trkpt lat="48.62825" lon="2.03784">
        <ele>173.8</ele>
        <time>2026-03-29T15:36:09Z</time>
      </trkpt>
      <trkpt lat="48.62822" lon="2.03776">
        <ele>173.8</ele>
        <time>2026-03-29T15:36:10Z</time>
      </trkpt>
      <trkpt lat="48.6282" lon="2.03768">
        <ele>173.8</ele>
        <time>2026-03-29T15:36:11Z</time>
      </trkpt>
      <trkpt lat="48.62817" lon="2.03759">
        <ele>173.8</ele>
        <time>2026-03-29T15:36:12Z</time>
      </trkpt>
      <trkpt lat="48.62814" lon="2.03749">
        <ele>173.2</ele>
        <time>2026-03-29T15:36:13Z</time>
      </trkpt>
      <trkpt lat="48.62812" lon="2.03741">
        <ele>172.4</ele>
        <time>2026-03-29T15:36:14Z</time>
      </trkpt>
      <trkpt lat="48.62809" lon="2.03732">
        <ele>172.4</ele>
        <time>2026-03-29T15:36:15Z</time>
      </trkpt>
      <trkpt lat="48.62807" lon="2.03726">
        <ele>172.4</ele>
        <time>2026-03-29T15:36:16Z</time>
      </trkpt>
      <trkpt lat="48.62804" lon="2.03718">
        <ele>173</ele>
        <time>2026-03-29T15:36:17Z</time>
      </trkpt>
      <trkpt lat="48.62802" lon="2.03709">
        <ele>172.8</ele>
        <time>2026-03-29T15:36:18Z</time>
      </trkpt>
      <trkpt lat="48.62799" lon="2.03701">
        <ele>172.8</ele>
        <time>2026-03-29T15:36:19Z</time>
      </trkpt>
      <trkpt lat="48.62797" lon="2.03693">
        <ele>172.8</ele>
        <time>2026-03-29T15:36:20Z</time>
      </trkpt>
      <trkpt lat="48.62794" lon="2.03686">
        <ele>172.4</ele>
        <time>2026-03-29T15:36:21Z</time>
      </trkpt>
      <trkpt lat="48.62792" lon="2.03679">
        <ele>172.4</ele>
        <time>2026-03-29T15:36:22Z</time>
      </trkpt>
      <trkpt lat="48.6279" lon="2.03672">
        <ele>172.4</ele>
        <time>2026-03-29T15:36:23Z</time>
      </trkpt>
      <trkpt lat="48.62787" lon="2.03664">
        <ele>172.4</ele>
        <time>2026-03-29T15:36:24Z</time>
      </trkpt>
      <trkpt lat="48.62784" lon="2.03656">
        <ele>172.4</ele>
        <time>2026-03-29T15:36:25Z</time>
      </trkpt>
      <trkpt lat="48.62782" lon="2.03648">
        <ele>172.4</ele>
        <time>2026-03-29T15:36:26Z</time>
      </trkpt>
      <trkpt lat="48.62779" lon="2.03639">
        <ele>172.4</ele>
        <time>2026-03-29T15:36:27Z</time>
      </trkpt>
      <trkpt lat="48.62777" lon="2.0363">
        <ele>172.4</ele>
        <time>2026-03-29T15:36:28Z</time>
      </trkpt>
      <trkpt lat="48.62775" lon="2.03622">
        <ele>172</ele>
        <time>2026-03-29T15:36:29Z</time>
      </trkpt>
      <trkpt lat="48.62774" lon="2.03613">
        <ele>172</ele>
        <time>2026-03-29T15:36:30Z</time>
      </trkpt>
      <trkpt lat="48.62771" lon="2.03603">
        <ele>172</ele>
        <time>2026-03-29T15:36:31Z</time>
      </trkpt>
      <trkpt lat="48.6277" lon="2.03595">
        <ele>172</ele>
        <time>2026-03-29T15:36:32Z</time>
      </trkpt>
      <trkpt lat="48.62767" lon="2.03586">
        <ele>171.6</ele>
        <time>2026-03-29T15:36:33Z</time>
      </trkpt>
      <trkpt lat="48.62766" lon="2.03578">
        <ele>171</ele>
        <time>2026-03-29T15:36:34Z</time>
      </trkpt>
      <trkpt lat="48.62764" lon="2.03569">
        <ele>171</ele>
        <time>2026-03-29T15:36:35Z</time>
      </trkpt>
      <trkpt lat="48.62763" lon="2.03562">
        <ele>171</ele>
        <time>2026-03-29T15:36:36Z</time>
      </trkpt>
      <trkpt lat="48.62762" lon="2.03553">
        <ele>171</ele>
        <time>2026-03-29T15:36:37Z</time>
      </trkpt>
      <trkpt lat="48.6276" lon="2.03544">
        <ele>170.8</ele>
        <time>2026-03-29T15:36:38Z</time>
      </trkpt>
      <trkpt lat="48.62759" lon="2.03536">
        <ele>170.8</ele>
        <time>2026-03-29T15:36:39Z</time>
      </trkpt>
      <trkpt lat="48.62757" lon="2.03527">
        <ele>170.8</ele>
        <time>2026-03-29T15:36:40Z</time>
      </trkpt>
      <trkpt lat="48.62756" lon="2.03518">
        <ele>171.6</ele>
        <time>2026-03-29T15:36:41Z</time>
      </trkpt>
      <trkpt lat="48.62755" lon="2.03509">
        <ele>170.6</ele>
        <time>2026-03-29T15:36:42Z</time>
      </trkpt>
      <trkpt lat="48.62753" lon="2.03501">
        <ele>170.6</ele>
        <time>2026-03-29T15:36:43Z</time>
      </trkpt>
      <trkpt lat="48.62751" lon="2.03492">
        <ele>170.6</ele>
        <time>2026-03-29T15:36:44Z</time>
      </trkpt>
      <trkpt lat="48.6275" lon="2.03482">
        <ele>170.6</ele>
        <time>2026-03-29T15:36:45Z</time>
      </trkpt>
      <trkpt lat="48.6275" lon="2.03472">
        <ele>171.4</ele>
        <time>2026-03-29T15:36:46Z</time>
      </trkpt>
      <trkpt lat="48.6275" lon="2.03462">
        <ele>171.4</ele>
        <time>2026-03-29T15:36:47Z</time>
      </trkpt>
      <trkpt lat="48.62749" lon="2.03454">
        <ele>171.4</ele>
        <time>2026-03-29T15:36:48Z</time>
      </trkpt>
      <trkpt lat="48.62748" lon="2.03448">
        <ele>171.2</ele>
        <time>2026-03-29T15:36:49Z</time>
      </trkpt>
      <trkpt lat="48.62748" lon="2.03441">
        <ele>171</ele>
        <time>2026-03-29T15:36:50Z</time>
      </trkpt>
      <trkpt lat="48.62749" lon="2.03435">
        <ele>171</ele>
        <time>2026-03-29T15:36:51Z</time>
      </trkpt>
      <trkpt lat="48.6275" lon="2.0343">
        <ele>171</ele>
        <time>2026-03-29T15:36:52Z</time>
      </trkpt>
      <trkpt lat="48.6275" lon="2.03424">
        <ele>171</ele>
        <time>2026-03-29T15:36:53Z</time>
      </trkpt>
      <trkpt lat="48.6275" lon="2.03418">
        <ele>171.6</ele>
        <time>2026-03-29T15:36:54Z</time>
      </trkpt>
      <trkpt lat="48.6275" lon="2.03409">
        <ele>171.6</ele>
        <time>2026-03-29T15:36:55Z</time>
      </trkpt>
      <trkpt lat="48.6275" lon="2.03402">
        <ele>171.6</ele>
        <time>2026-03-29T15:36:56Z</time>
      </trkpt>
      <trkpt lat="48.6275" lon="2.03397">
        <ele>172.2</ele>
        <time>2026-03-29T15:36:57Z</time>
      </trkpt>
      <trkpt lat="48.6275" lon="2.03392">
        <ele>172.6</ele>
        <time>2026-03-29T15:36:58Z</time>
      </trkpt>
      <trkpt lat="48.6275" lon="2.03387">
        <ele>172.6</ele>
        <time>2026-03-29T15:36:59Z</time>
      </trkpt>
      <trkpt lat="48.6275" lon="2.03383">
        <ele>172.6</ele>
        <time>2026-03-29T15:37:00Z</time>
      </trkpt>
      <trkpt lat="48.6275" lon="2.0338">
        <ele>173.6</ele>
        <time>2026-03-29T15:37:01Z</time>
      </trkpt>
      <trkpt lat="48.6275" lon="2.03376">
        <ele>174</ele>
        <time>2026-03-29T15:37:02Z</time>
      </trkpt>
      <trkpt lat="48.6275" lon="2.03372">
        <ele>174</ele>
        <time>2026-03-29T15:37:03Z</time>
      </trkpt>
      <trkpt lat="48.6275" lon="2.03368">
        <ele>174</ele>
        <time>2026-03-29T15:37:04Z</time>
      </trkpt>
      <trkpt lat="48.6275" lon="2.03365">
        <ele>175</ele>
        <time>2026-03-29T15:37:05Z</time>
      </trkpt>
      <trkpt lat="48.6275" lon="2.03362">
        <ele>175.4</ele>
        <time>2026-03-29T15:37:06Z</time>
      </trkpt>
      <trkpt lat="48.6275" lon="2.03359">
        <ele>175.4</ele>
        <time>2026-03-29T15:37:07Z</time>
      </trkpt>
      <trkpt lat="48.62749" lon="2.03355">
        <ele>175.4</ele>
        <time>2026-03-29T15:37:08Z</time>
      </trkpt>
      <trkpt lat="48.62749" lon="2.03351">
        <ele>176.2</ele>
        <time>2026-03-29T15:37:09Z</time>
      </trkpt>
      <trkpt lat="48.62749" lon="2.03347">
        <ele>176</ele>
        <time>2026-03-29T15:37:10Z</time>
      </trkpt>
      <trkpt lat="48.62749" lon="2.03343">
        <ele>176</ele>
        <time>2026-03-29T15:37:11Z</time>
      </trkpt>
      <trkpt lat="48.62748" lon="2.03338">
        <ele>176</ele>
        <time>2026-03-29T15:37:12Z</time>
      </trkpt>
      <trkpt lat="48.62748" lon="2.03333">
        <ele>176</ele>
        <time>2026-03-29T15:37:13Z</time>
      </trkpt>
      <trkpt lat="48.62749" lon="2.03328">
        <ele>176.6</ele>
        <time>2026-03-29T15:37:14Z</time>
      </trkpt>
      <trkpt lat="48.62748" lon="2.03323">
        <ele>176.6</ele>
        <time>2026-03-29T15:37:15Z</time>
      </trkpt>
      <trkpt lat="48.62748" lon="2.03318">
        <ele>176.6</ele>
        <time>2026-03-29T15:37:16Z</time>
      </trkpt>
      <trkpt lat="48.62748" lon="2.03312">
        <ele>176.2</ele>
        <time>2026-03-29T15:37:17Z</time>
      </trkpt>
      <trkpt lat="48.62748" lon="2.03306">
        <ele>176.6</ele>
        <time>2026-03-29T15:37:18Z</time>
      </trkpt>
      <trkpt lat="48.62748" lon="2.03299">
        <ele>176.6</ele>
        <time>2026-03-29T15:37:19Z</time>
      </trkpt>
      <trkpt lat="48.62748" lon="2.03293">
        <ele>176.6</ele>
        <time>2026-03-29T15:37:20Z</time>
      </trkpt>
      <trkpt lat="48.62748" lon="2.03287">
        <ele>176.8</ele>
        <time>2026-03-29T15:37:21Z</time>
      </trkpt>
      <trkpt lat="48.62747" lon="2.03281">
        <ele>176.4</ele>
        <time>2026-03-29T15:37:22Z</time>
      </trkpt>
      <trkpt lat="48.62747" lon="2.03275">
        <ele>176.4</ele>
        <time>2026-03-29T15:37:23Z</time>
      </trkpt>
      <trkpt lat="48.62746" lon="2.03268">
        <ele>176.4</ele>
        <time>2026-03-29T15:37:24Z</time>
      </trkpt>
      <trkpt lat="48.62746" lon="2.03262">
        <ele>176.8</ele>
        <time>2026-03-29T15:37:25Z</time>
      </trkpt>
      <trkpt lat="48.62746" lon="2.03255">
        <ele>176.6</ele>
        <time>2026-03-29T15:37:26Z</time>
      </trkpt>
      <trkpt lat="48.62746" lon="2.03249">
        <ele>176.6</ele>
        <time>2026-03-29T15:37:27Z</time>
      </trkpt>
      <trkpt lat="48.62746" lon="2.03243">
        <ele>176.6</ele>
        <time>2026-03-29T15:37:28Z</time>
      </trkpt>
      <trkpt lat="48.62746" lon="2.03237">
        <ele>177.2</ele>
        <time>2026-03-29T15:37:29Z</time>
      </trkpt>
      <trkpt lat="48.62746" lon="2.03231">
        <ele>177.2</ele>
        <time>2026-03-29T15:37:30Z</time>
      </trkpt>
      <trkpt lat="48.62747" lon="2.03225">
        <ele>177.2</ele>
        <time>2026-03-29T15:37:31Z</time>
      </trkpt>
      <trkpt lat="48.62747" lon="2.03218">
        <ele>177.2</ele>
        <time>2026-03-29T15:37:32Z</time>
      </trkpt>
      <trkpt lat="48.62746" lon="2.03212">
        <ele>177.2</ele>
        <time>2026-03-29T15:37:33Z</time>
      </trkpt>
      <trkpt lat="48.62745" lon="2.03206">
        <ele>177</ele>
        <time>2026-03-29T15:37:34Z</time>
      </trkpt>
      <trkpt lat="48.62745" lon="2.03199">
        <ele>177</ele>
        <time>2026-03-29T15:37:35Z</time>
      </trkpt>
      <trkpt lat="48.62744" lon="2.03192">
        <ele>177</ele>
        <time>2026-03-29T15:37:36Z</time>
      </trkpt>
      <trkpt lat="48.62744" lon="2.03186">
        <ele>177</ele>
        <time>2026-03-29T15:37:37Z</time>
      </trkpt>
      <trkpt lat="48.62744" lon="2.03178">
        <ele>177.2</ele>
        <time>2026-03-29T15:37:38Z</time>
      </trkpt>
      <trkpt lat="48.62744" lon="2.03172">
        <ele>177.2</ele>
        <time>2026-03-29T15:37:39Z</time>
      </trkpt>
      <trkpt lat="48.62744" lon="2.03166">
        <ele>177.2</ele>
        <time>2026-03-29T15:37:40Z</time>
      </trkpt>
      <trkpt lat="48.62744" lon="2.0316">
        <ele>177.2</ele>
        <time>2026-03-29T15:37:41Z</time>
      </trkpt>
      <trkpt lat="48.62744" lon="2.03153">
        <ele>177</ele>
        <time>2026-03-29T15:37:42Z</time>
      </trkpt>
      <trkpt lat="48.62744" lon="2.03146">
        <ele>177</ele>
        <time>2026-03-29T15:37:43Z</time>
      </trkpt>
      <trkpt lat="48.62744" lon="2.0314">
        <ele>177</ele>
        <time>2026-03-29T15:37:44Z</time>
      </trkpt>
      <trkpt lat="48.62744" lon="2.03133">
        <ele>177.2</ele>
        <time>2026-03-29T15:37:45Z</time>
      </trkpt>
      <trkpt lat="48.62743" lon="2.03127">
        <ele>177.4</ele>
        <time>2026-03-29T15:37:46Z</time>
      </trkpt>
      <trkpt lat="48.62741" lon="2.0312">
        <ele>177.4</ele>
        <time>2026-03-29T15:37:47Z</time>
      </trkpt>
      <trkpt lat="48.6274" lon="2.03113">
        <ele>177.4</ele>
        <time>2026-03-29T15:37:48Z</time>
      </trkpt>
      <trkpt lat="48.62739" lon="2.03105">
        <ele>177.4</ele>
        <time>2026-03-29T15:37:49Z</time>
      </trkpt>
      <trkpt lat="48.62738" lon="2.03099">
        <ele>177.4</ele>
        <time>2026-03-29T15:37:50Z</time>
      </trkpt>
      <trkpt lat="48.62737" lon="2.03092">
        <ele>177.4</ele>
        <time>2026-03-29T15:37:51Z</time>
      </trkpt>
      <trkpt lat="48.62737" lon="2.03084">
        <ele>177.4</ele>
        <time>2026-03-29T15:37:52Z</time>
      </trkpt>
      <trkpt lat="48.62736" lon="2.03077">
        <ele>177.4</ele>
        <time>2026-03-29T15:37:53Z</time>
      </trkpt>
      <trkpt lat="48.62736" lon="2.0307">
        <ele>177.6</ele>
        <time>2026-03-29T15:37:54Z</time>
      </trkpt>
      <trkpt lat="48.62736" lon="2.03063">
        <ele>177.6</ele>
        <time>2026-03-29T15:37:55Z</time>
      </trkpt>
      <trkpt lat="48.62735" lon="2.03056">
        <ele>177.6</ele>
        <time>2026-03-29T15:37:56Z</time>
      </trkpt>
      <trkpt lat="48.62735" lon="2.03049">
        <ele>177.6</ele>
        <time>2026-03-29T15:37:57Z</time>
      </trkpt>
      <trkpt lat="48.62736" lon="2.03042">
        <ele>177.4</ele>
        <time>2026-03-29T15:37:58Z</time>
      </trkpt>
      <trkpt lat="48.62736" lon="2.03035">
        <ele>177.4</ele>
        <time>2026-03-29T15:37:59Z</time>
      </trkpt>
      <trkpt lat="48.62737" lon="2.03028">
        <ele>177.4</ele>
        <time>2026-03-29T15:38:00Z</time>
      </trkpt>
      <trkpt lat="48.62738" lon="2.03022">
        <ele>177.8</ele>
        <time>2026-03-29T15:38:01Z</time>
      </trkpt>
      <trkpt lat="48.62739" lon="2.03015">
        <ele>178.2</ele>
        <time>2026-03-29T15:38:02Z</time>
      </trkpt>
      <trkpt lat="48.6274" lon="2.0301">
        <ele>178.2</ele>
        <time>2026-03-29T15:38:03Z</time>
      </trkpt>
      <trkpt lat="48.62741" lon="2.03004">
        <ele>178.2</ele>
        <time>2026-03-29T15:38:04Z</time>
      </trkpt>
      <trkpt lat="48.62741" lon="2.02998">
        <ele>178</ele>
        <time>2026-03-29T15:38:05Z</time>
      </trkpt>
      <trkpt lat="48.62741" lon="2.0299">
        <ele>177.4</ele>
        <time>2026-03-29T15:38:06Z</time>
      </trkpt>
      <trkpt lat="48.62741" lon="2.02984">
        <ele>177.4</ele>
        <time>2026-03-29T15:38:07Z</time>
      </trkpt>
      <trkpt lat="48.62739" lon="2.02976">
        <ele>177.4</ele>
        <time>2026-03-29T15:38:08Z</time>
      </trkpt>
      <trkpt lat="48.62738" lon="2.02968">
        <ele>177.4</ele>
        <time>2026-03-29T15:38:09Z</time>
      </trkpt>
      <trkpt lat="48.62736" lon="2.02962">
        <ele>177.6</ele>
        <time>2026-03-29T15:38:10Z</time>
      </trkpt>
      <trkpt lat="48.62734" lon="2.02954">
        <ele>177.6</ele>
        <time>2026-03-29T15:38:11Z</time>
      </trkpt>
      <trkpt lat="48.62733" lon="2.02948">
        <ele>177.6</ele>
        <time>2026-03-29T15:38:12Z</time>
      </trkpt>
      <trkpt lat="48.62732" lon="2.02941">
        <ele>177.6</ele>
        <time>2026-03-29T15:38:13Z</time>
      </trkpt>
      <trkpt lat="48.62732" lon="2.02934">
        <ele>177.2</ele>
        <time>2026-03-29T15:38:14Z</time>
      </trkpt>
      <trkpt lat="48.62732" lon="2.02926">
        <ele>177.2</ele>
        <time>2026-03-29T15:38:15Z</time>
      </trkpt>
      <trkpt lat="48.62732" lon="2.02918">
        <ele>177.2</ele>
        <time>2026-03-29T15:38:16Z</time>
      </trkpt>
      <trkpt lat="48.62732" lon="2.02912">
        <ele>177.8</ele>
        <time>2026-03-29T15:38:17Z</time>
      </trkpt>
      <trkpt lat="48.62731" lon="2.02904">
        <ele>178</ele>
        <time>2026-03-29T15:38:18Z</time>
      </trkpt>
      <trkpt lat="48.62731" lon="2.02896">
        <ele>178</ele>
        <time>2026-03-29T15:38:19Z</time>
      </trkpt>
      <trkpt lat="48.6273" lon="2.02887">
        <ele>178</ele>
        <time>2026-03-29T15:38:20Z</time>
      </trkpt>
      <trkpt lat="48.6273" lon="2.02879">
        <ele>178</ele>
        <time>2026-03-29T15:38:21Z</time>
      </trkpt>
      <trkpt lat="48.6273" lon="2.02871">
        <ele>178.4</ele>
        <time>2026-03-29T15:38:22Z</time>
      </trkpt>
      <trkpt lat="48.6273" lon="2.02862">
        <ele>178.4</ele>
        <time>2026-03-29T15:38:23Z</time>
      </trkpt>
      <trkpt lat="48.6273" lon="2.02854">
        <ele>178.4</ele>
        <time>2026-03-29T15:38:24Z</time>
      </trkpt>
      <trkpt lat="48.62731" lon="2.02847">
        <ele>178</ele>
        <time>2026-03-29T15:38:25Z</time>
      </trkpt>
      <trkpt lat="48.62731" lon="2.0284">
        <ele>178.2</ele>
        <time>2026-03-29T15:38:26Z</time>
      </trkpt>
      <trkpt lat="48.62732" lon="2.02834">
        <ele>178.2</ele>
        <time>2026-03-29T15:38:27Z</time>
      </trkpt>
      <trkpt lat="48.62732" lon="2.02829">
        <ele>178.2</ele>
        <time>2026-03-29T15:38:28Z</time>
      </trkpt>
      <trkpt lat="48.62733" lon="2.02825">
        <ele>178.2</ele>
        <time>2026-03-29T15:38:29Z</time>
      </trkpt>
      <trkpt lat="48.62734" lon="2.0282">
        <ele>179.4</ele>
        <time>2026-03-29T15:38:30Z</time>
      </trkpt>
      <trkpt lat="48.62734" lon="2.02815">
        <ele>179.4</ele>
        <time>2026-03-29T15:38:31Z</time>
      </trkpt>
      <trkpt lat="48.62735" lon="2.02812">
        <ele>179.4</ele>
        <time>2026-03-29T15:38:32Z</time>
      </trkpt>
      <trkpt lat="48.62736" lon="2.02809">
        <ele>180.4</ele>
        <time>2026-03-29T15:38:33Z</time>
      </trkpt>
      <trkpt lat="48.62737" lon="2.02806">
        <ele>181.2</ele>
        <time>2026-03-29T15:38:34Z</time>
      </trkpt>
      <trkpt lat="48.62738" lon="2.02802">
        <ele>181.2</ele>
        <time>2026-03-29T15:38:35Z</time>
      </trkpt>
      <trkpt lat="48.62739" lon="2.028">
        <ele>181.2</ele>
        <time>2026-03-29T15:38:36Z</time>
      </trkpt>
      <trkpt lat="48.6274" lon="2.02797">
        <ele>181.8</ele>
        <time>2026-03-29T15:38:37Z</time>
      </trkpt>
      <trkpt lat="48.6274" lon="2.02793">
        <ele>181.6</ele>
        <time>2026-03-29T15:38:38Z</time>
      </trkpt>
      <trkpt lat="48.62739" lon="2.0279">
        <ele>181.6</ele>
        <time>2026-03-29T15:38:39Z</time>
      </trkpt>
      <trkpt lat="48.62739" lon="2.02789">
        <ele>181.6</ele>
        <time>2026-03-29T15:38:40Z</time>
      </trkpt>
      <trkpt lat="48.62739" lon="2.02788">
        <ele>181.6</ele>
        <time>2026-03-29T15:38:41Z</time>
      </trkpt>
      <trkpt lat="48.62739" lon="2.02788">
        <ele>181.2</ele>
        <time>2026-03-29T15:38:42Z</time>
      </trkpt>
      <trkpt lat="48.62735" lon="2.02783">
        <ele>181.6</ele>
        <time>2026-03-29T15:38:52Z</time>
      </trkpt>
      <trkpt lat="48.62732" lon="2.02782">
        <ele>181.6</ele>
        <time>2026-03-29T15:38:53Z</time>
      </trkpt>
      <trkpt lat="48.62729" lon="2.02782">
        <ele>181.8</ele>
        <time>2026-03-29T15:38:54Z</time>
      </trkpt>
      <trkpt lat="48.62725" lon="2.02782">
        <ele>181.8</ele>
        <time>2026-03-29T15:38:55Z</time>
      </trkpt>
      <trkpt lat="48.62721" lon="2.02782">
        <ele>181.8</ele>
        <time>2026-03-29T15:38:56Z</time>
      </trkpt>
      <trkpt lat="48.62717" lon="2.02781">
        <ele>181.8</ele>
        <time>2026-03-29T15:38:57Z</time>
      </trkpt>
      <trkpt lat="48.62713" lon="2.02782">
        <ele>182.4</ele>
        <time>2026-03-29T15:38:58Z</time>
      </trkpt>
      <trkpt lat="48.62708" lon="2.02782">
        <ele>182.4</ele>
        <time>2026-03-29T15:38:59Z</time>
      </trkpt>
      <trkpt lat="48.62704" lon="2.02782">
        <ele>182.4</ele>
        <time>2026-03-29T15:39:00Z</time>
      </trkpt>
      <trkpt lat="48.627" lon="2.02782">
        <ele>182.4</ele>
        <time>2026-03-29T15:39:01Z</time>
      </trkpt>
      <trkpt lat="48.62696" lon="2.02783">
        <ele>182.4</ele>
        <time>2026-03-29T15:39:02Z</time>
      </trkpt>
      <trkpt lat="48.62692" lon="2.02784">
        <ele>182.4</ele>
        <time>2026-03-29T15:39:03Z</time>
      </trkpt>
      <trkpt lat="48.62687" lon="2.02785">
        <ele>182.4</ele>
        <time>2026-03-29T15:39:04Z</time>
      </trkpt>
      <trkpt lat="48.62683" lon="2.02786">
        <ele>182.6</ele>
        <time>2026-03-29T15:39:05Z</time>
      </trkpt>
      <trkpt lat="48.62679" lon="2.02787">
        <ele>182.4</ele>
        <time>2026-03-29T15:39:06Z</time>
      </trkpt>
      <trkpt lat="48.62674" lon="2.02788">
        <ele>182.4</ele>
        <time>2026-03-29T15:39:07Z</time>
      </trkpt>
      <trkpt lat="48.6267" lon="2.0279">
        <ele>182.4</ele>
        <time>2026-03-29T15:39:08Z</time>
      </trkpt>
      <trkpt lat="48.62666" lon="2.02791">
        <ele>183.2</ele>
        <time>2026-03-29T15:39:09Z</time>
      </trkpt>
      <trkpt lat="48.62661" lon="2.02792">
        <ele>182.8</ele>
        <time>2026-03-29T15:39:10Z</time>
      </trkpt>
      <trkpt lat="48.62657" lon="2.02793">
        <ele>182.8</ele>
        <time>2026-03-29T15:39:11Z</time>
      </trkpt>
      <trkpt lat="48.62653" lon="2.02793">
        <ele>182.8</ele>
        <time>2026-03-29T15:39:12Z</time>
      </trkpt>
      <trkpt lat="48.62648" lon="2.02793">
        <ele>183.2</ele>
        <time>2026-03-29T15:39:13Z</time>
      </trkpt>
      <trkpt lat="48.62644" lon="2.02794">
        <ele>183.4</ele>
        <time>2026-03-29T15:39:14Z</time>
      </trkpt>
      <trkpt lat="48.6264" lon="2.02793">
        <ele>183.4</ele>
        <time>2026-03-29T15:39:15Z</time>
      </trkpt>
      <trkpt lat="48.62635" lon="2.02793">
        <ele>183.4</ele>
        <time>2026-03-29T15:39:16Z</time>
      </trkpt>
      <trkpt lat="48.6263" lon="2.02792">
        <ele>183.2</ele>
        <time>2026-03-29T15:39:17Z</time>
      </trkpt>
      <trkpt lat="48.62626" lon="2.02791">
        <ele>183.6</ele>
        <time>2026-03-29T15:39:18Z</time>
      </trkpt>
      <trkpt lat="48.62621" lon="2.0279">
        <ele>183.6</ele>
        <time>2026-03-29T15:39:19Z</time>
      </trkpt>
      <trkpt lat="48.62617" lon="2.02788">
        <ele>183.6</ele>
        <time>2026-03-29T15:39:20Z</time>
      </trkpt>
      <trkpt lat="48.62612" lon="2.02787">
        <ele>183.6</ele>
        <time>2026-03-29T15:39:21Z</time>
      </trkpt>
      <trkpt lat="48.62608" lon="2.02785">
        <ele>183.8</ele>
        <time>2026-03-29T15:39:22Z</time>
      </trkpt>
      <trkpt lat="48.62604" lon="2.02783">
        <ele>183.8</ele>
        <time>2026-03-29T15:39:23Z</time>
      </trkpt>
      <trkpt lat="48.626" lon="2.02781">
        <ele>183.8</ele>
        <time>2026-03-29T15:39:24Z</time>
      </trkpt>
      <trkpt lat="48.62596" lon="2.02779">
        <ele>183.8</ele>
        <time>2026-03-29T15:39:25Z</time>
      </trkpt>
      <trkpt lat="48.62592" lon="2.02778">
        <ele>184.6</ele>
        <time>2026-03-29T15:39:26Z</time>
      </trkpt>
      <trkpt lat="48.62587" lon="2.02777">
        <ele>184.6</ele>
        <time>2026-03-29T15:39:27Z</time>
      </trkpt>
      <trkpt lat="48.62582" lon="2.02777">
        <ele>184.6</ele>
        <time>2026-03-29T15:39:28Z</time>
      </trkpt>
      <trkpt lat="48.62578" lon="2.02778">
        <ele>184.6</ele>
        <time>2026-03-29T15:39:29Z</time>
      </trkpt>
      <trkpt lat="48.62574" lon="2.02782">
        <ele>184.8</ele>
        <time>2026-03-29T15:39:30Z</time>
      </trkpt>
      <trkpt lat="48.62569" lon="2.02786">
        <ele>184.8</ele>
        <time>2026-03-29T15:39:31Z</time>
      </trkpt>
      <trkpt lat="48.62566" lon="2.02789">
        <ele>184.8</ele>
        <time>2026-03-29T15:39:32Z</time>
      </trkpt>
      <trkpt lat="48.62562" lon="2.02792">
        <ele>184.8</ele>
        <time>2026-03-29T15:39:33Z</time>
      </trkpt>
      <trkpt lat="48.62559" lon="2.02795">
        <ele>184.8</ele>
        <time>2026-03-29T15:39:34Z</time>
      </trkpt>
      <trkpt lat="48.62557" lon="2.02798">
        <ele>184.8</ele>
        <time>2026-03-29T15:39:35Z</time>
      </trkpt>
      <trkpt lat="48.62554" lon="2.02801">
        <ele>184.8</ele>
        <time>2026-03-29T15:39:36Z</time>
      </trkpt>
      <trkpt lat="48.62551" lon="2.02805">
        <ele>185.6</ele>
        <time>2026-03-29T15:39:37Z</time>
      </trkpt>
      <trkpt lat="48.62548" lon="2.02809">
        <ele>185.4</ele>
        <time>2026-03-29T15:39:38Z</time>
      </trkpt>
      <trkpt lat="48.62546" lon="2.02813">
        <ele>185.4</ele>
        <time>2026-03-29T15:39:39Z</time>
      </trkpt>
      <trkpt lat="48.62543" lon="2.02817">
        <ele>185.4</ele>
        <time>2026-03-29T15:39:40Z</time>
      </trkpt>
      <trkpt lat="48.62541" lon="2.02822">
        <ele>185.8</ele>
        <time>2026-03-29T15:39:41Z</time>
      </trkpt>
      <trkpt lat="48.62538" lon="2.02826">
        <ele>185.8</ele>
        <time>2026-03-29T15:39:42Z</time>
      </trkpt>
      <trkpt lat="48.62536" lon="2.0283">
        <ele>185.8</ele>
        <time>2026-03-29T15:39:43Z</time>
      </trkpt>
      <trkpt lat="48.62535" lon="2.02834">
        <ele>185.8</ele>
        <time>2026-03-29T15:39:44Z</time>
      </trkpt>
      <trkpt lat="48.62532" lon="2.0284">
        <ele>185.8</ele>
        <time>2026-03-29T15:39:45Z</time>
      </trkpt>
      <trkpt lat="48.6253" lon="2.02844">
        <ele>185.6</ele>
        <time>2026-03-29T15:39:46Z</time>
      </trkpt>
      <trkpt lat="48.62528" lon="2.0285">
        <ele>185.6</ele>
        <time>2026-03-29T15:39:47Z</time>
      </trkpt>
      <trkpt lat="48.62526" lon="2.02854">
        <ele>185.6</ele>
        <time>2026-03-29T15:39:48Z</time>
      </trkpt>
      <trkpt lat="48.62524" lon="2.0286">
        <ele>185</ele>
        <time>2026-03-29T15:39:49Z</time>
      </trkpt>
      <trkpt lat="48.62522" lon="2.02865">
        <ele>185.4</ele>
        <time>2026-03-29T15:39:50Z</time>
      </trkpt>
      <trkpt lat="48.62519" lon="2.0287">
        <ele>185.4</ele>
        <time>2026-03-29T15:39:51Z</time>
      </trkpt>
      <trkpt lat="48.62517" lon="2.02874">
        <ele>185.4</ele>
        <time>2026-03-29T15:39:52Z</time>
      </trkpt>
      <trkpt lat="48.62516" lon="2.0288">
        <ele>185.2</ele>
        <time>2026-03-29T15:39:53Z</time>
      </trkpt>
      <trkpt lat="48.62514" lon="2.02886">
        <ele>184.8</ele>
        <time>2026-03-29T15:39:54Z</time>
      </trkpt>
      <trkpt lat="48.62511" lon="2.02891">
        <ele>184.8</ele>
        <time>2026-03-29T15:39:55Z</time>
      </trkpt>
      <trkpt lat="48.62509" lon="2.02898">
        <ele>184.8</ele>
        <time>2026-03-29T15:39:56Z</time>
      </trkpt>
      <trkpt lat="48.62506" lon="2.02903">
        <ele>184.8</ele>
        <time>2026-03-29T15:39:57Z</time>
      </trkpt>
      <trkpt lat="48.62503" lon="2.0291">
        <ele>184.6</ele>
        <time>2026-03-29T15:39:58Z</time>
      </trkpt>
      <trkpt lat="48.62501" lon="2.02916">
        <ele>184.6</ele>
        <time>2026-03-29T15:39:59Z</time>
      </trkpt>
      <trkpt lat="48.62499" lon="2.02922">
        <ele>184.6</ele>
        <time>2026-03-29T15:40:00Z</time>
      </trkpt>
      <trkpt lat="48.62497" lon="2.02928">
        <ele>184.6</ele>
        <time>2026-03-29T15:40:01Z</time>
      </trkpt>
      <trkpt lat="48.62495" lon="2.02934">
        <ele>185</ele>
        <time>2026-03-29T15:40:02Z</time>
      </trkpt>
      <trkpt lat="48.62492" lon="2.0294">
        <ele>185</ele>
        <time>2026-03-29T15:40:03Z</time>
      </trkpt>
      <trkpt lat="48.6249" lon="2.02947">
        <ele>185</ele>
        <time>2026-03-29T15:40:04Z</time>
      </trkpt>
      <trkpt lat="48.62487" lon="2.02954">
        <ele>185</ele>
        <time>2026-03-29T15:40:05Z</time>
      </trkpt>
      <trkpt lat="48.62484" lon="2.0296">
        <ele>185</ele>
        <time>2026-03-29T15:40:06Z</time>
      </trkpt>
      <trkpt lat="48.62482" lon="2.02966">
        <ele>185</ele>
        <time>2026-03-29T15:40:07Z</time>
      </trkpt>
      <trkpt lat="48.62481" lon="2.02972">
        <ele>185</ele>
        <time>2026-03-29T15:40:08Z</time>
      </trkpt>
      <trkpt lat="48.6248" lon="2.02978">
        <ele>185</ele>
        <time>2026-03-29T15:40:09Z</time>
      </trkpt>
      <trkpt lat="48.62479" lon="2.02983">
        <ele>186</ele>
        <time>2026-03-29T15:40:10Z</time>
      </trkpt>
      <trkpt lat="48.62478" lon="2.02988">
        <ele>186</ele>
        <time>2026-03-29T15:40:11Z</time>
      </trkpt>
      <trkpt lat="48.62478" lon="2.02994">
        <ele>186</ele>
        <time>2026-03-29T15:40:12Z</time>
      </trkpt>
      <trkpt lat="48.62476" lon="2.02999">
        <ele>186</ele>
        <time>2026-03-29T15:40:13Z</time>
      </trkpt>
      <trkpt lat="48.62475" lon="2.03005">
        <ele>186.2</ele>
        <time>2026-03-29T15:40:14Z</time>
      </trkpt>
      <trkpt lat="48.62474" lon="2.03009">
        <ele>186.2</ele>
        <time>2026-03-29T15:40:15Z</time>
      </trkpt>
      <trkpt lat="48.62473" lon="2.03014">
        <ele>186.2</ele>
        <time>2026-03-29T15:40:16Z</time>
      </trkpt>
      <trkpt lat="48.62473" lon="2.03019">
        <ele>186.2</ele>
        <time>2026-03-29T15:40:17Z</time>
      </trkpt>
      <trkpt lat="48.62472" lon="2.03023">
        <ele>186.4</ele>
        <time>2026-03-29T15:40:18Z</time>
      </trkpt>
      <trkpt lat="48.62472" lon="2.03028">
        <ele>186.4</ele>
        <time>2026-03-29T15:40:19Z</time>
      </trkpt>
      <trkpt lat="48.62471" lon="2.03034">
        <ele>186.4</ele>
        <time>2026-03-29T15:40:20Z</time>
      </trkpt>
      <trkpt lat="48.62471" lon="2.03041">
        <ele>186.4</ele>
        <time>2026-03-29T15:40:21Z</time>
      </trkpt>
      <trkpt lat="48.6247" lon="2.03048">
        <ele>186.6</ele>
        <time>2026-03-29T15:40:22Z</time>
      </trkpt>
      <trkpt lat="48.62469" lon="2.03056">
        <ele>186.6</ele>
        <time>2026-03-29T15:40:23Z</time>
      </trkpt>
      <trkpt lat="48.62468" lon="2.03062">
        <ele>186.6</ele>
        <time>2026-03-29T15:40:24Z</time>
      </trkpt>
      <trkpt lat="48.62467" lon="2.03069">
        <ele>186</ele>
        <time>2026-03-29T15:40:25Z</time>
      </trkpt>
      <trkpt lat="48.62466" lon="2.03074">
        <ele>185.6</ele>
        <time>2026-03-29T15:40:26Z</time>
      </trkpt>
      <trkpt lat="48.62464" lon="2.03081">
        <ele>185.6</ele>
        <time>2026-03-29T15:40:27Z</time>
      </trkpt>
      <trkpt lat="48.62464" lon="2.03088">
        <ele>185.6</ele>
        <time>2026-03-29T15:40:28Z</time>
      </trkpt>
      <trkpt lat="48.62463" lon="2.03096">
        <ele>185.6</ele>
        <time>2026-03-29T15:40:29Z</time>
      </trkpt>
      <trkpt lat="48.62461" lon="2.03105">
        <ele>184.2</ele>
        <time>2026-03-29T15:40:30Z</time>
      </trkpt>
      <trkpt lat="48.6246" lon="2.03114">
        <ele>184.2</ele>
        <time>2026-03-29T15:40:31Z</time>
      </trkpt>
      <trkpt lat="48.62458" lon="2.03122">
        <ele>184.2</ele>
        <time>2026-03-29T15:40:32Z</time>
      </trkpt>
      <trkpt lat="48.62458" lon="2.03131">
        <ele>184.2</ele>
        <time>2026-03-29T15:40:33Z</time>
      </trkpt>
      <trkpt lat="48.62456" lon="2.0314">
        <ele>183.8</ele>
        <time>2026-03-29T15:40:34Z</time>
      </trkpt>
      <trkpt lat="48.62455" lon="2.03149">
        <ele>183.8</ele>
        <time>2026-03-29T15:40:35Z</time>
      </trkpt>
      <trkpt lat="48.62454" lon="2.03157">
        <ele>183.8</ele>
        <time>2026-03-29T15:40:36Z</time>
      </trkpt>
      <trkpt lat="48.62452" lon="2.03166">
        <ele>182.8</ele>
        <time>2026-03-29T15:40:37Z</time>
      </trkpt>
      <trkpt lat="48.6245" lon="2.03174">
        <ele>182.4</ele>
        <time>2026-03-29T15:40:38Z</time>
      </trkpt>
      <trkpt lat="48.62448" lon="2.03183">
        <ele>182.4</ele>
        <time>2026-03-29T15:40:39Z</time>
      </trkpt>
      <trkpt lat="48.62446" lon="2.03191">
        <ele>182.4</ele>
        <time>2026-03-29T15:40:40Z</time>
      </trkpt>
      <trkpt lat="48.62445" lon="2.03197">
        <ele>182.6</ele>
        <time>2026-03-29T15:40:41Z</time>
      </trkpt>
      <trkpt lat="48.62443" lon="2.03205">
        <ele>182.6</ele>
        <time>2026-03-29T15:40:42Z</time>
      </trkpt>
      <trkpt lat="48.6244" lon="2.03213">
        <ele>182.6</ele>
        <time>2026-03-29T15:40:43Z</time>
      </trkpt>
      <trkpt lat="48.62438" lon="2.0322">
        <ele>182.6</ele>
        <time>2026-03-29T15:40:44Z</time>
      </trkpt>
      <trkpt lat="48.62435" lon="2.03227">
        <ele>182.6</ele>
        <time>2026-03-29T15:40:45Z</time>
      </trkpt>
      <trkpt lat="48.62433" lon="2.03234">
        <ele>182.6</ele>
        <time>2026-03-29T15:40:46Z</time>
      </trkpt>
      <trkpt lat="48.62429" lon="2.03242">
        <ele>182.6</ele>
        <time>2026-03-29T15:40:47Z</time>
      </trkpt>
      <trkpt lat="48.62427" lon="2.03249">
        <ele>182.6</ele>
        <time>2026-03-29T15:40:48Z</time>
      </trkpt>
      <trkpt lat="48.62424" lon="2.03256">
        <ele>182.2</ele>
        <time>2026-03-29T15:40:49Z</time>
      </trkpt>
      <trkpt lat="48.62422" lon="2.03263">
        <ele>182.2</ele>
        <time>2026-03-29T15:40:50Z</time>
      </trkpt>
      <trkpt lat="48.62419" lon="2.0327">
        <ele>182.2</ele>
        <time>2026-03-29T15:40:51Z</time>
      </trkpt>
      <trkpt lat="48.62416" lon="2.03277">
        <ele>182.2</ele>
        <time>2026-03-29T15:40:52Z</time>
      </trkpt>
      <trkpt lat="48.62414" lon="2.03285">
        <ele>181.6</ele>
        <time>2026-03-29T15:40:53Z</time>
      </trkpt>
      <trkpt lat="48.62412" lon="2.03293">
        <ele>181.2</ele>
        <time>2026-03-29T15:40:54Z</time>
      </trkpt>
      <trkpt lat="48.62409" lon="2.03301">
        <ele>181.2</ele>
        <time>2026-03-29T15:40:55Z</time>
      </trkpt>
      <trkpt lat="48.62407" lon="2.03307">
        <ele>181.2</ele>
        <time>2026-03-29T15:40:56Z</time>
      </trkpt>
      <trkpt lat="48.62404" lon="2.03315">
        <ele>180.2</ele>
        <time>2026-03-29T15:40:57Z</time>
      </trkpt>
      <trkpt lat="48.62401" lon="2.03323">
        <ele>180</ele>
        <time>2026-03-29T15:40:58Z</time>
      </trkpt>
      <trkpt lat="48.62397" lon="2.03331">
        <ele>180</ele>
        <time>2026-03-29T15:40:59Z</time>
      </trkpt>
      <trkpt lat="48.62393" lon="2.0334">
        <ele>180</ele>
        <time>2026-03-29T15:41:00Z</time>
      </trkpt>
      <trkpt lat="48.62389" lon="2.03349">
        <ele>179</ele>
        <time>2026-03-29T15:41:01Z</time>
      </trkpt>
      <trkpt lat="48.62386" lon="2.03358">
        <ele>178.2</ele>
        <time>2026-03-29T15:41:02Z</time>
      </trkpt>
      <trkpt lat="48.62381" lon="2.03367">
        <ele>178.2</ele>
        <time>2026-03-29T15:41:03Z</time>
      </trkpt>
      <trkpt lat="48.62377" lon="2.03376">
        <ele>178.2</ele>
        <time>2026-03-29T15:41:04Z</time>
      </trkpt>
      <trkpt lat="48.62373" lon="2.03384">
        <ele>177.2</ele>
        <time>2026-03-29T15:41:05Z</time>
      </trkpt>
      <trkpt lat="48.62369" lon="2.03392">
        <ele>177.2</ele>
        <time>2026-03-29T15:41:06Z</time>
      </trkpt>
      <trkpt lat="48.62365" lon="2.03399">
        <ele>177.2</ele>
        <time>2026-03-29T15:41:07Z</time>
      </trkpt>
      <trkpt lat="48.62362" lon="2.03407">
        <ele>177.2</ele>
        <time>2026-03-29T15:41:08Z</time>
      </trkpt>
      <trkpt lat="48.62359" lon="2.03415">
        <ele>176.8</ele>
        <time>2026-03-29T15:41:09Z</time>
      </trkpt>
      <trkpt lat="48.62355" lon="2.03423">
        <ele>176.6</ele>
        <time>2026-03-29T15:41:10Z</time>
      </trkpt>
      <trkpt lat="48.62353" lon="2.03431">
        <ele>176.6</ele>
        <time>2026-03-29T15:41:11Z</time>
      </trkpt>
      <trkpt lat="48.62351" lon="2.03439">
        <ele>176.6</ele>
        <time>2026-03-29T15:41:12Z</time>
      </trkpt>
      <trkpt lat="48.62348" lon="2.03447">
        <ele>176.2</ele>
        <time>2026-03-29T15:41:13Z</time>
      </trkpt>
      <trkpt lat="48.62345" lon="2.03455">
        <ele>175.4</ele>
        <time>2026-03-29T15:41:14Z</time>
      </trkpt>
      <trkpt lat="48.62342" lon="2.03463">
        <ele>175.4</ele>
        <time>2026-03-29T15:41:15Z</time>
      </trkpt>
      <trkpt lat="48.6234" lon="2.03471">
        <ele>175.4</ele>
        <time>2026-03-29T15:41:16Z</time>
      </trkpt>
      <trkpt lat="48.62338" lon="2.03478">
        <ele>175.4</ele>
        <time>2026-03-29T15:41:17Z</time>
      </trkpt>
      <trkpt lat="48.62336" lon="2.03486">
        <ele>175.2</ele>
        <time>2026-03-29T15:41:18Z</time>
      </trkpt>
      <trkpt lat="48.62333" lon="2.03494">
        <ele>175.2</ele>
        <time>2026-03-29T15:41:19Z</time>
      </trkpt>
      <trkpt lat="48.62332" lon="2.03501">
        <ele>175.2</ele>
        <time>2026-03-29T15:41:20Z</time>
      </trkpt>
      <trkpt lat="48.62329" lon="2.03509">
        <ele>174.2</ele>
        <time>2026-03-29T15:41:21Z</time>
      </trkpt>
      <trkpt lat="48.62329" lon="2.03517">
        <ele>174.6</ele>
        <time>2026-03-29T15:41:22Z</time>
      </trkpt>
      <trkpt lat="48.62327" lon="2.03524">
        <ele>174.6</ele>
        <time>2026-03-29T15:41:23Z</time>
      </trkpt>
      <trkpt lat="48.62324" lon="2.03533">
        <ele>174.6</ele>
        <time>2026-03-29T15:41:24Z</time>
      </trkpt>
      <trkpt lat="48.62322" lon="2.03541">
        <ele>173.6</ele>
        <time>2026-03-29T15:41:25Z</time>
      </trkpt>
      <trkpt lat="48.6232" lon="2.03549">
        <ele>173.2</ele>
        <time>2026-03-29T15:41:26Z</time>
      </trkpt>
      <trkpt lat="48.62317" lon="2.03558">
        <ele>173.2</ele>
        <time>2026-03-29T15:41:27Z</time>
      </trkpt>
      <trkpt lat="48.62314" lon="2.03565">
        <ele>173.2</ele>
        <time>2026-03-29T15:41:28Z</time>
      </trkpt>
      <trkpt lat="48.62311" lon="2.03569">
        <ele>173</ele>
        <time>2026-03-29T15:41:29Z</time>
      </trkpt>
      <trkpt lat="48.62307" lon="2.03572">
        <ele>172.8</ele>
        <time>2026-03-29T15:41:30Z</time>
      </trkpt>
      <trkpt lat="48.62303" lon="2.03571">
        <ele>172.8</ele>
        <time>2026-03-29T15:41:31Z</time>
      </trkpt>
      <trkpt lat="48.623" lon="2.03568">
        <ele>172.8</ele>
        <time>2026-03-29T15:41:32Z</time>
      </trkpt>
      <trkpt lat="48.62296" lon="2.03565">
        <ele>172.8</ele>
        <time>2026-03-29T15:41:33Z</time>
      </trkpt>
      <trkpt lat="48.62292" lon="2.03562">
        <ele>172.4</ele>
        <time>2026-03-29T15:41:34Z</time>
      </trkpt>
      <trkpt lat="48.62288" lon="2.03558">
        <ele>172.4</ele>
        <time>2026-03-29T15:41:35Z</time>
      </trkpt>
      <trkpt lat="48.62283" lon="2.03554">
        <ele>172.4</ele>
        <time>2026-03-29T15:41:36Z</time>
      </trkpt>
      <trkpt lat="48.62278" lon="2.03549">
        <ele>172.2</ele>
        <time>2026-03-29T15:41:37Z</time>
      </trkpt>
      <trkpt lat="48.62273" lon="2.03544">
        <ele>171.6</ele>
        <time>2026-03-29T15:41:38Z</time>
      </trkpt>
      <trkpt lat="48.62267" lon="2.03539">
        <ele>171.6</ele>
        <time>2026-03-29T15:41:39Z</time>
      </trkpt>
      <trkpt lat="48.62262" lon="2.03534">
        <ele>171.6</ele>
        <time>2026-03-29T15:41:40Z</time>
      </trkpt>
      <trkpt lat="48.62256" lon="2.03528">
        <ele>170.6</ele>
        <time>2026-03-29T15:41:41Z</time>
      </trkpt>
      <trkpt lat="48.6225" lon="2.03522">
        <ele>169.8</ele>
        <time>2026-03-29T15:41:42Z</time>
      </trkpt>
      <trkpt lat="48.62244" lon="2.03516">
        <ele>169.8</ele>
        <time>2026-03-29T15:41:43Z</time>
      </trkpt>
      <trkpt lat="48.62238" lon="2.03509">
        <ele>169.8</ele>
        <time>2026-03-29T15:41:44Z</time>
      </trkpt>
      <trkpt lat="48.62232" lon="2.03503">
        <ele>169.8</ele>
        <time>2026-03-29T15:41:45Z</time>
      </trkpt>
      <trkpt lat="48.62225" lon="2.03496">
        <ele>169</ele>
        <time>2026-03-29T15:41:46Z</time>
      </trkpt>
      <trkpt lat="48.62219" lon="2.03488">
        <ele>169</ele>
        <time>2026-03-29T15:41:47Z</time>
      </trkpt>
      <trkpt lat="48.62213" lon="2.0348">
        <ele>169</ele>
        <time>2026-03-29T15:41:48Z</time>
      </trkpt>
      <trkpt lat="48.62209" lon="2.03472">
        <ele>168</ele>
        <time>2026-03-29T15:41:49Z</time>
      </trkpt>
      <trkpt lat="48.62207" lon="2.03462">
        <ele>165.8</ele>
        <time>2026-03-29T15:41:50Z</time>
      </trkpt>
      <trkpt lat="48.62205" lon="2.03453">
        <ele>165.8</ele>
        <time>2026-03-29T15:41:51Z</time>
      </trkpt>
      <trkpt lat="48.62203" lon="2.03444">
        <ele>165.8</ele>
        <time>2026-03-29T15:41:52Z</time>
      </trkpt>
      <trkpt lat="48.62202" lon="2.03434">
        <ele>165.8</ele>
        <time>2026-03-29T15:41:53Z</time>
      </trkpt>
      <trkpt lat="48.622" lon="2.03424">
        <ele>165</ele>
        <time>2026-03-29T15:41:54Z</time>
      </trkpt>
      <trkpt lat="48.62198" lon="2.03415">
        <ele>165</ele>
        <time>2026-03-29T15:41:55Z</time>
      </trkpt>
      <trkpt lat="48.62196" lon="2.03405">
        <ele>165</ele>
        <time>2026-03-29T15:41:56Z</time>
      </trkpt>
      <trkpt lat="48.62194" lon="2.03396">
        <ele>164</ele>
        <time>2026-03-29T15:41:57Z</time>
      </trkpt>
      <trkpt lat="48.62193" lon="2.03386">
        <ele>163.6</ele>
        <time>2026-03-29T15:41:58Z</time>
      </trkpt>
      <trkpt lat="48.62191" lon="2.03377">
        <ele>163.6</ele>
        <time>2026-03-29T15:41:59Z</time>
      </trkpt>
      <trkpt lat="48.62191" lon="2.03369">
        <ele>163.6</ele>
        <time>2026-03-29T15:42:00Z</time>
      </trkpt>
      <trkpt lat="48.6219" lon="2.0336">
        <ele>163.6</ele>
        <time>2026-03-29T15:42:01Z</time>
      </trkpt>
      <trkpt lat="48.6219" lon="2.03351">
        <ele>162.6</ele>
        <time>2026-03-29T15:42:02Z</time>
      </trkpt>
      <trkpt lat="48.62189" lon="2.03342">
        <ele>162.6</ele>
        <time>2026-03-29T15:42:03Z</time>
      </trkpt>
      <trkpt lat="48.62188" lon="2.03334">
        <ele>162.6</ele>
        <time>2026-03-29T15:42:04Z</time>
      </trkpt>
      <trkpt lat="48.62188" lon="2.03325">
        <ele>162.6</ele>
        <time>2026-03-29T15:42:05Z</time>
      </trkpt>
      <trkpt lat="48.62188" lon="2.03317">
        <ele>162.6</ele>
        <time>2026-03-29T15:42:06Z</time>
      </trkpt>
      <trkpt lat="48.62188" lon="2.03308">
        <ele>162.6</ele>
        <time>2026-03-29T15:42:07Z</time>
      </trkpt>
      <trkpt lat="48.62187" lon="2.03299">
        <ele>162.6</ele>
        <time>2026-03-29T15:42:08Z</time>
      </trkpt>
      <trkpt lat="48.62187" lon="2.03291">
        <ele>162.6</ele>
        <time>2026-03-29T15:42:09Z</time>
      </trkpt>
      <trkpt lat="48.62187" lon="2.03282">
        <ele>161.8</ele>
        <time>2026-03-29T15:42:10Z</time>
      </trkpt>
      <trkpt lat="48.62186" lon="2.03274">
        <ele>161.8</ele>
        <time>2026-03-29T15:42:11Z</time>
      </trkpt>
      <trkpt lat="48.62186" lon="2.03265">
        <ele>161.8</ele>
        <time>2026-03-29T15:42:12Z</time>
      </trkpt>
      <trkpt lat="48.62185" lon="2.03257">
        <ele>162.4</ele>
        <time>2026-03-29T15:42:13Z</time>
      </trkpt>
      <trkpt lat="48.62184" lon="2.03248">
        <ele>161.8</ele>
        <time>2026-03-29T15:42:14Z</time>
      </trkpt>
      <trkpt lat="48.62183" lon="2.03239">
        <ele>161.8</ele>
        <time>2026-03-29T15:42:15Z</time>
      </trkpt>
      <trkpt lat="48.62182" lon="2.03229">
        <ele>161.8</ele>
        <time>2026-03-29T15:42:16Z</time>
      </trkpt>
      <trkpt lat="48.62181" lon="2.0322">
        <ele>161.8</ele>
        <time>2026-03-29T15:42:17Z</time>
      </trkpt>
      <trkpt lat="48.62181" lon="2.03211">
        <ele>161.4</ele>
        <time>2026-03-29T15:42:18Z</time>
      </trkpt>
      <trkpt lat="48.6218" lon="2.03203">
        <ele>161.4</ele>
        <time>2026-03-29T15:42:19Z</time>
      </trkpt>
      <trkpt lat="48.6218" lon="2.03195">
        <ele>161.4</ele>
        <time>2026-03-29T15:42:20Z</time>
      </trkpt>
      <trkpt lat="48.62179" lon="2.03187">
        <ele>161.4</ele>
        <time>2026-03-29T15:42:21Z</time>
      </trkpt>
      <trkpt lat="48.62179" lon="2.03179">
        <ele>161.2</ele>
        <time>2026-03-29T15:42:22Z</time>
      </trkpt>
      <trkpt lat="48.62179" lon="2.03171">
        <ele>161.2</ele>
        <time>2026-03-29T15:42:23Z</time>
      </trkpt>
      <trkpt lat="48.6218" lon="2.03163">
        <ele>161.2</ele>
        <time>2026-03-29T15:42:24Z</time>
      </trkpt>
      <trkpt lat="48.62182" lon="2.03156">
        <ele>161.2</ele>
        <time>2026-03-29T15:42:25Z</time>
      </trkpt>
      <trkpt lat="48.62184" lon="2.03148">
        <ele>160.8</ele>
        <time>2026-03-29T15:42:26Z</time>
      </trkpt>
      <trkpt lat="48.62185" lon="2.0314">
        <ele>160.8</ele>
        <time>2026-03-29T15:42:27Z</time>
      </trkpt>
      <trkpt lat="48.62185" lon="2.03132">
        <ele>160.8</ele>
        <time>2026-03-29T15:42:28Z</time>
      </trkpt>
      <trkpt lat="48.62184" lon="2.03125">
        <ele>161.2</ele>
        <time>2026-03-29T15:42:29Z</time>
      </trkpt>
      <trkpt lat="48.62182" lon="2.0312">
        <ele>161.2</ele>
        <time>2026-03-29T15:42:30Z</time>
      </trkpt>
      <trkpt lat="48.62178" lon="2.03117">
        <ele>161.2</ele>
        <time>2026-03-29T15:42:31Z</time>
      </trkpt>
      <trkpt lat="48.62175" lon="2.03114">
        <ele>161.2</ele>
        <time>2026-03-29T15:42:32Z</time>
      </trkpt>
      <trkpt lat="48.62173" lon="2.03109">
        <ele>161.2</ele>
        <time>2026-03-29T15:42:33Z</time>
      </trkpt>
      <trkpt lat="48.62172" lon="2.03104">
        <ele>160.6</ele>
        <time>2026-03-29T15:42:34Z</time>
      </trkpt>
      <trkpt lat="48.6217" lon="2.031">
        <ele>160.6</ele>
        <time>2026-03-29T15:42:35Z</time>
      </trkpt>
      <trkpt lat="48.6217" lon="2.03094">
        <ele>160.6</ele>
        <time>2026-03-29T15:42:36Z</time>
      </trkpt>
      <trkpt lat="48.62169" lon="2.03087">
        <ele>160.6</ele>
        <time>2026-03-29T15:42:37Z</time>
      </trkpt>
      <trkpt lat="48.62169" lon="2.03081">
        <ele>160.8</ele>
        <time>2026-03-29T15:42:38Z</time>
      </trkpt>
      <trkpt lat="48.62168" lon="2.03075">
        <ele>160.8</ele>
        <time>2026-03-29T15:42:39Z</time>
      </trkpt>
      <trkpt lat="48.62168" lon="2.03068">
        <ele>160.8</ele>
        <time>2026-03-29T15:42:40Z</time>
      </trkpt>
      <trkpt lat="48.62168" lon="2.03061">
        <ele>160.8</ele>
        <time>2026-03-29T15:42:41Z</time>
      </trkpt>
      <trkpt lat="48.62168" lon="2.03054">
        <ele>160.4</ele>
        <time>2026-03-29T15:42:42Z</time>
      </trkpt>
      <trkpt lat="48.62167" lon="2.03046">
        <ele>160.4</ele>
        <time>2026-03-29T15:42:43Z</time>
      </trkpt>
      <trkpt lat="48.62167" lon="2.03039">
        <ele>160.4</ele>
        <time>2026-03-29T15:42:44Z</time>
      </trkpt>
      <trkpt lat="48.62167" lon="2.03031">
        <ele>160.4</ele>
        <time>2026-03-29T15:42:45Z</time>
      </trkpt>
      <trkpt lat="48.62166" lon="2.03024">
        <ele>160.4</ele>
        <time>2026-03-29T15:42:46Z</time>
      </trkpt>
      <trkpt lat="48.62166" lon="2.03018">
        <ele>160.4</ele>
        <time>2026-03-29T15:42:47Z</time>
      </trkpt>
      <trkpt lat="48.62167" lon="2.03011">
        <ele>160.4</ele>
        <time>2026-03-29T15:42:48Z</time>
      </trkpt>
      <trkpt lat="48.62167" lon="2.03004">
        <ele>160</ele>
        <time>2026-03-29T15:42:49Z</time>
      </trkpt>
      <trkpt lat="48.62167" lon="2.02997">
        <ele>159.6</ele>
        <time>2026-03-29T15:42:50Z</time>
      </trkpt>
      <trkpt lat="48.62166" lon="2.02989">
        <ele>159.6</ele>
        <time>2026-03-29T15:42:51Z</time>
      </trkpt>
      <trkpt lat="48.62166" lon="2.02982">
        <ele>159.6</ele>
        <time>2026-03-29T15:42:52Z</time>
      </trkpt>
      <trkpt lat="48.62166" lon="2.02975">
        <ele>159.6</ele>
        <time>2026-03-29T15:42:53Z</time>
      </trkpt>
      <trkpt lat="48.62166" lon="2.02967">
        <ele>159.8</ele>
        <time>2026-03-29T15:42:54Z</time>
      </trkpt>
      <trkpt lat="48.62166" lon="2.02959">
        <ele>159.8</ele>
        <time>2026-03-29T15:42:55Z</time>
      </trkpt>
      <trkpt lat="48.62166" lon="2.02952">
        <ele>159.8</ele>
        <time>2026-03-29T15:42:56Z</time>
      </trkpt>
      <trkpt lat="48.62166" lon="2.02945">
        <ele>159.8</ele>
        <time>2026-03-29T15:42:57Z</time>
      </trkpt>
      <trkpt lat="48.62166" lon="2.02938">
        <ele>159.6</ele>
        <time>2026-03-29T15:42:58Z</time>
      </trkpt>
      <trkpt lat="48.62167" lon="2.02931">
        <ele>159.6</ele>
        <time>2026-03-29T15:42:59Z</time>
      </trkpt>
      <trkpt lat="48.62168" lon="2.02925">
        <ele>159.6</ele>
        <time>2026-03-29T15:43:00Z</time>
      </trkpt>
      <trkpt lat="48.62169" lon="2.02919">
        <ele>159.6</ele>
        <time>2026-03-29T15:43:01Z</time>
      </trkpt>
      <trkpt lat="48.6217" lon="2.02911">
        <ele>159.8</ele>
        <time>2026-03-29T15:43:02Z</time>
      </trkpt>
      <trkpt lat="48.6217" lon="2.02902">
        <ele>159.8</ele>
        <time>2026-03-29T15:43:03Z</time>
      </trkpt>
      <trkpt lat="48.62171" lon="2.02894">
        <ele>159.8</ele>
        <time>2026-03-29T15:43:04Z</time>
      </trkpt>
      <trkpt lat="48.62173" lon="2.02885">
        <ele>159.8</ele>
        <time>2026-03-29T15:43:05Z</time>
      </trkpt>
      <trkpt lat="48.62174" lon="2.02878">
        <ele>159.2</ele>
        <time>2026-03-29T15:43:06Z</time>
      </trkpt>
      <trkpt lat="48.62175" lon="2.02871">
        <ele>159.2</ele>
        <time>2026-03-29T15:43:07Z</time>
      </trkpt>
      <trkpt lat="48.62177" lon="2.02864">
        <ele>159.2</ele>
        <time>2026-03-29T15:43:08Z</time>
      </trkpt>
      <trkpt lat="48.62179" lon="2.02856">
        <ele>158.8</ele>
        <time>2026-03-29T15:43:09Z</time>
      </trkpt>
      <trkpt lat="48.62181" lon="2.02849">
        <ele>158.8</ele>
        <time>2026-03-29T15:43:10Z</time>
      </trkpt>
      <trkpt lat="48.62182" lon="2.02842">
        <ele>158.8</ele>
        <time>2026-03-29T15:43:11Z</time>
      </trkpt>
      <trkpt lat="48.62184" lon="2.02836">
        <ele>158.8</ele>
        <time>2026-03-29T15:43:12Z</time>
      </trkpt>
      <trkpt lat="48.62186" lon="2.02829">
        <ele>158.8</ele>
        <time>2026-03-29T15:43:13Z</time>
      </trkpt>
      <trkpt lat="48.62188" lon="2.02821">
        <ele>158.6</ele>
        <time>2026-03-29T15:43:14Z</time>
      </trkpt>
      <trkpt lat="48.62189" lon="2.02813">
        <ele>158.6</ele>
        <time>2026-03-29T15:43:15Z</time>
      </trkpt>
      <trkpt lat="48.62191" lon="2.02805">
        <ele>158.6</ele>
        <time>2026-03-29T15:43:16Z</time>
      </trkpt>
      <trkpt lat="48.62193" lon="2.02797">
        <ele>158.6</ele>
        <time>2026-03-29T15:43:17Z</time>
      </trkpt>
      <trkpt lat="48.62194" lon="2.0279">
        <ele>158.4</ele>
        <time>2026-03-29T15:43:18Z</time>
      </trkpt>
      <trkpt lat="48.62196" lon="2.02782">
        <ele>158.4</ele>
        <time>2026-03-29T15:43:19Z</time>
      </trkpt>
      <trkpt lat="48.62197" lon="2.02774">
        <ele>158.4</ele>
        <time>2026-03-29T15:43:20Z</time>
      </trkpt>
      <trkpt lat="48.62199" lon="2.02766">
        <ele>157.4</ele>
        <time>2026-03-29T15:43:21Z</time>
      </trkpt>
      <trkpt lat="48.62202" lon="2.02759">
        <ele>157.6</ele>
        <time>2026-03-29T15:43:22Z</time>
      </trkpt>
      <trkpt lat="48.62204" lon="2.02751">
        <ele>157.6</ele>
        <time>2026-03-29T15:43:23Z</time>
      </trkpt>
      <trkpt lat="48.62205" lon="2.02743">
        <ele>157.6</ele>
        <time>2026-03-29T15:43:24Z</time>
      </trkpt>
      <trkpt lat="48.62205" lon="2.02734">
        <ele>157.6</ele>
        <time>2026-03-29T15:43:25Z</time>
      </trkpt>
      <trkpt lat="48.62205" lon="2.02725">
        <ele>157.2</ele>
        <time>2026-03-29T15:43:26Z</time>
      </trkpt>
      <trkpt lat="48.62206" lon="2.02715">
        <ele>157.2</ele>
        <time>2026-03-29T15:43:27Z</time>
      </trkpt>
      <trkpt lat="48.62206" lon="2.02706">
        <ele>157.2</ele>
        <time>2026-03-29T15:43:28Z</time>
      </trkpt>
      <trkpt lat="48.62207" lon="2.02698">
        <ele>156.8</ele>
        <time>2026-03-29T15:43:29Z</time>
      </trkpt>
      <trkpt lat="48.62208" lon="2.02689">
        <ele>157</ele>
        <time>2026-03-29T15:43:30Z</time>
      </trkpt>
      <trkpt lat="48.62209" lon="2.0268">
        <ele>157</ele>
        <time>2026-03-29T15:43:31Z</time>
      </trkpt>
      <trkpt lat="48.6221" lon="2.02672">
        <ele>157</ele>
        <time>2026-03-29T15:43:32Z</time>
      </trkpt>
      <trkpt lat="48.6221" lon="2.02662">
        <ele>156</ele>
        <time>2026-03-29T15:43:33Z</time>
      </trkpt>
      <trkpt lat="48.62211" lon="2.02652">
        <ele>155.6</ele>
        <time>2026-03-29T15:43:34Z</time>
      </trkpt>
      <trkpt lat="48.62211" lon="2.02641">
        <ele>155.6</ele>
        <time>2026-03-29T15:43:35Z</time>
      </trkpt>
      <trkpt lat="48.62212" lon="2.02631">
        <ele>155.6</ele>
        <time>2026-03-29T15:43:36Z</time>
      </trkpt>
      <trkpt lat="48.62212" lon="2.02621">
        <ele>154.6</ele>
        <time>2026-03-29T15:43:37Z</time>
      </trkpt>
      <trkpt lat="48.62212" lon="2.02611">
        <ele>154</ele>
        <time>2026-03-29T15:43:38Z</time>
      </trkpt>
      <trkpt lat="48.62211" lon="2.026">
        <ele>154</ele>
        <time>2026-03-29T15:43:39Z</time>
      </trkpt>
      <trkpt lat="48.62211" lon="2.02589">
        <ele>154</ele>
        <time>2026-03-29T15:43:40Z</time>
      </trkpt>
      <trkpt lat="48.6221" lon="2.02579">
        <ele>154</ele>
        <time>2026-03-29T15:43:41Z</time>
      </trkpt>
      <trkpt lat="48.62209" lon="2.02568">
        <ele>153.4</ele>
        <time>2026-03-29T15:43:42Z</time>
      </trkpt>
      <trkpt lat="48.62208" lon="2.02557">
        <ele>153.4</ele>
        <time>2026-03-29T15:43:43Z</time>
      </trkpt>
      <trkpt lat="48.62205" lon="2.02547">
        <ele>153.4</ele>
        <time>2026-03-29T15:43:44Z</time>
      </trkpt>
      <trkpt lat="48.62203" lon="2.02536">
        <ele>153.4</ele>
        <time>2026-03-29T15:43:45Z</time>
      </trkpt>
      <trkpt lat="48.622" lon="2.02527">
        <ele>152.4</ele>
        <time>2026-03-29T15:43:46Z</time>
      </trkpt>
      <trkpt lat="48.62197" lon="2.02517">
        <ele>152.4</ele>
        <time>2026-03-29T15:43:47Z</time>
      </trkpt>
      <trkpt lat="48.62194" lon="2.02508">
        <ele>152.4</ele>
        <time>2026-03-29T15:43:48Z</time>
      </trkpt>
      <trkpt lat="48.62191" lon="2.025">
        <ele>151.8</ele>
        <time>2026-03-29T15:43:49Z</time>
      </trkpt>
      <trkpt lat="48.62187" lon="2.02491">
        <ele>150.2</ele>
        <time>2026-03-29T15:43:50Z</time>
      </trkpt>
      <trkpt lat="48.62184" lon="2.02483">
        <ele>150.2</ele>
        <time>2026-03-29T15:43:51Z</time>
      </trkpt>
      <trkpt lat="48.62181" lon="2.02474">
        <ele>150.2</ele>
        <time>2026-03-29T15:43:52Z</time>
      </trkpt>
      <trkpt lat="48.62177" lon="2.02467">
        <ele>150.2</ele>
        <time>2026-03-29T15:43:53Z</time>
      </trkpt>
      <trkpt lat="48.62174" lon="2.02461">
        <ele>149.6</ele>
        <time>2026-03-29T15:43:54Z</time>
      </trkpt>
      <trkpt lat="48.62171" lon="2.02454">
        <ele>149.6</ele>
        <time>2026-03-29T15:43:55Z</time>
      </trkpt>
      <trkpt lat="48.62168" lon="2.02448">
        <ele>149.6</ele>
        <time>2026-03-29T15:43:56Z</time>
      </trkpt>
      <trkpt lat="48.62165" lon="2.02442">
        <ele>149.6</ele>
        <time>2026-03-29T15:43:57Z</time>
      </trkpt>
      <trkpt lat="48.62162" lon="2.02436">
        <ele>149.2</ele>
        <time>2026-03-29T15:43:58Z</time>
      </trkpt>
      <trkpt lat="48.62159" lon="2.02428">
        <ele>149.2</ele>
        <time>2026-03-29T15:43:59Z</time>
      </trkpt>
      <trkpt lat="48.62156" lon="2.0242">
        <ele>149.2</ele>
        <time>2026-03-29T15:44:00Z</time>
      </trkpt>
      <trkpt lat="48.62153" lon="2.02412">
        <ele>149.2</ele>
        <time>2026-03-29T15:44:01Z</time>
      </trkpt>
      <trkpt lat="48.6215" lon="2.02404">
        <ele>148.8</ele>
        <time>2026-03-29T15:44:02Z</time>
      </trkpt>
      <trkpt lat="48.62148" lon="2.02395">
        <ele>148.8</ele>
        <time>2026-03-29T15:44:03Z</time>
      </trkpt>
      <trkpt lat="48.62145" lon="2.02386">
        <ele>148.8</ele>
        <time>2026-03-29T15:44:04Z</time>
      </trkpt>
      <trkpt lat="48.62143" lon="2.02377">
        <ele>148.8</ele>
        <time>2026-03-29T15:44:05Z</time>
      </trkpt>
      <trkpt lat="48.6214" lon="2.02368">
        <ele>148.4</ele>
        <time>2026-03-29T15:44:06Z</time>
      </trkpt>
      <trkpt lat="48.62138" lon="2.02359">
        <ele>148.4</ele>
        <time>2026-03-29T15:44:07Z</time>
      </trkpt>
      <trkpt lat="48.62136" lon="2.0235">
        <ele>148.4</ele>
        <time>2026-03-29T15:44:08Z</time>
      </trkpt>
      <trkpt lat="48.62134" lon="2.0234">
        <ele>148.2</ele>
        <time>2026-03-29T15:44:09Z</time>
      </trkpt>
      <trkpt lat="48.62134" lon="2.02331">
        <ele>148</ele>
        <time>2026-03-29T15:44:10Z</time>
      </trkpt>
      <trkpt lat="48.62135" lon="2.02321">
        <ele>148</ele>
        <time>2026-03-29T15:44:11Z</time>
      </trkpt>
      <trkpt lat="48.62137" lon="2.02311">
        <ele>148</ele>
        <time>2026-03-29T15:44:12Z</time>
      </trkpt>
      <trkpt lat="48.62141" lon="2.02304">
        <ele>148</ele>
        <time>2026-03-29T15:44:13Z</time>
      </trkpt>
      <trkpt lat="48.62144" lon="2.02298">
        <ele>148</ele>
        <time>2026-03-29T15:44:14Z</time>
      </trkpt>
      <trkpt lat="48.62147" lon="2.02291">
        <ele>148</ele>
        <time>2026-03-29T15:44:15Z</time>
      </trkpt>
      <trkpt lat="48.62151" lon="2.02284">
        <ele>148</ele>
        <time>2026-03-29T15:44:16Z</time>
      </trkpt>
      <trkpt lat="48.62154" lon="2.02278">
        <ele>148.8</ele>
        <time>2026-03-29T15:44:17Z</time>
      </trkpt>
      <trkpt lat="48.62157" lon="2.02271">
        <ele>149.4</ele>
        <time>2026-03-29T15:44:18Z</time>
      </trkpt>
      <trkpt lat="48.6216" lon="2.02263">
        <ele>149.4</ele>
        <time>2026-03-29T15:44:19Z</time>
      </trkpt>
      <trkpt lat="48.62162" lon="2.02256">
        <ele>149.4</ele>
        <time>2026-03-29T15:44:20Z</time>
      </trkpt>
      <trkpt lat="48.62165" lon="2.02249">
        <ele>149.4</ele>
        <time>2026-03-29T15:44:21Z</time>
      </trkpt>
      <trkpt lat="48.62168" lon="2.02243">
        <ele>149.8</ele>
        <time>2026-03-29T15:44:22Z</time>
      </trkpt>
      <trkpt lat="48.62172" lon="2.02237">
        <ele>149.8</ele>
        <time>2026-03-29T15:44:23Z</time>
      </trkpt>
      <trkpt lat="48.62176" lon="2.02233">
        <ele>149.8</ele>
        <time>2026-03-29T15:44:24Z</time>
      </trkpt>
      <trkpt lat="48.62179" lon="2.02229">
        <ele>149.8</ele>
        <time>2026-03-29T15:44:25Z</time>
      </trkpt>
      <trkpt lat="48.62183" lon="2.02224">
        <ele>150.2</ele>
        <time>2026-03-29T15:44:26Z</time>
      </trkpt>
      <trkpt lat="48.62186" lon="2.0222">
        <ele>150.2</ele>
        <time>2026-03-29T15:44:27Z</time>
      </trkpt>
      <trkpt lat="48.62186" lon="2.02215">
        <ele>150.2</ele>
        <time>2026-03-29T15:44:28Z</time>
      </trkpt>
      <trkpt lat="48.62187" lon="2.0221">
        <ele>150.2</ele>
        <time>2026-03-29T15:44:29Z</time>
      </trkpt>
      <trkpt lat="48.62188" lon="2.02207">
        <ele>149.8</ele>
        <time>2026-03-29T15:44:30Z</time>
      </trkpt>
      <trkpt lat="48.6219" lon="2.02206">
        <ele>149.8</ele>
        <time>2026-03-29T15:44:31Z</time>
      </trkpt>
      <trkpt lat="48.62192" lon="2.02204">
        <ele>149.8</ele>
        <time>2026-03-29T15:44:32Z</time>
      </trkpt>
      <trkpt lat="48.62193" lon="2.02202">
        <ele>149.8</ele>
        <time>2026-03-29T15:44:33Z</time>
      </trkpt>
      <trkpt lat="48.62193" lon="2.02201">
        <ele>149.4</ele>
        <time>2026-03-29T15:44:34Z</time>
      </trkpt>
      <trkpt lat="48.62193" lon="2.02201">
        <ele>149.4</ele>
        <time>2026-03-29T15:44:35Z</time>
      </trkpt>
      <trkpt lat="48.62194" lon="2.02201">
        <ele>149.4</ele>
        <time>2026-03-29T15:44:36Z</time>
      </trkpt>
      <trkpt lat="48.62196" lon="2.022">
        <ele>149.4</ele>
        <time>2026-03-29T15:44:37Z</time>
      </trkpt>
      <trkpt lat="48.62197" lon="2.022">
        <ele>149.6</ele>
        <time>2026-03-29T15:44:38Z</time>
      </trkpt>
      <trkpt lat="48.62199" lon="2.022">
        <ele>149.6</ele>
        <time>2026-03-29T15:44:39Z</time>
      </trkpt>
      <trkpt lat="48.62201" lon="2.02202">
        <ele>149.6</ele>
        <time>2026-03-29T15:44:40Z</time>
      </trkpt>
      <trkpt lat="48.62203" lon="2.02203">
        <ele>149.8</ele>
        <time>2026-03-29T15:44:41Z</time>
      </trkpt>
      <trkpt lat="48.62206" lon="2.02205">
        <ele>150.4</ele>
        <time>2026-03-29T15:44:42Z</time>
      </trkpt>
      <trkpt lat="48.62209" lon="2.02205">
        <ele>150.4</ele>
        <time>2026-03-29T15:44:43Z</time>
      </trkpt>
      <trkpt lat="48.62213" lon="2.02203">
        <ele>150.4</ele>
        <time>2026-03-29T15:44:44Z</time>
      </trkpt>
      <trkpt lat="48.62216" lon="2.02204">
        <ele>150.4</ele>
        <time>2026-03-29T15:44:45Z</time>
      </trkpt>
      <trkpt lat="48.62219" lon="2.02208">
        <ele>150.6</ele>
        <time>2026-03-29T15:44:46Z</time>
      </trkpt>
      <trkpt lat="48.62221" lon="2.02212">
        <ele>150.6</ele>
        <time>2026-03-29T15:44:47Z</time>
      </trkpt>
      <trkpt lat="48.62224" lon="2.02216">
        <ele>150.6</ele>
        <time>2026-03-29T15:44:48Z</time>
      </trkpt>
      <trkpt lat="48.62226" lon="2.0222">
        <ele>150.8</ele>
        <time>2026-03-29T15:44:49Z</time>
      </trkpt>
      <trkpt lat="48.62229" lon="2.02224">
        <ele>150.4</ele>
        <time>2026-03-29T15:44:50Z</time>
      </trkpt>
      <trkpt lat="48.62232" lon="2.02228">
        <ele>150.4</ele>
        <time>2026-03-29T15:44:51Z</time>
      </trkpt>
      <trkpt lat="48.62233" lon="2.0223">
        <ele>150.4</ele>
        <time>2026-03-29T15:44:52Z</time>
      </trkpt>
      <trkpt lat="48.62234" lon="2.02231">
        <ele>150.4</ele>
        <time>2026-03-29T15:44:53Z</time>
      </trkpt>
      <trkpt lat="48.62237" lon="2.02231">
        <ele>150.6</ele>
        <time>2026-03-29T15:44:54Z</time>
      </trkpt>
      <trkpt lat="48.6224" lon="2.0223">
        <ele>150.6</ele>
        <time>2026-03-29T15:44:55Z</time>
      </trkpt>
      <trkpt lat="48.62243" lon="2.02228">
        <ele>150.6</ele>
        <time>2026-03-29T15:44:56Z</time>
      </trkpt>
      <trkpt lat="48.62246" lon="2.02223">
        <ele>151.6</ele>
        <time>2026-03-29T15:44:57Z</time>
      </trkpt>
      <trkpt lat="48.6225" lon="2.02219">
        <ele>151.6</ele>
        <time>2026-03-29T15:44:58Z</time>
      </trkpt>
      <trkpt lat="48.62253" lon="2.02215">
        <ele>151.6</ele>
        <time>2026-03-29T15:44:59Z</time>
      </trkpt>
      <trkpt lat="48.62256" lon="2.0221">
        <ele>151.6</ele>
        <time>2026-03-29T15:45:00Z</time>
      </trkpt>
      <trkpt lat="48.62259" lon="2.02206">
        <ele>151.6</ele>
        <time>2026-03-29T15:45:01Z</time>
      </trkpt>
      <trkpt lat="48.62262" lon="2.02202">
        <ele>152.4</ele>
        <time>2026-03-29T15:45:02Z</time>
      </trkpt>
      <trkpt lat="48.62265" lon="2.02197">
        <ele>152.4</ele>
        <time>2026-03-29T15:45:03Z</time>
      </trkpt>
      <trkpt lat="48.62267" lon="2.02192">
        <ele>152.4</ele>
        <time>2026-03-29T15:45:04Z</time>
      </trkpt>
      <trkpt lat="48.62269" lon="2.02186">
        <ele>152.4</ele>
        <time>2026-03-29T15:45:05Z</time>
      </trkpt>
      <trkpt lat="48.62272" lon="2.02181">
        <ele>152.2</ele>
        <time>2026-03-29T15:45:06Z</time>
      </trkpt>
      <trkpt lat="48.62275" lon="2.02176">
        <ele>152.2</ele>
        <time>2026-03-29T15:45:07Z</time>
      </trkpt>
      <trkpt lat="48.62278" lon="2.02172">
        <ele>152.2</ele>
        <time>2026-03-29T15:45:08Z</time>
      </trkpt>
      <trkpt lat="48.62281" lon="2.02168">
        <ele>153</ele>
        <time>2026-03-29T15:45:09Z</time>
      </trkpt>
      <trkpt lat="48.62284" lon="2.02164">
        <ele>152.4</ele>
        <time>2026-03-29T15:45:10Z</time>
      </trkpt>
      <trkpt lat="48.62287" lon="2.0216">
        <ele>152.4</ele>
        <time>2026-03-29T15:45:11Z</time>
      </trkpt>
      <trkpt lat="48.6229" lon="2.02156">
        <ele>152.4</ele>
        <time>2026-03-29T15:45:12Z</time>
      </trkpt>
      <trkpt lat="48.62293" lon="2.02152">
        <ele>152.4</ele>
        <time>2026-03-29T15:45:13Z</time>
      </trkpt>
      <trkpt lat="48.62295" lon="2.02146">
        <ele>152.8</ele>
        <time>2026-03-29T15:45:14Z</time>
      </trkpt>
      <trkpt lat="48.62294" lon="2.02142">
        <ele>152.8</ele>
        <time>2026-03-29T15:45:15Z</time>
      </trkpt>
      <trkpt lat="48.62291" lon="2.02139">
        <ele>152.8</ele>
        <time>2026-03-29T15:45:16Z</time>
      </trkpt>
      <trkpt lat="48.62289" lon="2.02135">
        <ele>153.4</ele>
        <time>2026-03-29T15:45:17Z</time>
      </trkpt>
      <trkpt lat="48.62287" lon="2.0213">
        <ele>152.6</ele>
        <time>2026-03-29T15:45:18Z</time>
      </trkpt>
      <trkpt lat="48.62285" lon="2.02124">
        <ele>152.6</ele>
        <time>2026-03-29T15:45:19Z</time>
      </trkpt>
      <trkpt lat="48.62283" lon="2.02118">
        <ele>152.6</ele>
        <time>2026-03-29T15:45:20Z</time>
      </trkpt>
      <trkpt lat="48.62281" lon="2.02112">
        <ele>152.6</ele>
        <time>2026-03-29T15:45:21Z</time>
      </trkpt>
      <trkpt lat="48.62279" lon="2.02106">
        <ele>152.6</ele>
        <time>2026-03-29T15:45:22Z</time>
      </trkpt>
      <trkpt lat="48.62277" lon="2.021">
        <ele>152.4</ele>
        <time>2026-03-29T15:45:23Z</time>
      </trkpt>
      <trkpt lat="48.62274" lon="2.02093">
        <ele>152.4</ele>
        <time>2026-03-29T15:45:24Z</time>
      </trkpt>
      <trkpt lat="48.62272" lon="2.02085">
        <ele>151.4</ele>
        <time>2026-03-29T15:45:25Z</time>
      </trkpt>
      <trkpt lat="48.62271" lon="2.02077">
        <ele>150.4</ele>
        <time>2026-03-29T15:45:26Z</time>
      </trkpt>
      <trkpt lat="48.62271" lon="2.02068">
        <ele>150.4</ele>
        <time>2026-03-29T15:45:27Z</time>
      </trkpt>
      <trkpt lat="48.6227" lon="2.0206">
        <ele>150.4</ele>
        <time>2026-03-29T15:45:28Z</time>
      </trkpt>
      <trkpt lat="48.6227" lon="2.02052">
        <ele>150.4</ele>
        <time>2026-03-29T15:45:29Z</time>
      </trkpt>
      <trkpt lat="48.62269" lon="2.02043">
        <ele>150.2</ele>
        <time>2026-03-29T15:45:30Z</time>
      </trkpt>
      <trkpt lat="48.62268" lon="2.02035">
        <ele>150.2</ele>
        <time>2026-03-29T15:45:31Z</time>
      </trkpt>
      <trkpt lat="48.62267" lon="2.02027">
        <ele>150.2</ele>
        <time>2026-03-29T15:45:32Z</time>
      </trkpt>
      <trkpt lat="48.62266" lon="2.02018">
        <ele>150.4</ele>
        <time>2026-03-29T15:45:33Z</time>
      </trkpt>
      <trkpt lat="48.62264" lon="2.02012">
        <ele>150.4</ele>
        <time>2026-03-29T15:45:34Z</time>
      </trkpt>
      <trkpt lat="48.62263" lon="2.02006">
        <ele>150.4</ele>
        <time>2026-03-29T15:45:35Z</time>
      </trkpt>
      <trkpt lat="48.62263" lon="2.02002">
        <ele>150.4</ele>
        <time>2026-03-29T15:45:36Z</time>
      </trkpt>
      <trkpt lat="48.62262" lon="2.01999">
        <ele>150.4</ele>
        <time>2026-03-29T15:45:37Z</time>
      </trkpt>
      <trkpt lat="48.62261" lon="2.01996">
        <ele>150.2</ele>
        <time>2026-03-29T15:45:38Z</time>
      </trkpt>
      <trkpt lat="48.6226" lon="2.01994">
        <ele>150.2</ele>
        <time>2026-03-29T15:45:39Z</time>
      </trkpt>
      <trkpt lat="48.6226" lon="2.01991">
        <ele>150.2</ele>
        <time>2026-03-29T15:45:40Z</time>
      </trkpt>
      <trkpt lat="48.62258" lon="2.01987">
        <ele>150.8</ele>
        <time>2026-03-29T15:45:41Z</time>
      </trkpt>
      <trkpt lat="48.62257" lon="2.01982">
        <ele>150.4</ele>
        <time>2026-03-29T15:45:42Z</time>
      </trkpt>
      <trkpt lat="48.62257" lon="2.01977">
        <ele>150.4</ele>
        <time>2026-03-29T15:45:43Z</time>
      </trkpt>
      <trkpt lat="48.62256" lon="2.0197">
        <ele>150.4</ele>
        <time>2026-03-29T15:45:44Z</time>
      </trkpt>
      <trkpt lat="48.62255" lon="2.01966">
        <ele>151.2</ele>
        <time>2026-03-29T15:45:45Z</time>
      </trkpt>
      <trkpt lat="48.62254" lon="2.01961">
        <ele>151.2</ele>
        <time>2026-03-29T15:45:46Z</time>
      </trkpt>
      <trkpt lat="48.62253" lon="2.01958">
        <ele>151.2</ele>
        <time>2026-03-29T15:45:47Z</time>
      </trkpt>
      <trkpt lat="48.62251" lon="2.01952">
        <ele>151.2</ele>
        <time>2026-03-29T15:45:48Z</time>
      </trkpt>
      <trkpt lat="48.6225" lon="2.01947">
        <ele>151.2</ele>
        <time>2026-03-29T15:45:49Z</time>
      </trkpt>
      <trkpt lat="48.62249" lon="2.0194">
        <ele>151</ele>
        <time>2026-03-29T15:45:50Z</time>
      </trkpt>
      <trkpt lat="48.62248" lon="2.01934">
        <ele>151</ele>
        <time>2026-03-29T15:45:51Z</time>
      </trkpt>
      <trkpt lat="48.62247" lon="2.01929">
        <ele>151</ele>
        <time>2026-03-29T15:45:52Z</time>
      </trkpt>
      <trkpt lat="48.62246" lon="2.01922">
        <ele>151.2</ele>
        <time>2026-03-29T15:45:53Z</time>
      </trkpt>
      <trkpt lat="48.62244" lon="2.01916">
        <ele>151.4</ele>
        <time>2026-03-29T15:45:54Z</time>
      </trkpt>
      <trkpt lat="48.62243" lon="2.01909">
        <ele>151.4</ele>
        <time>2026-03-29T15:45:55Z</time>
      </trkpt>
      <trkpt lat="48.62243" lon="2.01903">
        <ele>151.4</ele>
        <time>2026-03-29T15:45:56Z</time>
      </trkpt>
      <trkpt lat="48.62244" lon="2.01897">
        <ele>151.4</ele>
        <time>2026-03-29T15:45:57Z</time>
      </trkpt>
      <trkpt lat="48.62246" lon="2.01894">
        <ele>151.6</ele>
        <time>2026-03-29T15:45:58Z</time>
      </trkpt>
      <trkpt lat="48.62249" lon="2.01891">
        <ele>151.6</ele>
        <time>2026-03-29T15:45:59Z</time>
      </trkpt>
      <trkpt lat="48.62251" lon="2.01887">
        <ele>151.6</ele>
        <time>2026-03-29T15:46:00Z</time>
      </trkpt>
      <trkpt lat="48.62252" lon="2.01883">
        <ele>151.4</ele>
        <time>2026-03-29T15:46:01Z</time>
      </trkpt>
      <trkpt lat="48.62252" lon="2.01877">
        <ele>151.6</ele>
        <time>2026-03-29T15:46:02Z</time>
      </trkpt>
      <trkpt lat="48.62251" lon="2.01871">
        <ele>151.6</ele>
        <time>2026-03-29T15:46:03Z</time>
      </trkpt>
      <trkpt lat="48.62249" lon="2.01866">
        <ele>151.6</ele>
        <time>2026-03-29T15:46:04Z</time>
      </trkpt>
      <trkpt lat="48.62248" lon="2.01861">
        <ele>151.6</ele>
        <time>2026-03-29T15:46:05Z</time>
      </trkpt>
      <trkpt lat="48.62248" lon="2.01855">
        <ele>151.2</ele>
        <time>2026-03-29T15:46:06Z</time>
      </trkpt>
      <trkpt lat="48.6225" lon="2.0185">
        <ele>151.2</ele>
        <time>2026-03-29T15:46:07Z</time>
      </trkpt>
      <trkpt lat="48.62253" lon="2.01846">
        <ele>151.2</ele>
        <time>2026-03-29T15:46:08Z</time>
      </trkpt>
      <trkpt lat="48.62257" lon="2.01843">
        <ele>151</ele>
        <time>2026-03-29T15:46:09Z</time>
      </trkpt>
      <trkpt lat="48.6226" lon="2.0184">
        <ele>151.2</ele>
        <time>2026-03-29T15:46:10Z</time>
      </trkpt>
      <trkpt lat="48.62262" lon="2.01836">
        <ele>151.2</ele>
        <time>2026-03-29T15:46:11Z</time>
      </trkpt>
      <trkpt lat="48.62262" lon="2.01833">
        <ele>151.2</ele>
        <time>2026-03-29T15:46:12Z</time>
      </trkpt>
      <trkpt lat="48.62262" lon="2.0183">
        <ele>151.2</ele>
        <time>2026-03-29T15:46:13Z</time>
      </trkpt>
      <trkpt lat="48.62262" lon="2.0183">
        <ele>151</ele>
        <time>2026-03-29T15:46:14Z</time>
      </trkpt>
      <trkpt lat="48.62262" lon="2.0183">
        <ele>151</ele>
        <time>2026-03-29T15:46:15Z</time>
      </trkpt>
    </trkseg>
  </trk>
</gpx>